<?xml version="1.0" encoding="UTF-8" standalone="no" ?>
<gpx xmlns="http://www.topografix.com/GPX/1/1" xmlns:xsi="http://www.w3.org/2001/XMLSchema-instance" xsi:schemaLocation="http://www.topografix.com/GPX/1/1 http://www.topografix.com/GPX/1/1/gpx.xsd" version="1.1" creator="VisuGPX - https://www.visugpx.com">
  <metadata>
    <name>Mtp Lavérune St Jean de Védas</name>
  </metadata>
  <trk>
    <name><![CDATA[Mtp Lavérune St Jean de Védas_1]]></name>
    <trkseg>
      <trkpt lat="43.61147" lon="3.87736">
        <ele>47</ele>
        <time>2021-01-09T12:11:58Z</time>
      </trkpt>
      <trkpt lat="43.6115" lon="3.87744">
        <ele>47</ele>
        <time>2021-01-09T12:12:36Z</time>
      </trkpt>
      <trkpt lat="43.61149" lon="3.87732">
        <ele>90</ele>
        <time>2021-01-09T12:12:44Z</time>
      </trkpt>
      <trkpt lat="43.61154" lon="3.87735">
        <ele>47</ele>
        <time>2021-01-09T12:12:46Z</time>
      </trkpt>
      <trkpt lat="43.61155" lon="3.87738">
        <ele>47</ele>
        <time>2021-01-09T12:12:48Z</time>
      </trkpt>
      <trkpt lat="43.61154" lon="3.87741">
        <ele>47</ele>
        <time>2021-01-09T12:12:51Z</time>
      </trkpt>
      <trkpt lat="43.61154" lon="3.8774">
        <ele>80</ele>
        <time>2021-01-09T12:13:05Z</time>
      </trkpt>
      <trkpt lat="43.61152" lon="3.87756">
        <ele>80</ele>
        <time>2021-01-09T12:14:02Z</time>
      </trkpt>
      <trkpt lat="43.61153" lon="3.87756">
        <ele>47</ele>
        <time>2021-01-09T12:14:03Z</time>
      </trkpt>
      <trkpt lat="43.61154" lon="3.87755">
        <ele>80</ele>
        <time>2021-01-09T12:14:09Z</time>
      </trkpt>
      <trkpt lat="43.61155" lon="3.8775">
        <ele>79</ele>
        <time>2021-01-09T12:14:20Z</time>
      </trkpt>
      <trkpt lat="43.61155" lon="3.87755">
        <ele>77</ele>
        <time>2021-01-09T12:14:50Z</time>
      </trkpt>
      <trkpt lat="43.61155" lon="3.87753">
        <ele>47</ele>
        <time>2021-01-09T12:14:52Z</time>
      </trkpt>
      <trkpt lat="43.61155" lon="3.87753">
        <ele>77</ele>
        <time>2021-01-09T12:14:57Z</time>
      </trkpt>
      <trkpt lat="43.61154" lon="3.87756">
        <ele>75</ele>
        <time>2021-01-09T12:15:28Z</time>
      </trkpt>
      <trkpt lat="43.61152" lon="3.87757">
        <ele>47</ele>
        <time>2021-01-09T12:15:30Z</time>
      </trkpt>
      <trkpt lat="43.61149" lon="3.87756">
        <ele>47</ele>
        <time>2021-01-09T12:15:32Z</time>
      </trkpt>
      <trkpt lat="43.61147" lon="3.87754">
        <ele>47</ele>
        <time>2021-01-09T12:15:33Z</time>
      </trkpt>
      <trkpt lat="43.61145" lon="3.87752">
        <ele>47</ele>
        <time>2021-01-09T12:15:34Z</time>
      </trkpt>
      <trkpt lat="43.61142" lon="3.8775">
        <ele>47</ele>
        <time>2021-01-09T12:15:35Z</time>
      </trkpt>
      <trkpt lat="43.61139" lon="3.87748">
        <ele>47</ele>
        <time>2021-01-09T12:15:36Z</time>
      </trkpt>
      <trkpt lat="43.61135" lon="3.87746">
        <ele>47</ele>
        <time>2021-01-09T12:15:37Z</time>
      </trkpt>
      <trkpt lat="43.61132" lon="3.87744">
        <ele>72</ele>
        <time>2021-01-09T12:15:38Z</time>
      </trkpt>
      <trkpt lat="43.61128" lon="3.8774">
        <ele>47</ele>
        <time>2021-01-09T12:15:39Z</time>
      </trkpt>
      <trkpt lat="43.61126" lon="3.87737">
        <ele>47</ele>
        <time>2021-01-09T12:15:40Z</time>
      </trkpt>
      <trkpt lat="43.61123" lon="3.87735">
        <ele>47</ele>
        <time>2021-01-09T12:15:41Z</time>
      </trkpt>
      <trkpt lat="43.61119" lon="3.87733">
        <ele>47</ele>
        <time>2021-01-09T12:15:42Z</time>
      </trkpt>
      <trkpt lat="43.61111" lon="3.87726">
        <ele>47</ele>
        <time>2021-01-09T12:15:44Z</time>
      </trkpt>
      <trkpt lat="43.6111" lon="3.87722">
        <ele>47</ele>
        <time>2021-01-09T12:15:46Z</time>
      </trkpt>
      <trkpt lat="43.61108" lon="3.8772">
        <ele>46.9</ele>
        <time>2021-01-09T12:15:47Z</time>
      </trkpt>
      <trkpt lat="43.61101" lon="3.87717">
        <ele>70</ele>
        <time>2021-01-09T12:15:48Z</time>
      </trkpt>
      <trkpt lat="43.61098" lon="3.87715">
        <ele>46.5</ele>
        <time>2021-01-09T12:15:49Z</time>
      </trkpt>
      <trkpt lat="43.61094" lon="3.87713">
        <ele>46.4</ele>
        <time>2021-01-09T12:15:50Z</time>
      </trkpt>
      <trkpt lat="43.6109" lon="3.87711">
        <ele>46.2</ele>
        <time>2021-01-09T12:15:51Z</time>
      </trkpt>
      <trkpt lat="43.61086" lon="3.87708">
        <ele>46.1</ele>
        <time>2021-01-09T12:15:52Z</time>
      </trkpt>
      <trkpt lat="43.61078" lon="3.877">
        <ele>46</ele>
        <time>2021-01-09T12:15:54Z</time>
      </trkpt>
      <trkpt lat="43.61075" lon="3.87697">
        <ele>46</ele>
        <time>2021-01-09T12:15:55Z</time>
      </trkpt>
      <trkpt lat="43.61072" lon="3.87694">
        <ele>46</ele>
        <time>2021-01-09T12:15:56Z</time>
      </trkpt>
      <trkpt lat="43.61069" lon="3.8769">
        <ele>68</ele>
        <time>2021-01-09T12:15:58Z</time>
      </trkpt>
      <trkpt lat="43.61066" lon="3.87686">
        <ele>46.2</ele>
        <time>2021-01-09T12:15:59Z</time>
      </trkpt>
      <trkpt lat="43.61064" lon="3.87682">
        <ele>46.3</ele>
        <time>2021-01-09T12:16:00Z</time>
      </trkpt>
      <trkpt lat="43.61062" lon="3.87677">
        <ele>46.3</ele>
        <time>2021-01-09T12:16:01Z</time>
      </trkpt>
      <trkpt lat="43.61059" lon="3.87673">
        <ele>46.2</ele>
        <time>2021-01-09T12:16:02Z</time>
      </trkpt>
      <trkpt lat="43.61057" lon="3.87669">
        <ele>46.1</ele>
        <time>2021-01-09T12:16:03Z</time>
      </trkpt>
      <trkpt lat="43.61054" lon="3.87666">
        <ele>46</ele>
        <time>2021-01-09T12:16:04Z</time>
      </trkpt>
      <trkpt lat="43.61051" lon="3.87664">
        <ele>46.1</ele>
        <time>2021-01-09T12:16:05Z</time>
      </trkpt>
      <trkpt lat="43.61048" lon="3.87661">
        <ele>46.1</ele>
        <time>2021-01-09T12:16:06Z</time>
      </trkpt>
      <trkpt lat="43.61045" lon="3.87658">
        <ele>46.2</ele>
        <time>2021-01-09T12:16:07Z</time>
      </trkpt>
      <trkpt lat="43.61041" lon="3.87655">
        <ele>64</ele>
        <time>2021-01-09T12:16:08Z</time>
      </trkpt>
      <trkpt lat="43.61038" lon="3.87653">
        <ele>46.2</ele>
        <time>2021-01-09T12:16:10Z</time>
      </trkpt>
      <trkpt lat="43.61032" lon="3.87648">
        <ele>46.1</ele>
        <time>2021-01-09T12:16:11Z</time>
      </trkpt>
      <trkpt lat="43.61029" lon="3.87645">
        <ele>46</ele>
        <time>2021-01-09T12:16:12Z</time>
      </trkpt>
      <trkpt lat="43.61025" lon="3.87641">
        <ele>45.9</ele>
        <time>2021-01-09T12:16:13Z</time>
      </trkpt>
      <trkpt lat="43.61019" lon="3.87634">
        <ele>45.7</ele>
        <time>2021-01-09T12:16:15Z</time>
      </trkpt>
      <trkpt lat="43.61015" lon="3.87631">
        <ele>45.7</ele>
        <time>2021-01-09T12:16:16Z</time>
      </trkpt>
      <trkpt lat="43.61012" lon="3.87627">
        <ele>45.7</ele>
        <time>2021-01-09T12:16:17Z</time>
      </trkpt>
      <trkpt lat="43.61009" lon="3.87624">
        <ele>45.7</ele>
        <time>2021-01-09T12:16:19Z</time>
      </trkpt>
      <trkpt lat="43.61006" lon="3.87619">
        <ele>45.8</ele>
        <time>2021-01-09T12:16:20Z</time>
      </trkpt>
      <trkpt lat="43.61003" lon="3.87614">
        <ele>45.9</ele>
        <time>2021-01-09T12:16:21Z</time>
      </trkpt>
      <trkpt lat="43.61" lon="3.8761">
        <ele>46</ele>
        <time>2021-01-09T12:16:22Z</time>
      </trkpt>
      <trkpt lat="43.60996" lon="3.87605">
        <ele>45.7</ele>
        <time>2021-01-09T12:16:23Z</time>
      </trkpt>
      <trkpt lat="43.60993" lon="3.876">
        <ele>45.5</ele>
        <time>2021-01-09T12:16:24Z</time>
      </trkpt>
      <trkpt lat="43.6099" lon="3.87595">
        <ele>45.2</ele>
        <time>2021-01-09T12:16:25Z</time>
      </trkpt>
      <trkpt lat="43.60987" lon="3.87589">
        <ele>44.8</ele>
        <time>2021-01-09T12:16:26Z</time>
      </trkpt>
      <trkpt lat="43.60983" lon="3.87583">
        <ele>44.4</ele>
        <time>2021-01-09T12:16:27Z</time>
      </trkpt>
      <trkpt lat="43.60979" lon="3.87577">
        <ele>60</ele>
        <time>2021-01-09T12:16:28Z</time>
      </trkpt>
      <trkpt lat="43.60976" lon="3.87571">
        <ele>43.4</ele>
        <time>2021-01-09T12:16:29Z</time>
      </trkpt>
      <trkpt lat="43.60972" lon="3.87564">
        <ele>42.6</ele>
        <time>2021-01-09T12:16:30Z</time>
      </trkpt>
      <trkpt lat="43.60968" lon="3.87557">
        <ele>41.9</ele>
        <time>2021-01-09T12:16:31Z</time>
      </trkpt>
      <trkpt lat="43.60964" lon="3.8755">
        <ele>41.6</ele>
        <time>2021-01-09T12:16:32Z</time>
      </trkpt>
      <trkpt lat="43.60961" lon="3.87542">
        <ele>41.4</ele>
        <time>2021-01-09T12:16:33Z</time>
      </trkpt>
      <trkpt lat="43.60957" lon="3.87535">
        <ele>41</ele>
        <time>2021-01-09T12:16:34Z</time>
      </trkpt>
      <trkpt lat="43.60955" lon="3.87528">
        <ele>40.8</ele>
        <time>2021-01-09T12:16:35Z</time>
      </trkpt>
      <trkpt lat="43.60952" lon="3.87521">
        <ele>40.4</ele>
        <time>2021-01-09T12:16:36Z</time>
      </trkpt>
      <trkpt lat="43.60949" lon="3.87516">
        <ele>40</ele>
        <time>2021-01-09T12:16:37Z</time>
      </trkpt>
      <trkpt lat="43.60946" lon="3.87511">
        <ele>59</ele>
        <time>2021-01-09T12:16:38Z</time>
      </trkpt>
      <trkpt lat="43.60944" lon="3.87505">
        <ele>39.2</ele>
        <time>2021-01-09T12:16:39Z</time>
      </trkpt>
      <trkpt lat="43.6094" lon="3.875">
        <ele>38.8</ele>
        <time>2021-01-09T12:16:40Z</time>
      </trkpt>
      <trkpt lat="43.60936" lon="3.87494">
        <ele>38.6</ele>
        <time>2021-01-09T12:16:41Z</time>
      </trkpt>
      <trkpt lat="43.60933" lon="3.87487">
        <ele>38.4</ele>
        <time>2021-01-09T12:16:42Z</time>
      </trkpt>
      <trkpt lat="43.60929" lon="3.87481">
        <ele>38.1</ele>
        <time>2021-01-09T12:16:43Z</time>
      </trkpt>
      <trkpt lat="43.60926" lon="3.87476">
        <ele>37.8</ele>
        <time>2021-01-09T12:16:44Z</time>
      </trkpt>
      <trkpt lat="43.60924" lon="3.8747">
        <ele>37.4</ele>
        <time>2021-01-09T12:16:45Z</time>
      </trkpt>
      <trkpt lat="43.60922" lon="3.87464">
        <ele>37.1</ele>
        <time>2021-01-09T12:16:46Z</time>
      </trkpt>
      <trkpt lat="43.6092" lon="3.87458">
        <ele>36.7</ele>
        <time>2021-01-09T12:16:47Z</time>
      </trkpt>
      <trkpt lat="43.60917" lon="3.87452">
        <ele>57</ele>
        <time>2021-01-09T12:16:48Z</time>
      </trkpt>
      <trkpt lat="43.60915" lon="3.87445">
        <ele>36</ele>
        <time>2021-01-09T12:16:49Z</time>
      </trkpt>
      <trkpt lat="43.60914" lon="3.87437">
        <ele>35.9</ele>
        <time>2021-01-09T12:16:50Z</time>
      </trkpt>
      <trkpt lat="43.60911" lon="3.87431">
        <ele>35.8</ele>
        <time>2021-01-09T12:16:51Z</time>
      </trkpt>
      <trkpt lat="43.60908" lon="3.87424">
        <ele>35.7</ele>
        <time>2021-01-09T12:16:52Z</time>
      </trkpt>
      <trkpt lat="43.60905" lon="3.87418">
        <ele>35.6</ele>
        <time>2021-01-09T12:16:53Z</time>
      </trkpt>
      <trkpt lat="43.60902" lon="3.87411">
        <ele>35.4</ele>
        <time>2021-01-09T12:16:54Z</time>
      </trkpt>
      <trkpt lat="43.60899" lon="3.87405">
        <ele>35.1</ele>
        <time>2021-01-09T12:16:55Z</time>
      </trkpt>
      <trkpt lat="43.60896" lon="3.87399">
        <ele>34.8</ele>
        <time>2021-01-09T12:16:56Z</time>
      </trkpt>
      <trkpt lat="43.60893" lon="3.87392">
        <ele>34.4</ele>
        <time>2021-01-09T12:16:57Z</time>
      </trkpt>
      <trkpt lat="43.60891" lon="3.87386">
        <ele>53</ele>
        <time>2021-01-09T12:16:58Z</time>
      </trkpt>
      <trkpt lat="43.60888" lon="3.8738">
        <ele>34</ele>
        <time>2021-01-09T12:16:59Z</time>
      </trkpt>
      <trkpt lat="43.60886" lon="3.87374">
        <ele>33.9</ele>
        <time>2021-01-09T12:17:00Z</time>
      </trkpt>
      <trkpt lat="43.60884" lon="3.87367">
        <ele>33.8</ele>
        <time>2021-01-09T12:17:01Z</time>
      </trkpt>
      <trkpt lat="43.60881" lon="3.8736">
        <ele>33.7</ele>
        <time>2021-01-09T12:17:02Z</time>
      </trkpt>
      <trkpt lat="43.60876" lon="3.87348">
        <ele>33.8</ele>
        <time>2021-01-09T12:17:04Z</time>
      </trkpt>
      <trkpt lat="43.60874" lon="3.87342">
        <ele>33.8</ele>
        <time>2021-01-09T12:17:05Z</time>
      </trkpt>
      <trkpt lat="43.60871" lon="3.87338">
        <ele>33.7</ele>
        <time>2021-01-09T12:17:06Z</time>
      </trkpt>
      <trkpt lat="43.60869" lon="3.87333">
        <ele>33.6</ele>
        <time>2021-01-09T12:17:07Z</time>
      </trkpt>
      <trkpt lat="43.60865" lon="3.87328">
        <ele>49</ele>
        <time>2021-01-09T12:17:08Z</time>
      </trkpt>
      <trkpt lat="43.60864" lon="3.87322">
        <ele>33.2</ele>
        <time>2021-01-09T12:17:09Z</time>
      </trkpt>
      <trkpt lat="43.60861" lon="3.87318">
        <ele>33</ele>
        <time>2021-01-09T12:17:10Z</time>
      </trkpt>
      <trkpt lat="43.6086" lon="3.87314">
        <ele>33</ele>
        <time>2021-01-09T12:17:11Z</time>
      </trkpt>
      <trkpt lat="43.60859" lon="3.87309">
        <ele>33</ele>
        <time>2021-01-09T12:17:12Z</time>
      </trkpt>
      <trkpt lat="43.60859" lon="3.87304">
        <ele>33.1</ele>
        <time>2021-01-09T12:17:13Z</time>
      </trkpt>
      <trkpt lat="43.60858" lon="3.87299">
        <ele>33.2</ele>
        <time>2021-01-09T12:17:14Z</time>
      </trkpt>
      <trkpt lat="43.60856" lon="3.87294">
        <ele>33.3</ele>
        <time>2021-01-09T12:17:15Z</time>
      </trkpt>
      <trkpt lat="43.60854" lon="3.87289">
        <ele>33.4</ele>
        <time>2021-01-09T12:17:16Z</time>
      </trkpt>
      <trkpt lat="43.60852" lon="3.87284">
        <ele>33.5</ele>
        <time>2021-01-09T12:17:17Z</time>
      </trkpt>
      <trkpt lat="43.60851" lon="3.87278">
        <ele>47</ele>
        <time>2021-01-09T12:17:18Z</time>
      </trkpt>
      <trkpt lat="43.6085" lon="3.87272">
        <ele>33.8</ele>
        <time>2021-01-09T12:17:19Z</time>
      </trkpt>
      <trkpt lat="43.60848" lon="3.87266">
        <ele>34</ele>
        <time>2021-01-09T12:17:20Z</time>
      </trkpt>
      <trkpt lat="43.60847" lon="3.87261">
        <ele>34.1</ele>
        <time>2021-01-09T12:17:21Z</time>
      </trkpt>
      <trkpt lat="43.60845" lon="3.87255">
        <ele>34.2</ele>
        <time>2021-01-09T12:17:22Z</time>
      </trkpt>
      <trkpt lat="43.60844" lon="3.8725">
        <ele>34.4</ele>
        <time>2021-01-09T12:17:23Z</time>
      </trkpt>
      <trkpt lat="43.60843" lon="3.87245">
        <ele>34.3</ele>
        <time>2021-01-09T12:17:24Z</time>
      </trkpt>
      <trkpt lat="43.60841" lon="3.87239">
        <ele>34.2</ele>
        <time>2021-01-09T12:17:25Z</time>
      </trkpt>
      <trkpt lat="43.6084" lon="3.87234">
        <ele>34.1</ele>
        <time>2021-01-09T12:17:26Z</time>
      </trkpt>
      <trkpt lat="43.60839" lon="3.87228">
        <ele>34</ele>
        <time>2021-01-09T12:17:27Z</time>
      </trkpt>
      <trkpt lat="43.60837" lon="3.87217">
        <ele>45</ele>
        <time>2021-01-09T12:17:28Z</time>
      </trkpt>
      <trkpt lat="43.60835" lon="3.87211">
        <ele>34</ele>
        <time>2021-01-09T12:17:29Z</time>
      </trkpt>
      <trkpt lat="43.60834" lon="3.87204">
        <ele>34</ele>
        <time>2021-01-09T12:17:31Z</time>
      </trkpt>
      <trkpt lat="43.60833" lon="3.87198">
        <ele>34</ele>
        <time>2021-01-09T12:17:32Z</time>
      </trkpt>
      <trkpt lat="43.60833" lon="3.87184">
        <ele>33.6</ele>
        <time>2021-01-09T12:17:33Z</time>
      </trkpt>
      <trkpt lat="43.60833" lon="3.87176">
        <ele>33.3</ele>
        <time>2021-01-09T12:17:34Z</time>
      </trkpt>
      <trkpt lat="43.60834" lon="3.87169">
        <ele>33.1</ele>
        <time>2021-01-09T12:17:35Z</time>
      </trkpt>
      <trkpt lat="43.60834" lon="3.87162">
        <ele>33</ele>
        <time>2021-01-09T12:17:36Z</time>
      </trkpt>
      <trkpt lat="43.60835" lon="3.87154">
        <ele>33.1</ele>
        <time>2021-01-09T12:17:37Z</time>
      </trkpt>
      <trkpt lat="43.60835" lon="3.87147">
        <ele>33.1</ele>
        <time>2021-01-09T12:17:39Z</time>
      </trkpt>
      <trkpt lat="43.60835" lon="3.8714">
        <ele>33.1</ele>
        <time>2021-01-09T12:17:40Z</time>
      </trkpt>
      <trkpt lat="43.60834" lon="3.87133">
        <ele>33</ele>
        <time>2021-01-09T12:17:41Z</time>
      </trkpt>
      <trkpt lat="43.60833" lon="3.87126">
        <ele>33</ele>
        <time>2021-01-09T12:17:42Z</time>
      </trkpt>
      <trkpt lat="43.60833" lon="3.87119">
        <ele>33</ele>
        <time>2021-01-09T12:17:43Z</time>
      </trkpt>
      <trkpt lat="43.60834" lon="3.87111">
        <ele>33</ele>
        <time>2021-01-09T12:17:44Z</time>
      </trkpt>
      <trkpt lat="43.60834" lon="3.87104">
        <ele>32.8</ele>
        <time>2021-01-09T12:17:45Z</time>
      </trkpt>
      <trkpt lat="43.60835" lon="3.87096">
        <ele>32.5</ele>
        <time>2021-01-09T12:17:46Z</time>
      </trkpt>
      <trkpt lat="43.60837" lon="3.87088">
        <ele>32.3</ele>
        <time>2021-01-09T12:17:47Z</time>
      </trkpt>
      <trkpt lat="43.60839" lon="3.87081">
        <ele>43</ele>
        <time>2021-01-09T12:17:48Z</time>
      </trkpt>
      <trkpt lat="43.6084" lon="3.87074">
        <ele>32.3</ele>
        <time>2021-01-09T12:17:49Z</time>
      </trkpt>
      <trkpt lat="43.60838" lon="3.87066">
        <ele>32.3</ele>
        <time>2021-01-09T12:17:50Z</time>
      </trkpt>
      <trkpt lat="43.60837" lon="3.87058">
        <ele>32.3</ele>
        <time>2021-01-09T12:17:51Z</time>
      </trkpt>
      <trkpt lat="43.60838" lon="3.87051">
        <ele>32.3</ele>
        <time>2021-01-09T12:17:52Z</time>
      </trkpt>
      <trkpt lat="43.60838" lon="3.87044">
        <ele>32.3</ele>
        <time>2021-01-09T12:17:53Z</time>
      </trkpt>
      <trkpt lat="43.6084" lon="3.87038">
        <ele>32.5</ele>
        <time>2021-01-09T12:17:54Z</time>
      </trkpt>
      <trkpt lat="43.60841" lon="3.87031">
        <ele>32.6</ele>
        <time>2021-01-09T12:17:55Z</time>
      </trkpt>
      <trkpt lat="43.60842" lon="3.87024">
        <ele>32.7</ele>
        <time>2021-01-09T12:17:56Z</time>
      </trkpt>
      <trkpt lat="43.60844" lon="3.87017">
        <ele>33</ele>
        <time>2021-01-09T12:17:57Z</time>
      </trkpt>
      <trkpt lat="43.60845" lon="3.8701">
        <ele>44</ele>
        <time>2021-01-09T12:17:58Z</time>
      </trkpt>
      <trkpt lat="43.60846" lon="3.87004">
        <ele>33.4</ele>
        <time>2021-01-09T12:17:59Z</time>
      </trkpt>
      <trkpt lat="43.60847" lon="3.86999">
        <ele>33.5</ele>
        <time>2021-01-09T12:18:00Z</time>
      </trkpt>
      <trkpt lat="43.60848" lon="3.86996">
        <ele>33.5</ele>
        <time>2021-01-09T12:18:01Z</time>
      </trkpt>
      <trkpt lat="43.60848" lon="3.86993">
        <ele>33.4</ele>
        <time>2021-01-09T12:18:02Z</time>
      </trkpt>
      <trkpt lat="43.60848" lon="3.8699">
        <ele>33.3</ele>
        <time>2021-01-09T12:18:03Z</time>
      </trkpt>
      <trkpt lat="43.60849" lon="3.86986">
        <ele>33.3</ele>
        <time>2021-01-09T12:18:04Z</time>
      </trkpt>
      <trkpt lat="43.6085" lon="3.86982">
        <ele>33.2</ele>
        <time>2021-01-09T12:18:05Z</time>
      </trkpt>
      <trkpt lat="43.60851" lon="3.86978">
        <ele>33.1</ele>
        <time>2021-01-09T12:18:06Z</time>
      </trkpt>
      <trkpt lat="43.60852" lon="3.86975">
        <ele>33.1</ele>
        <time>2021-01-09T12:18:07Z</time>
      </trkpt>
      <trkpt lat="43.60853" lon="3.86973">
        <ele>33</ele>
        <time>2021-01-09T12:18:09Z</time>
      </trkpt>
      <trkpt lat="43.60854" lon="3.86971">
        <ele>33</ele>
        <time>2021-01-09T12:18:11Z</time>
      </trkpt>
      <trkpt lat="43.60854" lon="3.86968">
        <ele>33</ele>
        <time>2021-01-09T12:18:12Z</time>
      </trkpt>
      <trkpt lat="43.60854" lon="3.86965">
        <ele>32.9</ele>
        <time>2021-01-09T12:18:13Z</time>
      </trkpt>
      <trkpt lat="43.60854" lon="3.86961">
        <ele>32.9</ele>
        <time>2021-01-09T12:18:14Z</time>
      </trkpt>
      <trkpt lat="43.60855" lon="3.86952">
        <ele>32.8</ele>
        <time>2021-01-09T12:18:16Z</time>
      </trkpt>
      <trkpt lat="43.60856" lon="3.86947">
        <ele>42</ele>
        <time>2021-01-09T12:18:18Z</time>
      </trkpt>
      <trkpt lat="43.60856" lon="3.86942">
        <ele>32.7</ele>
        <time>2021-01-09T12:18:19Z</time>
      </trkpt>
      <trkpt lat="43.60856" lon="3.86936">
        <ele>32.6</ele>
        <time>2021-01-09T12:18:20Z</time>
      </trkpt>
      <trkpt lat="43.60856" lon="3.8693">
        <ele>32.4</ele>
        <time>2021-01-09T12:18:21Z</time>
      </trkpt>
      <trkpt lat="43.60856" lon="3.86925">
        <ele>32.2</ele>
        <time>2021-01-09T12:18:22Z</time>
      </trkpt>
      <trkpt lat="43.60856" lon="3.86919">
        <ele>32.1</ele>
        <time>2021-01-09T12:18:23Z</time>
      </trkpt>
      <trkpt lat="43.60857" lon="3.86914">
        <ele>32</ele>
        <time>2021-01-09T12:18:24Z</time>
      </trkpt>
      <trkpt lat="43.60858" lon="3.86909">
        <ele>32</ele>
        <time>2021-01-09T12:18:25Z</time>
      </trkpt>
      <trkpt lat="43.60859" lon="3.86905">
        <ele>32</ele>
        <time>2021-01-09T12:18:26Z</time>
      </trkpt>
      <trkpt lat="43.6086" lon="3.86902">
        <ele>32</ele>
        <time>2021-01-09T12:18:27Z</time>
      </trkpt>
      <trkpt lat="43.60861" lon="3.86899">
        <ele>42</ele>
        <time>2021-01-09T12:18:28Z</time>
      </trkpt>
      <trkpt lat="43.60861" lon="3.86895">
        <ele>32</ele>
        <time>2021-01-09T12:18:29Z</time>
      </trkpt>
      <trkpt lat="43.60861" lon="3.8689">
        <ele>32</ele>
        <time>2021-01-09T12:18:30Z</time>
      </trkpt>
      <trkpt lat="43.60861" lon="3.86885">
        <ele>32</ele>
        <time>2021-01-09T12:18:31Z</time>
      </trkpt>
      <trkpt lat="43.60861" lon="3.8688">
        <ele>32</ele>
        <time>2021-01-09T12:18:32Z</time>
      </trkpt>
      <trkpt lat="43.60862" lon="3.86874">
        <ele>32.1</ele>
        <time>2021-01-09T12:18:33Z</time>
      </trkpt>
      <trkpt lat="43.60863" lon="3.86869">
        <ele>32.1</ele>
        <time>2021-01-09T12:18:34Z</time>
      </trkpt>
      <trkpt lat="43.60864" lon="3.86864">
        <ele>32.2</ele>
        <time>2021-01-09T12:18:35Z</time>
      </trkpt>
      <trkpt lat="43.60866" lon="3.86858">
        <ele>32.4</ele>
        <time>2021-01-09T12:18:36Z</time>
      </trkpt>
      <trkpt lat="43.60867" lon="3.86853">
        <ele>32.7</ele>
        <time>2021-01-09T12:18:37Z</time>
      </trkpt>
      <trkpt lat="43.60868" lon="3.86847">
        <ele>41</ele>
        <time>2021-01-09T12:18:38Z</time>
      </trkpt>
      <trkpt lat="43.60869" lon="3.86842">
        <ele>33.1</ele>
        <time>2021-01-09T12:18:39Z</time>
      </trkpt>
      <trkpt lat="43.6087" lon="3.86836">
        <ele>33.3</ele>
        <time>2021-01-09T12:18:40Z</time>
      </trkpt>
      <trkpt lat="43.60871" lon="3.86831">
        <ele>33.3</ele>
        <time>2021-01-09T12:18:41Z</time>
      </trkpt>
      <trkpt lat="43.60872" lon="3.86825">
        <ele>33.3</ele>
        <time>2021-01-09T12:18:42Z</time>
      </trkpt>
      <trkpt lat="43.60873" lon="3.86819">
        <ele>33.2</ele>
        <time>2021-01-09T12:18:43Z</time>
      </trkpt>
      <trkpt lat="43.60874" lon="3.86814">
        <ele>33.1</ele>
        <time>2021-01-09T12:18:44Z</time>
      </trkpt>
      <trkpt lat="43.60875" lon="3.86808">
        <ele>33</ele>
        <time>2021-01-09T12:18:45Z</time>
      </trkpt>
      <trkpt lat="43.60876" lon="3.86802">
        <ele>33</ele>
        <time>2021-01-09T12:18:46Z</time>
      </trkpt>
      <trkpt lat="43.60877" lon="3.86797">
        <ele>33</ele>
        <time>2021-01-09T12:18:47Z</time>
      </trkpt>
      <trkpt lat="43.60878" lon="3.86791">
        <ele>42</ele>
        <time>2021-01-09T12:18:48Z</time>
      </trkpt>
      <trkpt lat="43.60879" lon="3.86786">
        <ele>33</ele>
        <time>2021-01-09T12:18:49Z</time>
      </trkpt>
      <trkpt lat="43.6088" lon="3.8678">
        <ele>33</ele>
        <time>2021-01-09T12:18:50Z</time>
      </trkpt>
      <trkpt lat="43.60882" lon="3.86775">
        <ele>33</ele>
        <time>2021-01-09T12:18:51Z</time>
      </trkpt>
      <trkpt lat="43.60884" lon="3.8677">
        <ele>33</ele>
        <time>2021-01-09T12:18:52Z</time>
      </trkpt>
      <trkpt lat="43.60886" lon="3.86765">
        <ele>33</ele>
        <time>2021-01-09T12:18:53Z</time>
      </trkpt>
      <trkpt lat="43.60888" lon="3.86759">
        <ele>33</ele>
        <time>2021-01-09T12:18:54Z</time>
      </trkpt>
      <trkpt lat="43.60891" lon="3.86753">
        <ele>33.1</ele>
        <time>2021-01-09T12:18:55Z</time>
      </trkpt>
      <trkpt lat="43.60893" lon="3.86748">
        <ele>33.1</ele>
        <time>2021-01-09T12:18:56Z</time>
      </trkpt>
      <trkpt lat="43.60895" lon="3.86742">
        <ele>33.2</ele>
        <time>2021-01-09T12:18:57Z</time>
      </trkpt>
      <trkpt lat="43.60899" lon="3.86731">
        <ele>41</ele>
        <time>2021-01-09T12:18:58Z</time>
      </trkpt>
      <trkpt lat="43.60901" lon="3.86726">
        <ele>33.1</ele>
        <time>2021-01-09T12:18:59Z</time>
      </trkpt>
      <trkpt lat="43.60903" lon="3.86721">
        <ele>33</ele>
        <time>2021-01-09T12:19:00Z</time>
      </trkpt>
      <trkpt lat="43.60905" lon="3.86716">
        <ele>33.1</ele>
        <time>2021-01-09T12:19:01Z</time>
      </trkpt>
      <trkpt lat="43.60906" lon="3.86711">
        <ele>33.2</ele>
        <time>2021-01-09T12:19:02Z</time>
      </trkpt>
      <trkpt lat="43.60907" lon="3.86707">
        <ele>33.4</ele>
        <time>2021-01-09T12:19:03Z</time>
      </trkpt>
      <trkpt lat="43.60909" lon="3.86703">
        <ele>33.5</ele>
        <time>2021-01-09T12:19:04Z</time>
      </trkpt>
      <trkpt lat="43.60911" lon="3.867">
        <ele>33.6</ele>
        <time>2021-01-09T12:19:05Z</time>
      </trkpt>
      <trkpt lat="43.60912" lon="3.86698">
        <ele>33.7</ele>
        <time>2021-01-09T12:19:06Z</time>
      </trkpt>
      <trkpt lat="43.60913" lon="3.86696">
        <ele>33.8</ele>
        <time>2021-01-09T12:19:07Z</time>
      </trkpt>
      <trkpt lat="43.60914" lon="3.86692">
        <ele>33.9</ele>
        <time>2021-01-09T12:19:09Z</time>
      </trkpt>
      <trkpt lat="43.60914" lon="3.86687">
        <ele>33.9</ele>
        <time>2021-01-09T12:19:10Z</time>
      </trkpt>
      <trkpt lat="43.60915" lon="3.86683">
        <ele>34</ele>
        <time>2021-01-09T12:19:11Z</time>
      </trkpt>
      <trkpt lat="43.60915" lon="3.86678">
        <ele>34</ele>
        <time>2021-01-09T12:19:12Z</time>
      </trkpt>
      <trkpt lat="43.60916" lon="3.86672">
        <ele>34</ele>
        <time>2021-01-09T12:19:13Z</time>
      </trkpt>
      <trkpt lat="43.60916" lon="3.86667">
        <ele>34</ele>
        <time>2021-01-09T12:19:14Z</time>
      </trkpt>
      <trkpt lat="43.60917" lon="3.86661">
        <ele>34</ele>
        <time>2021-01-09T12:19:15Z</time>
      </trkpt>
      <trkpt lat="43.60917" lon="3.86656">
        <ele>34</ele>
        <time>2021-01-09T12:19:16Z</time>
      </trkpt>
      <trkpt lat="43.60919" lon="3.8665">
        <ele>34.1</ele>
        <time>2021-01-09T12:19:17Z</time>
      </trkpt>
      <trkpt lat="43.6092" lon="3.86644">
        <ele>40</ele>
        <time>2021-01-09T12:19:18Z</time>
      </trkpt>
      <trkpt lat="43.60921" lon="3.86638">
        <ele>34.2</ele>
        <time>2021-01-09T12:19:19Z</time>
      </trkpt>
      <trkpt lat="43.60923" lon="3.86633">
        <ele>34.4</ele>
        <time>2021-01-09T12:19:20Z</time>
      </trkpt>
      <trkpt lat="43.60924" lon="3.86627">
        <ele>34.6</ele>
        <time>2021-01-09T12:19:21Z</time>
      </trkpt>
      <trkpt lat="43.60925" lon="3.86622">
        <ele>34.7</ele>
        <time>2021-01-09T12:19:22Z</time>
      </trkpt>
      <trkpt lat="43.60927" lon="3.86617">
        <ele>34.9</ele>
        <time>2021-01-09T12:19:23Z</time>
      </trkpt>
      <trkpt lat="43.60928" lon="3.86612">
        <ele>35</ele>
        <time>2021-01-09T12:19:24Z</time>
      </trkpt>
      <trkpt lat="43.60929" lon="3.86606">
        <ele>35</ele>
        <time>2021-01-09T12:19:25Z</time>
      </trkpt>
      <trkpt lat="43.60929" lon="3.866">
        <ele>35</ele>
        <time>2021-01-09T12:19:26Z</time>
      </trkpt>
      <trkpt lat="43.6093" lon="3.86594">
        <ele>35</ele>
        <time>2021-01-09T12:19:27Z</time>
      </trkpt>
      <trkpt lat="43.60931" lon="3.86588">
        <ele>42</ele>
        <time>2021-01-09T12:19:28Z</time>
      </trkpt>
      <trkpt lat="43.60932" lon="3.86582">
        <ele>35</ele>
        <time>2021-01-09T12:19:29Z</time>
      </trkpt>
      <trkpt lat="43.60933" lon="3.86576">
        <ele>35.3</ele>
        <time>2021-01-09T12:19:30Z</time>
      </trkpt>
      <trkpt lat="43.60935" lon="3.8657">
        <ele>35.5</ele>
        <time>2021-01-09T12:19:31Z</time>
      </trkpt>
      <trkpt lat="43.60936" lon="3.86565">
        <ele>35.7</ele>
        <time>2021-01-09T12:19:32Z</time>
      </trkpt>
      <trkpt lat="43.60936" lon="3.86559">
        <ele>35.9</ele>
        <time>2021-01-09T12:19:33Z</time>
      </trkpt>
      <trkpt lat="43.60937" lon="3.86554">
        <ele>36</ele>
        <time>2021-01-09T12:19:34Z</time>
      </trkpt>
      <trkpt lat="43.60938" lon="3.86548">
        <ele>36</ele>
        <time>2021-01-09T12:19:35Z</time>
      </trkpt>
      <trkpt lat="43.60939" lon="3.86542">
        <ele>36</ele>
        <time>2021-01-09T12:19:36Z</time>
      </trkpt>
      <trkpt lat="43.60941" lon="3.86536">
        <ele>36</ele>
        <time>2021-01-09T12:19:37Z</time>
      </trkpt>
      <trkpt lat="43.60942" lon="3.8653">
        <ele>43</ele>
        <time>2021-01-09T12:19:38Z</time>
      </trkpt>
      <trkpt lat="43.60943" lon="3.86524">
        <ele>36.1</ele>
        <time>2021-01-09T12:19:39Z</time>
      </trkpt>
      <trkpt lat="43.60944" lon="3.86517">
        <ele>36.4</ele>
        <time>2021-01-09T12:19:40Z</time>
      </trkpt>
      <trkpt lat="43.60945" lon="3.86511">
        <ele>36.6</ele>
        <time>2021-01-09T12:19:41Z</time>
      </trkpt>
      <trkpt lat="43.60946" lon="3.86505">
        <ele>36.8</ele>
        <time>2021-01-09T12:19:42Z</time>
      </trkpt>
      <trkpt lat="43.60947" lon="3.865">
        <ele>37</ele>
        <time>2021-01-09T12:19:43Z</time>
      </trkpt>
      <trkpt lat="43.60948" lon="3.86494">
        <ele>37</ele>
        <time>2021-01-09T12:19:44Z</time>
      </trkpt>
      <trkpt lat="43.60949" lon="3.86488">
        <ele>37.1</ele>
        <time>2021-01-09T12:19:45Z</time>
      </trkpt>
      <trkpt lat="43.6095" lon="3.86482">
        <ele>37.1</ele>
        <time>2021-01-09T12:19:46Z</time>
      </trkpt>
      <trkpt lat="43.60952" lon="3.86477">
        <ele>37.2</ele>
        <time>2021-01-09T12:19:47Z</time>
      </trkpt>
      <trkpt lat="43.60953" lon="3.86471">
        <ele>45</ele>
        <time>2021-01-09T12:19:48Z</time>
      </trkpt>
      <trkpt lat="43.60954" lon="3.86465">
        <ele>37.3</ele>
        <time>2021-01-09T12:19:49Z</time>
      </trkpt>
      <trkpt lat="43.60955" lon="3.8646">
        <ele>37.4</ele>
        <time>2021-01-09T12:19:50Z</time>
      </trkpt>
      <trkpt lat="43.60956" lon="3.86455">
        <ele>37.4</ele>
        <time>2021-01-09T12:19:51Z</time>
      </trkpt>
      <trkpt lat="43.60957" lon="3.86449">
        <ele>37.5</ele>
        <time>2021-01-09T12:19:52Z</time>
      </trkpt>
      <trkpt lat="43.60958" lon="3.86443">
        <ele>37.5</ele>
        <time>2021-01-09T12:19:53Z</time>
      </trkpt>
      <trkpt lat="43.60959" lon="3.86438">
        <ele>37.8</ele>
        <time>2021-01-09T12:19:54Z</time>
      </trkpt>
      <trkpt lat="43.60959" lon="3.86432">
        <ele>38</ele>
        <time>2021-01-09T12:19:55Z</time>
      </trkpt>
      <trkpt lat="43.6096" lon="3.86427">
        <ele>38.2</ele>
        <time>2021-01-09T12:19:56Z</time>
      </trkpt>
      <trkpt lat="43.60961" lon="3.86421">
        <ele>38.4</ele>
        <time>2021-01-09T12:19:57Z</time>
      </trkpt>
      <trkpt lat="43.60963" lon="3.86416">
        <ele>47</ele>
        <time>2021-01-09T12:19:58Z</time>
      </trkpt>
      <trkpt lat="43.60964" lon="3.86411">
        <ele>38.8</ele>
        <time>2021-01-09T12:19:59Z</time>
      </trkpt>
      <trkpt lat="43.60965" lon="3.86405">
        <ele>39.1</ele>
        <time>2021-01-09T12:20:00Z</time>
      </trkpt>
      <trkpt lat="43.60966" lon="3.864">
        <ele>39.2</ele>
        <time>2021-01-09T12:20:01Z</time>
      </trkpt>
      <trkpt lat="43.60967" lon="3.86395">
        <ele>39.4</ele>
        <time>2021-01-09T12:20:02Z</time>
      </trkpt>
      <trkpt lat="43.60968" lon="3.8639">
        <ele>39.7</ele>
        <time>2021-01-09T12:20:03Z</time>
      </trkpt>
      <trkpt lat="43.60969" lon="3.86384">
        <ele>39.8</ele>
        <time>2021-01-09T12:20:04Z</time>
      </trkpt>
      <trkpt lat="43.6097" lon="3.86379">
        <ele>39.8</ele>
        <time>2021-01-09T12:20:05Z</time>
      </trkpt>
      <trkpt lat="43.60971" lon="3.86374">
        <ele>39.9</ele>
        <time>2021-01-09T12:20:06Z</time>
      </trkpt>
      <trkpt lat="43.60972" lon="3.86369">
        <ele>40</ele>
        <time>2021-01-09T12:20:07Z</time>
      </trkpt>
      <trkpt lat="43.60972" lon="3.86364">
        <ele>47</ele>
        <time>2021-01-09T12:20:08Z</time>
      </trkpt>
      <trkpt lat="43.60973" lon="3.86358">
        <ele>40.1</ele>
        <time>2021-01-09T12:20:09Z</time>
      </trkpt>
      <trkpt lat="43.60974" lon="3.86353">
        <ele>40.3</ele>
        <time>2021-01-09T12:20:10Z</time>
      </trkpt>
      <trkpt lat="43.60975" lon="3.86348">
        <ele>40.5</ele>
        <time>2021-01-09T12:20:11Z</time>
      </trkpt>
      <trkpt lat="43.60976" lon="3.86343">
        <ele>40.7</ele>
        <time>2021-01-09T12:20:12Z</time>
      </trkpt>
      <trkpt lat="43.60977" lon="3.86338">
        <ele>40.8</ele>
        <time>2021-01-09T12:20:13Z</time>
      </trkpt>
      <trkpt lat="43.60978" lon="3.86333">
        <ele>41</ele>
        <time>2021-01-09T12:20:14Z</time>
      </trkpt>
      <trkpt lat="43.60979" lon="3.86328">
        <ele>41.4</ele>
        <time>2021-01-09T12:20:15Z</time>
      </trkpt>
      <trkpt lat="43.6098" lon="3.86323">
        <ele>41.7</ele>
        <time>2021-01-09T12:20:16Z</time>
      </trkpt>
      <trkpt lat="43.60981" lon="3.86319">
        <ele>42</ele>
        <time>2021-01-09T12:20:17Z</time>
      </trkpt>
      <trkpt lat="43.60983" lon="3.8631">
        <ele>47</ele>
        <time>2021-01-09T12:20:18Z</time>
      </trkpt>
      <trkpt lat="43.60984" lon="3.86306">
        <ele>43</ele>
        <time>2021-01-09T12:20:19Z</time>
      </trkpt>
      <trkpt lat="43.60984" lon="3.86301">
        <ele>43.2</ele>
        <time>2021-01-09T12:20:20Z</time>
      </trkpt>
      <trkpt lat="43.60985" lon="3.86297">
        <ele>43.4</ele>
        <time>2021-01-09T12:20:21Z</time>
      </trkpt>
      <trkpt lat="43.60986" lon="3.86293">
        <ele>43.7</ele>
        <time>2021-01-09T12:20:22Z</time>
      </trkpt>
      <trkpt lat="43.60986" lon="3.86288">
        <ele>43.9</ele>
        <time>2021-01-09T12:20:23Z</time>
      </trkpt>
      <trkpt lat="43.60987" lon="3.86284">
        <ele>44.2</ele>
        <time>2021-01-09T12:20:24Z</time>
      </trkpt>
      <trkpt lat="43.60987" lon="3.8628">
        <ele>44.4</ele>
        <time>2021-01-09T12:20:26Z</time>
      </trkpt>
      <trkpt lat="43.60988" lon="3.86276">
        <ele>44.6</ele>
        <time>2021-01-09T12:20:27Z</time>
      </trkpt>
      <trkpt lat="43.60988" lon="3.86272">
        <ele>47</ele>
        <time>2021-01-09T12:20:28Z</time>
      </trkpt>
      <trkpt lat="43.60988" lon="3.86268">
        <ele>44.7</ele>
        <time>2021-01-09T12:20:29Z</time>
      </trkpt>
      <trkpt lat="43.60988" lon="3.86264">
        <ele>44.7</ele>
        <time>2021-01-09T12:20:30Z</time>
      </trkpt>
      <trkpt lat="43.60989" lon="3.8626">
        <ele>44.7</ele>
        <time>2021-01-09T12:20:31Z</time>
      </trkpt>
      <trkpt lat="43.6099" lon="3.86255">
        <ele>44.7</ele>
        <time>2021-01-09T12:20:32Z</time>
      </trkpt>
      <trkpt lat="43.6099" lon="3.86251">
        <ele>44.7</ele>
        <time>2021-01-09T12:20:33Z</time>
      </trkpt>
      <trkpt lat="43.60991" lon="3.86247">
        <ele>44.8</ele>
        <time>2021-01-09T12:20:34Z</time>
      </trkpt>
      <trkpt lat="43.60991" lon="3.86243">
        <ele>45</ele>
        <time>2021-01-09T12:20:35Z</time>
      </trkpt>
      <trkpt lat="43.60992" lon="3.86239">
        <ele>45.1</ele>
        <time>2021-01-09T12:20:36Z</time>
      </trkpt>
      <trkpt lat="43.60992" lon="3.86236">
        <ele>45.3</ele>
        <time>2021-01-09T12:20:37Z</time>
      </trkpt>
      <trkpt lat="43.60992" lon="3.86232">
        <ele>48</ele>
        <time>2021-01-09T12:20:38Z</time>
      </trkpt>
      <trkpt lat="43.60993" lon="3.86229">
        <ele>45.6</ele>
        <time>2021-01-09T12:20:39Z</time>
      </trkpt>
      <trkpt lat="43.60994" lon="3.86225">
        <ele>45.8</ele>
        <time>2021-01-09T12:20:40Z</time>
      </trkpt>
      <trkpt lat="43.60994" lon="3.86221">
        <ele>46.1</ele>
        <time>2021-01-09T12:20:41Z</time>
      </trkpt>
      <trkpt lat="43.60994" lon="3.86218">
        <ele>46.2</ele>
        <time>2021-01-09T12:20:42Z</time>
      </trkpt>
      <trkpt lat="43.60995" lon="3.86214">
        <ele>46.4</ele>
        <time>2021-01-09T12:20:43Z</time>
      </trkpt>
      <trkpt lat="43.60995" lon="3.8621">
        <ele>46.6</ele>
        <time>2021-01-09T12:20:44Z</time>
      </trkpt>
      <trkpt lat="43.60996" lon="3.86207">
        <ele>46.7</ele>
        <time>2021-01-09T12:20:45Z</time>
      </trkpt>
      <trkpt lat="43.60996" lon="3.86203">
        <ele>46.9</ele>
        <time>2021-01-09T12:20:46Z</time>
      </trkpt>
      <trkpt lat="43.60996" lon="3.86199">
        <ele>47.1</ele>
        <time>2021-01-09T12:20:47Z</time>
      </trkpt>
      <trkpt lat="43.60997" lon="3.86196">
        <ele>51</ele>
        <time>2021-01-09T12:20:48Z</time>
      </trkpt>
      <trkpt lat="43.60997" lon="3.86192">
        <ele>47.3</ele>
        <time>2021-01-09T12:20:49Z</time>
      </trkpt>
      <trkpt lat="43.60998" lon="3.86188">
        <ele>47.4</ele>
        <time>2021-01-09T12:20:50Z</time>
      </trkpt>
      <trkpt lat="43.60998" lon="3.86185">
        <ele>47.5</ele>
        <time>2021-01-09T12:20:51Z</time>
      </trkpt>
      <trkpt lat="43.60998" lon="3.86181">
        <ele>47.7</ele>
        <time>2021-01-09T12:20:52Z</time>
      </trkpt>
      <trkpt lat="43.60998" lon="3.86177">
        <ele>47.8</ele>
        <time>2021-01-09T12:20:53Z</time>
      </trkpt>
      <trkpt lat="43.60999" lon="3.86174">
        <ele>47.8</ele>
        <time>2021-01-09T12:20:54Z</time>
      </trkpt>
      <trkpt lat="43.60999" lon="3.8617">
        <ele>48</ele>
        <time>2021-01-09T12:20:55Z</time>
      </trkpt>
      <trkpt lat="43.60999" lon="3.86166">
        <ele>48.1</ele>
        <time>2021-01-09T12:20:56Z</time>
      </trkpt>
      <trkpt lat="43.61" lon="3.86163">
        <ele>48.1</ele>
        <time>2021-01-09T12:20:57Z</time>
      </trkpt>
      <trkpt lat="43.61" lon="3.86159">
        <ele>51</ele>
        <time>2021-01-09T12:20:58Z</time>
      </trkpt>
      <trkpt lat="43.61" lon="3.86156">
        <ele>48.4</ele>
        <time>2021-01-09T12:20:59Z</time>
      </trkpt>
      <trkpt lat="43.61001" lon="3.86152">
        <ele>48.5</ele>
        <time>2021-01-09T12:21:00Z</time>
      </trkpt>
      <trkpt lat="43.61001" lon="3.86148">
        <ele>48.7</ele>
        <time>2021-01-09T12:21:01Z</time>
      </trkpt>
      <trkpt lat="43.61001" lon="3.86144">
        <ele>48.8</ele>
        <time>2021-01-09T12:21:02Z</time>
      </trkpt>
      <trkpt lat="43.61002" lon="3.86141">
        <ele>48.9</ele>
        <time>2021-01-09T12:21:03Z</time>
      </trkpt>
      <trkpt lat="43.61002" lon="3.86137">
        <ele>49.1</ele>
        <time>2021-01-09T12:21:04Z</time>
      </trkpt>
      <trkpt lat="43.61002" lon="3.86133">
        <ele>49.2</ele>
        <time>2021-01-09T12:21:05Z</time>
      </trkpt>
      <trkpt lat="43.61003" lon="3.8613">
        <ele>49.4</ele>
        <time>2021-01-09T12:21:06Z</time>
      </trkpt>
      <trkpt lat="43.61003" lon="3.86126">
        <ele>49.5</ele>
        <time>2021-01-09T12:21:07Z</time>
      </trkpt>
      <trkpt lat="43.61004" lon="3.86122">
        <ele>53</ele>
        <time>2021-01-09T12:21:08Z</time>
      </trkpt>
      <trkpt lat="43.61004" lon="3.86119">
        <ele>49.8</ele>
        <time>2021-01-09T12:21:09Z</time>
      </trkpt>
      <trkpt lat="43.61005" lon="3.86115">
        <ele>50</ele>
        <time>2021-01-09T12:21:10Z</time>
      </trkpt>
      <trkpt lat="43.61005" lon="3.86111">
        <ele>50.2</ele>
        <time>2021-01-09T12:21:11Z</time>
      </trkpt>
      <trkpt lat="43.61006" lon="3.86108">
        <ele>50.6</ele>
        <time>2021-01-09T12:21:12Z</time>
      </trkpt>
      <trkpt lat="43.61006" lon="3.86104">
        <ele>51</ele>
        <time>2021-01-09T12:21:13Z</time>
      </trkpt>
      <trkpt lat="43.61007" lon="3.861">
        <ele>51.5</ele>
        <time>2021-01-09T12:21:14Z</time>
      </trkpt>
      <trkpt lat="43.61007" lon="3.86097">
        <ele>51.8</ele>
        <time>2021-01-09T12:21:15Z</time>
      </trkpt>
      <trkpt lat="43.61007" lon="3.86093">
        <ele>52.2</ele>
        <time>2021-01-09T12:21:16Z</time>
      </trkpt>
      <trkpt lat="43.61008" lon="3.86089">
        <ele>52.7</ele>
        <time>2021-01-09T12:21:17Z</time>
      </trkpt>
      <trkpt lat="43.61009" lon="3.86082">
        <ele>54</ele>
        <time>2021-01-09T12:21:18Z</time>
      </trkpt>
      <trkpt lat="43.6101" lon="3.86079">
        <ele>53.6</ele>
        <time>2021-01-09T12:21:19Z</time>
      </trkpt>
      <trkpt lat="43.6101" lon="3.86075">
        <ele>53.9</ele>
        <time>2021-01-09T12:21:20Z</time>
      </trkpt>
      <trkpt lat="43.61011" lon="3.86067">
        <ele>54.3</ele>
        <time>2021-01-09T12:21:22Z</time>
      </trkpt>
      <trkpt lat="43.61011" lon="3.86064">
        <ele>54.5</ele>
        <time>2021-01-09T12:21:23Z</time>
      </trkpt>
      <trkpt lat="43.61012" lon="3.86056">
        <ele>55</ele>
        <time>2021-01-09T12:21:25Z</time>
      </trkpt>
      <trkpt lat="43.61012" lon="3.86053">
        <ele>55</ele>
        <time>2021-01-09T12:21:26Z</time>
      </trkpt>
      <trkpt lat="43.61012" lon="3.86049">
        <ele>54.9</ele>
        <time>2021-01-09T12:21:27Z</time>
      </trkpt>
      <trkpt lat="43.61012" lon="3.86045">
        <ele>54.8</ele>
        <time>2021-01-09T12:21:29Z</time>
      </trkpt>
      <trkpt lat="43.61013" lon="3.86041">
        <ele>54.8</ele>
        <time>2021-01-09T12:21:30Z</time>
      </trkpt>
      <trkpt lat="43.61013" lon="3.86038">
        <ele>54.7</ele>
        <time>2021-01-09T12:21:31Z</time>
      </trkpt>
      <trkpt lat="43.61014" lon="3.86034">
        <ele>54.6</ele>
        <time>2021-01-09T12:21:32Z</time>
      </trkpt>
      <trkpt lat="43.61014" lon="3.8603">
        <ele>54.5</ele>
        <time>2021-01-09T12:21:33Z</time>
      </trkpt>
      <trkpt lat="43.61015" lon="3.86027">
        <ele>54.5</ele>
        <time>2021-01-09T12:21:34Z</time>
      </trkpt>
      <trkpt lat="43.61015" lon="3.86023">
        <ele>55</ele>
        <time>2021-01-09T12:21:35Z</time>
      </trkpt>
      <trkpt lat="43.61016" lon="3.8602">
        <ele>55.3</ele>
        <time>2021-01-09T12:21:36Z</time>
      </trkpt>
      <trkpt lat="43.61017" lon="3.86016">
        <ele>55.7</ele>
        <time>2021-01-09T12:21:37Z</time>
      </trkpt>
      <trkpt lat="43.61017" lon="3.86013">
        <ele>57</ele>
        <time>2021-01-09T12:21:38Z</time>
      </trkpt>
      <trkpt lat="43.61018" lon="3.8601">
        <ele>56.3</ele>
        <time>2021-01-09T12:21:39Z</time>
      </trkpt>
      <trkpt lat="43.61018" lon="3.86006">
        <ele>56.7</ele>
        <time>2021-01-09T12:21:40Z</time>
      </trkpt>
      <trkpt lat="43.61019" lon="3.86003">
        <ele>57</ele>
        <time>2021-01-09T12:21:41Z</time>
      </trkpt>
      <trkpt lat="43.6102" lon="3.85999">
        <ele>57.3</ele>
        <time>2021-01-09T12:21:42Z</time>
      </trkpt>
      <trkpt lat="43.61021" lon="3.85996">
        <ele>57.2</ele>
        <time>2021-01-09T12:21:43Z</time>
      </trkpt>
      <trkpt lat="43.61021" lon="3.85992">
        <ele>57.2</ele>
        <time>2021-01-09T12:21:44Z</time>
      </trkpt>
      <trkpt lat="43.61021" lon="3.85989">
        <ele>57.2</ele>
        <time>2021-01-09T12:21:45Z</time>
      </trkpt>
      <trkpt lat="43.61022" lon="3.85986">
        <ele>57.2</ele>
        <time>2021-01-09T12:21:46Z</time>
      </trkpt>
      <trkpt lat="43.61023" lon="3.85982">
        <ele>57.2</ele>
        <time>2021-01-09T12:21:47Z</time>
      </trkpt>
      <trkpt lat="43.61024" lon="3.85979">
        <ele>58</ele>
        <time>2021-01-09T12:21:48Z</time>
      </trkpt>
      <trkpt lat="43.61024" lon="3.85975">
        <ele>57.1</ele>
        <time>2021-01-09T12:21:49Z</time>
      </trkpt>
      <trkpt lat="43.61024" lon="3.85972">
        <ele>57.1</ele>
        <time>2021-01-09T12:21:50Z</time>
      </trkpt>
      <trkpt lat="43.61024" lon="3.85968">
        <ele>57.1</ele>
        <time>2021-01-09T12:21:51Z</time>
      </trkpt>
      <trkpt lat="43.61025" lon="3.85964">
        <ele>57.1</ele>
        <time>2021-01-09T12:21:52Z</time>
      </trkpt>
      <trkpt lat="43.61025" lon="3.85961">
        <ele>57.1</ele>
        <time>2021-01-09T12:21:53Z</time>
      </trkpt>
      <trkpt lat="43.61026" lon="3.85957">
        <ele>57.1</ele>
        <time>2021-01-09T12:21:54Z</time>
      </trkpt>
      <trkpt lat="43.61026" lon="3.85954">
        <ele>57.1</ele>
        <time>2021-01-09T12:21:55Z</time>
      </trkpt>
      <trkpt lat="43.61027" lon="3.8595">
        <ele>57</ele>
        <time>2021-01-09T12:21:56Z</time>
      </trkpt>
      <trkpt lat="43.61027" lon="3.85947">
        <ele>57</ele>
        <time>2021-01-09T12:21:57Z</time>
      </trkpt>
      <trkpt lat="43.61028" lon="3.85943">
        <ele>61</ele>
        <time>2021-01-09T12:21:58Z</time>
      </trkpt>
      <trkpt lat="43.61029" lon="3.8594">
        <ele>57.1</ele>
        <time>2021-01-09T12:21:59Z</time>
      </trkpt>
      <trkpt lat="43.6103" lon="3.85936">
        <ele>57.2</ele>
        <time>2021-01-09T12:22:00Z</time>
      </trkpt>
      <trkpt lat="43.6103" lon="3.85933">
        <ele>57.2</ele>
        <time>2021-01-09T12:22:01Z</time>
      </trkpt>
      <trkpt lat="43.61031" lon="3.85929">
        <ele>57.3</ele>
        <time>2021-01-09T12:22:02Z</time>
      </trkpt>
      <trkpt lat="43.61032" lon="3.85926">
        <ele>57.5</ele>
        <time>2021-01-09T12:22:03Z</time>
      </trkpt>
      <trkpt lat="43.61033" lon="3.85922">
        <ele>57.6</ele>
        <time>2021-01-09T12:22:04Z</time>
      </trkpt>
      <trkpt lat="43.61034" lon="3.85918">
        <ele>57.7</ele>
        <time>2021-01-09T12:22:05Z</time>
      </trkpt>
      <trkpt lat="43.61035" lon="3.85915">
        <ele>57.9</ele>
        <time>2021-01-09T12:22:06Z</time>
      </trkpt>
      <trkpt lat="43.61036" lon="3.85911">
        <ele>58.2</ele>
        <time>2021-01-09T12:22:07Z</time>
      </trkpt>
      <trkpt lat="43.61038" lon="3.85904">
        <ele>61</ele>
        <time>2021-01-09T12:22:08Z</time>
      </trkpt>
      <trkpt lat="43.61038" lon="3.859">
        <ele>58.9</ele>
        <time>2021-01-09T12:22:09Z</time>
      </trkpt>
      <trkpt lat="43.61039" lon="3.85896">
        <ele>59.1</ele>
        <time>2021-01-09T12:22:10Z</time>
      </trkpt>
      <trkpt lat="43.6104" lon="3.85893">
        <ele>59.3</ele>
        <time>2021-01-09T12:22:11Z</time>
      </trkpt>
      <trkpt lat="43.61041" lon="3.85889">
        <ele>59.5</ele>
        <time>2021-01-09T12:22:12Z</time>
      </trkpt>
      <trkpt lat="43.61042" lon="3.85885">
        <ele>59.4</ele>
        <time>2021-01-09T12:22:13Z</time>
      </trkpt>
      <trkpt lat="43.61043" lon="3.85882">
        <ele>59.4</ele>
        <time>2021-01-09T12:22:14Z</time>
      </trkpt>
      <trkpt lat="43.61044" lon="3.85878">
        <ele>59.4</ele>
        <time>2021-01-09T12:22:15Z</time>
      </trkpt>
      <trkpt lat="43.61045" lon="3.85875">
        <ele>59.3</ele>
        <time>2021-01-09T12:22:16Z</time>
      </trkpt>
      <trkpt lat="43.61046" lon="3.85871">
        <ele>61</ele>
        <time>2021-01-09T12:22:18Z</time>
      </trkpt>
      <trkpt lat="43.61047" lon="3.85867">
        <ele>59.1</ele>
        <time>2021-01-09T12:22:19Z</time>
      </trkpt>
      <trkpt lat="43.61047" lon="3.85863">
        <ele>59</ele>
        <time>2021-01-09T12:22:20Z</time>
      </trkpt>
      <trkpt lat="43.61047" lon="3.8586">
        <ele>59</ele>
        <time>2021-01-09T12:22:21Z</time>
      </trkpt>
      <trkpt lat="43.61047" lon="3.85856">
        <ele>59.2</ele>
        <time>2021-01-09T12:22:22Z</time>
      </trkpt>
      <trkpt lat="43.61047" lon="3.85852">
        <ele>59.3</ele>
        <time>2021-01-09T12:22:23Z</time>
      </trkpt>
      <trkpt lat="43.61046" lon="3.85848">
        <ele>59.5</ele>
        <time>2021-01-09T12:22:24Z</time>
      </trkpt>
      <trkpt lat="43.61046" lon="3.85844">
        <ele>59.6</ele>
        <time>2021-01-09T12:22:25Z</time>
      </trkpt>
      <trkpt lat="43.61046" lon="3.8584">
        <ele>59.8</ele>
        <time>2021-01-09T12:22:26Z</time>
      </trkpt>
      <trkpt lat="43.61045" lon="3.85836">
        <ele>59.9</ele>
        <time>2021-01-09T12:22:27Z</time>
      </trkpt>
      <trkpt lat="43.61045" lon="3.85833">
        <ele>61</ele>
        <time>2021-01-09T12:22:28Z</time>
      </trkpt>
      <trkpt lat="43.61046" lon="3.85829">
        <ele>60.2</ele>
        <time>2021-01-09T12:22:29Z</time>
      </trkpt>
      <trkpt lat="43.61046" lon="3.85825">
        <ele>60.3</ele>
        <time>2021-01-09T12:22:30Z</time>
      </trkpt>
      <trkpt lat="43.61046" lon="3.85821">
        <ele>60.4</ele>
        <time>2021-01-09T12:22:31Z</time>
      </trkpt>
      <trkpt lat="43.61047" lon="3.85818">
        <ele>60.6</ele>
        <time>2021-01-09T12:22:32Z</time>
      </trkpt>
      <trkpt lat="43.61047" lon="3.85814">
        <ele>60.7</ele>
        <time>2021-01-09T12:22:33Z</time>
      </trkpt>
      <trkpt lat="43.61048" lon="3.8581">
        <ele>60.8</ele>
        <time>2021-01-09T12:22:34Z</time>
      </trkpt>
      <trkpt lat="43.61049" lon="3.85806">
        <ele>61</ele>
        <time>2021-01-09T12:22:35Z</time>
      </trkpt>
      <trkpt lat="43.6105" lon="3.85803">
        <ele>61</ele>
        <time>2021-01-09T12:22:36Z</time>
      </trkpt>
      <trkpt lat="43.6105" lon="3.85799">
        <ele>61</ele>
        <time>2021-01-09T12:22:37Z</time>
      </trkpt>
      <trkpt lat="43.61051" lon="3.85795">
        <ele>63</ele>
        <time>2021-01-09T12:22:38Z</time>
      </trkpt>
      <trkpt lat="43.61051" lon="3.85791">
        <ele>61</ele>
        <time>2021-01-09T12:22:39Z</time>
      </trkpt>
      <trkpt lat="43.61053" lon="3.85787">
        <ele>61</ele>
        <time>2021-01-09T12:22:40Z</time>
      </trkpt>
      <trkpt lat="43.61052" lon="3.85782">
        <ele>61</ele>
        <time>2021-01-09T12:22:41Z</time>
      </trkpt>
      <trkpt lat="43.61053" lon="3.85777">
        <ele>61</ele>
        <time>2021-01-09T12:22:42Z</time>
      </trkpt>
      <trkpt lat="43.61053" lon="3.85773">
        <ele>60.9</ele>
        <time>2021-01-09T12:22:43Z</time>
      </trkpt>
      <trkpt lat="43.61053" lon="3.85768">
        <ele>60.7</ele>
        <time>2021-01-09T12:22:44Z</time>
      </trkpt>
      <trkpt lat="43.61052" lon="3.85763">
        <ele>60.6</ele>
        <time>2021-01-09T12:22:45Z</time>
      </trkpt>
      <trkpt lat="43.61053" lon="3.85758">
        <ele>60.4</ele>
        <time>2021-01-09T12:22:46Z</time>
      </trkpt>
      <trkpt lat="43.61052" lon="3.85753">
        <ele>60.3</ele>
        <time>2021-01-09T12:22:47Z</time>
      </trkpt>
      <trkpt lat="43.61051" lon="3.85747">
        <ele>65</ele>
        <time>2021-01-09T12:22:48Z</time>
      </trkpt>
      <trkpt lat="43.61051" lon="3.85742">
        <ele>60.3</ele>
        <time>2021-01-09T12:22:49Z</time>
      </trkpt>
      <trkpt lat="43.6105" lon="3.85736">
        <ele>60.3</ele>
        <time>2021-01-09T12:22:50Z</time>
      </trkpt>
      <trkpt lat="43.61049" lon="3.8573">
        <ele>60.3</ele>
        <time>2021-01-09T12:22:51Z</time>
      </trkpt>
      <trkpt lat="43.61048" lon="3.85724">
        <ele>60.3</ele>
        <time>2021-01-09T12:22:52Z</time>
      </trkpt>
      <trkpt lat="43.61048" lon="3.85718">
        <ele>60.5</ele>
        <time>2021-01-09T12:22:53Z</time>
      </trkpt>
      <trkpt lat="43.61047" lon="3.85712">
        <ele>60.8</ele>
        <time>2021-01-09T12:22:54Z</time>
      </trkpt>
      <trkpt lat="43.61046" lon="3.85706">
        <ele>61.1</ele>
        <time>2021-01-09T12:22:55Z</time>
      </trkpt>
      <trkpt lat="43.61045" lon="3.85699">
        <ele>61.4</ele>
        <time>2021-01-09T12:22:56Z</time>
      </trkpt>
      <trkpt lat="43.61045" lon="3.85692">
        <ele>61.5</ele>
        <time>2021-01-09T12:22:57Z</time>
      </trkpt>
      <trkpt lat="43.61044" lon="3.85686">
        <ele>65</ele>
        <time>2021-01-09T12:22:58Z</time>
      </trkpt>
      <trkpt lat="43.61043" lon="3.85679">
        <ele>60.9</ele>
        <time>2021-01-09T12:22:59Z</time>
      </trkpt>
      <trkpt lat="43.61042" lon="3.85672">
        <ele>60.7</ele>
        <time>2021-01-09T12:23:00Z</time>
      </trkpt>
      <trkpt lat="43.61042" lon="3.85665">
        <ele>60.4</ele>
        <time>2021-01-09T12:23:01Z</time>
      </trkpt>
      <trkpt lat="43.61041" lon="3.85658">
        <ele>60.4</ele>
        <time>2021-01-09T12:23:02Z</time>
      </trkpt>
      <trkpt lat="43.6104" lon="3.85651">
        <ele>60.4</ele>
        <time>2021-01-09T12:23:03Z</time>
      </trkpt>
      <trkpt lat="43.6104" lon="3.85644">
        <ele>60.3</ele>
        <time>2021-01-09T12:23:04Z</time>
      </trkpt>
      <trkpt lat="43.61039" lon="3.85638">
        <ele>60.3</ele>
        <time>2021-01-09T12:23:05Z</time>
      </trkpt>
      <trkpt lat="43.61038" lon="3.85631">
        <ele>60.2</ele>
        <time>2021-01-09T12:23:06Z</time>
      </trkpt>
      <trkpt lat="43.61038" lon="3.85625">
        <ele>59.9</ele>
        <time>2021-01-09T12:23:07Z</time>
      </trkpt>
      <trkpt lat="43.61037" lon="3.85618">
        <ele>65</ele>
        <time>2021-01-09T12:23:08Z</time>
      </trkpt>
      <trkpt lat="43.61036" lon="3.85612">
        <ele>59.5</ele>
        <time>2021-01-09T12:23:09Z</time>
      </trkpt>
      <trkpt lat="43.61035" lon="3.85605">
        <ele>59.5</ele>
        <time>2021-01-09T12:23:10Z</time>
      </trkpt>
      <trkpt lat="43.61034" lon="3.85599">
        <ele>59.6</ele>
        <time>2021-01-09T12:23:11Z</time>
      </trkpt>
      <trkpt lat="43.61034" lon="3.85593">
        <ele>59.6</ele>
        <time>2021-01-09T12:23:12Z</time>
      </trkpt>
      <trkpt lat="43.61033" lon="3.85588">
        <ele>59.6</ele>
        <time>2021-01-09T12:23:13Z</time>
      </trkpt>
      <trkpt lat="43.61032" lon="3.85582">
        <ele>59.7</ele>
        <time>2021-01-09T12:23:14Z</time>
      </trkpt>
      <trkpt lat="43.61032" lon="3.85576">
        <ele>59.6</ele>
        <time>2021-01-09T12:23:15Z</time>
      </trkpt>
      <trkpt lat="43.61031" lon="3.85569">
        <ele>59.6</ele>
        <time>2021-01-09T12:23:16Z</time>
      </trkpt>
      <trkpt lat="43.61031" lon="3.85563">
        <ele>59.6</ele>
        <time>2021-01-09T12:23:17Z</time>
      </trkpt>
      <trkpt lat="43.6103" lon="3.85557">
        <ele>64</ele>
        <time>2021-01-09T12:23:18Z</time>
      </trkpt>
      <trkpt lat="43.6103" lon="3.8555">
        <ele>59.6</ele>
        <time>2021-01-09T12:23:19Z</time>
      </trkpt>
      <trkpt lat="43.6103" lon="3.85543">
        <ele>59.6</ele>
        <time>2021-01-09T12:23:20Z</time>
      </trkpt>
      <trkpt lat="43.61029" lon="3.85536">
        <ele>59.8</ele>
        <time>2021-01-09T12:23:21Z</time>
      </trkpt>
      <trkpt lat="43.61028" lon="3.8553">
        <ele>60</ele>
        <time>2021-01-09T12:23:22Z</time>
      </trkpt>
      <trkpt lat="43.61027" lon="3.85522">
        <ele>60.1</ele>
        <time>2021-01-09T12:23:23Z</time>
      </trkpt>
      <trkpt lat="43.61026" lon="3.85514">
        <ele>60.2</ele>
        <time>2021-01-09T12:23:24Z</time>
      </trkpt>
      <trkpt lat="43.61025" lon="3.85507">
        <ele>60.4</ele>
        <time>2021-01-09T12:23:25Z</time>
      </trkpt>
      <trkpt lat="43.61024" lon="3.855">
        <ele>60.5</ele>
        <time>2021-01-09T12:23:26Z</time>
      </trkpt>
      <trkpt lat="43.61023" lon="3.85493">
        <ele>60.9</ele>
        <time>2021-01-09T12:23:27Z</time>
      </trkpt>
      <trkpt lat="43.61023" lon="3.85486">
        <ele>64</ele>
        <time>2021-01-09T12:23:28Z</time>
      </trkpt>
      <trkpt lat="43.61022" lon="3.85479">
        <ele>61.4</ele>
        <time>2021-01-09T12:23:29Z</time>
      </trkpt>
      <trkpt lat="43.61021" lon="3.85472">
        <ele>61.7</ele>
        <time>2021-01-09T12:23:30Z</time>
      </trkpt>
      <trkpt lat="43.6102" lon="3.85465">
        <ele>61.8</ele>
        <time>2021-01-09T12:23:31Z</time>
      </trkpt>
      <trkpt lat="43.61019" lon="3.85458">
        <ele>61.9</ele>
        <time>2021-01-09T12:23:32Z</time>
      </trkpt>
      <trkpt lat="43.61019" lon="3.8545">
        <ele>61.9</ele>
        <time>2021-01-09T12:23:33Z</time>
      </trkpt>
      <trkpt lat="43.61018" lon="3.85443">
        <ele>62.1</ele>
        <time>2021-01-09T12:23:34Z</time>
      </trkpt>
      <trkpt lat="43.61017" lon="3.85437">
        <ele>62.2</ele>
        <time>2021-01-09T12:23:35Z</time>
      </trkpt>
      <trkpt lat="43.61016" lon="3.8543">
        <ele>62.3</ele>
        <time>2021-01-09T12:23:36Z</time>
      </trkpt>
      <trkpt lat="43.61016" lon="3.85423">
        <ele>62.3</ele>
        <time>2021-01-09T12:23:37Z</time>
      </trkpt>
      <trkpt lat="43.61015" lon="3.85416">
        <ele>64</ele>
        <time>2021-01-09T12:23:38Z</time>
      </trkpt>
      <trkpt lat="43.61014" lon="3.8541">
        <ele>62.6</ele>
        <time>2021-01-09T12:23:39Z</time>
      </trkpt>
      <trkpt lat="43.61014" lon="3.85403">
        <ele>62.7</ele>
        <time>2021-01-09T12:23:40Z</time>
      </trkpt>
      <trkpt lat="43.61014" lon="3.85396">
        <ele>62.9</ele>
        <time>2021-01-09T12:23:41Z</time>
      </trkpt>
      <trkpt lat="43.61014" lon="3.85389">
        <ele>63</ele>
        <time>2021-01-09T12:23:42Z</time>
      </trkpt>
      <trkpt lat="43.61013" lon="3.85382">
        <ele>62.9</ele>
        <time>2021-01-09T12:23:43Z</time>
      </trkpt>
      <trkpt lat="43.61013" lon="3.85376">
        <ele>62.8</ele>
        <time>2021-01-09T12:23:44Z</time>
      </trkpt>
      <trkpt lat="43.61013" lon="3.85369">
        <ele>62.7</ele>
        <time>2021-01-09T12:23:45Z</time>
      </trkpt>
      <trkpt lat="43.61013" lon="3.85362">
        <ele>62.5</ele>
        <time>2021-01-09T12:23:46Z</time>
      </trkpt>
      <trkpt lat="43.61013" lon="3.85355">
        <ele>62.6</ele>
        <time>2021-01-09T12:23:47Z</time>
      </trkpt>
      <trkpt lat="43.61013" lon="3.85349">
        <ele>65</ele>
        <time>2021-01-09T12:23:48Z</time>
      </trkpt>
      <trkpt lat="43.61014" lon="3.85343">
        <ele>62.8</ele>
        <time>2021-01-09T12:23:49Z</time>
      </trkpt>
      <trkpt lat="43.61014" lon="3.85338">
        <ele>62.9</ele>
        <time>2021-01-09T12:23:50Z</time>
      </trkpt>
      <trkpt lat="43.61014" lon="3.85335">
        <ele>63</ele>
        <time>2021-01-09T12:23:51Z</time>
      </trkpt>
      <trkpt lat="43.61014" lon="3.85332">
        <ele>63</ele>
        <time>2021-01-09T12:23:52Z</time>
      </trkpt>
      <trkpt lat="43.61014" lon="3.85329">
        <ele>63.1</ele>
        <time>2021-01-09T12:23:53Z</time>
      </trkpt>
      <trkpt lat="43.61013" lon="3.85325">
        <ele>63.2</ele>
        <time>2021-01-09T12:23:54Z</time>
      </trkpt>
      <trkpt lat="43.61013" lon="3.85321">
        <ele>63.3</ele>
        <time>2021-01-09T12:23:55Z</time>
      </trkpt>
      <trkpt lat="43.61014" lon="3.85317">
        <ele>63.3</ele>
        <time>2021-01-09T12:23:56Z</time>
      </trkpt>
      <trkpt lat="43.61014" lon="3.85312">
        <ele>63.4</ele>
        <time>2021-01-09T12:23:57Z</time>
      </trkpt>
      <trkpt lat="43.61014" lon="3.85307">
        <ele>67</ele>
        <time>2021-01-09T12:23:58Z</time>
      </trkpt>
      <trkpt lat="43.61015" lon="3.85301">
        <ele>63.4</ele>
        <time>2021-01-09T12:23:59Z</time>
      </trkpt>
      <trkpt lat="43.61015" lon="3.85296">
        <ele>63.4</ele>
        <time>2021-01-09T12:24:00Z</time>
      </trkpt>
      <trkpt lat="43.61015" lon="3.8529">
        <ele>63.4</ele>
        <time>2021-01-09T12:24:01Z</time>
      </trkpt>
      <trkpt lat="43.61015" lon="3.85284">
        <ele>63.4</ele>
        <time>2021-01-09T12:24:02Z</time>
      </trkpt>
      <trkpt lat="43.61015" lon="3.85278">
        <ele>63.4</ele>
        <time>2021-01-09T12:24:03Z</time>
      </trkpt>
      <trkpt lat="43.61015" lon="3.85272">
        <ele>63.5</ele>
        <time>2021-01-09T12:24:04Z</time>
      </trkpt>
      <trkpt lat="43.61015" lon="3.85267">
        <ele>63.6</ele>
        <time>2021-01-09T12:24:05Z</time>
      </trkpt>
      <trkpt lat="43.61014" lon="3.85261">
        <ele>63.8</ele>
        <time>2021-01-09T12:24:06Z</time>
      </trkpt>
      <trkpt lat="43.61015" lon="3.85255">
        <ele>63.8</ele>
        <time>2021-01-09T12:24:07Z</time>
      </trkpt>
      <trkpt lat="43.61014" lon="3.85249">
        <ele>67</ele>
        <time>2021-01-09T12:24:08Z</time>
      </trkpt>
      <trkpt lat="43.61015" lon="3.85243">
        <ele>63.9</ele>
        <time>2021-01-09T12:24:09Z</time>
      </trkpt>
      <trkpt lat="43.61015" lon="3.85237">
        <ele>64</ele>
        <time>2021-01-09T12:24:10Z</time>
      </trkpt>
      <trkpt lat="43.61015" lon="3.85231">
        <ele>64</ele>
        <time>2021-01-09T12:24:11Z</time>
      </trkpt>
      <trkpt lat="43.61016" lon="3.85225">
        <ele>64</ele>
        <time>2021-01-09T12:24:12Z</time>
      </trkpt>
      <trkpt lat="43.61016" lon="3.85219">
        <ele>64.1</ele>
        <time>2021-01-09T12:24:13Z</time>
      </trkpt>
      <trkpt lat="43.61016" lon="3.85213">
        <ele>64.3</ele>
        <time>2021-01-09T12:24:14Z</time>
      </trkpt>
      <trkpt lat="43.61017" lon="3.85207">
        <ele>64.4</ele>
        <time>2021-01-09T12:24:15Z</time>
      </trkpt>
      <trkpt lat="43.61018" lon="3.85201">
        <ele>64.5</ele>
        <time>2021-01-09T12:24:16Z</time>
      </trkpt>
      <trkpt lat="43.61019" lon="3.85194">
        <ele>64.6</ele>
        <time>2021-01-09T12:24:17Z</time>
      </trkpt>
      <trkpt lat="43.6102" lon="3.85188">
        <ele>67</ele>
        <time>2021-01-09T12:24:18Z</time>
      </trkpt>
      <trkpt lat="43.6102" lon="3.85181">
        <ele>64.6</ele>
        <time>2021-01-09T12:24:19Z</time>
      </trkpt>
      <trkpt lat="43.61021" lon="3.85175">
        <ele>64.5</ele>
        <time>2021-01-09T12:24:20Z</time>
      </trkpt>
      <trkpt lat="43.61021" lon="3.85169">
        <ele>64.5</ele>
        <time>2021-01-09T12:24:21Z</time>
      </trkpt>
      <trkpt lat="43.61022" lon="3.85164">
        <ele>64.4</ele>
        <time>2021-01-09T12:24:22Z</time>
      </trkpt>
      <trkpt lat="43.61024" lon="3.85157">
        <ele>64.2</ele>
        <time>2021-01-09T12:24:23Z</time>
      </trkpt>
      <trkpt lat="43.61025" lon="3.85151">
        <ele>64.1</ele>
        <time>2021-01-09T12:24:24Z</time>
      </trkpt>
      <trkpt lat="43.61025" lon="3.85144">
        <ele>64.1</ele>
        <time>2021-01-09T12:24:25Z</time>
      </trkpt>
      <trkpt lat="43.61025" lon="3.85137">
        <ele>64.1</ele>
        <time>2021-01-09T12:24:26Z</time>
      </trkpt>
      <trkpt lat="43.61027" lon="3.85131">
        <ele>64</ele>
        <time>2021-01-09T12:24:27Z</time>
      </trkpt>
      <trkpt lat="43.61028" lon="3.85124">
        <ele>69</ele>
        <time>2021-01-09T12:24:28Z</time>
      </trkpt>
      <trkpt lat="43.61028" lon="3.85119">
        <ele>64</ele>
        <time>2021-01-09T12:24:29Z</time>
      </trkpt>
      <trkpt lat="43.61029" lon="3.85114">
        <ele>64</ele>
        <time>2021-01-09T12:24:30Z</time>
      </trkpt>
      <trkpt lat="43.61029" lon="3.8511">
        <ele>64.1</ele>
        <time>2021-01-09T12:24:31Z</time>
      </trkpt>
      <trkpt lat="43.61029" lon="3.85105">
        <ele>64.3</ele>
        <time>2021-01-09T12:24:32Z</time>
      </trkpt>
      <trkpt lat="43.61029" lon="3.85101">
        <ele>64.4</ele>
        <time>2021-01-09T12:24:33Z</time>
      </trkpt>
      <trkpt lat="43.61029" lon="3.85097">
        <ele>64.6</ele>
        <time>2021-01-09T12:24:34Z</time>
      </trkpt>
      <trkpt lat="43.61029" lon="3.85094">
        <ele>64.7</ele>
        <time>2021-01-09T12:24:35Z</time>
      </trkpt>
      <trkpt lat="43.61029" lon="3.85091">
        <ele>64.8</ele>
        <time>2021-01-09T12:24:36Z</time>
      </trkpt>
      <trkpt lat="43.6103" lon="3.85087">
        <ele>64.9</ele>
        <time>2021-01-09T12:24:37Z</time>
      </trkpt>
      <trkpt lat="43.61031" lon="3.85082">
        <ele>69</ele>
        <time>2021-01-09T12:24:38Z</time>
      </trkpt>
      <trkpt lat="43.61032" lon="3.85078">
        <ele>65.3</ele>
        <time>2021-01-09T12:24:39Z</time>
      </trkpt>
      <trkpt lat="43.61032" lon="3.85072">
        <ele>65.4</ele>
        <time>2021-01-09T12:24:40Z</time>
      </trkpt>
      <trkpt lat="43.61033" lon="3.85067">
        <ele>65.6</ele>
        <time>2021-01-09T12:24:41Z</time>
      </trkpt>
      <trkpt lat="43.61034" lon="3.85062">
        <ele>65.6</ele>
        <time>2021-01-09T12:24:42Z</time>
      </trkpt>
      <trkpt lat="43.61035" lon="3.85056">
        <ele>65.7</ele>
        <time>2021-01-09T12:24:43Z</time>
      </trkpt>
      <trkpt lat="43.61036" lon="3.85051">
        <ele>65.7</ele>
        <time>2021-01-09T12:24:44Z</time>
      </trkpt>
      <trkpt lat="43.61037" lon="3.85045">
        <ele>65.7</ele>
        <time>2021-01-09T12:24:45Z</time>
      </trkpt>
      <trkpt lat="43.61038" lon="3.85039">
        <ele>65.6</ele>
        <time>2021-01-09T12:24:46Z</time>
      </trkpt>
      <trkpt lat="43.61039" lon="3.85034">
        <ele>65.6</ele>
        <time>2021-01-09T12:24:47Z</time>
      </trkpt>
      <trkpt lat="43.6104" lon="3.85027">
        <ele>69</ele>
        <time>2021-01-09T12:24:48Z</time>
      </trkpt>
      <trkpt lat="43.61041" lon="3.85021">
        <ele>65.7</ele>
        <time>2021-01-09T12:24:49Z</time>
      </trkpt>
      <trkpt lat="43.61041" lon="3.85015">
        <ele>65.8</ele>
        <time>2021-01-09T12:24:50Z</time>
      </trkpt>
      <trkpt lat="43.61042" lon="3.85009">
        <ele>65.8</ele>
        <time>2021-01-09T12:24:51Z</time>
      </trkpt>
      <trkpt lat="43.61043" lon="3.85003">
        <ele>65.9</ele>
        <time>2021-01-09T12:24:52Z</time>
      </trkpt>
      <trkpt lat="43.61044" lon="3.84998">
        <ele>65.8</ele>
        <time>2021-01-09T12:24:53Z</time>
      </trkpt>
      <trkpt lat="43.61045" lon="3.84992">
        <ele>65.8</ele>
        <time>2021-01-09T12:24:54Z</time>
      </trkpt>
      <trkpt lat="43.61046" lon="3.84987">
        <ele>65.8</ele>
        <time>2021-01-09T12:24:55Z</time>
      </trkpt>
      <trkpt lat="43.61047" lon="3.84981">
        <ele>65.9</ele>
        <time>2021-01-09T12:24:56Z</time>
      </trkpt>
      <trkpt lat="43.61047" lon="3.84976">
        <ele>65.9</ele>
        <time>2021-01-09T12:24:57Z</time>
      </trkpt>
      <trkpt lat="43.61045" lon="3.84971">
        <ele>69</ele>
        <time>2021-01-09T12:24:58Z</time>
      </trkpt>
      <trkpt lat="43.61041" lon="3.84968">
        <ele>66</ele>
        <time>2021-01-09T12:24:59Z</time>
      </trkpt>
      <trkpt lat="43.61036" lon="3.84964">
        <ele>66</ele>
        <time>2021-01-09T12:25:00Z</time>
      </trkpt>
      <trkpt lat="43.61031" lon="3.84961">
        <ele>66</ele>
        <time>2021-01-09T12:25:01Z</time>
      </trkpt>
      <trkpt lat="43.61026" lon="3.84958">
        <ele>66</ele>
        <time>2021-01-09T12:25:02Z</time>
      </trkpt>
      <trkpt lat="43.61022" lon="3.84955">
        <ele>66.1</ele>
        <time>2021-01-09T12:25:03Z</time>
      </trkpt>
      <trkpt lat="43.61018" lon="3.84952">
        <ele>66.1</ele>
        <time>2021-01-09T12:25:04Z</time>
      </trkpt>
      <trkpt lat="43.61014" lon="3.84948">
        <ele>66.1</ele>
        <time>2021-01-09T12:25:05Z</time>
      </trkpt>
      <trkpt lat="43.6101" lon="3.84945">
        <ele>66</ele>
        <time>2021-01-09T12:25:06Z</time>
      </trkpt>
      <trkpt lat="43.61006" lon="3.84943">
        <ele>66.1</ele>
        <time>2021-01-09T12:25:07Z</time>
      </trkpt>
      <trkpt lat="43.61001" lon="3.8494">
        <ele>67</ele>
        <time>2021-01-09T12:25:08Z</time>
      </trkpt>
      <trkpt lat="43.60997" lon="3.84938">
        <ele>66.4</ele>
        <time>2021-01-09T12:25:09Z</time>
      </trkpt>
      <trkpt lat="43.60993" lon="3.84936">
        <ele>66.7</ele>
        <time>2021-01-09T12:25:10Z</time>
      </trkpt>
      <trkpt lat="43.60989" lon="3.84933">
        <ele>66.9</ele>
        <time>2021-01-09T12:25:11Z</time>
      </trkpt>
      <trkpt lat="43.60984" lon="3.84931">
        <ele>67.1</ele>
        <time>2021-01-09T12:25:12Z</time>
      </trkpt>
      <trkpt lat="43.6098" lon="3.84929">
        <ele>67.2</ele>
        <time>2021-01-09T12:25:13Z</time>
      </trkpt>
      <trkpt lat="43.60976" lon="3.84926">
        <ele>67.2</ele>
        <time>2021-01-09T12:25:14Z</time>
      </trkpt>
      <trkpt lat="43.60972" lon="3.84923">
        <ele>67.2</ele>
        <time>2021-01-09T12:25:15Z</time>
      </trkpt>
      <trkpt lat="43.60968" lon="3.84919">
        <ele>67.2</ele>
        <time>2021-01-09T12:25:16Z</time>
      </trkpt>
      <trkpt lat="43.60965" lon="3.84915">
        <ele>67.3</ele>
        <time>2021-01-09T12:25:17Z</time>
      </trkpt>
      <trkpt lat="43.60962" lon="3.8491">
        <ele>68</ele>
        <time>2021-01-09T12:25:18Z</time>
      </trkpt>
      <trkpt lat="43.60959" lon="3.84904">
        <ele>67.7</ele>
        <time>2021-01-09T12:25:19Z</time>
      </trkpt>
      <trkpt lat="43.60957" lon="3.84899">
        <ele>67.8</ele>
        <time>2021-01-09T12:25:20Z</time>
      </trkpt>
      <trkpt lat="43.60955" lon="3.84893">
        <ele>67.9</ele>
        <time>2021-01-09T12:25:21Z</time>
      </trkpt>
      <trkpt lat="43.60953" lon="3.84887">
        <ele>68</ele>
        <time>2021-01-09T12:25:22Z</time>
      </trkpt>
      <trkpt lat="43.60951" lon="3.84882">
        <ele>67.8</ele>
        <time>2021-01-09T12:25:23Z</time>
      </trkpt>
      <trkpt lat="43.60949" lon="3.84876">
        <ele>67.6</ele>
        <time>2021-01-09T12:25:24Z</time>
      </trkpt>
      <trkpt lat="43.60946" lon="3.8487">
        <ele>67.4</ele>
        <time>2021-01-09T12:25:25Z</time>
      </trkpt>
      <trkpt lat="43.60944" lon="3.84865">
        <ele>67.1</ele>
        <time>2021-01-09T12:25:26Z</time>
      </trkpt>
      <trkpt lat="43.60941" lon="3.8486">
        <ele>67</ele>
        <time>2021-01-09T12:25:27Z</time>
      </trkpt>
      <trkpt lat="43.60939" lon="3.84854">
        <ele>69</ele>
        <time>2021-01-09T12:25:28Z</time>
      </trkpt>
      <trkpt lat="43.60936" lon="3.84849">
        <ele>67.1</ele>
        <time>2021-01-09T12:25:29Z</time>
      </trkpt>
      <trkpt lat="43.60933" lon="3.84843">
        <ele>67.3</ele>
        <time>2021-01-09T12:25:30Z</time>
      </trkpt>
      <trkpt lat="43.6093" lon="3.84838">
        <ele>67.4</ele>
        <time>2021-01-09T12:25:31Z</time>
      </trkpt>
      <trkpt lat="43.60927" lon="3.84833">
        <ele>67.6</ele>
        <time>2021-01-09T12:25:32Z</time>
      </trkpt>
      <trkpt lat="43.60924" lon="3.84827">
        <ele>67.6</ele>
        <time>2021-01-09T12:25:33Z</time>
      </trkpt>
      <trkpt lat="43.60921" lon="3.84822">
        <ele>67.5</ele>
        <time>2021-01-09T12:25:34Z</time>
      </trkpt>
      <trkpt lat="43.60918" lon="3.84817">
        <ele>67.4</ele>
        <time>2021-01-09T12:25:35Z</time>
      </trkpt>
      <trkpt lat="43.60914" lon="3.84812">
        <ele>67.3</ele>
        <time>2021-01-09T12:25:36Z</time>
      </trkpt>
      <trkpt lat="43.60911" lon="3.84808">
        <ele>67.3</ele>
        <time>2021-01-09T12:25:37Z</time>
      </trkpt>
      <trkpt lat="43.60907" lon="3.84803">
        <ele>70</ele>
        <time>2021-01-09T12:25:38Z</time>
      </trkpt>
      <trkpt lat="43.60904" lon="3.84798">
        <ele>67.5</ele>
        <time>2021-01-09T12:25:39Z</time>
      </trkpt>
      <trkpt lat="43.609" lon="3.84794">
        <ele>67.5</ele>
        <time>2021-01-09T12:25:40Z</time>
      </trkpt>
      <trkpt lat="43.60898" lon="3.84789">
        <ele>67.5</ele>
        <time>2021-01-09T12:25:41Z</time>
      </trkpt>
      <trkpt lat="43.60896" lon="3.84784">
        <ele>67.4</ele>
        <time>2021-01-09T12:25:42Z</time>
      </trkpt>
      <trkpt lat="43.60895" lon="3.84778">
        <ele>67.2</ele>
        <time>2021-01-09T12:25:43Z</time>
      </trkpt>
      <trkpt lat="43.60894" lon="3.84772">
        <ele>67.2</ele>
        <time>2021-01-09T12:25:44Z</time>
      </trkpt>
      <trkpt lat="43.60893" lon="3.84766">
        <ele>67.1</ele>
        <time>2021-01-09T12:25:45Z</time>
      </trkpt>
      <trkpt lat="43.60891" lon="3.84761">
        <ele>67.1</ele>
        <time>2021-01-09T12:25:46Z</time>
      </trkpt>
      <trkpt lat="43.60888" lon="3.84757">
        <ele>67</ele>
        <time>2021-01-09T12:25:47Z</time>
      </trkpt>
      <trkpt lat="43.60887" lon="3.84751">
        <ele>70</ele>
        <time>2021-01-09T12:25:48Z</time>
      </trkpt>
      <trkpt lat="43.60887" lon="3.84745">
        <ele>67</ele>
        <time>2021-01-09T12:25:49Z</time>
      </trkpt>
      <trkpt lat="43.60887" lon="3.84738">
        <ele>67</ele>
        <time>2021-01-09T12:25:50Z</time>
      </trkpt>
      <trkpt lat="43.60887" lon="3.84732">
        <ele>67</ele>
        <time>2021-01-09T12:25:51Z</time>
      </trkpt>
      <trkpt lat="43.60887" lon="3.84724">
        <ele>67</ele>
        <time>2021-01-09T12:25:52Z</time>
      </trkpt>
      <trkpt lat="43.60888" lon="3.84717">
        <ele>66.8</ele>
        <time>2021-01-09T12:25:53Z</time>
      </trkpt>
      <trkpt lat="43.60888" lon="3.8471">
        <ele>66.6</ele>
        <time>2021-01-09T12:25:54Z</time>
      </trkpt>
      <trkpt lat="43.60888" lon="3.84702">
        <ele>66.3</ele>
        <time>2021-01-09T12:25:55Z</time>
      </trkpt>
      <trkpt lat="43.60888" lon="3.84695">
        <ele>66.1</ele>
        <time>2021-01-09T12:25:56Z</time>
      </trkpt>
      <trkpt lat="43.60889" lon="3.84687">
        <ele>66</ele>
        <time>2021-01-09T12:25:57Z</time>
      </trkpt>
      <trkpt lat="43.60889" lon="3.8468">
        <ele>68</ele>
        <time>2021-01-09T12:25:58Z</time>
      </trkpt>
      <trkpt lat="43.60889" lon="3.84673">
        <ele>66</ele>
        <time>2021-01-09T12:25:59Z</time>
      </trkpt>
      <trkpt lat="43.60889" lon="3.84666">
        <ele>66</ele>
        <time>2021-01-09T12:26:00Z</time>
      </trkpt>
      <trkpt lat="43.6089" lon="3.84659">
        <ele>66</ele>
        <time>2021-01-09T12:26:01Z</time>
      </trkpt>
      <trkpt lat="43.6089" lon="3.84652">
        <ele>66</ele>
        <time>2021-01-09T12:26:02Z</time>
      </trkpt>
      <trkpt lat="43.6089" lon="3.84645">
        <ele>66</ele>
        <time>2021-01-09T12:26:03Z</time>
      </trkpt>
      <trkpt lat="43.60891" lon="3.84638">
        <ele>66</ele>
        <time>2021-01-09T12:26:04Z</time>
      </trkpt>
      <trkpt lat="43.60891" lon="3.84631">
        <ele>65.7</ele>
        <time>2021-01-09T12:26:05Z</time>
      </trkpt>
      <trkpt lat="43.60891" lon="3.84624">
        <ele>65.5</ele>
        <time>2021-01-09T12:26:06Z</time>
      </trkpt>
      <trkpt lat="43.60892" lon="3.84617">
        <ele>65.3</ele>
        <time>2021-01-09T12:26:07Z</time>
      </trkpt>
      <trkpt lat="43.60894" lon="3.8461">
        <ele>67</ele>
        <time>2021-01-09T12:26:08Z</time>
      </trkpt>
      <trkpt lat="43.60895" lon="3.84603">
        <ele>64.9</ele>
        <time>2021-01-09T12:26:09Z</time>
      </trkpt>
      <trkpt lat="43.60897" lon="3.84595">
        <ele>64.7</ele>
        <time>2021-01-09T12:26:10Z</time>
      </trkpt>
      <trkpt lat="43.60898" lon="3.84588">
        <ele>64.5</ele>
        <time>2021-01-09T12:26:11Z</time>
      </trkpt>
      <trkpt lat="43.60898" lon="3.84581">
        <ele>64.3</ele>
        <time>2021-01-09T12:26:12Z</time>
      </trkpt>
      <trkpt lat="43.60898" lon="3.84574">
        <ele>64.3</ele>
        <time>2021-01-09T12:26:13Z</time>
      </trkpt>
      <trkpt lat="43.60897" lon="3.84567">
        <ele>64.3</ele>
        <time>2021-01-09T12:26:14Z</time>
      </trkpt>
      <trkpt lat="43.60897" lon="3.84558">
        <ele>64.3</ele>
        <time>2021-01-09T12:26:15Z</time>
      </trkpt>
      <trkpt lat="43.60896" lon="3.8455">
        <ele>64.1</ele>
        <time>2021-01-09T12:26:16Z</time>
      </trkpt>
      <trkpt lat="43.60896" lon="3.84541">
        <ele>63.9</ele>
        <time>2021-01-09T12:26:17Z</time>
      </trkpt>
      <trkpt lat="43.60896" lon="3.84532">
        <ele>66</ele>
        <time>2021-01-09T12:26:18Z</time>
      </trkpt>
      <trkpt lat="43.60895" lon="3.84523">
        <ele>63.4</ele>
        <time>2021-01-09T12:26:19Z</time>
      </trkpt>
      <trkpt lat="43.60895" lon="3.84514">
        <ele>63.3</ele>
        <time>2021-01-09T12:26:20Z</time>
      </trkpt>
      <trkpt lat="43.60894" lon="3.84505">
        <ele>63.2</ele>
        <time>2021-01-09T12:26:21Z</time>
      </trkpt>
      <trkpt lat="43.60893" lon="3.84496">
        <ele>63.1</ele>
        <time>2021-01-09T12:26:22Z</time>
      </trkpt>
      <trkpt lat="43.60893" lon="3.84487">
        <ele>63.1</ele>
        <time>2021-01-09T12:26:23Z</time>
      </trkpt>
      <trkpt lat="43.60893" lon="3.84477">
        <ele>63</ele>
        <time>2021-01-09T12:26:24Z</time>
      </trkpt>
      <trkpt lat="43.60893" lon="3.84468">
        <ele>62.9</ele>
        <time>2021-01-09T12:26:25Z</time>
      </trkpt>
      <trkpt lat="43.60893" lon="3.84458">
        <ele>62.6</ele>
        <time>2021-01-09T12:26:26Z</time>
      </trkpt>
      <trkpt lat="43.60894" lon="3.84449">
        <ele>62.3</ele>
        <time>2021-01-09T12:26:27Z</time>
      </trkpt>
      <trkpt lat="43.60895" lon="3.84439">
        <ele>66</ele>
        <time>2021-01-09T12:26:28Z</time>
      </trkpt>
      <trkpt lat="43.60895" lon="3.84429">
        <ele>62.1</ele>
        <time>2021-01-09T12:26:29Z</time>
      </trkpt>
      <trkpt lat="43.60896" lon="3.84419">
        <ele>62</ele>
        <time>2021-01-09T12:26:30Z</time>
      </trkpt>
      <trkpt lat="43.60897" lon="3.84408">
        <ele>62</ele>
        <time>2021-01-09T12:26:31Z</time>
      </trkpt>
      <trkpt lat="43.60897" lon="3.84398">
        <ele>62</ele>
        <time>2021-01-09T12:26:32Z</time>
      </trkpt>
      <trkpt lat="43.60896" lon="3.84388">
        <ele>62</ele>
        <time>2021-01-09T12:26:33Z</time>
      </trkpt>
      <trkpt lat="43.60895" lon="3.84378">
        <ele>61.6</ele>
        <time>2021-01-09T12:26:34Z</time>
      </trkpt>
      <trkpt lat="43.60895" lon="3.84368">
        <ele>61.2</ele>
        <time>2021-01-09T12:26:35Z</time>
      </trkpt>
      <trkpt lat="43.60895" lon="3.84357">
        <ele>61</ele>
        <time>2021-01-09T12:26:36Z</time>
      </trkpt>
      <trkpt lat="43.60896" lon="3.84347">
        <ele>61</ele>
        <time>2021-01-09T12:26:37Z</time>
      </trkpt>
      <trkpt lat="43.60896" lon="3.84336">
        <ele>63</ele>
        <time>2021-01-09T12:26:38Z</time>
      </trkpt>
      <trkpt lat="43.60897" lon="3.84326">
        <ele>61</ele>
        <time>2021-01-09T12:26:39Z</time>
      </trkpt>
      <trkpt lat="43.60899" lon="3.84316">
        <ele>61</ele>
        <time>2021-01-09T12:26:40Z</time>
      </trkpt>
      <trkpt lat="43.609" lon="3.84306">
        <ele>61</ele>
        <time>2021-01-09T12:26:41Z</time>
      </trkpt>
      <trkpt lat="43.60901" lon="3.84296">
        <ele>60.8</ele>
        <time>2021-01-09T12:26:42Z</time>
      </trkpt>
      <trkpt lat="43.60901" lon="3.84287">
        <ele>60.6</ele>
        <time>2021-01-09T12:26:43Z</time>
      </trkpt>
      <trkpt lat="43.60902" lon="3.84277">
        <ele>60.5</ele>
        <time>2021-01-09T12:26:44Z</time>
      </trkpt>
      <trkpt lat="43.60902" lon="3.84267">
        <ele>60.3</ele>
        <time>2021-01-09T12:26:45Z</time>
      </trkpt>
      <trkpt lat="43.60902" lon="3.84258">
        <ele>60.1</ele>
        <time>2021-01-09T12:26:46Z</time>
      </trkpt>
      <trkpt lat="43.60902" lon="3.84248">
        <ele>60</ele>
        <time>2021-01-09T12:26:47Z</time>
      </trkpt>
      <trkpt lat="43.60901" lon="3.84239">
        <ele>62</ele>
        <time>2021-01-09T12:26:48Z</time>
      </trkpt>
      <trkpt lat="43.609" lon="3.84229">
        <ele>59.7</ele>
        <time>2021-01-09T12:26:49Z</time>
      </trkpt>
      <trkpt lat="43.60899" lon="3.84219">
        <ele>59.7</ele>
        <time>2021-01-09T12:26:50Z</time>
      </trkpt>
      <trkpt lat="43.60899" lon="3.8421">
        <ele>59.8</ele>
        <time>2021-01-09T12:26:51Z</time>
      </trkpt>
      <trkpt lat="43.60898" lon="3.842">
        <ele>59.9</ele>
        <time>2021-01-09T12:26:52Z</time>
      </trkpt>
      <trkpt lat="43.60898" lon="3.8419">
        <ele>60</ele>
        <time>2021-01-09T12:26:53Z</time>
      </trkpt>
      <trkpt lat="43.60898" lon="3.84181">
        <ele>60</ele>
        <time>2021-01-09T12:26:54Z</time>
      </trkpt>
      <trkpt lat="43.60898" lon="3.84172">
        <ele>60</ele>
        <time>2021-01-09T12:26:55Z</time>
      </trkpt>
      <trkpt lat="43.60898" lon="3.84162">
        <ele>59.8</ele>
        <time>2021-01-09T12:26:56Z</time>
      </trkpt>
      <trkpt lat="43.60899" lon="3.84153">
        <ele>59.5</ele>
        <time>2021-01-09T12:26:57Z</time>
      </trkpt>
      <trkpt lat="43.609" lon="3.84143">
        <ele>62</ele>
        <time>2021-01-09T12:26:58Z</time>
      </trkpt>
      <trkpt lat="43.60902" lon="3.84134">
        <ele>59</ele>
        <time>2021-01-09T12:26:59Z</time>
      </trkpt>
      <trkpt lat="43.60904" lon="3.84125">
        <ele>59</ele>
        <time>2021-01-09T12:27:00Z</time>
      </trkpt>
      <trkpt lat="43.60906" lon="3.84116">
        <ele>59</ele>
        <time>2021-01-09T12:27:01Z</time>
      </trkpt>
      <trkpt lat="43.60908" lon="3.84107">
        <ele>59</ele>
        <time>2021-01-09T12:27:02Z</time>
      </trkpt>
      <trkpt lat="43.6091" lon="3.84098">
        <ele>59</ele>
        <time>2021-01-09T12:27:03Z</time>
      </trkpt>
      <trkpt lat="43.60913" lon="3.84089">
        <ele>59</ele>
        <time>2021-01-09T12:27:04Z</time>
      </trkpt>
      <trkpt lat="43.60916" lon="3.8408">
        <ele>59</ele>
        <time>2021-01-09T12:27:05Z</time>
      </trkpt>
      <trkpt lat="43.60918" lon="3.84071">
        <ele>59</ele>
        <time>2021-01-09T12:27:06Z</time>
      </trkpt>
      <trkpt lat="43.60921" lon="3.84062">
        <ele>58.9</ele>
        <time>2021-01-09T12:27:07Z</time>
      </trkpt>
      <trkpt lat="43.60923" lon="3.84053">
        <ele>62</ele>
        <time>2021-01-09T12:27:08Z</time>
      </trkpt>
      <trkpt lat="43.60926" lon="3.84045">
        <ele>58.8</ele>
        <time>2021-01-09T12:27:09Z</time>
      </trkpt>
      <trkpt lat="43.60928" lon="3.84037">
        <ele>58.9</ele>
        <time>2021-01-09T12:27:10Z</time>
      </trkpt>
      <trkpt lat="43.60931" lon="3.8403">
        <ele>59</ele>
        <time>2021-01-09T12:27:11Z</time>
      </trkpt>
      <trkpt lat="43.60933" lon="3.84023">
        <ele>59.1</ele>
        <time>2021-01-09T12:27:12Z</time>
      </trkpt>
      <trkpt lat="43.60934" lon="3.84016">
        <ele>59.2</ele>
        <time>2021-01-09T12:27:13Z</time>
      </trkpt>
      <trkpt lat="43.60934" lon="3.8401">
        <ele>59.2</ele>
        <time>2021-01-09T12:27:14Z</time>
      </trkpt>
      <trkpt lat="43.60933" lon="3.84003">
        <ele>59.4</ele>
        <time>2021-01-09T12:27:15Z</time>
      </trkpt>
      <trkpt lat="43.60933" lon="3.83996">
        <ele>59.4</ele>
        <time>2021-01-09T12:27:16Z</time>
      </trkpt>
      <trkpt lat="43.60934" lon="3.83989">
        <ele>59.4</ele>
        <time>2021-01-09T12:27:17Z</time>
      </trkpt>
      <trkpt lat="43.60935" lon="3.83981">
        <ele>61</ele>
        <time>2021-01-09T12:27:18Z</time>
      </trkpt>
      <trkpt lat="43.60936" lon="3.83973">
        <ele>59.3</ele>
        <time>2021-01-09T12:27:19Z</time>
      </trkpt>
      <trkpt lat="43.60937" lon="3.83966">
        <ele>59.3</ele>
        <time>2021-01-09T12:27:20Z</time>
      </trkpt>
      <trkpt lat="43.60939" lon="3.83958">
        <ele>59.2</ele>
        <time>2021-01-09T12:27:21Z</time>
      </trkpt>
      <trkpt lat="43.6094" lon="3.8395">
        <ele>59.2</ele>
        <time>2021-01-09T12:27:22Z</time>
      </trkpt>
      <trkpt lat="43.60942" lon="3.83943">
        <ele>59.1</ele>
        <time>2021-01-09T12:27:23Z</time>
      </trkpt>
      <trkpt lat="43.60943" lon="3.83935">
        <ele>59.1</ele>
        <time>2021-01-09T12:27:24Z</time>
      </trkpt>
      <trkpt lat="43.60944" lon="3.83928">
        <ele>59</ele>
        <time>2021-01-09T12:27:25Z</time>
      </trkpt>
      <trkpt lat="43.60945" lon="3.8392">
        <ele>59.1</ele>
        <time>2021-01-09T12:27:26Z</time>
      </trkpt>
      <trkpt lat="43.60946" lon="3.83913">
        <ele>59.3</ele>
        <time>2021-01-09T12:27:27Z</time>
      </trkpt>
      <trkpt lat="43.60947" lon="3.83905">
        <ele>61</ele>
        <time>2021-01-09T12:27:28Z</time>
      </trkpt>
      <trkpt lat="43.60949" lon="3.83898">
        <ele>60.3</ele>
        <time>2021-01-09T12:27:29Z</time>
      </trkpt>
      <trkpt lat="43.6095" lon="3.83891">
        <ele>60.7</ele>
        <time>2021-01-09T12:27:30Z</time>
      </trkpt>
      <trkpt lat="43.60952" lon="3.83884">
        <ele>61.1</ele>
        <time>2021-01-09T12:27:31Z</time>
      </trkpt>
      <trkpt lat="43.60953" lon="3.83876">
        <ele>61.4</ele>
        <time>2021-01-09T12:27:32Z</time>
      </trkpt>
      <trkpt lat="43.60954" lon="3.83869">
        <ele>61.6</ele>
        <time>2021-01-09T12:27:33Z</time>
      </trkpt>
      <trkpt lat="43.60956" lon="3.83862">
        <ele>62.1</ele>
        <time>2021-01-09T12:27:34Z</time>
      </trkpt>
      <trkpt lat="43.60958" lon="3.83855">
        <ele>61.9</ele>
        <time>2021-01-09T12:27:35Z</time>
      </trkpt>
      <trkpt lat="43.6096" lon="3.83848">
        <ele>61.5</ele>
        <time>2021-01-09T12:27:36Z</time>
      </trkpt>
      <trkpt lat="43.60961" lon="3.83841">
        <ele>60.8</ele>
        <time>2021-01-09T12:27:37Z</time>
      </trkpt>
      <trkpt lat="43.60962" lon="3.83834">
        <ele>61</ele>
        <time>2021-01-09T12:27:38Z</time>
      </trkpt>
      <trkpt lat="43.60964" lon="3.83827">
        <ele>60</ele>
        <time>2021-01-09T12:27:39Z</time>
      </trkpt>
      <trkpt lat="43.60965" lon="3.8382">
        <ele>60</ele>
        <time>2021-01-09T12:27:40Z</time>
      </trkpt>
      <trkpt lat="43.60967" lon="3.83813">
        <ele>60</ele>
        <time>2021-01-09T12:27:41Z</time>
      </trkpt>
      <trkpt lat="43.60968" lon="3.83807">
        <ele>60</ele>
        <time>2021-01-09T12:27:42Z</time>
      </trkpt>
      <trkpt lat="43.6097" lon="3.838">
        <ele>59.8</ele>
        <time>2021-01-09T12:27:43Z</time>
      </trkpt>
      <trkpt lat="43.60971" lon="3.83793">
        <ele>59.6</ele>
        <time>2021-01-09T12:27:44Z</time>
      </trkpt>
      <trkpt lat="43.60972" lon="3.83786">
        <ele>59.3</ele>
        <time>2021-01-09T12:27:45Z</time>
      </trkpt>
      <trkpt lat="43.60974" lon="3.83779">
        <ele>59.1</ele>
        <time>2021-01-09T12:27:46Z</time>
      </trkpt>
      <trkpt lat="43.60975" lon="3.83773">
        <ele>59.3</ele>
        <time>2021-01-09T12:27:47Z</time>
      </trkpt>
      <trkpt lat="43.60976" lon="3.83768">
        <ele>61</ele>
        <time>2021-01-09T12:27:48Z</time>
      </trkpt>
      <trkpt lat="43.60976" lon="3.83762">
        <ele>59.6</ele>
        <time>2021-01-09T12:27:49Z</time>
      </trkpt>
      <trkpt lat="43.60975" lon="3.83756">
        <ele>59.8</ele>
        <time>2021-01-09T12:27:50Z</time>
      </trkpt>
      <trkpt lat="43.60976" lon="3.83751">
        <ele>60</ele>
        <time>2021-01-09T12:27:51Z</time>
      </trkpt>
      <trkpt lat="43.60977" lon="3.83745">
        <ele>60</ele>
        <time>2021-01-09T12:27:52Z</time>
      </trkpt>
      <trkpt lat="43.60978" lon="3.83739">
        <ele>60</ele>
        <time>2021-01-09T12:27:53Z</time>
      </trkpt>
      <trkpt lat="43.6098" lon="3.83734">
        <ele>60</ele>
        <time>2021-01-09T12:27:54Z</time>
      </trkpt>
      <trkpt lat="43.60982" lon="3.83727">
        <ele>60</ele>
        <time>2021-01-09T12:27:55Z</time>
      </trkpt>
      <trkpt lat="43.60984" lon="3.83721">
        <ele>60</ele>
        <time>2021-01-09T12:27:56Z</time>
      </trkpt>
      <trkpt lat="43.60985" lon="3.83714">
        <ele>60</ele>
        <time>2021-01-09T12:27:57Z</time>
      </trkpt>
      <trkpt lat="43.60987" lon="3.83708">
        <ele>61</ele>
        <time>2021-01-09T12:27:58Z</time>
      </trkpt>
      <trkpt lat="43.60988" lon="3.83701">
        <ele>60</ele>
        <time>2021-01-09T12:27:59Z</time>
      </trkpt>
      <trkpt lat="43.6099" lon="3.83694">
        <ele>60</ele>
        <time>2021-01-09T12:28:00Z</time>
      </trkpt>
      <trkpt lat="43.60992" lon="3.83688">
        <ele>60</ele>
        <time>2021-01-09T12:28:01Z</time>
      </trkpt>
      <trkpt lat="43.60993" lon="3.83682">
        <ele>60</ele>
        <time>2021-01-09T12:28:02Z</time>
      </trkpt>
      <trkpt lat="43.60995" lon="3.83675">
        <ele>60</ele>
        <time>2021-01-09T12:28:03Z</time>
      </trkpt>
      <trkpt lat="43.60996" lon="3.83668">
        <ele>60</ele>
        <time>2021-01-09T12:28:04Z</time>
      </trkpt>
      <trkpt lat="43.60998" lon="3.83661">
        <ele>60</ele>
        <time>2021-01-09T12:28:05Z</time>
      </trkpt>
      <trkpt lat="43.60999" lon="3.83655">
        <ele>60</ele>
        <time>2021-01-09T12:28:06Z</time>
      </trkpt>
      <trkpt lat="43.61001" lon="3.83648">
        <ele>60</ele>
        <time>2021-01-09T12:28:07Z</time>
      </trkpt>
      <trkpt lat="43.61002" lon="3.83641">
        <ele>60</ele>
        <time>2021-01-09T12:28:08Z</time>
      </trkpt>
      <trkpt lat="43.61003" lon="3.83635">
        <ele>60</ele>
        <time>2021-01-09T12:28:09Z</time>
      </trkpt>
      <trkpt lat="43.61005" lon="3.83628">
        <ele>60</ele>
        <time>2021-01-09T12:28:10Z</time>
      </trkpt>
      <trkpt lat="43.61006" lon="3.83622">
        <ele>60</ele>
        <time>2021-01-09T12:28:11Z</time>
      </trkpt>
      <trkpt lat="43.61008" lon="3.83615">
        <ele>60</ele>
        <time>2021-01-09T12:28:12Z</time>
      </trkpt>
      <trkpt lat="43.61009" lon="3.83609">
        <ele>60</ele>
        <time>2021-01-09T12:28:13Z</time>
      </trkpt>
      <trkpt lat="43.6101" lon="3.83603">
        <ele>60</ele>
        <time>2021-01-09T12:28:14Z</time>
      </trkpt>
      <trkpt lat="43.61011" lon="3.83597">
        <ele>60</ele>
        <time>2021-01-09T12:28:15Z</time>
      </trkpt>
      <trkpt lat="43.61013" lon="3.83591">
        <ele>60</ele>
        <time>2021-01-09T12:28:16Z</time>
      </trkpt>
      <trkpt lat="43.61014" lon="3.83585">
        <ele>60</ele>
        <time>2021-01-09T12:28:17Z</time>
      </trkpt>
      <trkpt lat="43.61015" lon="3.8358">
        <ele>60</ele>
        <time>2021-01-09T12:28:18Z</time>
      </trkpt>
      <trkpt lat="43.61017" lon="3.83573">
        <ele>60</ele>
        <time>2021-01-09T12:28:19Z</time>
      </trkpt>
      <trkpt lat="43.61018" lon="3.83566">
        <ele>60</ele>
        <time>2021-01-09T12:28:20Z</time>
      </trkpt>
      <trkpt lat="43.61019" lon="3.83559">
        <ele>60</ele>
        <time>2021-01-09T12:28:21Z</time>
      </trkpt>
      <trkpt lat="43.61021" lon="3.83552">
        <ele>60</ele>
        <time>2021-01-09T12:28:22Z</time>
      </trkpt>
      <trkpt lat="43.61022" lon="3.83545">
        <ele>60.1</ele>
        <time>2021-01-09T12:28:23Z</time>
      </trkpt>
      <trkpt lat="43.61023" lon="3.83537">
        <ele>60.1</ele>
        <time>2021-01-09T12:28:24Z</time>
      </trkpt>
      <trkpt lat="43.61024" lon="3.8353">
        <ele>60.1</ele>
        <time>2021-01-09T12:28:25Z</time>
      </trkpt>
      <trkpt lat="43.61026" lon="3.83523">
        <ele>60.1</ele>
        <time>2021-01-09T12:28:26Z</time>
      </trkpt>
      <trkpt lat="43.61027" lon="3.83516">
        <ele>60</ele>
        <time>2021-01-09T12:28:27Z</time>
      </trkpt>
      <trkpt lat="43.6103" lon="3.83502">
        <ele>61</ele>
        <time>2021-01-09T12:28:28Z</time>
      </trkpt>
      <trkpt lat="43.61031" lon="3.83496">
        <ele>60</ele>
        <time>2021-01-09T12:28:29Z</time>
      </trkpt>
      <trkpt lat="43.61032" lon="3.83489">
        <ele>60</ele>
        <time>2021-01-09T12:28:30Z</time>
      </trkpt>
      <trkpt lat="43.61033" lon="3.83483">
        <ele>60</ele>
        <time>2021-01-09T12:28:31Z</time>
      </trkpt>
      <trkpt lat="43.61034" lon="3.83477">
        <ele>60</ele>
        <time>2021-01-09T12:28:32Z</time>
      </trkpt>
      <trkpt lat="43.61036" lon="3.8347">
        <ele>60</ele>
        <time>2021-01-09T12:28:33Z</time>
      </trkpt>
      <trkpt lat="43.61037" lon="3.83464">
        <ele>60</ele>
        <time>2021-01-09T12:28:34Z</time>
      </trkpt>
      <trkpt lat="43.61038" lon="3.83459">
        <ele>60</ele>
        <time>2021-01-09T12:28:35Z</time>
      </trkpt>
      <trkpt lat="43.61039" lon="3.83453">
        <ele>60</ele>
        <time>2021-01-09T12:28:37Z</time>
      </trkpt>
      <trkpt lat="43.61042" lon="3.83449">
        <ele>62</ele>
        <time>2021-01-09T12:28:38Z</time>
      </trkpt>
      <trkpt lat="43.61047" lon="3.83447">
        <ele>60</ele>
        <time>2021-01-09T12:28:39Z</time>
      </trkpt>
      <trkpt lat="43.61051" lon="3.83445">
        <ele>60</ele>
        <time>2021-01-09T12:28:40Z</time>
      </trkpt>
      <trkpt lat="43.61055" lon="3.83442">
        <ele>60</ele>
        <time>2021-01-09T12:28:41Z</time>
      </trkpt>
      <trkpt lat="43.61057" lon="3.83436">
        <ele>60.1</ele>
        <time>2021-01-09T12:28:42Z</time>
      </trkpt>
      <trkpt lat="43.61059" lon="3.8343">
        <ele>60.1</ele>
        <time>2021-01-09T12:28:43Z</time>
      </trkpt>
      <trkpt lat="43.6106" lon="3.83424">
        <ele>60.2</ele>
        <time>2021-01-09T12:28:44Z</time>
      </trkpt>
      <trkpt lat="43.61061" lon="3.83418">
        <ele>60.2</ele>
        <time>2021-01-09T12:28:45Z</time>
      </trkpt>
      <trkpt lat="43.61063" lon="3.83411">
        <ele>60.3</ele>
        <time>2021-01-09T12:28:46Z</time>
      </trkpt>
      <trkpt lat="43.61064" lon="3.83405">
        <ele>60.3</ele>
        <time>2021-01-09T12:28:47Z</time>
      </trkpt>
      <trkpt lat="43.61066" lon="3.83399">
        <ele>63</ele>
        <time>2021-01-09T12:28:48Z</time>
      </trkpt>
      <trkpt lat="43.61067" lon="3.83393">
        <ele>60.4</ele>
        <time>2021-01-09T12:28:49Z</time>
      </trkpt>
      <trkpt lat="43.6107" lon="3.83386">
        <ele>60.5</ele>
        <time>2021-01-09T12:28:50Z</time>
      </trkpt>
      <trkpt lat="43.61072" lon="3.8338">
        <ele>60.6</ele>
        <time>2021-01-09T12:28:51Z</time>
      </trkpt>
      <trkpt lat="43.61073" lon="3.83374">
        <ele>60.6</ele>
        <time>2021-01-09T12:28:52Z</time>
      </trkpt>
      <trkpt lat="43.61075" lon="3.83368">
        <ele>60.7</ele>
        <time>2021-01-09T12:28:53Z</time>
      </trkpt>
      <trkpt lat="43.61077" lon="3.83362">
        <ele>60.8</ele>
        <time>2021-01-09T12:28:54Z</time>
      </trkpt>
      <trkpt lat="43.6108" lon="3.83357">
        <ele>60.9</ele>
        <time>2021-01-09T12:28:55Z</time>
      </trkpt>
      <trkpt lat="43.61083" lon="3.83353">
        <ele>61</ele>
        <time>2021-01-09T12:28:56Z</time>
      </trkpt>
      <trkpt lat="43.61086" lon="3.83348">
        <ele>61.1</ele>
        <time>2021-01-09T12:28:57Z</time>
      </trkpt>
      <trkpt lat="43.61088" lon="3.83343">
        <ele>63</ele>
        <time>2021-01-09T12:28:58Z</time>
      </trkpt>
      <trkpt lat="43.6109" lon="3.83337">
        <ele>61.2</ele>
        <time>2021-01-09T12:28:59Z</time>
      </trkpt>
      <trkpt lat="43.61091" lon="3.83331">
        <ele>61.3</ele>
        <time>2021-01-09T12:29:00Z</time>
      </trkpt>
      <trkpt lat="43.61093" lon="3.83325">
        <ele>61.5</ele>
        <time>2021-01-09T12:29:01Z</time>
      </trkpt>
      <trkpt lat="43.61095" lon="3.83319">
        <ele>61.6</ele>
        <time>2021-01-09T12:29:02Z</time>
      </trkpt>
      <trkpt lat="43.61096" lon="3.83312">
        <ele>61.8</ele>
        <time>2021-01-09T12:29:03Z</time>
      </trkpt>
      <trkpt lat="43.61098" lon="3.83305">
        <ele>62</ele>
        <time>2021-01-09T12:29:04Z</time>
      </trkpt>
      <trkpt lat="43.611" lon="3.83299">
        <ele>61.8</ele>
        <time>2021-01-09T12:29:05Z</time>
      </trkpt>
      <trkpt lat="43.61102" lon="3.83292">
        <ele>61.5</ele>
        <time>2021-01-09T12:29:06Z</time>
      </trkpt>
      <trkpt lat="43.61103" lon="3.83285">
        <ele>61.2</ele>
        <time>2021-01-09T12:29:07Z</time>
      </trkpt>
      <trkpt lat="43.61105" lon="3.83278">
        <ele>63</ele>
        <time>2021-01-09T12:29:08Z</time>
      </trkpt>
      <trkpt lat="43.61107" lon="3.8327">
        <ele>60.9</ele>
        <time>2021-01-09T12:29:09Z</time>
      </trkpt>
      <trkpt lat="43.61109" lon="3.83263">
        <ele>60.9</ele>
        <time>2021-01-09T12:29:10Z</time>
      </trkpt>
      <trkpt lat="43.6111" lon="3.83256">
        <ele>61</ele>
        <time>2021-01-09T12:29:11Z</time>
      </trkpt>
      <trkpt lat="43.61113" lon="3.83248">
        <ele>61</ele>
        <time>2021-01-09T12:29:12Z</time>
      </trkpt>
      <trkpt lat="43.61115" lon="3.8324">
        <ele>60.8</ele>
        <time>2021-01-09T12:29:13Z</time>
      </trkpt>
      <trkpt lat="43.61117" lon="3.83233">
        <ele>60.6</ele>
        <time>2021-01-09T12:29:14Z</time>
      </trkpt>
      <trkpt lat="43.61119" lon="3.83225">
        <ele>60.4</ele>
        <time>2021-01-09T12:29:15Z</time>
      </trkpt>
      <trkpt lat="43.61121" lon="3.83217">
        <ele>60.4</ele>
        <time>2021-01-09T12:29:16Z</time>
      </trkpt>
      <trkpt lat="43.61123" lon="3.83209">
        <ele>60.4</ele>
        <time>2021-01-09T12:29:17Z</time>
      </trkpt>
      <trkpt lat="43.61124" lon="3.83201">
        <ele>65</ele>
        <time>2021-01-09T12:29:18Z</time>
      </trkpt>
      <trkpt lat="43.61126" lon="3.83193">
        <ele>60.5</ele>
        <time>2021-01-09T12:29:19Z</time>
      </trkpt>
      <trkpt lat="43.61128" lon="3.83186">
        <ele>60.4</ele>
        <time>2021-01-09T12:29:20Z</time>
      </trkpt>
      <trkpt lat="43.6113" lon="3.83178">
        <ele>60.1</ele>
        <time>2021-01-09T12:29:21Z</time>
      </trkpt>
      <trkpt lat="43.61132" lon="3.8317">
        <ele>59.6</ele>
        <time>2021-01-09T12:29:22Z</time>
      </trkpt>
      <trkpt lat="43.61134" lon="3.83162">
        <ele>59.3</ele>
        <time>2021-01-09T12:29:23Z</time>
      </trkpt>
      <trkpt lat="43.61135" lon="3.83154">
        <ele>59.2</ele>
        <time>2021-01-09T12:29:24Z</time>
      </trkpt>
      <trkpt lat="43.61137" lon="3.83147">
        <ele>59.1</ele>
        <time>2021-01-09T12:29:25Z</time>
      </trkpt>
      <trkpt lat="43.61139" lon="3.83139">
        <ele>59</ele>
        <time>2021-01-09T12:29:26Z</time>
      </trkpt>
      <trkpt lat="43.61141" lon="3.83131">
        <ele>59.1</ele>
        <time>2021-01-09T12:29:27Z</time>
      </trkpt>
      <trkpt lat="43.61144" lon="3.83122">
        <ele>65</ele>
        <time>2021-01-09T12:29:28Z</time>
      </trkpt>
      <trkpt lat="43.61146" lon="3.83114">
        <ele>59</ele>
        <time>2021-01-09T12:29:29Z</time>
      </trkpt>
      <trkpt lat="43.61148" lon="3.83105">
        <ele>59</ele>
        <time>2021-01-09T12:29:30Z</time>
      </trkpt>
      <trkpt lat="43.6115" lon="3.83097">
        <ele>59</ele>
        <time>2021-01-09T12:29:31Z</time>
      </trkpt>
      <trkpt lat="43.61152" lon="3.83088">
        <ele>59</ele>
        <time>2021-01-09T12:29:32Z</time>
      </trkpt>
      <trkpt lat="43.61154" lon="3.83079">
        <ele>58.9</ele>
        <time>2021-01-09T12:29:33Z</time>
      </trkpt>
      <trkpt lat="43.61156" lon="3.83071">
        <ele>58.7</ele>
        <time>2021-01-09T12:29:34Z</time>
      </trkpt>
      <trkpt lat="43.61158" lon="3.83062">
        <ele>58.5</ele>
        <time>2021-01-09T12:29:35Z</time>
      </trkpt>
      <trkpt lat="43.6116" lon="3.83054">
        <ele>58.2</ele>
        <time>2021-01-09T12:29:36Z</time>
      </trkpt>
      <trkpt lat="43.61163" lon="3.83045">
        <ele>57.8</ele>
        <time>2021-01-09T12:29:37Z</time>
      </trkpt>
      <trkpt lat="43.61165" lon="3.83037">
        <ele>64</ele>
        <time>2021-01-09T12:29:38Z</time>
      </trkpt>
      <trkpt lat="43.61168" lon="3.83029">
        <ele>57.1</ele>
        <time>2021-01-09T12:29:39Z</time>
      </trkpt>
      <trkpt lat="43.6117" lon="3.83021">
        <ele>57.3</ele>
        <time>2021-01-09T12:29:40Z</time>
      </trkpt>
      <trkpt lat="43.61172" lon="3.83013">
        <ele>57.5</ele>
        <time>2021-01-09T12:29:41Z</time>
      </trkpt>
      <trkpt lat="43.61175" lon="3.83005">
        <ele>57.6</ele>
        <time>2021-01-09T12:29:42Z</time>
      </trkpt>
      <trkpt lat="43.61178" lon="3.82997">
        <ele>57.5</ele>
        <time>2021-01-09T12:29:43Z</time>
      </trkpt>
      <trkpt lat="43.61181" lon="3.8299">
        <ele>57.3</ele>
        <time>2021-01-09T12:29:44Z</time>
      </trkpt>
      <trkpt lat="43.61185" lon="3.82983">
        <ele>57.1</ele>
        <time>2021-01-09T12:29:45Z</time>
      </trkpt>
      <trkpt lat="43.61187" lon="3.82975">
        <ele>57</ele>
        <time>2021-01-09T12:29:46Z</time>
      </trkpt>
      <trkpt lat="43.61189" lon="3.82966">
        <ele>57</ele>
        <time>2021-01-09T12:29:47Z</time>
      </trkpt>
      <trkpt lat="43.61189" lon="3.82957">
        <ele>57</ele>
        <time>2021-01-09T12:29:48Z</time>
      </trkpt>
      <trkpt lat="43.61188" lon="3.82949">
        <ele>62</ele>
        <time>2021-01-09T12:29:49Z</time>
      </trkpt>
      <trkpt lat="43.61187" lon="3.8294">
        <ele>57</ele>
        <time>2021-01-09T12:29:50Z</time>
      </trkpt>
      <trkpt lat="43.61186" lon="3.82931">
        <ele>57</ele>
        <time>2021-01-09T12:29:51Z</time>
      </trkpt>
      <trkpt lat="43.61184" lon="3.82923">
        <ele>57</ele>
        <time>2021-01-09T12:29:52Z</time>
      </trkpt>
      <trkpt lat="43.61183" lon="3.82915">
        <ele>57</ele>
        <time>2021-01-09T12:29:53Z</time>
      </trkpt>
      <trkpt lat="43.61181" lon="3.82907">
        <ele>56.8</ele>
        <time>2021-01-09T12:29:54Z</time>
      </trkpt>
      <trkpt lat="43.61179" lon="3.82899">
        <ele>56.7</ele>
        <time>2021-01-09T12:29:55Z</time>
      </trkpt>
      <trkpt lat="43.61177" lon="3.82893">
        <ele>56.7</ele>
        <time>2021-01-09T12:29:56Z</time>
      </trkpt>
      <trkpt lat="43.61176" lon="3.8289">
        <ele>56.7</ele>
        <time>2021-01-09T12:29:57Z</time>
      </trkpt>
      <trkpt lat="43.61176" lon="3.82886">
        <ele>56.7</ele>
        <time>2021-01-09T12:29:59Z</time>
      </trkpt>
      <trkpt lat="43.61176" lon="3.82883">
        <ele>56.7</ele>
        <time>2021-01-09T12:30:02Z</time>
      </trkpt>
      <trkpt lat="43.61175" lon="3.82878">
        <ele>56.7</ele>
        <time>2021-01-09T12:30:04Z</time>
      </trkpt>
      <trkpt lat="43.61174" lon="3.82874">
        <ele>56.7</ele>
        <time>2021-01-09T12:30:05Z</time>
      </trkpt>
      <trkpt lat="43.61172" lon="3.82869">
        <ele>56.8</ele>
        <time>2021-01-09T12:30:06Z</time>
      </trkpt>
      <trkpt lat="43.61171" lon="3.82864">
        <ele>56.8</ele>
        <time>2021-01-09T12:30:07Z</time>
      </trkpt>
      <trkpt lat="43.61169" lon="3.82858">
        <ele>61</ele>
        <time>2021-01-09T12:30:08Z</time>
      </trkpt>
      <trkpt lat="43.61168" lon="3.82852">
        <ele>56.6</ele>
        <time>2021-01-09T12:30:09Z</time>
      </trkpt>
      <trkpt lat="43.61166" lon="3.82846">
        <ele>56.5</ele>
        <time>2021-01-09T12:30:10Z</time>
      </trkpt>
      <trkpt lat="43.61165" lon="3.82839">
        <ele>56.3</ele>
        <time>2021-01-09T12:30:11Z</time>
      </trkpt>
      <trkpt lat="43.61164" lon="3.82833">
        <ele>56.1</ele>
        <time>2021-01-09T12:30:12Z</time>
      </trkpt>
      <trkpt lat="43.61162" lon="3.82827">
        <ele>56.2</ele>
        <time>2021-01-09T12:30:13Z</time>
      </trkpt>
      <trkpt lat="43.61161" lon="3.82821">
        <ele>56.2</ele>
        <time>2021-01-09T12:30:14Z</time>
      </trkpt>
      <trkpt lat="43.6116" lon="3.82814">
        <ele>56.2</ele>
        <time>2021-01-09T12:30:15Z</time>
      </trkpt>
      <trkpt lat="43.6116" lon="3.82807">
        <ele>56.2</ele>
        <time>2021-01-09T12:30:16Z</time>
      </trkpt>
      <trkpt lat="43.61162" lon="3.828">
        <ele>56</ele>
        <time>2021-01-09T12:30:17Z</time>
      </trkpt>
      <trkpt lat="43.61163" lon="3.82793">
        <ele>61</ele>
        <time>2021-01-09T12:30:18Z</time>
      </trkpt>
      <trkpt lat="43.61164" lon="3.82786">
        <ele>55.5</ele>
        <time>2021-01-09T12:30:19Z</time>
      </trkpt>
      <trkpt lat="43.61166" lon="3.82779">
        <ele>55.1</ele>
        <time>2021-01-09T12:30:20Z</time>
      </trkpt>
      <trkpt lat="43.61168" lon="3.82772">
        <ele>55.2</ele>
        <time>2021-01-09T12:30:21Z</time>
      </trkpt>
      <trkpt lat="43.61171" lon="3.82767">
        <ele>55.3</ele>
        <time>2021-01-09T12:30:22Z</time>
      </trkpt>
      <trkpt lat="43.61173" lon="3.82761">
        <ele>55.5</ele>
        <time>2021-01-09T12:30:23Z</time>
      </trkpt>
      <trkpt lat="43.61173" lon="3.82756">
        <ele>55.6</ele>
        <time>2021-01-09T12:30:24Z</time>
      </trkpt>
      <trkpt lat="43.61172" lon="3.82754">
        <ele>55.7</ele>
        <time>2021-01-09T12:30:25Z</time>
      </trkpt>
      <trkpt lat="43.61172" lon="3.82744">
        <ele>60</ele>
        <time>2021-01-09T12:32:31Z</time>
      </trkpt>
      <trkpt lat="43.61173" lon="3.82741">
        <ele>55.4</ele>
        <time>2021-01-09T12:32:32Z</time>
      </trkpt>
      <trkpt lat="43.61173" lon="3.82737">
        <ele>55.3</ele>
        <time>2021-01-09T12:32:33Z</time>
      </trkpt>
      <trkpt lat="43.61173" lon="3.82733">
        <ele>55.2</ele>
        <time>2021-01-09T12:32:34Z</time>
      </trkpt>
      <trkpt lat="43.61174" lon="3.82728">
        <ele>54.9</ele>
        <time>2021-01-09T12:32:35Z</time>
      </trkpt>
      <trkpt lat="43.61175" lon="3.82724">
        <ele>54.8</ele>
        <time>2021-01-09T12:32:36Z</time>
      </trkpt>
      <trkpt lat="43.61175" lon="3.8272">
        <ele>54.7</ele>
        <time>2021-01-09T12:32:37Z</time>
      </trkpt>
      <trkpt lat="43.61176" lon="3.82716">
        <ele>54.7</ele>
        <time>2021-01-09T12:32:38Z</time>
      </trkpt>
      <trkpt lat="43.61176" lon="3.82712">
        <ele>54.8</ele>
        <time>2021-01-09T12:32:39Z</time>
      </trkpt>
      <trkpt lat="43.61176" lon="3.82707">
        <ele>54.8</ele>
        <time>2021-01-09T12:32:40Z</time>
      </trkpt>
      <trkpt lat="43.61176" lon="3.82702">
        <ele>60</ele>
        <time>2021-01-09T12:32:41Z</time>
      </trkpt>
      <trkpt lat="43.61176" lon="3.82697">
        <ele>55</ele>
        <time>2021-01-09T12:32:42Z</time>
      </trkpt>
      <trkpt lat="43.61177" lon="3.82691">
        <ele>54.9</ele>
        <time>2021-01-09T12:32:43Z</time>
      </trkpt>
      <trkpt lat="43.61178" lon="3.82686">
        <ele>54.8</ele>
        <time>2021-01-09T12:32:44Z</time>
      </trkpt>
      <trkpt lat="43.61178" lon="3.82681">
        <ele>54.7</ele>
        <time>2021-01-09T12:32:45Z</time>
      </trkpt>
      <trkpt lat="43.61179" lon="3.82676">
        <ele>54.6</ele>
        <time>2021-01-09T12:32:46Z</time>
      </trkpt>
      <trkpt lat="43.6118" lon="3.82672">
        <ele>54.6</ele>
        <time>2021-01-09T12:32:47Z</time>
      </trkpt>
      <trkpt lat="43.61181" lon="3.82667">
        <ele>54.5</ele>
        <time>2021-01-09T12:32:48Z</time>
      </trkpt>
      <trkpt lat="43.61181" lon="3.82662">
        <ele>54.5</ele>
        <time>2021-01-09T12:32:49Z</time>
      </trkpt>
      <trkpt lat="43.61182" lon="3.82657">
        <ele>54.6</ele>
        <time>2021-01-09T12:32:50Z</time>
      </trkpt>
      <trkpt lat="43.61184" lon="3.82647">
        <ele>60</ele>
        <time>2021-01-09T12:32:51Z</time>
      </trkpt>
      <trkpt lat="43.61185" lon="3.82642">
        <ele>54.7</ele>
        <time>2021-01-09T12:32:52Z</time>
      </trkpt>
      <trkpt lat="43.61186" lon="3.82637">
        <ele>54.7</ele>
        <time>2021-01-09T12:32:53Z</time>
      </trkpt>
      <trkpt lat="43.61187" lon="3.82631">
        <ele>54.7</ele>
        <time>2021-01-09T12:32:54Z</time>
      </trkpt>
      <trkpt lat="43.61187" lon="3.82626">
        <ele>54.7</ele>
        <time>2021-01-09T12:32:55Z</time>
      </trkpt>
      <trkpt lat="43.61188" lon="3.8262">
        <ele>54.8</ele>
        <time>2021-01-09T12:32:56Z</time>
      </trkpt>
      <trkpt lat="43.61189" lon="3.82614">
        <ele>54.8</ele>
        <time>2021-01-09T12:32:57Z</time>
      </trkpt>
      <trkpt lat="43.6119" lon="3.82608">
        <ele>54.7</ele>
        <time>2021-01-09T12:32:58Z</time>
      </trkpt>
      <trkpt lat="43.6119" lon="3.82603">
        <ele>54.5</ele>
        <time>2021-01-09T12:32:59Z</time>
      </trkpt>
      <trkpt lat="43.61191" lon="3.82597">
        <ele>60</ele>
        <time>2021-01-09T12:33:01Z</time>
      </trkpt>
      <trkpt lat="43.61191" lon="3.82592">
        <ele>54.2</ele>
        <time>2021-01-09T12:33:02Z</time>
      </trkpt>
      <trkpt lat="43.61192" lon="3.82586">
        <ele>54</ele>
        <time>2021-01-09T12:33:03Z</time>
      </trkpt>
      <trkpt lat="43.61192" lon="3.82581">
        <ele>53.8</ele>
        <time>2021-01-09T12:33:04Z</time>
      </trkpt>
      <trkpt lat="43.61193" lon="3.82575">
        <ele>53.7</ele>
        <time>2021-01-09T12:33:05Z</time>
      </trkpt>
      <trkpt lat="43.61194" lon="3.8257">
        <ele>53.5</ele>
        <time>2021-01-09T12:33:06Z</time>
      </trkpt>
      <trkpt lat="43.61195" lon="3.82564">
        <ele>53.4</ele>
        <time>2021-01-09T12:33:07Z</time>
      </trkpt>
      <trkpt lat="43.61196" lon="3.82559">
        <ele>53.3</ele>
        <time>2021-01-09T12:33:08Z</time>
      </trkpt>
      <trkpt lat="43.61198" lon="3.82554">
        <ele>53.3</ele>
        <time>2021-01-09T12:33:09Z</time>
      </trkpt>
      <trkpt lat="43.61199" lon="3.8255">
        <ele>53.1</ele>
        <time>2021-01-09T12:33:10Z</time>
      </trkpt>
      <trkpt lat="43.61201" lon="3.82547">
        <ele>59</ele>
        <time>2021-01-09T12:33:11Z</time>
      </trkpt>
      <trkpt lat="43.61204" lon="3.82544">
        <ele>53.1</ele>
        <time>2021-01-09T12:33:12Z</time>
      </trkpt>
      <trkpt lat="43.61206" lon="3.82542">
        <ele>53.1</ele>
        <time>2021-01-09T12:33:13Z</time>
      </trkpt>
      <trkpt lat="43.61209" lon="3.82541">
        <ele>53.2</ele>
        <time>2021-01-09T12:33:14Z</time>
      </trkpt>
      <trkpt lat="43.61211" lon="3.82539">
        <ele>53.2</ele>
        <time>2021-01-09T12:33:15Z</time>
      </trkpt>
      <trkpt lat="43.61213" lon="3.82538">
        <ele>53.3</ele>
        <time>2021-01-09T12:33:16Z</time>
      </trkpt>
      <trkpt lat="43.61216" lon="3.82536">
        <ele>53.4</ele>
        <time>2021-01-09T12:33:17Z</time>
      </trkpt>
      <trkpt lat="43.61218" lon="3.82535">
        <ele>53.4</ele>
        <time>2021-01-09T12:33:18Z</time>
      </trkpt>
      <trkpt lat="43.61221" lon="3.82534">
        <ele>53.6</ele>
        <time>2021-01-09T12:33:19Z</time>
      </trkpt>
      <trkpt lat="43.61224" lon="3.82532">
        <ele>53.4</ele>
        <time>2021-01-09T12:33:20Z</time>
      </trkpt>
      <trkpt lat="43.61227" lon="3.8253">
        <ele>58</ele>
        <time>2021-01-09T12:33:21Z</time>
      </trkpt>
      <trkpt lat="43.6123" lon="3.82528">
        <ele>53</ele>
        <time>2021-01-09T12:33:22Z</time>
      </trkpt>
      <trkpt lat="43.61233" lon="3.82526">
        <ele>52.7</ele>
        <time>2021-01-09T12:33:23Z</time>
      </trkpt>
      <trkpt lat="43.61236" lon="3.82524">
        <ele>52.5</ele>
        <time>2021-01-09T12:33:24Z</time>
      </trkpt>
      <trkpt lat="43.61239" lon="3.82522">
        <ele>52.2</ele>
        <time>2021-01-09T12:33:25Z</time>
      </trkpt>
      <trkpt lat="43.61242" lon="3.8252">
        <ele>51.9</ele>
        <time>2021-01-09T12:33:26Z</time>
      </trkpt>
      <trkpt lat="43.61246" lon="3.82518">
        <ele>51.6</ele>
        <time>2021-01-09T12:33:27Z</time>
      </trkpt>
      <trkpt lat="43.6125" lon="3.82516">
        <ele>51.3</ele>
        <time>2021-01-09T12:33:28Z</time>
      </trkpt>
      <trkpt lat="43.61254" lon="3.82514">
        <ele>51.2</ele>
        <time>2021-01-09T12:33:29Z</time>
      </trkpt>
      <trkpt lat="43.61259" lon="3.82511">
        <ele>51.2</ele>
        <time>2021-01-09T12:33:30Z</time>
      </trkpt>
      <trkpt lat="43.61262" lon="3.82509">
        <ele>58</ele>
        <time>2021-01-09T12:33:31Z</time>
      </trkpt>
      <trkpt lat="43.61266" lon="3.82506">
        <ele>51.2</ele>
        <time>2021-01-09T12:33:32Z</time>
      </trkpt>
      <trkpt lat="43.6127" lon="3.82504">
        <ele>51.4</ele>
        <time>2021-01-09T12:33:33Z</time>
      </trkpt>
      <trkpt lat="43.61274" lon="3.82501">
        <ele>51.6</ele>
        <time>2021-01-09T12:33:34Z</time>
      </trkpt>
      <trkpt lat="43.61278" lon="3.82498">
        <ele>51.6</ele>
        <time>2021-01-09T12:33:35Z</time>
      </trkpt>
      <trkpt lat="43.61282" lon="3.82494">
        <ele>50.7</ele>
        <time>2021-01-09T12:33:36Z</time>
      </trkpt>
      <trkpt lat="43.61285" lon="3.8249">
        <ele>50.1</ele>
        <time>2021-01-09T12:33:37Z</time>
      </trkpt>
      <trkpt lat="43.61288" lon="3.82486">
        <ele>49.7</ele>
        <time>2021-01-09T12:33:38Z</time>
      </trkpt>
      <trkpt lat="43.61291" lon="3.82481">
        <ele>49.4</ele>
        <time>2021-01-09T12:33:39Z</time>
      </trkpt>
      <trkpt lat="43.61293" lon="3.82476">
        <ele>49.1</ele>
        <time>2021-01-09T12:33:40Z</time>
      </trkpt>
      <trkpt lat="43.61296" lon="3.82471">
        <ele>56</ele>
        <time>2021-01-09T12:33:41Z</time>
      </trkpt>
      <trkpt lat="43.61298" lon="3.82466">
        <ele>49.5</ele>
        <time>2021-01-09T12:33:42Z</time>
      </trkpt>
      <trkpt lat="43.613" lon="3.82462">
        <ele>49.9</ele>
        <time>2021-01-09T12:33:43Z</time>
      </trkpt>
      <trkpt lat="43.61302" lon="3.82458">
        <ele>50.2</ele>
        <time>2021-01-09T12:33:44Z</time>
      </trkpt>
      <trkpt lat="43.61304" lon="3.82454">
        <ele>50.6</ele>
        <time>2021-01-09T12:33:45Z</time>
      </trkpt>
      <trkpt lat="43.61305" lon="3.82449">
        <ele>50.9</ele>
        <time>2021-01-09T12:33:46Z</time>
      </trkpt>
      <trkpt lat="43.61307" lon="3.82444">
        <ele>50.9</ele>
        <time>2021-01-09T12:33:47Z</time>
      </trkpt>
      <trkpt lat="43.61308" lon="3.82439">
        <ele>50.6</ele>
        <time>2021-01-09T12:33:48Z</time>
      </trkpt>
      <trkpt lat="43.61309" lon="3.82434">
        <ele>50.3</ele>
        <time>2021-01-09T12:33:49Z</time>
      </trkpt>
      <trkpt lat="43.61309" lon="3.82429">
        <ele>50</ele>
        <time>2021-01-09T12:33:50Z</time>
      </trkpt>
      <trkpt lat="43.6131" lon="3.82425">
        <ele>54</ele>
        <time>2021-01-09T12:33:51Z</time>
      </trkpt>
      <trkpt lat="43.61311" lon="3.82421">
        <ele>49.6</ele>
        <time>2021-01-09T12:33:52Z</time>
      </trkpt>
      <trkpt lat="43.61312" lon="3.82417">
        <ele>49.5</ele>
        <time>2021-01-09T12:33:53Z</time>
      </trkpt>
      <trkpt lat="43.61312" lon="3.82413">
        <ele>49.4</ele>
        <time>2021-01-09T12:33:54Z</time>
      </trkpt>
      <trkpt lat="43.61312" lon="3.82409">
        <ele>49.4</ele>
        <time>2021-01-09T12:33:55Z</time>
      </trkpt>
      <trkpt lat="43.61312" lon="3.82404">
        <ele>49.4</ele>
        <time>2021-01-09T12:33:56Z</time>
      </trkpt>
      <trkpt lat="43.61312" lon="3.82399">
        <ele>49.3</ele>
        <time>2021-01-09T12:33:57Z</time>
      </trkpt>
      <trkpt lat="43.61311" lon="3.82393">
        <ele>49.2</ele>
        <time>2021-01-09T12:33:58Z</time>
      </trkpt>
      <trkpt lat="43.6131" lon="3.82388">
        <ele>49.2</ele>
        <time>2021-01-09T12:33:59Z</time>
      </trkpt>
      <trkpt lat="43.61309" lon="3.82383">
        <ele>49.6</ele>
        <time>2021-01-09T12:34:00Z</time>
      </trkpt>
      <trkpt lat="43.61308" lon="3.82378">
        <ele>54</ele>
        <time>2021-01-09T12:34:01Z</time>
      </trkpt>
      <trkpt lat="43.61307" lon="3.82372">
        <ele>50.3</ele>
        <time>2021-01-09T12:34:02Z</time>
      </trkpt>
      <trkpt lat="43.61306" lon="3.82366">
        <ele>50.7</ele>
        <time>2021-01-09T12:34:03Z</time>
      </trkpt>
      <trkpt lat="43.61305" lon="3.82361">
        <ele>50.8</ele>
        <time>2021-01-09T12:34:04Z</time>
      </trkpt>
      <trkpt lat="43.61305" lon="3.82355">
        <ele>50.8</ele>
        <time>2021-01-09T12:34:05Z</time>
      </trkpt>
      <trkpt lat="43.61304" lon="3.8235">
        <ele>50.4</ele>
        <time>2021-01-09T12:34:06Z</time>
      </trkpt>
      <trkpt lat="43.61304" lon="3.82346">
        <ele>50.4</ele>
        <time>2021-01-09T12:34:07Z</time>
      </trkpt>
      <trkpt lat="43.61304" lon="3.82341">
        <ele>50.5</ele>
        <time>2021-01-09T12:34:08Z</time>
      </trkpt>
      <trkpt lat="43.61304" lon="3.82337">
        <ele>50.5</ele>
        <time>2021-01-09T12:34:09Z</time>
      </trkpt>
      <trkpt lat="43.61304" lon="3.82332">
        <ele>50.4</ele>
        <time>2021-01-09T12:34:10Z</time>
      </trkpt>
      <trkpt lat="43.61305" lon="3.82327">
        <ele>53</ele>
        <time>2021-01-09T12:34:11Z</time>
      </trkpt>
      <trkpt lat="43.61307" lon="3.82322">
        <ele>50</ele>
        <time>2021-01-09T12:34:12Z</time>
      </trkpt>
      <trkpt lat="43.61309" lon="3.82317">
        <ele>49.8</ele>
        <time>2021-01-09T12:34:13Z</time>
      </trkpt>
      <trkpt lat="43.61311" lon="3.82312">
        <ele>49.7</ele>
        <time>2021-01-09T12:34:14Z</time>
      </trkpt>
      <trkpt lat="43.61314" lon="3.82308">
        <ele>50</ele>
        <time>2021-01-09T12:34:15Z</time>
      </trkpt>
      <trkpt lat="43.61317" lon="3.82305">
        <ele>50.4</ele>
        <time>2021-01-09T12:34:16Z</time>
      </trkpt>
      <trkpt lat="43.6132" lon="3.82302">
        <ele>50.3</ele>
        <time>2021-01-09T12:34:17Z</time>
      </trkpt>
      <trkpt lat="43.61323" lon="3.823">
        <ele>50.5</ele>
        <time>2021-01-09T12:34:18Z</time>
      </trkpt>
      <trkpt lat="43.61326" lon="3.82298">
        <ele>50.7</ele>
        <time>2021-01-09T12:34:19Z</time>
      </trkpt>
      <trkpt lat="43.61329" lon="3.82296">
        <ele>50.8</ele>
        <time>2021-01-09T12:34:20Z</time>
      </trkpt>
      <trkpt lat="43.61331" lon="3.82294">
        <ele>54</ele>
        <time>2021-01-09T12:34:21Z</time>
      </trkpt>
      <trkpt lat="43.61334" lon="3.82292">
        <ele>50.6</ele>
        <time>2021-01-09T12:34:22Z</time>
      </trkpt>
      <trkpt lat="43.61337" lon="3.82289">
        <ele>49.9</ele>
        <time>2021-01-09T12:34:23Z</time>
      </trkpt>
      <trkpt lat="43.61341" lon="3.82285">
        <ele>49.1</ele>
        <time>2021-01-09T12:34:24Z</time>
      </trkpt>
      <trkpt lat="43.61345" lon="3.82282">
        <ele>48.6</ele>
        <time>2021-01-09T12:34:25Z</time>
      </trkpt>
      <trkpt lat="43.61349" lon="3.82278">
        <ele>48.2</ele>
        <time>2021-01-09T12:34:26Z</time>
      </trkpt>
      <trkpt lat="43.61353" lon="3.82275">
        <ele>47.8</ele>
        <time>2021-01-09T12:34:27Z</time>
      </trkpt>
      <trkpt lat="43.61358" lon="3.82272">
        <ele>47.6</ele>
        <time>2021-01-09T12:34:28Z</time>
      </trkpt>
      <trkpt lat="43.61362" lon="3.82269">
        <ele>47.1</ele>
        <time>2021-01-09T12:34:29Z</time>
      </trkpt>
      <trkpt lat="43.61366" lon="3.82266">
        <ele>46.4</ele>
        <time>2021-01-09T12:34:30Z</time>
      </trkpt>
      <trkpt lat="43.6137" lon="3.82264">
        <ele>53</ele>
        <time>2021-01-09T12:34:31Z</time>
      </trkpt>
      <trkpt lat="43.61376" lon="3.82262">
        <ele>45.7</ele>
        <time>2021-01-09T12:34:32Z</time>
      </trkpt>
      <trkpt lat="43.61381" lon="3.82261">
        <ele>45.7</ele>
        <time>2021-01-09T12:34:33Z</time>
      </trkpt>
      <trkpt lat="43.61386" lon="3.8226">
        <ele>45.7</ele>
        <time>2021-01-09T12:34:34Z</time>
      </trkpt>
      <trkpt lat="43.6139" lon="3.82258">
        <ele>45.6</ele>
        <time>2021-01-09T12:34:35Z</time>
      </trkpt>
      <trkpt lat="43.61394" lon="3.82256">
        <ele>45.4</ele>
        <time>2021-01-09T12:34:36Z</time>
      </trkpt>
      <trkpt lat="43.61399" lon="3.82252">
        <ele>45.1</ele>
        <time>2021-01-09T12:34:37Z</time>
      </trkpt>
      <trkpt lat="43.61403" lon="3.82248">
        <ele>44.9</ele>
        <time>2021-01-09T12:34:38Z</time>
      </trkpt>
      <trkpt lat="43.61408" lon="3.82244">
        <ele>44.6</ele>
        <time>2021-01-09T12:34:39Z</time>
      </trkpt>
      <trkpt lat="43.61413" lon="3.82241">
        <ele>44.4</ele>
        <time>2021-01-09T12:34:40Z</time>
      </trkpt>
      <trkpt lat="43.61417" lon="3.82238">
        <ele>52</ele>
        <time>2021-01-09T12:34:41Z</time>
      </trkpt>
      <trkpt lat="43.61421" lon="3.82235">
        <ele>43.9</ele>
        <time>2021-01-09T12:34:42Z</time>
      </trkpt>
      <trkpt lat="43.61424" lon="3.82232">
        <ele>43.7</ele>
        <time>2021-01-09T12:34:43Z</time>
      </trkpt>
      <trkpt lat="43.61428" lon="3.8223">
        <ele>43.6</ele>
        <time>2021-01-09T12:34:44Z</time>
      </trkpt>
      <trkpt lat="43.61431" lon="3.82228">
        <ele>43.4</ele>
        <time>2021-01-09T12:34:45Z</time>
      </trkpt>
      <trkpt lat="43.61435" lon="3.82225">
        <ele>43.2</ele>
        <time>2021-01-09T12:34:46Z</time>
      </trkpt>
      <trkpt lat="43.6144" lon="3.82223">
        <ele>43.1</ele>
        <time>2021-01-09T12:34:47Z</time>
      </trkpt>
      <trkpt lat="43.61446" lon="3.8222">
        <ele>43.1</ele>
        <time>2021-01-09T12:34:48Z</time>
      </trkpt>
      <trkpt lat="43.61452" lon="3.82216">
        <ele>43.2</ele>
        <time>2021-01-09T12:34:49Z</time>
      </trkpt>
      <trkpt lat="43.61457" lon="3.82214">
        <ele>43.3</ele>
        <time>2021-01-09T12:34:50Z</time>
      </trkpt>
      <trkpt lat="43.61463" lon="3.82212">
        <ele>50</ele>
        <time>2021-01-09T12:34:51Z</time>
      </trkpt>
      <trkpt lat="43.61468" lon="3.8221">
        <ele>43.5</ele>
        <time>2021-01-09T12:34:52Z</time>
      </trkpt>
      <trkpt lat="43.61473" lon="3.82208">
        <ele>43.5</ele>
        <time>2021-01-09T12:34:53Z</time>
      </trkpt>
      <trkpt lat="43.61477" lon="3.82207">
        <ele>43.5</ele>
        <time>2021-01-09T12:34:54Z</time>
      </trkpt>
      <trkpt lat="43.61482" lon="3.82206">
        <ele>43.6</ele>
        <time>2021-01-09T12:34:55Z</time>
      </trkpt>
      <trkpt lat="43.61486" lon="3.82206">
        <ele>43.7</ele>
        <time>2021-01-09T12:34:56Z</time>
      </trkpt>
      <trkpt lat="43.6149" lon="3.82206">
        <ele>43.8</ele>
        <time>2021-01-09T12:34:57Z</time>
      </trkpt>
      <trkpt lat="43.61494" lon="3.82206">
        <ele>43.9</ele>
        <time>2021-01-09T12:34:58Z</time>
      </trkpt>
      <trkpt lat="43.61497" lon="3.82206">
        <ele>43.9</ele>
        <time>2021-01-09T12:34:59Z</time>
      </trkpt>
      <trkpt lat="43.61501" lon="3.82206">
        <ele>44</ele>
        <time>2021-01-09T12:35:00Z</time>
      </trkpt>
      <trkpt lat="43.61504" lon="3.82206">
        <ele>50</ele>
        <time>2021-01-09T12:35:01Z</time>
      </trkpt>
      <trkpt lat="43.61507" lon="3.82206">
        <ele>44.1</ele>
        <time>2021-01-09T12:35:02Z</time>
      </trkpt>
      <trkpt lat="43.61509" lon="3.82205">
        <ele>44.1</ele>
        <time>2021-01-09T12:35:03Z</time>
      </trkpt>
      <trkpt lat="43.61512" lon="3.82204">
        <ele>44.1</ele>
        <time>2021-01-09T12:35:04Z</time>
      </trkpt>
      <trkpt lat="43.61513" lon="3.82202">
        <ele>44.1</ele>
        <time>2021-01-09T12:35:05Z</time>
      </trkpt>
      <trkpt lat="43.61515" lon="3.82199">
        <ele>44.1</ele>
        <time>2021-01-09T12:35:06Z</time>
      </trkpt>
      <trkpt lat="43.61516" lon="3.82196">
        <ele>44</ele>
        <time>2021-01-09T12:35:07Z</time>
      </trkpt>
      <trkpt lat="43.61516" lon="3.82193">
        <ele>43.9</ele>
        <time>2021-01-09T12:35:08Z</time>
      </trkpt>
      <trkpt lat="43.61517" lon="3.82189">
        <ele>43.8</ele>
        <time>2021-01-09T12:35:09Z</time>
      </trkpt>
      <trkpt lat="43.61518" lon="3.82184">
        <ele>43.6</ele>
        <time>2021-01-09T12:35:10Z</time>
      </trkpt>
      <trkpt lat="43.61518" lon="3.8218">
        <ele>49</ele>
        <time>2021-01-09T12:35:11Z</time>
      </trkpt>
      <trkpt lat="43.61518" lon="3.82176">
        <ele>43.3</ele>
        <time>2021-01-09T12:35:12Z</time>
      </trkpt>
      <trkpt lat="43.61518" lon="3.82171">
        <ele>43.2</ele>
        <time>2021-01-09T12:35:13Z</time>
      </trkpt>
      <trkpt lat="43.61518" lon="3.82165">
        <ele>43</ele>
        <time>2021-01-09T12:35:14Z</time>
      </trkpt>
      <trkpt lat="43.61519" lon="3.8216">
        <ele>43</ele>
        <time>2021-01-09T12:35:15Z</time>
      </trkpt>
      <trkpt lat="43.6152" lon="3.82154">
        <ele>42.9</ele>
        <time>2021-01-09T12:35:16Z</time>
      </trkpt>
      <trkpt lat="43.61521" lon="3.82149">
        <ele>42.8</ele>
        <time>2021-01-09T12:35:17Z</time>
      </trkpt>
      <trkpt lat="43.61521" lon="3.82143">
        <ele>42.8</ele>
        <time>2021-01-09T12:35:18Z</time>
      </trkpt>
      <trkpt lat="43.61521" lon="3.82137">
        <ele>42.8</ele>
        <time>2021-01-09T12:35:19Z</time>
      </trkpt>
      <trkpt lat="43.61521" lon="3.82132">
        <ele>42.9</ele>
        <time>2021-01-09T12:35:20Z</time>
      </trkpt>
      <trkpt lat="43.61522" lon="3.82127">
        <ele>49</ele>
        <time>2021-01-09T12:35:21Z</time>
      </trkpt>
      <trkpt lat="43.61523" lon="3.82122">
        <ele>42.8</ele>
        <time>2021-01-09T12:35:22Z</time>
      </trkpt>
      <trkpt lat="43.61524" lon="3.82117">
        <ele>42.7</ele>
        <time>2021-01-09T12:35:23Z</time>
      </trkpt>
      <trkpt lat="43.61524" lon="3.82112">
        <ele>42.8</ele>
        <time>2021-01-09T12:35:24Z</time>
      </trkpt>
      <trkpt lat="43.61525" lon="3.82106">
        <ele>42.5</ele>
        <time>2021-01-09T12:35:25Z</time>
      </trkpt>
      <trkpt lat="43.61525" lon="3.82101">
        <ele>42.5</ele>
        <time>2021-01-09T12:35:26Z</time>
      </trkpt>
      <trkpt lat="43.61526" lon="3.82095">
        <ele>42.3</ele>
        <time>2021-01-09T12:35:27Z</time>
      </trkpt>
      <trkpt lat="43.61527" lon="3.82088">
        <ele>42.1</ele>
        <time>2021-01-09T12:35:28Z</time>
      </trkpt>
      <trkpt lat="43.61527" lon="3.82081">
        <ele>42</ele>
        <time>2021-01-09T12:35:29Z</time>
      </trkpt>
      <trkpt lat="43.61528" lon="3.82075">
        <ele>41.7</ele>
        <time>2021-01-09T12:35:30Z</time>
      </trkpt>
      <trkpt lat="43.61528" lon="3.82069">
        <ele>48</ele>
        <time>2021-01-09T12:35:31Z</time>
      </trkpt>
      <trkpt lat="43.61528" lon="3.82062">
        <ele>41.2</ele>
        <time>2021-01-09T12:35:32Z</time>
      </trkpt>
      <trkpt lat="43.61529" lon="3.82056">
        <ele>41.1</ele>
        <time>2021-01-09T12:35:33Z</time>
      </trkpt>
      <trkpt lat="43.6153" lon="3.8205">
        <ele>40.9</ele>
        <time>2021-01-09T12:35:34Z</time>
      </trkpt>
      <trkpt lat="43.6153" lon="3.82043">
        <ele>40.6</ele>
        <time>2021-01-09T12:35:35Z</time>
      </trkpt>
      <trkpt lat="43.61531" lon="3.82037">
        <ele>40.4</ele>
        <time>2021-01-09T12:35:36Z</time>
      </trkpt>
      <trkpt lat="43.61531" lon="3.82031">
        <ele>40.1</ele>
        <time>2021-01-09T12:35:37Z</time>
      </trkpt>
      <trkpt lat="43.61531" lon="3.82025">
        <ele>39.9</ele>
        <time>2021-01-09T12:35:38Z</time>
      </trkpt>
      <trkpt lat="43.61532" lon="3.82018">
        <ele>39.6</ele>
        <time>2021-01-09T12:35:39Z</time>
      </trkpt>
      <trkpt lat="43.61534" lon="3.82012">
        <ele>39.4</ele>
        <time>2021-01-09T12:35:40Z</time>
      </trkpt>
      <trkpt lat="43.61535" lon="3.82006">
        <ele>45</ele>
        <time>2021-01-09T12:35:41Z</time>
      </trkpt>
      <trkpt lat="43.61537" lon="3.82001">
        <ele>39</ele>
        <time>2021-01-09T12:35:42Z</time>
      </trkpt>
      <trkpt lat="43.61537" lon="3.81995">
        <ele>38.8</ele>
        <time>2021-01-09T12:35:43Z</time>
      </trkpt>
      <trkpt lat="43.61538" lon="3.8199">
        <ele>38.5</ele>
        <time>2021-01-09T12:35:44Z</time>
      </trkpt>
      <trkpt lat="43.61539" lon="3.81984">
        <ele>38.3</ele>
        <time>2021-01-09T12:35:45Z</time>
      </trkpt>
      <trkpt lat="43.6154" lon="3.81978">
        <ele>38.1</ele>
        <time>2021-01-09T12:35:46Z</time>
      </trkpt>
      <trkpt lat="43.6154" lon="3.81973">
        <ele>37.9</ele>
        <time>2021-01-09T12:35:47Z</time>
      </trkpt>
      <trkpt lat="43.61541" lon="3.81967">
        <ele>37.7</ele>
        <time>2021-01-09T12:35:48Z</time>
      </trkpt>
      <trkpt lat="43.61542" lon="3.81961">
        <ele>37.4</ele>
        <time>2021-01-09T12:35:49Z</time>
      </trkpt>
      <trkpt lat="43.61543" lon="3.81955">
        <ele>37.2</ele>
        <time>2021-01-09T12:35:50Z</time>
      </trkpt>
      <trkpt lat="43.61545" lon="3.8195">
        <ele>43</ele>
        <time>2021-01-09T12:35:51Z</time>
      </trkpt>
      <trkpt lat="43.61546" lon="3.81944">
        <ele>37</ele>
        <time>2021-01-09T12:35:52Z</time>
      </trkpt>
      <trkpt lat="43.61547" lon="3.81939">
        <ele>37.1</ele>
        <time>2021-01-09T12:35:53Z</time>
      </trkpt>
      <trkpt lat="43.61549" lon="3.81933">
        <ele>37.3</ele>
        <time>2021-01-09T12:35:54Z</time>
      </trkpt>
      <trkpt lat="43.6155" lon="3.81927">
        <ele>37.4</ele>
        <time>2021-01-09T12:35:55Z</time>
      </trkpt>
      <trkpt lat="43.6155" lon="3.81922">
        <ele>37.4</ele>
        <time>2021-01-09T12:35:56Z</time>
      </trkpt>
      <trkpt lat="43.61551" lon="3.81918">
        <ele>37.5</ele>
        <time>2021-01-09T12:35:57Z</time>
      </trkpt>
      <trkpt lat="43.61551" lon="3.81912">
        <ele>37.5</ele>
        <time>2021-01-09T12:35:58Z</time>
      </trkpt>
      <trkpt lat="43.61552" lon="3.81907">
        <ele>37.6</ele>
        <time>2021-01-09T12:35:59Z</time>
      </trkpt>
      <trkpt lat="43.61552" lon="3.81901">
        <ele>37.5</ele>
        <time>2021-01-09T12:36:00Z</time>
      </trkpt>
      <trkpt lat="43.61553" lon="3.81895">
        <ele>42</ele>
        <time>2021-01-09T12:36:01Z</time>
      </trkpt>
      <trkpt lat="43.61553" lon="3.81889">
        <ele>37.6</ele>
        <time>2021-01-09T12:36:02Z</time>
      </trkpt>
      <trkpt lat="43.61553" lon="3.81883">
        <ele>37.4</ele>
        <time>2021-01-09T12:36:03Z</time>
      </trkpt>
      <trkpt lat="43.61553" lon="3.81876">
        <ele>37.2</ele>
        <time>2021-01-09T12:36:04Z</time>
      </trkpt>
      <trkpt lat="43.61553" lon="3.8187">
        <ele>37</ele>
        <time>2021-01-09T12:36:05Z</time>
      </trkpt>
      <trkpt lat="43.61552" lon="3.81864">
        <ele>36.7</ele>
        <time>2021-01-09T12:36:06Z</time>
      </trkpt>
      <trkpt lat="43.61551" lon="3.81858">
        <ele>36.6</ele>
        <time>2021-01-09T12:36:07Z</time>
      </trkpt>
      <trkpt lat="43.61549" lon="3.81853">
        <ele>36.6</ele>
        <time>2021-01-09T12:36:08Z</time>
      </trkpt>
      <trkpt lat="43.61547" lon="3.81847">
        <ele>36.6</ele>
        <time>2021-01-09T12:36:09Z</time>
      </trkpt>
      <trkpt lat="43.61546" lon="3.81842">
        <ele>36.7</ele>
        <time>2021-01-09T12:36:10Z</time>
      </trkpt>
      <trkpt lat="43.61543" lon="3.81836">
        <ele>41</ele>
        <time>2021-01-09T12:36:11Z</time>
      </trkpt>
      <trkpt lat="43.61542" lon="3.8183">
        <ele>36.6</ele>
        <time>2021-01-09T12:36:12Z</time>
      </trkpt>
      <trkpt lat="43.6154" lon="3.81824">
        <ele>36.5</ele>
        <time>2021-01-09T12:36:13Z</time>
      </trkpt>
      <trkpt lat="43.61538" lon="3.81818">
        <ele>36.6</ele>
        <time>2021-01-09T12:36:14Z</time>
      </trkpt>
      <trkpt lat="43.61536" lon="3.81812">
        <ele>36.7</ele>
        <time>2021-01-09T12:36:15Z</time>
      </trkpt>
      <trkpt lat="43.61534" lon="3.81806">
        <ele>37</ele>
        <time>2021-01-09T12:36:16Z</time>
      </trkpt>
      <trkpt lat="43.61533" lon="3.818">
        <ele>37.1</ele>
        <time>2021-01-09T12:36:17Z</time>
      </trkpt>
      <trkpt lat="43.61531" lon="3.81795">
        <ele>37.2</ele>
        <time>2021-01-09T12:36:18Z</time>
      </trkpt>
      <trkpt lat="43.6153" lon="3.8179">
        <ele>37.4</ele>
        <time>2021-01-09T12:36:19Z</time>
      </trkpt>
      <trkpt lat="43.61529" lon="3.81785">
        <ele>37.6</ele>
        <time>2021-01-09T12:36:20Z</time>
      </trkpt>
      <trkpt lat="43.61527" lon="3.81779">
        <ele>41</ele>
        <time>2021-01-09T12:36:21Z</time>
      </trkpt>
      <trkpt lat="43.61526" lon="3.81775">
        <ele>37.7</ele>
        <time>2021-01-09T12:36:22Z</time>
      </trkpt>
      <trkpt lat="43.61524" lon="3.81769">
        <ele>37.4</ele>
        <time>2021-01-09T12:36:23Z</time>
      </trkpt>
      <trkpt lat="43.61523" lon="3.81764">
        <ele>37.1</ele>
        <time>2021-01-09T12:36:24Z</time>
      </trkpt>
      <trkpt lat="43.61522" lon="3.81759">
        <ele>36.9</ele>
        <time>2021-01-09T12:36:25Z</time>
      </trkpt>
      <trkpt lat="43.61521" lon="3.81754">
        <ele>36.6</ele>
        <time>2021-01-09T12:36:26Z</time>
      </trkpt>
      <trkpt lat="43.6152" lon="3.81749">
        <ele>36.2</ele>
        <time>2021-01-09T12:36:27Z</time>
      </trkpt>
      <trkpt lat="43.61518" lon="3.81743">
        <ele>34.8</ele>
        <time>2021-01-09T12:36:28Z</time>
      </trkpt>
      <trkpt lat="43.61517" lon="3.81738">
        <ele>33.9</ele>
        <time>2021-01-09T12:36:29Z</time>
      </trkpt>
      <trkpt lat="43.61516" lon="3.81733">
        <ele>33.1</ele>
        <time>2021-01-09T12:36:30Z</time>
      </trkpt>
      <trkpt lat="43.61514" lon="3.81727">
        <ele>41</ele>
        <time>2021-01-09T12:36:31Z</time>
      </trkpt>
      <trkpt lat="43.61513" lon="3.81721">
        <ele>31.5</ele>
        <time>2021-01-09T12:36:32Z</time>
      </trkpt>
      <trkpt lat="43.61511" lon="3.81716">
        <ele>31.8</ele>
        <time>2021-01-09T12:36:33Z</time>
      </trkpt>
      <trkpt lat="43.6151" lon="3.8171">
        <ele>32.1</ele>
        <time>2021-01-09T12:36:34Z</time>
      </trkpt>
      <trkpt lat="43.61508" lon="3.81703">
        <ele>32.5</ele>
        <time>2021-01-09T12:36:35Z</time>
      </trkpt>
      <trkpt lat="43.61507" lon="3.81697">
        <ele>32.8</ele>
        <time>2021-01-09T12:36:36Z</time>
      </trkpt>
      <trkpt lat="43.61505" lon="3.81691">
        <ele>33.5</ele>
        <time>2021-01-09T12:36:37Z</time>
      </trkpt>
      <trkpt lat="43.61503" lon="3.81686">
        <ele>34.4</ele>
        <time>2021-01-09T12:36:38Z</time>
      </trkpt>
      <trkpt lat="43.61501" lon="3.81679">
        <ele>35.7</ele>
        <time>2021-01-09T12:36:39Z</time>
      </trkpt>
      <trkpt lat="43.61499" lon="3.81674">
        <ele>36.5</ele>
        <time>2021-01-09T12:36:40Z</time>
      </trkpt>
      <trkpt lat="43.61498" lon="3.81668">
        <ele>40</ele>
        <time>2021-01-09T12:36:41Z</time>
      </trkpt>
      <trkpt lat="43.61496" lon="3.81662">
        <ele>37.3</ele>
        <time>2021-01-09T12:36:42Z</time>
      </trkpt>
      <trkpt lat="43.61495" lon="3.81656">
        <ele>37.2</ele>
        <time>2021-01-09T12:36:43Z</time>
      </trkpt>
      <trkpt lat="43.61494" lon="3.8165">
        <ele>37</ele>
        <time>2021-01-09T12:36:44Z</time>
      </trkpt>
      <trkpt lat="43.61492" lon="3.81644">
        <ele>36.8</ele>
        <time>2021-01-09T12:36:45Z</time>
      </trkpt>
      <trkpt lat="43.61491" lon="3.81639">
        <ele>36.7</ele>
        <time>2021-01-09T12:36:46Z</time>
      </trkpt>
      <trkpt lat="43.6149" lon="3.81633">
        <ele>36.7</ele>
        <time>2021-01-09T12:36:47Z</time>
      </trkpt>
      <trkpt lat="43.61488" lon="3.81628">
        <ele>36.6</ele>
        <time>2021-01-09T12:36:48Z</time>
      </trkpt>
      <trkpt lat="43.61486" lon="3.81623">
        <ele>36.6</ele>
        <time>2021-01-09T12:36:49Z</time>
      </trkpt>
      <trkpt lat="43.61484" lon="3.81618">
        <ele>36.6</ele>
        <time>2021-01-09T12:36:50Z</time>
      </trkpt>
      <trkpt lat="43.61483" lon="3.81612">
        <ele>40</ele>
        <time>2021-01-09T12:36:51Z</time>
      </trkpt>
      <trkpt lat="43.61481" lon="3.81607">
        <ele>36.8</ele>
        <time>2021-01-09T12:36:52Z</time>
      </trkpt>
      <trkpt lat="43.6148" lon="3.81602">
        <ele>37</ele>
        <time>2021-01-09T12:36:53Z</time>
      </trkpt>
      <trkpt lat="43.61479" lon="3.81597">
        <ele>37.3</ele>
        <time>2021-01-09T12:36:54Z</time>
      </trkpt>
      <trkpt lat="43.61478" lon="3.81592">
        <ele>37.5</ele>
        <time>2021-01-09T12:36:55Z</time>
      </trkpt>
      <trkpt lat="43.61477" lon="3.81588">
        <ele>37.7</ele>
        <time>2021-01-09T12:36:56Z</time>
      </trkpt>
      <trkpt lat="43.61475" lon="3.81584">
        <ele>38</ele>
        <time>2021-01-09T12:36:57Z</time>
      </trkpt>
      <trkpt lat="43.61474" lon="3.81581">
        <ele>38</ele>
        <time>2021-01-09T12:36:58Z</time>
      </trkpt>
      <trkpt lat="43.61474" lon="3.81578">
        <ele>38</ele>
        <time>2021-01-09T12:36:59Z</time>
      </trkpt>
      <trkpt lat="43.61473" lon="3.81575">
        <ele>38</ele>
        <time>2021-01-09T12:37:00Z</time>
      </trkpt>
      <trkpt lat="43.61472" lon="3.81572">
        <ele>40</ele>
        <time>2021-01-09T12:37:01Z</time>
      </trkpt>
      <trkpt lat="43.61472" lon="3.81569">
        <ele>38</ele>
        <time>2021-01-09T12:37:02Z</time>
      </trkpt>
      <trkpt lat="43.61471" lon="3.81565">
        <ele>38</ele>
        <time>2021-01-09T12:37:04Z</time>
      </trkpt>
      <trkpt lat="43.61469" lon="3.81563">
        <ele>37.9</ele>
        <time>2021-01-09T12:37:06Z</time>
      </trkpt>
      <trkpt lat="43.61466" lon="3.81564">
        <ele>37.9</ele>
        <time>2021-01-09T12:37:08Z</time>
      </trkpt>
      <trkpt lat="43.61464" lon="3.81566">
        <ele>37.8</ele>
        <time>2021-01-09T12:37:09Z</time>
      </trkpt>
      <trkpt lat="43.61464" lon="3.81572">
        <ele>39</ele>
        <time>2021-01-09T12:37:11Z</time>
      </trkpt>
      <trkpt lat="43.61463" lon="3.81576">
        <ele>37.5</ele>
        <time>2021-01-09T12:37:12Z</time>
      </trkpt>
      <trkpt lat="43.61463" lon="3.81581">
        <ele>37.4</ele>
        <time>2021-01-09T12:37:13Z</time>
      </trkpt>
      <trkpt lat="43.61463" lon="3.81585">
        <ele>37.2</ele>
        <time>2021-01-09T12:37:14Z</time>
      </trkpt>
      <trkpt lat="43.61462" lon="3.8159">
        <ele>36.8</ele>
        <time>2021-01-09T12:37:15Z</time>
      </trkpt>
      <trkpt lat="43.61461" lon="3.81595">
        <ele>36.4</ele>
        <time>2021-01-09T12:37:16Z</time>
      </trkpt>
      <trkpt lat="43.61461" lon="3.816">
        <ele>36</ele>
        <time>2021-01-09T12:37:17Z</time>
      </trkpt>
      <trkpt lat="43.6146" lon="3.81606">
        <ele>35.5</ele>
        <time>2021-01-09T12:37:18Z</time>
      </trkpt>
      <trkpt lat="43.6146" lon="3.81611">
        <ele>35.1</ele>
        <time>2021-01-09T12:37:19Z</time>
      </trkpt>
      <trkpt lat="43.6146" lon="3.81617">
        <ele>34.8</ele>
        <time>2021-01-09T12:37:20Z</time>
      </trkpt>
      <trkpt lat="43.61459" lon="3.81622">
        <ele>39</ele>
        <time>2021-01-09T12:37:21Z</time>
      </trkpt>
      <trkpt lat="43.61458" lon="3.81628">
        <ele>34.1</ele>
        <time>2021-01-09T12:37:22Z</time>
      </trkpt>
      <trkpt lat="43.61457" lon="3.81634">
        <ele>33.7</ele>
        <time>2021-01-09T12:37:23Z</time>
      </trkpt>
      <trkpt lat="43.61456" lon="3.8164">
        <ele>33.4</ele>
        <time>2021-01-09T12:37:24Z</time>
      </trkpt>
      <trkpt lat="43.61456" lon="3.81645">
        <ele>33.3</ele>
        <time>2021-01-09T12:37:25Z</time>
      </trkpt>
      <trkpt lat="43.61456" lon="3.81651">
        <ele>33.2</ele>
        <time>2021-01-09T12:37:26Z</time>
      </trkpt>
      <trkpt lat="43.61456" lon="3.81657">
        <ele>33.1</ele>
        <time>2021-01-09T12:37:27Z</time>
      </trkpt>
      <trkpt lat="43.61456" lon="3.81662">
        <ele>33.1</ele>
        <time>2021-01-09T12:37:28Z</time>
      </trkpt>
      <trkpt lat="43.61456" lon="3.81668">
        <ele>32.9</ele>
        <time>2021-01-09T12:37:29Z</time>
      </trkpt>
      <trkpt lat="43.61457" lon="3.81673">
        <ele>32.7</ele>
        <time>2021-01-09T12:37:30Z</time>
      </trkpt>
      <trkpt lat="43.61456" lon="3.81679">
        <ele>38</ele>
        <time>2021-01-09T12:37:31Z</time>
      </trkpt>
      <trkpt lat="43.61455" lon="3.81683">
        <ele>32.2</ele>
        <time>2021-01-09T12:37:32Z</time>
      </trkpt>
      <trkpt lat="43.61453" lon="3.81687">
        <ele>32</ele>
        <time>2021-01-09T12:37:33Z</time>
      </trkpt>
      <trkpt lat="43.61449" lon="3.81689">
        <ele>32.1</ele>
        <time>2021-01-09T12:37:34Z</time>
      </trkpt>
      <trkpt lat="43.61444" lon="3.81691">
        <ele>32.1</ele>
        <time>2021-01-09T12:37:35Z</time>
      </trkpt>
      <trkpt lat="43.6144" lon="3.81691">
        <ele>32.3</ele>
        <time>2021-01-09T12:37:36Z</time>
      </trkpt>
      <trkpt lat="43.61435" lon="3.81692">
        <ele>32.4</ele>
        <time>2021-01-09T12:37:37Z</time>
      </trkpt>
      <trkpt lat="43.61432" lon="3.81693">
        <ele>32.5</ele>
        <time>2021-01-09T12:37:38Z</time>
      </trkpt>
      <trkpt lat="43.61428" lon="3.81693">
        <ele>32.6</ele>
        <time>2021-01-09T12:37:39Z</time>
      </trkpt>
      <trkpt lat="43.61425" lon="3.81694">
        <ele>32.7</ele>
        <time>2021-01-09T12:37:40Z</time>
      </trkpt>
      <trkpt lat="43.61422" lon="3.81694">
        <ele>37</ele>
        <time>2021-01-09T12:37:41Z</time>
      </trkpt>
      <trkpt lat="43.61418" lon="3.81695">
        <ele>32.9</ele>
        <time>2021-01-09T12:37:42Z</time>
      </trkpt>
      <trkpt lat="43.61415" lon="3.81696">
        <ele>33</ele>
        <time>2021-01-09T12:37:43Z</time>
      </trkpt>
      <trkpt lat="43.61414" lon="3.81698">
        <ele>32.9</ele>
        <time>2021-01-09T12:37:44Z</time>
      </trkpt>
      <trkpt lat="43.61413" lon="3.81702">
        <ele>32.7</ele>
        <time>2021-01-09T12:37:45Z</time>
      </trkpt>
      <trkpt lat="43.61413" lon="3.81705">
        <ele>32.4</ele>
        <time>2021-01-09T12:37:46Z</time>
      </trkpt>
      <trkpt lat="43.61415" lon="3.81709">
        <ele>31.7</ele>
        <time>2021-01-09T12:37:48Z</time>
      </trkpt>
      <trkpt lat="43.61417" lon="3.81712">
        <ele>31.1</ele>
        <time>2021-01-09T12:37:50Z</time>
      </trkpt>
      <trkpt lat="43.61416" lon="3.81716">
        <ele>30.8</ele>
        <time>2021-01-09T12:37:52Z</time>
      </trkpt>
      <trkpt lat="43.61415" lon="3.81718">
        <ele>30.8</ele>
        <time>2021-01-09T12:37:53Z</time>
      </trkpt>
      <trkpt lat="43.61413" lon="3.81721">
        <ele>30.9</ele>
        <time>2021-01-09T12:37:54Z</time>
      </trkpt>
      <trkpt lat="43.6141" lon="3.81724">
        <ele>31.3</ele>
        <time>2021-01-09T12:37:55Z</time>
      </trkpt>
      <trkpt lat="43.61408" lon="3.81727">
        <ele>31.4</ele>
        <time>2021-01-09T12:37:56Z</time>
      </trkpt>
      <trkpt lat="43.61405" lon="3.8173">
        <ele>31.5</ele>
        <time>2021-01-09T12:37:57Z</time>
      </trkpt>
      <trkpt lat="43.61402" lon="3.81733">
        <ele>31.6</ele>
        <time>2021-01-09T12:37:58Z</time>
      </trkpt>
      <trkpt lat="43.61399" lon="3.81735">
        <ele>31.6</ele>
        <time>2021-01-09T12:37:59Z</time>
      </trkpt>
      <trkpt lat="43.61396" lon="3.81737">
        <ele>31.6</ele>
        <time>2021-01-09T12:38:00Z</time>
      </trkpt>
      <trkpt lat="43.61392" lon="3.81739">
        <ele>37</ele>
        <time>2021-01-09T12:38:01Z</time>
      </trkpt>
      <trkpt lat="43.61389" lon="3.81741">
        <ele>31.3</ele>
        <time>2021-01-09T12:38:02Z</time>
      </trkpt>
      <trkpt lat="43.61385" lon="3.81744">
        <ele>30.6</ele>
        <time>2021-01-09T12:38:03Z</time>
      </trkpt>
      <trkpt lat="43.61381" lon="3.81746">
        <ele>30.3</ele>
        <time>2021-01-09T12:38:04Z</time>
      </trkpt>
      <trkpt lat="43.61376" lon="3.81748">
        <ele>29.9</ele>
        <time>2021-01-09T12:38:05Z</time>
      </trkpt>
      <trkpt lat="43.6137" lon="3.81749">
        <ele>29.9</ele>
        <time>2021-01-09T12:38:06Z</time>
      </trkpt>
      <trkpt lat="43.61365" lon="3.81751">
        <ele>29.8</ele>
        <time>2021-01-09T12:38:07Z</time>
      </trkpt>
      <trkpt lat="43.6136" lon="3.81752">
        <ele>30</ele>
        <time>2021-01-09T12:38:08Z</time>
      </trkpt>
      <trkpt lat="43.61355" lon="3.81753">
        <ele>30.1</ele>
        <time>2021-01-09T12:38:09Z</time>
      </trkpt>
      <trkpt lat="43.6135" lon="3.81754">
        <ele>30.1</ele>
        <time>2021-01-09T12:38:10Z</time>
      </trkpt>
      <trkpt lat="43.61345" lon="3.81755">
        <ele>37</ele>
        <time>2021-01-09T12:38:11Z</time>
      </trkpt>
      <trkpt lat="43.6134" lon="3.81756">
        <ele>30.2</ele>
        <time>2021-01-09T12:38:12Z</time>
      </trkpt>
      <trkpt lat="43.61335" lon="3.81756">
        <ele>30.3</ele>
        <time>2021-01-09T12:38:13Z</time>
      </trkpt>
      <trkpt lat="43.6133" lon="3.81757">
        <ele>30.3</ele>
        <time>2021-01-09T12:38:14Z</time>
      </trkpt>
      <trkpt lat="43.61326" lon="3.81757">
        <ele>30.4</ele>
        <time>2021-01-09T12:38:15Z</time>
      </trkpt>
      <trkpt lat="43.61321" lon="3.81757">
        <ele>30.6</ele>
        <time>2021-01-09T12:38:16Z</time>
      </trkpt>
      <trkpt lat="43.61316" lon="3.81757">
        <ele>30.7</ele>
        <time>2021-01-09T12:38:17Z</time>
      </trkpt>
      <trkpt lat="43.61312" lon="3.81757">
        <ele>30.8</ele>
        <time>2021-01-09T12:38:18Z</time>
      </trkpt>
      <trkpt lat="43.61308" lon="3.81757">
        <ele>30.9</ele>
        <time>2021-01-09T12:38:19Z</time>
      </trkpt>
      <trkpt lat="43.61303" lon="3.81757">
        <ele>31.1</ele>
        <time>2021-01-09T12:38:20Z</time>
      </trkpt>
      <trkpt lat="43.61299" lon="3.81758">
        <ele>37</ele>
        <time>2021-01-09T12:38:21Z</time>
      </trkpt>
      <trkpt lat="43.61295" lon="3.81758">
        <ele>31.4</ele>
        <time>2021-01-09T12:38:22Z</time>
      </trkpt>
      <trkpt lat="43.61291" lon="3.81758">
        <ele>31.6</ele>
        <time>2021-01-09T12:38:23Z</time>
      </trkpt>
      <trkpt lat="43.61287" lon="3.81759">
        <ele>31.6</ele>
        <time>2021-01-09T12:38:24Z</time>
      </trkpt>
      <trkpt lat="43.61283" lon="3.8176">
        <ele>31.6</ele>
        <time>2021-01-09T12:38:25Z</time>
      </trkpt>
      <trkpt lat="43.61278" lon="3.81761">
        <ele>31.6</ele>
        <time>2021-01-09T12:38:26Z</time>
      </trkpt>
      <trkpt lat="43.61274" lon="3.81761">
        <ele>31.8</ele>
        <time>2021-01-09T12:38:27Z</time>
      </trkpt>
      <trkpt lat="43.6127" lon="3.81762">
        <ele>31.7</ele>
        <time>2021-01-09T12:38:28Z</time>
      </trkpt>
      <trkpt lat="43.61266" lon="3.81763">
        <ele>31.6</ele>
        <time>2021-01-09T12:38:29Z</time>
      </trkpt>
      <trkpt lat="43.61262" lon="3.81765">
        <ele>31.3</ele>
        <time>2021-01-09T12:38:30Z</time>
      </trkpt>
      <trkpt lat="43.61258" lon="3.81768">
        <ele>38</ele>
        <time>2021-01-09T12:38:31Z</time>
      </trkpt>
      <trkpt lat="43.61254" lon="3.8177">
        <ele>30.5</ele>
        <time>2021-01-09T12:38:32Z</time>
      </trkpt>
      <trkpt lat="43.61251" lon="3.81773">
        <ele>30</ele>
        <time>2021-01-09T12:38:33Z</time>
      </trkpt>
      <trkpt lat="43.61247" lon="3.81774">
        <ele>30.2</ele>
        <time>2021-01-09T12:38:34Z</time>
      </trkpt>
      <trkpt lat="43.61244" lon="3.81776">
        <ele>30.2</ele>
        <time>2021-01-09T12:38:35Z</time>
      </trkpt>
      <trkpt lat="43.6124" lon="3.81778">
        <ele>30.4</ele>
        <time>2021-01-09T12:38:36Z</time>
      </trkpt>
      <trkpt lat="43.61236" lon="3.81782">
        <ele>30.6</ele>
        <time>2021-01-09T12:38:37Z</time>
      </trkpt>
      <trkpt lat="43.61231" lon="3.81784">
        <ele>30.9</ele>
        <time>2021-01-09T12:38:38Z</time>
      </trkpt>
      <trkpt lat="43.61227" lon="3.81788">
        <ele>30.5</ele>
        <time>2021-01-09T12:38:39Z</time>
      </trkpt>
      <trkpt lat="43.61223" lon="3.81791">
        <ele>30.1</ele>
        <time>2021-01-09T12:38:40Z</time>
      </trkpt>
      <trkpt lat="43.61218" lon="3.81795">
        <ele>38</ele>
        <time>2021-01-09T12:38:41Z</time>
      </trkpt>
      <trkpt lat="43.61214" lon="3.81799">
        <ele>29.7</ele>
        <time>2021-01-09T12:38:42Z</time>
      </trkpt>
      <trkpt lat="43.6121" lon="3.81802">
        <ele>29.8</ele>
        <time>2021-01-09T12:38:43Z</time>
      </trkpt>
      <trkpt lat="43.61205" lon="3.81806">
        <ele>30.1</ele>
        <time>2021-01-09T12:38:44Z</time>
      </trkpt>
      <trkpt lat="43.61202" lon="3.81809">
        <ele>30.3</ele>
        <time>2021-01-09T12:38:45Z</time>
      </trkpt>
      <trkpt lat="43.61198" lon="3.81812">
        <ele>30.5</ele>
        <time>2021-01-09T12:38:46Z</time>
      </trkpt>
      <trkpt lat="43.61195" lon="3.81815">
        <ele>30.3</ele>
        <time>2021-01-09T12:38:47Z</time>
      </trkpt>
      <trkpt lat="43.61192" lon="3.81819">
        <ele>29.8</ele>
        <time>2021-01-09T12:38:48Z</time>
      </trkpt>
      <trkpt lat="43.61188" lon="3.81822">
        <ele>29.7</ele>
        <time>2021-01-09T12:38:49Z</time>
      </trkpt>
      <trkpt lat="43.61185" lon="3.81825">
        <ele>29.5</ele>
        <time>2021-01-09T12:38:50Z</time>
      </trkpt>
      <trkpt lat="43.61181" lon="3.81828">
        <ele>39</ele>
        <time>2021-01-09T12:38:51Z</time>
      </trkpt>
      <trkpt lat="43.61177" lon="3.81831">
        <ele>29.3</ele>
        <time>2021-01-09T12:38:52Z</time>
      </trkpt>
      <trkpt lat="43.61172" lon="3.81834">
        <ele>29.4</ele>
        <time>2021-01-09T12:38:53Z</time>
      </trkpt>
      <trkpt lat="43.61168" lon="3.81837">
        <ele>29.8</ele>
        <time>2021-01-09T12:38:54Z</time>
      </trkpt>
      <trkpt lat="43.61164" lon="3.8184">
        <ele>30.1</ele>
        <time>2021-01-09T12:38:55Z</time>
      </trkpt>
      <trkpt lat="43.61159" lon="3.81843">
        <ele>30.4</ele>
        <time>2021-01-09T12:38:56Z</time>
      </trkpt>
      <trkpt lat="43.61155" lon="3.81846">
        <ele>30.5</ele>
        <time>2021-01-09T12:38:57Z</time>
      </trkpt>
      <trkpt lat="43.61151" lon="3.81848">
        <ele>30.5</ele>
        <time>2021-01-09T12:38:58Z</time>
      </trkpt>
      <trkpt lat="43.61147" lon="3.81851">
        <ele>30.4</ele>
        <time>2021-01-09T12:38:59Z</time>
      </trkpt>
      <trkpt lat="43.61143" lon="3.81854">
        <ele>30.1</ele>
        <time>2021-01-09T12:39:00Z</time>
      </trkpt>
      <trkpt lat="43.6114" lon="3.81857">
        <ele>37</ele>
        <time>2021-01-09T12:39:01Z</time>
      </trkpt>
      <trkpt lat="43.61135" lon="3.8186">
        <ele>29.5</ele>
        <time>2021-01-09T12:39:02Z</time>
      </trkpt>
      <trkpt lat="43.61131" lon="3.81863">
        <ele>29.5</ele>
        <time>2021-01-09T12:39:03Z</time>
      </trkpt>
      <trkpt lat="43.61127" lon="3.81865">
        <ele>29.7</ele>
        <time>2021-01-09T12:39:04Z</time>
      </trkpt>
      <trkpt lat="43.61123" lon="3.81868">
        <ele>29.7</ele>
        <time>2021-01-09T12:39:05Z</time>
      </trkpt>
      <trkpt lat="43.6112" lon="3.8187">
        <ele>29.6</ele>
        <time>2021-01-09T12:39:06Z</time>
      </trkpt>
      <trkpt lat="43.61116" lon="3.81872">
        <ele>29.4</ele>
        <time>2021-01-09T12:39:07Z</time>
      </trkpt>
      <trkpt lat="43.61112" lon="3.81873">
        <ele>29.3</ele>
        <time>2021-01-09T12:39:08Z</time>
      </trkpt>
      <trkpt lat="43.61108" lon="3.81874">
        <ele>29.3</ele>
        <time>2021-01-09T12:39:09Z</time>
      </trkpt>
      <trkpt lat="43.61104" lon="3.81876">
        <ele>29.2</ele>
        <time>2021-01-09T12:39:10Z</time>
      </trkpt>
      <trkpt lat="43.61097" lon="3.8188">
        <ele>36</ele>
        <time>2021-01-09T12:39:11Z</time>
      </trkpt>
      <trkpt lat="43.61092" lon="3.81881">
        <ele>29</ele>
        <time>2021-01-09T12:39:12Z</time>
      </trkpt>
      <trkpt lat="43.61086" lon="3.81882">
        <ele>29.1</ele>
        <time>2021-01-09T12:39:13Z</time>
      </trkpt>
      <trkpt lat="43.61078" lon="3.81883">
        <ele>29.5</ele>
        <time>2021-01-09T12:39:15Z</time>
      </trkpt>
      <trkpt lat="43.61074" lon="3.81885">
        <ele>29.6</ele>
        <time>2021-01-09T12:39:16Z</time>
      </trkpt>
      <trkpt lat="43.6107" lon="3.81887">
        <ele>29.7</ele>
        <time>2021-01-09T12:39:17Z</time>
      </trkpt>
      <trkpt lat="43.61066" lon="3.81888">
        <ele>30</ele>
        <time>2021-01-09T12:39:18Z</time>
      </trkpt>
      <trkpt lat="43.61062" lon="3.8189">
        <ele>30.3</ele>
        <time>2021-01-09T12:39:19Z</time>
      </trkpt>
      <trkpt lat="43.61058" lon="3.81892">
        <ele>36</ele>
        <time>2021-01-09T12:39:21Z</time>
      </trkpt>
      <trkpt lat="43.61055" lon="3.81893">
        <ele>30.7</ele>
        <time>2021-01-09T12:39:22Z</time>
      </trkpt>
      <trkpt lat="43.61051" lon="3.81894">
        <ele>30.8</ele>
        <time>2021-01-09T12:39:23Z</time>
      </trkpt>
      <trkpt lat="43.61048" lon="3.81895">
        <ele>30.9</ele>
        <time>2021-01-09T12:39:24Z</time>
      </trkpt>
      <trkpt lat="43.61044" lon="3.81896">
        <ele>30.9</ele>
        <time>2021-01-09T12:39:25Z</time>
      </trkpt>
      <trkpt lat="43.6104" lon="3.81898">
        <ele>30.7</ele>
        <time>2021-01-09T12:39:26Z</time>
      </trkpt>
      <trkpt lat="43.61037" lon="3.819">
        <ele>30.5</ele>
        <time>2021-01-09T12:39:27Z</time>
      </trkpt>
      <trkpt lat="43.61033" lon="3.81902">
        <ele>30.1</ele>
        <time>2021-01-09T12:39:28Z</time>
      </trkpt>
      <trkpt lat="43.6103" lon="3.81905">
        <ele>29.5</ele>
        <time>2021-01-09T12:39:29Z</time>
      </trkpt>
      <trkpt lat="43.61027" lon="3.81907">
        <ele>29.1</ele>
        <time>2021-01-09T12:39:30Z</time>
      </trkpt>
      <trkpt lat="43.61023" lon="3.8191">
        <ele>37</ele>
        <time>2021-01-09T12:39:31Z</time>
      </trkpt>
      <trkpt lat="43.61018" lon="3.81912">
        <ele>28.8</ele>
        <time>2021-01-09T12:39:32Z</time>
      </trkpt>
      <trkpt lat="43.61014" lon="3.81914">
        <ele>28.9</ele>
        <time>2021-01-09T12:39:33Z</time>
      </trkpt>
      <trkpt lat="43.6101" lon="3.81916">
        <ele>29</ele>
        <time>2021-01-09T12:39:34Z</time>
      </trkpt>
      <trkpt lat="43.61007" lon="3.81918">
        <ele>29.2</ele>
        <time>2021-01-09T12:39:35Z</time>
      </trkpt>
      <trkpt lat="43.61004" lon="3.81918">
        <ele>29.5</ele>
        <time>2021-01-09T12:39:36Z</time>
      </trkpt>
      <trkpt lat="43.61002" lon="3.81918">
        <ele>29.7</ele>
        <time>2021-01-09T12:39:37Z</time>
      </trkpt>
      <trkpt lat="43.61" lon="3.8192">
        <ele>29.8</ele>
        <time>2021-01-09T12:39:39Z</time>
      </trkpt>
      <trkpt lat="43.60999" lon="3.81924">
        <ele>37</ele>
        <time>2021-01-09T12:39:41Z</time>
      </trkpt>
      <trkpt lat="43.60998" lon="3.81927">
        <ele>29.3</ele>
        <time>2021-01-09T12:39:42Z</time>
      </trkpt>
      <trkpt lat="43.60996" lon="3.81929">
        <ele>29.1</ele>
        <time>2021-01-09T12:39:43Z</time>
      </trkpt>
      <trkpt lat="43.60993" lon="3.8193">
        <ele>29.1</ele>
        <time>2021-01-09T12:39:44Z</time>
      </trkpt>
      <trkpt lat="43.6099" lon="3.81931">
        <ele>29</ele>
        <time>2021-01-09T12:39:45Z</time>
      </trkpt>
      <trkpt lat="43.60987" lon="3.81932">
        <ele>28.8</ele>
        <time>2021-01-09T12:39:46Z</time>
      </trkpt>
      <trkpt lat="43.60985" lon="3.81933">
        <ele>28.7</ele>
        <time>2021-01-09T12:39:47Z</time>
      </trkpt>
      <trkpt lat="43.60982" lon="3.81934">
        <ele>28.6</ele>
        <time>2021-01-09T12:39:48Z</time>
      </trkpt>
      <trkpt lat="43.60979" lon="3.81934">
        <ele>28.6</ele>
        <time>2021-01-09T12:39:49Z</time>
      </trkpt>
      <trkpt lat="43.60976" lon="3.81935">
        <ele>28.4</ele>
        <time>2021-01-09T12:39:50Z</time>
      </trkpt>
      <trkpt lat="43.60973" lon="3.81935">
        <ele>36</ele>
        <time>2021-01-09T12:39:51Z</time>
      </trkpt>
      <trkpt lat="43.6097" lon="3.81936">
        <ele>28.2</ele>
        <time>2021-01-09T12:39:52Z</time>
      </trkpt>
      <trkpt lat="43.60967" lon="3.81937">
        <ele>28.2</ele>
        <time>2021-01-09T12:39:53Z</time>
      </trkpt>
      <trkpt lat="43.60965" lon="3.81938">
        <ele>28.1</ele>
        <time>2021-01-09T12:39:54Z</time>
      </trkpt>
      <trkpt lat="43.60961" lon="3.81938">
        <ele>28.1</ele>
        <time>2021-01-09T12:39:55Z</time>
      </trkpt>
      <trkpt lat="43.60958" lon="3.81939">
        <ele>28.1</ele>
        <time>2021-01-09T12:39:56Z</time>
      </trkpt>
      <trkpt lat="43.60954" lon="3.8194">
        <ele>28.1</ele>
        <time>2021-01-09T12:39:57Z</time>
      </trkpt>
      <trkpt lat="43.6095" lon="3.8194">
        <ele>28.2</ele>
        <time>2021-01-09T12:39:58Z</time>
      </trkpt>
      <trkpt lat="43.60947" lon="3.8194">
        <ele>28.3</ele>
        <time>2021-01-09T12:39:59Z</time>
      </trkpt>
      <trkpt lat="43.60944" lon="3.8194">
        <ele>28.3</ele>
        <time>2021-01-09T12:40:00Z</time>
      </trkpt>
      <trkpt lat="43.60941" lon="3.81942">
        <ele>36</ele>
        <time>2021-01-09T12:40:01Z</time>
      </trkpt>
      <trkpt lat="43.60938" lon="3.81945">
        <ele>28.5</ele>
        <time>2021-01-09T12:40:02Z</time>
      </trkpt>
      <trkpt lat="43.60936" lon="3.81947">
        <ele>28.6</ele>
        <time>2021-01-09T12:40:03Z</time>
      </trkpt>
      <trkpt lat="43.60933" lon="3.81948">
        <ele>28.8</ele>
        <time>2021-01-09T12:40:04Z</time>
      </trkpt>
      <trkpt lat="43.6093" lon="3.81949">
        <ele>29</ele>
        <time>2021-01-09T12:40:05Z</time>
      </trkpt>
      <trkpt lat="43.60928" lon="3.81949">
        <ele>29.2</ele>
        <time>2021-01-09T12:40:06Z</time>
      </trkpt>
      <trkpt lat="43.60924" lon="3.81949">
        <ele>29.4</ele>
        <time>2021-01-09T12:40:07Z</time>
      </trkpt>
      <trkpt lat="43.6092" lon="3.81949">
        <ele>29.6</ele>
        <time>2021-01-09T12:40:08Z</time>
      </trkpt>
      <trkpt lat="43.60917" lon="3.81949">
        <ele>29.8</ele>
        <time>2021-01-09T12:40:09Z</time>
      </trkpt>
      <trkpt lat="43.60914" lon="3.8195">
        <ele>29.8</ele>
        <time>2021-01-09T12:40:10Z</time>
      </trkpt>
      <trkpt lat="43.60912" lon="3.81951">
        <ele>36</ele>
        <time>2021-01-09T12:40:11Z</time>
      </trkpt>
      <trkpt lat="43.60909" lon="3.81951">
        <ele>29.6</ele>
        <time>2021-01-09T12:40:12Z</time>
      </trkpt>
      <trkpt lat="43.60905" lon="3.81952">
        <ele>29.5</ele>
        <time>2021-01-09T12:40:13Z</time>
      </trkpt>
      <trkpt lat="43.60901" lon="3.81954">
        <ele>29.3</ele>
        <time>2021-01-09T12:40:14Z</time>
      </trkpt>
      <trkpt lat="43.60898" lon="3.81956">
        <ele>29</ele>
        <time>2021-01-09T12:40:15Z</time>
      </trkpt>
      <trkpt lat="43.60894" lon="3.81958">
        <ele>28.7</ele>
        <time>2021-01-09T12:40:16Z</time>
      </trkpt>
      <trkpt lat="43.60891" lon="3.8196">
        <ele>28.4</ele>
        <time>2021-01-09T12:40:17Z</time>
      </trkpt>
      <trkpt lat="43.60889" lon="3.81961">
        <ele>28.2</ele>
        <time>2021-01-09T12:40:18Z</time>
      </trkpt>
      <trkpt lat="43.60886" lon="3.81961">
        <ele>28.2</ele>
        <time>2021-01-09T12:40:19Z</time>
      </trkpt>
      <trkpt lat="43.60883" lon="3.81961">
        <ele>28.2</ele>
        <time>2021-01-09T12:40:20Z</time>
      </trkpt>
      <trkpt lat="43.6088" lon="3.81962">
        <ele>28.1</ele>
        <time>2021-01-09T12:40:22Z</time>
      </trkpt>
      <trkpt lat="43.60879" lon="3.81966">
        <ele>27.7</ele>
        <time>2021-01-09T12:40:24Z</time>
      </trkpt>
      <trkpt lat="43.60876" lon="3.81968">
        <ele>27.5</ele>
        <time>2021-01-09T12:40:26Z</time>
      </trkpt>
      <trkpt lat="43.60874" lon="3.81968">
        <ele>27.5</ele>
        <time>2021-01-09T12:40:28Z</time>
      </trkpt>
      <trkpt lat="43.60871" lon="3.81969">
        <ele>27.3</ele>
        <time>2021-01-09T12:40:30Z</time>
      </trkpt>
      <trkpt lat="43.60869" lon="3.81971">
        <ele>27.1</ele>
        <time>2021-01-09T12:40:32Z</time>
      </trkpt>
      <trkpt lat="43.60867" lon="3.81972">
        <ele>27</ele>
        <time>2021-01-09T12:40:33Z</time>
      </trkpt>
      <trkpt lat="43.60864" lon="3.81971">
        <ele>27.1</ele>
        <time>2021-01-09T12:40:34Z</time>
      </trkpt>
      <trkpt lat="43.60862" lon="3.81971">
        <ele>27.1</ele>
        <time>2021-01-09T12:40:35Z</time>
      </trkpt>
      <trkpt lat="43.60859" lon="3.81972">
        <ele>27</ele>
        <time>2021-01-09T12:40:37Z</time>
      </trkpt>
      <trkpt lat="43.60857" lon="3.81971">
        <ele>27.1</ele>
        <time>2021-01-09T12:40:39Z</time>
      </trkpt>
      <trkpt lat="43.60856" lon="3.81969">
        <ele>27.3</ele>
        <time>2021-01-09T12:40:40Z</time>
      </trkpt>
      <trkpt lat="43.60852" lon="3.81967">
        <ele>27.6</ele>
        <time>2021-01-09T12:40:42Z</time>
      </trkpt>
      <trkpt lat="43.60851" lon="3.81967">
        <ele>27.6</ele>
        <time>2021-01-09T12:40:43Z</time>
      </trkpt>
      <trkpt lat="43.60848" lon="3.81969">
        <ele>27.3</ele>
        <time>2021-01-09T12:40:45Z</time>
      </trkpt>
      <trkpt lat="43.60845" lon="3.81969">
        <ele>27.3</ele>
        <time>2021-01-09T12:40:46Z</time>
      </trkpt>
      <trkpt lat="43.60843" lon="3.81969">
        <ele>27.3</ele>
        <time>2021-01-09T12:40:47Z</time>
      </trkpt>
      <trkpt lat="43.60841" lon="3.81969">
        <ele>27.3</ele>
        <time>2021-01-09T12:40:48Z</time>
      </trkpt>
      <trkpt lat="43.60839" lon="3.81968">
        <ele>27.5</ele>
        <time>2021-01-09T12:40:49Z</time>
      </trkpt>
      <trkpt lat="43.60837" lon="3.81968">
        <ele>27.5</ele>
        <time>2021-01-09T12:40:50Z</time>
      </trkpt>
      <trkpt lat="43.60835" lon="3.81969">
        <ele>37</ele>
        <time>2021-01-09T12:40:51Z</time>
      </trkpt>
      <trkpt lat="43.60832" lon="3.81968">
        <ele>27.5</ele>
        <time>2021-01-09T12:40:52Z</time>
      </trkpt>
      <trkpt lat="43.6083" lon="3.81967">
        <ele>27.6</ele>
        <time>2021-01-09T12:40:53Z</time>
      </trkpt>
      <trkpt lat="43.60827" lon="3.81966">
        <ele>27.7</ele>
        <time>2021-01-09T12:40:54Z</time>
      </trkpt>
      <trkpt lat="43.60824" lon="3.81965">
        <ele>27.8</ele>
        <time>2021-01-09T12:40:55Z</time>
      </trkpt>
      <trkpt lat="43.60822" lon="3.81965">
        <ele>27.8</ele>
        <time>2021-01-09T12:40:56Z</time>
      </trkpt>
      <trkpt lat="43.6082" lon="3.81964">
        <ele>27.9</ele>
        <time>2021-01-09T12:40:57Z</time>
      </trkpt>
      <trkpt lat="43.60819" lon="3.81962">
        <ele>28.1</ele>
        <time>2021-01-09T12:40:58Z</time>
      </trkpt>
      <trkpt lat="43.60817" lon="3.8196">
        <ele>28.3</ele>
        <time>2021-01-09T12:40:59Z</time>
      </trkpt>
      <trkpt lat="43.60816" lon="3.81956">
        <ele>36</ele>
        <time>2021-01-09T12:41:01Z</time>
      </trkpt>
      <trkpt lat="43.60815" lon="3.81954">
        <ele>29</ele>
        <time>2021-01-09T12:41:03Z</time>
      </trkpt>
      <trkpt lat="43.60813" lon="3.81953">
        <ele>29.1</ele>
        <time>2021-01-09T12:41:05Z</time>
      </trkpt>
      <trkpt lat="43.6081" lon="3.81954">
        <ele>29</ele>
        <time>2021-01-09T12:41:07Z</time>
      </trkpt>
      <trkpt lat="43.60807" lon="3.81954">
        <ele>29</ele>
        <time>2021-01-09T12:41:09Z</time>
      </trkpt>
      <trkpt lat="43.60806" lon="3.81949">
        <ele>36</ele>
        <time>2021-01-09T12:41:11Z</time>
      </trkpt>
      <trkpt lat="43.60805" lon="3.81946">
        <ele>29.8</ele>
        <time>2021-01-09T12:41:13Z</time>
      </trkpt>
      <trkpt lat="43.60804" lon="3.81943">
        <ele>37</ele>
        <time>2021-01-09T12:41:21Z</time>
      </trkpt>
      <trkpt lat="43.60804" lon="3.8194">
        <ele>37</ele>
        <time>2021-01-09T12:41:28Z</time>
      </trkpt>
      <trkpt lat="43.60803" lon="3.81932">
        <ele>37</ele>
        <time>2021-01-09T12:41:31Z</time>
      </trkpt>
      <trkpt lat="43.60802" lon="3.81932">
        <ele>29.9</ele>
        <time>2021-01-09T12:41:32Z</time>
      </trkpt>
      <trkpt lat="43.60799" lon="3.81931">
        <ele>29.8</ele>
        <time>2021-01-09T12:41:35Z</time>
      </trkpt>
      <trkpt lat="43.60796" lon="3.81929">
        <ele>29.7</ele>
        <time>2021-01-09T12:41:37Z</time>
      </trkpt>
      <trkpt lat="43.60794" lon="3.81928">
        <ele>29.7</ele>
        <time>2021-01-09T12:41:38Z</time>
      </trkpt>
      <trkpt lat="43.60791" lon="3.81927">
        <ele>29.6</ele>
        <time>2021-01-09T12:41:39Z</time>
      </trkpt>
      <trkpt lat="43.60789" lon="3.81925">
        <ele>29.6</ele>
        <time>2021-01-09T12:41:40Z</time>
      </trkpt>
      <trkpt lat="43.60787" lon="3.81923">
        <ele>35</ele>
        <time>2021-01-09T12:41:41Z</time>
      </trkpt>
      <trkpt lat="43.60784" lon="3.81921">
        <ele>29.8</ele>
        <time>2021-01-09T12:41:42Z</time>
      </trkpt>
      <trkpt lat="43.60781" lon="3.81919">
        <ele>29.9</ele>
        <time>2021-01-09T12:41:43Z</time>
      </trkpt>
      <trkpt lat="43.60779" lon="3.81918">
        <ele>29.9</ele>
        <time>2021-01-09T12:41:44Z</time>
      </trkpt>
      <trkpt lat="43.60776" lon="3.81916">
        <ele>30.1</ele>
        <time>2021-01-09T12:41:45Z</time>
      </trkpt>
      <trkpt lat="43.60773" lon="3.81913">
        <ele>30.1</ele>
        <time>2021-01-09T12:41:46Z</time>
      </trkpt>
      <trkpt lat="43.60771" lon="3.81911">
        <ele>30.2</ele>
        <time>2021-01-09T12:41:47Z</time>
      </trkpt>
      <trkpt lat="43.60768" lon="3.81909">
        <ele>30.3</ele>
        <time>2021-01-09T12:41:48Z</time>
      </trkpt>
      <trkpt lat="43.60765" lon="3.81907">
        <ele>30.3</ele>
        <time>2021-01-09T12:41:49Z</time>
      </trkpt>
      <trkpt lat="43.60763" lon="3.81904">
        <ele>30.3</ele>
        <time>2021-01-09T12:41:50Z</time>
      </trkpt>
      <trkpt lat="43.60757" lon="3.81899">
        <ele>34</ele>
        <time>2021-01-09T12:41:51Z</time>
      </trkpt>
      <trkpt lat="43.60754" lon="3.81896">
        <ele>30.2</ele>
        <time>2021-01-09T12:41:52Z</time>
      </trkpt>
      <trkpt lat="43.60752" lon="3.81893">
        <ele>30.1</ele>
        <time>2021-01-09T12:41:53Z</time>
      </trkpt>
      <trkpt lat="43.60749" lon="3.8189">
        <ele>30.2</ele>
        <time>2021-01-09T12:41:54Z</time>
      </trkpt>
      <trkpt lat="43.60747" lon="3.81886">
        <ele>30.4</ele>
        <time>2021-01-09T12:41:55Z</time>
      </trkpt>
      <trkpt lat="43.60745" lon="3.81882">
        <ele>30.5</ele>
        <time>2021-01-09T12:41:56Z</time>
      </trkpt>
      <trkpt lat="43.60743" lon="3.81879">
        <ele>30.6</ele>
        <time>2021-01-09T12:41:57Z</time>
      </trkpt>
      <trkpt lat="43.60741" lon="3.81875">
        <ele>30.6</ele>
        <time>2021-01-09T12:41:58Z</time>
      </trkpt>
      <trkpt lat="43.60739" lon="3.81871">
        <ele>30.6</ele>
        <time>2021-01-09T12:41:59Z</time>
      </trkpt>
      <trkpt lat="43.60737" lon="3.81867">
        <ele>34</ele>
        <time>2021-01-09T12:42:01Z</time>
      </trkpt>
      <trkpt lat="43.60735" lon="3.81863">
        <ele>30.1</ele>
        <time>2021-01-09T12:42:02Z</time>
      </trkpt>
      <trkpt lat="43.60732" lon="3.81859">
        <ele>30</ele>
        <time>2021-01-09T12:42:03Z</time>
      </trkpt>
      <trkpt lat="43.6073" lon="3.81855">
        <ele>30</ele>
        <time>2021-01-09T12:42:04Z</time>
      </trkpt>
      <trkpt lat="43.60728" lon="3.81851">
        <ele>30</ele>
        <time>2021-01-09T12:42:05Z</time>
      </trkpt>
      <trkpt lat="43.60725" lon="3.81848">
        <ele>30</ele>
        <time>2021-01-09T12:42:06Z</time>
      </trkpt>
      <trkpt lat="43.60723" lon="3.81844">
        <ele>30</ele>
        <time>2021-01-09T12:42:07Z</time>
      </trkpt>
      <trkpt lat="43.60721" lon="3.8184">
        <ele>30.2</ele>
        <time>2021-01-09T12:42:08Z</time>
      </trkpt>
      <trkpt lat="43.60718" lon="3.81837">
        <ele>30.6</ele>
        <time>2021-01-09T12:42:09Z</time>
      </trkpt>
      <trkpt lat="43.60716" lon="3.81833">
        <ele>30.9</ele>
        <time>2021-01-09T12:42:10Z</time>
      </trkpt>
      <trkpt lat="43.60712" lon="3.81826">
        <ele>34</ele>
        <time>2021-01-09T12:42:11Z</time>
      </trkpt>
      <trkpt lat="43.60709" lon="3.81822">
        <ele>31.1</ele>
        <time>2021-01-09T12:42:12Z</time>
      </trkpt>
      <trkpt lat="43.60707" lon="3.81819">
        <ele>31.1</ele>
        <time>2021-01-09T12:42:13Z</time>
      </trkpt>
      <trkpt lat="43.60705" lon="3.81816">
        <ele>30.9</ele>
        <time>2021-01-09T12:42:14Z</time>
      </trkpt>
      <trkpt lat="43.60702" lon="3.81813">
        <ele>30.8</ele>
        <time>2021-01-09T12:42:15Z</time>
      </trkpt>
      <trkpt lat="43.607" lon="3.8181">
        <ele>30.5</ele>
        <time>2021-01-09T12:42:16Z</time>
      </trkpt>
      <trkpt lat="43.60698" lon="3.81806">
        <ele>30.1</ele>
        <time>2021-01-09T12:42:17Z</time>
      </trkpt>
      <trkpt lat="43.60696" lon="3.81802">
        <ele>30</ele>
        <time>2021-01-09T12:42:18Z</time>
      </trkpt>
      <trkpt lat="43.60692" lon="3.81795">
        <ele>30.4</ele>
        <time>2021-01-09T12:42:20Z</time>
      </trkpt>
      <trkpt lat="43.6069" lon="3.81792">
        <ele>30.7</ele>
        <time>2021-01-09T12:42:22Z</time>
      </trkpt>
      <trkpt lat="43.60687" lon="3.81789">
        <ele>31.2</ele>
        <time>2021-01-09T12:42:23Z</time>
      </trkpt>
      <trkpt lat="43.60685" lon="3.81787">
        <ele>31.5</ele>
        <time>2021-01-09T12:42:24Z</time>
      </trkpt>
      <trkpt lat="43.60682" lon="3.81787">
        <ele>31.9</ele>
        <time>2021-01-09T12:42:25Z</time>
      </trkpt>
      <trkpt lat="43.60679" lon="3.81788">
        <ele>32.4</ele>
        <time>2021-01-09T12:42:26Z</time>
      </trkpt>
      <trkpt lat="43.60677" lon="3.8179">
        <ele>32.8</ele>
        <time>2021-01-09T12:42:27Z</time>
      </trkpt>
      <trkpt lat="43.60675" lon="3.81793">
        <ele>33.2</ele>
        <time>2021-01-09T12:42:28Z</time>
      </trkpt>
      <trkpt lat="43.60674" lon="3.81797">
        <ele>33.5</ele>
        <time>2021-01-09T12:42:29Z</time>
      </trkpt>
      <trkpt lat="43.60673" lon="3.818">
        <ele>33.7</ele>
        <time>2021-01-09T12:42:30Z</time>
      </trkpt>
      <trkpt lat="43.60671" lon="3.81804">
        <ele>33</ele>
        <time>2021-01-09T12:42:31Z</time>
      </trkpt>
      <trkpt lat="43.6067" lon="3.81808">
        <ele>34.4</ele>
        <time>2021-01-09T12:42:32Z</time>
      </trkpt>
      <trkpt lat="43.60665" lon="3.81821">
        <ele>34.3</ele>
        <time>2021-01-09T12:42:36Z</time>
      </trkpt>
      <trkpt lat="43.60656" lon="3.8183">
        <ele>33.4</ele>
        <time>2021-01-09T12:42:39Z</time>
      </trkpt>
      <trkpt lat="43.60648" lon="3.81836">
        <ele>32</ele>
        <time>2021-01-09T12:42:41Z</time>
      </trkpt>
      <trkpt lat="43.60645" lon="3.8185">
        <ele>31.5</ele>
        <time>2021-01-09T12:42:44Z</time>
      </trkpt>
      <trkpt lat="43.60643" lon="3.81854">
        <ele>31</ele>
        <time>2021-01-09T12:42:47Z</time>
      </trkpt>
      <trkpt lat="43.60641" lon="3.81855">
        <ele>30.7</ele>
        <time>2021-01-09T12:42:48Z</time>
      </trkpt>
      <trkpt lat="43.60638" lon="3.81856">
        <ele>30.3</ele>
        <time>2021-01-09T12:42:49Z</time>
      </trkpt>
      <trkpt lat="43.60636" lon="3.81856">
        <ele>30.2</ele>
        <time>2021-01-09T12:42:50Z</time>
      </trkpt>
      <trkpt lat="43.60634" lon="3.81858">
        <ele>33</ele>
        <time>2021-01-09T12:42:51Z</time>
      </trkpt>
      <trkpt lat="43.60632" lon="3.8186">
        <ele>29.8</ele>
        <time>2021-01-09T12:42:52Z</time>
      </trkpt>
      <trkpt lat="43.60631" lon="3.81862">
        <ele>29.7</ele>
        <time>2021-01-09T12:42:53Z</time>
      </trkpt>
      <trkpt lat="43.60628" lon="3.81863">
        <ele>29.6</ele>
        <time>2021-01-09T12:42:55Z</time>
      </trkpt>
      <trkpt lat="43.60626" lon="3.81865">
        <ele>29.5</ele>
        <time>2021-01-09T12:42:58Z</time>
      </trkpt>
      <trkpt lat="43.60624" lon="3.81868">
        <ele>29.3</ele>
        <time>2021-01-09T12:42:59Z</time>
      </trkpt>
      <trkpt lat="43.60623" lon="3.8187">
        <ele>29.3</ele>
        <time>2021-01-09T12:43:00Z</time>
      </trkpt>
      <trkpt lat="43.60621" lon="3.81874">
        <ele>33</ele>
        <time>2021-01-09T12:43:01Z</time>
      </trkpt>
      <trkpt lat="43.6062" lon="3.81877">
        <ele>29.1</ele>
        <time>2021-01-09T12:43:02Z</time>
      </trkpt>
      <trkpt lat="43.60618" lon="3.81881">
        <ele>29.1</ele>
        <time>2021-01-09T12:43:03Z</time>
      </trkpt>
      <trkpt lat="43.60615" lon="3.81885">
        <ele>29</ele>
        <time>2021-01-09T12:43:04Z</time>
      </trkpt>
      <trkpt lat="43.60613" lon="3.81889">
        <ele>29</ele>
        <time>2021-01-09T12:43:05Z</time>
      </trkpt>
      <trkpt lat="43.60611" lon="3.81893">
        <ele>29</ele>
        <time>2021-01-09T12:43:06Z</time>
      </trkpt>
      <trkpt lat="43.60609" lon="3.81897">
        <ele>29</ele>
        <time>2021-01-09T12:43:07Z</time>
      </trkpt>
      <trkpt lat="43.60607" lon="3.81901">
        <ele>29</ele>
        <time>2021-01-09T12:43:08Z</time>
      </trkpt>
      <trkpt lat="43.60604" lon="3.81905">
        <ele>29</ele>
        <time>2021-01-09T12:43:09Z</time>
      </trkpt>
      <trkpt lat="43.60602" lon="3.81909">
        <ele>29</ele>
        <time>2021-01-09T12:43:10Z</time>
      </trkpt>
      <trkpt lat="43.606" lon="3.81913">
        <ele>33</ele>
        <time>2021-01-09T12:43:11Z</time>
      </trkpt>
      <trkpt lat="43.60597" lon="3.81918">
        <ele>29</ele>
        <time>2021-01-09T12:43:12Z</time>
      </trkpt>
      <trkpt lat="43.60595" lon="3.81922">
        <ele>28.9</ele>
        <time>2021-01-09T12:43:13Z</time>
      </trkpt>
      <trkpt lat="43.60593" lon="3.81926">
        <ele>28.7</ele>
        <time>2021-01-09T12:43:14Z</time>
      </trkpt>
      <trkpt lat="43.6059" lon="3.8193">
        <ele>28.4</ele>
        <time>2021-01-09T12:43:15Z</time>
      </trkpt>
      <trkpt lat="43.60586" lon="3.81933">
        <ele>28</ele>
        <time>2021-01-09T12:43:16Z</time>
      </trkpt>
      <trkpt lat="43.60583" lon="3.81935">
        <ele>27.7</ele>
        <time>2021-01-09T12:43:17Z</time>
      </trkpt>
      <trkpt lat="43.60579" lon="3.81935">
        <ele>27.5</ele>
        <time>2021-01-09T12:43:18Z</time>
      </trkpt>
      <trkpt lat="43.60576" lon="3.81935">
        <ele>27.3</ele>
        <time>2021-01-09T12:43:19Z</time>
      </trkpt>
      <trkpt lat="43.60572" lon="3.81934">
        <ele>27.2</ele>
        <time>2021-01-09T12:43:20Z</time>
      </trkpt>
      <trkpt lat="43.60568" lon="3.81932">
        <ele>33</ele>
        <time>2021-01-09T12:43:21Z</time>
      </trkpt>
      <trkpt lat="43.60564" lon="3.81929">
        <ele>27.5</ele>
        <time>2021-01-09T12:43:22Z</time>
      </trkpt>
      <trkpt lat="43.60561" lon="3.81925">
        <ele>27.9</ele>
        <time>2021-01-09T12:43:23Z</time>
      </trkpt>
      <trkpt lat="43.60557" lon="3.81922">
        <ele>28.3</ele>
        <time>2021-01-09T12:43:24Z</time>
      </trkpt>
      <trkpt lat="43.60554" lon="3.81917">
        <ele>28.7</ele>
        <time>2021-01-09T12:43:25Z</time>
      </trkpt>
      <trkpt lat="43.6055" lon="3.81912">
        <ele>28.3</ele>
        <time>2021-01-09T12:43:26Z</time>
      </trkpt>
      <trkpt lat="43.60547" lon="3.81908">
        <ele>28.1</ele>
        <time>2021-01-09T12:43:27Z</time>
      </trkpt>
      <trkpt lat="43.60544" lon="3.81903">
        <ele>28</ele>
        <time>2021-01-09T12:43:28Z</time>
      </trkpt>
      <trkpt lat="43.6054" lon="3.81899">
        <ele>27.8</ele>
        <time>2021-01-09T12:43:29Z</time>
      </trkpt>
      <trkpt lat="43.60537" lon="3.81895">
        <ele>27.9</ele>
        <time>2021-01-09T12:43:30Z</time>
      </trkpt>
      <trkpt lat="43.60534" lon="3.81891">
        <ele>31</ele>
        <time>2021-01-09T12:43:31Z</time>
      </trkpt>
      <trkpt lat="43.6053" lon="3.81888">
        <ele>28.1</ele>
        <time>2021-01-09T12:43:32Z</time>
      </trkpt>
      <trkpt lat="43.60527" lon="3.81884">
        <ele>28.1</ele>
        <time>2021-01-09T12:43:33Z</time>
      </trkpt>
      <trkpt lat="43.60523" lon="3.8188">
        <ele>28</ele>
        <time>2021-01-09T12:43:34Z</time>
      </trkpt>
      <trkpt lat="43.6052" lon="3.81876">
        <ele>28</ele>
        <time>2021-01-09T12:43:35Z</time>
      </trkpt>
      <trkpt lat="43.60516" lon="3.81872">
        <ele>28</ele>
        <time>2021-01-09T12:43:36Z</time>
      </trkpt>
      <trkpt lat="43.60512" lon="3.81868">
        <ele>28</ele>
        <time>2021-01-09T12:43:37Z</time>
      </trkpt>
      <trkpt lat="43.60508" lon="3.81864">
        <ele>28.1</ele>
        <time>2021-01-09T12:43:38Z</time>
      </trkpt>
      <trkpt lat="43.60504" lon="3.81861">
        <ele>28.1</ele>
        <time>2021-01-09T12:43:39Z</time>
      </trkpt>
      <trkpt lat="43.60499" lon="3.81859">
        <ele>28</ele>
        <time>2021-01-09T12:43:40Z</time>
      </trkpt>
      <trkpt lat="43.60495" lon="3.81857">
        <ele>31</ele>
        <time>2021-01-09T12:43:41Z</time>
      </trkpt>
      <trkpt lat="43.6049" lon="3.81856">
        <ele>27.3</ele>
        <time>2021-01-09T12:43:42Z</time>
      </trkpt>
      <trkpt lat="43.60486" lon="3.81854">
        <ele>27.1</ele>
        <time>2021-01-09T12:43:43Z</time>
      </trkpt>
      <trkpt lat="43.60481" lon="3.81853">
        <ele>26.8</ele>
        <time>2021-01-09T12:43:44Z</time>
      </trkpt>
      <trkpt lat="43.60477" lon="3.81851">
        <ele>26.8</ele>
        <time>2021-01-09T12:43:45Z</time>
      </trkpt>
      <trkpt lat="43.60473" lon="3.8185">
        <ele>26.7</ele>
        <time>2021-01-09T12:43:46Z</time>
      </trkpt>
      <trkpt lat="43.60468" lon="3.81848">
        <ele>26.8</ele>
        <time>2021-01-09T12:43:47Z</time>
      </trkpt>
      <trkpt lat="43.60464" lon="3.81847">
        <ele>26.9</ele>
        <time>2021-01-09T12:43:48Z</time>
      </trkpt>
      <trkpt lat="43.6046" lon="3.81845">
        <ele>27.1</ele>
        <time>2021-01-09T12:43:49Z</time>
      </trkpt>
      <trkpt lat="43.60456" lon="3.81843">
        <ele>27.2</ele>
        <time>2021-01-09T12:43:50Z</time>
      </trkpt>
      <trkpt lat="43.60451" lon="3.81841">
        <ele>31</ele>
        <time>2021-01-09T12:43:51Z</time>
      </trkpt>
      <trkpt lat="43.60447" lon="3.81839">
        <ele>27.5</ele>
        <time>2021-01-09T12:43:52Z</time>
      </trkpt>
      <trkpt lat="43.60442" lon="3.81837">
        <ele>27.7</ele>
        <time>2021-01-09T12:43:53Z</time>
      </trkpt>
      <trkpt lat="43.60438" lon="3.81835">
        <ele>28.1</ele>
        <time>2021-01-09T12:43:54Z</time>
      </trkpt>
      <trkpt lat="43.60434" lon="3.81834">
        <ele>28.3</ele>
        <time>2021-01-09T12:43:55Z</time>
      </trkpt>
      <trkpt lat="43.60429" lon="3.81832">
        <ele>28.6</ele>
        <time>2021-01-09T12:43:56Z</time>
      </trkpt>
      <trkpt lat="43.60424" lon="3.81831">
        <ele>28.8</ele>
        <time>2021-01-09T12:43:57Z</time>
      </trkpt>
      <trkpt lat="43.6042" lon="3.81831">
        <ele>28.9</ele>
        <time>2021-01-09T12:43:58Z</time>
      </trkpt>
      <trkpt lat="43.60415" lon="3.8183">
        <ele>28.9</ele>
        <time>2021-01-09T12:43:59Z</time>
      </trkpt>
      <trkpt lat="43.60411" lon="3.81828">
        <ele>28.6</ele>
        <time>2021-01-09T12:44:00Z</time>
      </trkpt>
      <trkpt lat="43.60407" lon="3.81827">
        <ele>31</ele>
        <time>2021-01-09T12:44:01Z</time>
      </trkpt>
      <trkpt lat="43.60402" lon="3.81826">
        <ele>28.1</ele>
        <time>2021-01-09T12:44:02Z</time>
      </trkpt>
      <trkpt lat="43.60398" lon="3.81825">
        <ele>27.9</ele>
        <time>2021-01-09T12:44:03Z</time>
      </trkpt>
      <trkpt lat="43.60393" lon="3.81824">
        <ele>27.6</ele>
        <time>2021-01-09T12:44:04Z</time>
      </trkpt>
      <trkpt lat="43.60389" lon="3.81823">
        <ele>27.4</ele>
        <time>2021-01-09T12:44:05Z</time>
      </trkpt>
      <trkpt lat="43.60385" lon="3.81822">
        <ele>27.2</ele>
        <time>2021-01-09T12:44:06Z</time>
      </trkpt>
      <trkpt lat="43.60381" lon="3.81821">
        <ele>27.1</ele>
        <time>2021-01-09T12:44:07Z</time>
      </trkpt>
      <trkpt lat="43.60377" lon="3.81819">
        <ele>27.1</ele>
        <time>2021-01-09T12:44:08Z</time>
      </trkpt>
      <trkpt lat="43.60374" lon="3.81817">
        <ele>27.1</ele>
        <time>2021-01-09T12:44:09Z</time>
      </trkpt>
      <trkpt lat="43.6037" lon="3.81814">
        <ele>27.3</ele>
        <time>2021-01-09T12:44:10Z</time>
      </trkpt>
      <trkpt lat="43.60367" lon="3.81811">
        <ele>31</ele>
        <time>2021-01-09T12:44:11Z</time>
      </trkpt>
      <trkpt lat="43.60363" lon="3.81807">
        <ele>27.9</ele>
        <time>2021-01-09T12:44:12Z</time>
      </trkpt>
      <trkpt lat="43.6036" lon="3.81803">
        <ele>27.9</ele>
        <time>2021-01-09T12:44:13Z</time>
      </trkpt>
      <trkpt lat="43.60357" lon="3.81799">
        <ele>27.7</ele>
        <time>2021-01-09T12:44:14Z</time>
      </trkpt>
      <trkpt lat="43.60354" lon="3.81795">
        <ele>27.5</ele>
        <time>2021-01-09T12:44:15Z</time>
      </trkpt>
      <trkpt lat="43.60351" lon="3.81791">
        <ele>27.3</ele>
        <time>2021-01-09T12:44:16Z</time>
      </trkpt>
      <trkpt lat="43.60348" lon="3.81787">
        <ele>27.1</ele>
        <time>2021-01-09T12:44:17Z</time>
      </trkpt>
      <trkpt lat="43.60344" lon="3.81783">
        <ele>26.8</ele>
        <time>2021-01-09T12:44:18Z</time>
      </trkpt>
      <trkpt lat="43.60341" lon="3.81779">
        <ele>26.6</ele>
        <time>2021-01-09T12:44:19Z</time>
      </trkpt>
      <trkpt lat="43.60338" lon="3.81775">
        <ele>26.5</ele>
        <time>2021-01-09T12:44:20Z</time>
      </trkpt>
      <trkpt lat="43.60335" lon="3.81771">
        <ele>31</ele>
        <time>2021-01-09T12:44:21Z</time>
      </trkpt>
      <trkpt lat="43.60332" lon="3.81767">
        <ele>26.8</ele>
        <time>2021-01-09T12:44:22Z</time>
      </trkpt>
      <trkpt lat="43.60329" lon="3.81763">
        <ele>27</ele>
        <time>2021-01-09T12:44:23Z</time>
      </trkpt>
      <trkpt lat="43.60326" lon="3.81759">
        <ele>27</ele>
        <time>2021-01-09T12:44:24Z</time>
      </trkpt>
      <trkpt lat="43.60324" lon="3.81754">
        <ele>26.9</ele>
        <time>2021-01-09T12:44:25Z</time>
      </trkpt>
      <trkpt lat="43.60322" lon="3.81749">
        <ele>26.8</ele>
        <time>2021-01-09T12:44:26Z</time>
      </trkpt>
      <trkpt lat="43.60321" lon="3.81743">
        <ele>26.7</ele>
        <time>2021-01-09T12:44:27Z</time>
      </trkpt>
      <trkpt lat="43.6032" lon="3.81737">
        <ele>26.6</ele>
        <time>2021-01-09T12:44:28Z</time>
      </trkpt>
      <trkpt lat="43.6032" lon="3.81732">
        <ele>26.6</ele>
        <time>2021-01-09T12:44:29Z</time>
      </trkpt>
      <trkpt lat="43.6032" lon="3.81726">
        <ele>26.6</ele>
        <time>2021-01-09T12:44:30Z</time>
      </trkpt>
      <trkpt lat="43.6032" lon="3.8172">
        <ele>31</ele>
        <time>2021-01-09T12:44:31Z</time>
      </trkpt>
      <trkpt lat="43.6032" lon="3.81714">
        <ele>26.6</ele>
        <time>2021-01-09T12:44:32Z</time>
      </trkpt>
      <trkpt lat="43.6032" lon="3.81708">
        <ele>26.6</ele>
        <time>2021-01-09T12:44:33Z</time>
      </trkpt>
      <trkpt lat="43.60321" lon="3.81702">
        <ele>26.7</ele>
        <time>2021-01-09T12:44:34Z</time>
      </trkpt>
      <trkpt lat="43.60321" lon="3.81696">
        <ele>26.7</ele>
        <time>2021-01-09T12:44:35Z</time>
      </trkpt>
      <trkpt lat="43.60322" lon="3.8169">
        <ele>26.8</ele>
        <time>2021-01-09T12:44:36Z</time>
      </trkpt>
      <trkpt lat="43.60322" lon="3.81684">
        <ele>26.8</ele>
        <time>2021-01-09T12:44:37Z</time>
      </trkpt>
      <trkpt lat="43.60322" lon="3.81677">
        <ele>26.8</ele>
        <time>2021-01-09T12:44:38Z</time>
      </trkpt>
      <trkpt lat="43.60322" lon="3.81671">
        <ele>26.8</ele>
        <time>2021-01-09T12:44:39Z</time>
      </trkpt>
      <trkpt lat="43.60322" lon="3.81665">
        <ele>26.8</ele>
        <time>2021-01-09T12:44:40Z</time>
      </trkpt>
      <trkpt lat="43.60321" lon="3.8166">
        <ele>32</ele>
        <time>2021-01-09T12:44:41Z</time>
      </trkpt>
      <trkpt lat="43.60319" lon="3.81654">
        <ele>27.2</ele>
        <time>2021-01-09T12:44:42Z</time>
      </trkpt>
      <trkpt lat="43.60316" lon="3.8165">
        <ele>27.3</ele>
        <time>2021-01-09T12:44:43Z</time>
      </trkpt>
      <trkpt lat="43.60314" lon="3.81647">
        <ele>27.4</ele>
        <time>2021-01-09T12:44:44Z</time>
      </trkpt>
      <trkpt lat="43.60311" lon="3.81643">
        <ele>27.6</ele>
        <time>2021-01-09T12:44:45Z</time>
      </trkpt>
      <trkpt lat="43.60308" lon="3.81639">
        <ele>28</ele>
        <time>2021-01-09T12:44:46Z</time>
      </trkpt>
      <trkpt lat="43.60304" lon="3.81636">
        <ele>27.8</ele>
        <time>2021-01-09T12:44:47Z</time>
      </trkpt>
      <trkpt lat="43.60301" lon="3.81633">
        <ele>27.6</ele>
        <time>2021-01-09T12:44:48Z</time>
      </trkpt>
      <trkpt lat="43.60298" lon="3.81631">
        <ele>27.4</ele>
        <time>2021-01-09T12:44:49Z</time>
      </trkpt>
      <trkpt lat="43.60294" lon="3.81629">
        <ele>27.2</ele>
        <time>2021-01-09T12:44:50Z</time>
      </trkpt>
      <trkpt lat="43.60289" lon="3.81627">
        <ele>32</ele>
        <time>2021-01-09T12:44:51Z</time>
      </trkpt>
      <trkpt lat="43.60285" lon="3.81625">
        <ele>26.9</ele>
        <time>2021-01-09T12:44:52Z</time>
      </trkpt>
      <trkpt lat="43.60281" lon="3.81624">
        <ele>26.8</ele>
        <time>2021-01-09T12:44:53Z</time>
      </trkpt>
      <trkpt lat="43.60277" lon="3.81622">
        <ele>26.8</ele>
        <time>2021-01-09T12:44:54Z</time>
      </trkpt>
      <trkpt lat="43.60273" lon="3.8162">
        <ele>27</ele>
        <time>2021-01-09T12:44:55Z</time>
      </trkpt>
      <trkpt lat="43.6027" lon="3.81617">
        <ele>27.4</ele>
        <time>2021-01-09T12:44:56Z</time>
      </trkpt>
      <trkpt lat="43.60267" lon="3.81615">
        <ele>27.6</ele>
        <time>2021-01-09T12:44:57Z</time>
      </trkpt>
      <trkpt lat="43.60264" lon="3.81612">
        <ele>27.9</ele>
        <time>2021-01-09T12:44:58Z</time>
      </trkpt>
      <trkpt lat="43.60263" lon="3.81608">
        <ele>28</ele>
        <time>2021-01-09T12:44:59Z</time>
      </trkpt>
      <trkpt lat="43.60262" lon="3.81604">
        <ele>28</ele>
        <time>2021-01-09T12:45:00Z</time>
      </trkpt>
      <trkpt lat="43.60263" lon="3.81594">
        <ele>32</ele>
        <time>2021-01-09T12:45:01Z</time>
      </trkpt>
      <trkpt lat="43.60264" lon="3.81589">
        <ele>28</ele>
        <time>2021-01-09T12:45:02Z</time>
      </trkpt>
      <trkpt lat="43.60266" lon="3.81584">
        <ele>28</ele>
        <time>2021-01-09T12:45:03Z</time>
      </trkpt>
      <trkpt lat="43.60267" lon="3.81579">
        <ele>27.9</ele>
        <time>2021-01-09T12:45:04Z</time>
      </trkpt>
      <trkpt lat="43.60268" lon="3.81574">
        <ele>27.9</ele>
        <time>2021-01-09T12:45:05Z</time>
      </trkpt>
      <trkpt lat="43.60269" lon="3.81569">
        <ele>27.8</ele>
        <time>2021-01-09T12:45:06Z</time>
      </trkpt>
      <trkpt lat="43.6027" lon="3.81564">
        <ele>27.8</ele>
        <time>2021-01-09T12:45:07Z</time>
      </trkpt>
      <trkpt lat="43.60271" lon="3.81559">
        <ele>27.8</ele>
        <time>2021-01-09T12:45:08Z</time>
      </trkpt>
      <trkpt lat="43.60272" lon="3.81554">
        <ele>27.8</ele>
        <time>2021-01-09T12:45:09Z</time>
      </trkpt>
      <trkpt lat="43.60273" lon="3.81549">
        <ele>32</ele>
        <time>2021-01-09T12:45:11Z</time>
      </trkpt>
      <trkpt lat="43.60275" lon="3.81544">
        <ele>28.3</ele>
        <time>2021-01-09T12:45:12Z</time>
      </trkpt>
      <trkpt lat="43.60277" lon="3.8154">
        <ele>28.5</ele>
        <time>2021-01-09T12:45:13Z</time>
      </trkpt>
      <trkpt lat="43.60279" lon="3.81537">
        <ele>28.7</ele>
        <time>2021-01-09T12:45:14Z</time>
      </trkpt>
      <trkpt lat="43.60283" lon="3.81535">
        <ele>28.7</ele>
        <time>2021-01-09T12:45:15Z</time>
      </trkpt>
      <trkpt lat="43.60285" lon="3.81533">
        <ele>28.8</ele>
        <time>2021-01-09T12:45:16Z</time>
      </trkpt>
      <trkpt lat="43.60289" lon="3.8153">
        <ele>28.9</ele>
        <time>2021-01-09T12:45:17Z</time>
      </trkpt>
      <trkpt lat="43.60291" lon="3.81527">
        <ele>29</ele>
        <time>2021-01-09T12:45:18Z</time>
      </trkpt>
      <trkpt lat="43.60292" lon="3.81524">
        <ele>29.2</ele>
        <time>2021-01-09T12:45:19Z</time>
      </trkpt>
      <trkpt lat="43.60291" lon="3.8152">
        <ele>29.4</ele>
        <time>2021-01-09T12:45:20Z</time>
      </trkpt>
      <trkpt lat="43.60289" lon="3.81519">
        <ele>31</ele>
        <time>2021-01-09T12:45:21Z</time>
      </trkpt>
      <trkpt lat="43.60286" lon="3.81519">
        <ele>29.5</ele>
        <time>2021-01-09T12:45:22Z</time>
      </trkpt>
      <trkpt lat="43.60282" lon="3.81518">
        <ele>29.7</ele>
        <time>2021-01-09T12:45:23Z</time>
      </trkpt>
      <trkpt lat="43.60279" lon="3.81516">
        <ele>29.8</ele>
        <time>2021-01-09T12:45:24Z</time>
      </trkpt>
      <trkpt lat="43.60276" lon="3.81514">
        <ele>30</ele>
        <time>2021-01-09T12:45:25Z</time>
      </trkpt>
      <trkpt lat="43.60272" lon="3.81513">
        <ele>30</ele>
        <time>2021-01-09T12:45:26Z</time>
      </trkpt>
      <trkpt lat="43.60269" lon="3.81512">
        <ele>30</ele>
        <time>2021-01-09T12:45:27Z</time>
      </trkpt>
      <trkpt lat="43.60265" lon="3.81511">
        <ele>30</ele>
        <time>2021-01-09T12:45:28Z</time>
      </trkpt>
      <trkpt lat="43.60262" lon="3.81509">
        <ele>30.2</ele>
        <time>2021-01-09T12:45:29Z</time>
      </trkpt>
      <trkpt lat="43.60259" lon="3.81507">
        <ele>30.3</ele>
        <time>2021-01-09T12:45:30Z</time>
      </trkpt>
      <trkpt lat="43.60252" lon="3.81502">
        <ele>32</ele>
        <time>2021-01-09T12:45:31Z</time>
      </trkpt>
      <trkpt lat="43.60249" lon="3.815">
        <ele>31</ele>
        <time>2021-01-09T12:45:32Z</time>
      </trkpt>
      <trkpt lat="43.60245" lon="3.81498">
        <ele>30.8</ele>
        <time>2021-01-09T12:45:33Z</time>
      </trkpt>
      <trkpt lat="43.60241" lon="3.81496">
        <ele>30.7</ele>
        <time>2021-01-09T12:45:34Z</time>
      </trkpt>
      <trkpt lat="43.60238" lon="3.81494">
        <ele>30.7</ele>
        <time>2021-01-09T12:45:35Z</time>
      </trkpt>
      <trkpt lat="43.60234" lon="3.81492">
        <ele>30.6</ele>
        <time>2021-01-09T12:45:36Z</time>
      </trkpt>
      <trkpt lat="43.6023" lon="3.8149">
        <ele>30.5</ele>
        <time>2021-01-09T12:45:37Z</time>
      </trkpt>
      <trkpt lat="43.60227" lon="3.81488">
        <ele>30.5</ele>
        <time>2021-01-09T12:45:39Z</time>
      </trkpt>
      <trkpt lat="43.6022" lon="3.81483">
        <ele>30.6</ele>
        <time>2021-01-09T12:45:40Z</time>
      </trkpt>
      <trkpt lat="43.60216" lon="3.81482">
        <ele>32</ele>
        <time>2021-01-09T12:45:41Z</time>
      </trkpt>
      <trkpt lat="43.60212" lon="3.81482">
        <ele>30.6</ele>
        <time>2021-01-09T12:45:42Z</time>
      </trkpt>
      <trkpt lat="43.60208" lon="3.81483">
        <ele>30.6</ele>
        <time>2021-01-09T12:45:43Z</time>
      </trkpt>
      <trkpt lat="43.60205" lon="3.81485">
        <ele>30.5</ele>
        <time>2021-01-09T12:45:44Z</time>
      </trkpt>
      <trkpt lat="43.60201" lon="3.81489">
        <ele>30.4</ele>
        <time>2021-01-09T12:45:45Z</time>
      </trkpt>
      <trkpt lat="43.60198" lon="3.81492">
        <ele>30.3</ele>
        <time>2021-01-09T12:45:46Z</time>
      </trkpt>
      <trkpt lat="43.60194" lon="3.81495">
        <ele>30.2</ele>
        <time>2021-01-09T12:45:47Z</time>
      </trkpt>
      <trkpt lat="43.60184" lon="3.81498">
        <ele>30.1</ele>
        <time>2021-01-09T12:45:49Z</time>
      </trkpt>
      <trkpt lat="43.6018" lon="3.81499">
        <ele>31</ele>
        <time>2021-01-09T12:45:51Z</time>
      </trkpt>
      <trkpt lat="43.60175" lon="3.815">
        <ele>30</ele>
        <time>2021-01-09T12:45:52Z</time>
      </trkpt>
      <trkpt lat="43.6017" lon="3.81501">
        <ele>29.9</ele>
        <time>2021-01-09T12:45:53Z</time>
      </trkpt>
      <trkpt lat="43.60166" lon="3.81502">
        <ele>29.9</ele>
        <time>2021-01-09T12:45:54Z</time>
      </trkpt>
      <trkpt lat="43.60161" lon="3.81503">
        <ele>29.8</ele>
        <time>2021-01-09T12:45:55Z</time>
      </trkpt>
      <trkpt lat="43.60157" lon="3.81503">
        <ele>29.8</ele>
        <time>2021-01-09T12:45:56Z</time>
      </trkpt>
      <trkpt lat="43.60153" lon="3.81504">
        <ele>29.7</ele>
        <time>2021-01-09T12:45:57Z</time>
      </trkpt>
      <trkpt lat="43.60148" lon="3.81504">
        <ele>29.7</ele>
        <time>2021-01-09T12:45:58Z</time>
      </trkpt>
      <trkpt lat="43.60144" lon="3.81505">
        <ele>29.6</ele>
        <time>2021-01-09T12:45:59Z</time>
      </trkpt>
      <trkpt lat="43.60139" lon="3.81506">
        <ele>29.6</ele>
        <time>2021-01-09T12:46:00Z</time>
      </trkpt>
      <trkpt lat="43.60134" lon="3.81507">
        <ele>31</ele>
        <time>2021-01-09T12:46:01Z</time>
      </trkpt>
      <trkpt lat="43.60129" lon="3.81507">
        <ele>29.5</ele>
        <time>2021-01-09T12:46:02Z</time>
      </trkpt>
      <trkpt lat="43.60125" lon="3.81507">
        <ele>29.5</ele>
        <time>2021-01-09T12:46:03Z</time>
      </trkpt>
      <trkpt lat="43.6012" lon="3.81506">
        <ele>29.6</ele>
        <time>2021-01-09T12:46:04Z</time>
      </trkpt>
      <trkpt lat="43.60116" lon="3.81506">
        <ele>29.6</ele>
        <time>2021-01-09T12:46:05Z</time>
      </trkpt>
      <trkpt lat="43.60111" lon="3.81505">
        <ele>29.6</ele>
        <time>2021-01-09T12:46:06Z</time>
      </trkpt>
      <trkpt lat="43.60107" lon="3.81504">
        <ele>29.6</ele>
        <time>2021-01-09T12:46:07Z</time>
      </trkpt>
      <trkpt lat="43.60102" lon="3.81504">
        <ele>29.4</ele>
        <time>2021-01-09T12:46:08Z</time>
      </trkpt>
      <trkpt lat="43.60098" lon="3.81503">
        <ele>29.4</ele>
        <time>2021-01-09T12:46:09Z</time>
      </trkpt>
      <trkpt lat="43.60093" lon="3.81502">
        <ele>29.3</ele>
        <time>2021-01-09T12:46:10Z</time>
      </trkpt>
      <trkpt lat="43.60088" lon="3.81502">
        <ele>30</ele>
        <time>2021-01-09T12:46:11Z</time>
      </trkpt>
      <trkpt lat="43.60083" lon="3.81501">
        <ele>29</ele>
        <time>2021-01-09T12:46:12Z</time>
      </trkpt>
      <trkpt lat="43.60079" lon="3.81501">
        <ele>29</ele>
        <time>2021-01-09T12:46:13Z</time>
      </trkpt>
      <trkpt lat="43.60075" lon="3.81501">
        <ele>29</ele>
        <time>2021-01-09T12:46:14Z</time>
      </trkpt>
      <trkpt lat="43.60071" lon="3.81501">
        <ele>29</ele>
        <time>2021-01-09T12:46:15Z</time>
      </trkpt>
      <trkpt lat="43.60066" lon="3.81501">
        <ele>29</ele>
        <time>2021-01-09T12:46:16Z</time>
      </trkpt>
      <trkpt lat="43.60062" lon="3.81502">
        <ele>28.9</ele>
        <time>2021-01-09T12:46:17Z</time>
      </trkpt>
      <trkpt lat="43.60057" lon="3.81502">
        <ele>28.9</ele>
        <time>2021-01-09T12:46:18Z</time>
      </trkpt>
      <trkpt lat="43.60053" lon="3.81502">
        <ele>28.8</ele>
        <time>2021-01-09T12:46:19Z</time>
      </trkpt>
      <trkpt lat="43.60049" lon="3.81503">
        <ele>28.7</ele>
        <time>2021-01-09T12:46:20Z</time>
      </trkpt>
      <trkpt lat="43.60045" lon="3.81504">
        <ele>30</ele>
        <time>2021-01-09T12:46:21Z</time>
      </trkpt>
      <trkpt lat="43.60041" lon="3.81504">
        <ele>28.4</ele>
        <time>2021-01-09T12:46:22Z</time>
      </trkpt>
      <trkpt lat="43.60037" lon="3.81505">
        <ele>28.3</ele>
        <time>2021-01-09T12:46:23Z</time>
      </trkpt>
      <trkpt lat="43.60032" lon="3.81505">
        <ele>28.1</ele>
        <time>2021-01-09T12:46:24Z</time>
      </trkpt>
      <trkpt lat="43.60028" lon="3.81506">
        <ele>28</ele>
        <time>2021-01-09T12:46:25Z</time>
      </trkpt>
      <trkpt lat="43.60024" lon="3.81506">
        <ele>28.1</ele>
        <time>2021-01-09T12:46:26Z</time>
      </trkpt>
      <trkpt lat="43.6002" lon="3.81505">
        <ele>28.2</ele>
        <time>2021-01-09T12:46:27Z</time>
      </trkpt>
      <trkpt lat="43.60017" lon="3.81503">
        <ele>28.3</ele>
        <time>2021-01-09T12:46:28Z</time>
      </trkpt>
      <trkpt lat="43.60013" lon="3.81501">
        <ele>28.5</ele>
        <time>2021-01-09T12:46:29Z</time>
      </trkpt>
      <trkpt lat="43.6001" lon="3.81498">
        <ele>28.7</ele>
        <time>2021-01-09T12:46:30Z</time>
      </trkpt>
      <trkpt lat="43.60008" lon="3.81494">
        <ele>30</ele>
        <time>2021-01-09T12:46:31Z</time>
      </trkpt>
      <trkpt lat="43.60006" lon="3.8149">
        <ele>28.9</ele>
        <time>2021-01-09T12:46:32Z</time>
      </trkpt>
      <trkpt lat="43.60006" lon="3.81485">
        <ele>28.9</ele>
        <time>2021-01-09T12:46:33Z</time>
      </trkpt>
      <trkpt lat="43.60007" lon="3.8148">
        <ele>28.9</ele>
        <time>2021-01-09T12:46:34Z</time>
      </trkpt>
      <trkpt lat="43.60008" lon="3.81476">
        <ele>29</ele>
        <time>2021-01-09T12:46:35Z</time>
      </trkpt>
      <trkpt lat="43.6001" lon="3.81471">
        <ele>29</ele>
        <time>2021-01-09T12:46:36Z</time>
      </trkpt>
      <trkpt lat="43.60012" lon="3.81467">
        <ele>29</ele>
        <time>2021-01-09T12:46:37Z</time>
      </trkpt>
      <trkpt lat="43.60014" lon="3.81462">
        <ele>29</ele>
        <time>2021-01-09T12:46:38Z</time>
      </trkpt>
      <trkpt lat="43.60016" lon="3.81458">
        <ele>29</ele>
        <time>2021-01-09T12:46:39Z</time>
      </trkpt>
      <trkpt lat="43.60017" lon="3.81453">
        <ele>29</ele>
        <time>2021-01-09T12:46:40Z</time>
      </trkpt>
      <trkpt lat="43.60019" lon="3.81448">
        <ele>29</ele>
        <time>2021-01-09T12:46:41Z</time>
      </trkpt>
      <trkpt lat="43.6002" lon="3.81443">
        <ele>29</ele>
        <time>2021-01-09T12:46:42Z</time>
      </trkpt>
      <trkpt lat="43.60022" lon="3.81437">
        <ele>29</ele>
        <time>2021-01-09T12:46:43Z</time>
      </trkpt>
      <trkpt lat="43.60023" lon="3.81432">
        <ele>29</ele>
        <time>2021-01-09T12:46:44Z</time>
      </trkpt>
      <trkpt lat="43.60025" lon="3.81427">
        <ele>29</ele>
        <time>2021-01-09T12:46:45Z</time>
      </trkpt>
      <trkpt lat="43.60026" lon="3.81422">
        <ele>29</ele>
        <time>2021-01-09T12:46:46Z</time>
      </trkpt>
      <trkpt lat="43.60028" lon="3.81417">
        <ele>29</ele>
        <time>2021-01-09T12:46:47Z</time>
      </trkpt>
      <trkpt lat="43.60029" lon="3.81412">
        <ele>29</ele>
        <time>2021-01-09T12:46:48Z</time>
      </trkpt>
      <trkpt lat="43.60031" lon="3.81407">
        <ele>29.1</ele>
        <time>2021-01-09T12:46:49Z</time>
      </trkpt>
      <trkpt lat="43.60032" lon="3.81402">
        <ele>29.2</ele>
        <time>2021-01-09T12:46:50Z</time>
      </trkpt>
      <trkpt lat="43.60033" lon="3.81398">
        <ele>30</ele>
        <time>2021-01-09T12:46:51Z</time>
      </trkpt>
      <trkpt lat="43.60034" lon="3.81393">
        <ele>29.2</ele>
        <time>2021-01-09T12:46:52Z</time>
      </trkpt>
      <trkpt lat="43.60035" lon="3.81388">
        <ele>29.3</ele>
        <time>2021-01-09T12:46:53Z</time>
      </trkpt>
      <trkpt lat="43.60035" lon="3.81383">
        <ele>29.4</ele>
        <time>2021-01-09T12:46:54Z</time>
      </trkpt>
      <trkpt lat="43.60035" lon="3.81379">
        <ele>29.5</ele>
        <time>2021-01-09T12:46:55Z</time>
      </trkpt>
      <trkpt lat="43.60033" lon="3.81376">
        <ele>29.6</ele>
        <time>2021-01-09T12:46:56Z</time>
      </trkpt>
      <trkpt lat="43.6003" lon="3.81372">
        <ele>29.6</ele>
        <time>2021-01-09T12:46:57Z</time>
      </trkpt>
      <trkpt lat="43.60027" lon="3.81368">
        <ele>29.7</ele>
        <time>2021-01-09T12:46:58Z</time>
      </trkpt>
      <trkpt lat="43.60025" lon="3.81364">
        <ele>29.8</ele>
        <time>2021-01-09T12:46:59Z</time>
      </trkpt>
      <trkpt lat="43.60022" lon="3.81359">
        <ele>29.8</ele>
        <time>2021-01-09T12:47:00Z</time>
      </trkpt>
      <trkpt lat="43.60019" lon="3.81355">
        <ele>31</ele>
        <time>2021-01-09T12:47:01Z</time>
      </trkpt>
      <trkpt lat="43.60014" lon="3.81346">
        <ele>30</ele>
        <time>2021-01-09T12:47:02Z</time>
      </trkpt>
      <trkpt lat="43.60011" lon="3.81342">
        <ele>30.2</ele>
        <time>2021-01-09T12:47:03Z</time>
      </trkpt>
      <trkpt lat="43.60009" lon="3.81338">
        <ele>30.4</ele>
        <time>2021-01-09T12:47:04Z</time>
      </trkpt>
      <trkpt lat="43.60006" lon="3.81335">
        <ele>30.7</ele>
        <time>2021-01-09T12:47:05Z</time>
      </trkpt>
      <trkpt lat="43.60003" lon="3.81331">
        <ele>30.9</ele>
        <time>2021-01-09T12:47:06Z</time>
      </trkpt>
      <trkpt lat="43.6" lon="3.81327">
        <ele>31</ele>
        <time>2021-01-09T12:47:07Z</time>
      </trkpt>
      <trkpt lat="43.59998" lon="3.81323">
        <ele>31.1</ele>
        <time>2021-01-09T12:47:08Z</time>
      </trkpt>
      <trkpt lat="43.59995" lon="3.81319">
        <ele>31.3</ele>
        <time>2021-01-09T12:47:10Z</time>
      </trkpt>
      <trkpt lat="43.59993" lon="3.81315">
        <ele>32</ele>
        <time>2021-01-09T12:47:11Z</time>
      </trkpt>
      <trkpt lat="43.5999" lon="3.81312">
        <ele>31.6</ele>
        <time>2021-01-09T12:47:12Z</time>
      </trkpt>
      <trkpt lat="43.59987" lon="3.81308">
        <ele>31.9</ele>
        <time>2021-01-09T12:47:13Z</time>
      </trkpt>
      <trkpt lat="43.59985" lon="3.81305">
        <ele>32.1</ele>
        <time>2021-01-09T12:47:14Z</time>
      </trkpt>
      <trkpt lat="43.59982" lon="3.81302">
        <ele>32.3</ele>
        <time>2021-01-09T12:47:15Z</time>
      </trkpt>
      <trkpt lat="43.5998" lon="3.81298">
        <ele>32.5</ele>
        <time>2021-01-09T12:47:16Z</time>
      </trkpt>
      <trkpt lat="43.59978" lon="3.81295">
        <ele>32.7</ele>
        <time>2021-01-09T12:47:17Z</time>
      </trkpt>
      <trkpt lat="43.59975" lon="3.81292">
        <ele>32.8</ele>
        <time>2021-01-09T12:47:18Z</time>
      </trkpt>
      <trkpt lat="43.59973" lon="3.8129">
        <ele>33</ele>
        <time>2021-01-09T12:47:19Z</time>
      </trkpt>
      <trkpt lat="43.59971" lon="3.81287">
        <ele>33.1</ele>
        <time>2021-01-09T12:47:20Z</time>
      </trkpt>
      <trkpt lat="43.59969" lon="3.81284">
        <ele>33</ele>
        <time>2021-01-09T12:47:21Z</time>
      </trkpt>
      <trkpt lat="43.59966" lon="3.81281">
        <ele>33.6</ele>
        <time>2021-01-09T12:47:22Z</time>
      </trkpt>
      <trkpt lat="43.59964" lon="3.81278">
        <ele>33.9</ele>
        <time>2021-01-09T12:47:23Z</time>
      </trkpt>
      <trkpt lat="43.59962" lon="3.81276">
        <ele>34.1</ele>
        <time>2021-01-09T12:47:24Z</time>
      </trkpt>
      <trkpt lat="43.5996" lon="3.81273">
        <ele>34.2</ele>
        <time>2021-01-09T12:47:25Z</time>
      </trkpt>
      <trkpt lat="43.59957" lon="3.81271">
        <ele>34.5</ele>
        <time>2021-01-09T12:47:26Z</time>
      </trkpt>
      <trkpt lat="43.59955" lon="3.81268">
        <ele>34.6</ele>
        <time>2021-01-09T12:47:27Z</time>
      </trkpt>
      <trkpt lat="43.59953" lon="3.81265">
        <ele>34.8</ele>
        <time>2021-01-09T12:47:28Z</time>
      </trkpt>
      <trkpt lat="43.5995" lon="3.81263">
        <ele>35</ele>
        <time>2021-01-09T12:47:29Z</time>
      </trkpt>
      <trkpt lat="43.59948" lon="3.81261">
        <ele>35.1</ele>
        <time>2021-01-09T12:47:30Z</time>
      </trkpt>
      <trkpt lat="43.59946" lon="3.81259">
        <ele>34</ele>
        <time>2021-01-09T12:47:31Z</time>
      </trkpt>
      <trkpt lat="43.59944" lon="3.81257">
        <ele>35.3</ele>
        <time>2021-01-09T12:47:32Z</time>
      </trkpt>
      <trkpt lat="43.59941" lon="3.81255">
        <ele>35.5</ele>
        <time>2021-01-09T12:47:33Z</time>
      </trkpt>
      <trkpt lat="43.59939" lon="3.81253">
        <ele>35.7</ele>
        <time>2021-01-09T12:47:34Z</time>
      </trkpt>
      <trkpt lat="43.59937" lon="3.81251">
        <ele>35.8</ele>
        <time>2021-01-09T12:47:35Z</time>
      </trkpt>
      <trkpt lat="43.59934" lon="3.81249">
        <ele>36.1</ele>
        <time>2021-01-09T12:47:36Z</time>
      </trkpt>
      <trkpt lat="43.59932" lon="3.81247">
        <ele>36.3</ele>
        <time>2021-01-09T12:47:37Z</time>
      </trkpt>
      <trkpt lat="43.5993" lon="3.81245">
        <ele>36.6</ele>
        <time>2021-01-09T12:47:38Z</time>
      </trkpt>
      <trkpt lat="43.59927" lon="3.81244">
        <ele>36.9</ele>
        <time>2021-01-09T12:47:39Z</time>
      </trkpt>
      <trkpt lat="43.59925" lon="3.81242">
        <ele>37.1</ele>
        <time>2021-01-09T12:47:40Z</time>
      </trkpt>
      <trkpt lat="43.59923" lon="3.81241">
        <ele>36</ele>
        <time>2021-01-09T12:47:41Z</time>
      </trkpt>
      <trkpt lat="43.59921" lon="3.81239">
        <ele>37.5</ele>
        <time>2021-01-09T12:47:42Z</time>
      </trkpt>
      <trkpt lat="43.59918" lon="3.81238">
        <ele>37.9</ele>
        <time>2021-01-09T12:47:43Z</time>
      </trkpt>
      <trkpt lat="43.59916" lon="3.81236">
        <ele>38</ele>
        <time>2021-01-09T12:47:44Z</time>
      </trkpt>
      <trkpt lat="43.59914" lon="3.81235">
        <ele>38.1</ele>
        <time>2021-01-09T12:47:45Z</time>
      </trkpt>
      <trkpt lat="43.59912" lon="3.81233">
        <ele>38.2</ele>
        <time>2021-01-09T12:47:46Z</time>
      </trkpt>
      <trkpt lat="43.5991" lon="3.81231">
        <ele>38.2</ele>
        <time>2021-01-09T12:47:47Z</time>
      </trkpt>
      <trkpt lat="43.59908" lon="3.81229">
        <ele>38.3</ele>
        <time>2021-01-09T12:47:48Z</time>
      </trkpt>
      <trkpt lat="43.59906" lon="3.81227">
        <ele>38.4</ele>
        <time>2021-01-09T12:47:49Z</time>
      </trkpt>
      <trkpt lat="43.59904" lon="3.81225">
        <ele>38.5</ele>
        <time>2021-01-09T12:47:50Z</time>
      </trkpt>
      <trkpt lat="43.59901" lon="3.81224">
        <ele>38</ele>
        <time>2021-01-09T12:47:51Z</time>
      </trkpt>
      <trkpt lat="43.59899" lon="3.81222">
        <ele>38.6</ele>
        <time>2021-01-09T12:47:52Z</time>
      </trkpt>
      <trkpt lat="43.59897" lon="3.8122">
        <ele>38.8</ele>
        <time>2021-01-09T12:47:53Z</time>
      </trkpt>
      <trkpt lat="43.59895" lon="3.81218">
        <ele>38.9</ele>
        <time>2021-01-09T12:47:54Z</time>
      </trkpt>
      <trkpt lat="43.59893" lon="3.81217">
        <ele>39</ele>
        <time>2021-01-09T12:47:55Z</time>
      </trkpt>
      <trkpt lat="43.59891" lon="3.81215">
        <ele>39.2</ele>
        <time>2021-01-09T12:47:56Z</time>
      </trkpt>
      <trkpt lat="43.59888" lon="3.81213">
        <ele>39.4</ele>
        <time>2021-01-09T12:47:57Z</time>
      </trkpt>
      <trkpt lat="43.59886" lon="3.81212">
        <ele>39.6</ele>
        <time>2021-01-09T12:47:58Z</time>
      </trkpt>
      <trkpt lat="43.59884" lon="3.8121">
        <ele>39.8</ele>
        <time>2021-01-09T12:47:59Z</time>
      </trkpt>
      <trkpt lat="43.59882" lon="3.81207">
        <ele>40</ele>
        <time>2021-01-09T12:48:00Z</time>
      </trkpt>
      <trkpt lat="43.5988" lon="3.81205">
        <ele>40</ele>
        <time>2021-01-09T12:48:01Z</time>
      </trkpt>
      <trkpt lat="43.59878" lon="3.81203">
        <ele>40.5</ele>
        <time>2021-01-09T12:48:02Z</time>
      </trkpt>
      <trkpt lat="43.59876" lon="3.81201">
        <ele>40.7</ele>
        <time>2021-01-09T12:48:03Z</time>
      </trkpt>
      <trkpt lat="43.59874" lon="3.81199">
        <ele>40.9</ele>
        <time>2021-01-09T12:48:04Z</time>
      </trkpt>
      <trkpt lat="43.59872" lon="3.81196">
        <ele>41.2</ele>
        <time>2021-01-09T12:48:05Z</time>
      </trkpt>
      <trkpt lat="43.5987" lon="3.81194">
        <ele>41.4</ele>
        <time>2021-01-09T12:48:06Z</time>
      </trkpt>
      <trkpt lat="43.59868" lon="3.81192">
        <ele>41.5</ele>
        <time>2021-01-09T12:48:07Z</time>
      </trkpt>
      <trkpt lat="43.59866" lon="3.8119">
        <ele>41.7</ele>
        <time>2021-01-09T12:48:08Z</time>
      </trkpt>
      <trkpt lat="43.59864" lon="3.81188">
        <ele>41.8</ele>
        <time>2021-01-09T12:48:09Z</time>
      </trkpt>
      <trkpt lat="43.59862" lon="3.81185">
        <ele>41.9</ele>
        <time>2021-01-09T12:48:10Z</time>
      </trkpt>
      <trkpt lat="43.5986" lon="3.81183">
        <ele>41</ele>
        <time>2021-01-09T12:48:11Z</time>
      </trkpt>
      <trkpt lat="43.59856" lon="3.81178">
        <ele>42.3</ele>
        <time>2021-01-09T12:48:12Z</time>
      </trkpt>
      <trkpt lat="43.59854" lon="3.81175">
        <ele>42.4</ele>
        <time>2021-01-09T12:48:13Z</time>
      </trkpt>
      <trkpt lat="43.59853" lon="3.81172">
        <ele>42.5</ele>
        <time>2021-01-09T12:48:14Z</time>
      </trkpt>
      <trkpt lat="43.59851" lon="3.81169">
        <ele>42.7</ele>
        <time>2021-01-09T12:48:15Z</time>
      </trkpt>
      <trkpt lat="43.59849" lon="3.81166">
        <ele>42.9</ele>
        <time>2021-01-09T12:48:16Z</time>
      </trkpt>
      <trkpt lat="43.59847" lon="3.81164">
        <ele>43</ele>
        <time>2021-01-09T12:48:17Z</time>
      </trkpt>
      <trkpt lat="43.59846" lon="3.81161">
        <ele>43.1</ele>
        <time>2021-01-09T12:48:18Z</time>
      </trkpt>
      <trkpt lat="43.59844" lon="3.81157">
        <ele>43.2</ele>
        <time>2021-01-09T12:48:19Z</time>
      </trkpt>
      <trkpt lat="43.59843" lon="3.81154">
        <ele>43.3</ele>
        <time>2021-01-09T12:48:20Z</time>
      </trkpt>
      <trkpt lat="43.59841" lon="3.81151">
        <ele>43.4</ele>
        <time>2021-01-09T12:48:22Z</time>
      </trkpt>
      <trkpt lat="43.59839" lon="3.81148">
        <ele>43.6</ele>
        <time>2021-01-09T12:48:23Z</time>
      </trkpt>
      <trkpt lat="43.59838" lon="3.81145">
        <ele>43.7</ele>
        <time>2021-01-09T12:48:24Z</time>
      </trkpt>
      <trkpt lat="43.59836" lon="3.81142">
        <ele>43.8</ele>
        <time>2021-01-09T12:48:25Z</time>
      </trkpt>
      <trkpt lat="43.59835" lon="3.8114">
        <ele>43.9</ele>
        <time>2021-01-09T12:48:26Z</time>
      </trkpt>
      <trkpt lat="43.59833" lon="3.81138">
        <ele>44</ele>
        <time>2021-01-09T12:48:27Z</time>
      </trkpt>
      <trkpt lat="43.5983" lon="3.81139">
        <ele>44.2</ele>
        <time>2021-01-09T12:48:28Z</time>
      </trkpt>
      <trkpt lat="43.59828" lon="3.81141">
        <ele>44.4</ele>
        <time>2021-01-09T12:48:29Z</time>
      </trkpt>
      <trkpt lat="43.59826" lon="3.81144">
        <ele>44.5</ele>
        <time>2021-01-09T12:48:30Z</time>
      </trkpt>
      <trkpt lat="43.59825" lon="3.81147">
        <ele>44</ele>
        <time>2021-01-09T12:48:31Z</time>
      </trkpt>
      <trkpt lat="43.59823" lon="3.81151">
        <ele>44.6</ele>
        <time>2021-01-09T12:48:32Z</time>
      </trkpt>
      <trkpt lat="43.59821" lon="3.81154">
        <ele>44.6</ele>
        <time>2021-01-09T12:48:33Z</time>
      </trkpt>
      <trkpt lat="43.59819" lon="3.81158">
        <ele>44.7</ele>
        <time>2021-01-09T12:48:34Z</time>
      </trkpt>
      <trkpt lat="43.59818" lon="3.81162">
        <ele>44.6</ele>
        <time>2021-01-09T12:48:35Z</time>
      </trkpt>
      <trkpt lat="43.59816" lon="3.81167">
        <ele>44.6</ele>
        <time>2021-01-09T12:48:36Z</time>
      </trkpt>
      <trkpt lat="43.59815" lon="3.81171">
        <ele>44.4</ele>
        <time>2021-01-09T12:48:37Z</time>
      </trkpt>
      <trkpt lat="43.59813" lon="3.81176">
        <ele>44.2</ele>
        <time>2021-01-09T12:48:38Z</time>
      </trkpt>
      <trkpt lat="43.59813" lon="3.81181">
        <ele>43.8</ele>
        <time>2021-01-09T12:48:39Z</time>
      </trkpt>
      <trkpt lat="43.59811" lon="3.81187">
        <ele>43.5</ele>
        <time>2021-01-09T12:48:40Z</time>
      </trkpt>
      <trkpt lat="43.5981" lon="3.81193">
        <ele>44</ele>
        <time>2021-01-09T12:48:41Z</time>
      </trkpt>
      <trkpt lat="43.59807" lon="3.81199">
        <ele>42.7</ele>
        <time>2021-01-09T12:48:42Z</time>
      </trkpt>
      <trkpt lat="43.59804" lon="3.81205">
        <ele>42.3</ele>
        <time>2021-01-09T12:48:43Z</time>
      </trkpt>
      <trkpt lat="43.59801" lon="3.81211">
        <ele>42</ele>
        <time>2021-01-09T12:48:44Z</time>
      </trkpt>
      <trkpt lat="43.59797" lon="3.81216">
        <ele>41.8</ele>
        <time>2021-01-09T12:48:45Z</time>
      </trkpt>
      <trkpt lat="43.59794" lon="3.81221">
        <ele>41.5</ele>
        <time>2021-01-09T12:48:46Z</time>
      </trkpt>
      <trkpt lat="43.5979" lon="3.81227">
        <ele>41.4</ele>
        <time>2021-01-09T12:48:47Z</time>
      </trkpt>
      <trkpt lat="43.59787" lon="3.81232">
        <ele>41.2</ele>
        <time>2021-01-09T12:48:48Z</time>
      </trkpt>
      <trkpt lat="43.59784" lon="3.81238">
        <ele>40.9</ele>
        <time>2021-01-09T12:48:49Z</time>
      </trkpt>
      <trkpt lat="43.5978" lon="3.81243">
        <ele>40.5</ele>
        <time>2021-01-09T12:48:50Z</time>
      </trkpt>
      <trkpt lat="43.59777" lon="3.81249">
        <ele>43</ele>
        <time>2021-01-09T12:48:51Z</time>
      </trkpt>
      <trkpt lat="43.59774" lon="3.81255">
        <ele>40.1</ele>
        <time>2021-01-09T12:48:52Z</time>
      </trkpt>
      <trkpt lat="43.59771" lon="3.81261">
        <ele>40.1</ele>
        <time>2021-01-09T12:48:53Z</time>
      </trkpt>
      <trkpt lat="43.59768" lon="3.81266">
        <ele>39.9</ele>
        <time>2021-01-09T12:48:54Z</time>
      </trkpt>
      <trkpt lat="43.59765" lon="3.81272">
        <ele>39.7</ele>
        <time>2021-01-09T12:48:55Z</time>
      </trkpt>
      <trkpt lat="43.59762" lon="3.81277">
        <ele>39.5</ele>
        <time>2021-01-09T12:48:56Z</time>
      </trkpt>
      <trkpt lat="43.59759" lon="3.81283">
        <ele>39.3</ele>
        <time>2021-01-09T12:48:57Z</time>
      </trkpt>
      <trkpt lat="43.59756" lon="3.81289">
        <ele>39.1</ele>
        <time>2021-01-09T12:48:58Z</time>
      </trkpt>
      <trkpt lat="43.59753" lon="3.81295">
        <ele>39</ele>
        <time>2021-01-09T12:48:59Z</time>
      </trkpt>
      <trkpt lat="43.59751" lon="3.81301">
        <ele>39</ele>
        <time>2021-01-09T12:49:00Z</time>
      </trkpt>
      <trkpt lat="43.59748" lon="3.81307">
        <ele>41</ele>
        <time>2021-01-09T12:49:01Z</time>
      </trkpt>
      <trkpt lat="43.59745" lon="3.81312">
        <ele>38.6</ele>
        <time>2021-01-09T12:49:02Z</time>
      </trkpt>
      <trkpt lat="43.59742" lon="3.81318">
        <ele>38.4</ele>
        <time>2021-01-09T12:49:03Z</time>
      </trkpt>
      <trkpt lat="43.59739" lon="3.81323">
        <ele>38.2</ele>
        <time>2021-01-09T12:49:04Z</time>
      </trkpt>
      <trkpt lat="43.59737" lon="3.81329">
        <ele>38.1</ele>
        <time>2021-01-09T12:49:05Z</time>
      </trkpt>
      <trkpt lat="43.59734" lon="3.81334">
        <ele>38</ele>
        <time>2021-01-09T12:49:06Z</time>
      </trkpt>
      <trkpt lat="43.59731" lon="3.81339">
        <ele>37.9</ele>
        <time>2021-01-09T12:49:07Z</time>
      </trkpt>
      <trkpt lat="43.59728" lon="3.81345">
        <ele>37.7</ele>
        <time>2021-01-09T12:49:08Z</time>
      </trkpt>
      <trkpt lat="43.59725" lon="3.8135">
        <ele>37.5</ele>
        <time>2021-01-09T12:49:09Z</time>
      </trkpt>
      <trkpt lat="43.59722" lon="3.81356">
        <ele>37.2</ele>
        <time>2021-01-09T12:49:10Z</time>
      </trkpt>
      <trkpt lat="43.59719" lon="3.81362">
        <ele>40</ele>
        <time>2021-01-09T12:49:11Z</time>
      </trkpt>
      <trkpt lat="43.59715" lon="3.81368">
        <ele>36.5</ele>
        <time>2021-01-09T12:49:12Z</time>
      </trkpt>
      <trkpt lat="43.59712" lon="3.81374">
        <ele>36.2</ele>
        <time>2021-01-09T12:49:13Z</time>
      </trkpt>
      <trkpt lat="43.59709" lon="3.8138">
        <ele>35.8</ele>
        <time>2021-01-09T12:49:14Z</time>
      </trkpt>
      <trkpt lat="43.59706" lon="3.81387">
        <ele>35.5</ele>
        <time>2021-01-09T12:49:15Z</time>
      </trkpt>
      <trkpt lat="43.59703" lon="3.81393">
        <ele>35.1</ele>
        <time>2021-01-09T12:49:16Z</time>
      </trkpt>
      <trkpt lat="43.59699" lon="3.814">
        <ele>34.4</ele>
        <time>2021-01-09T12:49:17Z</time>
      </trkpt>
      <trkpt lat="43.59696" lon="3.81407">
        <ele>33.8</ele>
        <time>2021-01-09T12:49:18Z</time>
      </trkpt>
      <trkpt lat="43.59692" lon="3.81414">
        <ele>33.2</ele>
        <time>2021-01-09T12:49:19Z</time>
      </trkpt>
      <trkpt lat="43.59689" lon="3.81421">
        <ele>32.9</ele>
        <time>2021-01-09T12:49:20Z</time>
      </trkpt>
      <trkpt lat="43.59685" lon="3.81427">
        <ele>38</ele>
        <time>2021-01-09T12:49:21Z</time>
      </trkpt>
      <trkpt lat="43.59682" lon="3.81432">
        <ele>32.5</ele>
        <time>2021-01-09T12:49:22Z</time>
      </trkpt>
      <trkpt lat="43.59677" lon="3.81435">
        <ele>32.2</ele>
        <time>2021-01-09T12:49:23Z</time>
      </trkpt>
      <trkpt lat="43.59671" lon="3.81436">
        <ele>31.8</ele>
        <time>2021-01-09T12:49:24Z</time>
      </trkpt>
      <trkpt lat="43.59665" lon="3.81434">
        <ele>31.7</ele>
        <time>2021-01-09T12:49:25Z</time>
      </trkpt>
      <trkpt lat="43.59659" lon="3.81432">
        <ele>31.8</ele>
        <time>2021-01-09T12:49:26Z</time>
      </trkpt>
      <trkpt lat="43.59654" lon="3.81429">
        <ele>31.9</ele>
        <time>2021-01-09T12:49:27Z</time>
      </trkpt>
      <trkpt lat="43.59648" lon="3.81426">
        <ele>31.9</ele>
        <time>2021-01-09T12:49:28Z</time>
      </trkpt>
      <trkpt lat="43.59643" lon="3.81424">
        <ele>31.8</ele>
        <time>2021-01-09T12:49:29Z</time>
      </trkpt>
      <trkpt lat="43.59637" lon="3.81423">
        <ele>31.6</ele>
        <time>2021-01-09T12:49:30Z</time>
      </trkpt>
      <trkpt lat="43.59631" lon="3.81421">
        <ele>36</ele>
        <time>2021-01-09T12:49:31Z</time>
      </trkpt>
      <trkpt lat="43.59625" lon="3.81421">
        <ele>30.8</ele>
        <time>2021-01-09T12:49:32Z</time>
      </trkpt>
      <trkpt lat="43.59619" lon="3.81421">
        <ele>30.4</ele>
        <time>2021-01-09T12:49:33Z</time>
      </trkpt>
      <trkpt lat="43.59613" lon="3.8142">
        <ele>30</ele>
        <time>2021-01-09T12:49:34Z</time>
      </trkpt>
      <trkpt lat="43.59607" lon="3.81419">
        <ele>29.8</ele>
        <time>2021-01-09T12:49:35Z</time>
      </trkpt>
      <trkpt lat="43.59602" lon="3.81419">
        <ele>29.6</ele>
        <time>2021-01-09T12:49:36Z</time>
      </trkpt>
      <trkpt lat="43.59596" lon="3.81418">
        <ele>29.4</ele>
        <time>2021-01-09T12:49:37Z</time>
      </trkpt>
      <trkpt lat="43.59591" lon="3.81418">
        <ele>29.3</ele>
        <time>2021-01-09T12:49:38Z</time>
      </trkpt>
      <trkpt lat="43.59585" lon="3.81418">
        <ele>29.1</ele>
        <time>2021-01-09T12:49:39Z</time>
      </trkpt>
      <trkpt lat="43.59579" lon="3.81417">
        <ele>29</ele>
        <time>2021-01-09T12:49:40Z</time>
      </trkpt>
      <trkpt lat="43.59573" lon="3.81416">
        <ele>34</ele>
        <time>2021-01-09T12:49:41Z</time>
      </trkpt>
      <trkpt lat="43.59568" lon="3.81416">
        <ele>29</ele>
        <time>2021-01-09T12:49:42Z</time>
      </trkpt>
      <trkpt lat="43.59562" lon="3.81416">
        <ele>29</ele>
        <time>2021-01-09T12:49:43Z</time>
      </trkpt>
      <trkpt lat="43.59556" lon="3.81415">
        <ele>29.1</ele>
        <time>2021-01-09T12:49:44Z</time>
      </trkpt>
      <trkpt lat="43.5955" lon="3.81414">
        <ele>29.1</ele>
        <time>2021-01-09T12:49:45Z</time>
      </trkpt>
      <trkpt lat="43.59545" lon="3.81414">
        <ele>29.1</ele>
        <time>2021-01-09T12:49:46Z</time>
      </trkpt>
      <trkpt lat="43.59539" lon="3.81413">
        <ele>29.1</ele>
        <time>2021-01-09T12:49:47Z</time>
      </trkpt>
      <trkpt lat="43.59534" lon="3.81412">
        <ele>29.2</ele>
        <time>2021-01-09T12:49:48Z</time>
      </trkpt>
      <trkpt lat="43.59528" lon="3.81412">
        <ele>29.2</ele>
        <time>2021-01-09T12:49:49Z</time>
      </trkpt>
      <trkpt lat="43.59523" lon="3.81411">
        <ele>29.2</ele>
        <time>2021-01-09T12:49:50Z</time>
      </trkpt>
      <trkpt lat="43.59518" lon="3.81411">
        <ele>32</ele>
        <time>2021-01-09T12:49:51Z</time>
      </trkpt>
      <trkpt lat="43.59513" lon="3.81411">
        <ele>29.1</ele>
        <time>2021-01-09T12:49:52Z</time>
      </trkpt>
      <trkpt lat="43.59508" lon="3.8141">
        <ele>29.1</ele>
        <time>2021-01-09T12:49:53Z</time>
      </trkpt>
      <trkpt lat="43.59502" lon="3.81409">
        <ele>29</ele>
        <time>2021-01-09T12:49:54Z</time>
      </trkpt>
      <trkpt lat="43.59497" lon="3.81409">
        <ele>28.9</ele>
        <time>2021-01-09T12:49:55Z</time>
      </trkpt>
      <trkpt lat="43.59492" lon="3.81408">
        <ele>28.8</ele>
        <time>2021-01-09T12:49:56Z</time>
      </trkpt>
      <trkpt lat="43.59487" lon="3.81407">
        <ele>28.7</ele>
        <time>2021-01-09T12:49:57Z</time>
      </trkpt>
      <trkpt lat="43.59481" lon="3.81407">
        <ele>28.6</ele>
        <time>2021-01-09T12:49:58Z</time>
      </trkpt>
      <trkpt lat="43.59476" lon="3.81406">
        <ele>28.5</ele>
        <time>2021-01-09T12:49:59Z</time>
      </trkpt>
      <trkpt lat="43.5947" lon="3.81406">
        <ele>28.4</ele>
        <time>2021-01-09T12:50:00Z</time>
      </trkpt>
      <trkpt lat="43.59465" lon="3.81405">
        <ele>31</ele>
        <time>2021-01-09T12:50:01Z</time>
      </trkpt>
      <trkpt lat="43.5946" lon="3.81403">
        <ele>28.5</ele>
        <time>2021-01-09T12:50:02Z</time>
      </trkpt>
      <trkpt lat="43.59454" lon="3.81402">
        <ele>28.5</ele>
        <time>2021-01-09T12:50:03Z</time>
      </trkpt>
      <trkpt lat="43.59449" lon="3.814">
        <ele>28.6</ele>
        <time>2021-01-09T12:50:04Z</time>
      </trkpt>
      <trkpt lat="43.59444" lon="3.81398">
        <ele>28.7</ele>
        <time>2021-01-09T12:50:05Z</time>
      </trkpt>
      <trkpt lat="43.59439" lon="3.81396">
        <ele>28.5</ele>
        <time>2021-01-09T12:50:06Z</time>
      </trkpt>
      <trkpt lat="43.59434" lon="3.81393">
        <ele>28.5</ele>
        <time>2021-01-09T12:50:07Z</time>
      </trkpt>
      <trkpt lat="43.59428" lon="3.8139">
        <ele>28.4</ele>
        <time>2021-01-09T12:50:08Z</time>
      </trkpt>
      <trkpt lat="43.59423" lon="3.81388">
        <ele>28.3</ele>
        <time>2021-01-09T12:50:09Z</time>
      </trkpt>
      <trkpt lat="43.59417" lon="3.81385">
        <ele>28.2</ele>
        <time>2021-01-09T12:50:10Z</time>
      </trkpt>
      <trkpt lat="43.59412" lon="3.81383">
        <ele>30</ele>
        <time>2021-01-09T12:50:11Z</time>
      </trkpt>
      <trkpt lat="43.59407" lon="3.8138">
        <ele>28</ele>
        <time>2021-01-09T12:50:12Z</time>
      </trkpt>
      <trkpt lat="43.59402" lon="3.81378">
        <ele>27.9</ele>
        <time>2021-01-09T12:50:13Z</time>
      </trkpt>
      <trkpt lat="43.59397" lon="3.81375">
        <ele>27.8</ele>
        <time>2021-01-09T12:50:14Z</time>
      </trkpt>
      <trkpt lat="43.59392" lon="3.81373">
        <ele>27.7</ele>
        <time>2021-01-09T12:50:15Z</time>
      </trkpt>
      <trkpt lat="43.59387" lon="3.8137">
        <ele>27.6</ele>
        <time>2021-01-09T12:50:16Z</time>
      </trkpt>
      <trkpt lat="43.59381" lon="3.81368">
        <ele>27.5</ele>
        <time>2021-01-09T12:50:17Z</time>
      </trkpt>
      <trkpt lat="43.59376" lon="3.81365">
        <ele>27.5</ele>
        <time>2021-01-09T12:50:18Z</time>
      </trkpt>
      <trkpt lat="43.59371" lon="3.81363">
        <ele>27.3</ele>
        <time>2021-01-09T12:50:19Z</time>
      </trkpt>
      <trkpt lat="43.59366" lon="3.81361">
        <ele>27.2</ele>
        <time>2021-01-09T12:50:20Z</time>
      </trkpt>
      <trkpt lat="43.59357" lon="3.81356">
        <ele>30</ele>
        <time>2021-01-09T12:50:21Z</time>
      </trkpt>
      <trkpt lat="43.59352" lon="3.81353">
        <ele>27.3</ele>
        <time>2021-01-09T12:50:22Z</time>
      </trkpt>
      <trkpt lat="43.59347" lon="3.8135">
        <ele>27.4</ele>
        <time>2021-01-09T12:50:23Z</time>
      </trkpt>
      <trkpt lat="43.59342" lon="3.81347">
        <ele>27.5</ele>
        <time>2021-01-09T12:50:24Z</time>
      </trkpt>
      <trkpt lat="43.59337" lon="3.81344">
        <ele>27.6</ele>
        <time>2021-01-09T12:50:25Z</time>
      </trkpt>
      <trkpt lat="43.59332" lon="3.81342">
        <ele>27.7</ele>
        <time>2021-01-09T12:50:26Z</time>
      </trkpt>
      <trkpt lat="43.59327" lon="3.81339">
        <ele>27.6</ele>
        <time>2021-01-09T12:50:27Z</time>
      </trkpt>
      <trkpt lat="43.59322" lon="3.81337">
        <ele>27.5</ele>
        <time>2021-01-09T12:50:28Z</time>
      </trkpt>
      <trkpt lat="43.59312" lon="3.81332">
        <ele>27.3</ele>
        <time>2021-01-09T12:50:30Z</time>
      </trkpt>
      <trkpt lat="43.59308" lon="3.8133">
        <ele>27.2</ele>
        <time>2021-01-09T12:50:32Z</time>
      </trkpt>
      <trkpt lat="43.59303" lon="3.81327">
        <ele>27.2</ele>
        <time>2021-01-09T12:50:33Z</time>
      </trkpt>
      <trkpt lat="43.59298" lon="3.81325">
        <ele>27.3</ele>
        <time>2021-01-09T12:50:34Z</time>
      </trkpt>
      <trkpt lat="43.59294" lon="3.81323">
        <ele>27.4</ele>
        <time>2021-01-09T12:50:35Z</time>
      </trkpt>
      <trkpt lat="43.59289" lon="3.81322">
        <ele>27.4</ele>
        <time>2021-01-09T12:50:36Z</time>
      </trkpt>
      <trkpt lat="43.59285" lon="3.8132">
        <ele>27.5</ele>
        <time>2021-01-09T12:50:37Z</time>
      </trkpt>
      <trkpt lat="43.59281" lon="3.81319">
        <ele>27.5</ele>
        <time>2021-01-09T12:50:38Z</time>
      </trkpt>
      <trkpt lat="43.59276" lon="3.81317">
        <ele>27.6</ele>
        <time>2021-01-09T12:50:39Z</time>
      </trkpt>
      <trkpt lat="43.59272" lon="3.81317">
        <ele>27.5</ele>
        <time>2021-01-09T12:50:40Z</time>
      </trkpt>
      <trkpt lat="43.59268" lon="3.81316">
        <ele>30</ele>
        <time>2021-01-09T12:50:41Z</time>
      </trkpt>
      <trkpt lat="43.59265" lon="3.81318">
        <ele>27.3</ele>
        <time>2021-01-09T12:50:42Z</time>
      </trkpt>
      <trkpt lat="43.59261" lon="3.81322">
        <ele>27.2</ele>
        <time>2021-01-09T12:50:43Z</time>
      </trkpt>
      <trkpt lat="43.59258" lon="3.81326">
        <ele>27.1</ele>
        <time>2021-01-09T12:50:44Z</time>
      </trkpt>
      <trkpt lat="43.59255" lon="3.81331">
        <ele>27</ele>
        <time>2021-01-09T12:50:45Z</time>
      </trkpt>
      <trkpt lat="43.59252" lon="3.81336">
        <ele>26.9</ele>
        <time>2021-01-09T12:50:46Z</time>
      </trkpt>
      <trkpt lat="43.59249" lon="3.81341">
        <ele>26.7</ele>
        <time>2021-01-09T12:50:47Z</time>
      </trkpt>
      <trkpt lat="43.59247" lon="3.81347">
        <ele>26.5</ele>
        <time>2021-01-09T12:50:48Z</time>
      </trkpt>
      <trkpt lat="43.59244" lon="3.81352">
        <ele>26.3</ele>
        <time>2021-01-09T12:50:49Z</time>
      </trkpt>
      <trkpt lat="43.59241" lon="3.81357">
        <ele>26.1</ele>
        <time>2021-01-09T12:50:50Z</time>
      </trkpt>
      <trkpt lat="43.59238" lon="3.81362">
        <ele>28</ele>
        <time>2021-01-09T12:50:51Z</time>
      </trkpt>
      <trkpt lat="43.59235" lon="3.81367">
        <ele>26</ele>
        <time>2021-01-09T12:50:52Z</time>
      </trkpt>
      <trkpt lat="43.59233" lon="3.81372">
        <ele>26</ele>
        <time>2021-01-09T12:50:53Z</time>
      </trkpt>
      <trkpt lat="43.5923" lon="3.81377">
        <ele>26</ele>
        <time>2021-01-09T12:50:54Z</time>
      </trkpt>
      <trkpt lat="43.59227" lon="3.81381">
        <ele>26</ele>
        <time>2021-01-09T12:50:55Z</time>
      </trkpt>
      <trkpt lat="43.59225" lon="3.81386">
        <ele>26</ele>
        <time>2021-01-09T12:50:56Z</time>
      </trkpt>
      <trkpt lat="43.59223" lon="3.8139">
        <ele>26</ele>
        <time>2021-01-09T12:50:57Z</time>
      </trkpt>
      <trkpt lat="43.5922" lon="3.81395">
        <ele>25.7</ele>
        <time>2021-01-09T12:50:58Z</time>
      </trkpt>
      <trkpt lat="43.59218" lon="3.81399">
        <ele>25.5</ele>
        <time>2021-01-09T12:50:59Z</time>
      </trkpt>
      <trkpt lat="43.59216" lon="3.81403">
        <ele>25.4</ele>
        <time>2021-01-09T12:51:00Z</time>
      </trkpt>
      <trkpt lat="43.59214" lon="3.81407">
        <ele>26</ele>
        <time>2021-01-09T12:51:01Z</time>
      </trkpt>
      <trkpt lat="43.59211" lon="3.81412">
        <ele>25.1</ele>
        <time>2021-01-09T12:51:02Z</time>
      </trkpt>
      <trkpt lat="43.59209" lon="3.81417">
        <ele>25</ele>
        <time>2021-01-09T12:51:03Z</time>
      </trkpt>
      <trkpt lat="43.59206" lon="3.81422">
        <ele>24.8</ele>
        <time>2021-01-09T12:51:04Z</time>
      </trkpt>
      <trkpt lat="43.59203" lon="3.81427">
        <ele>24.6</ele>
        <time>2021-01-09T12:51:05Z</time>
      </trkpt>
      <trkpt lat="43.592" lon="3.81431">
        <ele>24.5</ele>
        <time>2021-01-09T12:51:06Z</time>
      </trkpt>
      <trkpt lat="43.59198" lon="3.81436">
        <ele>24.3</ele>
        <time>2021-01-09T12:51:07Z</time>
      </trkpt>
      <trkpt lat="43.59195" lon="3.81441">
        <ele>24.1</ele>
        <time>2021-01-09T12:51:08Z</time>
      </trkpt>
      <trkpt lat="43.59192" lon="3.81446">
        <ele>24</ele>
        <time>2021-01-09T12:51:09Z</time>
      </trkpt>
      <trkpt lat="43.59189" lon="3.81451">
        <ele>24</ele>
        <time>2021-01-09T12:51:10Z</time>
      </trkpt>
      <trkpt lat="43.59186" lon="3.81456">
        <ele>25</ele>
        <time>2021-01-09T12:51:11Z</time>
      </trkpt>
      <trkpt lat="43.59183" lon="3.81461">
        <ele>24</ele>
        <time>2021-01-09T12:51:12Z</time>
      </trkpt>
      <trkpt lat="43.5918" lon="3.81465">
        <ele>24</ele>
        <time>2021-01-09T12:51:13Z</time>
      </trkpt>
      <trkpt lat="43.59177" lon="3.8147">
        <ele>24</ele>
        <time>2021-01-09T12:51:14Z</time>
      </trkpt>
      <trkpt lat="43.59174" lon="3.81475">
        <ele>24</ele>
        <time>2021-01-09T12:51:15Z</time>
      </trkpt>
      <trkpt lat="43.59172" lon="3.81479">
        <ele>24</ele>
        <time>2021-01-09T12:51:16Z</time>
      </trkpt>
      <trkpt lat="43.59169" lon="3.81484">
        <ele>24</ele>
        <time>2021-01-09T12:51:17Z</time>
      </trkpt>
      <trkpt lat="43.59166" lon="3.81489">
        <ele>24</ele>
        <time>2021-01-09T12:51:18Z</time>
      </trkpt>
      <trkpt lat="43.59163" lon="3.81494">
        <ele>24.1</ele>
        <time>2021-01-09T12:51:19Z</time>
      </trkpt>
      <trkpt lat="43.59161" lon="3.815">
        <ele>24.2</ele>
        <time>2021-01-09T12:51:20Z</time>
      </trkpt>
      <trkpt lat="43.5916" lon="3.81506">
        <ele>25</ele>
        <time>2021-01-09T12:51:21Z</time>
      </trkpt>
      <trkpt lat="43.5916" lon="3.81513">
        <ele>24.4</ele>
        <time>2021-01-09T12:51:22Z</time>
      </trkpt>
      <trkpt lat="43.5916" lon="3.81519">
        <ele>24.4</ele>
        <time>2021-01-09T12:51:23Z</time>
      </trkpt>
      <trkpt lat="43.59162" lon="3.81525">
        <ele>24.3</ele>
        <time>2021-01-09T12:51:24Z</time>
      </trkpt>
      <trkpt lat="43.59164" lon="3.81531">
        <ele>24.2</ele>
        <time>2021-01-09T12:51:25Z</time>
      </trkpt>
      <trkpt lat="43.59166" lon="3.81537">
        <ele>24.1</ele>
        <time>2021-01-09T12:51:26Z</time>
      </trkpt>
      <trkpt lat="43.59168" lon="3.81543">
        <ele>24</ele>
        <time>2021-01-09T12:51:27Z</time>
      </trkpt>
      <trkpt lat="43.5917" lon="3.81549">
        <ele>23.9</ele>
        <time>2021-01-09T12:51:28Z</time>
      </trkpt>
      <trkpt lat="43.59172" lon="3.81554">
        <ele>23.8</ele>
        <time>2021-01-09T12:51:29Z</time>
      </trkpt>
      <trkpt lat="43.59174" lon="3.8156">
        <ele>23.8</ele>
        <time>2021-01-09T12:51:30Z</time>
      </trkpt>
      <trkpt lat="43.59175" lon="3.81566">
        <ele>25</ele>
        <time>2021-01-09T12:51:31Z</time>
      </trkpt>
      <trkpt lat="43.59177" lon="3.81572">
        <ele>23.8</ele>
        <time>2021-01-09T12:51:32Z</time>
      </trkpt>
      <trkpt lat="43.59179" lon="3.81577">
        <ele>23.9</ele>
        <time>2021-01-09T12:51:33Z</time>
      </trkpt>
      <trkpt lat="43.5918" lon="3.81582">
        <ele>24</ele>
        <time>2021-01-09T12:51:34Z</time>
      </trkpt>
      <trkpt lat="43.59181" lon="3.81588">
        <ele>23.7</ele>
        <time>2021-01-09T12:51:35Z</time>
      </trkpt>
      <trkpt lat="43.5918" lon="3.81593">
        <ele>23.3</ele>
        <time>2021-01-09T12:51:36Z</time>
      </trkpt>
      <trkpt lat="43.59177" lon="3.81597">
        <ele>23</ele>
        <time>2021-01-09T12:51:37Z</time>
      </trkpt>
      <trkpt lat="43.59174" lon="3.816">
        <ele>22.8</ele>
        <time>2021-01-09T12:51:38Z</time>
      </trkpt>
      <trkpt lat="43.59172" lon="3.81602">
        <ele>22.7</ele>
        <time>2021-01-09T12:51:39Z</time>
      </trkpt>
      <trkpt lat="43.5917" lon="3.81604">
        <ele>22.5</ele>
        <time>2021-01-09T12:51:40Z</time>
      </trkpt>
      <trkpt lat="43.59168" lon="3.81606">
        <ele>26</ele>
        <time>2021-01-09T12:51:41Z</time>
      </trkpt>
      <trkpt lat="43.59165" lon="3.81609">
        <ele>22.2</ele>
        <time>2021-01-09T12:51:42Z</time>
      </trkpt>
      <trkpt lat="43.5916" lon="3.81611">
        <ele>22.2</ele>
        <time>2021-01-09T12:51:43Z</time>
      </trkpt>
      <trkpt lat="43.59149" lon="3.81614">
        <ele>22.5</ele>
        <time>2021-01-09T12:51:45Z</time>
      </trkpt>
      <trkpt lat="43.59144" lon="3.81613">
        <ele>22.7</ele>
        <time>2021-01-09T12:51:46Z</time>
      </trkpt>
      <trkpt lat="43.59139" lon="3.81611">
        <ele>23</ele>
        <time>2021-01-09T12:51:47Z</time>
      </trkpt>
      <trkpt lat="43.59134" lon="3.8161">
        <ele>23.1</ele>
        <time>2021-01-09T12:51:48Z</time>
      </trkpt>
      <trkpt lat="43.59129" lon="3.8161">
        <ele>23.1</ele>
        <time>2021-01-09T12:51:49Z</time>
      </trkpt>
      <trkpt lat="43.59123" lon="3.81609">
        <ele>23.2</ele>
        <time>2021-01-09T12:51:50Z</time>
      </trkpt>
      <trkpt lat="43.59118" lon="3.81606">
        <ele>26</ele>
        <time>2021-01-09T12:51:51Z</time>
      </trkpt>
      <trkpt lat="43.59114" lon="3.81603">
        <ele>23.4</ele>
        <time>2021-01-09T12:51:52Z</time>
      </trkpt>
      <trkpt lat="43.59111" lon="3.81598">
        <ele>23.5</ele>
        <time>2021-01-09T12:51:53Z</time>
      </trkpt>
      <trkpt lat="43.59107" lon="3.81593">
        <ele>23.6</ele>
        <time>2021-01-09T12:51:54Z</time>
      </trkpt>
      <trkpt lat="43.59104" lon="3.81587">
        <ele>23.6</ele>
        <time>2021-01-09T12:51:55Z</time>
      </trkpt>
      <trkpt lat="43.591" lon="3.81581">
        <ele>23.6</ele>
        <time>2021-01-09T12:51:56Z</time>
      </trkpt>
      <trkpt lat="43.59096" lon="3.81576">
        <ele>23.5</ele>
        <time>2021-01-09T12:51:57Z</time>
      </trkpt>
      <trkpt lat="43.59092" lon="3.8157">
        <ele>23.3</ele>
        <time>2021-01-09T12:51:58Z</time>
      </trkpt>
      <trkpt lat="43.59089" lon="3.81565">
        <ele>23.2</ele>
        <time>2021-01-09T12:51:59Z</time>
      </trkpt>
      <trkpt lat="43.59085" lon="3.81559">
        <ele>23.1</ele>
        <time>2021-01-09T12:52:00Z</time>
      </trkpt>
      <trkpt lat="43.59081" lon="3.81554">
        <ele>26</ele>
        <time>2021-01-09T12:52:01Z</time>
      </trkpt>
      <trkpt lat="43.59077" lon="3.81549">
        <ele>23.2</ele>
        <time>2021-01-09T12:52:02Z</time>
      </trkpt>
      <trkpt lat="43.59073" lon="3.81544">
        <ele>23.3</ele>
        <time>2021-01-09T12:52:03Z</time>
      </trkpt>
      <trkpt lat="43.5907" lon="3.81539">
        <ele>23.3</ele>
        <time>2021-01-09T12:52:04Z</time>
      </trkpt>
      <trkpt lat="43.59066" lon="3.81534">
        <ele>23.3</ele>
        <time>2021-01-09T12:52:05Z</time>
      </trkpt>
      <trkpt lat="43.59062" lon="3.81528">
        <ele>23.2</ele>
        <time>2021-01-09T12:52:06Z</time>
      </trkpt>
      <trkpt lat="43.59059" lon="3.81523">
        <ele>23.1</ele>
        <time>2021-01-09T12:52:07Z</time>
      </trkpt>
      <trkpt lat="43.59055" lon="3.81518">
        <ele>23</ele>
        <time>2021-01-09T12:52:08Z</time>
      </trkpt>
      <trkpt lat="43.59052" lon="3.81513">
        <ele>22.9</ele>
        <time>2021-01-09T12:52:09Z</time>
      </trkpt>
      <trkpt lat="43.59049" lon="3.81509">
        <ele>22.9</ele>
        <time>2021-01-09T12:52:10Z</time>
      </trkpt>
      <trkpt lat="43.59046" lon="3.81505">
        <ele>26</ele>
        <time>2021-01-09T12:52:11Z</time>
      </trkpt>
      <trkpt lat="43.59042" lon="3.81501">
        <ele>23</ele>
        <time>2021-01-09T12:52:12Z</time>
      </trkpt>
      <trkpt lat="43.59039" lon="3.81497">
        <ele>23</ele>
        <time>2021-01-09T12:52:13Z</time>
      </trkpt>
      <trkpt lat="43.59036" lon="3.81492">
        <ele>23</ele>
        <time>2021-01-09T12:52:14Z</time>
      </trkpt>
      <trkpt lat="43.59033" lon="3.81488">
        <ele>23</ele>
        <time>2021-01-09T12:52:15Z</time>
      </trkpt>
      <trkpt lat="43.59029" lon="3.81483">
        <ele>23</ele>
        <time>2021-01-09T12:52:16Z</time>
      </trkpt>
      <trkpt lat="43.59026" lon="3.81478">
        <ele>23</ele>
        <time>2021-01-09T12:52:17Z</time>
      </trkpt>
      <trkpt lat="43.59022" lon="3.81472">
        <ele>23</ele>
        <time>2021-01-09T12:52:18Z</time>
      </trkpt>
      <trkpt lat="43.59018" lon="3.81467">
        <ele>23</ele>
        <time>2021-01-09T12:52:19Z</time>
      </trkpt>
      <trkpt lat="43.59013" lon="3.81461">
        <ele>23</ele>
        <time>2021-01-09T12:52:20Z</time>
      </trkpt>
      <trkpt lat="43.59009" lon="3.81456">
        <ele>26</ele>
        <time>2021-01-09T12:52:21Z</time>
      </trkpt>
      <trkpt lat="43.59005" lon="3.81451">
        <ele>23</ele>
        <time>2021-01-09T12:52:22Z</time>
      </trkpt>
      <trkpt lat="43.59001" lon="3.81446">
        <ele>23</ele>
        <time>2021-01-09T12:52:23Z</time>
      </trkpt>
      <trkpt lat="43.58997" lon="3.81441">
        <ele>23.1</ele>
        <time>2021-01-09T12:52:24Z</time>
      </trkpt>
      <trkpt lat="43.58994" lon="3.81436">
        <ele>23.2</ele>
        <time>2021-01-09T12:52:25Z</time>
      </trkpt>
      <trkpt lat="43.58991" lon="3.81431">
        <ele>23.3</ele>
        <time>2021-01-09T12:52:26Z</time>
      </trkpt>
      <trkpt lat="43.58987" lon="3.81426">
        <ele>23.4</ele>
        <time>2021-01-09T12:52:27Z</time>
      </trkpt>
      <trkpt lat="43.58983" lon="3.81422">
        <ele>23.3</ele>
        <time>2021-01-09T12:52:28Z</time>
      </trkpt>
      <trkpt lat="43.58979" lon="3.81416">
        <ele>23.3</ele>
        <time>2021-01-09T12:52:29Z</time>
      </trkpt>
      <trkpt lat="43.58976" lon="3.81411">
        <ele>23.3</ele>
        <time>2021-01-09T12:52:30Z</time>
      </trkpt>
      <trkpt lat="43.58972" lon="3.81406">
        <ele>26</ele>
        <time>2021-01-09T12:52:31Z</time>
      </trkpt>
      <trkpt lat="43.58968" lon="3.81401">
        <ele>23.6</ele>
        <time>2021-01-09T12:52:32Z</time>
      </trkpt>
      <trkpt lat="43.58964" lon="3.81396">
        <ele>23.8</ele>
        <time>2021-01-09T12:52:33Z</time>
      </trkpt>
      <trkpt lat="43.58961" lon="3.81391">
        <ele>24</ele>
        <time>2021-01-09T12:52:34Z</time>
      </trkpt>
      <trkpt lat="43.58957" lon="3.81386">
        <ele>24</ele>
        <time>2021-01-09T12:52:35Z</time>
      </trkpt>
      <trkpt lat="43.58954" lon="3.81381">
        <ele>24</ele>
        <time>2021-01-09T12:52:36Z</time>
      </trkpt>
      <trkpt lat="43.5895" lon="3.81377">
        <ele>24</ele>
        <time>2021-01-09T12:52:37Z</time>
      </trkpt>
      <trkpt lat="43.58947" lon="3.81372">
        <ele>24</ele>
        <time>2021-01-09T12:52:38Z</time>
      </trkpt>
      <trkpt lat="43.58943" lon="3.81367">
        <ele>24</ele>
        <time>2021-01-09T12:52:39Z</time>
      </trkpt>
      <trkpt lat="43.58939" lon="3.81362">
        <ele>24</ele>
        <time>2021-01-09T12:52:40Z</time>
      </trkpt>
      <trkpt lat="43.58936" lon="3.81356">
        <ele>26</ele>
        <time>2021-01-09T12:52:41Z</time>
      </trkpt>
      <trkpt lat="43.58933" lon="3.81351">
        <ele>24.2</ele>
        <time>2021-01-09T12:52:42Z</time>
      </trkpt>
      <trkpt lat="43.58929" lon="3.81347">
        <ele>24.2</ele>
        <time>2021-01-09T12:52:43Z</time>
      </trkpt>
      <trkpt lat="43.58926" lon="3.81342">
        <ele>24.2</ele>
        <time>2021-01-09T12:52:44Z</time>
      </trkpt>
      <trkpt lat="43.58922" lon="3.81337">
        <ele>24.2</ele>
        <time>2021-01-09T12:52:45Z</time>
      </trkpt>
      <trkpt lat="43.58919" lon="3.81333">
        <ele>24.1</ele>
        <time>2021-01-09T12:52:46Z</time>
      </trkpt>
      <trkpt lat="43.58915" lon="3.81328">
        <ele>24.2</ele>
        <time>2021-01-09T12:52:47Z</time>
      </trkpt>
      <trkpt lat="43.58912" lon="3.81324">
        <ele>24.3</ele>
        <time>2021-01-09T12:52:48Z</time>
      </trkpt>
      <trkpt lat="43.58909" lon="3.81319">
        <ele>24.4</ele>
        <time>2021-01-09T12:52:49Z</time>
      </trkpt>
      <trkpt lat="43.58905" lon="3.81314">
        <ele>24.4</ele>
        <time>2021-01-09T12:52:50Z</time>
      </trkpt>
      <trkpt lat="43.58902" lon="3.81309">
        <ele>27</ele>
        <time>2021-01-09T12:52:51Z</time>
      </trkpt>
      <trkpt lat="43.58899" lon="3.81304">
        <ele>24.4</ele>
        <time>2021-01-09T12:52:52Z</time>
      </trkpt>
      <trkpt lat="43.58895" lon="3.813">
        <ele>24.4</ele>
        <time>2021-01-09T12:52:53Z</time>
      </trkpt>
      <trkpt lat="43.58892" lon="3.81296">
        <ele>24.4</ele>
        <time>2021-01-09T12:52:54Z</time>
      </trkpt>
      <trkpt lat="43.58889" lon="3.81291">
        <ele>24.5</ele>
        <time>2021-01-09T12:52:55Z</time>
      </trkpt>
      <trkpt lat="43.58885" lon="3.81287">
        <ele>24.7</ele>
        <time>2021-01-09T12:52:56Z</time>
      </trkpt>
      <trkpt lat="43.58882" lon="3.81282">
        <ele>24.9</ele>
        <time>2021-01-09T12:52:57Z</time>
      </trkpt>
      <trkpt lat="43.58879" lon="3.81278">
        <ele>25</ele>
        <time>2021-01-09T12:52:58Z</time>
      </trkpt>
      <trkpt lat="43.58875" lon="3.81273">
        <ele>25.2</ele>
        <time>2021-01-09T12:52:59Z</time>
      </trkpt>
      <trkpt lat="43.58872" lon="3.81268">
        <ele>25.4</ele>
        <time>2021-01-09T12:53:00Z</time>
      </trkpt>
      <trkpt lat="43.58869" lon="3.81263">
        <ele>27</ele>
        <time>2021-01-09T12:53:01Z</time>
      </trkpt>
      <trkpt lat="43.58866" lon="3.81258">
        <ele>25.7</ele>
        <time>2021-01-09T12:53:02Z</time>
      </trkpt>
      <trkpt lat="43.58862" lon="3.81254">
        <ele>25.9</ele>
        <time>2021-01-09T12:53:03Z</time>
      </trkpt>
      <trkpt lat="43.58859" lon="3.81249">
        <ele>25.9</ele>
        <time>2021-01-09T12:53:04Z</time>
      </trkpt>
      <trkpt lat="43.58855" lon="3.81244">
        <ele>25.8</ele>
        <time>2021-01-09T12:53:05Z</time>
      </trkpt>
      <trkpt lat="43.58852" lon="3.81239">
        <ele>25.7</ele>
        <time>2021-01-09T12:53:06Z</time>
      </trkpt>
      <trkpt lat="43.58848" lon="3.81234">
        <ele>25.5</ele>
        <time>2021-01-09T12:53:07Z</time>
      </trkpt>
      <trkpt lat="43.58844" lon="3.81229">
        <ele>25.4</ele>
        <time>2021-01-09T12:53:08Z</time>
      </trkpt>
      <trkpt lat="43.58841" lon="3.81224">
        <ele>25.3</ele>
        <time>2021-01-09T12:53:09Z</time>
      </trkpt>
      <trkpt lat="43.58838" lon="3.81219">
        <ele>25.3</ele>
        <time>2021-01-09T12:53:10Z</time>
      </trkpt>
      <trkpt lat="43.58834" lon="3.81214">
        <ele>27</ele>
        <time>2021-01-09T12:53:11Z</time>
      </trkpt>
      <trkpt lat="43.5883" lon="3.81209">
        <ele>25.5</ele>
        <time>2021-01-09T12:53:12Z</time>
      </trkpt>
      <trkpt lat="43.58827" lon="3.81204">
        <ele>25.7</ele>
        <time>2021-01-09T12:53:13Z</time>
      </trkpt>
      <trkpt lat="43.58823" lon="3.81199">
        <ele>25.8</ele>
        <time>2021-01-09T12:53:14Z</time>
      </trkpt>
      <trkpt lat="43.5882" lon="3.81195">
        <ele>26</ele>
        <time>2021-01-09T12:53:15Z</time>
      </trkpt>
      <trkpt lat="43.58817" lon="3.8119">
        <ele>26</ele>
        <time>2021-01-09T12:53:16Z</time>
      </trkpt>
      <trkpt lat="43.58813" lon="3.81185">
        <ele>26</ele>
        <time>2021-01-09T12:53:17Z</time>
      </trkpt>
      <trkpt lat="43.5881" lon="3.8118">
        <ele>26</ele>
        <time>2021-01-09T12:53:18Z</time>
      </trkpt>
      <trkpt lat="43.58806" lon="3.81175">
        <ele>26</ele>
        <time>2021-01-09T12:53:19Z</time>
      </trkpt>
      <trkpt lat="43.58803" lon="3.8117">
        <ele>26</ele>
        <time>2021-01-09T12:53:20Z</time>
      </trkpt>
      <trkpt lat="43.58799" lon="3.81165">
        <ele>27</ele>
        <time>2021-01-09T12:53:21Z</time>
      </trkpt>
      <trkpt lat="43.58796" lon="3.8116">
        <ele>26</ele>
        <time>2021-01-09T12:53:22Z</time>
      </trkpt>
      <trkpt lat="43.58793" lon="3.81155">
        <ele>26</ele>
        <time>2021-01-09T12:53:23Z</time>
      </trkpt>
      <trkpt lat="43.58789" lon="3.8115">
        <ele>26</ele>
        <time>2021-01-09T12:53:24Z</time>
      </trkpt>
      <trkpt lat="43.58786" lon="3.81145">
        <ele>26</ele>
        <time>2021-01-09T12:53:25Z</time>
      </trkpt>
      <trkpt lat="43.58783" lon="3.81141">
        <ele>26</ele>
        <time>2021-01-09T12:53:26Z</time>
      </trkpt>
      <trkpt lat="43.58781" lon="3.81137">
        <ele>26.1</ele>
        <time>2021-01-09T12:53:27Z</time>
      </trkpt>
      <trkpt lat="43.58778" lon="3.81133">
        <ele>26.2</ele>
        <time>2021-01-09T12:53:28Z</time>
      </trkpt>
      <trkpt lat="43.58775" lon="3.8113">
        <ele>26.3</ele>
        <time>2021-01-09T12:53:29Z</time>
      </trkpt>
      <trkpt lat="43.58773" lon="3.81126">
        <ele>26.4</ele>
        <time>2021-01-09T12:53:30Z</time>
      </trkpt>
      <trkpt lat="43.58772" lon="3.81123">
        <ele>27</ele>
        <time>2021-01-09T12:53:31Z</time>
      </trkpt>
      <trkpt lat="43.5877" lon="3.81119">
        <ele>26.5</ele>
        <time>2021-01-09T12:53:32Z</time>
      </trkpt>
      <trkpt lat="43.58769" lon="3.81116">
        <ele>26.6</ele>
        <time>2021-01-09T12:53:33Z</time>
      </trkpt>
      <trkpt lat="43.58767" lon="3.81114">
        <ele>26.5</ele>
        <time>2021-01-09T12:53:34Z</time>
      </trkpt>
      <trkpt lat="43.58765" lon="3.81111">
        <ele>26.5</ele>
        <time>2021-01-09T12:53:35Z</time>
      </trkpt>
      <trkpt lat="43.58762" lon="3.81107">
        <ele>26.5</ele>
        <time>2021-01-09T12:53:36Z</time>
      </trkpt>
      <trkpt lat="43.58759" lon="3.81103">
        <ele>26.5</ele>
        <time>2021-01-09T12:53:37Z</time>
      </trkpt>
      <trkpt lat="43.58756" lon="3.81099">
        <ele>26.6</ele>
        <time>2021-01-09T12:53:38Z</time>
      </trkpt>
      <trkpt lat="43.58753" lon="3.81095">
        <ele>26.6</ele>
        <time>2021-01-09T12:53:39Z</time>
      </trkpt>
      <trkpt lat="43.58749" lon="3.81092">
        <ele>26.7</ele>
        <time>2021-01-09T12:53:40Z</time>
      </trkpt>
      <trkpt lat="43.58745" lon="3.81088">
        <ele>28</ele>
        <time>2021-01-09T12:53:41Z</time>
      </trkpt>
      <trkpt lat="43.58742" lon="3.81085">
        <ele>26.7</ele>
        <time>2021-01-09T12:53:42Z</time>
      </trkpt>
      <trkpt lat="43.58739" lon="3.8108">
        <ele>26.8</ele>
        <time>2021-01-09T12:53:43Z</time>
      </trkpt>
      <trkpt lat="43.58735" lon="3.81076">
        <ele>26.9</ele>
        <time>2021-01-09T12:53:44Z</time>
      </trkpt>
      <trkpt lat="43.58732" lon="3.81071">
        <ele>27.1</ele>
        <time>2021-01-09T12:53:45Z</time>
      </trkpt>
      <trkpt lat="43.58729" lon="3.81067">
        <ele>27.3</ele>
        <time>2021-01-09T12:53:46Z</time>
      </trkpt>
      <trkpt lat="43.58726" lon="3.81062">
        <ele>27.6</ele>
        <time>2021-01-09T12:53:47Z</time>
      </trkpt>
      <trkpt lat="43.58723" lon="3.81058">
        <ele>27.8</ele>
        <time>2021-01-09T12:53:48Z</time>
      </trkpt>
      <trkpt lat="43.5872" lon="3.81053">
        <ele>27.8</ele>
        <time>2021-01-09T12:53:49Z</time>
      </trkpt>
      <trkpt lat="43.58717" lon="3.81049">
        <ele>27.7</ele>
        <time>2021-01-09T12:53:50Z</time>
      </trkpt>
      <trkpt lat="43.58714" lon="3.81044">
        <ele>28</ele>
        <time>2021-01-09T12:53:51Z</time>
      </trkpt>
      <trkpt lat="43.58711" lon="3.81039">
        <ele>27.4</ele>
        <time>2021-01-09T12:53:52Z</time>
      </trkpt>
      <trkpt lat="43.58708" lon="3.81035">
        <ele>27.4</ele>
        <time>2021-01-09T12:53:53Z</time>
      </trkpt>
      <trkpt lat="43.58705" lon="3.8103">
        <ele>27.3</ele>
        <time>2021-01-09T12:53:54Z</time>
      </trkpt>
      <trkpt lat="43.58702" lon="3.81026">
        <ele>27.3</ele>
        <time>2021-01-09T12:53:55Z</time>
      </trkpt>
      <trkpt lat="43.58698" lon="3.81021">
        <ele>27.1</ele>
        <time>2021-01-09T12:53:56Z</time>
      </trkpt>
      <trkpt lat="43.58695" lon="3.81016">
        <ele>27</ele>
        <time>2021-01-09T12:53:57Z</time>
      </trkpt>
      <trkpt lat="43.58692" lon="3.81012">
        <ele>27</ele>
        <time>2021-01-09T12:53:58Z</time>
      </trkpt>
      <trkpt lat="43.58688" lon="3.81008">
        <ele>26.9</ele>
        <time>2021-01-09T12:53:59Z</time>
      </trkpt>
      <trkpt lat="43.58685" lon="3.81004">
        <ele>27</ele>
        <time>2021-01-09T12:54:00Z</time>
      </trkpt>
      <trkpt lat="43.58681" lon="3.81001">
        <ele>28</ele>
        <time>2021-01-09T12:54:01Z</time>
      </trkpt>
      <trkpt lat="43.58678" lon="3.80998">
        <ele>27</ele>
        <time>2021-01-09T12:54:02Z</time>
      </trkpt>
      <trkpt lat="43.58675" lon="3.80995">
        <ele>27.1</ele>
        <time>2021-01-09T12:54:03Z</time>
      </trkpt>
      <trkpt lat="43.58673" lon="3.80992">
        <ele>27.1</ele>
        <time>2021-01-09T12:54:04Z</time>
      </trkpt>
      <trkpt lat="43.58671" lon="3.8099">
        <ele>27.1</ele>
        <time>2021-01-09T12:54:05Z</time>
      </trkpt>
      <trkpt lat="43.58669" lon="3.80994">
        <ele>27</ele>
        <time>2021-01-09T12:54:07Z</time>
      </trkpt>
      <trkpt lat="43.58669" lon="3.80998">
        <ele>27</ele>
        <time>2021-01-09T12:54:08Z</time>
      </trkpt>
      <trkpt lat="43.58672" lon="3.81002">
        <ele>26.9</ele>
        <time>2021-01-09T12:54:09Z</time>
      </trkpt>
      <trkpt lat="43.58675" lon="3.81006">
        <ele>26.8</ele>
        <time>2021-01-09T12:54:10Z</time>
      </trkpt>
      <trkpt lat="43.58678" lon="3.81009">
        <ele>28</ele>
        <time>2021-01-09T12:54:11Z</time>
      </trkpt>
      <trkpt lat="43.58682" lon="3.81013">
        <ele>28</ele>
        <time>2021-01-09T12:54:12Z</time>
      </trkpt>
      <trkpt lat="43.58685" lon="3.81016">
        <ele>26.8</ele>
        <time>2021-01-09T12:54:13Z</time>
      </trkpt>
      <trkpt lat="43.58689" lon="3.81017">
        <ele>26.9</ele>
        <time>2021-01-09T12:54:14Z</time>
      </trkpt>
      <trkpt lat="43.58693" lon="3.81017">
        <ele>27</ele>
        <time>2021-01-09T12:54:15Z</time>
      </trkpt>
      <trkpt lat="43.58696" lon="3.81017">
        <ele>27.1</ele>
        <time>2021-01-09T12:54:16Z</time>
      </trkpt>
      <trkpt lat="43.587" lon="3.8102">
        <ele>27.2</ele>
        <time>2021-01-09T12:54:17Z</time>
      </trkpt>
      <trkpt lat="43.58703" lon="3.81023">
        <ele>27.3</ele>
        <time>2021-01-09T12:54:18Z</time>
      </trkpt>
      <trkpt lat="43.58706" lon="3.81027">
        <ele>27.4</ele>
        <time>2021-01-09T12:54:19Z</time>
      </trkpt>
      <trkpt lat="43.58708" lon="3.81031">
        <ele>27.4</ele>
        <time>2021-01-09T12:54:20Z</time>
      </trkpt>
      <trkpt lat="43.58711" lon="3.81035">
        <ele>29</ele>
        <time>2021-01-09T12:54:21Z</time>
      </trkpt>
      <trkpt lat="43.58714" lon="3.81039">
        <ele>27.6</ele>
        <time>2021-01-09T12:54:22Z</time>
      </trkpt>
      <trkpt lat="43.58717" lon="3.81043">
        <ele>27.7</ele>
        <time>2021-01-09T12:54:23Z</time>
      </trkpt>
      <trkpt lat="43.58719" lon="3.81047">
        <ele>27.8</ele>
        <time>2021-01-09T12:54:24Z</time>
      </trkpt>
      <trkpt lat="43.58722" lon="3.81051">
        <ele>28</ele>
        <time>2021-01-09T12:54:25Z</time>
      </trkpt>
      <trkpt lat="43.58725" lon="3.81055">
        <ele>28</ele>
        <time>2021-01-09T12:54:26Z</time>
      </trkpt>
      <trkpt lat="43.58728" lon="3.81059">
        <ele>27.8</ele>
        <time>2021-01-09T12:54:27Z</time>
      </trkpt>
      <trkpt lat="43.58731" lon="3.81063">
        <ele>27.5</ele>
        <time>2021-01-09T12:54:28Z</time>
      </trkpt>
      <trkpt lat="43.58734" lon="3.81068">
        <ele>27.3</ele>
        <time>2021-01-09T12:54:29Z</time>
      </trkpt>
      <trkpt lat="43.58737" lon="3.81072">
        <ele>27.1</ele>
        <time>2021-01-09T12:54:30Z</time>
      </trkpt>
      <trkpt lat="43.5874" lon="3.81076">
        <ele>29</ele>
        <time>2021-01-09T12:54:31Z</time>
      </trkpt>
      <trkpt lat="43.58743" lon="3.8108">
        <ele>26.9</ele>
        <time>2021-01-09T12:54:32Z</time>
      </trkpt>
      <trkpt lat="43.58746" lon="3.81084">
        <ele>26.8</ele>
        <time>2021-01-09T12:54:33Z</time>
      </trkpt>
      <trkpt lat="43.58749" lon="3.81088">
        <ele>26.8</ele>
        <time>2021-01-09T12:54:34Z</time>
      </trkpt>
      <trkpt lat="43.58753" lon="3.81092">
        <ele>26.7</ele>
        <time>2021-01-09T12:54:35Z</time>
      </trkpt>
      <trkpt lat="43.58756" lon="3.81095">
        <ele>26.7</ele>
        <time>2021-01-09T12:54:36Z</time>
      </trkpt>
      <trkpt lat="43.5876" lon="3.81099">
        <ele>26.6</ele>
        <time>2021-01-09T12:54:37Z</time>
      </trkpt>
      <trkpt lat="43.58763" lon="3.81103">
        <ele>26.6</ele>
        <time>2021-01-09T12:54:38Z</time>
      </trkpt>
      <trkpt lat="43.58767" lon="3.81107">
        <ele>26.7</ele>
        <time>2021-01-09T12:54:39Z</time>
      </trkpt>
      <trkpt lat="43.5877" lon="3.81112">
        <ele>26.7</ele>
        <time>2021-01-09T12:54:40Z</time>
      </trkpt>
      <trkpt lat="43.58773" lon="3.81116">
        <ele>29</ele>
        <time>2021-01-09T12:54:41Z</time>
      </trkpt>
      <trkpt lat="43.58775" lon="3.81121">
        <ele>26.6</ele>
        <time>2021-01-09T12:54:42Z</time>
      </trkpt>
      <trkpt lat="43.58774" lon="3.81125">
        <ele>26.4</ele>
        <time>2021-01-09T12:54:43Z</time>
      </trkpt>
      <trkpt lat="43.58772" lon="3.81128">
        <ele>26.3</ele>
        <time>2021-01-09T12:54:44Z</time>
      </trkpt>
      <trkpt lat="43.58768" lon="3.8113">
        <ele>26.2</ele>
        <time>2021-01-09T12:54:45Z</time>
      </trkpt>
      <trkpt lat="43.58764" lon="3.81129">
        <ele>26.2</ele>
        <time>2021-01-09T12:54:46Z</time>
      </trkpt>
      <trkpt lat="43.5876" lon="3.81126">
        <ele>26.2</ele>
        <time>2021-01-09T12:54:47Z</time>
      </trkpt>
      <trkpt lat="43.58756" lon="3.81124">
        <ele>26.1</ele>
        <time>2021-01-09T12:54:48Z</time>
      </trkpt>
      <trkpt lat="43.58752" lon="3.81122">
        <ele>26</ele>
        <time>2021-01-09T12:54:49Z</time>
      </trkpt>
      <trkpt lat="43.58748" lon="3.81121">
        <ele>26</ele>
        <time>2021-01-09T12:54:50Z</time>
      </trkpt>
      <trkpt lat="43.58744" lon="3.81122">
        <ele>28</ele>
        <time>2021-01-09T12:54:51Z</time>
      </trkpt>
      <trkpt lat="43.5874" lon="3.81126">
        <ele>26</ele>
        <time>2021-01-09T12:54:52Z</time>
      </trkpt>
      <trkpt lat="43.58737" lon="3.81131">
        <ele>26</ele>
        <time>2021-01-09T12:54:53Z</time>
      </trkpt>
      <trkpt lat="43.58734" lon="3.81136">
        <ele>26</ele>
        <time>2021-01-09T12:54:54Z</time>
      </trkpt>
      <trkpt lat="43.58732" lon="3.81142">
        <ele>25.9</ele>
        <time>2021-01-09T12:54:55Z</time>
      </trkpt>
      <trkpt lat="43.5873" lon="3.81147">
        <ele>25.7</ele>
        <time>2021-01-09T12:54:56Z</time>
      </trkpt>
      <trkpt lat="43.58727" lon="3.81153">
        <ele>25.5</ele>
        <time>2021-01-09T12:54:57Z</time>
      </trkpt>
      <trkpt lat="43.58725" lon="3.81159">
        <ele>25.3</ele>
        <time>2021-01-09T12:54:58Z</time>
      </trkpt>
      <trkpt lat="43.58723" lon="3.81165">
        <ele>25.1</ele>
        <time>2021-01-09T12:54:59Z</time>
      </trkpt>
      <trkpt lat="43.5872" lon="3.81171">
        <ele>25</ele>
        <time>2021-01-09T12:55:00Z</time>
      </trkpt>
      <trkpt lat="43.58718" lon="3.81177">
        <ele>27</ele>
        <time>2021-01-09T12:55:01Z</time>
      </trkpt>
      <trkpt lat="43.58716" lon="3.81183">
        <ele>25</ele>
        <time>2021-01-09T12:55:02Z</time>
      </trkpt>
      <trkpt lat="43.58714" lon="3.81189">
        <ele>25</ele>
        <time>2021-01-09T12:55:03Z</time>
      </trkpt>
      <trkpt lat="43.58712" lon="3.81195">
        <ele>25</ele>
        <time>2021-01-09T12:55:04Z</time>
      </trkpt>
      <trkpt lat="43.5871" lon="3.81201">
        <ele>24.9</ele>
        <time>2021-01-09T12:55:05Z</time>
      </trkpt>
      <trkpt lat="43.58708" lon="3.81207">
        <ele>24.8</ele>
        <time>2021-01-09T12:55:06Z</time>
      </trkpt>
      <trkpt lat="43.58705" lon="3.81213">
        <ele>24.6</ele>
        <time>2021-01-09T12:55:07Z</time>
      </trkpt>
      <trkpt lat="43.58703" lon="3.81219">
        <ele>24.4</ele>
        <time>2021-01-09T12:55:08Z</time>
      </trkpt>
      <trkpt lat="43.58701" lon="3.81225">
        <ele>24.2</ele>
        <time>2021-01-09T12:55:09Z</time>
      </trkpt>
      <trkpt lat="43.58699" lon="3.8123">
        <ele>24.1</ele>
        <time>2021-01-09T12:55:10Z</time>
      </trkpt>
      <trkpt lat="43.58697" lon="3.81236">
        <ele>27</ele>
        <time>2021-01-09T12:55:11Z</time>
      </trkpt>
      <trkpt lat="43.58694" lon="3.81242">
        <ele>24</ele>
        <time>2021-01-09T12:55:12Z</time>
      </trkpt>
      <trkpt lat="43.58692" lon="3.81248">
        <ele>24</ele>
        <time>2021-01-09T12:55:13Z</time>
      </trkpt>
      <trkpt lat="43.5869" lon="3.81254">
        <ele>24</ele>
        <time>2021-01-09T12:55:14Z</time>
      </trkpt>
      <trkpt lat="43.58688" lon="3.81261">
        <ele>23.9</ele>
        <time>2021-01-09T12:55:15Z</time>
      </trkpt>
      <trkpt lat="43.58686" lon="3.81267">
        <ele>23.8</ele>
        <time>2021-01-09T12:55:16Z</time>
      </trkpt>
      <trkpt lat="43.58684" lon="3.81273">
        <ele>23.7</ele>
        <time>2021-01-09T12:55:17Z</time>
      </trkpt>
      <trkpt lat="43.58682" lon="3.81279">
        <ele>23.6</ele>
        <time>2021-01-09T12:55:18Z</time>
      </trkpt>
      <trkpt lat="43.5868" lon="3.81284">
        <ele>23.6</ele>
        <time>2021-01-09T12:55:19Z</time>
      </trkpt>
      <trkpt lat="43.58679" lon="3.8129">
        <ele>23.7</ele>
        <time>2021-01-09T12:55:20Z</time>
      </trkpt>
      <trkpt lat="43.58677" lon="3.81295">
        <ele>27</ele>
        <time>2021-01-09T12:55:21Z</time>
      </trkpt>
      <trkpt lat="43.58675" lon="3.81299">
        <ele>23.8</ele>
        <time>2021-01-09T12:55:22Z</time>
      </trkpt>
      <trkpt lat="43.58674" lon="3.81304">
        <ele>24</ele>
        <time>2021-01-09T12:55:23Z</time>
      </trkpt>
      <trkpt lat="43.58671" lon="3.81308">
        <ele>23.9</ele>
        <time>2021-01-09T12:55:24Z</time>
      </trkpt>
      <trkpt lat="43.58668" lon="3.81311">
        <ele>23.8</ele>
        <time>2021-01-09T12:55:25Z</time>
      </trkpt>
      <trkpt lat="43.58664" lon="3.81312">
        <ele>23.6</ele>
        <time>2021-01-09T12:55:26Z</time>
      </trkpt>
      <trkpt lat="43.5866" lon="3.81311">
        <ele>23.4</ele>
        <time>2021-01-09T12:55:27Z</time>
      </trkpt>
      <trkpt lat="43.58656" lon="3.81308">
        <ele>23.2</ele>
        <time>2021-01-09T12:55:28Z</time>
      </trkpt>
      <trkpt lat="43.58653" lon="3.81305">
        <ele>23</ele>
        <time>2021-01-09T12:55:29Z</time>
      </trkpt>
      <trkpt lat="43.58649" lon="3.81302">
        <ele>22.7</ele>
        <time>2021-01-09T12:55:30Z</time>
      </trkpt>
      <trkpt lat="43.58645" lon="3.81298">
        <ele>26</ele>
        <time>2021-01-09T12:55:31Z</time>
      </trkpt>
      <trkpt lat="43.58642" lon="3.81295">
        <ele>22.2</ele>
        <time>2021-01-09T12:55:32Z</time>
      </trkpt>
      <trkpt lat="43.58639" lon="3.81291">
        <ele>22</ele>
        <time>2021-01-09T12:55:33Z</time>
      </trkpt>
      <trkpt lat="43.58636" lon="3.81288">
        <ele>22</ele>
        <time>2021-01-09T12:55:34Z</time>
      </trkpt>
      <trkpt lat="43.58633" lon="3.81285">
        <ele>21.9</ele>
        <time>2021-01-09T12:55:35Z</time>
      </trkpt>
      <trkpt lat="43.58631" lon="3.81282">
        <ele>22</ele>
        <time>2021-01-09T12:55:36Z</time>
      </trkpt>
      <trkpt lat="43.58628" lon="3.8128">
        <ele>22</ele>
        <time>2021-01-09T12:55:37Z</time>
      </trkpt>
      <trkpt lat="43.58624" lon="3.81279">
        <ele>22</ele>
        <time>2021-01-09T12:55:38Z</time>
      </trkpt>
      <trkpt lat="43.58621" lon="3.81279">
        <ele>22</ele>
        <time>2021-01-09T12:55:39Z</time>
      </trkpt>
      <trkpt lat="43.58619" lon="3.81279">
        <ele>22</ele>
        <time>2021-01-09T12:55:40Z</time>
      </trkpt>
      <trkpt lat="43.58616" lon="3.8128">
        <ele>21.9</ele>
        <time>2021-01-09T12:55:42Z</time>
      </trkpt>
      <trkpt lat="43.58616" lon="3.81284">
        <ele>21.8</ele>
        <time>2021-01-09T12:55:44Z</time>
      </trkpt>
      <trkpt lat="43.58617" lon="3.81288">
        <ele>21.7</ele>
        <time>2021-01-09T12:55:45Z</time>
      </trkpt>
      <trkpt lat="43.58617" lon="3.81293">
        <ele>21.6</ele>
        <time>2021-01-09T12:55:46Z</time>
      </trkpt>
      <trkpt lat="43.58617" lon="3.81298">
        <ele>21.4</ele>
        <time>2021-01-09T12:55:47Z</time>
      </trkpt>
      <trkpt lat="43.58617" lon="3.81304">
        <ele>21.3</ele>
        <time>2021-01-09T12:55:48Z</time>
      </trkpt>
      <trkpt lat="43.58615" lon="3.81309">
        <ele>21.1</ele>
        <time>2021-01-09T12:55:49Z</time>
      </trkpt>
      <trkpt lat="43.58614" lon="3.81315">
        <ele>21.1</ele>
        <time>2021-01-09T12:55:50Z</time>
      </trkpt>
      <trkpt lat="43.58614" lon="3.8132">
        <ele>25</ele>
        <time>2021-01-09T12:55:51Z</time>
      </trkpt>
      <trkpt lat="43.58614" lon="3.81325">
        <ele>21.1</ele>
        <time>2021-01-09T12:55:52Z</time>
      </trkpt>
      <trkpt lat="43.58613" lon="3.8133">
        <ele>21.1</ele>
        <time>2021-01-09T12:55:53Z</time>
      </trkpt>
      <trkpt lat="43.58612" lon="3.81334">
        <ele>21</ele>
        <time>2021-01-09T12:55:54Z</time>
      </trkpt>
      <trkpt lat="43.58611" lon="3.81338">
        <ele>21</ele>
        <time>2021-01-09T12:55:55Z</time>
      </trkpt>
      <trkpt lat="43.5861" lon="3.81343">
        <ele>21</ele>
        <time>2021-01-09T12:55:56Z</time>
      </trkpt>
      <trkpt lat="43.58609" lon="3.81348">
        <ele>21</ele>
        <time>2021-01-09T12:55:57Z</time>
      </trkpt>
      <trkpt lat="43.58608" lon="3.81354">
        <ele>21</ele>
        <time>2021-01-09T12:55:58Z</time>
      </trkpt>
      <trkpt lat="43.58607" lon="3.81359">
        <ele>21</ele>
        <time>2021-01-09T12:55:59Z</time>
      </trkpt>
      <trkpt lat="43.58605" lon="3.81365">
        <ele>21</ele>
        <time>2021-01-09T12:56:00Z</time>
      </trkpt>
      <trkpt lat="43.58604" lon="3.8137">
        <ele>25</ele>
        <time>2021-01-09T12:56:01Z</time>
      </trkpt>
      <trkpt lat="43.58603" lon="3.81375">
        <ele>21</ele>
        <time>2021-01-09T12:56:02Z</time>
      </trkpt>
      <trkpt lat="43.58602" lon="3.81379">
        <ele>21</ele>
        <time>2021-01-09T12:56:03Z</time>
      </trkpt>
      <trkpt lat="43.58602" lon="3.81384">
        <ele>21</ele>
        <time>2021-01-09T12:56:04Z</time>
      </trkpt>
      <trkpt lat="43.586" lon="3.81389">
        <ele>21</ele>
        <time>2021-01-09T12:56:05Z</time>
      </trkpt>
      <trkpt lat="43.58599" lon="3.81394">
        <ele>21</ele>
        <time>2021-01-09T12:56:06Z</time>
      </trkpt>
      <trkpt lat="43.58598" lon="3.81399">
        <ele>21</ele>
        <time>2021-01-09T12:56:07Z</time>
      </trkpt>
      <trkpt lat="43.58596" lon="3.81403">
        <ele>21</ele>
        <time>2021-01-09T12:56:08Z</time>
      </trkpt>
      <trkpt lat="43.58595" lon="3.81406">
        <ele>21</ele>
        <time>2021-01-09T12:56:09Z</time>
      </trkpt>
      <trkpt lat="43.58594" lon="3.81411">
        <ele>21</ele>
        <time>2021-01-09T12:56:10Z</time>
      </trkpt>
      <trkpt lat="43.58593" lon="3.81415">
        <ele>26</ele>
        <time>2021-01-09T12:56:11Z</time>
      </trkpt>
      <trkpt lat="43.58591" lon="3.81419">
        <ele>21</ele>
        <time>2021-01-09T12:56:12Z</time>
      </trkpt>
      <trkpt lat="43.58591" lon="3.81423">
        <ele>21</ele>
        <time>2021-01-09T12:56:13Z</time>
      </trkpt>
      <trkpt lat="43.5859" lon="3.81427">
        <ele>21</ele>
        <time>2021-01-09T12:56:14Z</time>
      </trkpt>
      <trkpt lat="43.5859" lon="3.81432">
        <ele>21</ele>
        <time>2021-01-09T12:56:15Z</time>
      </trkpt>
      <trkpt lat="43.5859" lon="3.81436">
        <ele>21</ele>
        <time>2021-01-09T12:56:16Z</time>
      </trkpt>
      <trkpt lat="43.58591" lon="3.81442">
        <ele>21</ele>
        <time>2021-01-09T12:56:17Z</time>
      </trkpt>
      <trkpt lat="43.5859" lon="3.81447">
        <ele>21</ele>
        <time>2021-01-09T12:56:18Z</time>
      </trkpt>
      <trkpt lat="43.58589" lon="3.81452">
        <ele>21.1</ele>
        <time>2021-01-09T12:56:19Z</time>
      </trkpt>
      <trkpt lat="43.58588" lon="3.81457">
        <ele>21.1</ele>
        <time>2021-01-09T12:56:20Z</time>
      </trkpt>
      <trkpt lat="43.58587" lon="3.81461">
        <ele>27</ele>
        <time>2021-01-09T12:56:21Z</time>
      </trkpt>
      <trkpt lat="43.58586" lon="3.81465">
        <ele>21.1</ele>
        <time>2021-01-09T12:56:22Z</time>
      </trkpt>
      <trkpt lat="43.58585" lon="3.81469">
        <ele>21.1</ele>
        <time>2021-01-09T12:56:23Z</time>
      </trkpt>
      <trkpt lat="43.58582" lon="3.81472">
        <ele>21</ele>
        <time>2021-01-09T12:56:24Z</time>
      </trkpt>
      <trkpt lat="43.5858" lon="3.81475">
        <ele>21.1</ele>
        <time>2021-01-09T12:56:25Z</time>
      </trkpt>
      <trkpt lat="43.58577" lon="3.81477">
        <ele>21.2</ele>
        <time>2021-01-09T12:56:26Z</time>
      </trkpt>
      <trkpt lat="43.58575" lon="3.81479">
        <ele>21.3</ele>
        <time>2021-01-09T12:56:27Z</time>
      </trkpt>
      <trkpt lat="43.58573" lon="3.81482">
        <ele>21.4</ele>
        <time>2021-01-09T12:56:28Z</time>
      </trkpt>
      <trkpt lat="43.5857" lon="3.81484">
        <ele>21.5</ele>
        <time>2021-01-09T12:56:29Z</time>
      </trkpt>
      <trkpt lat="43.58567" lon="3.81486">
        <ele>21.6</ele>
        <time>2021-01-09T12:56:30Z</time>
      </trkpt>
      <trkpt lat="43.58564" lon="3.81485">
        <ele>28</ele>
        <time>2021-01-09T12:56:31Z</time>
      </trkpt>
      <trkpt lat="43.58561" lon="3.81485">
        <ele>21.8</ele>
        <time>2021-01-09T12:56:32Z</time>
      </trkpt>
      <trkpt lat="43.58559" lon="3.81487">
        <ele>21.9</ele>
        <time>2021-01-09T12:56:33Z</time>
      </trkpt>
      <trkpt lat="43.58556" lon="3.81488">
        <ele>22</ele>
        <time>2021-01-09T12:56:34Z</time>
      </trkpt>
      <trkpt lat="43.58553" lon="3.81489">
        <ele>21.9</ele>
        <time>2021-01-09T12:56:35Z</time>
      </trkpt>
      <trkpt lat="43.58549" lon="3.81489">
        <ele>21.8</ele>
        <time>2021-01-09T12:56:36Z</time>
      </trkpt>
      <trkpt lat="43.58546" lon="3.81489">
        <ele>21.7</ele>
        <time>2021-01-09T12:56:37Z</time>
      </trkpt>
      <trkpt lat="43.58543" lon="3.81488">
        <ele>21.5</ele>
        <time>2021-01-09T12:56:38Z</time>
      </trkpt>
      <trkpt lat="43.58541" lon="3.81485">
        <ele>21.5</ele>
        <time>2021-01-09T12:56:39Z</time>
      </trkpt>
      <trkpt lat="43.58539" lon="3.81482">
        <ele>21.4</ele>
        <time>2021-01-09T12:56:40Z</time>
      </trkpt>
      <trkpt lat="43.58537" lon="3.81482">
        <ele>28</ele>
        <time>2021-01-09T12:56:41Z</time>
      </trkpt>
      <trkpt lat="43.58533" lon="3.81481">
        <ele>21.2</ele>
        <time>2021-01-09T12:56:42Z</time>
      </trkpt>
      <trkpt lat="43.5853" lon="3.81482">
        <ele>21.1</ele>
        <time>2021-01-09T12:56:43Z</time>
      </trkpt>
      <trkpt lat="43.58528" lon="3.81484">
        <ele>21</ele>
        <time>2021-01-09T12:56:44Z</time>
      </trkpt>
      <trkpt lat="43.58525" lon="3.81486">
        <ele>21</ele>
        <time>2021-01-09T12:56:45Z</time>
      </trkpt>
      <trkpt lat="43.58522" lon="3.81488">
        <ele>21</ele>
        <time>2021-01-09T12:56:46Z</time>
      </trkpt>
      <trkpt lat="43.5852" lon="3.8149">
        <ele>21</ele>
        <time>2021-01-09T12:56:47Z</time>
      </trkpt>
      <trkpt lat="43.58517" lon="3.8149">
        <ele>21</ele>
        <time>2021-01-09T12:56:48Z</time>
      </trkpt>
      <trkpt lat="43.58514" lon="3.8149">
        <ele>21</ele>
        <time>2021-01-09T12:56:49Z</time>
      </trkpt>
      <trkpt lat="43.5851" lon="3.8149">
        <ele>21</ele>
        <time>2021-01-09T12:56:50Z</time>
      </trkpt>
      <trkpt lat="43.58507" lon="3.8149">
        <ele>28</ele>
        <time>2021-01-09T12:56:51Z</time>
      </trkpt>
      <trkpt lat="43.58504" lon="3.8149">
        <ele>21</ele>
        <time>2021-01-09T12:56:52Z</time>
      </trkpt>
      <trkpt lat="43.585" lon="3.8149">
        <ele>21</ele>
        <time>2021-01-09T12:56:53Z</time>
      </trkpt>
      <trkpt lat="43.58496" lon="3.8149">
        <ele>21</ele>
        <time>2021-01-09T12:56:54Z</time>
      </trkpt>
      <trkpt lat="43.58493" lon="3.81489">
        <ele>21</ele>
        <time>2021-01-09T12:56:55Z</time>
      </trkpt>
      <trkpt lat="43.5849" lon="3.8149">
        <ele>21</ele>
        <time>2021-01-09T12:56:56Z</time>
      </trkpt>
      <trkpt lat="43.58487" lon="3.8149">
        <ele>21</ele>
        <time>2021-01-09T12:56:57Z</time>
      </trkpt>
      <trkpt lat="43.58484" lon="3.8149">
        <ele>21</ele>
        <time>2021-01-09T12:56:58Z</time>
      </trkpt>
      <trkpt lat="43.58481" lon="3.8149">
        <ele>21</ele>
        <time>2021-01-09T12:56:59Z</time>
      </trkpt>
      <trkpt lat="43.58477" lon="3.8149">
        <ele>21</ele>
        <time>2021-01-09T12:57:00Z</time>
      </trkpt>
      <trkpt lat="43.58474" lon="3.81489">
        <ele>28</ele>
        <time>2021-01-09T12:57:01Z</time>
      </trkpt>
      <trkpt lat="43.58471" lon="3.81488">
        <ele>21</ele>
        <time>2021-01-09T12:57:02Z</time>
      </trkpt>
      <trkpt lat="43.58468" lon="3.81487">
        <ele>21</ele>
        <time>2021-01-09T12:57:03Z</time>
      </trkpt>
      <trkpt lat="43.58464" lon="3.81485">
        <ele>21</ele>
        <time>2021-01-09T12:57:04Z</time>
      </trkpt>
      <trkpt lat="43.5846" lon="3.81483">
        <ele>21</ele>
        <time>2021-01-09T12:57:05Z</time>
      </trkpt>
      <trkpt lat="43.58457" lon="3.81481">
        <ele>21</ele>
        <time>2021-01-09T12:57:06Z</time>
      </trkpt>
      <trkpt lat="43.58454" lon="3.8148">
        <ele>21</ele>
        <time>2021-01-09T12:57:07Z</time>
      </trkpt>
      <trkpt lat="43.58452" lon="3.81479">
        <ele>21</ele>
        <time>2021-01-09T12:57:08Z</time>
      </trkpt>
      <trkpt lat="43.58449" lon="3.81478">
        <ele>21</ele>
        <time>2021-01-09T12:57:09Z</time>
      </trkpt>
      <trkpt lat="43.58447" lon="3.81477">
        <ele>21</ele>
        <time>2021-01-09T12:57:10Z</time>
      </trkpt>
      <trkpt lat="43.58444" lon="3.81475">
        <ele>28</ele>
        <time>2021-01-09T12:57:11Z</time>
      </trkpt>
      <trkpt lat="43.58441" lon="3.81473">
        <ele>21</ele>
        <time>2021-01-09T12:57:12Z</time>
      </trkpt>
      <trkpt lat="43.58439" lon="3.81471">
        <ele>21</ele>
        <time>2021-01-09T12:57:13Z</time>
      </trkpt>
      <trkpt lat="43.58436" lon="3.81469">
        <ele>21</ele>
        <time>2021-01-09T12:57:17Z</time>
      </trkpt>
      <trkpt lat="43.58435" lon="3.81471">
        <ele>28</ele>
        <time>2021-01-09T12:57:21Z</time>
      </trkpt>
      <trkpt lat="43.58435" lon="3.81474">
        <ele>21</ele>
        <time>2021-01-09T12:57:25Z</time>
      </trkpt>
      <trkpt lat="43.58434" lon="3.81477">
        <ele>30</ele>
        <time>2021-01-09T12:57:31Z</time>
      </trkpt>
      <trkpt lat="43.58435" lon="3.8148">
        <ele>21</ele>
        <time>2021-01-09T12:57:36Z</time>
      </trkpt>
      <trkpt lat="43.58433" lon="3.81495">
        <ele>31</ele>
        <time>2021-01-09T12:57:50Z</time>
      </trkpt>
      <trkpt lat="43.58432" lon="3.81498">
        <ele>21</ele>
        <time>2021-01-09T12:57:51Z</time>
      </trkpt>
      <trkpt lat="43.58431" lon="3.81502">
        <ele>21</ele>
        <time>2021-01-09T12:57:52Z</time>
      </trkpt>
      <trkpt lat="43.5843" lon="3.81506">
        <ele>21</ele>
        <time>2021-01-09T12:57:53Z</time>
      </trkpt>
      <trkpt lat="43.58428" lon="3.8151">
        <ele>21</ele>
        <time>2021-01-09T12:57:54Z</time>
      </trkpt>
      <trkpt lat="43.58426" lon="3.81515">
        <ele>21</ele>
        <time>2021-01-09T12:57:55Z</time>
      </trkpt>
      <trkpt lat="43.58425" lon="3.81518">
        <ele>21</ele>
        <time>2021-01-09T12:57:56Z</time>
      </trkpt>
      <trkpt lat="43.58423" lon="3.81522">
        <ele>21</ele>
        <time>2021-01-09T12:57:57Z</time>
      </trkpt>
      <trkpt lat="43.58422" lon="3.81527">
        <ele>21</ele>
        <time>2021-01-09T12:57:58Z</time>
      </trkpt>
      <trkpt lat="43.58421" lon="3.81532">
        <ele>21</ele>
        <time>2021-01-09T12:57:59Z</time>
      </trkpt>
      <trkpt lat="43.5842" lon="3.81536">
        <ele>32</ele>
        <time>2021-01-09T12:58:00Z</time>
      </trkpt>
      <trkpt lat="43.58419" lon="3.81541">
        <ele>21</ele>
        <time>2021-01-09T12:58:01Z</time>
      </trkpt>
      <trkpt lat="43.58418" lon="3.81545">
        <ele>21</ele>
        <time>2021-01-09T12:58:02Z</time>
      </trkpt>
      <trkpt lat="43.58416" lon="3.8155">
        <ele>21</ele>
        <time>2021-01-09T12:58:03Z</time>
      </trkpt>
      <trkpt lat="43.58414" lon="3.81554">
        <ele>21</ele>
        <time>2021-01-09T12:58:04Z</time>
      </trkpt>
      <trkpt lat="43.58412" lon="3.81557">
        <ele>21</ele>
        <time>2021-01-09T12:58:05Z</time>
      </trkpt>
      <trkpt lat="43.5841" lon="3.81561">
        <ele>21</ele>
        <time>2021-01-09T12:58:06Z</time>
      </trkpt>
      <trkpt lat="43.58408" lon="3.81565">
        <ele>21</ele>
        <time>2021-01-09T12:58:07Z</time>
      </trkpt>
      <trkpt lat="43.58405" lon="3.8157">
        <ele>21</ele>
        <time>2021-01-09T12:58:08Z</time>
      </trkpt>
      <trkpt lat="43.58402" lon="3.81573">
        <ele>21</ele>
        <time>2021-01-09T12:58:09Z</time>
      </trkpt>
      <trkpt lat="43.58399" lon="3.81575">
        <ele>33</ele>
        <time>2021-01-09T12:58:10Z</time>
      </trkpt>
      <trkpt lat="43.58395" lon="3.81575">
        <ele>21</ele>
        <time>2021-01-09T12:58:11Z</time>
      </trkpt>
      <trkpt lat="43.58391" lon="3.81574">
        <ele>21</ele>
        <time>2021-01-09T12:58:12Z</time>
      </trkpt>
      <trkpt lat="43.58388" lon="3.81575">
        <ele>21</ele>
        <time>2021-01-09T12:58:13Z</time>
      </trkpt>
      <trkpt lat="43.58384" lon="3.81577">
        <ele>21</ele>
        <time>2021-01-09T12:58:14Z</time>
      </trkpt>
      <trkpt lat="43.58381" lon="3.8158">
        <ele>21</ele>
        <time>2021-01-09T12:58:15Z</time>
      </trkpt>
      <trkpt lat="43.58379" lon="3.81583">
        <ele>21</ele>
        <time>2021-01-09T12:58:16Z</time>
      </trkpt>
      <trkpt lat="43.58376" lon="3.81588">
        <ele>21</ele>
        <time>2021-01-09T12:58:17Z</time>
      </trkpt>
      <trkpt lat="43.58373" lon="3.81592">
        <ele>21</ele>
        <time>2021-01-09T12:58:18Z</time>
      </trkpt>
      <trkpt lat="43.5837" lon="3.81596">
        <ele>21</ele>
        <time>2021-01-09T12:58:19Z</time>
      </trkpt>
      <trkpt lat="43.58367" lon="3.81598">
        <ele>33</ele>
        <time>2021-01-09T12:58:20Z</time>
      </trkpt>
      <trkpt lat="43.58363" lon="3.81601">
        <ele>21</ele>
        <time>2021-01-09T12:58:21Z</time>
      </trkpt>
      <trkpt lat="43.5836" lon="3.81603">
        <ele>21</ele>
        <time>2021-01-09T12:58:22Z</time>
      </trkpt>
      <trkpt lat="43.58356" lon="3.81605">
        <ele>21</ele>
        <time>2021-01-09T12:58:23Z</time>
      </trkpt>
      <trkpt lat="43.58352" lon="3.81607">
        <ele>21</ele>
        <time>2021-01-09T12:58:24Z</time>
      </trkpt>
      <trkpt lat="43.58348" lon="3.81609">
        <ele>21</ele>
        <time>2021-01-09T12:58:25Z</time>
      </trkpt>
      <trkpt lat="43.58345" lon="3.81611">
        <ele>21</ele>
        <time>2021-01-09T12:58:26Z</time>
      </trkpt>
      <trkpt lat="43.58341" lon="3.81613">
        <ele>21.1</ele>
        <time>2021-01-09T12:58:27Z</time>
      </trkpt>
      <trkpt lat="43.58338" lon="3.81614">
        <ele>21.1</ele>
        <time>2021-01-09T12:58:28Z</time>
      </trkpt>
      <trkpt lat="43.58333" lon="3.81615">
        <ele>21.1</ele>
        <time>2021-01-09T12:58:29Z</time>
      </trkpt>
      <trkpt lat="43.58329" lon="3.81615">
        <ele>33</ele>
        <time>2021-01-09T12:58:30Z</time>
      </trkpt>
      <trkpt lat="43.58325" lon="3.81613">
        <ele>21</ele>
        <time>2021-01-09T12:58:31Z</time>
      </trkpt>
      <trkpt lat="43.5832" lon="3.81612">
        <ele>21</ele>
        <time>2021-01-09T12:58:32Z</time>
      </trkpt>
      <trkpt lat="43.58314" lon="3.8161">
        <ele>21</ele>
        <time>2021-01-09T12:58:33Z</time>
      </trkpt>
      <trkpt lat="43.5831" lon="3.8161">
        <ele>21</ele>
        <time>2021-01-09T12:58:34Z</time>
      </trkpt>
      <trkpt lat="43.58306" lon="3.81609">
        <ele>21</ele>
        <time>2021-01-09T12:58:35Z</time>
      </trkpt>
      <trkpt lat="43.58301" lon="3.81608">
        <ele>21</ele>
        <time>2021-01-09T12:58:36Z</time>
      </trkpt>
      <trkpt lat="43.58297" lon="3.81606">
        <ele>21</ele>
        <time>2021-01-09T12:58:37Z</time>
      </trkpt>
      <trkpt lat="43.58293" lon="3.81603">
        <ele>21</ele>
        <time>2021-01-09T12:58:38Z</time>
      </trkpt>
      <trkpt lat="43.58289" lon="3.81599">
        <ele>21</ele>
        <time>2021-01-09T12:58:39Z</time>
      </trkpt>
      <trkpt lat="43.58285" lon="3.81595">
        <ele>31</ele>
        <time>2021-01-09T12:58:40Z</time>
      </trkpt>
      <trkpt lat="43.58282" lon="3.81591">
        <ele>21</ele>
        <time>2021-01-09T12:58:41Z</time>
      </trkpt>
      <trkpt lat="43.58278" lon="3.81588">
        <ele>21</ele>
        <time>2021-01-09T12:58:42Z</time>
      </trkpt>
      <trkpt lat="43.58275" lon="3.81584">
        <ele>20.9</ele>
        <time>2021-01-09T12:58:43Z</time>
      </trkpt>
      <trkpt lat="43.58272" lon="3.81582">
        <ele>20.8</ele>
        <time>2021-01-09T12:58:44Z</time>
      </trkpt>
      <trkpt lat="43.58268" lon="3.8158">
        <ele>20.6</ele>
        <time>2021-01-09T12:58:45Z</time>
      </trkpt>
      <trkpt lat="43.58264" lon="3.81578">
        <ele>20.5</ele>
        <time>2021-01-09T12:58:46Z</time>
      </trkpt>
      <trkpt lat="43.5826" lon="3.81576">
        <ele>20.4</ele>
        <time>2021-01-09T12:58:47Z</time>
      </trkpt>
      <trkpt lat="43.58256" lon="3.81575">
        <ele>20.4</ele>
        <time>2021-01-09T12:58:48Z</time>
      </trkpt>
      <trkpt lat="43.58252" lon="3.81573">
        <ele>20.4</ele>
        <time>2021-01-09T12:58:49Z</time>
      </trkpt>
      <trkpt lat="43.58247" lon="3.81572">
        <ele>29</ele>
        <time>2021-01-09T12:58:50Z</time>
      </trkpt>
      <trkpt lat="43.58243" lon="3.81571">
        <ele>20.4</ele>
        <time>2021-01-09T12:58:51Z</time>
      </trkpt>
      <trkpt lat="43.58239" lon="3.8157">
        <ele>20.5</ele>
        <time>2021-01-09T12:58:52Z</time>
      </trkpt>
      <trkpt lat="43.58235" lon="3.81569">
        <ele>20.5</ele>
        <time>2021-01-09T12:58:53Z</time>
      </trkpt>
      <trkpt lat="43.58231" lon="3.81568">
        <ele>20.6</ele>
        <time>2021-01-09T12:58:54Z</time>
      </trkpt>
      <trkpt lat="43.58227" lon="3.81567">
        <ele>20.6</ele>
        <time>2021-01-09T12:58:55Z</time>
      </trkpt>
      <trkpt lat="43.58224" lon="3.81565">
        <ele>20.7</ele>
        <time>2021-01-09T12:58:56Z</time>
      </trkpt>
      <trkpt lat="43.5822" lon="3.81563">
        <ele>20.7</ele>
        <time>2021-01-09T12:58:57Z</time>
      </trkpt>
      <trkpt lat="43.58216" lon="3.8156">
        <ele>20.7</ele>
        <time>2021-01-09T12:58:58Z</time>
      </trkpt>
      <trkpt lat="43.58212" lon="3.81558">
        <ele>20.6</ele>
        <time>2021-01-09T12:58:59Z</time>
      </trkpt>
      <trkpt lat="43.58208" lon="3.81556">
        <ele>28</ele>
        <time>2021-01-09T12:59:00Z</time>
      </trkpt>
      <trkpt lat="43.58204" lon="3.81555">
        <ele>20.3</ele>
        <time>2021-01-09T12:59:01Z</time>
      </trkpt>
      <trkpt lat="43.582" lon="3.81554">
        <ele>20.2</ele>
        <time>2021-01-09T12:59:02Z</time>
      </trkpt>
      <trkpt lat="43.58196" lon="3.81554">
        <ele>20.1</ele>
        <time>2021-01-09T12:59:03Z</time>
      </trkpt>
      <trkpt lat="43.58192" lon="3.81553">
        <ele>20</ele>
        <time>2021-01-09T12:59:04Z</time>
      </trkpt>
      <trkpt lat="43.58188" lon="3.81552">
        <ele>20</ele>
        <time>2021-01-09T12:59:05Z</time>
      </trkpt>
      <trkpt lat="43.58184" lon="3.81552">
        <ele>20</ele>
        <time>2021-01-09T12:59:06Z</time>
      </trkpt>
      <trkpt lat="43.5818" lon="3.81551">
        <ele>20</ele>
        <time>2021-01-09T12:59:07Z</time>
      </trkpt>
      <trkpt lat="43.58176" lon="3.81551">
        <ele>20</ele>
        <time>2021-01-09T12:59:08Z</time>
      </trkpt>
      <trkpt lat="43.58173" lon="3.8155">
        <ele>20</ele>
        <time>2021-01-09T12:59:09Z</time>
      </trkpt>
      <trkpt lat="43.58169" lon="3.81549">
        <ele>28</ele>
        <time>2021-01-09T12:59:10Z</time>
      </trkpt>
      <trkpt lat="43.58165" lon="3.81547">
        <ele>20.1</ele>
        <time>2021-01-09T12:59:11Z</time>
      </trkpt>
      <trkpt lat="43.58161" lon="3.81544">
        <ele>20.2</ele>
        <time>2021-01-09T12:59:12Z</time>
      </trkpt>
      <trkpt lat="43.58157" lon="3.81541">
        <ele>20.3</ele>
        <time>2021-01-09T12:59:13Z</time>
      </trkpt>
      <trkpt lat="43.58154" lon="3.81537">
        <ele>20.5</ele>
        <time>2021-01-09T12:59:14Z</time>
      </trkpt>
      <trkpt lat="43.5815" lon="3.81534">
        <ele>20.6</ele>
        <time>2021-01-09T12:59:15Z</time>
      </trkpt>
      <trkpt lat="43.58146" lon="3.8153">
        <ele>20.7</ele>
        <time>2021-01-09T12:59:16Z</time>
      </trkpt>
      <trkpt lat="43.58144" lon="3.81524">
        <ele>20.7</ele>
        <time>2021-01-09T12:59:17Z</time>
      </trkpt>
      <trkpt lat="43.58141" lon="3.81519">
        <ele>20.6</ele>
        <time>2021-01-09T12:59:18Z</time>
      </trkpt>
      <trkpt lat="43.58138" lon="3.81514">
        <ele>20.5</ele>
        <time>2021-01-09T12:59:19Z</time>
      </trkpt>
      <trkpt lat="43.58136" lon="3.81509">
        <ele>27</ele>
        <time>2021-01-09T12:59:20Z</time>
      </trkpt>
      <trkpt lat="43.58133" lon="3.81505">
        <ele>20.1</ele>
        <time>2021-01-09T12:59:21Z</time>
      </trkpt>
      <trkpt lat="43.5813" lon="3.81501">
        <ele>20</ele>
        <time>2021-01-09T12:59:22Z</time>
      </trkpt>
      <trkpt lat="43.58126" lon="3.81498">
        <ele>20</ele>
        <time>2021-01-09T12:59:23Z</time>
      </trkpt>
      <trkpt lat="43.58121" lon="3.81497">
        <ele>20</ele>
        <time>2021-01-09T12:59:24Z</time>
      </trkpt>
      <trkpt lat="43.58116" lon="3.81496">
        <ele>20</ele>
        <time>2021-01-09T12:59:25Z</time>
      </trkpt>
      <trkpt lat="43.58111" lon="3.81496">
        <ele>20</ele>
        <time>2021-01-09T12:59:26Z</time>
      </trkpt>
      <trkpt lat="43.58106" lon="3.81496">
        <ele>20</ele>
        <time>2021-01-09T12:59:27Z</time>
      </trkpt>
      <trkpt lat="43.58101" lon="3.81496">
        <ele>20</ele>
        <time>2021-01-09T12:59:28Z</time>
      </trkpt>
      <trkpt lat="43.58096" lon="3.81496">
        <ele>20</ele>
        <time>2021-01-09T12:59:29Z</time>
      </trkpt>
      <trkpt lat="43.58091" lon="3.81496">
        <ele>25</ele>
        <time>2021-01-09T12:59:30Z</time>
      </trkpt>
      <trkpt lat="43.58085" lon="3.81495">
        <ele>20</ele>
        <time>2021-01-09T12:59:31Z</time>
      </trkpt>
      <trkpt lat="43.5808" lon="3.81495">
        <ele>20</ele>
        <time>2021-01-09T12:59:32Z</time>
      </trkpt>
      <trkpt lat="43.58076" lon="3.81494">
        <ele>20</ele>
        <time>2021-01-09T12:59:33Z</time>
      </trkpt>
      <trkpt lat="43.58071" lon="3.81494">
        <ele>20</ele>
        <time>2021-01-09T12:59:34Z</time>
      </trkpt>
      <trkpt lat="43.58066" lon="3.81494">
        <ele>20</ele>
        <time>2021-01-09T12:59:35Z</time>
      </trkpt>
      <trkpt lat="43.58061" lon="3.81493">
        <ele>20</ele>
        <time>2021-01-09T12:59:36Z</time>
      </trkpt>
      <trkpt lat="43.58056" lon="3.81493">
        <ele>20</ele>
        <time>2021-01-09T12:59:37Z</time>
      </trkpt>
      <trkpt lat="43.58051" lon="3.81492">
        <ele>20</ele>
        <time>2021-01-09T12:59:38Z</time>
      </trkpt>
      <trkpt lat="43.58046" lon="3.81492">
        <ele>20</ele>
        <time>2021-01-09T12:59:39Z</time>
      </trkpt>
      <trkpt lat="43.58042" lon="3.81491">
        <ele>25</ele>
        <time>2021-01-09T12:59:40Z</time>
      </trkpt>
      <trkpt lat="43.58037" lon="3.8149">
        <ele>20</ele>
        <time>2021-01-09T12:59:41Z</time>
      </trkpt>
      <trkpt lat="43.58032" lon="3.8149">
        <ele>20</ele>
        <time>2021-01-09T12:59:42Z</time>
      </trkpt>
      <trkpt lat="43.58028" lon="3.81489">
        <ele>20</ele>
        <time>2021-01-09T12:59:43Z</time>
      </trkpt>
      <trkpt lat="43.58023" lon="3.81487">
        <ele>20</ele>
        <time>2021-01-09T12:59:44Z</time>
      </trkpt>
      <trkpt lat="43.58019" lon="3.81486">
        <ele>20</ele>
        <time>2021-01-09T12:59:45Z</time>
      </trkpt>
      <trkpt lat="43.58014" lon="3.81483">
        <ele>20</ele>
        <time>2021-01-09T12:59:46Z</time>
      </trkpt>
      <trkpt lat="43.5801" lon="3.8148">
        <ele>20</ele>
        <time>2021-01-09T12:59:47Z</time>
      </trkpt>
      <trkpt lat="43.58006" lon="3.81477">
        <ele>20</ele>
        <time>2021-01-09T12:59:48Z</time>
      </trkpt>
      <trkpt lat="43.58002" lon="3.81472">
        <ele>20</ele>
        <time>2021-01-09T12:59:49Z</time>
      </trkpt>
      <trkpt lat="43.57998" lon="3.81468">
        <ele>24</ele>
        <time>2021-01-09T12:59:50Z</time>
      </trkpt>
      <trkpt lat="43.57994" lon="3.81464">
        <ele>20</ele>
        <time>2021-01-09T12:59:51Z</time>
      </trkpt>
      <trkpt lat="43.5799" lon="3.81461">
        <ele>20</ele>
        <time>2021-01-09T12:59:52Z</time>
      </trkpt>
      <trkpt lat="43.57985" lon="3.81458">
        <ele>20</ele>
        <time>2021-01-09T12:59:53Z</time>
      </trkpt>
      <trkpt lat="43.57981" lon="3.81455">
        <ele>20</ele>
        <time>2021-01-09T12:59:54Z</time>
      </trkpt>
      <trkpt lat="43.57976" lon="3.81453">
        <ele>20</ele>
        <time>2021-01-09T12:59:55Z</time>
      </trkpt>
      <trkpt lat="43.57971" lon="3.81451">
        <ele>20</ele>
        <time>2021-01-09T12:59:56Z</time>
      </trkpt>
      <trkpt lat="43.57966" lon="3.8145">
        <ele>20</ele>
        <time>2021-01-09T12:59:57Z</time>
      </trkpt>
      <trkpt lat="43.57961" lon="3.81449">
        <ele>19.9</ele>
        <time>2021-01-09T12:59:58Z</time>
      </trkpt>
      <trkpt lat="43.57956" lon="3.81447">
        <ele>19.9</ele>
        <time>2021-01-09T12:59:59Z</time>
      </trkpt>
      <trkpt lat="43.57946" lon="3.81445">
        <ele>24</ele>
        <time>2021-01-09T13:00:00Z</time>
      </trkpt>
      <trkpt lat="43.57941" lon="3.81444">
        <ele>20</ele>
        <time>2021-01-09T13:00:01Z</time>
      </trkpt>
      <trkpt lat="43.57936" lon="3.81444">
        <ele>20</ele>
        <time>2021-01-09T13:00:02Z</time>
      </trkpt>
      <trkpt lat="43.57931" lon="3.81444">
        <ele>20</ele>
        <time>2021-01-09T13:00:03Z</time>
      </trkpt>
      <trkpt lat="43.57926" lon="3.81444">
        <ele>20</ele>
        <time>2021-01-09T13:00:04Z</time>
      </trkpt>
      <trkpt lat="43.57921" lon="3.81444">
        <ele>20</ele>
        <time>2021-01-09T13:00:05Z</time>
      </trkpt>
      <trkpt lat="43.57916" lon="3.81443">
        <ele>19.9</ele>
        <time>2021-01-09T13:00:07Z</time>
      </trkpt>
      <trkpt lat="43.5791" lon="3.81443">
        <ele>19.7</ele>
        <time>2021-01-09T13:00:08Z</time>
      </trkpt>
      <trkpt lat="43.57905" lon="3.81443">
        <ele>19.5</ele>
        <time>2021-01-09T13:00:09Z</time>
      </trkpt>
      <trkpt lat="43.579" lon="3.81443">
        <ele>24</ele>
        <time>2021-01-09T13:00:10Z</time>
      </trkpt>
      <trkpt lat="43.57895" lon="3.81443">
        <ele>19.2</ele>
        <time>2021-01-09T13:00:11Z</time>
      </trkpt>
      <trkpt lat="43.57889" lon="3.81443">
        <ele>19</ele>
        <time>2021-01-09T13:00:12Z</time>
      </trkpt>
      <trkpt lat="43.57884" lon="3.81443">
        <ele>19</ele>
        <time>2021-01-09T13:00:13Z</time>
      </trkpt>
      <trkpt lat="43.57879" lon="3.81443">
        <ele>19</ele>
        <time>2021-01-09T13:00:14Z</time>
      </trkpt>
      <trkpt lat="43.57874" lon="3.81442">
        <ele>19</ele>
        <time>2021-01-09T13:00:15Z</time>
      </trkpt>
      <trkpt lat="43.57868" lon="3.8144">
        <ele>19</ele>
        <time>2021-01-09T13:00:16Z</time>
      </trkpt>
      <trkpt lat="43.57864" lon="3.81437">
        <ele>19</ele>
        <time>2021-01-09T13:00:17Z</time>
      </trkpt>
      <trkpt lat="43.57859" lon="3.81434">
        <ele>19</ele>
        <time>2021-01-09T13:00:18Z</time>
      </trkpt>
      <trkpt lat="43.57854" lon="3.8143">
        <ele>19</ele>
        <time>2021-01-09T13:00:19Z</time>
      </trkpt>
      <trkpt lat="43.5785" lon="3.81425">
        <ele>23</ele>
        <time>2021-01-09T13:00:20Z</time>
      </trkpt>
      <trkpt lat="43.57846" lon="3.81419">
        <ele>19</ele>
        <time>2021-01-09T13:00:21Z</time>
      </trkpt>
      <trkpt lat="43.57842" lon="3.81414">
        <ele>19</ele>
        <time>2021-01-09T13:00:22Z</time>
      </trkpt>
      <trkpt lat="43.57838" lon="3.81408">
        <ele>19</ele>
        <time>2021-01-09T13:00:23Z</time>
      </trkpt>
      <trkpt lat="43.57835" lon="3.81402">
        <ele>19</ele>
        <time>2021-01-09T13:00:24Z</time>
      </trkpt>
      <trkpt lat="43.57831" lon="3.81397">
        <ele>18.9</ele>
        <time>2021-01-09T13:00:25Z</time>
      </trkpt>
      <trkpt lat="43.57827" lon="3.81391">
        <ele>18.8</ele>
        <time>2021-01-09T13:00:26Z</time>
      </trkpt>
      <trkpt lat="43.57823" lon="3.81386">
        <ele>18.6</ele>
        <time>2021-01-09T13:00:27Z</time>
      </trkpt>
      <trkpt lat="43.57819" lon="3.81382">
        <ele>18.5</ele>
        <time>2021-01-09T13:00:28Z</time>
      </trkpt>
      <trkpt lat="43.57815" lon="3.81379">
        <ele>18.3</ele>
        <time>2021-01-09T13:00:29Z</time>
      </trkpt>
      <trkpt lat="43.5781" lon="3.81377">
        <ele>22</ele>
        <time>2021-01-09T13:00:30Z</time>
      </trkpt>
      <trkpt lat="43.57805" lon="3.81376">
        <ele>18</ele>
        <time>2021-01-09T13:00:31Z</time>
      </trkpt>
      <trkpt lat="43.578" lon="3.81375">
        <ele>18</ele>
        <time>2021-01-09T13:00:32Z</time>
      </trkpt>
      <trkpt lat="43.57795" lon="3.81374">
        <ele>18</ele>
        <time>2021-01-09T13:00:33Z</time>
      </trkpt>
      <trkpt lat="43.57789" lon="3.81373">
        <ele>18</ele>
        <time>2021-01-09T13:00:34Z</time>
      </trkpt>
      <trkpt lat="43.57784" lon="3.81373">
        <ele>18</ele>
        <time>2021-01-09T13:00:35Z</time>
      </trkpt>
      <trkpt lat="43.57779" lon="3.81373">
        <ele>18</ele>
        <time>2021-01-09T13:00:36Z</time>
      </trkpt>
      <trkpt lat="43.57774" lon="3.81374">
        <ele>18</ele>
        <time>2021-01-09T13:00:37Z</time>
      </trkpt>
      <trkpt lat="43.57769" lon="3.81374">
        <ele>18</ele>
        <time>2021-01-09T13:00:38Z</time>
      </trkpt>
      <trkpt lat="43.57764" lon="3.81375">
        <ele>18</ele>
        <time>2021-01-09T13:00:39Z</time>
      </trkpt>
      <trkpt lat="43.57759" lon="3.81375">
        <ele>21</ele>
        <time>2021-01-09T13:00:40Z</time>
      </trkpt>
      <trkpt lat="43.57754" lon="3.81376">
        <ele>18</ele>
        <time>2021-01-09T13:00:41Z</time>
      </trkpt>
      <trkpt lat="43.57749" lon="3.81376">
        <ele>18</ele>
        <time>2021-01-09T13:00:42Z</time>
      </trkpt>
      <trkpt lat="43.57744" lon="3.81376">
        <ele>18</ele>
        <time>2021-01-09T13:00:43Z</time>
      </trkpt>
      <trkpt lat="43.57739" lon="3.81376">
        <ele>18</ele>
        <time>2021-01-09T13:00:44Z</time>
      </trkpt>
      <trkpt lat="43.57734" lon="3.81376">
        <ele>18</ele>
        <time>2021-01-09T13:00:45Z</time>
      </trkpt>
      <trkpt lat="43.57729" lon="3.81376">
        <ele>18</ele>
        <time>2021-01-09T13:00:46Z</time>
      </trkpt>
      <trkpt lat="43.57724" lon="3.81376">
        <ele>18</ele>
        <time>2021-01-09T13:00:47Z</time>
      </trkpt>
      <trkpt lat="43.57719" lon="3.81376">
        <ele>18</ele>
        <time>2021-01-09T13:00:48Z</time>
      </trkpt>
      <trkpt lat="43.57714" lon="3.81376">
        <ele>18</ele>
        <time>2021-01-09T13:00:49Z</time>
      </trkpt>
      <trkpt lat="43.57709" lon="3.81376">
        <ele>21</ele>
        <time>2021-01-09T13:00:50Z</time>
      </trkpt>
      <trkpt lat="43.57704" lon="3.81377">
        <ele>18</ele>
        <time>2021-01-09T13:00:51Z</time>
      </trkpt>
      <trkpt lat="43.57699" lon="3.81377">
        <ele>18</ele>
        <time>2021-01-09T13:00:52Z</time>
      </trkpt>
      <trkpt lat="43.57694" lon="3.81377">
        <ele>18</ele>
        <time>2021-01-09T13:00:53Z</time>
      </trkpt>
      <trkpt lat="43.57689" lon="3.81377">
        <ele>18</ele>
        <time>2021-01-09T13:00:54Z</time>
      </trkpt>
      <trkpt lat="43.57684" lon="3.81376">
        <ele>18</ele>
        <time>2021-01-09T13:00:55Z</time>
      </trkpt>
      <trkpt lat="43.57679" lon="3.81375">
        <ele>18</ele>
        <time>2021-01-09T13:00:56Z</time>
      </trkpt>
      <trkpt lat="43.57674" lon="3.81374">
        <ele>18</ele>
        <time>2021-01-09T13:00:57Z</time>
      </trkpt>
      <trkpt lat="43.57669" lon="3.81372">
        <ele>18</ele>
        <time>2021-01-09T13:00:58Z</time>
      </trkpt>
      <trkpt lat="43.57664" lon="3.8137">
        <ele>18</ele>
        <time>2021-01-09T13:00:59Z</time>
      </trkpt>
      <trkpt lat="43.57659" lon="3.81368">
        <ele>21</ele>
        <time>2021-01-09T13:01:00Z</time>
      </trkpt>
      <trkpt lat="43.57653" lon="3.81366">
        <ele>18</ele>
        <time>2021-01-09T13:01:01Z</time>
      </trkpt>
      <trkpt lat="43.57649" lon="3.81364">
        <ele>18</ele>
        <time>2021-01-09T13:01:02Z</time>
      </trkpt>
      <trkpt lat="43.57644" lon="3.81361">
        <ele>18</ele>
        <time>2021-01-09T13:01:03Z</time>
      </trkpt>
      <trkpt lat="43.57639" lon="3.81358">
        <ele>18</ele>
        <time>2021-01-09T13:01:04Z</time>
      </trkpt>
      <trkpt lat="43.57635" lon="3.81354">
        <ele>18</ele>
        <time>2021-01-09T13:01:05Z</time>
      </trkpt>
      <trkpt lat="43.57631" lon="3.8135">
        <ele>18</ele>
        <time>2021-01-09T13:01:06Z</time>
      </trkpt>
      <trkpt lat="43.57626" lon="3.81347">
        <ele>18</ele>
        <time>2021-01-09T13:01:07Z</time>
      </trkpt>
      <trkpt lat="43.57622" lon="3.81344">
        <ele>18</ele>
        <time>2021-01-09T13:01:08Z</time>
      </trkpt>
      <trkpt lat="43.57617" lon="3.81342">
        <ele>18</ele>
        <time>2021-01-09T13:01:09Z</time>
      </trkpt>
      <trkpt lat="43.57612" lon="3.81341">
        <ele>21</ele>
        <time>2021-01-09T13:01:10Z</time>
      </trkpt>
      <trkpt lat="43.57608" lon="3.81339">
        <ele>18</ele>
        <time>2021-01-09T13:01:11Z</time>
      </trkpt>
      <trkpt lat="43.57603" lon="3.81335">
        <ele>18</ele>
        <time>2021-01-09T13:01:12Z</time>
      </trkpt>
      <trkpt lat="43.57599" lon="3.81332">
        <ele>18</ele>
        <time>2021-01-09T13:01:13Z</time>
      </trkpt>
      <trkpt lat="43.57594" lon="3.81329">
        <ele>18</ele>
        <time>2021-01-09T13:01:14Z</time>
      </trkpt>
      <trkpt lat="43.57589" lon="3.81326">
        <ele>18</ele>
        <time>2021-01-09T13:01:15Z</time>
      </trkpt>
      <trkpt lat="43.57584" lon="3.81324">
        <ele>18</ele>
        <time>2021-01-09T13:01:16Z</time>
      </trkpt>
      <trkpt lat="43.5758" lon="3.81321">
        <ele>18</ele>
        <time>2021-01-09T13:01:17Z</time>
      </trkpt>
      <trkpt lat="43.57575" lon="3.81318">
        <ele>18</ele>
        <time>2021-01-09T13:01:18Z</time>
      </trkpt>
      <trkpt lat="43.5757" lon="3.81314">
        <ele>18</ele>
        <time>2021-01-09T13:01:19Z</time>
      </trkpt>
      <trkpt lat="43.57562" lon="3.81307">
        <ele>21</ele>
        <time>2021-01-09T13:01:20Z</time>
      </trkpt>
      <trkpt lat="43.57558" lon="3.81303">
        <ele>18</ele>
        <time>2021-01-09T13:01:21Z</time>
      </trkpt>
      <trkpt lat="43.57554" lon="3.813">
        <ele>18</ele>
        <time>2021-01-09T13:01:22Z</time>
      </trkpt>
      <trkpt lat="43.5755" lon="3.81297">
        <ele>17.9</ele>
        <time>2021-01-09T13:01:23Z</time>
      </trkpt>
      <trkpt lat="43.57546" lon="3.81294">
        <ele>17.8</ele>
        <time>2021-01-09T13:01:24Z</time>
      </trkpt>
      <trkpt lat="43.57542" lon="3.81291">
        <ele>17.8</ele>
        <time>2021-01-09T13:01:25Z</time>
      </trkpt>
      <trkpt lat="43.57538" lon="3.81288">
        <ele>17.8</ele>
        <time>2021-01-09T13:01:26Z</time>
      </trkpt>
      <trkpt lat="43.57533" lon="3.81285">
        <ele>17.8</ele>
        <time>2021-01-09T13:01:27Z</time>
      </trkpt>
      <trkpt lat="43.57529" lon="3.81282">
        <ele>17.9</ele>
        <time>2021-01-09T13:01:28Z</time>
      </trkpt>
      <trkpt lat="43.57525" lon="3.81279">
        <ele>21</ele>
        <time>2021-01-09T13:01:30Z</time>
      </trkpt>
      <trkpt lat="43.5752" lon="3.81276">
        <ele>17.7</ele>
        <time>2021-01-09T13:01:31Z</time>
      </trkpt>
      <trkpt lat="43.57516" lon="3.81274">
        <ele>17.6</ele>
        <time>2021-01-09T13:01:32Z</time>
      </trkpt>
      <trkpt lat="43.57511" lon="3.81271">
        <ele>17.5</ele>
        <time>2021-01-09T13:01:33Z</time>
      </trkpt>
      <trkpt lat="43.57506" lon="3.81269">
        <ele>17.5</ele>
        <time>2021-01-09T13:01:34Z</time>
      </trkpt>
      <trkpt lat="43.57501" lon="3.81268">
        <ele>17.4</ele>
        <time>2021-01-09T13:01:35Z</time>
      </trkpt>
      <trkpt lat="43.57497" lon="3.81267">
        <ele>17.4</ele>
        <time>2021-01-09T13:01:36Z</time>
      </trkpt>
      <trkpt lat="43.57493" lon="3.81266">
        <ele>17.4</ele>
        <time>2021-01-09T13:01:37Z</time>
      </trkpt>
      <trkpt lat="43.5749" lon="3.81264">
        <ele>17.5</ele>
        <time>2021-01-09T13:01:38Z</time>
      </trkpt>
      <trkpt lat="43.57487" lon="3.81261">
        <ele>17.6</ele>
        <time>2021-01-09T13:01:39Z</time>
      </trkpt>
      <trkpt lat="43.57484" lon="3.81259">
        <ele>21</ele>
        <time>2021-01-09T13:01:40Z</time>
      </trkpt>
      <trkpt lat="43.57481" lon="3.81258">
        <ele>17.7</ele>
        <time>2021-01-09T13:01:41Z</time>
      </trkpt>
      <trkpt lat="43.57478" lon="3.81258">
        <ele>17.7</ele>
        <time>2021-01-09T13:01:42Z</time>
      </trkpt>
      <trkpt lat="43.57473" lon="3.81258">
        <ele>17.7</ele>
        <time>2021-01-09T13:01:43Z</time>
      </trkpt>
      <trkpt lat="43.57469" lon="3.81258">
        <ele>17.6</ele>
        <time>2021-01-09T13:01:44Z</time>
      </trkpt>
      <trkpt lat="43.57464" lon="3.81258">
        <ele>17.5</ele>
        <time>2021-01-09T13:01:45Z</time>
      </trkpt>
      <trkpt lat="43.5746" lon="3.81257">
        <ele>17.4</ele>
        <time>2021-01-09T13:01:46Z</time>
      </trkpt>
      <trkpt lat="43.57455" lon="3.81255">
        <ele>17.3</ele>
        <time>2021-01-09T13:01:47Z</time>
      </trkpt>
      <trkpt lat="43.57451" lon="3.81252">
        <ele>17.2</ele>
        <time>2021-01-09T13:01:48Z</time>
      </trkpt>
      <trkpt lat="43.57447" lon="3.81249">
        <ele>17.1</ele>
        <time>2021-01-09T13:01:49Z</time>
      </trkpt>
      <trkpt lat="43.57443" lon="3.81246">
        <ele>21</ele>
        <time>2021-01-09T13:01:50Z</time>
      </trkpt>
      <trkpt lat="43.5744" lon="3.81243">
        <ele>17</ele>
        <time>2021-01-09T13:01:51Z</time>
      </trkpt>
      <trkpt lat="43.57437" lon="3.8124">
        <ele>17</ele>
        <time>2021-01-09T13:01:52Z</time>
      </trkpt>
      <trkpt lat="43.57434" lon="3.81236">
        <ele>17</ele>
        <time>2021-01-09T13:01:53Z</time>
      </trkpt>
      <trkpt lat="43.57431" lon="3.81233">
        <ele>17</ele>
        <time>2021-01-09T13:01:54Z</time>
      </trkpt>
      <trkpt lat="43.57429" lon="3.81231">
        <ele>17</ele>
        <time>2021-01-09T13:01:55Z</time>
      </trkpt>
      <trkpt lat="43.57426" lon="3.81229">
        <ele>17</ele>
        <time>2021-01-09T13:01:56Z</time>
      </trkpt>
      <trkpt lat="43.57422" lon="3.81228">
        <ele>17</ele>
        <time>2021-01-09T13:01:57Z</time>
      </trkpt>
      <trkpt lat="43.57419" lon="3.81226">
        <ele>17</ele>
        <time>2021-01-09T13:01:58Z</time>
      </trkpt>
      <trkpt lat="43.57415" lon="3.81223">
        <ele>17</ele>
        <time>2021-01-09T13:01:59Z</time>
      </trkpt>
      <trkpt lat="43.57408" lon="3.81217">
        <ele>22</ele>
        <time>2021-01-09T13:02:00Z</time>
      </trkpt>
      <trkpt lat="43.57405" lon="3.81214">
        <ele>17</ele>
        <time>2021-01-09T13:02:01Z</time>
      </trkpt>
      <trkpt lat="43.57402" lon="3.81212">
        <ele>17</ele>
        <time>2021-01-09T13:02:02Z</time>
      </trkpt>
      <trkpt lat="43.574" lon="3.8121">
        <ele>17</ele>
        <time>2021-01-09T13:02:03Z</time>
      </trkpt>
      <trkpt lat="43.57399" lon="3.81206">
        <ele>17</ele>
        <time>2021-01-09T13:02:05Z</time>
      </trkpt>
      <trkpt lat="43.57399" lon="3.81201">
        <ele>17</ele>
        <time>2021-01-09T13:02:07Z</time>
      </trkpt>
      <trkpt lat="43.574" lon="3.81198">
        <ele>17</ele>
        <time>2021-01-09T13:02:08Z</time>
      </trkpt>
      <trkpt lat="43.57401" lon="3.81195">
        <ele>22</ele>
        <time>2021-01-09T13:02:10Z</time>
      </trkpt>
      <trkpt lat="43.57402" lon="3.81192">
        <ele>17</ele>
        <time>2021-01-09T13:02:11Z</time>
      </trkpt>
      <trkpt lat="43.57403" lon="3.8119">
        <ele>16.9</ele>
        <time>2021-01-09T13:02:12Z</time>
      </trkpt>
      <trkpt lat="43.57402" lon="3.81187">
        <ele>16.9</ele>
        <time>2021-01-09T13:02:13Z</time>
      </trkpt>
      <trkpt lat="43.57401" lon="3.81184">
        <ele>16.8</ele>
        <time>2021-01-09T13:02:14Z</time>
      </trkpt>
      <trkpt lat="43.57399" lon="3.81182">
        <ele>16.7</ele>
        <time>2021-01-09T13:02:15Z</time>
      </trkpt>
      <trkpt lat="43.57397" lon="3.8118">
        <ele>16.6</ele>
        <time>2021-01-09T13:02:16Z</time>
      </trkpt>
      <trkpt lat="43.57394" lon="3.81179">
        <ele>16.5</ele>
        <time>2021-01-09T13:02:17Z</time>
      </trkpt>
      <trkpt lat="43.57392" lon="3.81178">
        <ele>16.5</ele>
        <time>2021-01-09T13:02:18Z</time>
      </trkpt>
      <trkpt lat="43.5739" lon="3.81177">
        <ele>16.4</ele>
        <time>2021-01-09T13:02:19Z</time>
      </trkpt>
      <trkpt lat="43.57387" lon="3.81177">
        <ele>22</ele>
        <time>2021-01-09T13:02:20Z</time>
      </trkpt>
      <trkpt lat="43.57385" lon="3.81176">
        <ele>16.4</ele>
        <time>2021-01-09T13:02:21Z</time>
      </trkpt>
      <trkpt lat="43.57383" lon="3.81176">
        <ele>16.5</ele>
        <time>2021-01-09T13:02:22Z</time>
      </trkpt>
      <trkpt lat="43.57379" lon="3.81175">
        <ele>16.5</ele>
        <time>2021-01-09T13:02:23Z</time>
      </trkpt>
      <trkpt lat="43.57376" lon="3.81173">
        <ele>16.6</ele>
        <time>2021-01-09T13:02:24Z</time>
      </trkpt>
      <trkpt lat="43.57373" lon="3.81171">
        <ele>16.6</ele>
        <time>2021-01-09T13:02:25Z</time>
      </trkpt>
      <trkpt lat="43.57369" lon="3.8117">
        <ele>16.8</ele>
        <time>2021-01-09T13:02:26Z</time>
      </trkpt>
      <trkpt lat="43.57365" lon="3.8117">
        <ele>16.9</ele>
        <time>2021-01-09T13:02:27Z</time>
      </trkpt>
      <trkpt lat="43.57362" lon="3.81169">
        <ele>17</ele>
        <time>2021-01-09T13:02:28Z</time>
      </trkpt>
      <trkpt lat="43.57358" lon="3.81167">
        <ele>16.9</ele>
        <time>2021-01-09T13:02:29Z</time>
      </trkpt>
      <trkpt lat="43.57355" lon="3.81163">
        <ele>22</ele>
        <time>2021-01-09T13:02:30Z</time>
      </trkpt>
      <trkpt lat="43.57352" lon="3.81159">
        <ele>16.5</ele>
        <time>2021-01-09T13:02:31Z</time>
      </trkpt>
      <trkpt lat="43.57349" lon="3.81153">
        <ele>16.3</ele>
        <time>2021-01-09T13:02:32Z</time>
      </trkpt>
      <trkpt lat="43.57346" lon="3.81149">
        <ele>16.2</ele>
        <time>2021-01-09T13:02:33Z</time>
      </trkpt>
      <trkpt lat="43.57341" lon="3.81146">
        <ele>16.1</ele>
        <time>2021-01-09T13:02:34Z</time>
      </trkpt>
      <trkpt lat="43.57337" lon="3.81142">
        <ele>16</ele>
        <time>2021-01-09T13:02:35Z</time>
      </trkpt>
      <trkpt lat="43.57333" lon="3.81137">
        <ele>16</ele>
        <time>2021-01-09T13:02:36Z</time>
      </trkpt>
      <trkpt lat="43.57329" lon="3.81134">
        <ele>16</ele>
        <time>2021-01-09T13:02:37Z</time>
      </trkpt>
      <trkpt lat="43.57325" lon="3.81131">
        <ele>16</ele>
        <time>2021-01-09T13:02:38Z</time>
      </trkpt>
      <trkpt lat="43.57322" lon="3.81129">
        <ele>16</ele>
        <time>2021-01-09T13:02:39Z</time>
      </trkpt>
      <trkpt lat="43.57319" lon="3.81125">
        <ele>22</ele>
        <time>2021-01-09T13:02:40Z</time>
      </trkpt>
      <trkpt lat="43.57317" lon="3.81122">
        <ele>16</ele>
        <time>2021-01-09T13:02:41Z</time>
      </trkpt>
      <trkpt lat="43.57315" lon="3.8112">
        <ele>16</ele>
        <time>2021-01-09T13:02:42Z</time>
      </trkpt>
      <trkpt lat="43.57312" lon="3.81118">
        <ele>16</ele>
        <time>2021-01-09T13:02:43Z</time>
      </trkpt>
      <trkpt lat="43.57309" lon="3.81118">
        <ele>16</ele>
        <time>2021-01-09T13:02:44Z</time>
      </trkpt>
      <trkpt lat="43.57308" lon="3.81118">
        <ele>16</ele>
        <time>2021-01-09T13:02:45Z</time>
      </trkpt>
      <trkpt lat="43.57305" lon="3.81118">
        <ele>16</ele>
        <time>2021-01-09T13:02:47Z</time>
      </trkpt>
      <trkpt lat="43.57303" lon="3.81118">
        <ele>16</ele>
        <time>2021-01-09T13:02:48Z</time>
      </trkpt>
      <trkpt lat="43.57301" lon="3.81118">
        <ele>16</ele>
        <time>2021-01-09T13:02:49Z</time>
      </trkpt>
      <trkpt lat="43.57299" lon="3.8112">
        <ele>22</ele>
        <time>2021-01-09T13:02:50Z</time>
      </trkpt>
      <trkpt lat="43.57296" lon="3.81124">
        <ele>16</ele>
        <time>2021-01-09T13:02:51Z</time>
      </trkpt>
      <trkpt lat="43.57293" lon="3.81127">
        <ele>16</ele>
        <time>2021-01-09T13:02:52Z</time>
      </trkpt>
      <trkpt lat="43.5729" lon="3.81131">
        <ele>16</ele>
        <time>2021-01-09T13:02:53Z</time>
      </trkpt>
      <trkpt lat="43.57287" lon="3.81135">
        <ele>16</ele>
        <time>2021-01-09T13:02:54Z</time>
      </trkpt>
      <trkpt lat="43.57284" lon="3.81137">
        <ele>16</ele>
        <time>2021-01-09T13:02:55Z</time>
      </trkpt>
      <trkpt lat="43.57281" lon="3.8114">
        <ele>16</ele>
        <time>2021-01-09T13:02:56Z</time>
      </trkpt>
      <trkpt lat="43.57277" lon="3.81142">
        <ele>16.1</ele>
        <time>2021-01-09T13:02:57Z</time>
      </trkpt>
      <trkpt lat="43.57273" lon="3.81143">
        <ele>16.1</ele>
        <time>2021-01-09T13:02:58Z</time>
      </trkpt>
      <trkpt lat="43.5727" lon="3.81145">
        <ele>16.2</ele>
        <time>2021-01-09T13:02:59Z</time>
      </trkpt>
      <trkpt lat="43.57266" lon="3.81146">
        <ele>22</ele>
        <time>2021-01-09T13:03:00Z</time>
      </trkpt>
      <trkpt lat="43.57263" lon="3.81146">
        <ele>16.3</ele>
        <time>2021-01-09T13:03:01Z</time>
      </trkpt>
      <trkpt lat="43.57259" lon="3.81147">
        <ele>16.3</ele>
        <time>2021-01-09T13:03:02Z</time>
      </trkpt>
      <trkpt lat="43.57256" lon="3.81149">
        <ele>16.4</ele>
        <time>2021-01-09T13:03:03Z</time>
      </trkpt>
      <trkpt lat="43.57253" lon="3.81151">
        <ele>16.4</ele>
        <time>2021-01-09T13:03:04Z</time>
      </trkpt>
      <trkpt lat="43.57249" lon="3.81153">
        <ele>16.5</ele>
        <time>2021-01-09T13:03:05Z</time>
      </trkpt>
      <trkpt lat="43.57245" lon="3.81156">
        <ele>16.5</ele>
        <time>2021-01-09T13:03:06Z</time>
      </trkpt>
      <trkpt lat="43.57241" lon="3.81158">
        <ele>16.5</ele>
        <time>2021-01-09T13:03:07Z</time>
      </trkpt>
      <trkpt lat="43.57237" lon="3.8116">
        <ele>16.4</ele>
        <time>2021-01-09T13:03:08Z</time>
      </trkpt>
      <trkpt lat="43.57234" lon="3.81162">
        <ele>16.4</ele>
        <time>2021-01-09T13:03:09Z</time>
      </trkpt>
      <trkpt lat="43.5723" lon="3.81165">
        <ele>22</ele>
        <time>2021-01-09T13:03:10Z</time>
      </trkpt>
      <trkpt lat="43.57225" lon="3.81167">
        <ele>16.1</ele>
        <time>2021-01-09T13:03:11Z</time>
      </trkpt>
      <trkpt lat="43.5722" lon="3.8117">
        <ele>16</ele>
        <time>2021-01-09T13:03:12Z</time>
      </trkpt>
      <trkpt lat="43.57215" lon="3.81174">
        <ele>16.1</ele>
        <time>2021-01-09T13:03:13Z</time>
      </trkpt>
      <trkpt lat="43.57211" lon="3.81177">
        <ele>16.2</ele>
        <time>2021-01-09T13:03:14Z</time>
      </trkpt>
      <trkpt lat="43.57206" lon="3.8118">
        <ele>16.3</ele>
        <time>2021-01-09T13:03:15Z</time>
      </trkpt>
      <trkpt lat="43.57202" lon="3.81183">
        <ele>16.4</ele>
        <time>2021-01-09T13:03:16Z</time>
      </trkpt>
      <trkpt lat="43.57198" lon="3.81187">
        <ele>16.6</ele>
        <time>2021-01-09T13:03:17Z</time>
      </trkpt>
      <trkpt lat="43.57194" lon="3.8119">
        <ele>16.8</ele>
        <time>2021-01-09T13:03:18Z</time>
      </trkpt>
      <trkpt lat="43.5719" lon="3.81193">
        <ele>16.8</ele>
        <time>2021-01-09T13:03:19Z</time>
      </trkpt>
      <trkpt lat="43.57186" lon="3.81195">
        <ele>22</ele>
        <time>2021-01-09T13:03:20Z</time>
      </trkpt>
      <trkpt lat="43.57182" lon="3.81198">
        <ele>16.5</ele>
        <time>2021-01-09T13:03:21Z</time>
      </trkpt>
      <trkpt lat="43.57178" lon="3.81201">
        <ele>16.3</ele>
        <time>2021-01-09T13:03:22Z</time>
      </trkpt>
      <trkpt lat="43.57174" lon="3.81204">
        <ele>16.2</ele>
        <time>2021-01-09T13:03:23Z</time>
      </trkpt>
      <trkpt lat="43.5717" lon="3.81207">
        <ele>16.1</ele>
        <time>2021-01-09T13:03:24Z</time>
      </trkpt>
      <trkpt lat="43.57166" lon="3.81211">
        <ele>16</ele>
        <time>2021-01-09T13:03:25Z</time>
      </trkpt>
      <trkpt lat="43.57162" lon="3.81214">
        <ele>16.1</ele>
        <time>2021-01-09T13:03:26Z</time>
      </trkpt>
      <trkpt lat="43.57158" lon="3.81217">
        <ele>16.3</ele>
        <time>2021-01-09T13:03:27Z</time>
      </trkpt>
      <trkpt lat="43.57155" lon="3.8122">
        <ele>16.4</ele>
        <time>2021-01-09T13:03:28Z</time>
      </trkpt>
      <trkpt lat="43.57151" lon="3.81223">
        <ele>16.5</ele>
        <time>2021-01-09T13:03:29Z</time>
      </trkpt>
      <trkpt lat="43.57148" lon="3.81226">
        <ele>22</ele>
        <time>2021-01-09T13:03:30Z</time>
      </trkpt>
      <trkpt lat="43.57144" lon="3.8123">
        <ele>16.6</ele>
        <time>2021-01-09T13:03:31Z</time>
      </trkpt>
      <trkpt lat="43.57141" lon="3.81233">
        <ele>16.6</ele>
        <time>2021-01-09T13:03:32Z</time>
      </trkpt>
      <trkpt lat="43.57138" lon="3.81236">
        <ele>16.6</ele>
        <time>2021-01-09T13:03:33Z</time>
      </trkpt>
      <trkpt lat="43.57136" lon="3.81239">
        <ele>16.6</ele>
        <time>2021-01-09T13:03:34Z</time>
      </trkpt>
      <trkpt lat="43.57134" lon="3.81243">
        <ele>16.6</ele>
        <time>2021-01-09T13:03:35Z</time>
      </trkpt>
      <trkpt lat="43.57132" lon="3.81246">
        <ele>16.6</ele>
        <time>2021-01-09T13:03:36Z</time>
      </trkpt>
      <trkpt lat="43.5713" lon="3.8125">
        <ele>16.6</ele>
        <time>2021-01-09T13:03:37Z</time>
      </trkpt>
      <trkpt lat="43.57129" lon="3.81254">
        <ele>16.7</ele>
        <time>2021-01-09T13:03:38Z</time>
      </trkpt>
      <trkpt lat="43.57127" lon="3.81258">
        <ele>16.7</ele>
        <time>2021-01-09T13:03:39Z</time>
      </trkpt>
      <trkpt lat="43.57125" lon="3.81262">
        <ele>22</ele>
        <time>2021-01-09T13:03:40Z</time>
      </trkpt>
      <trkpt lat="43.57123" lon="3.81266">
        <ele>16.8</ele>
        <time>2021-01-09T13:03:41Z</time>
      </trkpt>
      <trkpt lat="43.57121" lon="3.81269">
        <ele>16.8</ele>
        <time>2021-01-09T13:03:42Z</time>
      </trkpt>
      <trkpt lat="43.57119" lon="3.81273">
        <ele>16.8</ele>
        <time>2021-01-09T13:03:43Z</time>
      </trkpt>
      <trkpt lat="43.57117" lon="3.81276">
        <ele>16.8</ele>
        <time>2021-01-09T13:03:44Z</time>
      </trkpt>
      <trkpt lat="43.57115" lon="3.81278">
        <ele>16.9</ele>
        <time>2021-01-09T13:03:45Z</time>
      </trkpt>
      <trkpt lat="43.57112" lon="3.8128">
        <ele>17.2</ele>
        <time>2021-01-09T13:03:46Z</time>
      </trkpt>
      <trkpt lat="43.5711" lon="3.81282">
        <ele>17.5</ele>
        <time>2021-01-09T13:03:47Z</time>
      </trkpt>
      <trkpt lat="43.57107" lon="3.81284">
        <ele>17.7</ele>
        <time>2021-01-09T13:03:49Z</time>
      </trkpt>
      <trkpt lat="43.57104" lon="3.81287">
        <ele>18</ele>
        <time>2021-01-09T13:03:51Z</time>
      </trkpt>
      <trkpt lat="43.57102" lon="3.81292">
        <ele>18.4</ele>
        <time>2021-01-09T13:03:52Z</time>
      </trkpt>
      <trkpt lat="43.571" lon="3.81297">
        <ele>18.6</ele>
        <time>2021-01-09T13:03:53Z</time>
      </trkpt>
      <trkpt lat="43.57099" lon="3.81302">
        <ele>18.9</ele>
        <time>2021-01-09T13:03:54Z</time>
      </trkpt>
      <trkpt lat="43.57098" lon="3.81305">
        <ele>19</ele>
        <time>2021-01-09T13:03:55Z</time>
      </trkpt>
      <trkpt lat="43.57096" lon="3.81309">
        <ele>19</ele>
        <time>2021-01-09T13:03:56Z</time>
      </trkpt>
      <trkpt lat="43.57095" lon="3.81313">
        <ele>19</ele>
        <time>2021-01-09T13:03:57Z</time>
      </trkpt>
      <trkpt lat="43.57093" lon="3.81317">
        <ele>19</ele>
        <time>2021-01-09T13:03:58Z</time>
      </trkpt>
      <trkpt lat="43.57091" lon="3.81321">
        <ele>19</ele>
        <time>2021-01-09T13:03:59Z</time>
      </trkpt>
      <trkpt lat="43.57089" lon="3.81326">
        <ele>22</ele>
        <time>2021-01-09T13:04:00Z</time>
      </trkpt>
      <trkpt lat="43.57086" lon="3.8133">
        <ele>19</ele>
        <time>2021-01-09T13:04:01Z</time>
      </trkpt>
      <trkpt lat="43.57084" lon="3.81335">
        <ele>19.3</ele>
        <time>2021-01-09T13:04:02Z</time>
      </trkpt>
      <trkpt lat="43.57082" lon="3.81338">
        <ele>19.6</ele>
        <time>2021-01-09T13:04:03Z</time>
      </trkpt>
      <trkpt lat="43.5708" lon="3.81342">
        <ele>20.1</ele>
        <time>2021-01-09T13:04:04Z</time>
      </trkpt>
      <trkpt lat="43.57077" lon="3.81345">
        <ele>20.3</ele>
        <time>2021-01-09T13:04:05Z</time>
      </trkpt>
      <trkpt lat="43.57074" lon="3.81347">
        <ele>20.3</ele>
        <time>2021-01-09T13:04:06Z</time>
      </trkpt>
      <trkpt lat="43.57071" lon="3.81349">
        <ele>20.3</ele>
        <time>2021-01-09T13:04:07Z</time>
      </trkpt>
      <trkpt lat="43.57067" lon="3.81343">
        <ele>22</ele>
        <time>2021-01-09T13:04:10Z</time>
      </trkpt>
      <trkpt lat="43.57064" lon="3.8134">
        <ele>19.3</ele>
        <time>2021-01-09T13:04:11Z</time>
      </trkpt>
      <trkpt lat="43.57062" lon="3.81337">
        <ele>19.1</ele>
        <time>2021-01-09T13:04:12Z</time>
      </trkpt>
      <trkpt lat="43.5706" lon="3.81335">
        <ele>19</ele>
        <time>2021-01-09T13:04:13Z</time>
      </trkpt>
      <trkpt lat="43.57058" lon="3.81333">
        <ele>19</ele>
        <time>2021-01-09T13:04:14Z</time>
      </trkpt>
      <trkpt lat="43.57056" lon="3.8133">
        <ele>19.4</ele>
        <time>2021-01-09T13:04:15Z</time>
      </trkpt>
      <trkpt lat="43.57055" lon="3.81327">
        <ele>19.7</ele>
        <time>2021-01-09T13:04:16Z</time>
      </trkpt>
      <trkpt lat="43.57053" lon="3.81324">
        <ele>20.2</ele>
        <time>2021-01-09T13:04:17Z</time>
      </trkpt>
      <trkpt lat="43.57051" lon="3.81322">
        <ele>20.6</ele>
        <time>2021-01-09T13:04:18Z</time>
      </trkpt>
      <trkpt lat="43.57049" lon="3.81319">
        <ele>21</ele>
        <time>2021-01-09T13:04:19Z</time>
      </trkpt>
      <trkpt lat="43.57047" lon="3.81316">
        <ele>23</ele>
        <time>2021-01-09T13:04:20Z</time>
      </trkpt>
      <trkpt lat="43.57045" lon="3.81313">
        <ele>21.8</ele>
        <time>2021-01-09T13:04:21Z</time>
      </trkpt>
      <trkpt lat="43.57044" lon="3.81311">
        <ele>22</ele>
        <time>2021-01-09T13:04:22Z</time>
      </trkpt>
      <trkpt lat="43.57042" lon="3.81309">
        <ele>22.2</ele>
        <time>2021-01-09T13:04:23Z</time>
      </trkpt>
      <trkpt lat="43.57041" lon="3.81307">
        <ele>22.4</ele>
        <time>2021-01-09T13:04:24Z</time>
      </trkpt>
      <trkpt lat="43.5704" lon="3.81304">
        <ele>22.5</ele>
        <time>2021-01-09T13:04:25Z</time>
      </trkpt>
      <trkpt lat="43.57039" lon="3.81301">
        <ele>22.4</ele>
        <time>2021-01-09T13:04:26Z</time>
      </trkpt>
      <trkpt lat="43.57037" lon="3.81299">
        <ele>22.4</ele>
        <time>2021-01-09T13:04:27Z</time>
      </trkpt>
      <trkpt lat="43.57035" lon="3.81295">
        <ele>22.3</ele>
        <time>2021-01-09T13:04:29Z</time>
      </trkpt>
      <trkpt lat="43.57035" lon="3.81291">
        <ele>24</ele>
        <time>2021-01-09T13:04:30Z</time>
      </trkpt>
      <trkpt lat="43.57036" lon="3.81289">
        <ele>21.9</ele>
        <time>2021-01-09T13:04:32Z</time>
      </trkpt>
      <trkpt lat="43.57032" lon="3.81288">
        <ele>25</ele>
        <time>2021-01-09T13:05:41Z</time>
      </trkpt>
      <trkpt lat="43.57031" lon="3.81287">
        <ele>22.1</ele>
        <time>2021-01-09T13:05:42Z</time>
      </trkpt>
      <trkpt lat="43.57029" lon="3.81284">
        <ele>22.1</ele>
        <time>2021-01-09T13:05:43Z</time>
      </trkpt>
      <trkpt lat="43.57028" lon="3.81281">
        <ele>22.1</ele>
        <time>2021-01-09T13:05:44Z</time>
      </trkpt>
      <trkpt lat="43.57027" lon="3.81278">
        <ele>22.1</ele>
        <time>2021-01-09T13:05:45Z</time>
      </trkpt>
      <trkpt lat="43.57025" lon="3.81275">
        <ele>22.4</ele>
        <time>2021-01-09T13:05:46Z</time>
      </trkpt>
      <trkpt lat="43.57024" lon="3.81272">
        <ele>22.5</ele>
        <time>2021-01-09T13:05:47Z</time>
      </trkpt>
      <trkpt lat="43.57022" lon="3.81269">
        <ele>22.7</ele>
        <time>2021-01-09T13:05:48Z</time>
      </trkpt>
      <trkpt lat="43.5702" lon="3.81265">
        <ele>22.9</ele>
        <time>2021-01-09T13:05:49Z</time>
      </trkpt>
      <trkpt lat="43.57018" lon="3.81262">
        <ele>23.2</ele>
        <time>2021-01-09T13:05:50Z</time>
      </trkpt>
      <trkpt lat="43.57016" lon="3.81259">
        <ele>25</ele>
        <time>2021-01-09T13:05:51Z</time>
      </trkpt>
      <trkpt lat="43.57014" lon="3.81256">
        <ele>23.7</ele>
        <time>2021-01-09T13:05:52Z</time>
      </trkpt>
      <trkpt lat="43.57012" lon="3.81253">
        <ele>23.9</ele>
        <time>2021-01-09T13:05:53Z</time>
      </trkpt>
      <trkpt lat="43.5701" lon="3.8125">
        <ele>24.2</ele>
        <time>2021-01-09T13:05:54Z</time>
      </trkpt>
      <trkpt lat="43.57008" lon="3.81247">
        <ele>24.2</ele>
        <time>2021-01-09T13:05:55Z</time>
      </trkpt>
      <trkpt lat="43.57007" lon="3.81244">
        <ele>24</ele>
        <time>2021-01-09T13:05:56Z</time>
      </trkpt>
      <trkpt lat="43.57005" lon="3.81241">
        <ele>24</ele>
        <time>2021-01-09T13:05:57Z</time>
      </trkpt>
      <trkpt lat="43.57003" lon="3.81238">
        <ele>23.9</ele>
        <time>2021-01-09T13:05:58Z</time>
      </trkpt>
      <trkpt lat="43.57001" lon="3.81235">
        <ele>23.7</ele>
        <time>2021-01-09T13:05:59Z</time>
      </trkpt>
      <trkpt lat="43.56999" lon="3.81232">
        <ele>23.6</ele>
        <time>2021-01-09T13:06:00Z</time>
      </trkpt>
      <trkpt lat="43.56995" lon="3.81226">
        <ele>25</ele>
        <time>2021-01-09T13:06:01Z</time>
      </trkpt>
      <trkpt lat="43.56993" lon="3.81224">
        <ele>24</ele>
        <time>2021-01-09T13:06:02Z</time>
      </trkpt>
      <trkpt lat="43.56991" lon="3.81221">
        <ele>24.2</ele>
        <time>2021-01-09T13:06:03Z</time>
      </trkpt>
      <trkpt lat="43.56989" lon="3.81218">
        <ele>24.3</ele>
        <time>2021-01-09T13:06:04Z</time>
      </trkpt>
      <trkpt lat="43.56987" lon="3.81215">
        <ele>24.5</ele>
        <time>2021-01-09T13:06:05Z</time>
      </trkpt>
      <trkpt lat="43.56984" lon="3.8121">
        <ele>24.6</ele>
        <time>2021-01-09T13:06:07Z</time>
      </trkpt>
      <trkpt lat="43.56982" lon="3.81208">
        <ele>24.8</ele>
        <time>2021-01-09T13:06:08Z</time>
      </trkpt>
      <trkpt lat="43.56978" lon="3.81203">
        <ele>25.1</ele>
        <time>2021-01-09T13:06:10Z</time>
      </trkpt>
      <trkpt lat="43.56976" lon="3.81201">
        <ele>25.2</ele>
        <time>2021-01-09T13:06:12Z</time>
      </trkpt>
      <trkpt lat="43.56974" lon="3.812">
        <ele>25.5</ele>
        <time>2021-01-09T13:06:13Z</time>
      </trkpt>
      <trkpt lat="43.56972" lon="3.81198">
        <ele>25.5</ele>
        <time>2021-01-09T13:06:14Z</time>
      </trkpt>
      <trkpt lat="43.56969" lon="3.81196">
        <ele>25.5</ele>
        <time>2021-01-09T13:06:15Z</time>
      </trkpt>
      <trkpt lat="43.56967" lon="3.81195">
        <ele>25.5</ele>
        <time>2021-01-09T13:06:16Z</time>
      </trkpt>
      <trkpt lat="43.56965" lon="3.81194">
        <ele>25.5</ele>
        <time>2021-01-09T13:06:17Z</time>
      </trkpt>
      <trkpt lat="43.56962" lon="3.81192">
        <ele>25.4</ele>
        <time>2021-01-09T13:06:18Z</time>
      </trkpt>
      <trkpt lat="43.5696" lon="3.81191">
        <ele>25.4</ele>
        <time>2021-01-09T13:06:19Z</time>
      </trkpt>
      <trkpt lat="43.56957" lon="3.8119">
        <ele>25.5</ele>
        <time>2021-01-09T13:06:20Z</time>
      </trkpt>
      <trkpt lat="43.56955" lon="3.81189">
        <ele>27</ele>
        <time>2021-01-09T13:06:21Z</time>
      </trkpt>
      <trkpt lat="43.56952" lon="3.81189">
        <ele>25.7</ele>
        <time>2021-01-09T13:06:22Z</time>
      </trkpt>
      <trkpt lat="43.5695" lon="3.81188">
        <ele>25.7</ele>
        <time>2021-01-09T13:06:23Z</time>
      </trkpt>
      <trkpt lat="43.56948" lon="3.81188">
        <ele>25.8</ele>
        <time>2021-01-09T13:06:24Z</time>
      </trkpt>
      <trkpt lat="43.56945" lon="3.81187">
        <ele>25.9</ele>
        <time>2021-01-09T13:06:25Z</time>
      </trkpt>
      <trkpt lat="43.56943" lon="3.81187">
        <ele>25.9</ele>
        <time>2021-01-09T13:06:26Z</time>
      </trkpt>
      <trkpt lat="43.56941" lon="3.81186">
        <ele>25.6</ele>
        <time>2021-01-09T13:06:27Z</time>
      </trkpt>
      <trkpt lat="43.56938" lon="3.81186">
        <ele>25.5</ele>
        <time>2021-01-09T13:06:28Z</time>
      </trkpt>
      <trkpt lat="43.56936" lon="3.81186">
        <ele>25.5</ele>
        <time>2021-01-09T13:06:29Z</time>
      </trkpt>
      <trkpt lat="43.56933" lon="3.81187">
        <ele>25.4</ele>
        <time>2021-01-09T13:06:30Z</time>
      </trkpt>
      <trkpt lat="43.56931" lon="3.81188">
        <ele>27</ele>
        <time>2021-01-09T13:06:31Z</time>
      </trkpt>
      <trkpt lat="43.56928" lon="3.81189">
        <ele>25.4</ele>
        <time>2021-01-09T13:06:32Z</time>
      </trkpt>
      <trkpt lat="43.56926" lon="3.8119">
        <ele>25.4</ele>
        <time>2021-01-09T13:06:33Z</time>
      </trkpt>
      <trkpt lat="43.56923" lon="3.8119">
        <ele>25.2</ele>
        <time>2021-01-09T13:06:34Z</time>
      </trkpt>
      <trkpt lat="43.56921" lon="3.8119">
        <ele>25.1</ele>
        <time>2021-01-09T13:06:35Z</time>
      </trkpt>
      <trkpt lat="43.56919" lon="3.8119">
        <ele>25</ele>
        <time>2021-01-09T13:06:36Z</time>
      </trkpt>
      <trkpt lat="43.56916" lon="3.81189">
        <ele>24.8</ele>
        <time>2021-01-09T13:06:37Z</time>
      </trkpt>
      <trkpt lat="43.56915" lon="3.81187">
        <ele>24.7</ele>
        <time>2021-01-09T13:06:38Z</time>
      </trkpt>
      <trkpt lat="43.56913" lon="3.81186">
        <ele>24.7</ele>
        <time>2021-01-09T13:06:39Z</time>
      </trkpt>
      <trkpt lat="43.56911" lon="3.81184">
        <ele>24.6</ele>
        <time>2021-01-09T13:06:40Z</time>
      </trkpt>
      <trkpt lat="43.56909" lon="3.81183">
        <ele>27</ele>
        <time>2021-01-09T13:06:41Z</time>
      </trkpt>
      <trkpt lat="43.56907" lon="3.81182">
        <ele>24.6</ele>
        <time>2021-01-09T13:06:42Z</time>
      </trkpt>
      <trkpt lat="43.56903" lon="3.81181">
        <ele>24.5</ele>
        <time>2021-01-09T13:06:43Z</time>
      </trkpt>
      <trkpt lat="43.569" lon="3.8118">
        <ele>24.5</ele>
        <time>2021-01-09T13:06:44Z</time>
      </trkpt>
      <trkpt lat="43.56896" lon="3.81177">
        <ele>24.4</ele>
        <time>2021-01-09T13:06:45Z</time>
      </trkpt>
      <trkpt lat="43.56892" lon="3.81174">
        <ele>24.3</ele>
        <time>2021-01-09T13:06:46Z</time>
      </trkpt>
      <trkpt lat="43.56888" lon="3.81171">
        <ele>24.3</ele>
        <time>2021-01-09T13:06:47Z</time>
      </trkpt>
      <trkpt lat="43.56886" lon="3.81169">
        <ele>24.6</ele>
        <time>2021-01-09T13:06:48Z</time>
      </trkpt>
      <trkpt lat="43.56884" lon="3.81166">
        <ele>24.9</ele>
        <time>2021-01-09T13:06:49Z</time>
      </trkpt>
      <trkpt lat="43.56882" lon="3.81164">
        <ele>25.3</ele>
        <time>2021-01-09T13:06:50Z</time>
      </trkpt>
      <trkpt lat="43.56881" lon="3.81163">
        <ele>27</ele>
        <time>2021-01-09T13:06:51Z</time>
      </trkpt>
      <trkpt lat="43.5688" lon="3.81161">
        <ele>25.7</ele>
        <time>2021-01-09T13:06:52Z</time>
      </trkpt>
      <trkpt lat="43.56878" lon="3.81158">
        <ele>26.1</ele>
        <time>2021-01-09T13:06:53Z</time>
      </trkpt>
      <trkpt lat="43.56877" lon="3.81156">
        <ele>26.3</ele>
        <time>2021-01-09T13:06:54Z</time>
      </trkpt>
      <trkpt lat="43.56876" lon="3.81154">
        <ele>26.5</ele>
        <time>2021-01-09T13:06:55Z</time>
      </trkpt>
      <trkpt lat="43.56874" lon="3.81151">
        <ele>27</ele>
        <time>2021-01-09T13:06:57Z</time>
      </trkpt>
      <trkpt lat="43.56871" lon="3.81148">
        <ele>27.7</ele>
        <time>2021-01-09T13:06:59Z</time>
      </trkpt>
      <trkpt lat="43.56867" lon="3.81147">
        <ele>29</ele>
        <time>2021-01-09T13:07:01Z</time>
      </trkpt>
      <trkpt lat="43.56864" lon="3.81145">
        <ele>29.2</ele>
        <time>2021-01-09T13:07:03Z</time>
      </trkpt>
      <trkpt lat="43.56861" lon="3.81143">
        <ele>29.9</ele>
        <time>2021-01-09T13:07:05Z</time>
      </trkpt>
      <trkpt lat="43.56858" lon="3.81142">
        <ele>30.5</ele>
        <time>2021-01-09T13:07:07Z</time>
      </trkpt>
      <trkpt lat="43.56855" lon="3.81141">
        <ele>31</ele>
        <time>2021-01-09T13:07:09Z</time>
      </trkpt>
      <trkpt lat="43.56852" lon="3.8114">
        <ele>32</ele>
        <time>2021-01-09T13:07:11Z</time>
      </trkpt>
      <trkpt lat="43.5685" lon="3.81139">
        <ele>32</ele>
        <time>2021-01-09T13:07:13Z</time>
      </trkpt>
      <trkpt lat="43.56847" lon="3.81137">
        <ele>32.4</ele>
        <time>2021-01-09T13:07:15Z</time>
      </trkpt>
      <trkpt lat="43.56845" lon="3.81136">
        <ele>32.8</ele>
        <time>2021-01-09T13:07:17Z</time>
      </trkpt>
      <trkpt lat="43.56842" lon="3.81134">
        <ele>33.2</ele>
        <time>2021-01-09T13:07:19Z</time>
      </trkpt>
      <trkpt lat="43.56839" lon="3.81132">
        <ele>34</ele>
        <time>2021-01-09T13:07:21Z</time>
      </trkpt>
      <trkpt lat="43.56836" lon="3.8113">
        <ele>34.2</ele>
        <time>2021-01-09T13:07:23Z</time>
      </trkpt>
      <trkpt lat="43.56834" lon="3.81128">
        <ele>34.5</ele>
        <time>2021-01-09T13:07:25Z</time>
      </trkpt>
      <trkpt lat="43.56831" lon="3.81125">
        <ele>34.8</ele>
        <time>2021-01-09T13:07:27Z</time>
      </trkpt>
      <trkpt lat="43.56828" lon="3.81122">
        <ele>35</ele>
        <time>2021-01-09T13:07:29Z</time>
      </trkpt>
      <trkpt lat="43.56826" lon="3.81119">
        <ele>36</ele>
        <time>2021-01-09T13:07:31Z</time>
      </trkpt>
      <trkpt lat="43.56824" lon="3.81118">
        <ele>35.3</ele>
        <time>2021-01-09T13:07:32Z</time>
      </trkpt>
      <trkpt lat="43.56823" lon="3.81116">
        <ele>35.4</ele>
        <time>2021-01-09T13:07:33Z</time>
      </trkpt>
      <trkpt lat="43.56821" lon="3.81115">
        <ele>35.5</ele>
        <time>2021-01-09T13:07:34Z</time>
      </trkpt>
      <trkpt lat="43.5682" lon="3.81113">
        <ele>35.5</ele>
        <time>2021-01-09T13:07:35Z</time>
      </trkpt>
      <trkpt lat="43.56819" lon="3.81111">
        <ele>35.5</ele>
        <time>2021-01-09T13:07:36Z</time>
      </trkpt>
      <trkpt lat="43.56817" lon="3.81109">
        <ele>35.6</ele>
        <time>2021-01-09T13:07:37Z</time>
      </trkpt>
      <trkpt lat="43.56816" lon="3.81107">
        <ele>35.5</ele>
        <time>2021-01-09T13:07:38Z</time>
      </trkpt>
      <trkpt lat="43.56814" lon="3.81105">
        <ele>35.6</ele>
        <time>2021-01-09T13:07:39Z</time>
      </trkpt>
      <trkpt lat="43.56813" lon="3.81103">
        <ele>35.5</ele>
        <time>2021-01-09T13:07:40Z</time>
      </trkpt>
      <trkpt lat="43.56811" lon="3.811">
        <ele>37</ele>
        <time>2021-01-09T13:07:41Z</time>
      </trkpt>
      <trkpt lat="43.56809" lon="3.81098">
        <ele>35.6</ele>
        <time>2021-01-09T13:07:42Z</time>
      </trkpt>
      <trkpt lat="43.56807" lon="3.81096">
        <ele>35.7</ele>
        <time>2021-01-09T13:07:43Z</time>
      </trkpt>
      <trkpt lat="43.56806" lon="3.81094">
        <ele>35.7</ele>
        <time>2021-01-09T13:07:44Z</time>
      </trkpt>
      <trkpt lat="43.56804" lon="3.81092">
        <ele>35.8</ele>
        <time>2021-01-09T13:07:45Z</time>
      </trkpt>
      <trkpt lat="43.56802" lon="3.81089">
        <ele>35.8</ele>
        <time>2021-01-09T13:07:46Z</time>
      </trkpt>
      <trkpt lat="43.568" lon="3.81087">
        <ele>35.9</ele>
        <time>2021-01-09T13:07:47Z</time>
      </trkpt>
      <trkpt lat="43.56798" lon="3.81084">
        <ele>35.9</ele>
        <time>2021-01-09T13:07:48Z</time>
      </trkpt>
      <trkpt lat="43.56796" lon="3.81082">
        <ele>35.9</ele>
        <time>2021-01-09T13:07:49Z</time>
      </trkpt>
      <trkpt lat="43.56795" lon="3.81079">
        <ele>35.7</ele>
        <time>2021-01-09T13:07:50Z</time>
      </trkpt>
      <trkpt lat="43.56793" lon="3.81076">
        <ele>37</ele>
        <time>2021-01-09T13:07:51Z</time>
      </trkpt>
      <trkpt lat="43.56791" lon="3.81073">
        <ele>35.7</ele>
        <time>2021-01-09T13:07:52Z</time>
      </trkpt>
      <trkpt lat="43.56789" lon="3.81071">
        <ele>35.7</ele>
        <time>2021-01-09T13:07:53Z</time>
      </trkpt>
      <trkpt lat="43.56788" lon="3.81068">
        <ele>35.6</ele>
        <time>2021-01-09T13:07:54Z</time>
      </trkpt>
      <trkpt lat="43.56786" lon="3.81065">
        <ele>35.6</ele>
        <time>2021-01-09T13:07:55Z</time>
      </trkpt>
      <trkpt lat="43.56784" lon="3.81063">
        <ele>35.7</ele>
        <time>2021-01-09T13:07:56Z</time>
      </trkpt>
      <trkpt lat="43.56783" lon="3.81061">
        <ele>35.7</ele>
        <time>2021-01-09T13:07:57Z</time>
      </trkpt>
      <trkpt lat="43.56781" lon="3.81059">
        <ele>35.8</ele>
        <time>2021-01-09T13:07:58Z</time>
      </trkpt>
      <trkpt lat="43.5678" lon="3.81056">
        <ele>35.7</ele>
        <time>2021-01-09T13:07:59Z</time>
      </trkpt>
      <trkpt lat="43.56778" lon="3.81052">
        <ele>37</ele>
        <time>2021-01-09T13:08:01Z</time>
      </trkpt>
      <trkpt lat="43.56777" lon="3.8105">
        <ele>35.5</ele>
        <time>2021-01-09T13:08:02Z</time>
      </trkpt>
      <trkpt lat="43.56777" lon="3.81047">
        <ele>35.1</ele>
        <time>2021-01-09T13:08:03Z</time>
      </trkpt>
      <trkpt lat="43.56776" lon="3.81044">
        <ele>34.9</ele>
        <time>2021-01-09T13:08:04Z</time>
      </trkpt>
      <trkpt lat="43.56775" lon="3.81041">
        <ele>34.6</ele>
        <time>2021-01-09T13:08:05Z</time>
      </trkpt>
      <trkpt lat="43.56774" lon="3.81037">
        <ele>34.3</ele>
        <time>2021-01-09T13:08:06Z</time>
      </trkpt>
      <trkpt lat="43.56774" lon="3.81033">
        <ele>33.8</ele>
        <time>2021-01-09T13:08:07Z</time>
      </trkpt>
      <trkpt lat="43.56772" lon="3.81029">
        <ele>33.5</ele>
        <time>2021-01-09T13:08:08Z</time>
      </trkpt>
      <trkpt lat="43.56771" lon="3.81026">
        <ele>33.4</ele>
        <time>2021-01-09T13:08:09Z</time>
      </trkpt>
      <trkpt lat="43.5677" lon="3.81022">
        <ele>33.1</ele>
        <time>2021-01-09T13:08:10Z</time>
      </trkpt>
      <trkpt lat="43.5677" lon="3.81017">
        <ele>35</ele>
        <time>2021-01-09T13:08:11Z</time>
      </trkpt>
      <trkpt lat="43.56769" lon="3.81013">
        <ele>32.6</ele>
        <time>2021-01-09T13:08:12Z</time>
      </trkpt>
      <trkpt lat="43.56768" lon="3.81009">
        <ele>32.4</ele>
        <time>2021-01-09T13:08:13Z</time>
      </trkpt>
      <trkpt lat="43.56767" lon="3.81005">
        <ele>32.1</ele>
        <time>2021-01-09T13:08:14Z</time>
      </trkpt>
      <trkpt lat="43.56765" lon="3.81002">
        <ele>32.1</ele>
        <time>2021-01-09T13:08:15Z</time>
      </trkpt>
      <trkpt lat="43.56762" lon="3.81">
        <ele>32.1</ele>
        <time>2021-01-09T13:08:16Z</time>
      </trkpt>
      <trkpt lat="43.5676" lon="3.80997">
        <ele>32.1</ele>
        <time>2021-01-09T13:08:17Z</time>
      </trkpt>
      <trkpt lat="43.56757" lon="3.80996">
        <ele>32.3</ele>
        <time>2021-01-09T13:08:18Z</time>
      </trkpt>
      <trkpt lat="43.56754" lon="3.80994">
        <ele>32.5</ele>
        <time>2021-01-09T13:08:19Z</time>
      </trkpt>
      <trkpt lat="43.56752" lon="3.80991">
        <ele>32.5</ele>
        <time>2021-01-09T13:08:20Z</time>
      </trkpt>
      <trkpt lat="43.5675" lon="3.80989">
        <ele>34</ele>
        <time>2021-01-09T13:08:21Z</time>
      </trkpt>
      <trkpt lat="43.56747" lon="3.80986">
        <ele>32.6</ele>
        <time>2021-01-09T13:08:22Z</time>
      </trkpt>
      <trkpt lat="43.56745" lon="3.80983">
        <ele>32.6</ele>
        <time>2021-01-09T13:08:23Z</time>
      </trkpt>
      <trkpt lat="43.56743" lon="3.8098">
        <ele>32.5</ele>
        <time>2021-01-09T13:08:24Z</time>
      </trkpt>
      <trkpt lat="43.56741" lon="3.80977">
        <ele>32.5</ele>
        <time>2021-01-09T13:08:25Z</time>
      </trkpt>
      <trkpt lat="43.56739" lon="3.80974">
        <ele>32.5</ele>
        <time>2021-01-09T13:08:26Z</time>
      </trkpt>
      <trkpt lat="43.56737" lon="3.80972">
        <ele>32.5</ele>
        <time>2021-01-09T13:08:27Z</time>
      </trkpt>
      <trkpt lat="43.56734" lon="3.80971">
        <ele>32.5</ele>
        <time>2021-01-09T13:08:28Z</time>
      </trkpt>
      <trkpt lat="43.56732" lon="3.8097">
        <ele>32.5</ele>
        <time>2021-01-09T13:08:29Z</time>
      </trkpt>
      <trkpt lat="43.56729" lon="3.8097">
        <ele>32.6</ele>
        <time>2021-01-09T13:08:30Z</time>
      </trkpt>
      <trkpt lat="43.56728" lon="3.80969">
        <ele>34</ele>
        <time>2021-01-09T13:08:31Z</time>
      </trkpt>
      <trkpt lat="43.56726" lon="3.80968">
        <ele>32.6</ele>
        <time>2021-01-09T13:08:32Z</time>
      </trkpt>
      <trkpt lat="43.56725" lon="3.80964">
        <ele>32.3</ele>
        <time>2021-01-09T13:08:34Z</time>
      </trkpt>
      <trkpt lat="43.56726" lon="3.80961">
        <ele>32.1</ele>
        <time>2021-01-09T13:08:36Z</time>
      </trkpt>
      <trkpt lat="43.56728" lon="3.80961">
        <ele>32</ele>
        <time>2021-01-09T13:08:38Z</time>
      </trkpt>
      <trkpt lat="43.56732" lon="3.80959">
        <ele>31.7</ele>
        <time>2021-01-09T13:08:40Z</time>
      </trkpt>
      <trkpt lat="43.56733" lon="3.80957">
        <ele>34</ele>
        <time>2021-01-09T13:08:41Z</time>
      </trkpt>
      <trkpt lat="43.56734" lon="3.80954">
        <ele>31.3</ele>
        <time>2021-01-09T13:08:42Z</time>
      </trkpt>
      <trkpt lat="43.56736" lon="3.80951">
        <ele>31</ele>
        <time>2021-01-09T13:08:43Z</time>
      </trkpt>
      <trkpt lat="43.56737" lon="3.80949">
        <ele>30.8</ele>
        <time>2021-01-09T13:08:45Z</time>
      </trkpt>
      <trkpt lat="43.56734" lon="3.80958">
        <ele>34</ele>
        <time>2021-01-09T13:09:57Z</time>
      </trkpt>
      <trkpt lat="43.56733" lon="3.8096">
        <ele>31.7</ele>
        <time>2021-01-09T13:09:59Z</time>
      </trkpt>
      <trkpt lat="43.5673" lon="3.80962">
        <ele>32</ele>
        <time>2021-01-09T13:10:01Z</time>
      </trkpt>
      <trkpt lat="43.56727" lon="3.80963">
        <ele>32.2</ele>
        <time>2021-01-09T13:10:03Z</time>
      </trkpt>
      <trkpt lat="43.56725" lon="3.80966">
        <ele>32.5</ele>
        <time>2021-01-09T13:10:05Z</time>
      </trkpt>
      <trkpt lat="43.56721" lon="3.80971">
        <ele>34</ele>
        <time>2021-01-09T13:10:07Z</time>
      </trkpt>
      <trkpt lat="43.56718" lon="3.80972">
        <ele>32.8</ele>
        <time>2021-01-09T13:10:08Z</time>
      </trkpt>
      <trkpt lat="43.56715" lon="3.80973">
        <ele>32.8</ele>
        <time>2021-01-09T13:10:09Z</time>
      </trkpt>
      <trkpt lat="43.56712" lon="3.80975">
        <ele>32.8</ele>
        <time>2021-01-09T13:10:10Z</time>
      </trkpt>
      <trkpt lat="43.5671" lon="3.80977">
        <ele>32.8</ele>
        <time>2021-01-09T13:10:11Z</time>
      </trkpt>
      <trkpt lat="43.56707" lon="3.80979">
        <ele>32.8</ele>
        <time>2021-01-09T13:10:12Z</time>
      </trkpt>
      <trkpt lat="43.56704" lon="3.80981">
        <ele>32.9</ele>
        <time>2021-01-09T13:10:13Z</time>
      </trkpt>
      <trkpt lat="43.56702" lon="3.80982">
        <ele>32.9</ele>
        <time>2021-01-09T13:10:14Z</time>
      </trkpt>
      <trkpt lat="43.56699" lon="3.80984">
        <ele>32.9</ele>
        <time>2021-01-09T13:10:16Z</time>
      </trkpt>
      <trkpt lat="43.56697" lon="3.80984">
        <ele>34</ele>
        <time>2021-01-09T13:10:17Z</time>
      </trkpt>
      <trkpt lat="43.56695" lon="3.80985">
        <ele>32.9</ele>
        <time>2021-01-09T13:10:18Z</time>
      </trkpt>
      <trkpt lat="43.56693" lon="3.80985">
        <ele>32.6</ele>
        <time>2021-01-09T13:10:19Z</time>
      </trkpt>
      <trkpt lat="43.56689" lon="3.80984">
        <ele>31.8</ele>
        <time>2021-01-09T13:10:21Z</time>
      </trkpt>
      <trkpt lat="43.56688" lon="3.80982">
        <ele>31.5</ele>
        <time>2021-01-09T13:10:22Z</time>
      </trkpt>
      <trkpt lat="43.56687" lon="3.80978">
        <ele>31</ele>
        <time>2021-01-09T13:10:23Z</time>
      </trkpt>
      <trkpt lat="43.56686" lon="3.80974">
        <ele>30.6</ele>
        <time>2021-01-09T13:10:24Z</time>
      </trkpt>
      <trkpt lat="43.56685" lon="3.80969">
        <ele>30</ele>
        <time>2021-01-09T13:10:25Z</time>
      </trkpt>
      <trkpt lat="43.56684" lon="3.80965">
        <ele>29.5</ele>
        <time>2021-01-09T13:10:26Z</time>
      </trkpt>
      <trkpt lat="43.56683" lon="3.8096">
        <ele>32</ele>
        <time>2021-01-09T13:10:27Z</time>
      </trkpt>
      <trkpt lat="43.56681" lon="3.80955">
        <ele>28.3</ele>
        <time>2021-01-09T13:10:28Z</time>
      </trkpt>
      <trkpt lat="43.5668" lon="3.80949">
        <ele>27.8</ele>
        <time>2021-01-09T13:10:29Z</time>
      </trkpt>
      <trkpt lat="43.56678" lon="3.80944">
        <ele>27.2</ele>
        <time>2021-01-09T13:10:30Z</time>
      </trkpt>
      <trkpt lat="43.56678" lon="3.80938">
        <ele>26.7</ele>
        <time>2021-01-09T13:10:31Z</time>
      </trkpt>
      <trkpt lat="43.56677" lon="3.80932">
        <ele>26.1</ele>
        <time>2021-01-09T13:10:32Z</time>
      </trkpt>
      <trkpt lat="43.56677" lon="3.80925">
        <ele>25.5</ele>
        <time>2021-01-09T13:10:33Z</time>
      </trkpt>
      <trkpt lat="43.56676" lon="3.80919">
        <ele>24.9</ele>
        <time>2021-01-09T13:10:34Z</time>
      </trkpt>
      <trkpt lat="43.56675" lon="3.80914">
        <ele>24.5</ele>
        <time>2021-01-09T13:10:35Z</time>
      </trkpt>
      <trkpt lat="43.56674" lon="3.80911">
        <ele>24.3</ele>
        <time>2021-01-09T13:10:36Z</time>
      </trkpt>
      <trkpt lat="43.56672" lon="3.80909">
        <ele>27</ele>
        <time>2021-01-09T13:10:37Z</time>
      </trkpt>
      <trkpt lat="43.56671" lon="3.80907">
        <ele>23.9</ele>
        <time>2021-01-09T13:10:38Z</time>
      </trkpt>
      <trkpt lat="43.56669" lon="3.80905">
        <ele>23.7</ele>
        <time>2021-01-09T13:10:39Z</time>
      </trkpt>
      <trkpt lat="43.56669" lon="3.80903">
        <ele>23.6</ele>
        <time>2021-01-09T13:10:40Z</time>
      </trkpt>
      <trkpt lat="43.56667" lon="3.80899">
        <ele>23.4</ele>
        <time>2021-01-09T13:10:42Z</time>
      </trkpt>
      <trkpt lat="43.56666" lon="3.80901">
        <ele>23.4</ele>
        <time>2021-01-09T13:10:45Z</time>
      </trkpt>
      <trkpt lat="43.56667" lon="3.80904">
        <ele>26</ele>
        <time>2021-01-09T13:10:47Z</time>
      </trkpt>
      <trkpt lat="43.5667" lon="3.80906">
        <ele>23.8</ele>
        <time>2021-01-09T13:10:49Z</time>
      </trkpt>
      <trkpt lat="43.56673" lon="3.80909">
        <ele>24.1</ele>
        <time>2021-01-09T13:10:51Z</time>
      </trkpt>
      <trkpt lat="43.56676" lon="3.80909">
        <ele>24.3</ele>
        <time>2021-01-09T13:10:53Z</time>
      </trkpt>
      <trkpt lat="43.56679" lon="3.80908">
        <ele>24.4</ele>
        <time>2021-01-09T13:10:55Z</time>
      </trkpt>
      <trkpt lat="43.5668" lon="3.80907">
        <ele>25</ele>
        <time>2021-01-09T13:10:57Z</time>
      </trkpt>
      <trkpt lat="43.56681" lon="3.80905">
        <ele>24.4</ele>
        <time>2021-01-09T13:10:59Z</time>
      </trkpt>
      <trkpt lat="43.56681" lon="3.80898">
        <ele>24</ele>
        <time>2021-01-09T13:11:01Z</time>
      </trkpt>
      <trkpt lat="43.56681" lon="3.80894">
        <ele>23.8</ele>
        <time>2021-01-09T13:11:02Z</time>
      </trkpt>
      <trkpt lat="43.56681" lon="3.80888">
        <ele>23.4</ele>
        <time>2021-01-09T13:11:03Z</time>
      </trkpt>
      <trkpt lat="43.56681" lon="3.80883">
        <ele>22.9</ele>
        <time>2021-01-09T13:11:04Z</time>
      </trkpt>
      <trkpt lat="43.56682" lon="3.80878">
        <ele>22.3</ele>
        <time>2021-01-09T13:11:05Z</time>
      </trkpt>
      <trkpt lat="43.56683" lon="3.80873">
        <ele>21.8</ele>
        <time>2021-01-09T13:11:06Z</time>
      </trkpt>
      <trkpt lat="43.56684" lon="3.80869">
        <ele>22</ele>
        <time>2021-01-09T13:11:07Z</time>
      </trkpt>
      <trkpt lat="43.56685" lon="3.80865">
        <ele>20.8</ele>
        <time>2021-01-09T13:11:08Z</time>
      </trkpt>
      <trkpt lat="43.56686" lon="3.8086">
        <ele>20.1</ele>
        <time>2021-01-09T13:11:09Z</time>
      </trkpt>
      <trkpt lat="43.56687" lon="3.80856">
        <ele>19.5</ele>
        <time>2021-01-09T13:11:10Z</time>
      </trkpt>
      <trkpt lat="43.56688" lon="3.80852">
        <ele>18.8</ele>
        <time>2021-01-09T13:11:11Z</time>
      </trkpt>
      <trkpt lat="43.56688" lon="3.80849">
        <ele>18.4</ele>
        <time>2021-01-09T13:11:12Z</time>
      </trkpt>
      <trkpt lat="43.56688" lon="3.80845">
        <ele>17.8</ele>
        <time>2021-01-09T13:11:13Z</time>
      </trkpt>
      <trkpt lat="43.56688" lon="3.80842">
        <ele>17.3</ele>
        <time>2021-01-09T13:11:14Z</time>
      </trkpt>
      <trkpt lat="43.56688" lon="3.80839">
        <ele>16.9</ele>
        <time>2021-01-09T13:11:15Z</time>
      </trkpt>
      <trkpt lat="43.56686" lon="3.80837">
        <ele>16.6</ele>
        <time>2021-01-09T13:11:16Z</time>
      </trkpt>
      <trkpt lat="43.56683" lon="3.80837">
        <ele>20</ele>
        <time>2021-01-09T13:11:17Z</time>
      </trkpt>
      <trkpt lat="43.5668" lon="3.80837">
        <ele>16.6</ele>
        <time>2021-01-09T13:11:18Z</time>
      </trkpt>
      <trkpt lat="43.56676" lon="3.80838">
        <ele>16.8</ele>
        <time>2021-01-09T13:11:19Z</time>
      </trkpt>
      <trkpt lat="43.56672" lon="3.80838">
        <ele>16.8</ele>
        <time>2021-01-09T13:11:20Z</time>
      </trkpt>
      <trkpt lat="43.56669" lon="3.80839">
        <ele>17</ele>
        <time>2021-01-09T13:11:21Z</time>
      </trkpt>
      <trkpt lat="43.56665" lon="3.80839">
        <ele>17</ele>
        <time>2021-01-09T13:11:22Z</time>
      </trkpt>
      <trkpt lat="43.56661" lon="3.80839">
        <ele>17</ele>
        <time>2021-01-09T13:11:23Z</time>
      </trkpt>
      <trkpt lat="43.56658" lon="3.8084">
        <ele>17.2</ele>
        <time>2021-01-09T13:11:24Z</time>
      </trkpt>
      <trkpt lat="43.56654" lon="3.8084">
        <ele>17.2</ele>
        <time>2021-01-09T13:11:25Z</time>
      </trkpt>
      <trkpt lat="43.5665" lon="3.80841">
        <ele>17.4</ele>
        <time>2021-01-09T13:11:26Z</time>
      </trkpt>
      <trkpt lat="43.56643" lon="3.80842">
        <ele>18</ele>
        <time>2021-01-09T13:11:27Z</time>
      </trkpt>
      <trkpt lat="43.56639" lon="3.80841">
        <ele>17.4</ele>
        <time>2021-01-09T13:11:28Z</time>
      </trkpt>
      <trkpt lat="43.56635" lon="3.80841">
        <ele>17.2</ele>
        <time>2021-01-09T13:11:29Z</time>
      </trkpt>
      <trkpt lat="43.56631" lon="3.80841">
        <ele>17</ele>
        <time>2021-01-09T13:11:30Z</time>
      </trkpt>
      <trkpt lat="43.56627" lon="3.80841">
        <ele>16.8</ele>
        <time>2021-01-09T13:11:31Z</time>
      </trkpt>
      <trkpt lat="43.5662" lon="3.8084">
        <ele>16.4</ele>
        <time>2021-01-09T13:11:33Z</time>
      </trkpt>
      <trkpt lat="43.56616" lon="3.80839">
        <ele>16.2</ele>
        <time>2021-01-09T13:11:34Z</time>
      </trkpt>
      <trkpt lat="43.56612" lon="3.80839">
        <ele>16</ele>
        <time>2021-01-09T13:11:35Z</time>
      </trkpt>
      <trkpt lat="43.56607" lon="3.80838">
        <ele>17</ele>
        <time>2021-01-09T13:11:37Z</time>
      </trkpt>
      <trkpt lat="43.56603" lon="3.80838">
        <ele>16</ele>
        <time>2021-01-09T13:11:38Z</time>
      </trkpt>
      <trkpt lat="43.56599" lon="3.80838">
        <ele>16</ele>
        <time>2021-01-09T13:11:39Z</time>
      </trkpt>
      <trkpt lat="43.56596" lon="3.80838">
        <ele>16</ele>
        <time>2021-01-09T13:11:40Z</time>
      </trkpt>
      <trkpt lat="43.56592" lon="3.80837">
        <ele>16</ele>
        <time>2021-01-09T13:11:41Z</time>
      </trkpt>
      <trkpt lat="43.56588" lon="3.80837">
        <ele>16</ele>
        <time>2021-01-09T13:11:42Z</time>
      </trkpt>
      <trkpt lat="43.56585" lon="3.80836">
        <ele>16</ele>
        <time>2021-01-09T13:11:43Z</time>
      </trkpt>
      <trkpt lat="43.56581" lon="3.80836">
        <ele>16</ele>
        <time>2021-01-09T13:11:44Z</time>
      </trkpt>
      <trkpt lat="43.56578" lon="3.80835">
        <ele>16</ele>
        <time>2021-01-09T13:11:45Z</time>
      </trkpt>
      <trkpt lat="43.56575" lon="3.80835">
        <ele>16</ele>
        <time>2021-01-09T13:11:46Z</time>
      </trkpt>
      <trkpt lat="43.56572" lon="3.80835">
        <ele>17</ele>
        <time>2021-01-09T13:11:47Z</time>
      </trkpt>
      <trkpt lat="43.56568" lon="3.80834">
        <ele>16</ele>
        <time>2021-01-09T13:11:48Z</time>
      </trkpt>
      <trkpt lat="43.56565" lon="3.80833">
        <ele>16</ele>
        <time>2021-01-09T13:11:49Z</time>
      </trkpt>
      <trkpt lat="43.56562" lon="3.80833">
        <ele>16</ele>
        <time>2021-01-09T13:11:50Z</time>
      </trkpt>
      <trkpt lat="43.56558" lon="3.80832">
        <ele>16</ele>
        <time>2021-01-09T13:11:51Z</time>
      </trkpt>
      <trkpt lat="43.56555" lon="3.80831">
        <ele>16</ele>
        <time>2021-01-09T13:11:52Z</time>
      </trkpt>
      <trkpt lat="43.56552" lon="3.80829">
        <ele>16.2</ele>
        <time>2021-01-09T13:11:53Z</time>
      </trkpt>
      <trkpt lat="43.56548" lon="3.80828">
        <ele>16.4</ele>
        <time>2021-01-09T13:11:54Z</time>
      </trkpt>
      <trkpt lat="43.56545" lon="3.80826">
        <ele>16.5</ele>
        <time>2021-01-09T13:11:55Z</time>
      </trkpt>
      <trkpt lat="43.56543" lon="3.80826">
        <ele>16.5</ele>
        <time>2021-01-09T13:11:56Z</time>
      </trkpt>
      <trkpt lat="43.5654" lon="3.80826">
        <ele>18</ele>
        <time>2021-01-09T13:11:57Z</time>
      </trkpt>
      <trkpt lat="43.56537" lon="3.80826">
        <ele>16.8</ele>
        <time>2021-01-09T13:11:58Z</time>
      </trkpt>
      <trkpt lat="43.56535" lon="3.80827">
        <ele>17</ele>
        <time>2021-01-09T13:11:59Z</time>
      </trkpt>
      <trkpt lat="43.56533" lon="3.80829">
        <ele>17.2</ele>
        <time>2021-01-09T13:12:01Z</time>
      </trkpt>
      <trkpt lat="43.5653" lon="3.8083">
        <ele>17.5</ele>
        <time>2021-01-09T13:12:03Z</time>
      </trkpt>
      <trkpt lat="43.56529" lon="3.80828">
        <ele>19</ele>
        <time>2021-01-09T13:12:10Z</time>
      </trkpt>
      <trkpt lat="43.56541" lon="3.80824">
        <ele>19</ele>
        <time>2021-01-09T13:12:37Z</time>
      </trkpt>
      <trkpt lat="43.56544" lon="3.80823">
        <ele>16.4</ele>
        <time>2021-01-09T13:12:38Z</time>
      </trkpt>
      <trkpt lat="43.56546" lon="3.80823">
        <ele>16.3</ele>
        <time>2021-01-09T13:12:39Z</time>
      </trkpt>
      <trkpt lat="43.56549" lon="3.80824">
        <ele>16.2</ele>
        <time>2021-01-09T13:12:40Z</time>
      </trkpt>
      <trkpt lat="43.56552" lon="3.80825">
        <ele>16.1</ele>
        <time>2021-01-09T13:12:41Z</time>
      </trkpt>
      <trkpt lat="43.56555" lon="3.80826">
        <ele>16</ele>
        <time>2021-01-09T13:12:42Z</time>
      </trkpt>
      <trkpt lat="43.56557" lon="3.80827">
        <ele>16</ele>
        <time>2021-01-09T13:12:43Z</time>
      </trkpt>
      <trkpt lat="43.5656" lon="3.80827">
        <ele>16</ele>
        <time>2021-01-09T13:12:44Z</time>
      </trkpt>
      <trkpt lat="43.56563" lon="3.80828">
        <ele>16</ele>
        <time>2021-01-09T13:12:45Z</time>
      </trkpt>
      <trkpt lat="43.56566" lon="3.80829">
        <ele>16</ele>
        <time>2021-01-09T13:12:46Z</time>
      </trkpt>
      <trkpt lat="43.56569" lon="3.80829">
        <ele>18</ele>
        <time>2021-01-09T13:12:47Z</time>
      </trkpt>
      <trkpt lat="43.56571" lon="3.8083">
        <ele>16</ele>
        <time>2021-01-09T13:12:48Z</time>
      </trkpt>
      <trkpt lat="43.56574" lon="3.80829">
        <ele>16</ele>
        <time>2021-01-09T13:12:49Z</time>
      </trkpt>
      <trkpt lat="43.56576" lon="3.8083">
        <ele>16</ele>
        <time>2021-01-09T13:12:50Z</time>
      </trkpt>
      <trkpt lat="43.56579" lon="3.8083">
        <ele>16</ele>
        <time>2021-01-09T13:12:51Z</time>
      </trkpt>
      <trkpt lat="43.56582" lon="3.80831">
        <ele>16</ele>
        <time>2021-01-09T13:12:52Z</time>
      </trkpt>
      <trkpt lat="43.56585" lon="3.80832">
        <ele>16</ele>
        <time>2021-01-09T13:12:53Z</time>
      </trkpt>
      <trkpt lat="43.56588" lon="3.80833">
        <ele>16</ele>
        <time>2021-01-09T13:12:54Z</time>
      </trkpt>
      <trkpt lat="43.56591" lon="3.80834">
        <ele>16</ele>
        <time>2021-01-09T13:12:55Z</time>
      </trkpt>
      <trkpt lat="43.56594" lon="3.80835">
        <ele>16</ele>
        <time>2021-01-09T13:12:56Z</time>
      </trkpt>
      <trkpt lat="43.56597" lon="3.80835">
        <ele>19</ele>
        <time>2021-01-09T13:12:57Z</time>
      </trkpt>
      <trkpt lat="43.566" lon="3.80835">
        <ele>16</ele>
        <time>2021-01-09T13:12:58Z</time>
      </trkpt>
      <trkpt lat="43.56603" lon="3.80836">
        <ele>16</ele>
        <time>2021-01-09T13:12:59Z</time>
      </trkpt>
      <trkpt lat="43.56606" lon="3.80836">
        <ele>16</ele>
        <time>2021-01-09T13:13:00Z</time>
      </trkpt>
      <trkpt lat="43.56609" lon="3.80837">
        <ele>16</ele>
        <time>2021-01-09T13:13:01Z</time>
      </trkpt>
      <trkpt lat="43.56612" lon="3.80838">
        <ele>16</ele>
        <time>2021-01-09T13:13:02Z</time>
      </trkpt>
      <trkpt lat="43.56616" lon="3.80838">
        <ele>16.1</ele>
        <time>2021-01-09T13:13:03Z</time>
      </trkpt>
      <trkpt lat="43.56619" lon="3.80838">
        <ele>16.2</ele>
        <time>2021-01-09T13:13:04Z</time>
      </trkpt>
      <trkpt lat="43.56622" lon="3.80838">
        <ele>16.3</ele>
        <time>2021-01-09T13:13:05Z</time>
      </trkpt>
      <trkpt lat="43.56625" lon="3.80839">
        <ele>16.5</ele>
        <time>2021-01-09T13:13:06Z</time>
      </trkpt>
      <trkpt lat="43.56629" lon="3.80839">
        <ele>18</ele>
        <time>2021-01-09T13:13:07Z</time>
      </trkpt>
      <trkpt lat="43.56632" lon="3.80839">
        <ele>16.8</ele>
        <time>2021-01-09T13:13:08Z</time>
      </trkpt>
      <trkpt lat="43.56635" lon="3.80839">
        <ele>16.9</ele>
        <time>2021-01-09T13:13:09Z</time>
      </trkpt>
      <trkpt lat="43.56638" lon="3.8084">
        <ele>17.2</ele>
        <time>2021-01-09T13:13:10Z</time>
      </trkpt>
      <trkpt lat="43.56641" lon="3.8084">
        <ele>17.2</ele>
        <time>2021-01-09T13:13:11Z</time>
      </trkpt>
      <trkpt lat="43.56644" lon="3.8084">
        <ele>17.2</ele>
        <time>2021-01-09T13:13:12Z</time>
      </trkpt>
      <trkpt lat="43.56647" lon="3.8084">
        <ele>17.2</ele>
        <time>2021-01-09T13:13:13Z</time>
      </trkpt>
      <trkpt lat="43.5665" lon="3.8084">
        <ele>17.2</ele>
        <time>2021-01-09T13:13:14Z</time>
      </trkpt>
      <trkpt lat="43.56654" lon="3.80839">
        <ele>17</ele>
        <time>2021-01-09T13:13:15Z</time>
      </trkpt>
      <trkpt lat="43.56657" lon="3.80839">
        <ele>17</ele>
        <time>2021-01-09T13:13:16Z</time>
      </trkpt>
      <trkpt lat="43.5666" lon="3.80839">
        <ele>18</ele>
        <time>2021-01-09T13:13:17Z</time>
      </trkpt>
      <trkpt lat="43.56663" lon="3.80839">
        <ele>17</ele>
        <time>2021-01-09T13:13:18Z</time>
      </trkpt>
      <trkpt lat="43.56666" lon="3.80839">
        <ele>17</ele>
        <time>2021-01-09T13:13:19Z</time>
      </trkpt>
      <trkpt lat="43.56669" lon="3.80839">
        <ele>17</ele>
        <time>2021-01-09T13:13:20Z</time>
      </trkpt>
      <trkpt lat="43.56672" lon="3.80839">
        <ele>17</ele>
        <time>2021-01-09T13:13:21Z</time>
      </trkpt>
      <trkpt lat="43.56675" lon="3.80839">
        <ele>17</ele>
        <time>2021-01-09T13:13:22Z</time>
      </trkpt>
      <trkpt lat="43.56679" lon="3.80838">
        <ele>16.8</ele>
        <time>2021-01-09T13:13:23Z</time>
      </trkpt>
      <trkpt lat="43.56682" lon="3.80838">
        <ele>16.7</ele>
        <time>2021-01-09T13:13:24Z</time>
      </trkpt>
      <trkpt lat="43.56685" lon="3.80838">
        <ele>16.7</ele>
        <time>2021-01-09T13:13:25Z</time>
      </trkpt>
      <trkpt lat="43.56687" lon="3.80839">
        <ele>16.9</ele>
        <time>2021-01-09T13:13:26Z</time>
      </trkpt>
      <trkpt lat="43.56688" lon="3.80841">
        <ele>17</ele>
        <time>2021-01-09T13:13:27Z</time>
      </trkpt>
      <trkpt lat="43.56688" lon="3.80844">
        <ele>17.6</ele>
        <time>2021-01-09T13:13:28Z</time>
      </trkpt>
      <trkpt lat="43.56687" lon="3.80849">
        <ele>18.4</ele>
        <time>2021-01-09T13:13:30Z</time>
      </trkpt>
      <trkpt lat="43.56688" lon="3.80851">
        <ele>18.7</ele>
        <time>2021-01-09T13:13:31Z</time>
      </trkpt>
      <trkpt lat="43.56688" lon="3.80854">
        <ele>19.1</ele>
        <time>2021-01-09T13:13:32Z</time>
      </trkpt>
      <trkpt lat="43.56687" lon="3.80857">
        <ele>19.6</ele>
        <time>2021-01-09T13:13:33Z</time>
      </trkpt>
      <trkpt lat="43.56685" lon="3.80861">
        <ele>20.3</ele>
        <time>2021-01-09T13:13:35Z</time>
      </trkpt>
      <trkpt lat="43.56684" lon="3.80866">
        <ele>18</ele>
        <time>2021-01-09T13:13:37Z</time>
      </trkpt>
      <trkpt lat="43.56684" lon="3.80868">
        <ele>21.2</ele>
        <time>2021-01-09T13:13:38Z</time>
      </trkpt>
      <trkpt lat="43.56683" lon="3.80873">
        <ele>21.8</ele>
        <time>2021-01-09T13:13:40Z</time>
      </trkpt>
      <trkpt lat="43.56682" lon="3.80877">
        <ele>22.2</ele>
        <time>2021-01-09T13:13:42Z</time>
      </trkpt>
      <trkpt lat="43.56681" lon="3.80882">
        <ele>22.8</ele>
        <time>2021-01-09T13:13:44Z</time>
      </trkpt>
      <trkpt lat="43.56681" lon="3.80886">
        <ele>23.2</ele>
        <time>2021-01-09T13:13:46Z</time>
      </trkpt>
      <trkpt lat="43.56681" lon="3.80891">
        <ele>23.6</ele>
        <time>2021-01-09T13:13:48Z</time>
      </trkpt>
      <trkpt lat="43.56682" lon="3.80895">
        <ele>23.9</ele>
        <time>2021-01-09T13:13:50Z</time>
      </trkpt>
      <trkpt lat="43.56683" lon="3.809">
        <ele>24.2</ele>
        <time>2021-01-09T13:13:52Z</time>
      </trkpt>
      <trkpt lat="43.56683" lon="3.80904">
        <ele>24.5</ele>
        <time>2021-01-09T13:13:54Z</time>
      </trkpt>
      <trkpt lat="43.56683" lon="3.80907">
        <ele>24.6</ele>
        <time>2021-01-09T13:13:56Z</time>
      </trkpt>
      <trkpt lat="43.56682" lon="3.80911">
        <ele>24.8</ele>
        <time>2021-01-09T13:13:58Z</time>
      </trkpt>
      <trkpt lat="43.56681" lon="3.80915">
        <ele>24.9</ele>
        <time>2021-01-09T13:14:00Z</time>
      </trkpt>
      <trkpt lat="43.5668" lon="3.80919">
        <ele>25.2</ele>
        <time>2021-01-09T13:14:02Z</time>
      </trkpt>
      <trkpt lat="43.56679" lon="3.80922">
        <ele>25.4</ele>
        <time>2021-01-09T13:14:04Z</time>
      </trkpt>
      <trkpt lat="43.56679" lon="3.80926">
        <ele>25.7</ele>
        <time>2021-01-09T13:14:06Z</time>
      </trkpt>
      <trkpt lat="43.56678" lon="3.80929">
        <ele>25.9</ele>
        <time>2021-01-09T13:14:08Z</time>
      </trkpt>
      <trkpt lat="43.56678" lon="3.80932">
        <ele>26.1</ele>
        <time>2021-01-09T13:14:10Z</time>
      </trkpt>
      <trkpt lat="43.56678" lon="3.80936">
        <ele>26.5</ele>
        <time>2021-01-09T13:14:12Z</time>
      </trkpt>
      <trkpt lat="43.56678" lon="3.80939">
        <ele>26.8</ele>
        <time>2021-01-09T13:14:14Z</time>
      </trkpt>
      <trkpt lat="43.56678" lon="3.80943">
        <ele>27.1</ele>
        <time>2021-01-09T13:14:16Z</time>
      </trkpt>
      <trkpt lat="43.56679" lon="3.80946">
        <ele>27.4</ele>
        <time>2021-01-09T13:14:18Z</time>
      </trkpt>
      <trkpt lat="43.56679" lon="3.8095">
        <ele>27.7</ele>
        <time>2021-01-09T13:14:20Z</time>
      </trkpt>
      <trkpt lat="43.56679" lon="3.80953">
        <ele>27.9</ele>
        <time>2021-01-09T13:14:22Z</time>
      </trkpt>
      <trkpt lat="43.5668" lon="3.80956">
        <ele>28.3</ele>
        <time>2021-01-09T13:14:24Z</time>
      </trkpt>
      <trkpt lat="43.56681" lon="3.80959">
        <ele>28.6</ele>
        <time>2021-01-09T13:14:26Z</time>
      </trkpt>
      <trkpt lat="43.56682" lon="3.80963">
        <ele>28</ele>
        <time>2021-01-09T13:14:27Z</time>
      </trkpt>
      <trkpt lat="43.56683" lon="3.80966">
        <ele>29.5</ele>
        <time>2021-01-09T13:14:29Z</time>
      </trkpt>
      <trkpt lat="43.56684" lon="3.8097">
        <ele>29.9</ele>
        <time>2021-01-09T13:14:32Z</time>
      </trkpt>
      <trkpt lat="43.56685" lon="3.80973">
        <ele>30.3</ele>
        <time>2021-01-09T13:14:33Z</time>
      </trkpt>
      <trkpt lat="43.56685" lon="3.80976">
        <ele>30.5</ele>
        <time>2021-01-09T13:14:35Z</time>
      </trkpt>
      <trkpt lat="43.56687" lon="3.80979">
        <ele>31.1</ele>
        <time>2021-01-09T13:14:38Z</time>
      </trkpt>
      <trkpt lat="43.56689" lon="3.80982">
        <ele>31.7</ele>
        <time>2021-01-09T13:14:40Z</time>
      </trkpt>
      <trkpt lat="43.56691" lon="3.80984">
        <ele>32.2</ele>
        <time>2021-01-09T13:14:42Z</time>
      </trkpt>
      <trkpt lat="43.56692" lon="3.80987">
        <ele>32.6</ele>
        <time>2021-01-09T13:14:44Z</time>
      </trkpt>
      <trkpt lat="43.56692" lon="3.8099">
        <ele>32.8</ele>
        <time>2021-01-09T13:14:46Z</time>
      </trkpt>
      <trkpt lat="43.56692" lon="3.80994">
        <ele>33.1</ele>
        <time>2021-01-09T13:14:48Z</time>
      </trkpt>
      <trkpt lat="43.56691" lon="3.80997">
        <ele>33.1</ele>
        <time>2021-01-09T13:14:50Z</time>
      </trkpt>
      <trkpt lat="43.56691" lon="3.81">
        <ele>33.3</ele>
        <time>2021-01-09T13:14:52Z</time>
      </trkpt>
      <trkpt lat="43.56691" lon="3.81004">
        <ele>33.5</ele>
        <time>2021-01-09T13:14:54Z</time>
      </trkpt>
      <trkpt lat="43.56691" lon="3.81007">
        <ele>33.7</ele>
        <time>2021-01-09T13:14:56Z</time>
      </trkpt>
      <trkpt lat="43.56691" lon="3.81011">
        <ele>34</ele>
        <time>2021-01-09T13:14:58Z</time>
      </trkpt>
      <trkpt lat="43.56692" lon="3.81014">
        <ele>34.4</ele>
        <time>2021-01-09T13:15:00Z</time>
      </trkpt>
      <trkpt lat="43.56693" lon="3.81017">
        <ele>34.9</ele>
        <time>2021-01-09T13:15:02Z</time>
      </trkpt>
      <trkpt lat="43.56693" lon="3.81021">
        <ele>35.2</ele>
        <time>2021-01-09T13:15:04Z</time>
      </trkpt>
      <trkpt lat="43.56694" lon="3.81024">
        <ele>35.6</ele>
        <time>2021-01-09T13:15:06Z</time>
      </trkpt>
      <trkpt lat="43.56694" lon="3.81027">
        <ele>35.8</ele>
        <time>2021-01-09T13:15:08Z</time>
      </trkpt>
      <trkpt lat="43.56694" lon="3.8103">
        <ele>36.1</ele>
        <time>2021-01-09T13:15:10Z</time>
      </trkpt>
      <trkpt lat="43.56693" lon="3.81033">
        <ele>36.2</ele>
        <time>2021-01-09T13:15:12Z</time>
      </trkpt>
      <trkpt lat="43.56692" lon="3.81037">
        <ele>36.3</ele>
        <time>2021-01-09T13:15:14Z</time>
      </trkpt>
      <trkpt lat="43.56692" lon="3.8104">
        <ele>36.6</ele>
        <time>2021-01-09T13:15:16Z</time>
      </trkpt>
      <trkpt lat="43.56692" lon="3.81044">
        <ele>37</ele>
        <time>2021-01-09T13:15:18Z</time>
      </trkpt>
      <trkpt lat="43.56691" lon="3.81048">
        <ele>37</ele>
        <time>2021-01-09T13:15:20Z</time>
      </trkpt>
      <trkpt lat="43.56691" lon="3.81051">
        <ele>37.3</ele>
        <time>2021-01-09T13:15:22Z</time>
      </trkpt>
      <trkpt lat="43.5669" lon="3.81054">
        <ele>37.3</ele>
        <time>2021-01-09T13:15:24Z</time>
      </trkpt>
      <trkpt lat="43.5669" lon="3.81057">
        <ele>37.6</ele>
        <time>2021-01-09T13:15:26Z</time>
      </trkpt>
      <trkpt lat="43.5669" lon="3.81061">
        <ele>39</ele>
        <time>2021-01-09T13:15:27Z</time>
      </trkpt>
      <trkpt lat="43.5669" lon="3.81064">
        <ele>38.3</ele>
        <time>2021-01-09T13:15:29Z</time>
      </trkpt>
      <trkpt lat="43.56689" lon="3.81067">
        <ele>38.4</ele>
        <time>2021-01-09T13:15:31Z</time>
      </trkpt>
      <trkpt lat="43.56688" lon="3.8107">
        <ele>38.6</ele>
        <time>2021-01-09T13:15:33Z</time>
      </trkpt>
      <trkpt lat="43.56687" lon="3.81073">
        <ele>38.8</ele>
        <time>2021-01-09T13:15:35Z</time>
      </trkpt>
      <trkpt lat="43.56686" lon="3.81076">
        <ele>39</ele>
        <time>2021-01-09T13:15:38Z</time>
      </trkpt>
      <trkpt lat="43.56685" lon="3.81079">
        <ele>39.3</ele>
        <time>2021-01-09T13:15:40Z</time>
      </trkpt>
      <trkpt lat="43.56683" lon="3.81081">
        <ele>39.4</ele>
        <time>2021-01-09T13:15:42Z</time>
      </trkpt>
      <trkpt lat="43.56682" lon="3.81084">
        <ele>39.8</ele>
        <time>2021-01-09T13:15:44Z</time>
      </trkpt>
      <trkpt lat="43.5668" lon="3.81086">
        <ele>39.9</ele>
        <time>2021-01-09T13:15:46Z</time>
      </trkpt>
      <trkpt lat="43.56678" lon="3.81089">
        <ele>40.2</ele>
        <time>2021-01-09T13:15:48Z</time>
      </trkpt>
      <trkpt lat="43.56677" lon="3.81091">
        <ele>40.5</ele>
        <time>2021-01-09T13:15:50Z</time>
      </trkpt>
      <trkpt lat="43.56675" lon="3.81094">
        <ele>41</ele>
        <time>2021-01-09T13:15:52Z</time>
      </trkpt>
      <trkpt lat="43.56673" lon="3.81096">
        <ele>41.4</ele>
        <time>2021-01-09T13:15:54Z</time>
      </trkpt>
      <trkpt lat="43.56671" lon="3.81098">
        <ele>41.8</ele>
        <time>2021-01-09T13:15:56Z</time>
      </trkpt>
      <trkpt lat="43.5667" lon="3.81101">
        <ele>42.4</ele>
        <time>2021-01-09T13:15:58Z</time>
      </trkpt>
      <trkpt lat="43.56667" lon="3.81103">
        <ele>42.9</ele>
        <time>2021-01-09T13:16:00Z</time>
      </trkpt>
      <trkpt lat="43.56665" lon="3.81105">
        <ele>43.4</ele>
        <time>2021-01-09T13:16:02Z</time>
      </trkpt>
      <trkpt lat="43.56663" lon="3.81107">
        <ele>43.8</ele>
        <time>2021-01-09T13:16:04Z</time>
      </trkpt>
      <trkpt lat="43.56661" lon="3.81109">
        <ele>44.2</ele>
        <time>2021-01-09T13:16:06Z</time>
      </trkpt>
      <trkpt lat="43.56659" lon="3.81111">
        <ele>45</ele>
        <time>2021-01-09T13:16:07Z</time>
      </trkpt>
      <trkpt lat="43.56657" lon="3.81113">
        <ele>44.7</ele>
        <time>2021-01-09T13:16:09Z</time>
      </trkpt>
      <trkpt lat="43.56655" lon="3.81116">
        <ele>44.8</ele>
        <time>2021-01-09T13:16:11Z</time>
      </trkpt>
      <trkpt lat="43.56652" lon="3.81118">
        <ele>44.9</ele>
        <time>2021-01-09T13:16:13Z</time>
      </trkpt>
      <trkpt lat="43.5665" lon="3.81121">
        <ele>45</ele>
        <time>2021-01-09T13:16:15Z</time>
      </trkpt>
      <trkpt lat="43.56648" lon="3.81124">
        <ele>45.1</ele>
        <time>2021-01-09T13:16:18Z</time>
      </trkpt>
      <trkpt lat="43.56646" lon="3.81126">
        <ele>45.2</ele>
        <time>2021-01-09T13:16:20Z</time>
      </trkpt>
      <trkpt lat="43.56644" lon="3.8113">
        <ele>45.4</ele>
        <time>2021-01-09T13:16:22Z</time>
      </trkpt>
      <trkpt lat="43.56642" lon="3.81133">
        <ele>45.6</ele>
        <time>2021-01-09T13:16:24Z</time>
      </trkpt>
      <trkpt lat="43.56639" lon="3.81136">
        <ele>45.8</ele>
        <time>2021-01-09T13:16:26Z</time>
      </trkpt>
      <trkpt lat="43.56638" lon="3.81139">
        <ele>46</ele>
        <time>2021-01-09T13:16:28Z</time>
      </trkpt>
      <trkpt lat="43.56636" lon="3.81143">
        <ele>46.3</ele>
        <time>2021-01-09T13:16:29Z</time>
      </trkpt>
      <trkpt lat="43.56634" lon="3.81146">
        <ele>46.5</ele>
        <time>2021-01-09T13:16:31Z</time>
      </trkpt>
      <trkpt lat="43.56632" lon="3.81149">
        <ele>46.7</ele>
        <time>2021-01-09T13:16:33Z</time>
      </trkpt>
      <trkpt lat="43.5663" lon="3.81152">
        <ele>46.9</ele>
        <time>2021-01-09T13:16:35Z</time>
      </trkpt>
      <trkpt lat="43.56629" lon="3.81155">
        <ele>47.2</ele>
        <time>2021-01-09T13:16:38Z</time>
      </trkpt>
      <trkpt lat="43.56626" lon="3.81159">
        <ele>47.4</ele>
        <time>2021-01-09T13:16:40Z</time>
      </trkpt>
      <trkpt lat="43.56624" lon="3.81162">
        <ele>47.7</ele>
        <time>2021-01-09T13:16:42Z</time>
      </trkpt>
      <trkpt lat="43.56623" lon="3.81164">
        <ele>47.8</ele>
        <time>2021-01-09T13:16:43Z</time>
      </trkpt>
      <trkpt lat="43.56622" lon="3.81166">
        <ele>48</ele>
        <time>2021-01-09T13:16:44Z</time>
      </trkpt>
      <trkpt lat="43.5662" lon="3.81168">
        <ele>48.1</ele>
        <time>2021-01-09T13:16:45Z</time>
      </trkpt>
      <trkpt lat="43.56619" lon="3.8117">
        <ele>48.2</ele>
        <time>2021-01-09T13:16:46Z</time>
      </trkpt>
      <trkpt lat="43.56618" lon="3.81172">
        <ele>49</ele>
        <time>2021-01-09T13:16:47Z</time>
      </trkpt>
      <trkpt lat="43.56616" lon="3.81174">
        <ele>48.4</ele>
        <time>2021-01-09T13:16:48Z</time>
      </trkpt>
      <trkpt lat="43.56615" lon="3.81176">
        <ele>48.4</ele>
        <time>2021-01-09T13:16:49Z</time>
      </trkpt>
      <trkpt lat="43.56613" lon="3.81178">
        <ele>48.5</ele>
        <time>2021-01-09T13:16:50Z</time>
      </trkpt>
      <trkpt lat="43.56612" lon="3.81181">
        <ele>48.5</ele>
        <time>2021-01-09T13:16:51Z</time>
      </trkpt>
      <trkpt lat="43.56611" lon="3.81184">
        <ele>48.6</ele>
        <time>2021-01-09T13:16:52Z</time>
      </trkpt>
      <trkpt lat="43.56609" lon="3.81186">
        <ele>48.4</ele>
        <time>2021-01-09T13:16:53Z</time>
      </trkpt>
      <trkpt lat="43.56608" lon="3.81189">
        <ele>48.4</ele>
        <time>2021-01-09T13:16:54Z</time>
      </trkpt>
      <trkpt lat="43.56606" lon="3.81191">
        <ele>48.1</ele>
        <time>2021-01-09T13:16:55Z</time>
      </trkpt>
      <trkpt lat="43.56605" lon="3.81194">
        <ele>48.1</ele>
        <time>2021-01-09T13:16:56Z</time>
      </trkpt>
      <trkpt lat="43.56604" lon="3.81197">
        <ele>49</ele>
        <time>2021-01-09T13:16:57Z</time>
      </trkpt>
      <trkpt lat="43.56603" lon="3.812">
        <ele>48.2</ele>
        <time>2021-01-09T13:16:58Z</time>
      </trkpt>
      <trkpt lat="43.56603" lon="3.81203">
        <ele>48.4</ele>
        <time>2021-01-09T13:16:59Z</time>
      </trkpt>
      <trkpt lat="43.56602" lon="3.81206">
        <ele>48.4</ele>
        <time>2021-01-09T13:17:00Z</time>
      </trkpt>
      <trkpt lat="43.56601" lon="3.81209">
        <ele>48.4</ele>
        <time>2021-01-09T13:17:01Z</time>
      </trkpt>
      <trkpt lat="43.56599" lon="3.81213">
        <ele>48.3</ele>
        <time>2021-01-09T13:17:02Z</time>
      </trkpt>
      <trkpt lat="43.56598" lon="3.81216">
        <ele>48.3</ele>
        <time>2021-01-09T13:17:03Z</time>
      </trkpt>
      <trkpt lat="43.56597" lon="3.81219">
        <ele>48.3</ele>
        <time>2021-01-09T13:17:04Z</time>
      </trkpt>
      <trkpt lat="43.56595" lon="3.81223">
        <ele>48.1</ele>
        <time>2021-01-09T13:17:05Z</time>
      </trkpt>
      <trkpt lat="43.56593" lon="3.81226">
        <ele>47.9</ele>
        <time>2021-01-09T13:17:06Z</time>
      </trkpt>
      <trkpt lat="43.5659" lon="3.81229">
        <ele>49</ele>
        <time>2021-01-09T13:17:07Z</time>
      </trkpt>
      <trkpt lat="43.56585" lon="3.8123">
        <ele>46.8</ele>
        <time>2021-01-09T13:17:08Z</time>
      </trkpt>
      <trkpt lat="43.5658" lon="3.8123">
        <ele>46</ele>
        <time>2021-01-09T13:17:09Z</time>
      </trkpt>
      <trkpt lat="43.56574" lon="3.81229">
        <ele>45</ele>
        <time>2021-01-09T13:17:10Z</time>
      </trkpt>
      <trkpt lat="43.56568" lon="3.81228">
        <ele>43.9</ele>
        <time>2021-01-09T13:17:11Z</time>
      </trkpt>
      <trkpt lat="43.56561" lon="3.81228">
        <ele>42.7</ele>
        <time>2021-01-09T13:17:12Z</time>
      </trkpt>
      <trkpt lat="43.56554" lon="3.81227">
        <ele>41.6</ele>
        <time>2021-01-09T13:17:13Z</time>
      </trkpt>
      <trkpt lat="43.56547" lon="3.81228">
        <ele>41.5</ele>
        <time>2021-01-09T13:17:14Z</time>
      </trkpt>
      <trkpt lat="43.56541" lon="3.8123">
        <ele>41.4</ele>
        <time>2021-01-09T13:17:15Z</time>
      </trkpt>
      <trkpt lat="43.56535" lon="3.81231">
        <ele>41.3</ele>
        <time>2021-01-09T13:17:16Z</time>
      </trkpt>
      <trkpt lat="43.56529" lon="3.81232">
        <ele>44</ele>
        <time>2021-01-09T13:17:17Z</time>
      </trkpt>
      <trkpt lat="43.56524" lon="3.81233">
        <ele>41.3</ele>
        <time>2021-01-09T13:17:18Z</time>
      </trkpt>
      <trkpt lat="43.56522" lon="3.81235">
        <ele>41.6</ele>
        <time>2021-01-09T13:17:19Z</time>
      </trkpt>
      <trkpt lat="43.5652" lon="3.81237">
        <ele>41.9</ele>
        <time>2021-01-09T13:17:20Z</time>
      </trkpt>
      <trkpt lat="43.56518" lon="3.81239">
        <ele>42.2</ele>
        <time>2021-01-09T13:17:21Z</time>
      </trkpt>
      <trkpt lat="43.56517" lon="3.81241">
        <ele>42.6</ele>
        <time>2021-01-09T13:17:22Z</time>
      </trkpt>
      <trkpt lat="43.56516" lon="3.81243">
        <ele>42.9</ele>
        <time>2021-01-09T13:17:23Z</time>
      </trkpt>
      <trkpt lat="43.56513" lon="3.81246">
        <ele>43.5</ele>
        <time>2021-01-09T13:17:25Z</time>
      </trkpt>
      <trkpt lat="43.56512" lon="3.81247">
        <ele>43.7</ele>
        <time>2021-01-09T13:17:26Z</time>
      </trkpt>
      <trkpt lat="43.56509" lon="3.81251">
        <ele>44.5</ele>
        <time>2021-01-09T13:17:28Z</time>
      </trkpt>
      <trkpt lat="43.56508" lon="3.81253">
        <ele>44.9</ele>
        <time>2021-01-09T13:17:29Z</time>
      </trkpt>
      <trkpt lat="43.56505" lon="3.81255">
        <ele>45.4</ele>
        <time>2021-01-09T13:17:31Z</time>
      </trkpt>
      <trkpt lat="43.56503" lon="3.81257">
        <ele>45.8</ele>
        <time>2021-01-09T13:17:33Z</time>
      </trkpt>
      <trkpt lat="43.56502" lon="3.81256">
        <ele>48</ele>
        <time>2021-01-09T13:17:39Z</time>
      </trkpt>
      <trkpt lat="43.56499" lon="3.81259">
        <ele>48</ele>
        <time>2021-01-09T13:17:44Z</time>
      </trkpt>
      <trkpt lat="43.56498" lon="3.81258">
        <ele>48</ele>
        <time>2021-01-09T13:17:49Z</time>
      </trkpt>
      <trkpt lat="43.56492" lon="3.81254">
        <ele>48</ele>
        <time>2021-01-09T13:17:54Z</time>
      </trkpt>
      <trkpt lat="43.5649" lon="3.81251">
        <ele>47.3</ele>
        <time>2021-01-09T13:17:56Z</time>
      </trkpt>
      <trkpt lat="43.56489" lon="3.81249">
        <ele>47.3</ele>
        <time>2021-01-09T13:17:57Z</time>
      </trkpt>
      <trkpt lat="43.56488" lon="3.81247">
        <ele>47.2</ele>
        <time>2021-01-09T13:17:58Z</time>
      </trkpt>
      <trkpt lat="43.56485" lon="3.81244">
        <ele>47.6</ele>
        <time>2021-01-09T13:18:00Z</time>
      </trkpt>
      <trkpt lat="43.56483" lon="3.81243">
        <ele>48</ele>
        <time>2021-01-09T13:18:01Z</time>
      </trkpt>
      <trkpt lat="43.56482" lon="3.81241">
        <ele>48.1</ele>
        <time>2021-01-09T13:18:02Z</time>
      </trkpt>
      <trkpt lat="43.5648" lon="3.81239">
        <ele>48.5</ele>
        <time>2021-01-09T13:18:03Z</time>
      </trkpt>
      <trkpt lat="43.56479" lon="3.81237">
        <ele>49</ele>
        <time>2021-01-09T13:18:04Z</time>
      </trkpt>
      <trkpt lat="43.56478" lon="3.81235">
        <ele>48.8</ele>
        <time>2021-01-09T13:18:05Z</time>
      </trkpt>
      <trkpt lat="43.56477" lon="3.81233">
        <ele>48.9</ele>
        <time>2021-01-09T13:18:06Z</time>
      </trkpt>
      <trkpt lat="43.56476" lon="3.81231">
        <ele>49.1</ele>
        <time>2021-01-09T13:18:07Z</time>
      </trkpt>
      <trkpt lat="43.56474" lon="3.81228">
        <ele>49.6</ele>
        <time>2021-01-09T13:18:08Z</time>
      </trkpt>
      <trkpt lat="43.56473" lon="3.81226">
        <ele>49.9</ele>
        <time>2021-01-09T13:18:09Z</time>
      </trkpt>
      <trkpt lat="43.56472" lon="3.81224">
        <ele>50.1</ele>
        <time>2021-01-09T13:18:10Z</time>
      </trkpt>
      <trkpt lat="43.5647" lon="3.81221">
        <ele>49.8</ele>
        <time>2021-01-09T13:18:11Z</time>
      </trkpt>
      <trkpt lat="43.56469" lon="3.81219">
        <ele>49.2</ele>
        <time>2021-01-09T13:18:12Z</time>
      </trkpt>
      <trkpt lat="43.56467" lon="3.81217">
        <ele>48.8</ele>
        <time>2021-01-09T13:18:13Z</time>
      </trkpt>
      <trkpt lat="43.56465" lon="3.81212">
        <ele>50</ele>
        <time>2021-01-09T13:18:14Z</time>
      </trkpt>
      <trkpt lat="43.56463" lon="3.8121">
        <ele>47.6</ele>
        <time>2021-01-09T13:18:15Z</time>
      </trkpt>
      <trkpt lat="43.56462" lon="3.81208">
        <ele>47.3</ele>
        <time>2021-01-09T13:18:16Z</time>
      </trkpt>
      <trkpt lat="43.5646" lon="3.81206">
        <ele>47.4</ele>
        <time>2021-01-09T13:18:17Z</time>
      </trkpt>
      <trkpt lat="43.56459" lon="3.81204">
        <ele>47.2</ele>
        <time>2021-01-09T13:18:18Z</time>
      </trkpt>
      <trkpt lat="43.56457" lon="3.81201">
        <ele>47.2</ele>
        <time>2021-01-09T13:18:19Z</time>
      </trkpt>
      <trkpt lat="43.56456" lon="3.81199">
        <ele>47.2</ele>
        <time>2021-01-09T13:18:20Z</time>
      </trkpt>
      <trkpt lat="43.56454" lon="3.81197">
        <ele>47.6</ele>
        <time>2021-01-09T13:18:21Z</time>
      </trkpt>
      <trkpt lat="43.56452" lon="3.81194">
        <ele>47.9</ele>
        <time>2021-01-09T13:18:22Z</time>
      </trkpt>
      <trkpt lat="43.56451" lon="3.81193">
        <ele>51</ele>
        <time>2021-01-09T13:18:24Z</time>
      </trkpt>
      <trkpt lat="43.56448" lon="3.81192">
        <ele>48.8</ele>
        <time>2021-01-09T13:18:25Z</time>
      </trkpt>
      <trkpt lat="43.56446" lon="3.81191">
        <ele>49.2</ele>
        <time>2021-01-09T13:18:26Z</time>
      </trkpt>
      <trkpt lat="43.56444" lon="3.8119">
        <ele>49.5</ele>
        <time>2021-01-09T13:18:27Z</time>
      </trkpt>
      <trkpt lat="43.56442" lon="3.81189">
        <ele>49.4</ele>
        <time>2021-01-09T13:18:28Z</time>
      </trkpt>
      <trkpt lat="43.5644" lon="3.81188">
        <ele>49.5</ele>
        <time>2021-01-09T13:18:29Z</time>
      </trkpt>
      <trkpt lat="43.56438" lon="3.81188">
        <ele>49.8</ele>
        <time>2021-01-09T13:18:30Z</time>
      </trkpt>
      <trkpt lat="43.56436" lon="3.81188">
        <ele>50.2</ele>
        <time>2021-01-09T13:18:31Z</time>
      </trkpt>
      <trkpt lat="43.56434" lon="3.81188">
        <ele>50.5</ele>
        <time>2021-01-09T13:18:32Z</time>
      </trkpt>
      <trkpt lat="43.56432" lon="3.81188">
        <ele>50.9</ele>
        <time>2021-01-09T13:18:33Z</time>
      </trkpt>
      <trkpt lat="43.5643" lon="3.81187">
        <ele>52</ele>
        <time>2021-01-09T13:18:34Z</time>
      </trkpt>
      <trkpt lat="43.56428" lon="3.81187">
        <ele>51.4</ele>
        <time>2021-01-09T13:18:35Z</time>
      </trkpt>
      <trkpt lat="43.56427" lon="3.81186">
        <ele>51.4</ele>
        <time>2021-01-09T13:18:36Z</time>
      </trkpt>
      <trkpt lat="43.56425" lon="3.81184">
        <ele>51.4</ele>
        <time>2021-01-09T13:18:37Z</time>
      </trkpt>
      <trkpt lat="43.56424" lon="3.81181">
        <ele>51.2</ele>
        <time>2021-01-09T13:18:38Z</time>
      </trkpt>
      <trkpt lat="43.56422" lon="3.81179">
        <ele>51.5</ele>
        <time>2021-01-09T13:18:39Z</time>
      </trkpt>
      <trkpt lat="43.56421" lon="3.81176">
        <ele>51.4</ele>
        <time>2021-01-09T13:18:40Z</time>
      </trkpt>
      <trkpt lat="43.56421" lon="3.81173">
        <ele>51</ele>
        <time>2021-01-09T13:18:41Z</time>
      </trkpt>
      <trkpt lat="43.56421" lon="3.81171">
        <ele>50.8</ele>
        <time>2021-01-09T13:18:42Z</time>
      </trkpt>
      <trkpt lat="43.5642" lon="3.81168">
        <ele>50.8</ele>
        <time>2021-01-09T13:18:43Z</time>
      </trkpt>
      <trkpt lat="43.5642" lon="3.81165">
        <ele>53</ele>
        <time>2021-01-09T13:18:44Z</time>
      </trkpt>
      <trkpt lat="43.56419" lon="3.81163">
        <ele>50.4</ele>
        <time>2021-01-09T13:18:45Z</time>
      </trkpt>
      <trkpt lat="43.56418" lon="3.8116">
        <ele>50.3</ele>
        <time>2021-01-09T13:18:46Z</time>
      </trkpt>
      <trkpt lat="43.56418" lon="3.81157">
        <ele>49.8</ele>
        <time>2021-01-09T13:18:47Z</time>
      </trkpt>
      <trkpt lat="43.56417" lon="3.81154">
        <ele>49.6</ele>
        <time>2021-01-09T13:18:48Z</time>
      </trkpt>
      <trkpt lat="43.56416" lon="3.81151">
        <ele>49.3</ele>
        <time>2021-01-09T13:18:49Z</time>
      </trkpt>
      <trkpt lat="43.56416" lon="3.81148">
        <ele>48.8</ele>
        <time>2021-01-09T13:18:50Z</time>
      </trkpt>
      <trkpt lat="43.56415" lon="3.81145">
        <ele>48.5</ele>
        <time>2021-01-09T13:18:51Z</time>
      </trkpt>
      <trkpt lat="43.56415" lon="3.81142">
        <ele>47.9</ele>
        <time>2021-01-09T13:18:52Z</time>
      </trkpt>
      <trkpt lat="43.56414" lon="3.8114">
        <ele>47.9</ele>
        <time>2021-01-09T13:18:53Z</time>
      </trkpt>
      <trkpt lat="43.56414" lon="3.81137">
        <ele>54</ele>
        <time>2021-01-09T13:18:54Z</time>
      </trkpt>
      <trkpt lat="43.56414" lon="3.81135">
        <ele>47.3</ele>
        <time>2021-01-09T13:18:55Z</time>
      </trkpt>
      <trkpt lat="43.56414" lon="3.81132">
        <ele>47</ele>
        <time>2021-01-09T13:18:56Z</time>
      </trkpt>
      <trkpt lat="43.56412" lon="3.81127">
        <ele>47</ele>
        <time>2021-01-09T13:18:58Z</time>
      </trkpt>
      <trkpt lat="43.56412" lon="3.81124">
        <ele>46.7</ele>
        <time>2021-01-09T13:18:59Z</time>
      </trkpt>
      <trkpt lat="43.56411" lon="3.8112">
        <ele>46.7</ele>
        <time>2021-01-09T13:19:00Z</time>
      </trkpt>
      <trkpt lat="43.5641" lon="3.81116">
        <ele>46.6</ele>
        <time>2021-01-09T13:19:01Z</time>
      </trkpt>
      <trkpt lat="43.56408" lon="3.81112">
        <ele>46.9</ele>
        <time>2021-01-09T13:19:02Z</time>
      </trkpt>
      <trkpt lat="43.56407" lon="3.81108">
        <ele>46.8</ele>
        <time>2021-01-09T13:19:03Z</time>
      </trkpt>
      <trkpt lat="43.56406" lon="3.81104">
        <ele>54</ele>
        <time>2021-01-09T13:19:04Z</time>
      </trkpt>
      <trkpt lat="43.56404" lon="3.811">
        <ele>47.1</ele>
        <time>2021-01-09T13:19:05Z</time>
      </trkpt>
      <trkpt lat="43.56403" lon="3.81096">
        <ele>47.1</ele>
        <time>2021-01-09T13:19:06Z</time>
      </trkpt>
      <trkpt lat="43.56401" lon="3.81092">
        <ele>47.5</ele>
        <time>2021-01-09T13:19:07Z</time>
      </trkpt>
      <trkpt lat="43.564" lon="3.81088">
        <ele>47.6</ele>
        <time>2021-01-09T13:19:08Z</time>
      </trkpt>
      <trkpt lat="43.56399" lon="3.81084">
        <ele>47.7</ele>
        <time>2021-01-09T13:19:09Z</time>
      </trkpt>
      <trkpt lat="43.56398" lon="3.8108">
        <ele>47.5</ele>
        <time>2021-01-09T13:19:10Z</time>
      </trkpt>
      <trkpt lat="43.56398" lon="3.81076">
        <ele>46.8</ele>
        <time>2021-01-09T13:19:11Z</time>
      </trkpt>
      <trkpt lat="43.56397" lon="3.81073">
        <ele>46.8</ele>
        <time>2021-01-09T13:19:12Z</time>
      </trkpt>
      <trkpt lat="43.56396" lon="3.8107">
        <ele>46.8</ele>
        <time>2021-01-09T13:19:13Z</time>
      </trkpt>
      <trkpt lat="43.56395" lon="3.81068">
        <ele>53</ele>
        <time>2021-01-09T13:19:14Z</time>
      </trkpt>
      <trkpt lat="43.56393" lon="3.81065">
        <ele>47.4</ele>
        <time>2021-01-09T13:19:15Z</time>
      </trkpt>
      <trkpt lat="43.56391" lon="3.81062">
        <ele>47.9</ele>
        <time>2021-01-09T13:19:16Z</time>
      </trkpt>
      <trkpt lat="43.56389" lon="3.81059">
        <ele>48.4</ele>
        <time>2021-01-09T13:19:17Z</time>
      </trkpt>
      <trkpt lat="43.56388" lon="3.81056">
        <ele>48.2</ele>
        <time>2021-01-09T13:19:18Z</time>
      </trkpt>
      <trkpt lat="43.56386" lon="3.81052">
        <ele>47.7</ele>
        <time>2021-01-09T13:19:19Z</time>
      </trkpt>
      <trkpt lat="43.56385" lon="3.81048">
        <ele>47.2</ele>
        <time>2021-01-09T13:19:20Z</time>
      </trkpt>
      <trkpt lat="43.56382" lon="3.81045">
        <ele>47.1</ele>
        <time>2021-01-09T13:19:21Z</time>
      </trkpt>
      <trkpt lat="43.56379" lon="3.81041">
        <ele>47</ele>
        <time>2021-01-09T13:19:22Z</time>
      </trkpt>
      <trkpt lat="43.56375" lon="3.81039">
        <ele>47.4</ele>
        <time>2021-01-09T13:19:23Z</time>
      </trkpt>
      <trkpt lat="43.56372" lon="3.81036">
        <ele>52</ele>
        <time>2021-01-09T13:19:24Z</time>
      </trkpt>
      <trkpt lat="43.56369" lon="3.81032">
        <ele>47.7</ele>
        <time>2021-01-09T13:19:25Z</time>
      </trkpt>
      <trkpt lat="43.56366" lon="3.81028">
        <ele>48</ele>
        <time>2021-01-09T13:19:26Z</time>
      </trkpt>
      <trkpt lat="43.56363" lon="3.81026">
        <ele>48.2</ele>
        <time>2021-01-09T13:19:27Z</time>
      </trkpt>
      <trkpt lat="43.56359" lon="3.81024">
        <ele>48.2</ele>
        <time>2021-01-09T13:19:28Z</time>
      </trkpt>
      <trkpt lat="43.56356" lon="3.81023">
        <ele>48</ele>
        <time>2021-01-09T13:19:29Z</time>
      </trkpt>
      <trkpt lat="43.56352" lon="3.81022">
        <ele>47.9</ele>
        <time>2021-01-09T13:19:30Z</time>
      </trkpt>
      <trkpt lat="43.56349" lon="3.81021">
        <ele>47.7</ele>
        <time>2021-01-09T13:19:31Z</time>
      </trkpt>
      <trkpt lat="43.56346" lon="3.8102">
        <ele>47.6</ele>
        <time>2021-01-09T13:19:32Z</time>
      </trkpt>
      <trkpt lat="43.56343" lon="3.81019">
        <ele>47.5</ele>
        <time>2021-01-09T13:19:33Z</time>
      </trkpt>
      <trkpt lat="43.5634" lon="3.81019">
        <ele>51</ele>
        <time>2021-01-09T13:19:34Z</time>
      </trkpt>
      <trkpt lat="43.56337" lon="3.81018">
        <ele>47.5</ele>
        <time>2021-01-09T13:19:35Z</time>
      </trkpt>
      <trkpt lat="43.56334" lon="3.81017">
        <ele>47.4</ele>
        <time>2021-01-09T13:19:36Z</time>
      </trkpt>
      <trkpt lat="43.56331" lon="3.81016">
        <ele>47.4</ele>
        <time>2021-01-09T13:19:37Z</time>
      </trkpt>
      <trkpt lat="43.56328" lon="3.81015">
        <ele>47.3</ele>
        <time>2021-01-09T13:19:38Z</time>
      </trkpt>
      <trkpt lat="43.56325" lon="3.81015">
        <ele>47.4</ele>
        <time>2021-01-09T13:19:39Z</time>
      </trkpt>
      <trkpt lat="43.56322" lon="3.81014">
        <ele>47.4</ele>
        <time>2021-01-09T13:19:40Z</time>
      </trkpt>
      <trkpt lat="43.56319" lon="3.81014">
        <ele>47.5</ele>
        <time>2021-01-09T13:19:41Z</time>
      </trkpt>
      <trkpt lat="43.56316" lon="3.81015">
        <ele>47.7</ele>
        <time>2021-01-09T13:19:42Z</time>
      </trkpt>
      <trkpt lat="43.56313" lon="3.81014">
        <ele>47.7</ele>
        <time>2021-01-09T13:19:43Z</time>
      </trkpt>
      <trkpt lat="43.56309" lon="3.81014">
        <ele>51</ele>
        <time>2021-01-09T13:19:44Z</time>
      </trkpt>
      <trkpt lat="43.56306" lon="3.81014">
        <ele>48</ele>
        <time>2021-01-09T13:19:45Z</time>
      </trkpt>
      <trkpt lat="43.56303" lon="3.81014">
        <ele>48</ele>
        <time>2021-01-09T13:19:46Z</time>
      </trkpt>
      <trkpt lat="43.563" lon="3.81015">
        <ele>48.1</ele>
        <time>2021-01-09T13:19:47Z</time>
      </trkpt>
      <trkpt lat="43.56297" lon="3.81015">
        <ele>48.1</ele>
        <time>2021-01-09T13:19:48Z</time>
      </trkpt>
      <trkpt lat="43.56294" lon="3.81014">
        <ele>48</ele>
        <time>2021-01-09T13:19:49Z</time>
      </trkpt>
      <trkpt lat="43.56291" lon="3.81013">
        <ele>47.9</ele>
        <time>2021-01-09T13:19:50Z</time>
      </trkpt>
      <trkpt lat="43.56288" lon="3.81012">
        <ele>47.9</ele>
        <time>2021-01-09T13:19:51Z</time>
      </trkpt>
      <trkpt lat="43.56285" lon="3.81011">
        <ele>47.8</ele>
        <time>2021-01-09T13:19:52Z</time>
      </trkpt>
      <trkpt lat="43.56282" lon="3.81011">
        <ele>47.8</ele>
        <time>2021-01-09T13:19:53Z</time>
      </trkpt>
      <trkpt lat="43.56279" lon="3.81011">
        <ele>50</ele>
        <time>2021-01-09T13:19:54Z</time>
      </trkpt>
      <trkpt lat="43.56275" lon="3.81011">
        <ele>47.7</ele>
        <time>2021-01-09T13:19:55Z</time>
      </trkpt>
      <trkpt lat="43.56272" lon="3.81011">
        <ele>47.6</ele>
        <time>2021-01-09T13:19:56Z</time>
      </trkpt>
      <trkpt lat="43.56268" lon="3.8101">
        <ele>47.4</ele>
        <time>2021-01-09T13:19:57Z</time>
      </trkpt>
      <trkpt lat="43.56265" lon="3.8101">
        <ele>47.3</ele>
        <time>2021-01-09T13:19:58Z</time>
      </trkpt>
      <trkpt lat="43.56261" lon="3.8101">
        <ele>47.1</ele>
        <time>2021-01-09T13:19:59Z</time>
      </trkpt>
      <trkpt lat="43.56258" lon="3.8101">
        <ele>47</ele>
        <time>2021-01-09T13:20:00Z</time>
      </trkpt>
      <trkpt lat="43.56255" lon="3.8101">
        <ele>46.9</ele>
        <time>2021-01-09T13:20:01Z</time>
      </trkpt>
      <trkpt lat="43.56251" lon="3.8101">
        <ele>46.8</ele>
        <time>2021-01-09T13:20:02Z</time>
      </trkpt>
      <trkpt lat="43.56248" lon="3.8101">
        <ele>46.6</ele>
        <time>2021-01-09T13:20:03Z</time>
      </trkpt>
      <trkpt lat="43.56245" lon="3.81009">
        <ele>49</ele>
        <time>2021-01-09T13:20:04Z</time>
      </trkpt>
      <trkpt lat="43.56243" lon="3.81009">
        <ele>46.2</ele>
        <time>2021-01-09T13:20:05Z</time>
      </trkpt>
      <trkpt lat="43.5624" lon="3.81009">
        <ele>46</ele>
        <time>2021-01-09T13:20:06Z</time>
      </trkpt>
      <trkpt lat="43.56237" lon="3.81008">
        <ele>45.8</ele>
        <time>2021-01-09T13:20:07Z</time>
      </trkpt>
      <trkpt lat="43.56234" lon="3.81008">
        <ele>45.6</ele>
        <time>2021-01-09T13:20:08Z</time>
      </trkpt>
      <trkpt lat="43.56231" lon="3.81008">
        <ele>45.4</ele>
        <time>2021-01-09T13:20:09Z</time>
      </trkpt>
      <trkpt lat="43.56228" lon="3.81008">
        <ele>45.2</ele>
        <time>2021-01-09T13:20:10Z</time>
      </trkpt>
      <trkpt lat="43.56225" lon="3.81008">
        <ele>45</ele>
        <time>2021-01-09T13:20:11Z</time>
      </trkpt>
      <trkpt lat="43.56222" lon="3.81009">
        <ele>45</ele>
        <time>2021-01-09T13:20:12Z</time>
      </trkpt>
      <trkpt lat="43.56219" lon="3.81009">
        <ele>44.9</ele>
        <time>2021-01-09T13:20:13Z</time>
      </trkpt>
      <trkpt lat="43.56216" lon="3.81009">
        <ele>48</ele>
        <time>2021-01-09T13:20:14Z</time>
      </trkpt>
      <trkpt lat="43.56214" lon="3.81009">
        <ele>44.9</ele>
        <time>2021-01-09T13:20:15Z</time>
      </trkpt>
      <trkpt lat="43.56212" lon="3.81009">
        <ele>47</ele>
        <time>2021-01-09T13:20:21Z</time>
      </trkpt>
      <trkpt lat="43.56205" lon="3.81015">
        <ele>47</ele>
        <time>2021-01-09T13:21:06Z</time>
      </trkpt>
      <trkpt lat="43.56202" lon="3.81018">
        <ele>45.5</ele>
        <time>2021-01-09T13:21:08Z</time>
      </trkpt>
      <trkpt lat="43.562" lon="3.81019">
        <ele>45.5</ele>
        <time>2021-01-09T13:21:09Z</time>
      </trkpt>
      <trkpt lat="43.56198" lon="3.81022">
        <ele>45.7</ele>
        <time>2021-01-09T13:21:10Z</time>
      </trkpt>
      <trkpt lat="43.56196" lon="3.81025">
        <ele>45.9</ele>
        <time>2021-01-09T13:21:11Z</time>
      </trkpt>
      <trkpt lat="43.56194" lon="3.81028">
        <ele>46</ele>
        <time>2021-01-09T13:21:12Z</time>
      </trkpt>
      <trkpt lat="43.56192" lon="3.81032">
        <ele>46.1</ele>
        <time>2021-01-09T13:21:13Z</time>
      </trkpt>
      <trkpt lat="43.56191" lon="3.81035">
        <ele>46.1</ele>
        <time>2021-01-09T13:21:14Z</time>
      </trkpt>
      <trkpt lat="43.56189" lon="3.81037">
        <ele>46.1</ele>
        <time>2021-01-09T13:21:15Z</time>
      </trkpt>
      <trkpt lat="43.56187" lon="3.8104">
        <ele>46</ele>
        <time>2021-01-09T13:21:16Z</time>
      </trkpt>
      <trkpt lat="43.56185" lon="3.81043">
        <ele>46.2</ele>
        <time>2021-01-09T13:21:17Z</time>
      </trkpt>
      <trkpt lat="43.56183" lon="3.81045">
        <ele>46.2</ele>
        <time>2021-01-09T13:21:18Z</time>
      </trkpt>
      <trkpt lat="43.56182" lon="3.81048">
        <ele>46.3</ele>
        <time>2021-01-09T13:21:19Z</time>
      </trkpt>
      <trkpt lat="43.5618" lon="3.81051">
        <ele>46.3</ele>
        <time>2021-01-09T13:21:20Z</time>
      </trkpt>
      <trkpt lat="43.56179" lon="3.81054">
        <ele>46.4</ele>
        <time>2021-01-09T13:21:21Z</time>
      </trkpt>
      <trkpt lat="43.56177" lon="3.81056">
        <ele>46.4</ele>
        <time>2021-01-09T13:21:22Z</time>
      </trkpt>
      <trkpt lat="43.56175" lon="3.81059">
        <ele>46.3</ele>
        <time>2021-01-09T13:21:23Z</time>
      </trkpt>
      <trkpt lat="43.56173" lon="3.81062">
        <ele>46.3</ele>
        <time>2021-01-09T13:21:24Z</time>
      </trkpt>
      <trkpt lat="43.56172" lon="3.81065">
        <ele>46.3</ele>
        <time>2021-01-09T13:21:25Z</time>
      </trkpt>
      <trkpt lat="43.5617" lon="3.81068">
        <ele>46</ele>
        <time>2021-01-09T13:21:26Z</time>
      </trkpt>
      <trkpt lat="43.56169" lon="3.81071">
        <ele>46.1</ele>
        <time>2021-01-09T13:21:27Z</time>
      </trkpt>
      <trkpt lat="43.56167" lon="3.81073">
        <ele>46</ele>
        <time>2021-01-09T13:21:28Z</time>
      </trkpt>
      <trkpt lat="43.56165" lon="3.81075">
        <ele>45.9</ele>
        <time>2021-01-09T13:21:29Z</time>
      </trkpt>
      <trkpt lat="43.56162" lon="3.81076">
        <ele>45.8</ele>
        <time>2021-01-09T13:21:30Z</time>
      </trkpt>
      <trkpt lat="43.5616" lon="3.81076">
        <ele>45.8</ele>
        <time>2021-01-09T13:21:31Z</time>
      </trkpt>
      <trkpt lat="43.56157" lon="3.81076">
        <ele>45.7</ele>
        <time>2021-01-09T13:21:32Z</time>
      </trkpt>
      <trkpt lat="43.56155" lon="3.81075">
        <ele>45.6</ele>
        <time>2021-01-09T13:21:33Z</time>
      </trkpt>
      <trkpt lat="43.56152" lon="3.81074">
        <ele>45.5</ele>
        <time>2021-01-09T13:21:34Z</time>
      </trkpt>
      <trkpt lat="43.5615" lon="3.81073">
        <ele>45.4</ele>
        <time>2021-01-09T13:21:35Z</time>
      </trkpt>
      <trkpt lat="43.56148" lon="3.81072">
        <ele>45</ele>
        <time>2021-01-09T13:21:36Z</time>
      </trkpt>
      <trkpt lat="43.56145" lon="3.81072">
        <ele>45.2</ele>
        <time>2021-01-09T13:21:37Z</time>
      </trkpt>
      <trkpt lat="43.56143" lon="3.81072">
        <ele>45.1</ele>
        <time>2021-01-09T13:21:38Z</time>
      </trkpt>
      <trkpt lat="43.56141" lon="3.81072">
        <ele>45.1</ele>
        <time>2021-01-09T13:21:39Z</time>
      </trkpt>
      <trkpt lat="43.56138" lon="3.81072">
        <ele>45</ele>
        <time>2021-01-09T13:21:40Z</time>
      </trkpt>
      <trkpt lat="43.56136" lon="3.81072">
        <ele>44.9</ele>
        <time>2021-01-09T13:21:41Z</time>
      </trkpt>
      <trkpt lat="43.56134" lon="3.81072">
        <ele>44.8</ele>
        <time>2021-01-09T13:21:42Z</time>
      </trkpt>
      <trkpt lat="43.56132" lon="3.81071">
        <ele>44.6</ele>
        <time>2021-01-09T13:21:43Z</time>
      </trkpt>
      <trkpt lat="43.5613" lon="3.8107">
        <ele>44.5</ele>
        <time>2021-01-09T13:21:44Z</time>
      </trkpt>
      <trkpt lat="43.56129" lon="3.81068">
        <ele>44.4</ele>
        <time>2021-01-09T13:21:45Z</time>
      </trkpt>
      <trkpt lat="43.56127" lon="3.81067">
        <ele>45</ele>
        <time>2021-01-09T13:21:46Z</time>
      </trkpt>
      <trkpt lat="43.56125" lon="3.81065">
        <ele>44.2</ele>
        <time>2021-01-09T13:21:47Z</time>
      </trkpt>
      <trkpt lat="43.56123" lon="3.81064">
        <ele>44</ele>
        <time>2021-01-09T13:21:48Z</time>
      </trkpt>
      <trkpt lat="43.56121" lon="3.81063">
        <ele>43.9</ele>
        <time>2021-01-09T13:21:49Z</time>
      </trkpt>
      <trkpt lat="43.56119" lon="3.81061">
        <ele>43.7</ele>
        <time>2021-01-09T13:21:50Z</time>
      </trkpt>
      <trkpt lat="43.56117" lon="3.8106">
        <ele>43.6</ele>
        <time>2021-01-09T13:21:51Z</time>
      </trkpt>
      <trkpt lat="43.56115" lon="3.81058">
        <ele>43.4</ele>
        <time>2021-01-09T13:21:52Z</time>
      </trkpt>
      <trkpt lat="43.56112" lon="3.81056">
        <ele>43.1</ele>
        <time>2021-01-09T13:21:53Z</time>
      </trkpt>
      <trkpt lat="43.5611" lon="3.81055">
        <ele>42.8</ele>
        <time>2021-01-09T13:21:54Z</time>
      </trkpt>
      <trkpt lat="43.56108" lon="3.81054">
        <ele>42.5</ele>
        <time>2021-01-09T13:21:55Z</time>
      </trkpt>
      <trkpt lat="43.56105" lon="3.81053">
        <ele>44</ele>
        <time>2021-01-09T13:21:56Z</time>
      </trkpt>
      <trkpt lat="43.56102" lon="3.81053">
        <ele>41.6</ele>
        <time>2021-01-09T13:21:57Z</time>
      </trkpt>
      <trkpt lat="43.561" lon="3.81051">
        <ele>41.2</ele>
        <time>2021-01-09T13:21:58Z</time>
      </trkpt>
      <trkpt lat="43.56098" lon="3.81049">
        <ele>40.9</ele>
        <time>2021-01-09T13:21:59Z</time>
      </trkpt>
      <trkpt lat="43.56096" lon="3.81048">
        <ele>40.6</ele>
        <time>2021-01-09T13:22:00Z</time>
      </trkpt>
      <trkpt lat="43.56094" lon="3.81046">
        <ele>40.2</ele>
        <time>2021-01-09T13:22:01Z</time>
      </trkpt>
      <trkpt lat="43.56092" lon="3.81046">
        <ele>39.9</ele>
        <time>2021-01-09T13:22:02Z</time>
      </trkpt>
      <trkpt lat="43.56091" lon="3.81046">
        <ele>39.8</ele>
        <time>2021-01-09T13:22:03Z</time>
      </trkpt>
      <trkpt lat="43.56089" lon="3.81046">
        <ele>39.5</ele>
        <time>2021-01-09T13:22:04Z</time>
      </trkpt>
      <trkpt lat="43.56087" lon="3.81046">
        <ele>39.2</ele>
        <time>2021-01-09T13:22:05Z</time>
      </trkpt>
      <trkpt lat="43.56084" lon="3.81047">
        <ele>38.8</ele>
        <time>2021-01-09T13:22:07Z</time>
      </trkpt>
      <trkpt lat="43.56081" lon="3.81049">
        <ele>38.2</ele>
        <time>2021-01-09T13:22:09Z</time>
      </trkpt>
      <trkpt lat="43.56079" lon="3.8105">
        <ele>37.7</ele>
        <time>2021-01-09T13:22:10Z</time>
      </trkpt>
      <trkpt lat="43.56077" lon="3.81052">
        <ele>37.3</ele>
        <time>2021-01-09T13:22:11Z</time>
      </trkpt>
      <trkpt lat="43.56075" lon="3.81054">
        <ele>36.9</ele>
        <time>2021-01-09T13:22:12Z</time>
      </trkpt>
      <trkpt lat="43.56072" lon="3.81056">
        <ele>36.2</ele>
        <time>2021-01-09T13:22:14Z</time>
      </trkpt>
      <trkpt lat="43.56069" lon="3.81056">
        <ele>39</ele>
        <time>2021-01-09T13:22:16Z</time>
      </trkpt>
      <trkpt lat="43.56066" lon="3.81056">
        <ele>34.7</ele>
        <time>2021-01-09T13:22:18Z</time>
      </trkpt>
      <trkpt lat="43.56064" lon="3.81058">
        <ele>34.4</ele>
        <time>2021-01-09T13:22:19Z</time>
      </trkpt>
      <trkpt lat="43.56062" lon="3.81059">
        <ele>34</ele>
        <time>2021-01-09T13:22:20Z</time>
      </trkpt>
      <trkpt lat="43.5606" lon="3.81062">
        <ele>33.8</ele>
        <time>2021-01-09T13:22:22Z</time>
      </trkpt>
      <trkpt lat="43.56057" lon="3.81062">
        <ele>33</ele>
        <time>2021-01-09T13:22:24Z</time>
      </trkpt>
      <trkpt lat="43.56055" lon="3.81065">
        <ele>37</ele>
        <time>2021-01-09T13:22:26Z</time>
      </trkpt>
      <trkpt lat="43.56053" lon="3.81068">
        <ele>32.6</ele>
        <time>2021-01-09T13:22:28Z</time>
      </trkpt>
      <trkpt lat="43.56052" lon="3.8107">
        <ele>32.5</ele>
        <time>2021-01-09T13:22:29Z</time>
      </trkpt>
      <trkpt lat="43.5605" lon="3.81071">
        <ele>32.1</ele>
        <time>2021-01-09T13:22:30Z</time>
      </trkpt>
      <trkpt lat="43.56047" lon="3.8107">
        <ele>31.1</ele>
        <time>2021-01-09T13:22:32Z</time>
      </trkpt>
      <trkpt lat="43.56045" lon="3.81069">
        <ele>30.4</ele>
        <time>2021-01-09T13:22:33Z</time>
      </trkpt>
      <trkpt lat="43.56043" lon="3.81068">
        <ele>29.7</ele>
        <time>2021-01-09T13:22:34Z</time>
      </trkpt>
      <trkpt lat="43.5604" lon="3.81068">
        <ele>28.8</ele>
        <time>2021-01-09T13:22:35Z</time>
      </trkpt>
      <trkpt lat="43.56038" lon="3.81067">
        <ele>33</ele>
        <time>2021-01-09T13:22:36Z</time>
      </trkpt>
      <trkpt lat="43.56036" lon="3.81067">
        <ele>27.5</ele>
        <time>2021-01-09T13:22:37Z</time>
      </trkpt>
      <trkpt lat="43.56034" lon="3.81066">
        <ele>26.7</ele>
        <time>2021-01-09T13:22:38Z</time>
      </trkpt>
      <trkpt lat="43.56031" lon="3.81066">
        <ele>25.8</ele>
        <time>2021-01-09T13:22:39Z</time>
      </trkpt>
      <trkpt lat="43.56028" lon="3.81067">
        <ele>25.1</ele>
        <time>2021-01-09T13:22:40Z</time>
      </trkpt>
      <trkpt lat="43.56026" lon="3.81068">
        <ele>24.8</ele>
        <time>2021-01-09T13:22:41Z</time>
      </trkpt>
      <trkpt lat="43.56023" lon="3.81069">
        <ele>24.1</ele>
        <time>2021-01-09T13:22:42Z</time>
      </trkpt>
      <trkpt lat="43.56019" lon="3.8107">
        <ele>23.2</ele>
        <time>2021-01-09T13:22:43Z</time>
      </trkpt>
      <trkpt lat="43.56016" lon="3.81072">
        <ele>22.7</ele>
        <time>2021-01-09T13:22:44Z</time>
      </trkpt>
      <trkpt lat="43.56012" lon="3.81073">
        <ele>21.7</ele>
        <time>2021-01-09T13:22:45Z</time>
      </trkpt>
      <trkpt lat="43.56009" lon="3.81074">
        <ele>27</ele>
        <time>2021-01-09T13:22:46Z</time>
      </trkpt>
      <trkpt lat="43.56005" lon="3.81075">
        <ele>19.9</ele>
        <time>2021-01-09T13:22:47Z</time>
      </trkpt>
      <trkpt lat="43.56002" lon="3.81076">
        <ele>19.1</ele>
        <time>2021-01-09T13:22:48Z</time>
      </trkpt>
      <trkpt lat="43.55999" lon="3.81076">
        <ele>18.3</ele>
        <time>2021-01-09T13:22:49Z</time>
      </trkpt>
      <trkpt lat="43.55996" lon="3.81076">
        <ele>17.6</ele>
        <time>2021-01-09T13:22:50Z</time>
      </trkpt>
      <trkpt lat="43.55994" lon="3.81077">
        <ele>17.2</ele>
        <time>2021-01-09T13:22:51Z</time>
      </trkpt>
      <trkpt lat="43.55992" lon="3.81078">
        <ele>16.8</ele>
        <time>2021-01-09T13:22:52Z</time>
      </trkpt>
      <trkpt lat="43.5599" lon="3.81079">
        <ele>16.4</ele>
        <time>2021-01-09T13:22:53Z</time>
      </trkpt>
      <trkpt lat="43.55986" lon="3.8108">
        <ele>15.5</ele>
        <time>2021-01-09T13:22:54Z</time>
      </trkpt>
      <trkpt lat="43.55984" lon="3.81082">
        <ele>15</ele>
        <time>2021-01-09T13:22:55Z</time>
      </trkpt>
      <trkpt lat="43.55982" lon="3.81084">
        <ele>21</ele>
        <time>2021-01-09T13:22:56Z</time>
      </trkpt>
      <trkpt lat="43.5598" lon="3.81087">
        <ele>13.8</ele>
        <time>2021-01-09T13:22:57Z</time>
      </trkpt>
      <trkpt lat="43.55979" lon="3.81089">
        <ele>13.4</ele>
        <time>2021-01-09T13:22:58Z</time>
      </trkpt>
      <trkpt lat="43.55978" lon="3.81092">
        <ele>13</ele>
        <time>2021-01-09T13:22:59Z</time>
      </trkpt>
      <trkpt lat="43.55978" lon="3.81095">
        <ele>12.9</ele>
        <time>2021-01-09T13:23:00Z</time>
      </trkpt>
      <trkpt lat="43.55979" lon="3.81098">
        <ele>12.9</ele>
        <time>2021-01-09T13:23:01Z</time>
      </trkpt>
      <trkpt lat="43.55981" lon="3.811">
        <ele>13.2</ele>
        <time>2021-01-09T13:23:02Z</time>
      </trkpt>
      <trkpt lat="43.55982" lon="3.81102">
        <ele>13.3</ele>
        <time>2021-01-09T13:23:03Z</time>
      </trkpt>
      <trkpt lat="43.55984" lon="3.81105">
        <ele>13.5</ele>
        <time>2021-01-09T13:23:04Z</time>
      </trkpt>
      <trkpt lat="43.55986" lon="3.81107">
        <ele>13.8</ele>
        <time>2021-01-09T13:23:05Z</time>
      </trkpt>
      <trkpt lat="43.55988" lon="3.8111">
        <ele>18</ele>
        <time>2021-01-09T13:23:06Z</time>
      </trkpt>
      <trkpt lat="43.55989" lon="3.81113">
        <ele>13.9</ele>
        <time>2021-01-09T13:23:07Z</time>
      </trkpt>
      <trkpt lat="43.55991" lon="3.81115">
        <ele>14</ele>
        <time>2021-01-09T13:23:08Z</time>
      </trkpt>
      <trkpt lat="43.55992" lon="3.81118">
        <ele>13.9</ele>
        <time>2021-01-09T13:23:09Z</time>
      </trkpt>
      <trkpt lat="43.55994" lon="3.81121">
        <ele>13.8</ele>
        <time>2021-01-09T13:23:10Z</time>
      </trkpt>
      <trkpt lat="43.55996" lon="3.81124">
        <ele>13.7</ele>
        <time>2021-01-09T13:23:11Z</time>
      </trkpt>
      <trkpt lat="43.55997" lon="3.81127">
        <ele>13.4</ele>
        <time>2021-01-09T13:23:12Z</time>
      </trkpt>
      <trkpt lat="43.55999" lon="3.8113">
        <ele>13.2</ele>
        <time>2021-01-09T13:23:13Z</time>
      </trkpt>
      <trkpt lat="43.56" lon="3.81133">
        <ele>12.8</ele>
        <time>2021-01-09T13:23:14Z</time>
      </trkpt>
      <trkpt lat="43.56002" lon="3.81136">
        <ele>13.5</ele>
        <time>2021-01-09T13:23:15Z</time>
      </trkpt>
      <trkpt lat="43.56003" lon="3.81139">
        <ele>17</ele>
        <time>2021-01-09T13:23:16Z</time>
      </trkpt>
      <trkpt lat="43.56004" lon="3.81142">
        <ele>14</ele>
        <time>2021-01-09T13:23:17Z</time>
      </trkpt>
      <trkpt lat="43.56006" lon="3.81146">
        <ele>14.7</ele>
        <time>2021-01-09T13:23:18Z</time>
      </trkpt>
      <trkpt lat="43.56007" lon="3.81149">
        <ele>14.9</ele>
        <time>2021-01-09T13:23:19Z</time>
      </trkpt>
      <trkpt lat="43.56009" lon="3.81152">
        <ele>15.5</ele>
        <time>2021-01-09T13:23:20Z</time>
      </trkpt>
      <trkpt lat="43.5601" lon="3.81156">
        <ele>15.5</ele>
        <time>2021-01-09T13:23:21Z</time>
      </trkpt>
      <trkpt lat="43.56011" lon="3.81159">
        <ele>15.5</ele>
        <time>2021-01-09T13:23:22Z</time>
      </trkpt>
      <trkpt lat="43.56012" lon="3.81162">
        <ele>15.5</ele>
        <time>2021-01-09T13:23:23Z</time>
      </trkpt>
      <trkpt lat="43.56014" lon="3.81165">
        <ele>15.8</ele>
        <time>2021-01-09T13:23:24Z</time>
      </trkpt>
      <trkpt lat="43.56015" lon="3.81169">
        <ele>15.6</ele>
        <time>2021-01-09T13:23:25Z</time>
      </trkpt>
      <trkpt lat="43.56016" lon="3.81172">
        <ele>16</ele>
        <time>2021-01-09T13:23:26Z</time>
      </trkpt>
      <trkpt lat="43.56018" lon="3.81176">
        <ele>15.5</ele>
        <time>2021-01-09T13:23:27Z</time>
      </trkpt>
      <trkpt lat="43.56019" lon="3.81179">
        <ele>15.4</ele>
        <time>2021-01-09T13:23:28Z</time>
      </trkpt>
      <trkpt lat="43.56021" lon="3.81183">
        <ele>15.3</ele>
        <time>2021-01-09T13:23:29Z</time>
      </trkpt>
      <trkpt lat="43.56022" lon="3.81187">
        <ele>14.9</ele>
        <time>2021-01-09T13:23:30Z</time>
      </trkpt>
      <trkpt lat="43.56023" lon="3.8119">
        <ele>14.7</ele>
        <time>2021-01-09T13:23:31Z</time>
      </trkpt>
      <trkpt lat="43.56024" lon="3.81194">
        <ele>14.3</ele>
        <time>2021-01-09T13:23:32Z</time>
      </trkpt>
      <trkpt lat="43.56025" lon="3.81196">
        <ele>14.3</ele>
        <time>2021-01-09T13:23:33Z</time>
      </trkpt>
      <trkpt lat="43.56026" lon="3.81199">
        <ele>14.3</ele>
        <time>2021-01-09T13:23:35Z</time>
      </trkpt>
      <trkpt lat="43.56031" lon="3.81214">
        <ele>16</ele>
        <time>2021-01-09T13:24:42Z</time>
      </trkpt>
      <trkpt lat="43.56031" lon="3.81217">
        <ele>14.5</ele>
        <time>2021-01-09T13:24:43Z</time>
      </trkpt>
      <trkpt lat="43.56031" lon="3.8122">
        <ele>14.2</ele>
        <time>2021-01-09T13:24:44Z</time>
      </trkpt>
      <trkpt lat="43.56031" lon="3.81223">
        <ele>14</ele>
        <time>2021-01-09T13:24:45Z</time>
      </trkpt>
      <trkpt lat="43.5603" lon="3.81227">
        <ele>13.5</ele>
        <time>2021-01-09T13:24:46Z</time>
      </trkpt>
      <trkpt lat="43.5603" lon="3.81232">
        <ele>13.2</ele>
        <time>2021-01-09T13:24:47Z</time>
      </trkpt>
      <trkpt lat="43.56029" lon="3.81237">
        <ele>12.7</ele>
        <time>2021-01-09T13:24:48Z</time>
      </trkpt>
      <trkpt lat="43.56029" lon="3.81242">
        <ele>12.5</ele>
        <time>2021-01-09T13:24:49Z</time>
      </trkpt>
      <trkpt lat="43.56028" lon="3.81247">
        <ele>12.1</ele>
        <time>2021-01-09T13:24:50Z</time>
      </trkpt>
      <trkpt lat="43.56028" lon="3.81251">
        <ele>12.1</ele>
        <time>2021-01-09T13:24:51Z</time>
      </trkpt>
      <trkpt lat="43.56027" lon="3.81258">
        <ele>16</ele>
        <time>2021-01-09T13:24:52Z</time>
      </trkpt>
      <trkpt lat="43.56027" lon="3.81262">
        <ele>12.8</ele>
        <time>2021-01-09T13:24:53Z</time>
      </trkpt>
      <trkpt lat="43.56026" lon="3.81265">
        <ele>12.9</ele>
        <time>2021-01-09T13:24:54Z</time>
      </trkpt>
      <trkpt lat="43.56024" lon="3.81268">
        <ele>12.8</ele>
        <time>2021-01-09T13:24:55Z</time>
      </trkpt>
      <trkpt lat="43.56024" lon="3.81271">
        <ele>13</ele>
        <time>2021-01-09T13:24:56Z</time>
      </trkpt>
      <trkpt lat="43.56024" lon="3.81275">
        <ele>13.3</ele>
        <time>2021-01-09T13:24:57Z</time>
      </trkpt>
      <trkpt lat="43.56025" lon="3.81278">
        <ele>13.6</ele>
        <time>2021-01-09T13:24:58Z</time>
      </trkpt>
      <trkpt lat="43.56027" lon="3.8128">
        <ele>13.8</ele>
        <time>2021-01-09T13:24:59Z</time>
      </trkpt>
      <trkpt lat="43.56029" lon="3.81287">
        <ele>14</ele>
        <time>2021-01-09T13:25:01Z</time>
      </trkpt>
      <trkpt lat="43.56029" lon="3.81291">
        <ele>15</ele>
        <time>2021-01-09T13:25:02Z</time>
      </trkpt>
      <trkpt lat="43.56029" lon="3.81295">
        <ele>13.8</ele>
        <time>2021-01-09T13:25:03Z</time>
      </trkpt>
      <trkpt lat="43.56028" lon="3.813">
        <ele>13.3</ele>
        <time>2021-01-09T13:25:04Z</time>
      </trkpt>
      <trkpt lat="43.56028" lon="3.81304">
        <ele>13.2</ele>
        <time>2021-01-09T13:25:05Z</time>
      </trkpt>
      <trkpt lat="43.56027" lon="3.81309">
        <ele>13.3</ele>
        <time>2021-01-09T13:25:06Z</time>
      </trkpt>
      <trkpt lat="43.56026" lon="3.81315">
        <ele>13.7</ele>
        <time>2021-01-09T13:25:07Z</time>
      </trkpt>
      <trkpt lat="43.56024" lon="3.81319">
        <ele>13.8</ele>
        <time>2021-01-09T13:25:08Z</time>
      </trkpt>
      <trkpt lat="43.56021" lon="3.81328">
        <ele>13.9</ele>
        <time>2021-01-09T13:25:10Z</time>
      </trkpt>
      <trkpt lat="43.5602" lon="3.81332">
        <ele>15</ele>
        <time>2021-01-09T13:25:12Z</time>
      </trkpt>
      <trkpt lat="43.56018" lon="3.81336">
        <ele>13.7</ele>
        <time>2021-01-09T13:25:13Z</time>
      </trkpt>
      <trkpt lat="43.56017" lon="3.8134">
        <ele>13.7</ele>
        <time>2021-01-09T13:25:14Z</time>
      </trkpt>
      <trkpt lat="43.56016" lon="3.81344">
        <ele>13.7</ele>
        <time>2021-01-09T13:25:15Z</time>
      </trkpt>
      <trkpt lat="43.56015" lon="3.81348">
        <ele>13.6</ele>
        <time>2021-01-09T13:25:16Z</time>
      </trkpt>
      <trkpt lat="43.56014" lon="3.81352">
        <ele>13.5</ele>
        <time>2021-01-09T13:25:17Z</time>
      </trkpt>
      <trkpt lat="43.56013" lon="3.81355">
        <ele>13.4</ele>
        <time>2021-01-09T13:25:18Z</time>
      </trkpt>
      <trkpt lat="43.56012" lon="3.81358">
        <ele>13.2</ele>
        <time>2021-01-09T13:25:19Z</time>
      </trkpt>
      <trkpt lat="43.56011" lon="3.81361">
        <ele>13</ele>
        <time>2021-01-09T13:25:20Z</time>
      </trkpt>
      <trkpt lat="43.56013" lon="3.81365">
        <ele>15</ele>
        <time>2021-01-09T13:25:22Z</time>
      </trkpt>
      <trkpt lat="43.56014" lon="3.81368">
        <ele>13.8</ele>
        <time>2021-01-09T13:25:23Z</time>
      </trkpt>
      <trkpt lat="43.56015" lon="3.81371">
        <ele>14</ele>
        <time>2021-01-09T13:25:24Z</time>
      </trkpt>
      <trkpt lat="43.56016" lon="3.81374">
        <ele>14.2</ele>
        <time>2021-01-09T13:25:25Z</time>
      </trkpt>
      <trkpt lat="43.56016" lon="3.81377">
        <ele>14.1</ele>
        <time>2021-01-09T13:25:26Z</time>
      </trkpt>
      <trkpt lat="43.56017" lon="3.8138">
        <ele>14.3</ele>
        <time>2021-01-09T13:25:27Z</time>
      </trkpt>
      <trkpt lat="43.56017" lon="3.81384">
        <ele>14.1</ele>
        <time>2021-01-09T13:25:28Z</time>
      </trkpt>
      <trkpt lat="43.56017" lon="3.81388">
        <ele>13.9</ele>
        <time>2021-01-09T13:25:29Z</time>
      </trkpt>
      <trkpt lat="43.56017" lon="3.81392">
        <ele>14</ele>
        <time>2021-01-09T13:25:30Z</time>
      </trkpt>
      <trkpt lat="43.56017" lon="3.81396">
        <ele>14.1</ele>
        <time>2021-01-09T13:25:31Z</time>
      </trkpt>
      <trkpt lat="43.56016" lon="3.814">
        <ele>15</ele>
        <time>2021-01-09T13:25:32Z</time>
      </trkpt>
      <trkpt lat="43.56016" lon="3.81404">
        <ele>14.1</ele>
        <time>2021-01-09T13:25:33Z</time>
      </trkpt>
      <trkpt lat="43.56016" lon="3.81408">
        <ele>14.2</ele>
        <time>2021-01-09T13:25:34Z</time>
      </trkpt>
      <trkpt lat="43.56016" lon="3.81412">
        <ele>14.3</ele>
        <time>2021-01-09T13:25:35Z</time>
      </trkpt>
      <trkpt lat="43.56015" lon="3.81417">
        <ele>14.2</ele>
        <time>2021-01-09T13:25:36Z</time>
      </trkpt>
      <trkpt lat="43.56015" lon="3.81421">
        <ele>14.3</ele>
        <time>2021-01-09T13:25:37Z</time>
      </trkpt>
      <trkpt lat="43.56015" lon="3.81425">
        <ele>14.4</ele>
        <time>2021-01-09T13:25:38Z</time>
      </trkpt>
      <trkpt lat="43.56016" lon="3.81428">
        <ele>14.7</ele>
        <time>2021-01-09T13:25:39Z</time>
      </trkpt>
      <trkpt lat="43.56016" lon="3.81432">
        <ele>14.8</ele>
        <time>2021-01-09T13:25:40Z</time>
      </trkpt>
      <trkpt lat="43.56015" lon="3.81435">
        <ele>14.6</ele>
        <time>2021-01-09T13:25:41Z</time>
      </trkpt>
      <trkpt lat="43.56014" lon="3.81439">
        <ele>15</ele>
        <time>2021-01-09T13:25:42Z</time>
      </trkpt>
      <trkpt lat="43.56012" lon="3.81443">
        <ele>14</ele>
        <time>2021-01-09T13:25:43Z</time>
      </trkpt>
      <trkpt lat="43.56011" lon="3.81447">
        <ele>13.9</ele>
        <time>2021-01-09T13:25:44Z</time>
      </trkpt>
      <trkpt lat="43.56011" lon="3.81451">
        <ele>14.2</ele>
        <time>2021-01-09T13:25:45Z</time>
      </trkpt>
      <trkpt lat="43.5601" lon="3.81454">
        <ele>14.1</ele>
        <time>2021-01-09T13:25:46Z</time>
      </trkpt>
      <trkpt lat="43.56009" lon="3.81457">
        <ele>14</ele>
        <time>2021-01-09T13:25:47Z</time>
      </trkpt>
      <trkpt lat="43.56008" lon="3.81461">
        <ele>14</ele>
        <time>2021-01-09T13:25:48Z</time>
      </trkpt>
      <trkpt lat="43.56008" lon="3.81465">
        <ele>14.2</ele>
        <time>2021-01-09T13:25:49Z</time>
      </trkpt>
      <trkpt lat="43.56008" lon="3.81468">
        <ele>14.4</ele>
        <time>2021-01-09T13:25:50Z</time>
      </trkpt>
      <trkpt lat="43.56006" lon="3.81471">
        <ele>13.9</ele>
        <time>2021-01-09T13:25:51Z</time>
      </trkpt>
      <trkpt lat="43.56004" lon="3.81473">
        <ele>14</ele>
        <time>2021-01-09T13:25:52Z</time>
      </trkpt>
      <trkpt lat="43.56002" lon="3.81475">
        <ele>12.9</ele>
        <time>2021-01-09T13:25:53Z</time>
      </trkpt>
      <trkpt lat="43.56" lon="3.81477">
        <ele>12.3</ele>
        <time>2021-01-09T13:25:54Z</time>
      </trkpt>
      <trkpt lat="43.55999" lon="3.8148">
        <ele>12.4</ele>
        <time>2021-01-09T13:25:55Z</time>
      </trkpt>
      <trkpt lat="43.55998" lon="3.81484">
        <ele>12.6</ele>
        <time>2021-01-09T13:25:56Z</time>
      </trkpt>
      <trkpt lat="43.55997" lon="3.81488">
        <ele>12.7</ele>
        <time>2021-01-09T13:25:57Z</time>
      </trkpt>
      <trkpt lat="43.55996" lon="3.81492">
        <ele>12.8</ele>
        <time>2021-01-09T13:25:58Z</time>
      </trkpt>
      <trkpt lat="43.55995" lon="3.81495">
        <ele>12.8</ele>
        <time>2021-01-09T13:25:59Z</time>
      </trkpt>
      <trkpt lat="43.55994" lon="3.81499">
        <ele>12.9</ele>
        <time>2021-01-09T13:26:00Z</time>
      </trkpt>
      <trkpt lat="43.55992" lon="3.81502">
        <ele>12.8</ele>
        <time>2021-01-09T13:26:01Z</time>
      </trkpt>
      <trkpt lat="43.55991" lon="3.81505">
        <ele>14</ele>
        <time>2021-01-09T13:26:02Z</time>
      </trkpt>
      <trkpt lat="43.55989" lon="3.81509">
        <ele>13.1</ele>
        <time>2021-01-09T13:26:03Z</time>
      </trkpt>
      <trkpt lat="43.55987" lon="3.81512">
        <ele>13</ele>
        <time>2021-01-09T13:26:04Z</time>
      </trkpt>
      <trkpt lat="43.55985" lon="3.81515">
        <ele>12.9</ele>
        <time>2021-01-09T13:26:05Z</time>
      </trkpt>
      <trkpt lat="43.55983" lon="3.81518">
        <ele>12.7</ele>
        <time>2021-01-09T13:26:06Z</time>
      </trkpt>
      <trkpt lat="43.55982" lon="3.81521">
        <ele>12.8</ele>
        <time>2021-01-09T13:26:07Z</time>
      </trkpt>
      <trkpt lat="43.5598" lon="3.81523">
        <ele>12.5</ele>
        <time>2021-01-09T13:26:08Z</time>
      </trkpt>
      <trkpt lat="43.55978" lon="3.81526">
        <ele>12.3</ele>
        <time>2021-01-09T13:26:09Z</time>
      </trkpt>
      <trkpt lat="43.55977" lon="3.81529">
        <ele>12.4</ele>
        <time>2021-01-09T13:26:10Z</time>
      </trkpt>
      <trkpt lat="43.55975" lon="3.81532">
        <ele>12.2</ele>
        <time>2021-01-09T13:26:11Z</time>
      </trkpt>
      <trkpt lat="43.55974" lon="3.81535">
        <ele>15</ele>
        <time>2021-01-09T13:26:12Z</time>
      </trkpt>
      <trkpt lat="43.55972" lon="3.81538">
        <ele>12.1</ele>
        <time>2021-01-09T13:26:13Z</time>
      </trkpt>
      <trkpt lat="43.5597" lon="3.8154">
        <ele>12.1</ele>
        <time>2021-01-09T13:26:14Z</time>
      </trkpt>
      <trkpt lat="43.55969" lon="3.81542">
        <ele>12.2</ele>
        <time>2021-01-09T13:26:15Z</time>
      </trkpt>
      <trkpt lat="43.55969" lon="3.81545">
        <ele>12.5</ele>
        <time>2021-01-09T13:26:16Z</time>
      </trkpt>
      <trkpt lat="43.55966" lon="3.81548">
        <ele>12.4</ele>
        <time>2021-01-09T13:26:17Z</time>
      </trkpt>
      <trkpt lat="43.55964" lon="3.81551">
        <ele>12.4</ele>
        <time>2021-01-09T13:26:18Z</time>
      </trkpt>
      <trkpt lat="43.55962" lon="3.81554">
        <ele>12.4</ele>
        <time>2021-01-09T13:26:19Z</time>
      </trkpt>
      <trkpt lat="43.55961" lon="3.81556">
        <ele>12.5</ele>
        <time>2021-01-09T13:26:23Z</time>
      </trkpt>
      <trkpt lat="43.5596" lon="3.81559">
        <ele>12.9</ele>
        <time>2021-01-09T13:26:28Z</time>
      </trkpt>
      <trkpt lat="43.55958" lon="3.81559">
        <ele>12.6</ele>
        <time>2021-01-09T13:26:33Z</time>
      </trkpt>
      <trkpt lat="43.55958" lon="3.81559">
        <ele>16</ele>
        <time>2021-01-09T13:26:35Z</time>
      </trkpt>
      <trkpt lat="43.55954" lon="3.81563">
        <ele>17</ele>
        <time>2021-01-09T13:26:54Z</time>
      </trkpt>
      <trkpt lat="43.55953" lon="3.81565">
        <ele>12.7</ele>
        <time>2021-01-09T13:26:55Z</time>
      </trkpt>
      <trkpt lat="43.55952" lon="3.81567">
        <ele>12.8</ele>
        <time>2021-01-09T13:26:56Z</time>
      </trkpt>
      <trkpt lat="43.5595" lon="3.8157">
        <ele>12.8</ele>
        <time>2021-01-09T13:26:57Z</time>
      </trkpt>
      <trkpt lat="43.55948" lon="3.81571">
        <ele>12.5</ele>
        <time>2021-01-09T13:26:58Z</time>
      </trkpt>
      <trkpt lat="43.55946" lon="3.81572">
        <ele>12.1</ele>
        <time>2021-01-09T13:26:59Z</time>
      </trkpt>
      <trkpt lat="43.55944" lon="3.81573">
        <ele>11.8</ele>
        <time>2021-01-09T13:27:00Z</time>
      </trkpt>
      <trkpt lat="43.55942" lon="3.81574">
        <ele>11.7</ele>
        <time>2021-01-09T13:27:01Z</time>
      </trkpt>
      <trkpt lat="43.55941" lon="3.81575">
        <ele>11.7</ele>
        <time>2021-01-09T13:27:02Z</time>
      </trkpt>
      <trkpt lat="43.55939" lon="3.81578">
        <ele>11.8</ele>
        <time>2021-01-09T13:27:03Z</time>
      </trkpt>
      <trkpt lat="43.55938" lon="3.81581">
        <ele>17</ele>
        <time>2021-01-09T13:27:04Z</time>
      </trkpt>
      <trkpt lat="43.55936" lon="3.81583">
        <ele>11.8</ele>
        <time>2021-01-09T13:27:05Z</time>
      </trkpt>
      <trkpt lat="43.55934" lon="3.81586">
        <ele>12.6</ele>
        <time>2021-01-09T13:27:06Z</time>
      </trkpt>
      <trkpt lat="43.55931" lon="3.81588">
        <ele>12.8</ele>
        <time>2021-01-09T13:27:07Z</time>
      </trkpt>
      <trkpt lat="43.55929" lon="3.8159">
        <ele>13.1</ele>
        <time>2021-01-09T13:27:08Z</time>
      </trkpt>
      <trkpt lat="43.55928" lon="3.81592">
        <ele>13.5</ele>
        <time>2021-01-09T13:27:09Z</time>
      </trkpt>
      <trkpt lat="43.55926" lon="3.81594">
        <ele>13.7</ele>
        <time>2021-01-09T13:27:10Z</time>
      </trkpt>
      <trkpt lat="43.55924" lon="3.81595">
        <ele>13.5</ele>
        <time>2021-01-09T13:27:11Z</time>
      </trkpt>
      <trkpt lat="43.55922" lon="3.81598">
        <ele>13.7</ele>
        <time>2021-01-09T13:27:13Z</time>
      </trkpt>
      <trkpt lat="43.55921" lon="3.81601">
        <ele>14.2</ele>
        <time>2021-01-09T13:27:15Z</time>
      </trkpt>
      <trkpt lat="43.5592" lon="3.81604">
        <ele>14.7</ele>
        <time>2021-01-09T13:27:17Z</time>
      </trkpt>
      <trkpt lat="43.55918" lon="3.81604">
        <ele>13.9</ele>
        <time>2021-01-09T13:27:20Z</time>
      </trkpt>
      <trkpt lat="43.55915" lon="3.81604">
        <ele>13.2</ele>
        <time>2021-01-09T13:27:23Z</time>
      </trkpt>
      <trkpt lat="43.55913" lon="3.81604">
        <ele>13</ele>
        <time>2021-01-09T13:27:25Z</time>
      </trkpt>
      <trkpt lat="43.5591" lon="3.81606">
        <ele>12.9</ele>
        <time>2021-01-09T13:27:28Z</time>
      </trkpt>
      <trkpt lat="43.55909" lon="3.81606">
        <ele>19</ele>
        <time>2021-01-09T13:27:33Z</time>
      </trkpt>
      <trkpt lat="43.55903" lon="3.81611">
        <ele>20</ele>
        <time>2021-01-09T13:27:40Z</time>
      </trkpt>
      <trkpt lat="43.559" lon="3.81613">
        <ele>12.9</ele>
        <time>2021-01-09T13:27:42Z</time>
      </trkpt>
      <trkpt lat="43.55898" lon="3.81613">
        <ele>12.5</ele>
        <time>2021-01-09T13:27:43Z</time>
      </trkpt>
      <trkpt lat="43.55897" lon="3.81614">
        <ele>12.8</ele>
        <time>2021-01-09T13:27:44Z</time>
      </trkpt>
      <trkpt lat="43.55895" lon="3.81617">
        <ele>13.7</ele>
        <time>2021-01-09T13:27:46Z</time>
      </trkpt>
      <trkpt lat="43.55892" lon="3.8162">
        <ele>14.3</ele>
        <time>2021-01-09T13:27:48Z</time>
      </trkpt>
      <trkpt lat="43.55891" lon="3.81622">
        <ele>21</ele>
        <time>2021-01-09T13:27:50Z</time>
      </trkpt>
      <trkpt lat="43.55888" lon="3.81623">
        <ele>14.6</ele>
        <time>2021-01-09T13:27:53Z</time>
      </trkpt>
      <trkpt lat="43.55886" lon="3.81624">
        <ele>14.6</ele>
        <time>2021-01-09T13:27:54Z</time>
      </trkpt>
      <trkpt lat="43.55884" lon="3.81624">
        <ele>14.3</ele>
        <time>2021-01-09T13:27:55Z</time>
      </trkpt>
      <trkpt lat="43.55882" lon="3.81624">
        <ele>13.9</ele>
        <time>2021-01-09T13:27:56Z</time>
      </trkpt>
      <trkpt lat="43.55879" lon="3.81626">
        <ele>14</ele>
        <time>2021-01-09T13:27:58Z</time>
      </trkpt>
      <trkpt lat="43.55877" lon="3.81627">
        <ele>20</ele>
        <time>2021-01-09T13:28:00Z</time>
      </trkpt>
      <trkpt lat="43.55876" lon="3.81629">
        <ele>14.2</ele>
        <time>2021-01-09T13:28:06Z</time>
      </trkpt>
      <trkpt lat="43.55876" lon="3.81629">
        <ele>20</ele>
        <time>2021-01-09T13:28:07Z</time>
      </trkpt>
      <trkpt lat="43.55857" lon="3.81641">
        <ele>20</ele>
        <time>2021-01-09T13:29:52Z</time>
      </trkpt>
      <trkpt lat="43.55856" lon="3.81642">
        <ele>12.9</ele>
        <time>2021-01-09T13:29:53Z</time>
      </trkpt>
      <trkpt lat="43.55854" lon="3.81644">
        <ele>13.4</ele>
        <time>2021-01-09T13:29:54Z</time>
      </trkpt>
      <trkpt lat="43.55852" lon="3.81645">
        <ele>13.5</ele>
        <time>2021-01-09T13:29:55Z</time>
      </trkpt>
      <trkpt lat="43.55849" lon="3.81646">
        <ele>13.4</ele>
        <time>2021-01-09T13:29:56Z</time>
      </trkpt>
      <trkpt lat="43.55846" lon="3.81647">
        <ele>13.2</ele>
        <time>2021-01-09T13:29:57Z</time>
      </trkpt>
      <trkpt lat="43.55843" lon="3.81648">
        <ele>12.9</ele>
        <time>2021-01-09T13:29:58Z</time>
      </trkpt>
      <trkpt lat="43.5584" lon="3.8165">
        <ele>12.9</ele>
        <time>2021-01-09T13:29:59Z</time>
      </trkpt>
      <trkpt lat="43.55838" lon="3.81652">
        <ele>13</ele>
        <time>2021-01-09T13:30:00Z</time>
      </trkpt>
      <trkpt lat="43.55835" lon="3.81654">
        <ele>12.7</ele>
        <time>2021-01-09T13:30:01Z</time>
      </trkpt>
      <trkpt lat="43.55834" lon="3.81656">
        <ele>19</ele>
        <time>2021-01-09T13:30:02Z</time>
      </trkpt>
      <trkpt lat="43.55832" lon="3.81657">
        <ele>12.8</ele>
        <time>2021-01-09T13:30:04Z</time>
      </trkpt>
      <trkpt lat="43.5583" lon="3.81659">
        <ele>12.9</ele>
        <time>2021-01-09T13:30:06Z</time>
      </trkpt>
      <trkpt lat="43.55827" lon="3.81663">
        <ele>13.2</ele>
        <time>2021-01-09T13:30:08Z</time>
      </trkpt>
      <trkpt lat="43.55826" lon="3.81666">
        <ele>13.6</ele>
        <time>2021-01-09T13:30:09Z</time>
      </trkpt>
      <trkpt lat="43.55825" lon="3.81668">
        <ele>14</ele>
        <time>2021-01-09T13:30:10Z</time>
      </trkpt>
      <trkpt lat="43.55823" lon="3.81669">
        <ele>13.9</ele>
        <time>2021-01-09T13:30:11Z</time>
      </trkpt>
      <trkpt lat="43.55821" lon="3.81672">
        <ele>19</ele>
        <time>2021-01-09T13:30:12Z</time>
      </trkpt>
      <trkpt lat="43.55819" lon="3.81674">
        <ele>14.5</ele>
        <time>2021-01-09T13:30:13Z</time>
      </trkpt>
      <trkpt lat="43.55817" lon="3.81676">
        <ele>14.5</ele>
        <time>2021-01-09T13:30:14Z</time>
      </trkpt>
      <trkpt lat="43.55813" lon="3.81679">
        <ele>14.1</ele>
        <time>2021-01-09T13:30:16Z</time>
      </trkpt>
      <trkpt lat="43.55811" lon="3.81681">
        <ele>13.9</ele>
        <time>2021-01-09T13:30:17Z</time>
      </trkpt>
      <trkpt lat="43.55809" lon="3.81683">
        <ele>13.6</ele>
        <time>2021-01-09T13:30:18Z</time>
      </trkpt>
      <trkpt lat="43.55807" lon="3.81686">
        <ele>13.3</ele>
        <time>2021-01-09T13:30:19Z</time>
      </trkpt>
      <trkpt lat="43.55804" lon="3.81688">
        <ele>12.9</ele>
        <time>2021-01-09T13:30:20Z</time>
      </trkpt>
      <trkpt lat="43.55801" lon="3.81688">
        <ele>18</ele>
        <time>2021-01-09T13:30:22Z</time>
      </trkpt>
      <trkpt lat="43.55797" lon="3.81689">
        <ele>12.4</ele>
        <time>2021-01-09T13:30:23Z</time>
      </trkpt>
      <trkpt lat="43.55794" lon="3.8169">
        <ele>12.2</ele>
        <time>2021-01-09T13:30:24Z</time>
      </trkpt>
      <trkpt lat="43.5579" lon="3.8169">
        <ele>11.9</ele>
        <time>2021-01-09T13:30:25Z</time>
      </trkpt>
      <trkpt lat="43.55787" lon="3.8169">
        <ele>11.6</ele>
        <time>2021-01-09T13:30:26Z</time>
      </trkpt>
      <trkpt lat="43.55785" lon="3.81691">
        <ele>11.5</ele>
        <time>2021-01-09T13:30:27Z</time>
      </trkpt>
      <trkpt lat="43.55783" lon="3.81692">
        <ele>11.4</ele>
        <time>2021-01-09T13:30:28Z</time>
      </trkpt>
      <trkpt lat="43.55781" lon="3.81693">
        <ele>11.2</ele>
        <time>2021-01-09T13:30:29Z</time>
      </trkpt>
      <trkpt lat="43.55778" lon="3.81695">
        <ele>11.2</ele>
        <time>2021-01-09T13:30:30Z</time>
      </trkpt>
      <trkpt lat="43.55776" lon="3.81697">
        <ele>11.6</ele>
        <time>2021-01-09T13:30:31Z</time>
      </trkpt>
      <trkpt lat="43.55774" lon="3.817">
        <ele>18</ele>
        <time>2021-01-09T13:30:32Z</time>
      </trkpt>
      <trkpt lat="43.55772" lon="3.81703">
        <ele>12.8</ele>
        <time>2021-01-09T13:30:33Z</time>
      </trkpt>
      <trkpt lat="43.55771" lon="3.81706">
        <ele>13.4</ele>
        <time>2021-01-09T13:30:34Z</time>
      </trkpt>
      <trkpt lat="43.55768" lon="3.81708">
        <ele>13.3</ele>
        <time>2021-01-09T13:30:35Z</time>
      </trkpt>
      <trkpt lat="43.55766" lon="3.81711">
        <ele>13.6</ele>
        <time>2021-01-09T13:30:36Z</time>
      </trkpt>
      <trkpt lat="43.55764" lon="3.81713">
        <ele>13.5</ele>
        <time>2021-01-09T13:30:37Z</time>
      </trkpt>
      <trkpt lat="43.55762" lon="3.81715">
        <ele>13.4</ele>
        <time>2021-01-09T13:30:38Z</time>
      </trkpt>
      <trkpt lat="43.5576" lon="3.81716">
        <ele>13.1</ele>
        <time>2021-01-09T13:30:39Z</time>
      </trkpt>
      <trkpt lat="43.55758" lon="3.81717">
        <ele>12.7</ele>
        <time>2021-01-09T13:30:40Z</time>
      </trkpt>
      <trkpt lat="43.55756" lon="3.81719">
        <ele>12.4</ele>
        <time>2021-01-09T13:30:41Z</time>
      </trkpt>
      <trkpt lat="43.55754" lon="3.81722">
        <ele>17</ele>
        <time>2021-01-09T13:30:42Z</time>
      </trkpt>
      <trkpt lat="43.55752" lon="3.81724">
        <ele>11.9</ele>
        <time>2021-01-09T13:30:43Z</time>
      </trkpt>
      <trkpt lat="43.5575" lon="3.81727">
        <ele>11.9</ele>
        <time>2021-01-09T13:30:44Z</time>
      </trkpt>
      <trkpt lat="43.55748" lon="3.81729">
        <ele>12.1</ele>
        <time>2021-01-09T13:30:45Z</time>
      </trkpt>
      <trkpt lat="43.55745" lon="3.81731">
        <ele>12.2</ele>
        <time>2021-01-09T13:30:46Z</time>
      </trkpt>
      <trkpt lat="43.55742" lon="3.81734">
        <ele>12.3</ele>
        <time>2021-01-09T13:30:47Z</time>
      </trkpt>
      <trkpt lat="43.55739" lon="3.81736">
        <ele>12.3</ele>
        <time>2021-01-09T13:30:48Z</time>
      </trkpt>
      <trkpt lat="43.55736" lon="3.81738">
        <ele>12.2</ele>
        <time>2021-01-09T13:30:49Z</time>
      </trkpt>
      <trkpt lat="43.55734" lon="3.8174">
        <ele>12.1</ele>
        <time>2021-01-09T13:30:50Z</time>
      </trkpt>
      <trkpt lat="43.55732" lon="3.81742">
        <ele>12.1</ele>
        <time>2021-01-09T13:30:51Z</time>
      </trkpt>
      <trkpt lat="43.5573" lon="3.81744">
        <ele>17</ele>
        <time>2021-01-09T13:30:52Z</time>
      </trkpt>
      <trkpt lat="43.55728" lon="3.81747">
        <ele>11.8</ele>
        <time>2021-01-09T13:30:53Z</time>
      </trkpt>
      <trkpt lat="43.55726" lon="3.81749">
        <ele>11.6</ele>
        <time>2021-01-09T13:30:54Z</time>
      </trkpt>
      <trkpt lat="43.55724" lon="3.81751">
        <ele>11.4</ele>
        <time>2021-01-09T13:30:55Z</time>
      </trkpt>
      <trkpt lat="43.55722" lon="3.81752">
        <ele>11.1</ele>
        <time>2021-01-09T13:30:56Z</time>
      </trkpt>
      <trkpt lat="43.55719" lon="3.81754">
        <ele>11.2</ele>
        <time>2021-01-09T13:30:57Z</time>
      </trkpt>
      <trkpt lat="43.55717" lon="3.81756">
        <ele>11.2</ele>
        <time>2021-01-09T13:30:58Z</time>
      </trkpt>
      <trkpt lat="43.55715" lon="3.81758">
        <ele>11.2</ele>
        <time>2021-01-09T13:30:59Z</time>
      </trkpt>
      <trkpt lat="43.55712" lon="3.8176">
        <ele>11.2</ele>
        <time>2021-01-09T13:31:00Z</time>
      </trkpt>
      <trkpt lat="43.5571" lon="3.81762">
        <ele>11.2</ele>
        <time>2021-01-09T13:31:01Z</time>
      </trkpt>
      <trkpt lat="43.55707" lon="3.81764">
        <ele>18</ele>
        <time>2021-01-09T13:31:02Z</time>
      </trkpt>
      <trkpt lat="43.55705" lon="3.81766">
        <ele>11.2</ele>
        <time>2021-01-09T13:31:03Z</time>
      </trkpt>
      <trkpt lat="43.55702" lon="3.81769">
        <ele>11.1</ele>
        <time>2021-01-09T13:31:04Z</time>
      </trkpt>
      <trkpt lat="43.55698" lon="3.81771">
        <ele>11</ele>
        <time>2021-01-09T13:31:05Z</time>
      </trkpt>
      <trkpt lat="43.55695" lon="3.81773">
        <ele>10.9</ele>
        <time>2021-01-09T13:31:06Z</time>
      </trkpt>
      <trkpt lat="43.55692" lon="3.81777">
        <ele>10.9</ele>
        <time>2021-01-09T13:31:07Z</time>
      </trkpt>
      <trkpt lat="43.5569" lon="3.81779">
        <ele>11.1</ele>
        <time>2021-01-09T13:31:08Z</time>
      </trkpt>
      <trkpt lat="43.55686" lon="3.81782">
        <ele>11.4</ele>
        <time>2021-01-09T13:31:09Z</time>
      </trkpt>
      <trkpt lat="43.55684" lon="3.81784">
        <ele>11.6</ele>
        <time>2021-01-09T13:31:10Z</time>
      </trkpt>
      <trkpt lat="43.55681" lon="3.81786">
        <ele>11.7</ele>
        <time>2021-01-09T13:31:11Z</time>
      </trkpt>
      <trkpt lat="43.55678" lon="3.81788">
        <ele>17</ele>
        <time>2021-01-09T13:31:12Z</time>
      </trkpt>
      <trkpt lat="43.55676" lon="3.81791">
        <ele>11.9</ele>
        <time>2021-01-09T13:31:13Z</time>
      </trkpt>
      <trkpt lat="43.55673" lon="3.81793">
        <ele>11.8</ele>
        <time>2021-01-09T13:31:14Z</time>
      </trkpt>
      <trkpt lat="43.55671" lon="3.81794">
        <ele>11.7</ele>
        <time>2021-01-09T13:31:15Z</time>
      </trkpt>
      <trkpt lat="43.55668" lon="3.81795">
        <ele>11.4</ele>
        <time>2021-01-09T13:31:16Z</time>
      </trkpt>
      <trkpt lat="43.55666" lon="3.81796">
        <ele>11.3</ele>
        <time>2021-01-09T13:31:17Z</time>
      </trkpt>
      <trkpt lat="43.55663" lon="3.81798">
        <ele>11.3</ele>
        <time>2021-01-09T13:31:18Z</time>
      </trkpt>
      <trkpt lat="43.55661" lon="3.81798">
        <ele>11.2</ele>
        <time>2021-01-09T13:31:19Z</time>
      </trkpt>
      <trkpt lat="43.55658" lon="3.81799">
        <ele>11.1</ele>
        <time>2021-01-09T13:31:20Z</time>
      </trkpt>
      <trkpt lat="43.55656" lon="3.818">
        <ele>11</ele>
        <time>2021-01-09T13:31:21Z</time>
      </trkpt>
      <trkpt lat="43.55653" lon="3.81801">
        <ele>16</ele>
        <time>2021-01-09T13:31:22Z</time>
      </trkpt>
      <trkpt lat="43.55651" lon="3.81802">
        <ele>10.8</ele>
        <time>2021-01-09T13:31:23Z</time>
      </trkpt>
      <trkpt lat="43.55648" lon="3.81803">
        <ele>10.6</ele>
        <time>2021-01-09T13:31:24Z</time>
      </trkpt>
      <trkpt lat="43.55646" lon="3.81805">
        <ele>10.5</ele>
        <time>2021-01-09T13:31:25Z</time>
      </trkpt>
      <trkpt lat="43.55643" lon="3.81807">
        <ele>10.5</ele>
        <time>2021-01-09T13:31:26Z</time>
      </trkpt>
      <trkpt lat="43.55641" lon="3.81809">
        <ele>10.6</ele>
        <time>2021-01-09T13:31:27Z</time>
      </trkpt>
      <trkpt lat="43.55639" lon="3.81812">
        <ele>10.7</ele>
        <time>2021-01-09T13:31:28Z</time>
      </trkpt>
      <trkpt lat="43.55637" lon="3.81814">
        <ele>10.8</ele>
        <time>2021-01-09T13:31:29Z</time>
      </trkpt>
      <trkpt lat="43.55635" lon="3.81817">
        <ele>11.1</ele>
        <time>2021-01-09T13:31:30Z</time>
      </trkpt>
      <trkpt lat="43.55634" lon="3.81819">
        <ele>11.2</ele>
        <time>2021-01-09T13:31:31Z</time>
      </trkpt>
      <trkpt lat="43.55632" lon="3.81821">
        <ele>16</ele>
        <time>2021-01-09T13:31:32Z</time>
      </trkpt>
      <trkpt lat="43.55629" lon="3.81824">
        <ele>11.3</ele>
        <time>2021-01-09T13:31:34Z</time>
      </trkpt>
      <trkpt lat="43.55629" lon="3.81826">
        <ele>11.4</ele>
        <time>2021-01-09T13:31:35Z</time>
      </trkpt>
      <trkpt lat="43.55627" lon="3.81829">
        <ele>11.4</ele>
        <time>2021-01-09T13:31:36Z</time>
      </trkpt>
      <trkpt lat="43.55625" lon="3.81832">
        <ele>11.4</ele>
        <time>2021-01-09T13:31:37Z</time>
      </trkpt>
      <trkpt lat="43.55624" lon="3.81834">
        <ele>11.5</ele>
        <time>2021-01-09T13:31:38Z</time>
      </trkpt>
      <trkpt lat="43.55622" lon="3.81835">
        <ele>11.5</ele>
        <time>2021-01-09T13:31:39Z</time>
      </trkpt>
      <trkpt lat="43.5562" lon="3.81837">
        <ele>11.6</ele>
        <time>2021-01-09T13:31:40Z</time>
      </trkpt>
      <trkpt lat="43.55618" lon="3.81838">
        <ele>11.5</ele>
        <time>2021-01-09T13:31:41Z</time>
      </trkpt>
      <trkpt lat="43.55616" lon="3.81839">
        <ele>16</ele>
        <time>2021-01-09T13:31:42Z</time>
      </trkpt>
      <trkpt lat="43.55613" lon="3.8184">
        <ele>11.2</ele>
        <time>2021-01-09T13:31:43Z</time>
      </trkpt>
      <trkpt lat="43.55611" lon="3.81842">
        <ele>11.2</ele>
        <time>2021-01-09T13:31:44Z</time>
      </trkpt>
      <trkpt lat="43.55609" lon="3.81843">
        <ele>11.3</ele>
        <time>2021-01-09T13:31:45Z</time>
      </trkpt>
      <trkpt lat="43.55607" lon="3.81844">
        <ele>11.3</ele>
        <time>2021-01-09T13:31:46Z</time>
      </trkpt>
      <trkpt lat="43.55604" lon="3.81846">
        <ele>11.4</ele>
        <time>2021-01-09T13:31:47Z</time>
      </trkpt>
      <trkpt lat="43.55602" lon="3.81849">
        <ele>11.5</ele>
        <time>2021-01-09T13:31:48Z</time>
      </trkpt>
      <trkpt lat="43.556" lon="3.81852">
        <ele>11.6</ele>
        <time>2021-01-09T13:31:49Z</time>
      </trkpt>
      <trkpt lat="43.55597" lon="3.81853">
        <ele>11.4</ele>
        <time>2021-01-09T13:31:50Z</time>
      </trkpt>
      <trkpt lat="43.55595" lon="3.81855">
        <ele>11.3</ele>
        <time>2021-01-09T13:31:51Z</time>
      </trkpt>
      <trkpt lat="43.55592" lon="3.81856">
        <ele>15</ele>
        <time>2021-01-09T13:31:52Z</time>
      </trkpt>
      <trkpt lat="43.5559" lon="3.81858">
        <ele>10.9</ele>
        <time>2021-01-09T13:31:53Z</time>
      </trkpt>
      <trkpt lat="43.55589" lon="3.81862">
        <ele>10.9</ele>
        <time>2021-01-09T13:31:55Z</time>
      </trkpt>
      <trkpt lat="43.55588" lon="3.81866">
        <ele>11.3</ele>
        <time>2021-01-09T13:31:57Z</time>
      </trkpt>
      <trkpt lat="43.55588" lon="3.81869">
        <ele>11.6</ele>
        <time>2021-01-09T13:31:59Z</time>
      </trkpt>
      <trkpt lat="43.5559" lon="3.8187">
        <ele>12.1</ele>
        <time>2021-01-09T13:32:01Z</time>
      </trkpt>
      <trkpt lat="43.55594" lon="3.81871">
        <ele>12.9</ele>
        <time>2021-01-09T13:32:03Z</time>
      </trkpt>
      <trkpt lat="43.55597" lon="3.8187">
        <ele>13.2</ele>
        <time>2021-01-09T13:32:05Z</time>
      </trkpt>
      <trkpt lat="43.556" lon="3.81868">
        <ele>13.4</ele>
        <time>2021-01-09T13:32:07Z</time>
      </trkpt>
      <trkpt lat="43.55602" lon="3.81867">
        <ele>13.6</ele>
        <time>2021-01-09T13:32:08Z</time>
      </trkpt>
      <trkpt lat="43.55603" lon="3.81865">
        <ele>13.5</ele>
        <time>2021-01-09T13:32:09Z</time>
      </trkpt>
      <trkpt lat="43.55607" lon="3.81863">
        <ele>13.7</ele>
        <time>2021-01-09T13:32:11Z</time>
      </trkpt>
      <trkpt lat="43.5561" lon="3.81862">
        <ele>15</ele>
        <time>2021-01-09T13:32:12Z</time>
      </trkpt>
      <trkpt lat="43.55611" lon="3.81861">
        <ele>14</ele>
        <time>2021-01-09T13:32:13Z</time>
      </trkpt>
      <trkpt lat="43.55613" lon="3.8186">
        <ele>14.2</ele>
        <time>2021-01-09T13:32:14Z</time>
      </trkpt>
      <trkpt lat="43.55616" lon="3.81858">
        <ele>14.4</ele>
        <time>2021-01-09T13:32:16Z</time>
      </trkpt>
      <trkpt lat="43.55619" lon="3.81857">
        <ele>14.7</ele>
        <time>2021-01-09T13:32:18Z</time>
      </trkpt>
      <trkpt lat="43.55622" lon="3.81855">
        <ele>14.9</ele>
        <time>2021-01-09T13:32:20Z</time>
      </trkpt>
      <trkpt lat="43.55625" lon="3.81853">
        <ele>15</ele>
        <time>2021-01-09T13:32:23Z</time>
      </trkpt>
      <trkpt lat="43.55627" lon="3.81852">
        <ele>15.2</ele>
        <time>2021-01-09T13:32:25Z</time>
      </trkpt>
      <trkpt lat="43.5563" lon="3.8185">
        <ele>15.3</ele>
        <time>2021-01-09T13:32:27Z</time>
      </trkpt>
      <trkpt lat="43.55632" lon="3.81849">
        <ele>15.4</ele>
        <time>2021-01-09T13:32:29Z</time>
      </trkpt>
      <trkpt lat="43.55635" lon="3.81847">
        <ele>15.4</ele>
        <time>2021-01-09T13:32:31Z</time>
      </trkpt>
      <trkpt lat="43.55638" lon="3.81846">
        <ele>15.6</ele>
        <time>2021-01-09T13:32:33Z</time>
      </trkpt>
      <trkpt lat="43.55641" lon="3.81845">
        <ele>16</ele>
        <time>2021-01-09T13:32:35Z</time>
      </trkpt>
      <trkpt lat="43.55644" lon="3.81843">
        <ele>16.2</ele>
        <time>2021-01-09T13:32:37Z</time>
      </trkpt>
      <trkpt lat="43.55647" lon="3.81842">
        <ele>16.6</ele>
        <time>2021-01-09T13:32:39Z</time>
      </trkpt>
      <trkpt lat="43.5565" lon="3.8184">
        <ele>16.8</ele>
        <time>2021-01-09T13:32:41Z</time>
      </trkpt>
      <trkpt lat="43.55653" lon="3.81839">
        <ele>19</ele>
        <time>2021-01-09T13:32:42Z</time>
      </trkpt>
      <trkpt lat="43.55656" lon="3.81838">
        <ele>17.7</ele>
        <time>2021-01-09T13:32:44Z</time>
      </trkpt>
      <trkpt lat="43.55659" lon="3.81836">
        <ele>17.9</ele>
        <time>2021-01-09T13:32:46Z</time>
      </trkpt>
      <trkpt lat="43.55661" lon="3.81835">
        <ele>18.1</ele>
        <time>2021-01-09T13:32:47Z</time>
      </trkpt>
      <trkpt lat="43.55663" lon="3.81834">
        <ele>18.4</ele>
        <time>2021-01-09T13:32:48Z</time>
      </trkpt>
      <trkpt lat="43.55664" lon="3.81833">
        <ele>18.3</ele>
        <time>2021-01-09T13:32:49Z</time>
      </trkpt>
      <trkpt lat="43.55666" lon="3.81832">
        <ele>18.5</ele>
        <time>2021-01-09T13:32:50Z</time>
      </trkpt>
      <trkpt lat="43.55668" lon="3.81831">
        <ele>18.7</ele>
        <time>2021-01-09T13:32:51Z</time>
      </trkpt>
      <trkpt lat="43.55669" lon="3.8183">
        <ele>18.6</ele>
        <time>2021-01-09T13:32:53Z</time>
      </trkpt>
      <trkpt lat="43.55671" lon="3.81829">
        <ele>18.7</ele>
        <time>2021-01-09T13:32:54Z</time>
      </trkpt>
      <trkpt lat="43.55673" lon="3.81828">
        <ele>18.8</ele>
        <time>2021-01-09T13:32:55Z</time>
      </trkpt>
      <trkpt lat="43.55675" lon="3.81827">
        <ele>18.9</ele>
        <time>2021-01-09T13:32:56Z</time>
      </trkpt>
      <trkpt lat="43.55676" lon="3.81826">
        <ele>18.8</ele>
        <time>2021-01-09T13:32:57Z</time>
      </trkpt>
      <trkpt lat="43.55678" lon="3.81826">
        <ele>19.2</ele>
        <time>2021-01-09T13:32:58Z</time>
      </trkpt>
      <trkpt lat="43.55681" lon="3.81824">
        <ele>19.2</ele>
        <time>2021-01-09T13:33:00Z</time>
      </trkpt>
      <trkpt lat="43.55685" lon="3.81823">
        <ele>21</ele>
        <time>2021-01-09T13:33:02Z</time>
      </trkpt>
      <trkpt lat="43.55688" lon="3.81821">
        <ele>19.7</ele>
        <time>2021-01-09T13:33:04Z</time>
      </trkpt>
      <trkpt lat="43.55691" lon="3.8182">
        <ele>20</ele>
        <time>2021-01-09T13:33:06Z</time>
      </trkpt>
      <trkpt lat="43.55695" lon="3.8182">
        <ele>20.6</ele>
        <time>2021-01-09T13:33:08Z</time>
      </trkpt>
      <trkpt lat="43.55698" lon="3.8182">
        <ele>20.6</ele>
        <time>2021-01-09T13:33:10Z</time>
      </trkpt>
      <trkpt lat="43.55702" lon="3.81821">
        <ele>22</ele>
        <time>2021-01-09T13:33:12Z</time>
      </trkpt>
      <trkpt lat="43.55705" lon="3.81821">
        <ele>20.7</ele>
        <time>2021-01-09T13:33:14Z</time>
      </trkpt>
      <trkpt lat="43.55707" lon="3.81821">
        <ele>20.7</ele>
        <time>2021-01-09T13:33:15Z</time>
      </trkpt>
      <trkpt lat="43.5571" lon="3.81823">
        <ele>21.2</ele>
        <time>2021-01-09T13:33:17Z</time>
      </trkpt>
      <trkpt lat="43.55714" lon="3.81824">
        <ele>21.4</ele>
        <time>2021-01-09T13:33:19Z</time>
      </trkpt>
      <trkpt lat="43.55716" lon="3.81825">
        <ele>21.7</ele>
        <time>2021-01-09T13:33:20Z</time>
      </trkpt>
      <trkpt lat="43.55717" lon="3.81826">
        <ele>21.9</ele>
        <time>2021-01-09T13:33:21Z</time>
      </trkpt>
      <trkpt lat="43.5572" lon="3.81828">
        <ele>24</ele>
        <time>2021-01-09T13:33:22Z</time>
      </trkpt>
      <trkpt lat="43.55723" lon="3.8183">
        <ele>23</ele>
        <time>2021-01-09T13:33:24Z</time>
      </trkpt>
      <trkpt lat="43.55726" lon="3.81833">
        <ele>23.6</ele>
        <time>2021-01-09T13:33:26Z</time>
      </trkpt>
      <trkpt lat="43.55729" lon="3.81835">
        <ele>23.8</ele>
        <time>2021-01-09T13:33:28Z</time>
      </trkpt>
      <trkpt lat="43.55731" lon="3.81837">
        <ele>24</ele>
        <time>2021-01-09T13:33:30Z</time>
      </trkpt>
      <trkpt lat="43.55734" lon="3.81839">
        <ele>24.2</ele>
        <time>2021-01-09T13:33:33Z</time>
      </trkpt>
      <trkpt lat="43.55736" lon="3.81842">
        <ele>24.6</ele>
        <time>2021-01-09T13:33:35Z</time>
      </trkpt>
      <trkpt lat="43.55739" lon="3.81844">
        <ele>24.7</ele>
        <time>2021-01-09T13:33:37Z</time>
      </trkpt>
      <trkpt lat="43.55741" lon="3.81847">
        <ele>25.1</ele>
        <time>2021-01-09T13:33:39Z</time>
      </trkpt>
      <trkpt lat="43.55744" lon="3.8185">
        <ele>25.4</ele>
        <time>2021-01-09T13:33:41Z</time>
      </trkpt>
      <trkpt lat="43.55746" lon="3.81852">
        <ele>25.6</ele>
        <time>2021-01-09T13:33:43Z</time>
      </trkpt>
      <trkpt lat="43.55749" lon="3.81854">
        <ele>25.8</ele>
        <time>2021-01-09T13:33:45Z</time>
      </trkpt>
      <trkpt lat="43.55751" lon="3.81858">
        <ele>26.4</ele>
        <time>2021-01-09T13:33:47Z</time>
      </trkpt>
      <trkpt lat="43.55753" lon="3.81861">
        <ele>26.9</ele>
        <time>2021-01-09T13:33:49Z</time>
      </trkpt>
      <trkpt lat="43.55755" lon="3.81863">
        <ele>27.1</ele>
        <time>2021-01-09T13:33:51Z</time>
      </trkpt>
      <trkpt lat="43.55758" lon="3.81866">
        <ele>27.4</ele>
        <time>2021-01-09T13:33:53Z</time>
      </trkpt>
      <trkpt lat="43.5576" lon="3.81867">
        <ele>27.5</ele>
        <time>2021-01-09T13:33:55Z</time>
      </trkpt>
      <trkpt lat="43.55763" lon="3.81869">
        <ele>27.7</ele>
        <time>2021-01-09T13:33:57Z</time>
      </trkpt>
      <trkpt lat="43.55767" lon="3.81871">
        <ele>27.8</ele>
        <time>2021-01-09T13:33:59Z</time>
      </trkpt>
      <trkpt lat="43.55768" lon="3.81872">
        <ele>27.9</ele>
        <time>2021-01-09T13:34:00Z</time>
      </trkpt>
      <trkpt lat="43.5577" lon="3.81873">
        <ele>28</ele>
        <time>2021-01-09T13:34:01Z</time>
      </trkpt>
      <trkpt lat="43.55771" lon="3.81874">
        <ele>29</ele>
        <time>2021-01-09T13:34:02Z</time>
      </trkpt>
      <trkpt lat="43.55773" lon="3.81875">
        <ele>28.2</ele>
        <time>2021-01-09T13:34:03Z</time>
      </trkpt>
      <trkpt lat="43.55775" lon="3.81876">
        <ele>28.2</ele>
        <time>2021-01-09T13:34:04Z</time>
      </trkpt>
      <trkpt lat="43.55777" lon="3.81876">
        <ele>28.2</ele>
        <time>2021-01-09T13:34:05Z</time>
      </trkpt>
      <trkpt lat="43.55779" lon="3.81877">
        <ele>28.4</ele>
        <time>2021-01-09T13:34:06Z</time>
      </trkpt>
      <trkpt lat="43.5578" lon="3.81878">
        <ele>28.6</ele>
        <time>2021-01-09T13:34:07Z</time>
      </trkpt>
      <trkpt lat="43.55784" lon="3.81879">
        <ele>29</ele>
        <time>2021-01-09T13:34:09Z</time>
      </trkpt>
      <trkpt lat="43.55787" lon="3.81881">
        <ele>29.4</ele>
        <time>2021-01-09T13:34:11Z</time>
      </trkpt>
      <trkpt lat="43.5579" lon="3.81881">
        <ele>29.6</ele>
        <time>2021-01-09T13:34:13Z</time>
      </trkpt>
      <trkpt lat="43.55793" lon="3.81882">
        <ele>29.8</ele>
        <time>2021-01-09T13:34:15Z</time>
      </trkpt>
      <trkpt lat="43.55797" lon="3.81883">
        <ele>30.1</ele>
        <time>2021-01-09T13:34:17Z</time>
      </trkpt>
      <trkpt lat="43.558" lon="3.81884">
        <ele>30.4</ele>
        <time>2021-01-09T13:34:19Z</time>
      </trkpt>
      <trkpt lat="43.55803" lon="3.81884">
        <ele>30.5</ele>
        <time>2021-01-09T13:34:21Z</time>
      </trkpt>
      <trkpt lat="43.55806" lon="3.81883">
        <ele>30.6</ele>
        <time>2021-01-09T13:34:23Z</time>
      </trkpt>
      <trkpt lat="43.55809" lon="3.81883">
        <ele>31.1</ele>
        <time>2021-01-09T13:34:25Z</time>
      </trkpt>
      <trkpt lat="43.55812" lon="3.81882">
        <ele>31.4</ele>
        <time>2021-01-09T13:34:27Z</time>
      </trkpt>
      <trkpt lat="43.55815" lon="3.8188">
        <ele>31.7</ele>
        <time>2021-01-09T13:34:29Z</time>
      </trkpt>
      <trkpt lat="43.55818" lon="3.81879">
        <ele>32.1</ele>
        <time>2021-01-09T13:34:31Z</time>
      </trkpt>
      <trkpt lat="43.55821" lon="3.81876">
        <ele>32.3</ele>
        <time>2021-01-09T13:34:33Z</time>
      </trkpt>
      <trkpt lat="43.55823" lon="3.81873">
        <ele>32.4</ele>
        <time>2021-01-09T13:34:34Z</time>
      </trkpt>
      <trkpt lat="43.55824" lon="3.8187">
        <ele>32.3</ele>
        <time>2021-01-09T13:34:35Z</time>
      </trkpt>
      <trkpt lat="43.55824" lon="3.81867">
        <ele>32.1</ele>
        <time>2021-01-09T13:34:36Z</time>
      </trkpt>
      <trkpt lat="43.55824" lon="3.81864">
        <ele>31.9</ele>
        <time>2021-01-09T13:34:37Z</time>
      </trkpt>
      <trkpt lat="43.55824" lon="3.81861">
        <ele>31.7</ele>
        <time>2021-01-09T13:34:38Z</time>
      </trkpt>
      <trkpt lat="43.55823" lon="3.81859">
        <ele>31.8</ele>
        <time>2021-01-09T13:34:39Z</time>
      </trkpt>
      <trkpt lat="43.55821" lon="3.81856">
        <ele>32</ele>
        <time>2021-01-09T13:34:40Z</time>
      </trkpt>
      <trkpt lat="43.5582" lon="3.81853">
        <ele>32.2</ele>
        <time>2021-01-09T13:34:41Z</time>
      </trkpt>
      <trkpt lat="43.55819" lon="3.8185">
        <ele>33</ele>
        <time>2021-01-09T13:34:42Z</time>
      </trkpt>
      <trkpt lat="43.55818" lon="3.81848">
        <ele>32.7</ele>
        <time>2021-01-09T13:34:43Z</time>
      </trkpt>
      <trkpt lat="43.55817" lon="3.81845">
        <ele>33</ele>
        <time>2021-01-09T13:34:44Z</time>
      </trkpt>
      <trkpt lat="43.55816" lon="3.81842">
        <ele>33.3</ele>
        <time>2021-01-09T13:34:45Z</time>
      </trkpt>
      <trkpt lat="43.55815" lon="3.8184">
        <ele>33.4</ele>
        <time>2021-01-09T13:34:46Z</time>
      </trkpt>
      <trkpt lat="43.55814" lon="3.81837">
        <ele>33.7</ele>
        <time>2021-01-09T13:34:47Z</time>
      </trkpt>
      <trkpt lat="43.55812" lon="3.81835">
        <ele>33.7</ele>
        <time>2021-01-09T13:34:48Z</time>
      </trkpt>
      <trkpt lat="43.55811" lon="3.81832">
        <ele>33.9</ele>
        <time>2021-01-09T13:34:49Z</time>
      </trkpt>
      <trkpt lat="43.5581" lon="3.8183">
        <ele>33.9</ele>
        <time>2021-01-09T13:34:50Z</time>
      </trkpt>
      <trkpt lat="43.55809" lon="3.81826">
        <ele>34</ele>
        <time>2021-01-09T13:34:52Z</time>
      </trkpt>
      <trkpt lat="43.55808" lon="3.81821">
        <ele>34.2</ele>
        <time>2021-01-09T13:34:53Z</time>
      </trkpt>
      <trkpt lat="43.55808" lon="3.81818">
        <ele>34.5</ele>
        <time>2021-01-09T13:34:54Z</time>
      </trkpt>
      <trkpt lat="43.55808" lon="3.81815">
        <ele>34.7</ele>
        <time>2021-01-09T13:34:55Z</time>
      </trkpt>
      <trkpt lat="43.55807" lon="3.81809">
        <ele>35</ele>
        <time>2021-01-09T13:34:57Z</time>
      </trkpt>
      <trkpt lat="43.55807" lon="3.81806">
        <ele>35.2</ele>
        <time>2021-01-09T13:34:58Z</time>
      </trkpt>
      <trkpt lat="43.55807" lon="3.81803">
        <ele>35.4</ele>
        <time>2021-01-09T13:34:59Z</time>
      </trkpt>
      <trkpt lat="43.55807" lon="3.818">
        <ele>35.6</ele>
        <time>2021-01-09T13:35:00Z</time>
      </trkpt>
      <trkpt lat="43.55806" lon="3.81797">
        <ele>35.7</ele>
        <time>2021-01-09T13:35:01Z</time>
      </trkpt>
      <trkpt lat="43.55806" lon="3.81795">
        <ele>35.8</ele>
        <time>2021-01-09T13:35:03Z</time>
      </trkpt>
      <trkpt lat="43.55807" lon="3.81792">
        <ele>36.2</ele>
        <time>2021-01-09T13:35:04Z</time>
      </trkpt>
      <trkpt lat="43.55808" lon="3.8179">
        <ele>36.4</ele>
        <time>2021-01-09T13:35:05Z</time>
      </trkpt>
      <trkpt lat="43.55809" lon="3.81788">
        <ele>36.7</ele>
        <time>2021-01-09T13:35:06Z</time>
      </trkpt>
      <trkpt lat="43.55811" lon="3.81788">
        <ele>36.9</ele>
        <time>2021-01-09T13:35:07Z</time>
      </trkpt>
      <trkpt lat="43.55814" lon="3.81789">
        <ele>37.2</ele>
        <time>2021-01-09T13:35:08Z</time>
      </trkpt>
      <trkpt lat="43.55815" lon="3.81791">
        <ele>37.2</ele>
        <time>2021-01-09T13:35:09Z</time>
      </trkpt>
      <trkpt lat="43.55817" lon="3.81793">
        <ele>37.4</ele>
        <time>2021-01-09T13:35:10Z</time>
      </trkpt>
      <trkpt lat="43.55818" lon="3.81795">
        <ele>37.4</ele>
        <time>2021-01-09T13:35:11Z</time>
      </trkpt>
      <trkpt lat="43.55819" lon="3.81797">
        <ele>38</ele>
        <time>2021-01-09T13:35:12Z</time>
      </trkpt>
      <trkpt lat="43.55821" lon="3.818">
        <ele>37.5</ele>
        <time>2021-01-09T13:35:13Z</time>
      </trkpt>
      <trkpt lat="43.55823" lon="3.81802">
        <ele>37.7</ele>
        <time>2021-01-09T13:35:14Z</time>
      </trkpt>
      <trkpt lat="43.55824" lon="3.81804">
        <ele>37.7</ele>
        <time>2021-01-09T13:35:15Z</time>
      </trkpt>
      <trkpt lat="43.55826" lon="3.81807">
        <ele>37.8</ele>
        <time>2021-01-09T13:35:16Z</time>
      </trkpt>
      <trkpt lat="43.55828" lon="3.81809">
        <ele>38</ele>
        <time>2021-01-09T13:35:17Z</time>
      </trkpt>
      <trkpt lat="43.55829" lon="3.81811">
        <ele>38</ele>
        <time>2021-01-09T13:35:18Z</time>
      </trkpt>
      <trkpt lat="43.55831" lon="3.81813">
        <ele>38.1</ele>
        <time>2021-01-09T13:35:19Z</time>
      </trkpt>
      <trkpt lat="43.55833" lon="3.81814">
        <ele>38.3</ele>
        <time>2021-01-09T13:35:20Z</time>
      </trkpt>
      <trkpt lat="43.55835" lon="3.81814">
        <ele>38.5</ele>
        <time>2021-01-09T13:35:21Z</time>
      </trkpt>
      <trkpt lat="43.55839" lon="3.81815">
        <ele>38</ele>
        <time>2021-01-09T13:35:22Z</time>
      </trkpt>
      <trkpt lat="43.55842" lon="3.81813">
        <ele>38.9</ele>
        <time>2021-01-09T13:35:24Z</time>
      </trkpt>
      <trkpt lat="43.55843" lon="3.81812">
        <ele>39</ele>
        <time>2021-01-09T13:35:25Z</time>
      </trkpt>
      <trkpt lat="43.55847" lon="3.8181">
        <ele>39.3</ele>
        <time>2021-01-09T13:35:27Z</time>
      </trkpt>
      <trkpt lat="43.55849" lon="3.81809">
        <ele>39.5</ele>
        <time>2021-01-09T13:35:28Z</time>
      </trkpt>
      <trkpt lat="43.5585" lon="3.81808">
        <ele>39.5</ele>
        <time>2021-01-09T13:35:29Z</time>
      </trkpt>
      <trkpt lat="43.55852" lon="3.81808">
        <ele>39.6</ele>
        <time>2021-01-09T13:35:30Z</time>
      </trkpt>
      <trkpt lat="43.55856" lon="3.81808">
        <ele>39.8</ele>
        <time>2021-01-09T13:35:33Z</time>
      </trkpt>
      <trkpt lat="43.55858" lon="3.81808">
        <ele>39.9</ele>
        <time>2021-01-09T13:35:34Z</time>
      </trkpt>
      <trkpt lat="43.55861" lon="3.81807">
        <ele>40</ele>
        <time>2021-01-09T13:35:36Z</time>
      </trkpt>
      <trkpt lat="43.55864" lon="3.81806">
        <ele>40.2</ele>
        <time>2021-01-09T13:35:38Z</time>
      </trkpt>
      <trkpt lat="43.55868" lon="3.81805">
        <ele>40.5</ele>
        <time>2021-01-09T13:35:40Z</time>
      </trkpt>
      <trkpt lat="43.55869" lon="3.81804">
        <ele>40.7</ele>
        <time>2021-01-09T13:35:41Z</time>
      </trkpt>
      <trkpt lat="43.55872" lon="3.81801">
        <ele>41</ele>
        <time>2021-01-09T13:35:43Z</time>
      </trkpt>
      <trkpt lat="43.55873" lon="3.818">
        <ele>41.2</ele>
        <time>2021-01-09T13:35:44Z</time>
      </trkpt>
      <trkpt lat="43.55875" lon="3.81797">
        <ele>41.5</ele>
        <time>2021-01-09T13:35:45Z</time>
      </trkpt>
      <trkpt lat="43.55876" lon="3.81795">
        <ele>41.6</ele>
        <time>2021-01-09T13:35:46Z</time>
      </trkpt>
      <trkpt lat="43.55877" lon="3.81793">
        <ele>41.8</ele>
        <time>2021-01-09T13:35:47Z</time>
      </trkpt>
      <trkpt lat="43.55878" lon="3.8179">
        <ele>42</ele>
        <time>2021-01-09T13:35:48Z</time>
      </trkpt>
      <trkpt lat="43.55879" lon="3.81788">
        <ele>42.1</ele>
        <time>2021-01-09T13:35:49Z</time>
      </trkpt>
      <trkpt lat="43.5588" lon="3.81786">
        <ele>42.3</ele>
        <time>2021-01-09T13:35:50Z</time>
      </trkpt>
      <trkpt lat="43.55881" lon="3.81781">
        <ele>42</ele>
        <time>2021-01-09T13:35:52Z</time>
      </trkpt>
      <trkpt lat="43.55883" lon="3.81775">
        <ele>42.9</ele>
        <time>2021-01-09T13:35:54Z</time>
      </trkpt>
      <trkpt lat="43.55884" lon="3.81773">
        <ele>43</ele>
        <time>2021-01-09T13:35:56Z</time>
      </trkpt>
      <trkpt lat="43.55885" lon="3.81771">
        <ele>43.1</ele>
        <time>2021-01-09T13:35:57Z</time>
      </trkpt>
      <trkpt lat="43.55887" lon="3.81769">
        <ele>43.2</ele>
        <time>2021-01-09T13:35:58Z</time>
      </trkpt>
      <trkpt lat="43.55888" lon="3.81767">
        <ele>43.3</ele>
        <time>2021-01-09T13:35:59Z</time>
      </trkpt>
      <trkpt lat="43.55891" lon="3.81764">
        <ele>43.7</ele>
        <time>2021-01-09T13:36:00Z</time>
      </trkpt>
      <trkpt lat="43.55892" lon="3.81762">
        <ele>43</ele>
        <time>2021-01-09T13:36:02Z</time>
      </trkpt>
      <trkpt lat="43.55894" lon="3.8176">
        <ele>44.1</ele>
        <time>2021-01-09T13:36:03Z</time>
      </trkpt>
      <trkpt lat="43.55895" lon="3.81759">
        <ele>44.2</ele>
        <time>2021-01-09T13:36:04Z</time>
      </trkpt>
      <trkpt lat="43.55897" lon="3.81757">
        <ele>44.4</ele>
        <time>2021-01-09T13:36:05Z</time>
      </trkpt>
      <trkpt lat="43.559" lon="3.81754">
        <ele>44.7</ele>
        <time>2021-01-09T13:36:07Z</time>
      </trkpt>
      <trkpt lat="43.55902" lon="3.81751">
        <ele>44.9</ele>
        <time>2021-01-09T13:36:09Z</time>
      </trkpt>
      <trkpt lat="43.55903" lon="3.81749">
        <ele>45</ele>
        <time>2021-01-09T13:36:10Z</time>
      </trkpt>
      <trkpt lat="43.55904" lon="3.81746">
        <ele>45.2</ele>
        <time>2021-01-09T13:36:11Z</time>
      </trkpt>
      <trkpt lat="43.55905" lon="3.81744">
        <ele>44</ele>
        <time>2021-01-09T13:36:12Z</time>
      </trkpt>
      <trkpt lat="43.55906" lon="3.81741">
        <ele>45.4</ele>
        <time>2021-01-09T13:36:13Z</time>
      </trkpt>
      <trkpt lat="43.55907" lon="3.81738">
        <ele>45.6</ele>
        <time>2021-01-09T13:36:14Z</time>
      </trkpt>
      <trkpt lat="43.55908" lon="3.81736">
        <ele>45.7</ele>
        <time>2021-01-09T13:36:15Z</time>
      </trkpt>
      <trkpt lat="43.55909" lon="3.81734">
        <ele>45.9</ele>
        <time>2021-01-09T13:36:16Z</time>
      </trkpt>
      <trkpt lat="43.55911" lon="3.81732">
        <ele>46.1</ele>
        <time>2021-01-09T13:36:17Z</time>
      </trkpt>
      <trkpt lat="43.55913" lon="3.81731">
        <ele>46.3</ele>
        <time>2021-01-09T13:36:18Z</time>
      </trkpt>
      <trkpt lat="43.55914" lon="3.8173">
        <ele>46.5</ele>
        <time>2021-01-09T13:36:19Z</time>
      </trkpt>
      <trkpt lat="43.55916" lon="3.81729">
        <ele>46.7</ele>
        <time>2021-01-09T13:36:20Z</time>
      </trkpt>
      <trkpt lat="43.55918" lon="3.81728">
        <ele>46.9</ele>
        <time>2021-01-09T13:36:21Z</time>
      </trkpt>
      <trkpt lat="43.55922" lon="3.81727">
        <ele>46</ele>
        <time>2021-01-09T13:36:22Z</time>
      </trkpt>
      <trkpt lat="43.55924" lon="3.81726">
        <ele>47.4</ele>
        <time>2021-01-09T13:36:23Z</time>
      </trkpt>
      <trkpt lat="43.55926" lon="3.81726">
        <ele>47.5</ele>
        <time>2021-01-09T13:36:24Z</time>
      </trkpt>
      <trkpt lat="43.55928" lon="3.81725">
        <ele>47.7</ele>
        <time>2021-01-09T13:36:25Z</time>
      </trkpt>
      <trkpt lat="43.5593" lon="3.81724">
        <ele>47.9</ele>
        <time>2021-01-09T13:36:26Z</time>
      </trkpt>
      <trkpt lat="43.55932" lon="3.81723">
        <ele>48.1</ele>
        <time>2021-01-09T13:36:27Z</time>
      </trkpt>
      <trkpt lat="43.55933" lon="3.81721">
        <ele>48.1</ele>
        <time>2021-01-09T13:36:28Z</time>
      </trkpt>
      <trkpt lat="43.55935" lon="3.81719">
        <ele>48.2</ele>
        <time>2021-01-09T13:36:29Z</time>
      </trkpt>
      <trkpt lat="43.55936" lon="3.81718">
        <ele>48.2</ele>
        <time>2021-01-09T13:36:30Z</time>
      </trkpt>
      <trkpt lat="43.5594" lon="3.81716">
        <ele>48</ele>
        <time>2021-01-09T13:36:32Z</time>
      </trkpt>
      <trkpt lat="43.55942" lon="3.81716">
        <ele>48.6</ele>
        <time>2021-01-09T13:36:33Z</time>
      </trkpt>
      <trkpt lat="43.55944" lon="3.81716">
        <ele>48.7</ele>
        <time>2021-01-09T13:36:34Z</time>
      </trkpt>
      <trkpt lat="43.55946" lon="3.81717">
        <ele>48.9</ele>
        <time>2021-01-09T13:36:35Z</time>
      </trkpt>
      <trkpt lat="43.55948" lon="3.81718">
        <ele>49</ele>
        <time>2021-01-09T13:36:36Z</time>
      </trkpt>
      <trkpt lat="43.5595" lon="3.81719">
        <ele>49.1</ele>
        <time>2021-01-09T13:36:37Z</time>
      </trkpt>
      <trkpt lat="43.55952" lon="3.8172">
        <ele>49.2</ele>
        <time>2021-01-09T13:36:38Z</time>
      </trkpt>
      <trkpt lat="43.55954" lon="3.81721">
        <ele>49.3</ele>
        <time>2021-01-09T13:36:39Z</time>
      </trkpt>
      <trkpt lat="43.55956" lon="3.81722">
        <ele>49.4</ele>
        <time>2021-01-09T13:36:40Z</time>
      </trkpt>
      <trkpt lat="43.55958" lon="3.81723">
        <ele>50</ele>
        <time>2021-01-09T13:36:42Z</time>
      </trkpt>
      <trkpt lat="43.5596" lon="3.81724">
        <ele>49.5</ele>
        <time>2021-01-09T13:36:43Z</time>
      </trkpt>
      <trkpt lat="43.55961" lon="3.81725">
        <ele>49.6</ele>
        <time>2021-01-09T13:36:44Z</time>
      </trkpt>
      <trkpt lat="43.55963" lon="3.81727">
        <ele>49.6</ele>
        <time>2021-01-09T13:36:45Z</time>
      </trkpt>
      <trkpt lat="43.55965" lon="3.81728">
        <ele>49.7</ele>
        <time>2021-01-09T13:36:46Z</time>
      </trkpt>
      <trkpt lat="43.55967" lon="3.81729">
        <ele>49.8</ele>
        <time>2021-01-09T13:36:47Z</time>
      </trkpt>
      <trkpt lat="43.55969" lon="3.8173">
        <ele>49.9</ele>
        <time>2021-01-09T13:36:48Z</time>
      </trkpt>
      <trkpt lat="43.5597" lon="3.81732">
        <ele>49.9</ele>
        <time>2021-01-09T13:36:49Z</time>
      </trkpt>
      <trkpt lat="43.55972" lon="3.81734">
        <ele>50</ele>
        <time>2021-01-09T13:36:50Z</time>
      </trkpt>
      <trkpt lat="43.55973" lon="3.81735">
        <ele>50</ele>
        <time>2021-01-09T13:36:51Z</time>
      </trkpt>
      <trkpt lat="43.55975" lon="3.81736">
        <ele>50</ele>
        <time>2021-01-09T13:36:52Z</time>
      </trkpt>
      <trkpt lat="43.55977" lon="3.81737">
        <ele>50.2</ele>
        <time>2021-01-09T13:36:53Z</time>
      </trkpt>
      <trkpt lat="43.55979" lon="3.81739">
        <ele>50.2</ele>
        <time>2021-01-09T13:36:54Z</time>
      </trkpt>
      <trkpt lat="43.55981" lon="3.8174">
        <ele>50.2</ele>
        <time>2021-01-09T13:36:55Z</time>
      </trkpt>
      <trkpt lat="43.55983" lon="3.81741">
        <ele>50.3</ele>
        <time>2021-01-09T13:36:56Z</time>
      </trkpt>
      <trkpt lat="43.55985" lon="3.81742">
        <ele>50.3</ele>
        <time>2021-01-09T13:36:57Z</time>
      </trkpt>
      <trkpt lat="43.55987" lon="3.81744">
        <ele>50.2</ele>
        <time>2021-01-09T13:36:58Z</time>
      </trkpt>
      <trkpt lat="43.55988" lon="3.81745">
        <ele>50.2</ele>
        <time>2021-01-09T13:36:59Z</time>
      </trkpt>
      <trkpt lat="43.5599" lon="3.81747">
        <ele>50.1</ele>
        <time>2021-01-09T13:37:00Z</time>
      </trkpt>
      <trkpt lat="43.55992" lon="3.81748">
        <ele>50.1</ele>
        <time>2021-01-09T13:37:01Z</time>
      </trkpt>
      <trkpt lat="43.55994" lon="3.8175">
        <ele>51</ele>
        <time>2021-01-09T13:37:02Z</time>
      </trkpt>
      <trkpt lat="43.55996" lon="3.81752">
        <ele>49.9</ele>
        <time>2021-01-09T13:37:03Z</time>
      </trkpt>
      <trkpt lat="43.55997" lon="3.81753">
        <ele>49.9</ele>
        <time>2021-01-09T13:37:04Z</time>
      </trkpt>
      <trkpt lat="43.56" lon="3.81756">
        <ele>49.8</ele>
        <time>2021-01-09T13:37:06Z</time>
      </trkpt>
      <trkpt lat="43.55997" lon="3.81769">
        <ele>51</ele>
        <time>2021-01-09T13:37:30Z</time>
      </trkpt>
      <trkpt lat="43.55995" lon="3.81773">
        <ele>49</ele>
        <time>2021-01-09T13:37:31Z</time>
      </trkpt>
      <trkpt lat="43.55993" lon="3.81777">
        <ele>48.8</ele>
        <time>2021-01-09T13:37:32Z</time>
      </trkpt>
      <trkpt lat="43.55991" lon="3.81781">
        <ele>48.6</ele>
        <time>2021-01-09T13:37:33Z</time>
      </trkpt>
      <trkpt lat="43.5599" lon="3.81786">
        <ele>48.5</ele>
        <time>2021-01-09T13:37:34Z</time>
      </trkpt>
      <trkpt lat="43.55989" lon="3.81792">
        <ele>48.4</ele>
        <time>2021-01-09T13:37:35Z</time>
      </trkpt>
      <trkpt lat="43.55989" lon="3.81797">
        <ele>48.3</ele>
        <time>2021-01-09T13:37:36Z</time>
      </trkpt>
      <trkpt lat="43.55988" lon="3.81804">
        <ele>48.2</ele>
        <time>2021-01-09T13:37:37Z</time>
      </trkpt>
      <trkpt lat="43.55987" lon="3.8181">
        <ele>47.8</ele>
        <time>2021-01-09T13:37:38Z</time>
      </trkpt>
      <trkpt lat="43.55985" lon="3.81816">
        <ele>47.4</ele>
        <time>2021-01-09T13:37:39Z</time>
      </trkpt>
      <trkpt lat="43.55983" lon="3.81822">
        <ele>50</ele>
        <time>2021-01-09T13:37:40Z</time>
      </trkpt>
      <trkpt lat="43.55981" lon="3.81827">
        <ele>46.6</ele>
        <time>2021-01-09T13:37:41Z</time>
      </trkpt>
      <trkpt lat="43.55978" lon="3.81833">
        <ele>46.2</ele>
        <time>2021-01-09T13:37:42Z</time>
      </trkpt>
      <trkpt lat="43.55975" lon="3.81838">
        <ele>46.1</ele>
        <time>2021-01-09T13:37:43Z</time>
      </trkpt>
      <trkpt lat="43.55971" lon="3.81843">
        <ele>46</ele>
        <time>2021-01-09T13:37:44Z</time>
      </trkpt>
      <trkpt lat="43.55968" lon="3.81846">
        <ele>45.8</ele>
        <time>2021-01-09T13:37:45Z</time>
      </trkpt>
      <trkpt lat="43.55964" lon="3.8185">
        <ele>45.7</ele>
        <time>2021-01-09T13:37:46Z</time>
      </trkpt>
      <trkpt lat="43.55961" lon="3.81854">
        <ele>45.6</ele>
        <time>2021-01-09T13:37:47Z</time>
      </trkpt>
      <trkpt lat="43.55957" lon="3.81858">
        <ele>45.5</ele>
        <time>2021-01-09T13:37:48Z</time>
      </trkpt>
      <trkpt lat="43.55954" lon="3.81863">
        <ele>45.3</ele>
        <time>2021-01-09T13:37:49Z</time>
      </trkpt>
      <trkpt lat="43.55949" lon="3.81874">
        <ele>50</ele>
        <time>2021-01-09T13:37:50Z</time>
      </trkpt>
      <trkpt lat="43.55946" lon="3.81879">
        <ele>44.4</ele>
        <time>2021-01-09T13:37:51Z</time>
      </trkpt>
      <trkpt lat="43.55943" lon="3.81884">
        <ele>44.1</ele>
        <time>2021-01-09T13:37:52Z</time>
      </trkpt>
      <trkpt lat="43.5594" lon="3.81889">
        <ele>43.7</ele>
        <time>2021-01-09T13:37:53Z</time>
      </trkpt>
      <trkpt lat="43.55937" lon="3.81895">
        <ele>43.3</ele>
        <time>2021-01-09T13:37:54Z</time>
      </trkpt>
      <trkpt lat="43.55934" lon="3.81901">
        <ele>43</ele>
        <time>2021-01-09T13:37:55Z</time>
      </trkpt>
      <trkpt lat="43.55933" lon="3.81908">
        <ele>42.8</ele>
        <time>2021-01-09T13:37:56Z</time>
      </trkpt>
      <trkpt lat="43.55932" lon="3.81915">
        <ele>42.6</ele>
        <time>2021-01-09T13:37:57Z</time>
      </trkpt>
      <trkpt lat="43.55932" lon="3.81922">
        <ele>42.4</ele>
        <time>2021-01-09T13:37:58Z</time>
      </trkpt>
      <trkpt lat="43.55933" lon="3.81928">
        <ele>42.3</ele>
        <time>2021-01-09T13:37:59Z</time>
      </trkpt>
      <trkpt lat="43.55936" lon="3.81933">
        <ele>42.3</ele>
        <time>2021-01-09T13:38:01Z</time>
      </trkpt>
      <trkpt lat="43.55938" lon="3.81938">
        <ele>42.2</ele>
        <time>2021-01-09T13:38:02Z</time>
      </trkpt>
      <trkpt lat="43.5594" lon="3.81942">
        <ele>42.1</ele>
        <time>2021-01-09T13:38:03Z</time>
      </trkpt>
      <trkpt lat="43.55942" lon="3.81945">
        <ele>42</ele>
        <time>2021-01-09T13:38:04Z</time>
      </trkpt>
      <trkpt lat="43.55944" lon="3.81949">
        <ele>42.2</ele>
        <time>2021-01-09T13:38:05Z</time>
      </trkpt>
      <trkpt lat="43.55947" lon="3.81952">
        <ele>42.3</ele>
        <time>2021-01-09T13:38:06Z</time>
      </trkpt>
      <trkpt lat="43.55949" lon="3.81956">
        <ele>42.4</ele>
        <time>2021-01-09T13:38:07Z</time>
      </trkpt>
      <trkpt lat="43.55951" lon="3.8196">
        <ele>42.5</ele>
        <time>2021-01-09T13:38:08Z</time>
      </trkpt>
      <trkpt lat="43.55954" lon="3.81963">
        <ele>42.6</ele>
        <time>2021-01-09T13:38:09Z</time>
      </trkpt>
      <trkpt lat="43.55961" lon="3.81967">
        <ele>47</ele>
        <time>2021-01-09T13:38:10Z</time>
      </trkpt>
      <trkpt lat="43.55966" lon="3.81969">
        <ele>42.3</ele>
        <time>2021-01-09T13:38:11Z</time>
      </trkpt>
      <trkpt lat="43.5597" lon="3.81971">
        <ele>42.1</ele>
        <time>2021-01-09T13:38:12Z</time>
      </trkpt>
      <trkpt lat="43.55973" lon="3.81973">
        <ele>42</ele>
        <time>2021-01-09T13:38:13Z</time>
      </trkpt>
      <trkpt lat="43.55977" lon="3.81975">
        <ele>42</ele>
        <time>2021-01-09T13:38:14Z</time>
      </trkpt>
      <trkpt lat="43.55981" lon="3.81978">
        <ele>41.9</ele>
        <time>2021-01-09T13:38:15Z</time>
      </trkpt>
      <trkpt lat="43.55989" lon="3.81985">
        <ele>41.7</ele>
        <time>2021-01-09T13:38:17Z</time>
      </trkpt>
      <trkpt lat="43.55992" lon="3.81988">
        <ele>41.6</ele>
        <time>2021-01-09T13:38:18Z</time>
      </trkpt>
      <trkpt lat="43.55995" lon="3.81991">
        <ele>41.4</ele>
        <time>2021-01-09T13:38:19Z</time>
      </trkpt>
      <trkpt lat="43.55998" lon="3.81994">
        <ele>41.3</ele>
        <time>2021-01-09T13:38:21Z</time>
      </trkpt>
      <trkpt lat="43.56001" lon="3.81997">
        <ele>41.1</ele>
        <time>2021-01-09T13:38:22Z</time>
      </trkpt>
      <trkpt lat="43.56004" lon="3.82">
        <ele>40.9</ele>
        <time>2021-01-09T13:38:23Z</time>
      </trkpt>
      <trkpt lat="43.56008" lon="3.82003">
        <ele>40.6</ele>
        <time>2021-01-09T13:38:24Z</time>
      </trkpt>
      <trkpt lat="43.56011" lon="3.82006">
        <ele>40.4</ele>
        <time>2021-01-09T13:38:25Z</time>
      </trkpt>
      <trkpt lat="43.56015" lon="3.82008">
        <ele>40.2</ele>
        <time>2021-01-09T13:38:26Z</time>
      </trkpt>
      <trkpt lat="43.56019" lon="3.8201">
        <ele>40</ele>
        <time>2021-01-09T13:38:27Z</time>
      </trkpt>
      <trkpt lat="43.56023" lon="3.82012">
        <ele>39.7</ele>
        <time>2021-01-09T13:38:28Z</time>
      </trkpt>
      <trkpt lat="43.56027" lon="3.82014">
        <ele>39.5</ele>
        <time>2021-01-09T13:38:29Z</time>
      </trkpt>
      <trkpt lat="43.5603" lon="3.82016">
        <ele>43</ele>
        <time>2021-01-09T13:38:30Z</time>
      </trkpt>
      <trkpt lat="43.56034" lon="3.82018">
        <ele>39.1</ele>
        <time>2021-01-09T13:38:31Z</time>
      </trkpt>
      <trkpt lat="43.56038" lon="3.8202">
        <ele>38.9</ele>
        <time>2021-01-09T13:38:32Z</time>
      </trkpt>
      <trkpt lat="43.56042" lon="3.82023">
        <ele>38.7</ele>
        <time>2021-01-09T13:38:33Z</time>
      </trkpt>
      <trkpt lat="43.56046" lon="3.82025">
        <ele>38.4</ele>
        <time>2021-01-09T13:38:34Z</time>
      </trkpt>
      <trkpt lat="43.56049" lon="3.82028">
        <ele>38.2</ele>
        <time>2021-01-09T13:38:35Z</time>
      </trkpt>
      <trkpt lat="43.56053" lon="3.82031">
        <ele>38.1</ele>
        <time>2021-01-09T13:38:36Z</time>
      </trkpt>
      <trkpt lat="43.56057" lon="3.82034">
        <ele>37.9</ele>
        <time>2021-01-09T13:38:37Z</time>
      </trkpt>
      <trkpt lat="43.56061" lon="3.82037">
        <ele>37.7</ele>
        <time>2021-01-09T13:38:38Z</time>
      </trkpt>
      <trkpt lat="43.56065" lon="3.8204">
        <ele>37.5</ele>
        <time>2021-01-09T13:38:39Z</time>
      </trkpt>
      <trkpt lat="43.56068" lon="3.82043">
        <ele>42</ele>
        <time>2021-01-09T13:38:40Z</time>
      </trkpt>
      <trkpt lat="43.56072" lon="3.82045">
        <ele>37.2</ele>
        <time>2021-01-09T13:38:41Z</time>
      </trkpt>
      <trkpt lat="43.56075" lon="3.82048">
        <ele>37.1</ele>
        <time>2021-01-09T13:38:42Z</time>
      </trkpt>
      <trkpt lat="43.56078" lon="3.8205">
        <ele>37</ele>
        <time>2021-01-09T13:38:43Z</time>
      </trkpt>
      <trkpt lat="43.56081" lon="3.82053">
        <ele>37</ele>
        <time>2021-01-09T13:38:44Z</time>
      </trkpt>
      <trkpt lat="43.56085" lon="3.82055">
        <ele>36.9</ele>
        <time>2021-01-09T13:38:45Z</time>
      </trkpt>
      <trkpt lat="43.56088" lon="3.82057">
        <ele>36.7</ele>
        <time>2021-01-09T13:38:46Z</time>
      </trkpt>
      <trkpt lat="43.56092" lon="3.82059">
        <ele>36.4</ele>
        <time>2021-01-09T13:38:47Z</time>
      </trkpt>
      <trkpt lat="43.56096" lon="3.82062">
        <ele>36.1</ele>
        <time>2021-01-09T13:38:48Z</time>
      </trkpt>
      <trkpt lat="43.56099" lon="3.82065">
        <ele>35.9</ele>
        <time>2021-01-09T13:38:49Z</time>
      </trkpt>
      <trkpt lat="43.56103" lon="3.82067">
        <ele>40</ele>
        <time>2021-01-09T13:38:50Z</time>
      </trkpt>
      <trkpt lat="43.56106" lon="3.8207">
        <ele>35.4</ele>
        <time>2021-01-09T13:38:51Z</time>
      </trkpt>
      <trkpt lat="43.5611" lon="3.82073">
        <ele>35.1</ele>
        <time>2021-01-09T13:38:52Z</time>
      </trkpt>
      <trkpt lat="43.56115" lon="3.82075">
        <ele>34.7</ele>
        <time>2021-01-09T13:38:53Z</time>
      </trkpt>
      <trkpt lat="43.56119" lon="3.82078">
        <ele>34.4</ele>
        <time>2021-01-09T13:38:54Z</time>
      </trkpt>
      <trkpt lat="43.56123" lon="3.8208">
        <ele>34.1</ele>
        <time>2021-01-09T13:38:55Z</time>
      </trkpt>
      <trkpt lat="43.56128" lon="3.82082">
        <ele>33.8</ele>
        <time>2021-01-09T13:38:56Z</time>
      </trkpt>
      <trkpt lat="43.56133" lon="3.82084">
        <ele>33.4</ele>
        <time>2021-01-09T13:38:57Z</time>
      </trkpt>
      <trkpt lat="43.56137" lon="3.82086">
        <ele>33.1</ele>
        <time>2021-01-09T13:38:58Z</time>
      </trkpt>
      <trkpt lat="43.56142" lon="3.82087">
        <ele>32.8</ele>
        <time>2021-01-09T13:38:59Z</time>
      </trkpt>
      <trkpt lat="43.56147" lon="3.82088">
        <ele>39</ele>
        <time>2021-01-09T13:39:00Z</time>
      </trkpt>
      <trkpt lat="43.56151" lon="3.82088">
        <ele>32.1</ele>
        <time>2021-01-09T13:39:01Z</time>
      </trkpt>
      <trkpt lat="43.56156" lon="3.82089">
        <ele>31.8</ele>
        <time>2021-01-09T13:39:02Z</time>
      </trkpt>
      <trkpt lat="43.5616" lon="3.82089">
        <ele>31.5</ele>
        <time>2021-01-09T13:39:03Z</time>
      </trkpt>
      <trkpt lat="43.56166" lon="3.8209">
        <ele>31</ele>
        <time>2021-01-09T13:39:04Z</time>
      </trkpt>
      <trkpt lat="43.5617" lon="3.82092">
        <ele>31</ele>
        <time>2021-01-09T13:39:05Z</time>
      </trkpt>
      <trkpt lat="43.56174" lon="3.82095">
        <ele>30.9</ele>
        <time>2021-01-09T13:39:06Z</time>
      </trkpt>
      <trkpt lat="43.56178" lon="3.82098">
        <ele>30.8</ele>
        <time>2021-01-09T13:39:07Z</time>
      </trkpt>
      <trkpt lat="43.56181" lon="3.82102">
        <ele>30.7</ele>
        <time>2021-01-09T13:39:08Z</time>
      </trkpt>
      <trkpt lat="43.56182" lon="3.82107">
        <ele>30.5</ele>
        <time>2021-01-09T13:39:09Z</time>
      </trkpt>
      <trkpt lat="43.56182" lon="3.82112">
        <ele>38</ele>
        <time>2021-01-09T13:39:10Z</time>
      </trkpt>
      <trkpt lat="43.56181" lon="3.82118">
        <ele>30.4</ele>
        <time>2021-01-09T13:39:11Z</time>
      </trkpt>
      <trkpt lat="43.56179" lon="3.82124">
        <ele>30.3</ele>
        <time>2021-01-09T13:39:12Z</time>
      </trkpt>
      <trkpt lat="43.56177" lon="3.8213">
        <ele>30.4</ele>
        <time>2021-01-09T13:39:13Z</time>
      </trkpt>
      <trkpt lat="43.56175" lon="3.82135">
        <ele>30.4</ele>
        <time>2021-01-09T13:39:14Z</time>
      </trkpt>
      <trkpt lat="43.56173" lon="3.8214">
        <ele>30.5</ele>
        <time>2021-01-09T13:39:15Z</time>
      </trkpt>
      <trkpt lat="43.56172" lon="3.82146">
        <ele>30.6</ele>
        <time>2021-01-09T13:39:16Z</time>
      </trkpt>
      <trkpt lat="43.56171" lon="3.82152">
        <ele>30.7</ele>
        <time>2021-01-09T13:39:17Z</time>
      </trkpt>
      <trkpt lat="43.56169" lon="3.82157">
        <ele>30.8</ele>
        <time>2021-01-09T13:39:18Z</time>
      </trkpt>
      <trkpt lat="43.56168" lon="3.82162">
        <ele>30.9</ele>
        <time>2021-01-09T13:39:19Z</time>
      </trkpt>
      <trkpt lat="43.56166" lon="3.82168">
        <ele>37</ele>
        <time>2021-01-09T13:39:20Z</time>
      </trkpt>
      <trkpt lat="43.56164" lon="3.82173">
        <ele>31.2</ele>
        <time>2021-01-09T13:39:21Z</time>
      </trkpt>
      <trkpt lat="43.56162" lon="3.82179">
        <ele>31.3</ele>
        <time>2021-01-09T13:39:22Z</time>
      </trkpt>
      <trkpt lat="43.5616" lon="3.82184">
        <ele>31.5</ele>
        <time>2021-01-09T13:39:23Z</time>
      </trkpt>
      <trkpt lat="43.56157" lon="3.8219">
        <ele>31.7</ele>
        <time>2021-01-09T13:39:24Z</time>
      </trkpt>
      <trkpt lat="43.56155" lon="3.82195">
        <ele>31.8</ele>
        <time>2021-01-09T13:39:25Z</time>
      </trkpt>
      <trkpt lat="43.56153" lon="3.822">
        <ele>31.8</ele>
        <time>2021-01-09T13:39:26Z</time>
      </trkpt>
      <trkpt lat="43.56151" lon="3.82206">
        <ele>31.7</ele>
        <time>2021-01-09T13:39:27Z</time>
      </trkpt>
      <trkpt lat="43.56149" lon="3.82211">
        <ele>31.7</ele>
        <time>2021-01-09T13:39:28Z</time>
      </trkpt>
      <trkpt lat="43.56147" lon="3.82216">
        <ele>31.6</ele>
        <time>2021-01-09T13:39:29Z</time>
      </trkpt>
      <trkpt lat="43.56144" lon="3.82227">
        <ele>36</ele>
        <time>2021-01-09T13:39:30Z</time>
      </trkpt>
      <trkpt lat="43.56142" lon="3.82233">
        <ele>31.4</ele>
        <time>2021-01-09T13:39:31Z</time>
      </trkpt>
      <trkpt lat="43.5614" lon="3.82239">
        <ele>31.3</ele>
        <time>2021-01-09T13:39:32Z</time>
      </trkpt>
      <trkpt lat="43.56138" lon="3.82244">
        <ele>31.2</ele>
        <time>2021-01-09T13:39:33Z</time>
      </trkpt>
      <trkpt lat="43.56136" lon="3.82249">
        <ele>31.1</ele>
        <time>2021-01-09T13:39:34Z</time>
      </trkpt>
      <trkpt lat="43.56133" lon="3.82259">
        <ele>30.9</ele>
        <time>2021-01-09T13:39:36Z</time>
      </trkpt>
      <trkpt lat="43.56131" lon="3.82264">
        <ele>30.8</ele>
        <time>2021-01-09T13:39:37Z</time>
      </trkpt>
      <trkpt lat="43.56129" lon="3.82268">
        <ele>30.7</ele>
        <time>2021-01-09T13:39:39Z</time>
      </trkpt>
      <trkpt lat="43.56127" lon="3.82273">
        <ele>35</ele>
        <time>2021-01-09T13:39:40Z</time>
      </trkpt>
      <trkpt lat="43.56124" lon="3.82277">
        <ele>30.6</ele>
        <time>2021-01-09T13:39:41Z</time>
      </trkpt>
      <trkpt lat="43.56121" lon="3.82281">
        <ele>30.5</ele>
        <time>2021-01-09T13:39:42Z</time>
      </trkpt>
      <trkpt lat="43.56119" lon="3.82286">
        <ele>30.4</ele>
        <time>2021-01-09T13:39:43Z</time>
      </trkpt>
      <trkpt lat="43.56118" lon="3.82291">
        <ele>30.3</ele>
        <time>2021-01-09T13:39:44Z</time>
      </trkpt>
      <trkpt lat="43.56118" lon="3.82297">
        <ele>30.1</ele>
        <time>2021-01-09T13:39:45Z</time>
      </trkpt>
      <trkpt lat="43.56117" lon="3.82303">
        <ele>29.9</ele>
        <time>2021-01-09T13:39:46Z</time>
      </trkpt>
      <trkpt lat="43.56116" lon="3.82309">
        <ele>29.7</ele>
        <time>2021-01-09T13:39:47Z</time>
      </trkpt>
      <trkpt lat="43.56113" lon="3.82313">
        <ele>29.7</ele>
        <time>2021-01-09T13:39:48Z</time>
      </trkpt>
      <trkpt lat="43.5611" lon="3.82317">
        <ele>29.6</ele>
        <time>2021-01-09T13:39:49Z</time>
      </trkpt>
      <trkpt lat="43.56107" lon="3.8232">
        <ele>34</ele>
        <time>2021-01-09T13:39:50Z</time>
      </trkpt>
      <trkpt lat="43.56105" lon="3.82325">
        <ele>29.5</ele>
        <time>2021-01-09T13:39:51Z</time>
      </trkpt>
      <trkpt lat="43.56104" lon="3.82329">
        <ele>29.4</ele>
        <time>2021-01-09T13:39:52Z</time>
      </trkpt>
      <trkpt lat="43.56101" lon="3.82333">
        <ele>29.4</ele>
        <time>2021-01-09T13:39:53Z</time>
      </trkpt>
      <trkpt lat="43.56098" lon="3.82334">
        <ele>29.4</ele>
        <time>2021-01-09T13:39:54Z</time>
      </trkpt>
      <trkpt lat="43.56095" lon="3.82335">
        <ele>29.5</ele>
        <time>2021-01-09T13:39:55Z</time>
      </trkpt>
      <trkpt lat="43.56093" lon="3.82337">
        <ele>29.5</ele>
        <time>2021-01-09T13:39:56Z</time>
      </trkpt>
      <trkpt lat="43.56091" lon="3.82339">
        <ele>29.5</ele>
        <time>2021-01-09T13:39:57Z</time>
      </trkpt>
      <trkpt lat="43.56088" lon="3.8234">
        <ele>29.6</ele>
        <time>2021-01-09T13:39:58Z</time>
      </trkpt>
      <trkpt lat="43.56085" lon="3.82341">
        <ele>29.7</ele>
        <time>2021-01-09T13:39:59Z</time>
      </trkpt>
      <trkpt lat="43.56082" lon="3.82341">
        <ele>34</ele>
        <time>2021-01-09T13:40:00Z</time>
      </trkpt>
      <trkpt lat="43.56079" lon="3.8234">
        <ele>29.9</ele>
        <time>2021-01-09T13:40:01Z</time>
      </trkpt>
      <trkpt lat="43.56076" lon="3.82338">
        <ele>30.1</ele>
        <time>2021-01-09T13:40:02Z</time>
      </trkpt>
      <trkpt lat="43.56074" lon="3.82337">
        <ele>30.2</ele>
        <time>2021-01-09T13:40:03Z</time>
      </trkpt>
      <trkpt lat="43.56072" lon="3.82336">
        <ele>30.3</ele>
        <time>2021-01-09T13:40:04Z</time>
      </trkpt>
      <trkpt lat="43.56069" lon="3.82336">
        <ele>30.4</ele>
        <time>2021-01-09T13:40:05Z</time>
      </trkpt>
      <trkpt lat="43.56067" lon="3.82337">
        <ele>30.5</ele>
        <time>2021-01-09T13:40:06Z</time>
      </trkpt>
      <trkpt lat="43.56066" lon="3.82339">
        <ele>30.4</ele>
        <time>2021-01-09T13:40:07Z</time>
      </trkpt>
      <trkpt lat="43.56064" lon="3.82342">
        <ele>30.4</ele>
        <time>2021-01-09T13:40:08Z</time>
      </trkpt>
      <trkpt lat="43.56062" lon="3.82345">
        <ele>30.3</ele>
        <time>2021-01-09T13:40:09Z</time>
      </trkpt>
      <trkpt lat="43.56059" lon="3.82347">
        <ele>34</ele>
        <time>2021-01-09T13:40:10Z</time>
      </trkpt>
      <trkpt lat="43.56056" lon="3.82347">
        <ele>30.5</ele>
        <time>2021-01-09T13:40:11Z</time>
      </trkpt>
      <trkpt lat="43.56054" lon="3.82347">
        <ele>30.6</ele>
        <time>2021-01-09T13:40:12Z</time>
      </trkpt>
      <trkpt lat="43.56051" lon="3.82347">
        <ele>30.8</ele>
        <time>2021-01-09T13:40:13Z</time>
      </trkpt>
      <trkpt lat="43.56048" lon="3.82347">
        <ele>31.1</ele>
        <time>2021-01-09T13:40:14Z</time>
      </trkpt>
      <trkpt lat="43.56046" lon="3.82348">
        <ele>31.2</ele>
        <time>2021-01-09T13:40:15Z</time>
      </trkpt>
      <trkpt lat="43.56045" lon="3.8235">
        <ele>31.2</ele>
        <time>2021-01-09T13:40:16Z</time>
      </trkpt>
      <trkpt lat="43.56042" lon="3.82352">
        <ele>31.3</ele>
        <time>2021-01-09T13:40:17Z</time>
      </trkpt>
      <trkpt lat="43.5604" lon="3.82353">
        <ele>31.4</ele>
        <time>2021-01-09T13:40:18Z</time>
      </trkpt>
      <trkpt lat="43.56037" lon="3.82354">
        <ele>31.6</ele>
        <time>2021-01-09T13:40:19Z</time>
      </trkpt>
      <trkpt lat="43.56035" lon="3.82355">
        <ele>34</ele>
        <time>2021-01-09T13:40:20Z</time>
      </trkpt>
      <trkpt lat="43.56032" lon="3.82355">
        <ele>31.9</ele>
        <time>2021-01-09T13:40:21Z</time>
      </trkpt>
      <trkpt lat="43.5603" lon="3.82356">
        <ele>32</ele>
        <time>2021-01-09T13:40:22Z</time>
      </trkpt>
      <trkpt lat="43.56029" lon="3.82358">
        <ele>32</ele>
        <time>2021-01-09T13:40:23Z</time>
      </trkpt>
      <trkpt lat="43.56027" lon="3.82361">
        <ele>32.1</ele>
        <time>2021-01-09T13:40:24Z</time>
      </trkpt>
      <trkpt lat="43.56025" lon="3.82363">
        <ele>32.1</ele>
        <time>2021-01-09T13:40:25Z</time>
      </trkpt>
      <trkpt lat="43.56022" lon="3.82364">
        <ele>32.3</ele>
        <time>2021-01-09T13:40:26Z</time>
      </trkpt>
      <trkpt lat="43.5602" lon="3.82364">
        <ele>32.5</ele>
        <time>2021-01-09T13:40:27Z</time>
      </trkpt>
      <trkpt lat="43.56018" lon="3.82364">
        <ele>32.6</ele>
        <time>2021-01-09T13:40:28Z</time>
      </trkpt>
      <trkpt lat="43.56016" lon="3.82363">
        <ele>32.8</ele>
        <time>2021-01-09T13:40:29Z</time>
      </trkpt>
      <trkpt lat="43.56014" lon="3.82362">
        <ele>34</ele>
        <time>2021-01-09T13:40:30Z</time>
      </trkpt>
      <trkpt lat="43.56012" lon="3.82361">
        <ele>33.1</ele>
        <time>2021-01-09T13:40:31Z</time>
      </trkpt>
      <trkpt lat="43.56009" lon="3.8236">
        <ele>33.4</ele>
        <time>2021-01-09T13:40:32Z</time>
      </trkpt>
      <trkpt lat="43.56007" lon="3.8236">
        <ele>33.5</ele>
        <time>2021-01-09T13:40:33Z</time>
      </trkpt>
      <trkpt lat="43.56003" lon="3.82362">
        <ele>33.8</ele>
        <time>2021-01-09T13:40:35Z</time>
      </trkpt>
      <trkpt lat="43.56" lon="3.82361">
        <ele>34</ele>
        <time>2021-01-09T13:40:36Z</time>
      </trkpt>
      <trkpt lat="43.55997" lon="3.82359">
        <ele>34.1</ele>
        <time>2021-01-09T13:40:37Z</time>
      </trkpt>
      <trkpt lat="43.55995" lon="3.82358">
        <ele>34.2</ele>
        <time>2021-01-09T13:40:38Z</time>
      </trkpt>
      <trkpt lat="43.55992" lon="3.82357">
        <ele>34.3</ele>
        <time>2021-01-09T13:40:39Z</time>
      </trkpt>
      <trkpt lat="43.5599" lon="3.82355">
        <ele>35</ele>
        <time>2021-01-09T13:40:40Z</time>
      </trkpt>
      <trkpt lat="43.55988" lon="3.82353">
        <ele>34.6</ele>
        <time>2021-01-09T13:40:41Z</time>
      </trkpt>
      <trkpt lat="43.55986" lon="3.82351">
        <ele>34.7</ele>
        <time>2021-01-09T13:40:42Z</time>
      </trkpt>
      <trkpt lat="43.55983" lon="3.8235">
        <ele>34.9</ele>
        <time>2021-01-09T13:40:43Z</time>
      </trkpt>
      <trkpt lat="43.55981" lon="3.8235">
        <ele>35</ele>
        <time>2021-01-09T13:40:44Z</time>
      </trkpt>
      <trkpt lat="43.55978" lon="3.82349">
        <ele>35.1</ele>
        <time>2021-01-09T13:40:45Z</time>
      </trkpt>
      <trkpt lat="43.55976" lon="3.82348">
        <ele>35.3</ele>
        <time>2021-01-09T13:40:46Z</time>
      </trkpt>
      <trkpt lat="43.55973" lon="3.82347">
        <ele>35.5</ele>
        <time>2021-01-09T13:40:47Z</time>
      </trkpt>
      <trkpt lat="43.55971" lon="3.82346">
        <ele>35.6</ele>
        <time>2021-01-09T13:40:48Z</time>
      </trkpt>
      <trkpt lat="43.55968" lon="3.82347">
        <ele>35.7</ele>
        <time>2021-01-09T13:40:49Z</time>
      </trkpt>
      <trkpt lat="43.55966" lon="3.82348">
        <ele>36</ele>
        <time>2021-01-09T13:40:50Z</time>
      </trkpt>
      <trkpt lat="43.55964" lon="3.8235">
        <ele>35.7</ele>
        <time>2021-01-09T13:40:51Z</time>
      </trkpt>
      <trkpt lat="43.55962" lon="3.82349">
        <ele>35.8</ele>
        <time>2021-01-09T13:40:52Z</time>
      </trkpt>
      <trkpt lat="43.55961" lon="3.82346">
        <ele>35.9</ele>
        <time>2021-01-09T13:40:53Z</time>
      </trkpt>
      <trkpt lat="43.5596" lon="3.82343">
        <ele>36.1</ele>
        <time>2021-01-09T13:40:54Z</time>
      </trkpt>
      <trkpt lat="43.5596" lon="3.8234">
        <ele>36.2</ele>
        <time>2021-01-09T13:40:55Z</time>
      </trkpt>
      <trkpt lat="43.55958" lon="3.82337">
        <ele>36.4</ele>
        <time>2021-01-09T13:40:57Z</time>
      </trkpt>
      <trkpt lat="43.55956" lon="3.82336">
        <ele>36.5</ele>
        <time>2021-01-09T13:40:58Z</time>
      </trkpt>
      <trkpt lat="43.55954" lon="3.82333">
        <ele>38</ele>
        <time>2021-01-09T13:41:00Z</time>
      </trkpt>
      <trkpt lat="43.55953" lon="3.82329">
        <ele>36.8</ele>
        <time>2021-01-09T13:41:02Z</time>
      </trkpt>
      <trkpt lat="43.55951" lon="3.82324">
        <ele>37.1</ele>
        <time>2021-01-09T13:41:03Z</time>
      </trkpt>
      <trkpt lat="43.5595" lon="3.82322">
        <ele>37.2</ele>
        <time>2021-01-09T13:41:04Z</time>
      </trkpt>
      <trkpt lat="43.55948" lon="3.82319">
        <ele>37.4</ele>
        <time>2021-01-09T13:41:06Z</time>
      </trkpt>
      <trkpt lat="43.55947" lon="3.82319">
        <ele>37.4</ele>
        <time>2021-01-09T13:41:07Z</time>
      </trkpt>
      <trkpt lat="43.55945" lon="3.82317">
        <ele>37.6</ele>
        <time>2021-01-09T13:41:08Z</time>
      </trkpt>
      <trkpt lat="43.55943" lon="3.82316">
        <ele>37.6</ele>
        <time>2021-01-09T13:41:09Z</time>
      </trkpt>
      <trkpt lat="43.55941" lon="3.82314">
        <ele>37.7</ele>
        <time>2021-01-09T13:41:11Z</time>
      </trkpt>
      <trkpt lat="43.55939" lon="3.82313">
        <ele>37.7</ele>
        <time>2021-01-09T13:41:12Z</time>
      </trkpt>
      <trkpt lat="43.55936" lon="3.82313">
        <ele>37.7</ele>
        <time>2021-01-09T13:41:14Z</time>
      </trkpt>
      <trkpt lat="43.55933" lon="3.82313">
        <ele>37.7</ele>
        <time>2021-01-09T13:41:15Z</time>
      </trkpt>
      <trkpt lat="43.55931" lon="3.82313">
        <ele>37.7</ele>
        <time>2021-01-09T13:41:16Z</time>
      </trkpt>
      <trkpt lat="43.5593" lon="3.82312">
        <ele>37.8</ele>
        <time>2021-01-09T13:41:17Z</time>
      </trkpt>
      <trkpt lat="43.55928" lon="3.82311">
        <ele>37.8</ele>
        <time>2021-01-09T13:41:18Z</time>
      </trkpt>
      <trkpt lat="43.55925" lon="3.82311">
        <ele>37.8</ele>
        <time>2021-01-09T13:41:19Z</time>
      </trkpt>
      <trkpt lat="43.55921" lon="3.82311">
        <ele>40</ele>
        <time>2021-01-09T13:41:20Z</time>
      </trkpt>
      <trkpt lat="43.55919" lon="3.82311">
        <ele>37.8</ele>
        <time>2021-01-09T13:41:21Z</time>
      </trkpt>
      <trkpt lat="43.55916" lon="3.82311">
        <ele>37.8</ele>
        <time>2021-01-09T13:41:22Z</time>
      </trkpt>
      <trkpt lat="43.55912" lon="3.82309">
        <ele>37.9</ele>
        <time>2021-01-09T13:41:24Z</time>
      </trkpt>
      <trkpt lat="43.5591" lon="3.82309">
        <ele>37.9</ele>
        <time>2021-01-09T13:41:25Z</time>
      </trkpt>
      <trkpt lat="43.55908" lon="3.82309">
        <ele>37.9</ele>
        <time>2021-01-09T13:41:26Z</time>
      </trkpt>
      <trkpt lat="43.55906" lon="3.82309">
        <ele>37.9</ele>
        <time>2021-01-09T13:41:27Z</time>
      </trkpt>
      <trkpt lat="43.55904" lon="3.82308">
        <ele>37.9</ele>
        <time>2021-01-09T13:41:28Z</time>
      </trkpt>
      <trkpt lat="43.55901" lon="3.82307">
        <ele>40</ele>
        <time>2021-01-09T13:41:30Z</time>
      </trkpt>
      <trkpt lat="43.55899" lon="3.82305">
        <ele>38</ele>
        <time>2021-01-09T13:41:31Z</time>
      </trkpt>
      <trkpt lat="43.55897" lon="3.82304">
        <ele>38.1</ele>
        <time>2021-01-09T13:41:32Z</time>
      </trkpt>
      <trkpt lat="43.55894" lon="3.82304">
        <ele>38.1</ele>
        <time>2021-01-09T13:41:33Z</time>
      </trkpt>
      <trkpt lat="43.55891" lon="3.82305">
        <ele>38</ele>
        <time>2021-01-09T13:41:34Z</time>
      </trkpt>
      <trkpt lat="43.55889" lon="3.82304">
        <ele>38.1</ele>
        <time>2021-01-09T13:41:35Z</time>
      </trkpt>
      <trkpt lat="43.55886" lon="3.82303">
        <ele>38</ele>
        <time>2021-01-09T13:41:36Z</time>
      </trkpt>
      <trkpt lat="43.55883" lon="3.82302">
        <ele>37.9</ele>
        <time>2021-01-09T13:41:37Z</time>
      </trkpt>
      <trkpt lat="43.55881" lon="3.82302">
        <ele>37.8</ele>
        <time>2021-01-09T13:41:38Z</time>
      </trkpt>
      <trkpt lat="43.55878" lon="3.82301">
        <ele>37.8</ele>
        <time>2021-01-09T13:41:39Z</time>
      </trkpt>
      <trkpt lat="43.55876" lon="3.82299">
        <ele>40</ele>
        <time>2021-01-09T13:41:40Z</time>
      </trkpt>
      <trkpt lat="43.55874" lon="3.82298">
        <ele>37.7</ele>
        <time>2021-01-09T13:41:41Z</time>
      </trkpt>
      <trkpt lat="43.55871" lon="3.82298">
        <ele>37.6</ele>
        <time>2021-01-09T13:41:42Z</time>
      </trkpt>
      <trkpt lat="43.55868" lon="3.82298">
        <ele>37.5</ele>
        <time>2021-01-09T13:41:43Z</time>
      </trkpt>
      <trkpt lat="43.55865" lon="3.82298">
        <ele>37.4</ele>
        <time>2021-01-09T13:41:44Z</time>
      </trkpt>
      <trkpt lat="43.55863" lon="3.82298">
        <ele>37.3</ele>
        <time>2021-01-09T13:41:45Z</time>
      </trkpt>
      <trkpt lat="43.55861" lon="3.82299">
        <ele>37.2</ele>
        <time>2021-01-09T13:41:46Z</time>
      </trkpt>
      <trkpt lat="43.55859" lon="3.82302">
        <ele>37</ele>
        <time>2021-01-09T13:41:47Z</time>
      </trkpt>
      <trkpt lat="43.55857" lon="3.82304">
        <ele>36.9</ele>
        <time>2021-01-09T13:41:48Z</time>
      </trkpt>
      <trkpt lat="43.55855" lon="3.82306">
        <ele>36.8</ele>
        <time>2021-01-09T13:41:49Z</time>
      </trkpt>
      <trkpt lat="43.55852" lon="3.82307">
        <ele>40</ele>
        <time>2021-01-09T13:41:50Z</time>
      </trkpt>
      <trkpt lat="43.5585" lon="3.82308">
        <ele>36.5</ele>
        <time>2021-01-09T13:41:51Z</time>
      </trkpt>
      <trkpt lat="43.55854" lon="3.82316">
        <ele>37</ele>
        <time>2021-01-09T13:43:03Z</time>
      </trkpt>
      <trkpt lat="43.55856" lon="3.82318">
        <ele>36.4</ele>
        <time>2021-01-09T13:43:04Z</time>
      </trkpt>
      <trkpt lat="43.55858" lon="3.82321">
        <ele>36.3</ele>
        <time>2021-01-09T13:43:05Z</time>
      </trkpt>
      <trkpt lat="43.5586" lon="3.82324">
        <ele>36.3</ele>
        <time>2021-01-09T13:43:06Z</time>
      </trkpt>
      <trkpt lat="43.55862" lon="3.82327">
        <ele>36.3</ele>
        <time>2021-01-09T13:43:07Z</time>
      </trkpt>
      <trkpt lat="43.55864" lon="3.8233">
        <ele>36.2</ele>
        <time>2021-01-09T13:43:08Z</time>
      </trkpt>
      <trkpt lat="43.55865" lon="3.82334">
        <ele>36.1</ele>
        <time>2021-01-09T13:43:09Z</time>
      </trkpt>
      <trkpt lat="43.55867" lon="3.82337">
        <ele>36.1</ele>
        <time>2021-01-09T13:43:10Z</time>
      </trkpt>
      <trkpt lat="43.55868" lon="3.8234">
        <ele>36</ele>
        <time>2021-01-09T13:43:11Z</time>
      </trkpt>
      <trkpt lat="43.5587" lon="3.82342">
        <ele>36</ele>
        <time>2021-01-09T13:43:12Z</time>
      </trkpt>
      <trkpt lat="43.55872" lon="3.82345">
        <ele>37</ele>
        <time>2021-01-09T13:43:13Z</time>
      </trkpt>
      <trkpt lat="43.55874" lon="3.82348">
        <ele>35.9</ele>
        <time>2021-01-09T13:43:14Z</time>
      </trkpt>
      <trkpt lat="43.55876" lon="3.82351">
        <ele>35.9</ele>
        <time>2021-01-09T13:43:15Z</time>
      </trkpt>
      <trkpt lat="43.55879" lon="3.82358">
        <ele>35.8</ele>
        <time>2021-01-09T13:43:16Z</time>
      </trkpt>
      <trkpt lat="43.55881" lon="3.82362">
        <ele>35.7</ele>
        <time>2021-01-09T13:43:17Z</time>
      </trkpt>
      <trkpt lat="43.55883" lon="3.82366">
        <ele>35.5</ele>
        <time>2021-01-09T13:43:18Z</time>
      </trkpt>
      <trkpt lat="43.55884" lon="3.8237">
        <ele>35.2</ele>
        <time>2021-01-09T13:43:19Z</time>
      </trkpt>
      <trkpt lat="43.55885" lon="3.82374">
        <ele>35</ele>
        <time>2021-01-09T13:43:21Z</time>
      </trkpt>
      <trkpt lat="43.55886" lon="3.82378">
        <ele>34.7</ele>
        <time>2021-01-09T13:43:22Z</time>
      </trkpt>
      <trkpt lat="43.55887" lon="3.82383">
        <ele>37</ele>
        <time>2021-01-09T13:43:23Z</time>
      </trkpt>
      <trkpt lat="43.55887" lon="3.82388">
        <ele>34.1</ele>
        <time>2021-01-09T13:43:24Z</time>
      </trkpt>
      <trkpt lat="43.55887" lon="3.82393">
        <ele>33.9</ele>
        <time>2021-01-09T13:43:25Z</time>
      </trkpt>
      <trkpt lat="43.55887" lon="3.82398">
        <ele>33.7</ele>
        <time>2021-01-09T13:43:26Z</time>
      </trkpt>
      <trkpt lat="43.55887" lon="3.82402">
        <ele>33.5</ele>
        <time>2021-01-09T13:43:27Z</time>
      </trkpt>
      <trkpt lat="43.55886" lon="3.82407">
        <ele>33.3</ele>
        <time>2021-01-09T13:43:28Z</time>
      </trkpt>
      <trkpt lat="43.55887" lon="3.82411">
        <ele>33.2</ele>
        <time>2021-01-09T13:43:29Z</time>
      </trkpt>
      <trkpt lat="43.55888" lon="3.82415">
        <ele>33.1</ele>
        <time>2021-01-09T13:43:30Z</time>
      </trkpt>
      <trkpt lat="43.55889" lon="3.8242">
        <ele>32.9</ele>
        <time>2021-01-09T13:43:31Z</time>
      </trkpt>
      <trkpt lat="43.55889" lon="3.82425">
        <ele>32.7</ele>
        <time>2021-01-09T13:43:32Z</time>
      </trkpt>
      <trkpt lat="43.55891" lon="3.82429">
        <ele>35</ele>
        <time>2021-01-09T13:43:33Z</time>
      </trkpt>
      <trkpt lat="43.55892" lon="3.82434">
        <ele>32.4</ele>
        <time>2021-01-09T13:43:34Z</time>
      </trkpt>
      <trkpt lat="43.55892" lon="3.82439">
        <ele>32.2</ele>
        <time>2021-01-09T13:43:35Z</time>
      </trkpt>
      <trkpt lat="43.55891" lon="3.82444">
        <ele>32</ele>
        <time>2021-01-09T13:43:36Z</time>
      </trkpt>
      <trkpt lat="43.55891" lon="3.82449">
        <ele>31.8</ele>
        <time>2021-01-09T13:43:37Z</time>
      </trkpt>
      <trkpt lat="43.55891" lon="3.82455">
        <ele>31.6</ele>
        <time>2021-01-09T13:43:38Z</time>
      </trkpt>
      <trkpt lat="43.5589" lon="3.8246">
        <ele>31.4</ele>
        <time>2021-01-09T13:43:39Z</time>
      </trkpt>
      <trkpt lat="43.5589" lon="3.82466">
        <ele>31.2</ele>
        <time>2021-01-09T13:43:40Z</time>
      </trkpt>
      <trkpt lat="43.5589" lon="3.82472">
        <ele>31</ele>
        <time>2021-01-09T13:43:41Z</time>
      </trkpt>
      <trkpt lat="43.5589" lon="3.82478">
        <ele>30.8</ele>
        <time>2021-01-09T13:43:42Z</time>
      </trkpt>
      <trkpt lat="43.5589" lon="3.82484">
        <ele>34</ele>
        <time>2021-01-09T13:43:43Z</time>
      </trkpt>
      <trkpt lat="43.55889" lon="3.82496">
        <ele>30.1</ele>
        <time>2021-01-09T13:43:44Z</time>
      </trkpt>
      <trkpt lat="43.55888" lon="3.82504">
        <ele>29.7</ele>
        <time>2021-01-09T13:43:46Z</time>
      </trkpt>
      <trkpt lat="43.55888" lon="3.82507">
        <ele>29.5</ele>
        <time>2021-01-09T13:43:47Z</time>
      </trkpt>
      <trkpt lat="43.55889" lon="3.82512">
        <ele>29.1</ele>
        <time>2021-01-09T13:43:49Z</time>
      </trkpt>
      <trkpt lat="43.55889" lon="3.82515">
        <ele>28.9</ele>
        <time>2021-01-09T13:43:50Z</time>
      </trkpt>
      <trkpt lat="43.55889" lon="3.82518">
        <ele>28.7</ele>
        <time>2021-01-09T13:43:51Z</time>
      </trkpt>
      <trkpt lat="43.55889" lon="3.82521">
        <ele>33</ele>
        <time>2021-01-09T13:43:53Z</time>
      </trkpt>
      <trkpt lat="43.55888" lon="3.82524">
        <ele>28.2</ele>
        <time>2021-01-09T13:43:54Z</time>
      </trkpt>
      <trkpt lat="43.55886" lon="3.82527">
        <ele>28</ele>
        <time>2021-01-09T13:43:55Z</time>
      </trkpt>
      <trkpt lat="43.55884" lon="3.82529">
        <ele>27.7</ele>
        <time>2021-01-09T13:43:56Z</time>
      </trkpt>
      <trkpt lat="43.55883" lon="3.82532">
        <ele>27.5</ele>
        <time>2021-01-09T13:43:57Z</time>
      </trkpt>
      <trkpt lat="43.55881" lon="3.82535">
        <ele>27.2</ele>
        <time>2021-01-09T13:43:58Z</time>
      </trkpt>
      <trkpt lat="43.5588" lon="3.82537">
        <ele>27</ele>
        <time>2021-01-09T13:43:59Z</time>
      </trkpt>
      <trkpt lat="43.5588" lon="3.8254">
        <ele>26.8</ele>
        <time>2021-01-09T13:44:00Z</time>
      </trkpt>
      <trkpt lat="43.55881" lon="3.82542">
        <ele>26.7</ele>
        <time>2021-01-09T13:44:01Z</time>
      </trkpt>
      <trkpt lat="43.55882" lon="3.82544">
        <ele>26.6</ele>
        <time>2021-01-09T13:44:02Z</time>
      </trkpt>
      <trkpt lat="43.55884" lon="3.82546">
        <ele>31</ele>
        <time>2021-01-09T13:44:03Z</time>
      </trkpt>
      <trkpt lat="43.55886" lon="3.82549">
        <ele>26.4</ele>
        <time>2021-01-09T13:44:04Z</time>
      </trkpt>
      <trkpt lat="43.55889" lon="3.82551">
        <ele>26.3</ele>
        <time>2021-01-09T13:44:05Z</time>
      </trkpt>
      <trkpt lat="43.55892" lon="3.82554">
        <ele>26.2</ele>
        <time>2021-01-09T13:44:06Z</time>
      </trkpt>
      <trkpt lat="43.55895" lon="3.82557">
        <ele>26.2</ele>
        <time>2021-01-09T13:44:07Z</time>
      </trkpt>
      <trkpt lat="43.55898" lon="3.82561">
        <ele>26.2</ele>
        <time>2021-01-09T13:44:08Z</time>
      </trkpt>
      <trkpt lat="43.55901" lon="3.82563">
        <ele>26.2</ele>
        <time>2021-01-09T13:44:09Z</time>
      </trkpt>
      <trkpt lat="43.55904" lon="3.82566">
        <ele>26.1</ele>
        <time>2021-01-09T13:44:10Z</time>
      </trkpt>
      <trkpt lat="43.55907" lon="3.82569">
        <ele>26</ele>
        <time>2021-01-09T13:44:11Z</time>
      </trkpt>
      <trkpt lat="43.5591" lon="3.82572">
        <ele>25.9</ele>
        <time>2021-01-09T13:44:12Z</time>
      </trkpt>
      <trkpt lat="43.55913" lon="3.82576">
        <ele>29</ele>
        <time>2021-01-09T13:44:13Z</time>
      </trkpt>
      <trkpt lat="43.55916" lon="3.82578">
        <ele>25.4</ele>
        <time>2021-01-09T13:44:14Z</time>
      </trkpt>
      <trkpt lat="43.55919" lon="3.82581">
        <ele>25.1</ele>
        <time>2021-01-09T13:44:15Z</time>
      </trkpt>
      <trkpt lat="43.55922" lon="3.82583">
        <ele>24.8</ele>
        <time>2021-01-09T13:44:16Z</time>
      </trkpt>
      <trkpt lat="43.55925" lon="3.82586">
        <ele>24.7</ele>
        <time>2021-01-09T13:44:17Z</time>
      </trkpt>
      <trkpt lat="43.55928" lon="3.82589">
        <ele>24.6</ele>
        <time>2021-01-09T13:44:18Z</time>
      </trkpt>
      <trkpt lat="43.55931" lon="3.82592">
        <ele>24.5</ele>
        <time>2021-01-09T13:44:19Z</time>
      </trkpt>
      <trkpt lat="43.55934" lon="3.82595">
        <ele>24.3</ele>
        <time>2021-01-09T13:44:20Z</time>
      </trkpt>
      <trkpt lat="43.55938" lon="3.82599">
        <ele>23.9</ele>
        <time>2021-01-09T13:44:21Z</time>
      </trkpt>
      <trkpt lat="43.55941" lon="3.82602">
        <ele>23.6</ele>
        <time>2021-01-09T13:44:22Z</time>
      </trkpt>
      <trkpt lat="43.55945" lon="3.82606">
        <ele>27</ele>
        <time>2021-01-09T13:44:23Z</time>
      </trkpt>
      <trkpt lat="43.55949" lon="3.8261">
        <ele>22.6</ele>
        <time>2021-01-09T13:44:24Z</time>
      </trkpt>
      <trkpt lat="43.55953" lon="3.82614">
        <ele>22.4</ele>
        <time>2021-01-09T13:44:25Z</time>
      </trkpt>
      <trkpt lat="43.55955" lon="3.82617">
        <ele>22.5</ele>
        <time>2021-01-09T13:44:26Z</time>
      </trkpt>
      <trkpt lat="43.55957" lon="3.8262">
        <ele>22.6</ele>
        <time>2021-01-09T13:44:27Z</time>
      </trkpt>
      <trkpt lat="43.55959" lon="3.82622">
        <ele>22.6</ele>
        <time>2021-01-09T13:44:29Z</time>
      </trkpt>
      <trkpt lat="43.55961" lon="3.82621">
        <ele>22.2</ele>
        <time>2021-01-09T13:44:30Z</time>
      </trkpt>
      <trkpt lat="43.55963" lon="3.82618">
        <ele>21.7</ele>
        <time>2021-01-09T13:44:31Z</time>
      </trkpt>
      <trkpt lat="43.55965" lon="3.82614">
        <ele>21</ele>
        <time>2021-01-09T13:44:32Z</time>
      </trkpt>
      <trkpt lat="43.55967" lon="3.82611">
        <ele>25</ele>
        <time>2021-01-09T13:44:33Z</time>
      </trkpt>
      <trkpt lat="43.55971" lon="3.82609">
        <ele>20.3</ele>
        <time>2021-01-09T13:44:34Z</time>
      </trkpt>
      <trkpt lat="43.55974" lon="3.82609">
        <ele>20</ele>
        <time>2021-01-09T13:44:35Z</time>
      </trkpt>
      <trkpt lat="43.55977" lon="3.82611">
        <ele>19.7</ele>
        <time>2021-01-09T13:44:36Z</time>
      </trkpt>
      <trkpt lat="43.5598" lon="3.82612">
        <ele>19.5</ele>
        <time>2021-01-09T13:44:37Z</time>
      </trkpt>
      <trkpt lat="43.55983" lon="3.82611">
        <ele>19.2</ele>
        <time>2021-01-09T13:44:38Z</time>
      </trkpt>
      <trkpt lat="43.55985" lon="3.82609">
        <ele>19.2</ele>
        <time>2021-01-09T13:44:39Z</time>
      </trkpt>
      <trkpt lat="43.55988" lon="3.82606">
        <ele>19</ele>
        <time>2021-01-09T13:44:40Z</time>
      </trkpt>
      <trkpt lat="43.5599" lon="3.82602">
        <ele>19</ele>
        <time>2021-01-09T13:44:41Z</time>
      </trkpt>
      <trkpt lat="43.55993" lon="3.82598">
        <ele>18.7</ele>
        <time>2021-01-09T13:44:42Z</time>
      </trkpt>
      <trkpt lat="43.55996" lon="3.82593">
        <ele>22</ele>
        <time>2021-01-09T13:44:43Z</time>
      </trkpt>
      <trkpt lat="43.55999" lon="3.82588">
        <ele>18.1</ele>
        <time>2021-01-09T13:44:44Z</time>
      </trkpt>
      <trkpt lat="43.56001" lon="3.82583">
        <ele>18.2</ele>
        <time>2021-01-09T13:44:45Z</time>
      </trkpt>
      <trkpt lat="43.56003" lon="3.82579">
        <ele>18.8</ele>
        <time>2021-01-09T13:44:46Z</time>
      </trkpt>
      <trkpt lat="43.56005" lon="3.82576">
        <ele>19.2</ele>
        <time>2021-01-09T13:44:47Z</time>
      </trkpt>
      <trkpt lat="43.56008" lon="3.82573">
        <ele>19.6</ele>
        <time>2021-01-09T13:44:48Z</time>
      </trkpt>
      <trkpt lat="43.56009" lon="3.82571">
        <ele>19.8</ele>
        <time>2021-01-09T13:44:49Z</time>
      </trkpt>
      <trkpt lat="43.5601" lon="3.82568">
        <ele>19.9</ele>
        <time>2021-01-09T13:44:50Z</time>
      </trkpt>
      <trkpt lat="43.56012" lon="3.82563">
        <ele>20</ele>
        <time>2021-01-09T13:44:51Z</time>
      </trkpt>
      <trkpt lat="43.56014" lon="3.8256">
        <ele>22</ele>
        <time>2021-01-09T13:44:53Z</time>
      </trkpt>
      <trkpt lat="43.56015" lon="3.82558">
        <ele>19.9</ele>
        <time>2021-01-09T13:44:54Z</time>
      </trkpt>
      <trkpt lat="43.56016" lon="3.82556">
        <ele>19.9</ele>
        <time>2021-01-09T13:44:55Z</time>
      </trkpt>
      <trkpt lat="43.56018" lon="3.82553">
        <ele>19.9</ele>
        <time>2021-01-09T13:44:56Z</time>
      </trkpt>
      <trkpt lat="43.5602" lon="3.82549">
        <ele>20.1</ele>
        <time>2021-01-09T13:44:58Z</time>
      </trkpt>
      <trkpt lat="43.56021" lon="3.82546">
        <ele>20.3</ele>
        <time>2021-01-09T13:44:59Z</time>
      </trkpt>
      <trkpt lat="43.56022" lon="3.82543">
        <ele>20.4</ele>
        <time>2021-01-09T13:45:00Z</time>
      </trkpt>
      <trkpt lat="43.56024" lon="3.8254">
        <ele>20.5</ele>
        <time>2021-01-09T13:45:01Z</time>
      </trkpt>
      <trkpt lat="43.56026" lon="3.82538">
        <ele>20.4</ele>
        <time>2021-01-09T13:45:02Z</time>
      </trkpt>
      <trkpt lat="43.56027" lon="3.82535">
        <ele>22</ele>
        <time>2021-01-09T13:45:03Z</time>
      </trkpt>
      <trkpt lat="43.56028" lon="3.82532">
        <ele>20.7</ele>
        <time>2021-01-09T13:45:04Z</time>
      </trkpt>
      <trkpt lat="43.5603" lon="3.8253">
        <ele>20.9</ele>
        <time>2021-01-09T13:45:05Z</time>
      </trkpt>
      <trkpt lat="43.56031" lon="3.82528">
        <ele>21</ele>
        <time>2021-01-09T13:45:06Z</time>
      </trkpt>
      <trkpt lat="43.56033" lon="3.82526">
        <ele>21.2</ele>
        <time>2021-01-09T13:45:07Z</time>
      </trkpt>
      <trkpt lat="43.56035" lon="3.82525">
        <ele>21.2</ele>
        <time>2021-01-09T13:45:08Z</time>
      </trkpt>
      <trkpt lat="43.56037" lon="3.82523">
        <ele>21.3</ele>
        <time>2021-01-09T13:45:09Z</time>
      </trkpt>
      <trkpt lat="43.56039" lon="3.82521">
        <ele>21.4</ele>
        <time>2021-01-09T13:45:10Z</time>
      </trkpt>
      <trkpt lat="43.56041" lon="3.82518">
        <ele>21.6</ele>
        <time>2021-01-09T13:45:11Z</time>
      </trkpt>
      <trkpt lat="43.56043" lon="3.82515">
        <ele>21.6</ele>
        <time>2021-01-09T13:45:12Z</time>
      </trkpt>
      <trkpt lat="43.56046" lon="3.82513">
        <ele>23</ele>
        <time>2021-01-09T13:45:13Z</time>
      </trkpt>
      <trkpt lat="43.56048" lon="3.82512">
        <ele>21.5</ele>
        <time>2021-01-09T13:45:14Z</time>
      </trkpt>
      <trkpt lat="43.56051" lon="3.82512">
        <ele>21.3</ele>
        <time>2021-01-09T13:45:15Z</time>
      </trkpt>
      <trkpt lat="43.56054" lon="3.82513">
        <ele>21.1</ele>
        <time>2021-01-09T13:45:16Z</time>
      </trkpt>
      <trkpt lat="43.56055" lon="3.82513">
        <ele>21</ele>
        <time>2021-01-09T13:45:17Z</time>
      </trkpt>
      <trkpt lat="43.56057" lon="3.82512">
        <ele>21.1</ele>
        <time>2021-01-09T13:45:18Z</time>
      </trkpt>
      <trkpt lat="43.56059" lon="3.82512">
        <ele>21.2</ele>
        <time>2021-01-09T13:45:19Z</time>
      </trkpt>
      <trkpt lat="43.56061" lon="3.82511">
        <ele>21.4</ele>
        <time>2021-01-09T13:45:20Z</time>
      </trkpt>
      <trkpt lat="43.56064" lon="3.82508">
        <ele>21.5</ele>
        <time>2021-01-09T13:45:22Z</time>
      </trkpt>
      <trkpt lat="43.56066" lon="3.82507">
        <ele>22</ele>
        <time>2021-01-09T13:45:23Z</time>
      </trkpt>
      <trkpt lat="43.56068" lon="3.82506">
        <ele>21.6</ele>
        <time>2021-01-09T13:45:24Z</time>
      </trkpt>
      <trkpt lat="43.5607" lon="3.82505">
        <ele>21.7</ele>
        <time>2021-01-09T13:45:25Z</time>
      </trkpt>
      <trkpt lat="43.56072" lon="3.82504">
        <ele>21.8</ele>
        <time>2021-01-09T13:45:26Z</time>
      </trkpt>
      <trkpt lat="43.56074" lon="3.82502">
        <ele>21.8</ele>
        <time>2021-01-09T13:45:27Z</time>
      </trkpt>
      <trkpt lat="43.56076" lon="3.82501">
        <ele>21.8</ele>
        <time>2021-01-09T13:45:28Z</time>
      </trkpt>
      <trkpt lat="43.56077" lon="3.82499">
        <ele>21.8</ele>
        <time>2021-01-09T13:45:29Z</time>
      </trkpt>
      <trkpt lat="43.56079" lon="3.82497">
        <ele>21.8</ele>
        <time>2021-01-09T13:45:30Z</time>
      </trkpt>
      <trkpt lat="43.56081" lon="3.82495">
        <ele>21.8</ele>
        <time>2021-01-09T13:45:31Z</time>
      </trkpt>
      <trkpt lat="43.56083" lon="3.82494">
        <ele>21.8</ele>
        <time>2021-01-09T13:45:32Z</time>
      </trkpt>
      <trkpt lat="43.56085" lon="3.82493">
        <ele>22</ele>
        <time>2021-01-09T13:45:33Z</time>
      </trkpt>
      <trkpt lat="43.56087" lon="3.82492">
        <ele>21.9</ele>
        <time>2021-01-09T13:45:34Z</time>
      </trkpt>
      <trkpt lat="43.56089" lon="3.82491">
        <ele>22</ele>
        <time>2021-01-09T13:45:35Z</time>
      </trkpt>
      <trkpt lat="43.56091" lon="3.82489">
        <ele>21.9</ele>
        <time>2021-01-09T13:45:36Z</time>
      </trkpt>
      <trkpt lat="43.56093" lon="3.82487">
        <ele>21.9</ele>
        <time>2021-01-09T13:45:37Z</time>
      </trkpt>
      <trkpt lat="43.56096" lon="3.82485">
        <ele>21.9</ele>
        <time>2021-01-09T13:45:38Z</time>
      </trkpt>
      <trkpt lat="43.56099" lon="3.82484">
        <ele>21.9</ele>
        <time>2021-01-09T13:45:39Z</time>
      </trkpt>
      <trkpt lat="43.56101" lon="3.82483">
        <ele>21.9</ele>
        <time>2021-01-09T13:45:40Z</time>
      </trkpt>
      <trkpt lat="43.56104" lon="3.82482">
        <ele>21.9</ele>
        <time>2021-01-09T13:45:41Z</time>
      </trkpt>
      <trkpt lat="43.56107" lon="3.82481">
        <ele>21.9</ele>
        <time>2021-01-09T13:45:42Z</time>
      </trkpt>
      <trkpt lat="43.5611" lon="3.8248">
        <ele>22</ele>
        <time>2021-01-09T13:45:43Z</time>
      </trkpt>
      <trkpt lat="43.56112" lon="3.82478">
        <ele>21.7</ele>
        <time>2021-01-09T13:45:44Z</time>
      </trkpt>
      <trkpt lat="43.56115" lon="3.82477">
        <ele>21.7</ele>
        <time>2021-01-09T13:45:45Z</time>
      </trkpt>
      <trkpt lat="43.56118" lon="3.82476">
        <ele>21.7</ele>
        <time>2021-01-09T13:45:46Z</time>
      </trkpt>
      <trkpt lat="43.56121" lon="3.82474">
        <ele>21.5</ele>
        <time>2021-01-09T13:45:47Z</time>
      </trkpt>
      <trkpt lat="43.56124" lon="3.82471">
        <ele>21.6</ele>
        <time>2021-01-09T13:45:48Z</time>
      </trkpt>
      <trkpt lat="43.56127" lon="3.8247">
        <ele>21.7</ele>
        <time>2021-01-09T13:45:49Z</time>
      </trkpt>
      <trkpt lat="43.5613" lon="3.8247">
        <ele>21.8</ele>
        <time>2021-01-09T13:45:50Z</time>
      </trkpt>
      <trkpt lat="43.56133" lon="3.82469">
        <ele>22</ele>
        <time>2021-01-09T13:45:51Z</time>
      </trkpt>
      <trkpt lat="43.56136" lon="3.82469">
        <ele>22.1</ele>
        <time>2021-01-09T13:45:52Z</time>
      </trkpt>
      <trkpt lat="43.56139" lon="3.82469">
        <ele>23</ele>
        <time>2021-01-09T13:45:53Z</time>
      </trkpt>
      <trkpt lat="43.56141" lon="3.8247">
        <ele>22.2</ele>
        <time>2021-01-09T13:45:54Z</time>
      </trkpt>
      <trkpt lat="43.56144" lon="3.8247">
        <ele>22.2</ele>
        <time>2021-01-09T13:45:55Z</time>
      </trkpt>
      <trkpt lat="43.56147" lon="3.8247">
        <ele>22.2</ele>
        <time>2021-01-09T13:45:56Z</time>
      </trkpt>
      <trkpt lat="43.56149" lon="3.82471">
        <ele>22.1</ele>
        <time>2021-01-09T13:45:57Z</time>
      </trkpt>
      <trkpt lat="43.56152" lon="3.8247">
        <ele>22.2</ele>
        <time>2021-01-09T13:45:58Z</time>
      </trkpt>
      <trkpt lat="43.56155" lon="3.8247">
        <ele>22.2</ele>
        <time>2021-01-09T13:45:59Z</time>
      </trkpt>
      <trkpt lat="43.56157" lon="3.8247">
        <ele>22.2</ele>
        <time>2021-01-09T13:46:00Z</time>
      </trkpt>
      <trkpt lat="43.5616" lon="3.8247">
        <ele>22.2</ele>
        <time>2021-01-09T13:46:01Z</time>
      </trkpt>
      <trkpt lat="43.56162" lon="3.82468">
        <ele>22.3</ele>
        <time>2021-01-09T13:46:02Z</time>
      </trkpt>
      <trkpt lat="43.56164" lon="3.82465">
        <ele>23</ele>
        <time>2021-01-09T13:46:03Z</time>
      </trkpt>
      <trkpt lat="43.56165" lon="3.82462">
        <ele>22.7</ele>
        <time>2021-01-09T13:46:04Z</time>
      </trkpt>
      <trkpt lat="43.56167" lon="3.8246">
        <ele>22.9</ele>
        <time>2021-01-09T13:46:05Z</time>
      </trkpt>
      <trkpt lat="43.56168" lon="3.82457">
        <ele>23.1</ele>
        <time>2021-01-09T13:46:06Z</time>
      </trkpt>
      <trkpt lat="43.5617" lon="3.82454">
        <ele>23.4</ele>
        <time>2021-01-09T13:46:07Z</time>
      </trkpt>
      <trkpt lat="43.56171" lon="3.82452">
        <ele>23.5</ele>
        <time>2021-01-09T13:46:08Z</time>
      </trkpt>
      <trkpt lat="43.56172" lon="3.8245">
        <ele>23.6</ele>
        <time>2021-01-09T13:46:09Z</time>
      </trkpt>
      <trkpt lat="43.56174" lon="3.82447">
        <ele>23.6</ele>
        <time>2021-01-09T13:46:10Z</time>
      </trkpt>
      <trkpt lat="43.56176" lon="3.82445">
        <ele>23.7</ele>
        <time>2021-01-09T13:46:11Z</time>
      </trkpt>
      <trkpt lat="43.56177" lon="3.82442">
        <ele>23.7</ele>
        <time>2021-01-09T13:46:12Z</time>
      </trkpt>
      <trkpt lat="43.56179" lon="3.82439">
        <ele>24</ele>
        <time>2021-01-09T13:46:13Z</time>
      </trkpt>
      <trkpt lat="43.5618" lon="3.82436">
        <ele>23.7</ele>
        <time>2021-01-09T13:46:14Z</time>
      </trkpt>
      <trkpt lat="43.5618" lon="3.82432">
        <ele>23.8</ele>
        <time>2021-01-09T13:46:15Z</time>
      </trkpt>
      <trkpt lat="43.56181" lon="3.82429">
        <ele>23.8</ele>
        <time>2021-01-09T13:46:16Z</time>
      </trkpt>
      <trkpt lat="43.56182" lon="3.82426">
        <ele>23.7</ele>
        <time>2021-01-09T13:46:17Z</time>
      </trkpt>
      <trkpt lat="43.56183" lon="3.82423">
        <ele>23.7</ele>
        <time>2021-01-09T13:46:18Z</time>
      </trkpt>
      <trkpt lat="43.56184" lon="3.8242">
        <ele>23.7</ele>
        <time>2021-01-09T13:46:19Z</time>
      </trkpt>
      <trkpt lat="43.56185" lon="3.82417">
        <ele>23.7</ele>
        <time>2021-01-09T13:46:20Z</time>
      </trkpt>
      <trkpt lat="43.56186" lon="3.82413">
        <ele>23.6</ele>
        <time>2021-01-09T13:46:21Z</time>
      </trkpt>
      <trkpt lat="43.56187" lon="3.8241">
        <ele>23.5</ele>
        <time>2021-01-09T13:46:22Z</time>
      </trkpt>
      <trkpt lat="43.56188" lon="3.82407">
        <ele>24</ele>
        <time>2021-01-09T13:46:23Z</time>
      </trkpt>
      <trkpt lat="43.5619" lon="3.82404">
        <ele>23.3</ele>
        <time>2021-01-09T13:46:24Z</time>
      </trkpt>
      <trkpt lat="43.56191" lon="3.82402">
        <ele>23.2</ele>
        <time>2021-01-09T13:46:25Z</time>
      </trkpt>
      <trkpt lat="43.56194" lon="3.824">
        <ele>23</ele>
        <time>2021-01-09T13:46:26Z</time>
      </trkpt>
      <trkpt lat="43.56196" lon="3.82399">
        <ele>23.1</ele>
        <time>2021-01-09T13:46:27Z</time>
      </trkpt>
      <trkpt lat="43.56199" lon="3.82398">
        <ele>23.3</ele>
        <time>2021-01-09T13:46:28Z</time>
      </trkpt>
      <trkpt lat="43.56201" lon="3.82397">
        <ele>23.5</ele>
        <time>2021-01-09T13:46:29Z</time>
      </trkpt>
      <trkpt lat="43.56203" lon="3.82396">
        <ele>23.6</ele>
        <time>2021-01-09T13:46:30Z</time>
      </trkpt>
      <trkpt lat="43.56204" lon="3.82394">
        <ele>23.7</ele>
        <time>2021-01-09T13:46:31Z</time>
      </trkpt>
      <trkpt lat="43.56205" lon="3.82392">
        <ele>23.8</ele>
        <time>2021-01-09T13:46:32Z</time>
      </trkpt>
      <trkpt lat="43.56206" lon="3.8239">
        <ele>24</ele>
        <time>2021-01-09T13:46:33Z</time>
      </trkpt>
      <trkpt lat="43.56208" lon="3.82385">
        <ele>24</ele>
        <time>2021-01-09T13:46:34Z</time>
      </trkpt>
      <trkpt lat="43.56209" lon="3.82382">
        <ele>24</ele>
        <time>2021-01-09T13:46:35Z</time>
      </trkpt>
      <trkpt lat="43.5621" lon="3.82379">
        <ele>24.1</ele>
        <time>2021-01-09T13:46:36Z</time>
      </trkpt>
      <trkpt lat="43.56211" lon="3.82376">
        <ele>24.1</ele>
        <time>2021-01-09T13:46:38Z</time>
      </trkpt>
      <trkpt lat="43.56212" lon="3.82373">
        <ele>24.1</ele>
        <time>2021-01-09T13:46:39Z</time>
      </trkpt>
      <trkpt lat="43.56213" lon="3.82371">
        <ele>24.1</ele>
        <time>2021-01-09T13:46:40Z</time>
      </trkpt>
      <trkpt lat="43.56215" lon="3.8237">
        <ele>24.2</ele>
        <time>2021-01-09T13:46:41Z</time>
      </trkpt>
      <trkpt lat="43.56217" lon="3.82369">
        <ele>24.2</ele>
        <time>2021-01-09T13:46:42Z</time>
      </trkpt>
      <trkpt lat="43.56219" lon="3.82368">
        <ele>25</ele>
        <time>2021-01-09T13:46:43Z</time>
      </trkpt>
      <trkpt lat="43.56221" lon="3.82368">
        <ele>24.2</ele>
        <time>2021-01-09T13:46:44Z</time>
      </trkpt>
      <trkpt lat="43.56224" lon="3.82366">
        <ele>24.3</ele>
        <time>2021-01-09T13:46:45Z</time>
      </trkpt>
      <trkpt lat="43.56226" lon="3.82365">
        <ele>24.4</ele>
        <time>2021-01-09T13:46:46Z</time>
      </trkpt>
      <trkpt lat="43.56228" lon="3.82365">
        <ele>24.6</ele>
        <time>2021-01-09T13:46:47Z</time>
      </trkpt>
      <trkpt lat="43.5623" lon="3.82366">
        <ele>24.7</ele>
        <time>2021-01-09T13:46:49Z</time>
      </trkpt>
      <trkpt lat="43.5623" lon="3.82366">
        <ele>25</ele>
        <time>2021-01-09T13:46:54Z</time>
      </trkpt>
      <trkpt lat="43.56225" lon="3.82356">
        <ele>26</ele>
        <time>2021-01-09T13:47:21Z</time>
      </trkpt>
      <trkpt lat="43.56225" lon="3.82354">
        <ele>24.4</ele>
        <time>2021-01-09T13:47:22Z</time>
      </trkpt>
      <trkpt lat="43.56225" lon="3.82349">
        <ele>24.5</ele>
        <time>2021-01-09T13:47:24Z</time>
      </trkpt>
      <trkpt lat="43.56227" lon="3.82347">
        <ele>24.7</ele>
        <time>2021-01-09T13:47:25Z</time>
      </trkpt>
      <trkpt lat="43.56228" lon="3.82346">
        <ele>24.7</ele>
        <time>2021-01-09T13:47:26Z</time>
      </trkpt>
      <trkpt lat="43.56231" lon="3.82342">
        <ele>24.9</ele>
        <time>2021-01-09T13:47:28Z</time>
      </trkpt>
      <trkpt lat="43.56232" lon="3.82339">
        <ele>24.9</ele>
        <time>2021-01-09T13:47:29Z</time>
      </trkpt>
      <trkpt lat="43.56233" lon="3.82336">
        <ele>25</ele>
        <time>2021-01-09T13:47:30Z</time>
      </trkpt>
      <trkpt lat="43.56234" lon="3.82333">
        <ele>26</ele>
        <time>2021-01-09T13:47:31Z</time>
      </trkpt>
      <trkpt lat="43.56235" lon="3.8233">
        <ele>25</ele>
        <time>2021-01-09T13:47:32Z</time>
      </trkpt>
      <trkpt lat="43.56236" lon="3.82327">
        <ele>25</ele>
        <time>2021-01-09T13:47:33Z</time>
      </trkpt>
      <trkpt lat="43.56236" lon="3.82324">
        <ele>25</ele>
        <time>2021-01-09T13:47:34Z</time>
      </trkpt>
      <trkpt lat="43.56237" lon="3.82321">
        <ele>25</ele>
        <time>2021-01-09T13:47:35Z</time>
      </trkpt>
      <trkpt lat="43.56238" lon="3.82318">
        <ele>25</ele>
        <time>2021-01-09T13:47:36Z</time>
      </trkpt>
      <trkpt lat="43.5624" lon="3.82315">
        <ele>25</ele>
        <time>2021-01-09T13:47:37Z</time>
      </trkpt>
      <trkpt lat="43.56241" lon="3.82312">
        <ele>25</ele>
        <time>2021-01-09T13:47:38Z</time>
      </trkpt>
      <trkpt lat="43.56241" lon="3.82309">
        <ele>25</ele>
        <time>2021-01-09T13:47:39Z</time>
      </trkpt>
      <trkpt lat="43.56242" lon="3.82305">
        <ele>25</ele>
        <time>2021-01-09T13:47:40Z</time>
      </trkpt>
      <trkpt lat="43.56242" lon="3.82299">
        <ele>27</ele>
        <time>2021-01-09T13:47:41Z</time>
      </trkpt>
      <trkpt lat="43.56242" lon="3.82296">
        <ele>25.2</ele>
        <time>2021-01-09T13:47:42Z</time>
      </trkpt>
      <trkpt lat="43.56243" lon="3.82292">
        <ele>25.2</ele>
        <time>2021-01-09T13:47:44Z</time>
      </trkpt>
      <trkpt lat="43.56241" lon="3.82288">
        <ele>25.4</ele>
        <time>2021-01-09T13:47:46Z</time>
      </trkpt>
      <trkpt lat="43.56239" lon="3.82284">
        <ele>25.6</ele>
        <time>2021-01-09T13:47:48Z</time>
      </trkpt>
      <trkpt lat="43.56238" lon="3.8228">
        <ele>27</ele>
        <time>2021-01-09T13:47:51Z</time>
      </trkpt>
      <trkpt lat="43.56238" lon="3.82277">
        <ele>25.9</ele>
        <time>2021-01-09T13:47:52Z</time>
      </trkpt>
      <trkpt lat="43.56239" lon="3.82275">
        <ele>25.9</ele>
        <time>2021-01-09T13:47:53Z</time>
      </trkpt>
      <trkpt lat="43.5624" lon="3.82272">
        <ele>25.9</ele>
        <time>2021-01-09T13:47:54Z</time>
      </trkpt>
      <trkpt lat="43.56241" lon="3.8227">
        <ele>25.8</ele>
        <time>2021-01-09T13:47:55Z</time>
      </trkpt>
      <trkpt lat="43.56241" lon="3.82267">
        <ele>25.9</ele>
        <time>2021-01-09T13:47:56Z</time>
      </trkpt>
      <trkpt lat="43.56241" lon="3.82264">
        <ele>26</ele>
        <time>2021-01-09T13:47:57Z</time>
      </trkpt>
      <trkpt lat="43.56242" lon="3.82261">
        <ele>26</ele>
        <time>2021-01-09T13:47:58Z</time>
      </trkpt>
      <trkpt lat="43.56242" lon="3.82258">
        <ele>26.1</ele>
        <time>2021-01-09T13:47:59Z</time>
      </trkpt>
      <trkpt lat="43.56242" lon="3.82255">
        <ele>26.2</ele>
        <time>2021-01-09T13:48:00Z</time>
      </trkpt>
      <trkpt lat="43.56243" lon="3.82252">
        <ele>28</ele>
        <time>2021-01-09T13:48:01Z</time>
      </trkpt>
      <trkpt lat="43.56244" lon="3.8225">
        <ele>26.2</ele>
        <time>2021-01-09T13:48:02Z</time>
      </trkpt>
      <trkpt lat="43.56246" lon="3.82249">
        <ele>26.1</ele>
        <time>2021-01-09T13:48:03Z</time>
      </trkpt>
      <trkpt lat="43.56248" lon="3.82246">
        <ele>26.1</ele>
        <time>2021-01-09T13:48:04Z</time>
      </trkpt>
      <trkpt lat="43.56249" lon="3.82241">
        <ele>26</ele>
        <time>2021-01-09T13:48:05Z</time>
      </trkpt>
      <trkpt lat="43.5625" lon="3.82237">
        <ele>26</ele>
        <time>2021-01-09T13:48:06Z</time>
      </trkpt>
      <trkpt lat="43.5625" lon="3.82234">
        <ele>26</ele>
        <time>2021-01-09T13:48:07Z</time>
      </trkpt>
      <trkpt lat="43.56251" lon="3.82231">
        <ele>26</ele>
        <time>2021-01-09T13:48:08Z</time>
      </trkpt>
      <trkpt lat="43.56253" lon="3.82228">
        <ele>26.1</ele>
        <time>2021-01-09T13:48:10Z</time>
      </trkpt>
      <trkpt lat="43.56255" lon="3.82225">
        <ele>28</ele>
        <time>2021-01-09T13:48:11Z</time>
      </trkpt>
      <trkpt lat="43.56257" lon="3.82222">
        <ele>26.3</ele>
        <time>2021-01-09T13:48:12Z</time>
      </trkpt>
      <trkpt lat="43.56259" lon="3.82219">
        <ele>26.4</ele>
        <time>2021-01-09T13:48:13Z</time>
      </trkpt>
      <trkpt lat="43.56262" lon="3.82216">
        <ele>26.6</ele>
        <time>2021-01-09T13:48:14Z</time>
      </trkpt>
      <trkpt lat="43.56263" lon="3.82212">
        <ele>26.7</ele>
        <time>2021-01-09T13:48:15Z</time>
      </trkpt>
      <trkpt lat="43.56265" lon="3.8221">
        <ele>26.7</ele>
        <time>2021-01-09T13:48:16Z</time>
      </trkpt>
      <trkpt lat="43.56268" lon="3.82208">
        <ele>26.8</ele>
        <time>2021-01-09T13:48:18Z</time>
      </trkpt>
      <trkpt lat="43.56271" lon="3.82206">
        <ele>26.9</ele>
        <time>2021-01-09T13:48:20Z</time>
      </trkpt>
      <trkpt lat="43.56272" lon="3.82204">
        <ele>28</ele>
        <time>2021-01-09T13:48:21Z</time>
      </trkpt>
      <trkpt lat="43.56273" lon="3.82202">
        <ele>27</ele>
        <time>2021-01-09T13:48:22Z</time>
      </trkpt>
      <trkpt lat="43.56274" lon="3.822">
        <ele>27</ele>
        <time>2021-01-09T13:48:23Z</time>
      </trkpt>
      <trkpt lat="43.56275" lon="3.82198">
        <ele>27</ele>
        <time>2021-01-09T13:48:24Z</time>
      </trkpt>
      <trkpt lat="43.56277" lon="3.82195">
        <ele>27</ele>
        <time>2021-01-09T13:48:25Z</time>
      </trkpt>
      <trkpt lat="43.56279" lon="3.82193">
        <ele>27.1</ele>
        <time>2021-01-09T13:48:26Z</time>
      </trkpt>
      <trkpt lat="43.56281" lon="3.82192">
        <ele>27.2</ele>
        <time>2021-01-09T13:48:27Z</time>
      </trkpt>
      <trkpt lat="43.56283" lon="3.82191">
        <ele>27.2</ele>
        <time>2021-01-09T13:48:28Z</time>
      </trkpt>
      <trkpt lat="43.56285" lon="3.82189">
        <ele>27.3</ele>
        <time>2021-01-09T13:48:29Z</time>
      </trkpt>
      <trkpt lat="43.56287" lon="3.82187">
        <ele>27.4</ele>
        <time>2021-01-09T13:48:30Z</time>
      </trkpt>
      <trkpt lat="43.56289" lon="3.82184">
        <ele>28</ele>
        <time>2021-01-09T13:48:31Z</time>
      </trkpt>
      <trkpt lat="43.56288" lon="3.82181">
        <ele>27.8</ele>
        <time>2021-01-09T13:48:32Z</time>
      </trkpt>
      <trkpt lat="43.56288" lon="3.82178">
        <ele>28</ele>
        <time>2021-01-09T13:48:33Z</time>
      </trkpt>
      <trkpt lat="43.56288" lon="3.82175">
        <ele>28.1</ele>
        <time>2021-01-09T13:48:34Z</time>
      </trkpt>
      <trkpt lat="43.56289" lon="3.82173">
        <ele>28.2</ele>
        <time>2021-01-09T13:48:35Z</time>
      </trkpt>
      <trkpt lat="43.5629" lon="3.8217">
        <ele>28.4</ele>
        <time>2021-01-09T13:48:36Z</time>
      </trkpt>
      <trkpt lat="43.56292" lon="3.82167">
        <ele>28.5</ele>
        <time>2021-01-09T13:48:37Z</time>
      </trkpt>
      <trkpt lat="43.56293" lon="3.82165">
        <ele>28.5</ele>
        <time>2021-01-09T13:48:38Z</time>
      </trkpt>
      <trkpt lat="43.56294" lon="3.82162">
        <ele>28.6</ele>
        <time>2021-01-09T13:48:39Z</time>
      </trkpt>
      <trkpt lat="43.56294" lon="3.8216">
        <ele>28.7</ele>
        <time>2021-01-09T13:48:40Z</time>
      </trkpt>
      <trkpt lat="43.56294" lon="3.82157">
        <ele>29</ele>
        <time>2021-01-09T13:48:41Z</time>
      </trkpt>
      <trkpt lat="43.56295" lon="3.82154">
        <ele>28.8</ele>
        <time>2021-01-09T13:48:42Z</time>
      </trkpt>
      <trkpt lat="43.56296" lon="3.82152">
        <ele>28.9</ele>
        <time>2021-01-09T13:48:43Z</time>
      </trkpt>
      <trkpt lat="43.56296" lon="3.8215">
        <ele>30</ele>
        <time>2021-01-09T13:48:50Z</time>
      </trkpt>
      <trkpt lat="43.56304" lon="3.8215">
        <ele>31</ele>
        <time>2021-01-09T13:50:09Z</time>
      </trkpt>
      <trkpt lat="43.56306" lon="3.82151">
        <ele>28.6</ele>
        <time>2021-01-09T13:50:10Z</time>
      </trkpt>
      <trkpt lat="43.56308" lon="3.82152">
        <ele>28.5</ele>
        <time>2021-01-09T13:50:11Z</time>
      </trkpt>
      <trkpt lat="43.5631" lon="3.82154">
        <ele>28.5</ele>
        <time>2021-01-09T13:50:12Z</time>
      </trkpt>
      <trkpt lat="43.56313" lon="3.82155">
        <ele>28.4</ele>
        <time>2021-01-09T13:50:13Z</time>
      </trkpt>
      <trkpt lat="43.56317" lon="3.82155">
        <ele>28.4</ele>
        <time>2021-01-09T13:50:14Z</time>
      </trkpt>
      <trkpt lat="43.5632" lon="3.82154">
        <ele>28.5</ele>
        <time>2021-01-09T13:50:15Z</time>
      </trkpt>
      <trkpt lat="43.56324" lon="3.82152">
        <ele>28.5</ele>
        <time>2021-01-09T13:50:16Z</time>
      </trkpt>
      <trkpt lat="43.56327" lon="3.82149">
        <ele>28.6</ele>
        <time>2021-01-09T13:50:17Z</time>
      </trkpt>
      <trkpt lat="43.56331" lon="3.82147">
        <ele>28.7</ele>
        <time>2021-01-09T13:50:18Z</time>
      </trkpt>
      <trkpt lat="43.56335" lon="3.82144">
        <ele>31</ele>
        <time>2021-01-09T13:50:19Z</time>
      </trkpt>
      <trkpt lat="43.56339" lon="3.82142">
        <ele>28.7</ele>
        <time>2021-01-09T13:50:20Z</time>
      </trkpt>
      <trkpt lat="43.56343" lon="3.8214">
        <ele>28.6</ele>
        <time>2021-01-09T13:50:21Z</time>
      </trkpt>
      <trkpt lat="43.56347" lon="3.82138">
        <ele>28.6</ele>
        <time>2021-01-09T13:50:22Z</time>
      </trkpt>
      <trkpt lat="43.5635" lon="3.82137">
        <ele>28.5</ele>
        <time>2021-01-09T13:50:23Z</time>
      </trkpt>
      <trkpt lat="43.56353" lon="3.82135">
        <ele>28.5</ele>
        <time>2021-01-09T13:50:24Z</time>
      </trkpt>
      <trkpt lat="43.56356" lon="3.82133">
        <ele>28.6</ele>
        <time>2021-01-09T13:50:25Z</time>
      </trkpt>
      <trkpt lat="43.56359" lon="3.82131">
        <ele>28.6</ele>
        <time>2021-01-09T13:50:26Z</time>
      </trkpt>
      <trkpt lat="43.56362" lon="3.8213">
        <ele>28.7</ele>
        <time>2021-01-09T13:50:27Z</time>
      </trkpt>
      <trkpt lat="43.56365" lon="3.82129">
        <ele>28.8</ele>
        <time>2021-01-09T13:50:28Z</time>
      </trkpt>
      <trkpt lat="43.56371" lon="3.82126">
        <ele>31</ele>
        <time>2021-01-09T13:50:29Z</time>
      </trkpt>
      <trkpt lat="43.56374" lon="3.82125">
        <ele>29</ele>
        <time>2021-01-09T13:50:30Z</time>
      </trkpt>
      <trkpt lat="43.56377" lon="3.82123">
        <ele>29.1</ele>
        <time>2021-01-09T13:50:31Z</time>
      </trkpt>
      <trkpt lat="43.56379" lon="3.82122">
        <ele>29.1</ele>
        <time>2021-01-09T13:50:33Z</time>
      </trkpt>
      <trkpt lat="43.56382" lon="3.8212">
        <ele>29.1</ele>
        <time>2021-01-09T13:50:34Z</time>
      </trkpt>
      <trkpt lat="43.56384" lon="3.82119">
        <ele>29.1</ele>
        <time>2021-01-09T13:50:35Z</time>
      </trkpt>
      <trkpt lat="43.56388" lon="3.82117">
        <ele>29</ele>
        <time>2021-01-09T13:50:36Z</time>
      </trkpt>
      <trkpt lat="43.5639" lon="3.82116">
        <ele>29</ele>
        <time>2021-01-09T13:50:37Z</time>
      </trkpt>
      <trkpt lat="43.56393" lon="3.82115">
        <ele>31</ele>
        <time>2021-01-09T13:50:39Z</time>
      </trkpt>
      <trkpt lat="43.56395" lon="3.82114">
        <ele>29</ele>
        <time>2021-01-09T13:50:40Z</time>
      </trkpt>
      <trkpt lat="43.56398" lon="3.82113">
        <ele>29</ele>
        <time>2021-01-09T13:50:41Z</time>
      </trkpt>
      <trkpt lat="43.56401" lon="3.82112">
        <ele>29</ele>
        <time>2021-01-09T13:50:42Z</time>
      </trkpt>
      <trkpt lat="43.56404" lon="3.82111">
        <ele>29</ele>
        <time>2021-01-09T13:50:43Z</time>
      </trkpt>
      <trkpt lat="43.56406" lon="3.8211">
        <ele>29.1</ele>
        <time>2021-01-09T13:50:44Z</time>
      </trkpt>
      <trkpt lat="43.56409" lon="3.82109">
        <ele>29.1</ele>
        <time>2021-01-09T13:50:45Z</time>
      </trkpt>
      <trkpt lat="43.56411" lon="3.82107">
        <ele>29.2</ele>
        <time>2021-01-09T13:50:46Z</time>
      </trkpt>
      <trkpt lat="43.56413" lon="3.82106">
        <ele>29.2</ele>
        <time>2021-01-09T13:50:47Z</time>
      </trkpt>
      <trkpt lat="43.56415" lon="3.82105">
        <ele>29.2</ele>
        <time>2021-01-09T13:50:48Z</time>
      </trkpt>
      <trkpt lat="43.56417" lon="3.82105">
        <ele>31</ele>
        <time>2021-01-09T13:50:49Z</time>
      </trkpt>
      <trkpt lat="43.56419" lon="3.82107">
        <ele>29.2</ele>
        <time>2021-01-09T13:50:50Z</time>
      </trkpt>
      <trkpt lat="43.56422" lon="3.82109">
        <ele>29.3</ele>
        <time>2021-01-09T13:50:51Z</time>
      </trkpt>
      <trkpt lat="43.56424" lon="3.82112">
        <ele>29.3</ele>
        <time>2021-01-09T13:50:52Z</time>
      </trkpt>
      <trkpt lat="43.56426" lon="3.82114">
        <ele>29.4</ele>
        <time>2021-01-09T13:50:53Z</time>
      </trkpt>
      <trkpt lat="43.56428" lon="3.82117">
        <ele>29.6</ele>
        <time>2021-01-09T13:50:54Z</time>
      </trkpt>
      <trkpt lat="43.5643" lon="3.82119">
        <ele>29.8</ele>
        <time>2021-01-09T13:50:55Z</time>
      </trkpt>
      <trkpt lat="43.56433" lon="3.82118">
        <ele>29.8</ele>
        <time>2021-01-09T13:50:56Z</time>
      </trkpt>
      <trkpt lat="43.56436" lon="3.82117">
        <ele>29.9</ele>
        <time>2021-01-09T13:50:57Z</time>
      </trkpt>
      <trkpt lat="43.56439" lon="3.82115">
        <ele>29.9</ele>
        <time>2021-01-09T13:50:58Z</time>
      </trkpt>
      <trkpt lat="43.56441" lon="3.82113">
        <ele>31</ele>
        <time>2021-01-09T13:50:59Z</time>
      </trkpt>
      <trkpt lat="43.56443" lon="3.8211">
        <ele>30</ele>
        <time>2021-01-09T13:51:00Z</time>
      </trkpt>
      <trkpt lat="43.56446" lon="3.82108">
        <ele>30.1</ele>
        <time>2021-01-09T13:51:01Z</time>
      </trkpt>
      <trkpt lat="43.56449" lon="3.82105">
        <ele>30.3</ele>
        <time>2021-01-09T13:51:02Z</time>
      </trkpt>
      <trkpt lat="43.56451" lon="3.82103">
        <ele>30.4</ele>
        <time>2021-01-09T13:51:03Z</time>
      </trkpt>
      <trkpt lat="43.56453" lon="3.82101">
        <ele>30.5</ele>
        <time>2021-01-09T13:51:04Z</time>
      </trkpt>
      <trkpt lat="43.56456" lon="3.82099">
        <ele>30.7</ele>
        <time>2021-01-09T13:51:05Z</time>
      </trkpt>
      <trkpt lat="43.56458" lon="3.82097">
        <ele>30.7</ele>
        <time>2021-01-09T13:51:06Z</time>
      </trkpt>
      <trkpt lat="43.56461" lon="3.82095">
        <ele>30.8</ele>
        <time>2021-01-09T13:51:07Z</time>
      </trkpt>
      <trkpt lat="43.56463" lon="3.82093">
        <ele>30.9</ele>
        <time>2021-01-09T13:51:08Z</time>
      </trkpt>
      <trkpt lat="43.56466" lon="3.8209">
        <ele>32</ele>
        <time>2021-01-09T13:51:09Z</time>
      </trkpt>
      <trkpt lat="43.56468" lon="3.82088">
        <ele>31</ele>
        <time>2021-01-09T13:51:10Z</time>
      </trkpt>
      <trkpt lat="43.56471" lon="3.82086">
        <ele>31</ele>
        <time>2021-01-09T13:51:11Z</time>
      </trkpt>
      <trkpt lat="43.56473" lon="3.82084">
        <ele>31.1</ele>
        <time>2021-01-09T13:51:12Z</time>
      </trkpt>
      <trkpt lat="43.56476" lon="3.82082">
        <ele>31.1</ele>
        <time>2021-01-09T13:51:13Z</time>
      </trkpt>
      <trkpt lat="43.56478" lon="3.8208">
        <ele>31.2</ele>
        <time>2021-01-09T13:51:14Z</time>
      </trkpt>
      <trkpt lat="43.56481" lon="3.82078">
        <ele>31.3</ele>
        <time>2021-01-09T13:51:15Z</time>
      </trkpt>
      <trkpt lat="43.56483" lon="3.82076">
        <ele>31.3</ele>
        <time>2021-01-09T13:51:16Z</time>
      </trkpt>
      <trkpt lat="43.56486" lon="3.82073">
        <ele>31.3</ele>
        <time>2021-01-09T13:51:17Z</time>
      </trkpt>
      <trkpt lat="43.56488" lon="3.82071">
        <ele>31.3</ele>
        <time>2021-01-09T13:51:18Z</time>
      </trkpt>
      <trkpt lat="43.56491" lon="3.82069">
        <ele>33</ele>
        <time>2021-01-09T13:51:19Z</time>
      </trkpt>
      <trkpt lat="43.56494" lon="3.82067">
        <ele>31.3</ele>
        <time>2021-01-09T13:51:20Z</time>
      </trkpt>
      <trkpt lat="43.56496" lon="3.82065">
        <ele>31.3</ele>
        <time>2021-01-09T13:51:21Z</time>
      </trkpt>
      <trkpt lat="43.56499" lon="3.82063">
        <ele>31.3</ele>
        <time>2021-01-09T13:51:22Z</time>
      </trkpt>
      <trkpt lat="43.56502" lon="3.82061">
        <ele>31.3</ele>
        <time>2021-01-09T13:51:23Z</time>
      </trkpt>
      <trkpt lat="43.56505" lon="3.82059">
        <ele>31.5</ele>
        <time>2021-01-09T13:51:24Z</time>
      </trkpt>
      <trkpt lat="43.56507" lon="3.82058">
        <ele>31.6</ele>
        <time>2021-01-09T13:51:25Z</time>
      </trkpt>
      <trkpt lat="43.5651" lon="3.82057">
        <ele>31.8</ele>
        <time>2021-01-09T13:51:26Z</time>
      </trkpt>
      <trkpt lat="43.56512" lon="3.82056">
        <ele>31.9</ele>
        <time>2021-01-09T13:51:27Z</time>
      </trkpt>
      <trkpt lat="43.56515" lon="3.82055">
        <ele>32.1</ele>
        <time>2021-01-09T13:51:28Z</time>
      </trkpt>
      <trkpt lat="43.56517" lon="3.82054">
        <ele>33</ele>
        <time>2021-01-09T13:51:29Z</time>
      </trkpt>
      <trkpt lat="43.56519" lon="3.82051">
        <ele>32.3</ele>
        <time>2021-01-09T13:51:30Z</time>
      </trkpt>
      <trkpt lat="43.5652" lon="3.82048">
        <ele>32.2</ele>
        <time>2021-01-09T13:51:31Z</time>
      </trkpt>
      <trkpt lat="43.56521" lon="3.82045">
        <ele>32.2</ele>
        <time>2021-01-09T13:51:32Z</time>
      </trkpt>
      <trkpt lat="43.56521" lon="3.82041">
        <ele>32.1</ele>
        <time>2021-01-09T13:51:33Z</time>
      </trkpt>
      <trkpt lat="43.5652" lon="3.82038">
        <ele>32</ele>
        <time>2021-01-09T13:51:34Z</time>
      </trkpt>
      <trkpt lat="43.56518" lon="3.82035">
        <ele>31.8</ele>
        <time>2021-01-09T13:51:35Z</time>
      </trkpt>
      <trkpt lat="43.56517" lon="3.82032">
        <ele>31.7</ele>
        <time>2021-01-09T13:51:36Z</time>
      </trkpt>
      <trkpt lat="43.56515" lon="3.82028">
        <ele>31.5</ele>
        <time>2021-01-09T13:51:37Z</time>
      </trkpt>
      <trkpt lat="43.56514" lon="3.82025">
        <ele>31.6</ele>
        <time>2021-01-09T13:51:38Z</time>
      </trkpt>
      <trkpt lat="43.56512" lon="3.82021">
        <ele>33</ele>
        <time>2021-01-09T13:51:39Z</time>
      </trkpt>
      <trkpt lat="43.5651" lon="3.82018">
        <ele>31.6</ele>
        <time>2021-01-09T13:51:40Z</time>
      </trkpt>
      <trkpt lat="43.56508" lon="3.82015">
        <ele>31.6</ele>
        <time>2021-01-09T13:51:41Z</time>
      </trkpt>
      <trkpt lat="43.56505" lon="3.82012">
        <ele>31.6</ele>
        <time>2021-01-09T13:51:42Z</time>
      </trkpt>
      <trkpt lat="43.56502" lon="3.82011">
        <ele>31.6</ele>
        <time>2021-01-09T13:51:43Z</time>
      </trkpt>
      <trkpt lat="43.56499" lon="3.8201">
        <ele>31.7</ele>
        <time>2021-01-09T13:51:44Z</time>
      </trkpt>
      <trkpt lat="43.56495" lon="3.8201">
        <ele>31.8</ele>
        <time>2021-01-09T13:51:45Z</time>
      </trkpt>
      <trkpt lat="43.56492" lon="3.82009">
        <ele>32</ele>
        <time>2021-01-09T13:51:46Z</time>
      </trkpt>
      <trkpt lat="43.56489" lon="3.82008">
        <ele>32.1</ele>
        <time>2021-01-09T13:51:47Z</time>
      </trkpt>
      <trkpt lat="43.56487" lon="3.82006">
        <ele>32.3</ele>
        <time>2021-01-09T13:51:48Z</time>
      </trkpt>
      <trkpt lat="43.56484" lon="3.82002">
        <ele>34</ele>
        <time>2021-01-09T13:51:49Z</time>
      </trkpt>
      <trkpt lat="43.56482" lon="3.81999">
        <ele>32.7</ele>
        <time>2021-01-09T13:51:50Z</time>
      </trkpt>
      <trkpt lat="43.56481" lon="3.81995">
        <ele>32.9</ele>
        <time>2021-01-09T13:51:51Z</time>
      </trkpt>
      <trkpt lat="43.5648" lon="3.81992">
        <ele>33</ele>
        <time>2021-01-09T13:51:52Z</time>
      </trkpt>
      <trkpt lat="43.56478" lon="3.81988">
        <ele>33.2</ele>
        <time>2021-01-09T13:51:53Z</time>
      </trkpt>
      <trkpt lat="43.56476" lon="3.81985">
        <ele>33.4</ele>
        <time>2021-01-09T13:51:54Z</time>
      </trkpt>
      <trkpt lat="43.56475" lon="3.81982">
        <ele>33.5</ele>
        <time>2021-01-09T13:51:55Z</time>
      </trkpt>
      <trkpt lat="43.56472" lon="3.81979">
        <ele>33.8</ele>
        <time>2021-01-09T13:51:56Z</time>
      </trkpt>
      <trkpt lat="43.56471" lon="3.81975">
        <ele>33.9</ele>
        <time>2021-01-09T13:51:57Z</time>
      </trkpt>
      <trkpt lat="43.56469" lon="3.81972">
        <ele>34.1</ele>
        <time>2021-01-09T13:51:58Z</time>
      </trkpt>
      <trkpt lat="43.56468" lon="3.81968">
        <ele>35</ele>
        <time>2021-01-09T13:51:59Z</time>
      </trkpt>
      <trkpt lat="43.56467" lon="3.81964">
        <ele>34.2</ele>
        <time>2021-01-09T13:52:00Z</time>
      </trkpt>
      <trkpt lat="43.56467" lon="3.8196">
        <ele>34.3</ele>
        <time>2021-01-09T13:52:01Z</time>
      </trkpt>
      <trkpt lat="43.56466" lon="3.81956">
        <ele>34.4</ele>
        <time>2021-01-09T13:52:02Z</time>
      </trkpt>
      <trkpt lat="43.56465" lon="3.81952">
        <ele>34.4</ele>
        <time>2021-01-09T13:52:03Z</time>
      </trkpt>
      <trkpt lat="43.56464" lon="3.81948">
        <ele>34.6</ele>
        <time>2021-01-09T13:52:04Z</time>
      </trkpt>
      <trkpt lat="43.56463" lon="3.81945">
        <ele>34.7</ele>
        <time>2021-01-09T13:52:05Z</time>
      </trkpt>
      <trkpt lat="43.56462" lon="3.81942">
        <ele>34.8</ele>
        <time>2021-01-09T13:52:06Z</time>
      </trkpt>
      <trkpt lat="43.56461" lon="3.81939">
        <ele>34.9</ele>
        <time>2021-01-09T13:52:07Z</time>
      </trkpt>
      <trkpt lat="43.5646" lon="3.81936">
        <ele>35.1</ele>
        <time>2021-01-09T13:52:08Z</time>
      </trkpt>
      <trkpt lat="43.5646" lon="3.81932">
        <ele>37</ele>
        <time>2021-01-09T13:52:09Z</time>
      </trkpt>
      <trkpt lat="43.56459" lon="3.81927">
        <ele>35.3</ele>
        <time>2021-01-09T13:52:10Z</time>
      </trkpt>
      <trkpt lat="43.56458" lon="3.81923">
        <ele>35.4</ele>
        <time>2021-01-09T13:52:11Z</time>
      </trkpt>
      <trkpt lat="43.56457" lon="3.81919">
        <ele>35.5</ele>
        <time>2021-01-09T13:52:12Z</time>
      </trkpt>
      <trkpt lat="43.56456" lon="3.81915">
        <ele>35.6</ele>
        <time>2021-01-09T13:52:13Z</time>
      </trkpt>
      <trkpt lat="43.56456" lon="3.81915">
        <ele>37</ele>
        <time>2021-01-09T13:52:20Z</time>
      </trkpt>
      <trkpt lat="43.56454" lon="3.81908">
        <ele>37</ele>
        <time>2021-01-09T13:52:23Z</time>
      </trkpt>
      <trkpt lat="43.56453" lon="3.81905">
        <ele>36</ele>
        <time>2021-01-09T13:52:24Z</time>
      </trkpt>
      <trkpt lat="43.56453" lon="3.81903">
        <ele>36</ele>
        <time>2021-01-09T13:52:25Z</time>
      </trkpt>
      <trkpt lat="43.56452" lon="3.819">
        <ele>36.2</ele>
        <time>2021-01-09T13:52:26Z</time>
      </trkpt>
      <trkpt lat="43.56451" lon="3.81897">
        <ele>36.3</ele>
        <time>2021-01-09T13:52:27Z</time>
      </trkpt>
      <trkpt lat="43.5645" lon="3.81894">
        <ele>36.5</ele>
        <time>2021-01-09T13:52:28Z</time>
      </trkpt>
      <trkpt lat="43.5645" lon="3.81891">
        <ele>36.5</ele>
        <time>2021-01-09T13:52:29Z</time>
      </trkpt>
      <trkpt lat="43.5645" lon="3.81887">
        <ele>36.7</ele>
        <time>2021-01-09T13:52:30Z</time>
      </trkpt>
      <trkpt lat="43.5645" lon="3.81884">
        <ele>36.8</ele>
        <time>2021-01-09T13:52:31Z</time>
      </trkpt>
      <trkpt lat="43.5645" lon="3.81881">
        <ele>36.9</ele>
        <time>2021-01-09T13:52:32Z</time>
      </trkpt>
      <trkpt lat="43.5645" lon="3.81877">
        <ele>37</ele>
        <time>2021-01-09T13:52:33Z</time>
      </trkpt>
      <trkpt lat="43.5645" lon="3.81874">
        <ele>37.1</ele>
        <time>2021-01-09T13:52:34Z</time>
      </trkpt>
      <trkpt lat="43.56449" lon="3.81871">
        <ele>37.3</ele>
        <time>2021-01-09T13:52:35Z</time>
      </trkpt>
      <trkpt lat="43.56449" lon="3.81868">
        <ele>37.4</ele>
        <time>2021-01-09T13:52:36Z</time>
      </trkpt>
      <trkpt lat="43.56448" lon="3.81865">
        <ele>37.6</ele>
        <time>2021-01-09T13:52:37Z</time>
      </trkpt>
      <trkpt lat="43.56447" lon="3.81862">
        <ele>37.8</ele>
        <time>2021-01-09T13:52:38Z</time>
      </trkpt>
      <trkpt lat="43.56446" lon="3.81859">
        <ele>37.9</ele>
        <time>2021-01-09T13:52:39Z</time>
      </trkpt>
      <trkpt lat="43.56445" lon="3.81857">
        <ele>38</ele>
        <time>2021-01-09T13:52:40Z</time>
      </trkpt>
      <trkpt lat="43.56444" lon="3.81854">
        <ele>38</ele>
        <time>2021-01-09T13:52:41Z</time>
      </trkpt>
      <trkpt lat="43.56443" lon="3.81851">
        <ele>38.1</ele>
        <time>2021-01-09T13:52:42Z</time>
      </trkpt>
      <trkpt lat="43.56441" lon="3.81845">
        <ele>38</ele>
        <time>2021-01-09T13:52:43Z</time>
      </trkpt>
      <trkpt lat="43.56441" lon="3.81841">
        <ele>38.2</ele>
        <time>2021-01-09T13:52:44Z</time>
      </trkpt>
      <trkpt lat="43.56439" lon="3.81838">
        <ele>38.4</ele>
        <time>2021-01-09T13:52:45Z</time>
      </trkpt>
      <trkpt lat="43.56438" lon="3.81836">
        <ele>38.4</ele>
        <time>2021-01-09T13:52:46Z</time>
      </trkpt>
      <trkpt lat="43.56437" lon="3.81833">
        <ele>38.5</ele>
        <time>2021-01-09T13:52:47Z</time>
      </trkpt>
      <trkpt lat="43.56436" lon="3.8183">
        <ele>38.6</ele>
        <time>2021-01-09T13:52:48Z</time>
      </trkpt>
      <trkpt lat="43.56434" lon="3.81827">
        <ele>38.8</ele>
        <time>2021-01-09T13:52:49Z</time>
      </trkpt>
      <trkpt lat="43.56433" lon="3.81825">
        <ele>38.8</ele>
        <time>2021-01-09T13:52:50Z</time>
      </trkpt>
      <trkpt lat="43.56432" lon="3.81822">
        <ele>38.9</ele>
        <time>2021-01-09T13:52:51Z</time>
      </trkpt>
      <trkpt lat="43.5643" lon="3.81819">
        <ele>39</ele>
        <time>2021-01-09T13:52:53Z</time>
      </trkpt>
      <trkpt lat="43.56429" lon="3.81817">
        <ele>39.1</ele>
        <time>2021-01-09T13:52:54Z</time>
      </trkpt>
      <trkpt lat="43.56428" lon="3.81814">
        <ele>39.2</ele>
        <time>2021-01-09T13:52:55Z</time>
      </trkpt>
      <trkpt lat="43.56427" lon="3.81811">
        <ele>39.3</ele>
        <time>2021-01-09T13:52:56Z</time>
      </trkpt>
      <trkpt lat="43.56425" lon="3.81808">
        <ele>39.4</ele>
        <time>2021-01-09T13:52:57Z</time>
      </trkpt>
      <trkpt lat="43.56424" lon="3.81805">
        <ele>39.5</ele>
        <time>2021-01-09T13:52:58Z</time>
      </trkpt>
      <trkpt lat="43.56423" lon="3.81803">
        <ele>39.6</ele>
        <time>2021-01-09T13:52:59Z</time>
      </trkpt>
      <trkpt lat="43.56422" lon="3.818">
        <ele>39.7</ele>
        <time>2021-01-09T13:53:00Z</time>
      </trkpt>
      <trkpt lat="43.56421" lon="3.81797">
        <ele>39.7</ele>
        <time>2021-01-09T13:53:01Z</time>
      </trkpt>
      <trkpt lat="43.5642" lon="3.81794">
        <ele>39.8</ele>
        <time>2021-01-09T13:53:02Z</time>
      </trkpt>
      <trkpt lat="43.56418" lon="3.81792">
        <ele>40</ele>
        <time>2021-01-09T13:53:03Z</time>
      </trkpt>
      <trkpt lat="43.56417" lon="3.8179">
        <ele>40</ele>
        <time>2021-01-09T13:53:04Z</time>
      </trkpt>
      <trkpt lat="43.56415" lon="3.81788">
        <ele>40.1</ele>
        <time>2021-01-09T13:53:05Z</time>
      </trkpt>
      <trkpt lat="43.56413" lon="3.81786">
        <ele>40.1</ele>
        <time>2021-01-09T13:53:06Z</time>
      </trkpt>
      <trkpt lat="43.5641" lon="3.81785">
        <ele>40.2</ele>
        <time>2021-01-09T13:53:07Z</time>
      </trkpt>
      <trkpt lat="43.56408" lon="3.81783">
        <ele>40.3</ele>
        <time>2021-01-09T13:53:08Z</time>
      </trkpt>
      <trkpt lat="43.56406" lon="3.81782">
        <ele>40.4</ele>
        <time>2021-01-09T13:53:09Z</time>
      </trkpt>
      <trkpt lat="43.56404" lon="3.81781">
        <ele>40.5</ele>
        <time>2021-01-09T13:53:10Z</time>
      </trkpt>
      <trkpt lat="43.56399" lon="3.81778">
        <ele>40.6</ele>
        <time>2021-01-09T13:53:11Z</time>
      </trkpt>
      <trkpt lat="43.56396" lon="3.81777">
        <ele>41</ele>
        <time>2021-01-09T13:53:13Z</time>
      </trkpt>
      <trkpt lat="43.56394" lon="3.81776">
        <ele>40.9</ele>
        <time>2021-01-09T13:53:14Z</time>
      </trkpt>
      <trkpt lat="43.56392" lon="3.81775">
        <ele>41</ele>
        <time>2021-01-09T13:53:15Z</time>
      </trkpt>
      <trkpt lat="43.56389" lon="3.81774">
        <ele>41.1</ele>
        <time>2021-01-09T13:53:16Z</time>
      </trkpt>
      <trkpt lat="43.56387" lon="3.81772">
        <ele>41.2</ele>
        <time>2021-01-09T13:53:17Z</time>
      </trkpt>
      <trkpt lat="43.56385" lon="3.81771">
        <ele>41.2</ele>
        <time>2021-01-09T13:53:18Z</time>
      </trkpt>
      <trkpt lat="43.56382" lon="3.8177">
        <ele>41.2</ele>
        <time>2021-01-09T13:53:19Z</time>
      </trkpt>
      <trkpt lat="43.5638" lon="3.81769">
        <ele>41.2</ele>
        <time>2021-01-09T13:53:20Z</time>
      </trkpt>
      <trkpt lat="43.56378" lon="3.81768">
        <ele>41.2</ele>
        <time>2021-01-09T13:53:21Z</time>
      </trkpt>
      <trkpt lat="43.56375" lon="3.81766">
        <ele>41.2</ele>
        <time>2021-01-09T13:53:22Z</time>
      </trkpt>
      <trkpt lat="43.56372" lon="3.81765">
        <ele>41</ele>
        <time>2021-01-09T13:53:23Z</time>
      </trkpt>
      <trkpt lat="43.5637" lon="3.81763">
        <ele>41.2</ele>
        <time>2021-01-09T13:53:24Z</time>
      </trkpt>
      <trkpt lat="43.56367" lon="3.81761">
        <ele>41.1</ele>
        <time>2021-01-09T13:53:25Z</time>
      </trkpt>
      <trkpt lat="43.56364" lon="3.81759">
        <ele>41.1</ele>
        <time>2021-01-09T13:53:26Z</time>
      </trkpt>
      <trkpt lat="43.56361" lon="3.81757">
        <ele>41</ele>
        <time>2021-01-09T13:53:27Z</time>
      </trkpt>
      <trkpt lat="43.56357" lon="3.81754">
        <ele>40.9</ele>
        <time>2021-01-09T13:53:28Z</time>
      </trkpt>
      <trkpt lat="43.56354" lon="3.81752">
        <ele>40.7</ele>
        <time>2021-01-09T13:53:29Z</time>
      </trkpt>
      <trkpt lat="43.56352" lon="3.81749">
        <ele>40.7</ele>
        <time>2021-01-09T13:53:30Z</time>
      </trkpt>
      <trkpt lat="43.56349" lon="3.81747">
        <ele>40.6</ele>
        <time>2021-01-09T13:53:31Z</time>
      </trkpt>
      <trkpt lat="43.56346" lon="3.81744">
        <ele>40.6</ele>
        <time>2021-01-09T13:53:32Z</time>
      </trkpt>
      <trkpt lat="43.56343" lon="3.81742">
        <ele>42</ele>
        <time>2021-01-09T13:53:33Z</time>
      </trkpt>
      <trkpt lat="43.56341" lon="3.81739">
        <ele>40.6</ele>
        <time>2021-01-09T13:53:34Z</time>
      </trkpt>
      <trkpt lat="43.56338" lon="3.81736">
        <ele>40.6</ele>
        <time>2021-01-09T13:53:35Z</time>
      </trkpt>
      <trkpt lat="43.56335" lon="3.81734">
        <ele>40.6</ele>
        <time>2021-01-09T13:53:36Z</time>
      </trkpt>
      <trkpt lat="43.56332" lon="3.8173">
        <ele>40.7</ele>
        <time>2021-01-09T13:53:37Z</time>
      </trkpt>
      <trkpt lat="43.56328" lon="3.81727">
        <ele>40.6</ele>
        <time>2021-01-09T13:53:38Z</time>
      </trkpt>
      <trkpt lat="43.56325" lon="3.81725">
        <ele>40.6</ele>
        <time>2021-01-09T13:53:39Z</time>
      </trkpt>
      <trkpt lat="43.56321" lon="3.81722">
        <ele>40.6</ele>
        <time>2021-01-09T13:53:40Z</time>
      </trkpt>
      <trkpt lat="43.56317" lon="3.8172">
        <ele>40.5</ele>
        <time>2021-01-09T13:53:41Z</time>
      </trkpt>
      <trkpt lat="43.56314" lon="3.81718">
        <ele>40.4</ele>
        <time>2021-01-09T13:53:42Z</time>
      </trkpt>
      <trkpt lat="43.56311" lon="3.81715">
        <ele>42</ele>
        <time>2021-01-09T13:53:43Z</time>
      </trkpt>
      <trkpt lat="43.56308" lon="3.81713">
        <ele>40.4</ele>
        <time>2021-01-09T13:53:44Z</time>
      </trkpt>
      <trkpt lat="43.56305" lon="3.8171">
        <ele>40.4</ele>
        <time>2021-01-09T13:53:45Z</time>
      </trkpt>
      <trkpt lat="43.56302" lon="3.81709">
        <ele>40.5</ele>
        <time>2021-01-09T13:53:46Z</time>
      </trkpt>
      <trkpt lat="43.56299" lon="3.81708">
        <ele>40.5</ele>
        <time>2021-01-09T13:53:47Z</time>
      </trkpt>
      <trkpt lat="43.56296" lon="3.81706">
        <ele>40.6</ele>
        <time>2021-01-09T13:53:48Z</time>
      </trkpt>
      <trkpt lat="43.56293" lon="3.81703">
        <ele>40.7</ele>
        <time>2021-01-09T13:53:49Z</time>
      </trkpt>
      <trkpt lat="43.5629" lon="3.817">
        <ele>40.8</ele>
        <time>2021-01-09T13:53:50Z</time>
      </trkpt>
      <trkpt lat="43.56287" lon="3.81697">
        <ele>40.9</ele>
        <time>2021-01-09T13:53:51Z</time>
      </trkpt>
      <trkpt lat="43.56284" lon="3.81695">
        <ele>41</ele>
        <time>2021-01-09T13:53:52Z</time>
      </trkpt>
      <trkpt lat="43.56281" lon="3.81692">
        <ele>43</ele>
        <time>2021-01-09T13:53:53Z</time>
      </trkpt>
      <trkpt lat="43.56278" lon="3.8169">
        <ele>41.2</ele>
        <time>2021-01-09T13:53:54Z</time>
      </trkpt>
      <trkpt lat="43.56275" lon="3.81688">
        <ele>41.3</ele>
        <time>2021-01-09T13:53:55Z</time>
      </trkpt>
      <trkpt lat="43.56272" lon="3.81687">
        <ele>41.5</ele>
        <time>2021-01-09T13:53:56Z</time>
      </trkpt>
      <trkpt lat="43.56269" lon="3.81686">
        <ele>41.6</ele>
        <time>2021-01-09T13:53:57Z</time>
      </trkpt>
      <trkpt lat="43.56266" lon="3.81684">
        <ele>41.8</ele>
        <time>2021-01-09T13:53:58Z</time>
      </trkpt>
      <trkpt lat="43.56263" lon="3.81683">
        <ele>41.9</ele>
        <time>2021-01-09T13:53:59Z</time>
      </trkpt>
      <trkpt lat="43.56261" lon="3.8168">
        <ele>42.1</ele>
        <time>2021-01-09T13:54:00Z</time>
      </trkpt>
      <trkpt lat="43.56259" lon="3.81678">
        <ele>42.3</ele>
        <time>2021-01-09T13:54:01Z</time>
      </trkpt>
      <trkpt lat="43.56256" lon="3.81675">
        <ele>42.5</ele>
        <time>2021-01-09T13:54:02Z</time>
      </trkpt>
      <trkpt lat="43.56254" lon="3.81673">
        <ele>43</ele>
        <time>2021-01-09T13:54:03Z</time>
      </trkpt>
      <trkpt lat="43.56252" lon="3.81671">
        <ele>42.8</ele>
        <time>2021-01-09T13:54:04Z</time>
      </trkpt>
      <trkpt lat="43.56249" lon="3.81669">
        <ele>42.9</ele>
        <time>2021-01-09T13:54:05Z</time>
      </trkpt>
      <trkpt lat="43.56247" lon="3.81667">
        <ele>43</ele>
        <time>2021-01-09T13:54:06Z</time>
      </trkpt>
      <trkpt lat="43.56244" lon="3.81665">
        <ele>43.1</ele>
        <time>2021-01-09T13:54:07Z</time>
      </trkpt>
      <trkpt lat="43.56242" lon="3.81664">
        <ele>43.1</ele>
        <time>2021-01-09T13:54:08Z</time>
      </trkpt>
      <trkpt lat="43.56239" lon="3.81662">
        <ele>43.2</ele>
        <time>2021-01-09T13:54:09Z</time>
      </trkpt>
      <trkpt lat="43.56236" lon="3.8166">
        <ele>43.2</ele>
        <time>2021-01-09T13:54:10Z</time>
      </trkpt>
      <trkpt lat="43.56233" lon="3.81658">
        <ele>43.3</ele>
        <time>2021-01-09T13:54:11Z</time>
      </trkpt>
      <trkpt lat="43.5623" lon="3.81656">
        <ele>43.4</ele>
        <time>2021-01-09T13:54:12Z</time>
      </trkpt>
      <trkpt lat="43.56227" lon="3.81654">
        <ele>44</ele>
        <time>2021-01-09T13:54:13Z</time>
      </trkpt>
      <trkpt lat="43.56225" lon="3.81652">
        <ele>43.5</ele>
        <time>2021-01-09T13:54:14Z</time>
      </trkpt>
      <trkpt lat="43.56222" lon="3.8165">
        <ele>43.6</ele>
        <time>2021-01-09T13:54:15Z</time>
      </trkpt>
      <trkpt lat="43.5622" lon="3.81647">
        <ele>43.8</ele>
        <time>2021-01-09T13:54:16Z</time>
      </trkpt>
      <trkpt lat="43.56217" lon="3.81643">
        <ele>44</ele>
        <time>2021-01-09T13:54:17Z</time>
      </trkpt>
      <trkpt lat="43.56216" lon="3.8164">
        <ele>44.2</ele>
        <time>2021-01-09T13:54:18Z</time>
      </trkpt>
      <trkpt lat="43.56214" lon="3.81636">
        <ele>44.4</ele>
        <time>2021-01-09T13:54:19Z</time>
      </trkpt>
      <trkpt lat="43.56212" lon="3.81632">
        <ele>44.6</ele>
        <time>2021-01-09T13:54:20Z</time>
      </trkpt>
      <trkpt lat="43.56211" lon="3.81628">
        <ele>44.8</ele>
        <time>2021-01-09T13:54:21Z</time>
      </trkpt>
      <trkpt lat="43.5621" lon="3.81625">
        <ele>44.9</ele>
        <time>2021-01-09T13:54:22Z</time>
      </trkpt>
      <trkpt lat="43.56208" lon="3.81621">
        <ele>45</ele>
        <time>2021-01-09T13:54:23Z</time>
      </trkpt>
      <trkpt lat="43.56207" lon="3.81617">
        <ele>45.3</ele>
        <time>2021-01-09T13:54:24Z</time>
      </trkpt>
      <trkpt lat="43.56205" lon="3.81614">
        <ele>45.5</ele>
        <time>2021-01-09T13:54:25Z</time>
      </trkpt>
      <trkpt lat="43.56203" lon="3.8161">
        <ele>45.7</ele>
        <time>2021-01-09T13:54:26Z</time>
      </trkpt>
      <trkpt lat="43.56201" lon="3.81607">
        <ele>45.9</ele>
        <time>2021-01-09T13:54:27Z</time>
      </trkpt>
      <trkpt lat="43.56199" lon="3.81604">
        <ele>46.1</ele>
        <time>2021-01-09T13:54:28Z</time>
      </trkpt>
      <trkpt lat="43.56197" lon="3.81601">
        <ele>46.3</ele>
        <time>2021-01-09T13:54:29Z</time>
      </trkpt>
      <trkpt lat="43.56195" lon="3.81597">
        <ele>46.5</ele>
        <time>2021-01-09T13:54:30Z</time>
      </trkpt>
      <trkpt lat="43.56194" lon="3.81594">
        <ele>46.6</ele>
        <time>2021-01-09T13:54:31Z</time>
      </trkpt>
      <trkpt lat="43.56192" lon="3.81591">
        <ele>46.7</ele>
        <time>2021-01-09T13:54:32Z</time>
      </trkpt>
      <trkpt lat="43.5619" lon="3.81588">
        <ele>47</ele>
        <time>2021-01-09T13:54:33Z</time>
      </trkpt>
      <trkpt lat="43.56188" lon="3.81586">
        <ele>46.9</ele>
        <time>2021-01-09T13:54:34Z</time>
      </trkpt>
      <trkpt lat="43.56186" lon="3.81583">
        <ele>47</ele>
        <time>2021-01-09T13:54:35Z</time>
      </trkpt>
      <trkpt lat="43.56184" lon="3.81581">
        <ele>47.1</ele>
        <time>2021-01-09T13:54:36Z</time>
      </trkpt>
      <trkpt lat="43.56182" lon="3.81578">
        <ele>47.2</ele>
        <time>2021-01-09T13:54:37Z</time>
      </trkpt>
      <trkpt lat="43.5618" lon="3.81575">
        <ele>47.3</ele>
        <time>2021-01-09T13:54:38Z</time>
      </trkpt>
      <trkpt lat="43.56178" lon="3.81572">
        <ele>47.4</ele>
        <time>2021-01-09T13:54:39Z</time>
      </trkpt>
      <trkpt lat="43.56176" lon="3.81568">
        <ele>47.6</ele>
        <time>2021-01-09T13:54:40Z</time>
      </trkpt>
      <trkpt lat="43.56175" lon="3.81565">
        <ele>47.7</ele>
        <time>2021-01-09T13:54:41Z</time>
      </trkpt>
      <trkpt lat="43.56174" lon="3.81562">
        <ele>47.8</ele>
        <time>2021-01-09T13:54:42Z</time>
      </trkpt>
      <trkpt lat="43.56171" lon="3.81559">
        <ele>48</ele>
        <time>2021-01-09T13:54:43Z</time>
      </trkpt>
      <trkpt lat="43.56169" lon="3.81558">
        <ele>47.9</ele>
        <time>2021-01-09T13:54:44Z</time>
      </trkpt>
      <trkpt lat="43.56167" lon="3.81555">
        <ele>48</ele>
        <time>2021-01-09T13:54:45Z</time>
      </trkpt>
      <trkpt lat="43.56166" lon="3.81551">
        <ele>48</ele>
        <time>2021-01-09T13:54:46Z</time>
      </trkpt>
      <trkpt lat="43.56165" lon="3.81547">
        <ele>48</ele>
        <time>2021-01-09T13:54:47Z</time>
      </trkpt>
      <trkpt lat="43.56165" lon="3.81542">
        <ele>48</ele>
        <time>2021-01-09T13:54:48Z</time>
      </trkpt>
      <trkpt lat="43.56164" lon="3.81538">
        <ele>47.9</ele>
        <time>2021-01-09T13:54:49Z</time>
      </trkpt>
      <trkpt lat="43.56162" lon="3.81535">
        <ele>47.9</ele>
        <time>2021-01-09T13:54:50Z</time>
      </trkpt>
      <trkpt lat="43.5616" lon="3.81532">
        <ele>47.8</ele>
        <time>2021-01-09T13:54:51Z</time>
      </trkpt>
      <trkpt lat="43.56157" lon="3.81529">
        <ele>47.7</ele>
        <time>2021-01-09T13:54:52Z</time>
      </trkpt>
      <trkpt lat="43.56155" lon="3.81524">
        <ele>49</ele>
        <time>2021-01-09T13:54:53Z</time>
      </trkpt>
      <trkpt lat="43.56154" lon="3.8152">
        <ele>47.5</ele>
        <time>2021-01-09T13:54:54Z</time>
      </trkpt>
      <trkpt lat="43.56152" lon="3.81516">
        <ele>47.5</ele>
        <time>2021-01-09T13:54:55Z</time>
      </trkpt>
      <trkpt lat="43.5615" lon="3.81512">
        <ele>47.4</ele>
        <time>2021-01-09T13:54:56Z</time>
      </trkpt>
      <trkpt lat="43.56148" lon="3.81509">
        <ele>47.3</ele>
        <time>2021-01-09T13:54:57Z</time>
      </trkpt>
      <trkpt lat="43.56147" lon="3.81504">
        <ele>47.3</ele>
        <time>2021-01-09T13:54:58Z</time>
      </trkpt>
      <trkpt lat="43.56147" lon="3.815">
        <ele>47.3</ele>
        <time>2021-01-09T13:54:59Z</time>
      </trkpt>
      <trkpt lat="43.56148" lon="3.81495">
        <ele>47.2</ele>
        <time>2021-01-09T13:55:00Z</time>
      </trkpt>
      <trkpt lat="43.5615" lon="3.81491">
        <ele>47.2</ele>
        <time>2021-01-09T13:55:01Z</time>
      </trkpt>
      <trkpt lat="43.56152" lon="3.81486">
        <ele>47.2</ele>
        <time>2021-01-09T13:55:02Z</time>
      </trkpt>
      <trkpt lat="43.56155" lon="3.81482">
        <ele>49</ele>
        <time>2021-01-09T13:55:03Z</time>
      </trkpt>
      <trkpt lat="43.56157" lon="3.81479">
        <ele>47.4</ele>
        <time>2021-01-09T13:55:04Z</time>
      </trkpt>
      <trkpt lat="43.56159" lon="3.81476">
        <ele>47.5</ele>
        <time>2021-01-09T13:55:05Z</time>
      </trkpt>
      <trkpt lat="43.56161" lon="3.81472">
        <ele>47.6</ele>
        <time>2021-01-09T13:55:06Z</time>
      </trkpt>
      <trkpt lat="43.56163" lon="3.81468">
        <ele>47.6</ele>
        <time>2021-01-09T13:55:07Z</time>
      </trkpt>
      <trkpt lat="43.56163" lon="3.81463">
        <ele>47.4</ele>
        <time>2021-01-09T13:55:08Z</time>
      </trkpt>
      <trkpt lat="43.56164" lon="3.81459">
        <ele>47.3</ele>
        <time>2021-01-09T13:55:09Z</time>
      </trkpt>
      <trkpt lat="43.56165" lon="3.81453">
        <ele>47.2</ele>
        <time>2021-01-09T13:55:10Z</time>
      </trkpt>
      <trkpt lat="43.56166" lon="3.81449">
        <ele>47.1</ele>
        <time>2021-01-09T13:55:11Z</time>
      </trkpt>
      <trkpt lat="43.56167" lon="3.81443">
        <ele>47</ele>
        <time>2021-01-09T13:55:12Z</time>
      </trkpt>
      <trkpt lat="43.56169" lon="3.81439">
        <ele>49</ele>
        <time>2021-01-09T13:55:13Z</time>
      </trkpt>
      <trkpt lat="43.5617" lon="3.81434">
        <ele>46.9</ele>
        <time>2021-01-09T13:55:14Z</time>
      </trkpt>
      <trkpt lat="43.56172" lon="3.81429">
        <ele>46.9</ele>
        <time>2021-01-09T13:55:15Z</time>
      </trkpt>
      <trkpt lat="43.56173" lon="3.81424">
        <ele>46.9</ele>
        <time>2021-01-09T13:55:16Z</time>
      </trkpt>
      <trkpt lat="43.56174" lon="3.81419">
        <ele>46.9</ele>
        <time>2021-01-09T13:55:17Z</time>
      </trkpt>
      <trkpt lat="43.56175" lon="3.81413">
        <ele>46.8</ele>
        <time>2021-01-09T13:55:18Z</time>
      </trkpt>
      <trkpt lat="43.56176" lon="3.81408">
        <ele>46.8</ele>
        <time>2021-01-09T13:55:19Z</time>
      </trkpt>
      <trkpt lat="43.56177" lon="3.81404">
        <ele>46.8</ele>
        <time>2021-01-09T13:55:20Z</time>
      </trkpt>
      <trkpt lat="43.56178" lon="3.81399">
        <ele>46.8</ele>
        <time>2021-01-09T13:55:21Z</time>
      </trkpt>
      <trkpt lat="43.56178" lon="3.81395">
        <ele>46.8</ele>
        <time>2021-01-09T13:55:22Z</time>
      </trkpt>
      <trkpt lat="43.56179" lon="3.8139">
        <ele>49</ele>
        <time>2021-01-09T13:55:23Z</time>
      </trkpt>
      <trkpt lat="43.5618" lon="3.81386">
        <ele>46.8</ele>
        <time>2021-01-09T13:55:24Z</time>
      </trkpt>
      <trkpt lat="43.5618" lon="3.81381">
        <ele>46.6</ele>
        <time>2021-01-09T13:55:25Z</time>
      </trkpt>
      <trkpt lat="43.56181" lon="3.81376">
        <ele>46.6</ele>
        <time>2021-01-09T13:55:26Z</time>
      </trkpt>
      <trkpt lat="43.56181" lon="3.81371">
        <ele>46.4</ele>
        <time>2021-01-09T13:55:27Z</time>
      </trkpt>
      <trkpt lat="43.56182" lon="3.81366">
        <ele>46.4</ele>
        <time>2021-01-09T13:55:28Z</time>
      </trkpt>
      <trkpt lat="43.56182" lon="3.81361">
        <ele>46.2</ele>
        <time>2021-01-09T13:55:29Z</time>
      </trkpt>
      <trkpt lat="43.56183" lon="3.81356">
        <ele>46.2</ele>
        <time>2021-01-09T13:55:30Z</time>
      </trkpt>
      <trkpt lat="43.56183" lon="3.8135">
        <ele>46</ele>
        <time>2021-01-09T13:55:31Z</time>
      </trkpt>
      <trkpt lat="43.56183" lon="3.81344">
        <ele>45.7</ele>
        <time>2021-01-09T13:55:32Z</time>
      </trkpt>
      <trkpt lat="43.56183" lon="3.81338">
        <ele>49</ele>
        <time>2021-01-09T13:55:33Z</time>
      </trkpt>
      <trkpt lat="43.56183" lon="3.81332">
        <ele>45.3</ele>
        <time>2021-01-09T13:55:34Z</time>
      </trkpt>
      <trkpt lat="43.56184" lon="3.81326">
        <ele>45.2</ele>
        <time>2021-01-09T13:55:35Z</time>
      </trkpt>
      <trkpt lat="43.56184" lon="3.8132">
        <ele>45</ele>
        <time>2021-01-09T13:55:36Z</time>
      </trkpt>
      <trkpt lat="43.56183" lon="3.81315">
        <ele>44.7</ele>
        <time>2021-01-09T13:55:37Z</time>
      </trkpt>
      <trkpt lat="43.56183" lon="3.81309">
        <ele>44.5</ele>
        <time>2021-01-09T13:55:38Z</time>
      </trkpt>
      <trkpt lat="43.56183" lon="3.81303">
        <ele>44.4</ele>
        <time>2021-01-09T13:55:39Z</time>
      </trkpt>
      <trkpt lat="43.56183" lon="3.81297">
        <ele>44.5</ele>
        <time>2021-01-09T13:55:40Z</time>
      </trkpt>
      <trkpt lat="43.56183" lon="3.81291">
        <ele>44.7</ele>
        <time>2021-01-09T13:55:41Z</time>
      </trkpt>
      <trkpt lat="43.56182" lon="3.81285">
        <ele>44.6</ele>
        <time>2021-01-09T13:55:42Z</time>
      </trkpt>
      <trkpt lat="43.56182" lon="3.81278">
        <ele>48</ele>
        <time>2021-01-09T13:55:43Z</time>
      </trkpt>
      <trkpt lat="43.56182" lon="3.81272">
        <ele>44.6</ele>
        <time>2021-01-09T13:55:44Z</time>
      </trkpt>
      <trkpt lat="43.56182" lon="3.81266">
        <ele>44.5</ele>
        <time>2021-01-09T13:55:45Z</time>
      </trkpt>
      <trkpt lat="43.56182" lon="3.8126">
        <ele>44.4</ele>
        <time>2021-01-09T13:55:46Z</time>
      </trkpt>
      <trkpt lat="43.56182" lon="3.81254">
        <ele>44.3</ele>
        <time>2021-01-09T13:55:47Z</time>
      </trkpt>
      <trkpt lat="43.56181" lon="3.81248">
        <ele>44.1</ele>
        <time>2021-01-09T13:55:48Z</time>
      </trkpt>
      <trkpt lat="43.56181" lon="3.81241">
        <ele>44.1</ele>
        <time>2021-01-09T13:55:49Z</time>
      </trkpt>
      <trkpt lat="43.5618" lon="3.81234">
        <ele>43.9</ele>
        <time>2021-01-09T13:55:50Z</time>
      </trkpt>
      <trkpt lat="43.56179" lon="3.81228">
        <ele>43.8</ele>
        <time>2021-01-09T13:55:51Z</time>
      </trkpt>
      <trkpt lat="43.56178" lon="3.81221">
        <ele>43.7</ele>
        <time>2021-01-09T13:55:52Z</time>
      </trkpt>
      <trkpt lat="43.56177" lon="3.81215">
        <ele>43.9</ele>
        <time>2021-01-09T13:55:53Z</time>
      </trkpt>
      <trkpt lat="43.56175" lon="3.81203">
        <ele>48</ele>
        <time>2021-01-09T13:55:54Z</time>
      </trkpt>
      <trkpt lat="43.56174" lon="3.81198">
        <ele>44.6</ele>
        <time>2021-01-09T13:55:55Z</time>
      </trkpt>
      <trkpt lat="43.56173" lon="3.81193">
        <ele>44.8</ele>
        <time>2021-01-09T13:55:56Z</time>
      </trkpt>
      <trkpt lat="43.56171" lon="3.81188">
        <ele>44.9</ele>
        <time>2021-01-09T13:55:58Z</time>
      </trkpt>
      <trkpt lat="43.5617" lon="3.81183">
        <ele>45.1</ele>
        <time>2021-01-09T13:55:59Z</time>
      </trkpt>
      <trkpt lat="43.56169" lon="3.81178">
        <ele>45.4</ele>
        <time>2021-01-09T13:56:00Z</time>
      </trkpt>
      <trkpt lat="43.56169" lon="3.81173">
        <ele>45.7</ele>
        <time>2021-01-09T13:56:01Z</time>
      </trkpt>
      <trkpt lat="43.56168" lon="3.81169">
        <ele>45.9</ele>
        <time>2021-01-09T13:56:02Z</time>
      </trkpt>
      <trkpt lat="43.56167" lon="3.81164">
        <ele>48</ele>
        <time>2021-01-09T13:56:03Z</time>
      </trkpt>
      <trkpt lat="43.56165" lon="3.8116">
        <ele>46.2</ele>
        <time>2021-01-09T13:56:04Z</time>
      </trkpt>
      <trkpt lat="43.56164" lon="3.81155">
        <ele>46.3</ele>
        <time>2021-01-09T13:56:05Z</time>
      </trkpt>
      <trkpt lat="43.56163" lon="3.8115">
        <ele>46.5</ele>
        <time>2021-01-09T13:56:06Z</time>
      </trkpt>
      <trkpt lat="43.56161" lon="3.81145">
        <ele>46.6</ele>
        <time>2021-01-09T13:56:07Z</time>
      </trkpt>
      <trkpt lat="43.5616" lon="3.81141">
        <ele>46.7</ele>
        <time>2021-01-09T13:56:08Z</time>
      </trkpt>
      <trkpt lat="43.56159" lon="3.81136">
        <ele>46.7</ele>
        <time>2021-01-09T13:56:09Z</time>
      </trkpt>
      <trkpt lat="43.56157" lon="3.81132">
        <ele>46.7</ele>
        <time>2021-01-09T13:56:10Z</time>
      </trkpt>
      <trkpt lat="43.56156" lon="3.81127">
        <ele>46.6</ele>
        <time>2021-01-09T13:56:11Z</time>
      </trkpt>
      <trkpt lat="43.56155" lon="3.81122">
        <ele>46.6</ele>
        <time>2021-01-09T13:56:12Z</time>
      </trkpt>
      <trkpt lat="43.56155" lon="3.81117">
        <ele>49</ele>
        <time>2021-01-09T13:56:13Z</time>
      </trkpt>
      <trkpt lat="43.56155" lon="3.81112">
        <ele>46.6</ele>
        <time>2021-01-09T13:56:14Z</time>
      </trkpt>
      <trkpt lat="43.56156" lon="3.81108">
        <ele>46.5</ele>
        <time>2021-01-09T13:56:15Z</time>
      </trkpt>
      <trkpt lat="43.56158" lon="3.81103">
        <ele>46.4</ele>
        <time>2021-01-09T13:56:16Z</time>
      </trkpt>
      <trkpt lat="43.5616" lon="3.811">
        <ele>46.4</ele>
        <time>2021-01-09T13:56:17Z</time>
      </trkpt>
      <trkpt lat="43.56162" lon="3.81096">
        <ele>46.3</ele>
        <time>2021-01-09T13:56:18Z</time>
      </trkpt>
      <trkpt lat="43.56164" lon="3.81093">
        <ele>46.3</ele>
        <time>2021-01-09T13:56:19Z</time>
      </trkpt>
      <trkpt lat="43.56166" lon="3.8109">
        <ele>46.2</ele>
        <time>2021-01-09T13:56:20Z</time>
      </trkpt>
      <trkpt lat="43.56167" lon="3.81088">
        <ele>46.2</ele>
        <time>2021-01-09T13:56:21Z</time>
      </trkpt>
      <trkpt lat="43.56166" lon="3.81084">
        <ele>49</ele>
        <time>2021-01-09T13:56:23Z</time>
      </trkpt>
      <trkpt lat="43.56166" lon="3.81084">
        <ele>49</ele>
        <time>2021-01-09T13:56:28Z</time>
      </trkpt>
      <trkpt lat="43.56166" lon="3.81068">
        <ele>48</ele>
        <time>2021-01-09T13:56:51Z</time>
      </trkpt>
      <trkpt lat="43.56168" lon="3.81064">
        <ele>46.1</ele>
        <time>2021-01-09T13:56:52Z</time>
      </trkpt>
      <trkpt lat="43.5617" lon="3.81061">
        <ele>46.1</ele>
        <time>2021-01-09T13:56:53Z</time>
      </trkpt>
      <trkpt lat="43.56172" lon="3.81057">
        <ele>46.2</ele>
        <time>2021-01-09T13:56:54Z</time>
      </trkpt>
      <trkpt lat="43.56174" lon="3.81053">
        <ele>46.2</ele>
        <time>2021-01-09T13:56:55Z</time>
      </trkpt>
      <trkpt lat="43.56177" lon="3.81049">
        <ele>46.1</ele>
        <time>2021-01-09T13:56:56Z</time>
      </trkpt>
      <trkpt lat="43.56179" lon="3.81045">
        <ele>46.1</ele>
        <time>2021-01-09T13:56:57Z</time>
      </trkpt>
      <trkpt lat="43.56182" lon="3.81041">
        <ele>46</ele>
        <time>2021-01-09T13:56:58Z</time>
      </trkpt>
      <trkpt lat="43.56184" lon="3.81037">
        <ele>46</ele>
        <time>2021-01-09T13:56:59Z</time>
      </trkpt>
      <trkpt lat="43.56187" lon="3.81033">
        <ele>45.9</ele>
        <time>2021-01-09T13:57:00Z</time>
      </trkpt>
      <trkpt lat="43.56189" lon="3.8103">
        <ele>47</ele>
        <time>2021-01-09T13:57:01Z</time>
      </trkpt>
      <trkpt lat="43.56191" lon="3.81026">
        <ele>45.7</ele>
        <time>2021-01-09T13:57:02Z</time>
      </trkpt>
      <trkpt lat="43.56192" lon="3.81023">
        <ele>45.6</ele>
        <time>2021-01-09T13:57:03Z</time>
      </trkpt>
      <trkpt lat="43.56194" lon="3.8102">
        <ele>45.4</ele>
        <time>2021-01-09T13:57:04Z</time>
      </trkpt>
      <trkpt lat="43.56197" lon="3.81017">
        <ele>45.3</ele>
        <time>2021-01-09T13:57:05Z</time>
      </trkpt>
      <trkpt lat="43.56199" lon="3.81015">
        <ele>45.2</ele>
        <time>2021-01-09T13:57:06Z</time>
      </trkpt>
      <trkpt lat="43.56201" lon="3.81013">
        <ele>45</ele>
        <time>2021-01-09T13:57:07Z</time>
      </trkpt>
      <trkpt lat="43.56203" lon="3.81012">
        <ele>45</ele>
        <time>2021-01-09T13:57:08Z</time>
      </trkpt>
      <trkpt lat="43.56205" lon="3.8101">
        <ele>44.9</ele>
        <time>2021-01-09T13:57:09Z</time>
      </trkpt>
      <trkpt lat="43.56208" lon="3.81008">
        <ele>44.7</ele>
        <time>2021-01-09T13:57:10Z</time>
      </trkpt>
      <trkpt lat="43.56209" lon="3.81006">
        <ele>46</ele>
        <time>2021-01-09T13:57:11Z</time>
      </trkpt>
      <trkpt lat="43.56209" lon="3.81006">
        <ele>46</ele>
        <time>2021-01-09T13:57:18Z</time>
      </trkpt>
      <trkpt lat="43.56224" lon="3.81005">
        <ele>46</ele>
        <time>2021-01-09T13:57:51Z</time>
      </trkpt>
      <trkpt lat="43.56227" lon="3.81005">
        <ele>44.9</ele>
        <time>2021-01-09T13:57:52Z</time>
      </trkpt>
      <trkpt lat="43.5623" lon="3.81005">
        <ele>45</ele>
        <time>2021-01-09T13:57:53Z</time>
      </trkpt>
      <trkpt lat="43.56233" lon="3.81005">
        <ele>45.2</ele>
        <time>2021-01-09T13:57:54Z</time>
      </trkpt>
      <trkpt lat="43.56235" lon="3.81005">
        <ele>45.4</ele>
        <time>2021-01-09T13:57:55Z</time>
      </trkpt>
      <trkpt lat="43.56238" lon="3.81005">
        <ele>45.6</ele>
        <time>2021-01-09T13:57:56Z</time>
      </trkpt>
      <trkpt lat="43.56241" lon="3.81006">
        <ele>45.9</ele>
        <time>2021-01-09T13:57:57Z</time>
      </trkpt>
      <trkpt lat="43.56244" lon="3.81006">
        <ele>46</ele>
        <time>2021-01-09T13:57:58Z</time>
      </trkpt>
      <trkpt lat="43.56247" lon="3.81007">
        <ele>46.3</ele>
        <time>2021-01-09T13:57:59Z</time>
      </trkpt>
      <trkpt lat="43.56249" lon="3.81007">
        <ele>46.4</ele>
        <time>2021-01-09T13:58:00Z</time>
      </trkpt>
      <trkpt lat="43.56252" lon="3.81007">
        <ele>47</ele>
        <time>2021-01-09T13:58:01Z</time>
      </trkpt>
      <trkpt lat="43.56255" lon="3.81007">
        <ele>46.7</ele>
        <time>2021-01-09T13:58:02Z</time>
      </trkpt>
      <trkpt lat="43.56258" lon="3.81007">
        <ele>46.8</ele>
        <time>2021-01-09T13:58:03Z</time>
      </trkpt>
      <trkpt lat="43.5626" lon="3.81007">
        <ele>46.9</ele>
        <time>2021-01-09T13:58:04Z</time>
      </trkpt>
      <trkpt lat="43.56263" lon="3.81008">
        <ele>47</ele>
        <time>2021-01-09T13:58:05Z</time>
      </trkpt>
      <trkpt lat="43.56266" lon="3.81008">
        <ele>47.2</ele>
        <time>2021-01-09T13:58:06Z</time>
      </trkpt>
      <trkpt lat="43.56269" lon="3.81008">
        <ele>47.3</ele>
        <time>2021-01-09T13:58:07Z</time>
      </trkpt>
      <trkpt lat="43.56272" lon="3.81009">
        <ele>47.4</ele>
        <time>2021-01-09T13:58:08Z</time>
      </trkpt>
      <trkpt lat="43.56275" lon="3.81009">
        <ele>47.5</ele>
        <time>2021-01-09T13:58:09Z</time>
      </trkpt>
      <trkpt lat="43.56277" lon="3.8101">
        <ele>47.7</ele>
        <time>2021-01-09T13:58:10Z</time>
      </trkpt>
      <trkpt lat="43.56283" lon="3.81009">
        <ele>47</ele>
        <time>2021-01-09T13:58:11Z</time>
      </trkpt>
      <trkpt lat="43.56285" lon="3.81009">
        <ele>47.6</ele>
        <time>2021-01-09T13:58:13Z</time>
      </trkpt>
      <trkpt lat="43.56288" lon="3.8101">
        <ele>47.7</ele>
        <time>2021-01-09T13:58:14Z</time>
      </trkpt>
      <trkpt lat="43.56291" lon="3.81011">
        <ele>47.8</ele>
        <time>2021-01-09T13:58:15Z</time>
      </trkpt>
      <trkpt lat="43.56296" lon="3.81012">
        <ele>47.9</ele>
        <time>2021-01-09T13:58:16Z</time>
      </trkpt>
      <trkpt lat="43.56298" lon="3.81013">
        <ele>47.9</ele>
        <time>2021-01-09T13:58:17Z</time>
      </trkpt>
      <trkpt lat="43.56301" lon="3.81013">
        <ele>47.9</ele>
        <time>2021-01-09T13:58:18Z</time>
      </trkpt>
      <trkpt lat="43.56303" lon="3.81013">
        <ele>47.9</ele>
        <time>2021-01-09T13:58:19Z</time>
      </trkpt>
      <trkpt lat="43.56306" lon="3.81012">
        <ele>48</ele>
        <time>2021-01-09T13:58:21Z</time>
      </trkpt>
      <trkpt lat="43.56309" lon="3.81012">
        <ele>47.7</ele>
        <time>2021-01-09T13:58:22Z</time>
      </trkpt>
      <trkpt lat="43.56311" lon="3.81012">
        <ele>47.6</ele>
        <time>2021-01-09T13:58:23Z</time>
      </trkpt>
      <trkpt lat="43.56314" lon="3.81013">
        <ele>47.6</ele>
        <time>2021-01-09T13:58:24Z</time>
      </trkpt>
      <trkpt lat="43.56317" lon="3.81013">
        <ele>47.5</ele>
        <time>2021-01-09T13:58:25Z</time>
      </trkpt>
      <trkpt lat="43.5632" lon="3.81013">
        <ele>47.4</ele>
        <time>2021-01-09T13:58:26Z</time>
      </trkpt>
      <trkpt lat="43.56323" lon="3.81013">
        <ele>47.3</ele>
        <time>2021-01-09T13:58:27Z</time>
      </trkpt>
      <trkpt lat="43.56326" lon="3.81013">
        <ele>47.2</ele>
        <time>2021-01-09T13:58:28Z</time>
      </trkpt>
      <trkpt lat="43.56329" lon="3.81014">
        <ele>47.2</ele>
        <time>2021-01-09T13:58:29Z</time>
      </trkpt>
      <trkpt lat="43.56332" lon="3.81014">
        <ele>47.1</ele>
        <time>2021-01-09T13:58:30Z</time>
      </trkpt>
      <trkpt lat="43.56335" lon="3.81016">
        <ele>48</ele>
        <time>2021-01-09T13:58:31Z</time>
      </trkpt>
      <trkpt lat="43.56337" lon="3.81017">
        <ele>47.3</ele>
        <time>2021-01-09T13:58:32Z</time>
      </trkpt>
      <trkpt lat="43.5634" lon="3.81018">
        <ele>47.4</ele>
        <time>2021-01-09T13:58:33Z</time>
      </trkpt>
      <trkpt lat="43.56343" lon="3.81018">
        <ele>47.3</ele>
        <time>2021-01-09T13:58:34Z</time>
      </trkpt>
      <trkpt lat="43.56346" lon="3.81018">
        <ele>47.3</ele>
        <time>2021-01-09T13:58:35Z</time>
      </trkpt>
      <trkpt lat="43.56349" lon="3.81019">
        <ele>47.4</ele>
        <time>2021-01-09T13:58:36Z</time>
      </trkpt>
      <trkpt lat="43.56352" lon="3.8102">
        <ele>47.5</ele>
        <time>2021-01-09T13:58:37Z</time>
      </trkpt>
      <trkpt lat="43.56355" lon="3.81021">
        <ele>47.6</ele>
        <time>2021-01-09T13:58:38Z</time>
      </trkpt>
      <trkpt lat="43.56358" lon="3.81022">
        <ele>47.8</ele>
        <time>2021-01-09T13:58:39Z</time>
      </trkpt>
      <trkpt lat="43.56361" lon="3.81023">
        <ele>48</ele>
        <time>2021-01-09T13:58:40Z</time>
      </trkpt>
      <trkpt lat="43.56364" lon="3.81025">
        <ele>48</ele>
        <time>2021-01-09T13:58:41Z</time>
      </trkpt>
      <trkpt lat="43.56367" lon="3.81026">
        <ele>47.4</ele>
        <time>2021-01-09T13:58:42Z</time>
      </trkpt>
      <trkpt lat="43.56369" lon="3.81029">
        <ele>47.4</ele>
        <time>2021-01-09T13:58:43Z</time>
      </trkpt>
      <trkpt lat="43.56371" lon="3.81032">
        <ele>47.3</ele>
        <time>2021-01-09T13:58:44Z</time>
      </trkpt>
      <trkpt lat="43.56374" lon="3.81035">
        <ele>47.1</ele>
        <time>2021-01-09T13:58:45Z</time>
      </trkpt>
      <trkpt lat="43.56376" lon="3.81037">
        <ele>47</ele>
        <time>2021-01-09T13:58:46Z</time>
      </trkpt>
      <trkpt lat="43.56379" lon="3.81039">
        <ele>46.7</ele>
        <time>2021-01-09T13:58:47Z</time>
      </trkpt>
      <trkpt lat="43.56381" lon="3.81041">
        <ele>46.7</ele>
        <time>2021-01-09T13:58:48Z</time>
      </trkpt>
      <trkpt lat="43.56384" lon="3.81044">
        <ele>46.7</ele>
        <time>2021-01-09T13:58:49Z</time>
      </trkpt>
      <trkpt lat="43.56386" lon="3.81047">
        <ele>46.9</ele>
        <time>2021-01-09T13:58:50Z</time>
      </trkpt>
      <trkpt lat="43.56387" lon="3.8105">
        <ele>49</ele>
        <time>2021-01-09T13:58:51Z</time>
      </trkpt>
      <trkpt lat="43.56389" lon="3.81053">
        <ele>47.5</ele>
        <time>2021-01-09T13:58:52Z</time>
      </trkpt>
      <trkpt lat="43.5639" lon="3.81056">
        <ele>47.5</ele>
        <time>2021-01-09T13:58:53Z</time>
      </trkpt>
      <trkpt lat="43.56392" lon="3.81059">
        <ele>47</ele>
        <time>2021-01-09T13:58:54Z</time>
      </trkpt>
      <trkpt lat="43.56393" lon="3.81062">
        <ele>46.9</ele>
        <time>2021-01-09T13:58:55Z</time>
      </trkpt>
      <trkpt lat="43.56395" lon="3.81065">
        <ele>46.4</ele>
        <time>2021-01-09T13:58:56Z</time>
      </trkpt>
      <trkpt lat="43.56397" lon="3.81068">
        <ele>46</ele>
        <time>2021-01-09T13:58:57Z</time>
      </trkpt>
      <trkpt lat="43.56398" lon="3.81072">
        <ele>46.2</ele>
        <time>2021-01-09T13:58:58Z</time>
      </trkpt>
      <trkpt lat="43.56399" lon="3.81076">
        <ele>46.4</ele>
        <time>2021-01-09T13:58:59Z</time>
      </trkpt>
      <trkpt lat="43.564" lon="3.8108">
        <ele>46.6</ele>
        <time>2021-01-09T13:59:00Z</time>
      </trkpt>
      <trkpt lat="43.56401" lon="3.81084">
        <ele>50</ele>
        <time>2021-01-09T13:59:01Z</time>
      </trkpt>
      <trkpt lat="43.56401" lon="3.81088">
        <ele>47.2</ele>
        <time>2021-01-09T13:59:02Z</time>
      </trkpt>
      <trkpt lat="43.56402" lon="3.81091">
        <ele>47</ele>
        <time>2021-01-09T13:59:03Z</time>
      </trkpt>
      <trkpt lat="43.56404" lon="3.81095">
        <ele>46.6</ele>
        <time>2021-01-09T13:59:04Z</time>
      </trkpt>
      <trkpt lat="43.56405" lon="3.81099">
        <ele>46.6</ele>
        <time>2021-01-09T13:59:05Z</time>
      </trkpt>
      <trkpt lat="43.56406" lon="3.81103">
        <ele>46.6</ele>
        <time>2021-01-09T13:59:06Z</time>
      </trkpt>
      <trkpt lat="43.56408" lon="3.81106">
        <ele>46.2</ele>
        <time>2021-01-09T13:59:07Z</time>
      </trkpt>
      <trkpt lat="43.56409" lon="3.8111">
        <ele>46.4</ele>
        <time>2021-01-09T13:59:08Z</time>
      </trkpt>
      <trkpt lat="43.5641" lon="3.81114">
        <ele>46.4</ele>
        <time>2021-01-09T13:59:09Z</time>
      </trkpt>
      <trkpt lat="43.56411" lon="3.81118">
        <ele>46.5</ele>
        <time>2021-01-09T13:59:10Z</time>
      </trkpt>
      <trkpt lat="43.56412" lon="3.81122">
        <ele>52</ele>
        <time>2021-01-09T13:59:11Z</time>
      </trkpt>
      <trkpt lat="43.56413" lon="3.81126">
        <ele>46.7</ele>
        <time>2021-01-09T13:59:12Z</time>
      </trkpt>
      <trkpt lat="43.56414" lon="3.81129">
        <ele>46.7</ele>
        <time>2021-01-09T13:59:13Z</time>
      </trkpt>
      <trkpt lat="43.56415" lon="3.81133">
        <ele>46.8</ele>
        <time>2021-01-09T13:59:14Z</time>
      </trkpt>
      <trkpt lat="43.56415" lon="3.81136">
        <ele>47.1</ele>
        <time>2021-01-09T13:59:15Z</time>
      </trkpt>
      <trkpt lat="43.56416" lon="3.8114">
        <ele>47.4</ele>
        <time>2021-01-09T13:59:16Z</time>
      </trkpt>
      <trkpt lat="43.56417" lon="3.81144">
        <ele>47.8</ele>
        <time>2021-01-09T13:59:17Z</time>
      </trkpt>
      <trkpt lat="43.56418" lon="3.81148">
        <ele>48.2</ele>
        <time>2021-01-09T13:59:18Z</time>
      </trkpt>
      <trkpt lat="43.56418" lon="3.81153">
        <ele>49.1</ele>
        <time>2021-01-09T13:59:19Z</time>
      </trkpt>
      <trkpt lat="43.56419" lon="3.81157">
        <ele>49.4</ele>
        <time>2021-01-09T13:59:20Z</time>
      </trkpt>
      <trkpt lat="43.56421" lon="3.81161">
        <ele>53</ele>
        <time>2021-01-09T13:59:21Z</time>
      </trkpt>
      <trkpt lat="43.56422" lon="3.81166">
        <ele>49.8</ele>
        <time>2021-01-09T13:59:22Z</time>
      </trkpt>
      <trkpt lat="43.56422" lon="3.8117">
        <ele>50.3</ele>
        <time>2021-01-09T13:59:23Z</time>
      </trkpt>
      <trkpt lat="43.56423" lon="3.81175">
        <ele>50.6</ele>
        <time>2021-01-09T13:59:24Z</time>
      </trkpt>
      <trkpt lat="43.56424" lon="3.81179">
        <ele>50.9</ele>
        <time>2021-01-09T13:59:25Z</time>
      </trkpt>
      <trkpt lat="43.56426" lon="3.81182">
        <ele>50.9</ele>
        <time>2021-01-09T13:59:26Z</time>
      </trkpt>
      <trkpt lat="43.56428" lon="3.81186">
        <ele>51.2</ele>
        <time>2021-01-09T13:59:27Z</time>
      </trkpt>
      <trkpt lat="43.56431" lon="3.81187">
        <ele>50.8</ele>
        <time>2021-01-09T13:59:28Z</time>
      </trkpt>
      <trkpt lat="43.56434" lon="3.81188">
        <ele>50.5</ele>
        <time>2021-01-09T13:59:29Z</time>
      </trkpt>
      <trkpt lat="43.56438" lon="3.81188">
        <ele>49.8</ele>
        <time>2021-01-09T13:59:30Z</time>
      </trkpt>
      <trkpt lat="43.56442" lon="3.81189">
        <ele>53</ele>
        <time>2021-01-09T13:59:31Z</time>
      </trkpt>
      <trkpt lat="43.56446" lon="3.8119">
        <ele>48.9</ele>
        <time>2021-01-09T13:59:32Z</time>
      </trkpt>
      <trkpt lat="43.5645" lon="3.81192">
        <ele>48.1</ele>
        <time>2021-01-09T13:59:33Z</time>
      </trkpt>
      <trkpt lat="43.56454" lon="3.81195">
        <ele>47.3</ele>
        <time>2021-01-09T13:59:34Z</time>
      </trkpt>
      <trkpt lat="43.56457" lon="3.81199">
        <ele>46.9</ele>
        <time>2021-01-09T13:59:35Z</time>
      </trkpt>
      <trkpt lat="43.5646" lon="3.81202">
        <ele>46.5</ele>
        <time>2021-01-09T13:59:36Z</time>
      </trkpt>
      <trkpt lat="43.56462" lon="3.81205">
        <ele>46.6</ele>
        <time>2021-01-09T13:59:37Z</time>
      </trkpt>
      <trkpt lat="43.56464" lon="3.81209">
        <ele>47.1</ele>
        <time>2021-01-09T13:59:38Z</time>
      </trkpt>
      <trkpt lat="43.56466" lon="3.81212">
        <ele>47.5</ele>
        <time>2021-01-09T13:59:39Z</time>
      </trkpt>
      <trkpt lat="43.56468" lon="3.81215">
        <ele>48.1</ele>
        <time>2021-01-09T13:59:40Z</time>
      </trkpt>
      <trkpt lat="43.5647" lon="3.81218">
        <ele>52</ele>
        <time>2021-01-09T13:59:41Z</time>
      </trkpt>
      <trkpt lat="43.56472" lon="3.81221">
        <ele>49.6</ele>
        <time>2021-01-09T13:59:42Z</time>
      </trkpt>
      <trkpt lat="43.56474" lon="3.81224">
        <ele>49.4</ele>
        <time>2021-01-09T13:59:43Z</time>
      </trkpt>
      <trkpt lat="43.56476" lon="3.81228">
        <ele>49</ele>
        <time>2021-01-09T13:59:44Z</time>
      </trkpt>
      <trkpt lat="43.56478" lon="3.81232">
        <ele>48.6</ele>
        <time>2021-01-09T13:59:45Z</time>
      </trkpt>
      <trkpt lat="43.56481" lon="3.81236">
        <ele>48</ele>
        <time>2021-01-09T13:59:46Z</time>
      </trkpt>
      <trkpt lat="43.56483" lon="3.8124">
        <ele>47.8</ele>
        <time>2021-01-09T13:59:47Z</time>
      </trkpt>
      <trkpt lat="43.56485" lon="3.81242">
        <ele>47.4</ele>
        <time>2021-01-09T13:59:48Z</time>
      </trkpt>
      <trkpt lat="43.56487" lon="3.81244">
        <ele>47.1</ele>
        <time>2021-01-09T13:59:49Z</time>
      </trkpt>
      <trkpt lat="43.5649" lon="3.81246">
        <ele>46.6</ele>
        <time>2021-01-09T13:59:50Z</time>
      </trkpt>
      <trkpt lat="43.56492" lon="3.81249">
        <ele>51</ele>
        <time>2021-01-09T13:59:51Z</time>
      </trkpt>
      <trkpt lat="43.56494" lon="3.81252">
        <ele>46.5</ele>
        <time>2021-01-09T13:59:52Z</time>
      </trkpt>
      <trkpt lat="43.56496" lon="3.81255">
        <ele>46.5</ele>
        <time>2021-01-09T13:59:53Z</time>
      </trkpt>
      <trkpt lat="43.56498" lon="3.81256">
        <ele>46.2</ele>
        <time>2021-01-09T13:59:54Z</time>
      </trkpt>
      <trkpt lat="43.56501" lon="3.81256">
        <ele>45.8</ele>
        <time>2021-01-09T13:59:55Z</time>
      </trkpt>
      <trkpt lat="43.56504" lon="3.81255">
        <ele>45.4</ele>
        <time>2021-01-09T13:59:56Z</time>
      </trkpt>
      <trkpt lat="43.56507" lon="3.81254">
        <ele>45.1</ele>
        <time>2021-01-09T13:59:57Z</time>
      </trkpt>
      <trkpt lat="43.56509" lon="3.81252">
        <ele>44.6</ele>
        <time>2021-01-09T13:59:58Z</time>
      </trkpt>
      <trkpt lat="43.56512" lon="3.81248">
        <ele>43.8</ele>
        <time>2021-01-09T13:59:59Z</time>
      </trkpt>
      <trkpt lat="43.56515" lon="3.81245">
        <ele>43.2</ele>
        <time>2021-01-09T14:00:00Z</time>
      </trkpt>
      <trkpt lat="43.56518" lon="3.81241">
        <ele>48</ele>
        <time>2021-01-09T14:00:01Z</time>
      </trkpt>
      <trkpt lat="43.56522" lon="3.81237">
        <ele>41.8</ele>
        <time>2021-01-09T14:00:02Z</time>
      </trkpt>
      <trkpt lat="43.56525" lon="3.81233">
        <ele>41.2</ele>
        <time>2021-01-09T14:00:03Z</time>
      </trkpt>
      <trkpt lat="43.5653" lon="3.81231">
        <ele>41.1</ele>
        <time>2021-01-09T14:00:04Z</time>
      </trkpt>
      <trkpt lat="43.56535" lon="3.81229">
        <ele>41.1</ele>
        <time>2021-01-09T14:00:05Z</time>
      </trkpt>
      <trkpt lat="43.5654" lon="3.81229">
        <ele>41.3</ele>
        <time>2021-01-09T14:00:06Z</time>
      </trkpt>
      <trkpt lat="43.56545" lon="3.81227">
        <ele>41.2</ele>
        <time>2021-01-09T14:00:07Z</time>
      </trkpt>
      <trkpt lat="43.5655" lon="3.81225">
        <ele>41.2</ele>
        <time>2021-01-09T14:00:08Z</time>
      </trkpt>
      <trkpt lat="43.56556" lon="3.81224">
        <ele>41.3</ele>
        <time>2021-01-09T14:00:09Z</time>
      </trkpt>
      <trkpt lat="43.56562" lon="3.81225">
        <ele>42.5</ele>
        <time>2021-01-09T14:00:10Z</time>
      </trkpt>
      <trkpt lat="43.56567" lon="3.81225">
        <ele>45</ele>
        <time>2021-01-09T14:00:11Z</time>
      </trkpt>
      <trkpt lat="43.56571" lon="3.81226">
        <ele>44.2</ele>
        <time>2021-01-09T14:00:12Z</time>
      </trkpt>
      <trkpt lat="43.56575" lon="3.81226">
        <ele>46</ele>
        <time>2021-01-09T14:00:13Z</time>
      </trkpt>
      <trkpt lat="43.56578" lon="3.81227">
        <ele>45.5</ele>
        <time>2021-01-09T14:00:14Z</time>
      </trkpt>
      <trkpt lat="43.5658" lon="3.81227">
        <ele>45.8</ele>
        <time>2021-01-09T14:00:15Z</time>
      </trkpt>
      <trkpt lat="43.56583" lon="3.81227">
        <ele>46.3</ele>
        <time>2021-01-09T14:00:16Z</time>
      </trkpt>
      <trkpt lat="43.56585" lon="3.81227">
        <ele>46.6</ele>
        <time>2021-01-09T14:00:17Z</time>
      </trkpt>
      <trkpt lat="43.56588" lon="3.81227">
        <ele>47.1</ele>
        <time>2021-01-09T14:00:18Z</time>
      </trkpt>
      <trkpt lat="43.5659" lon="3.81226">
        <ele>47.4</ele>
        <time>2021-01-09T14:00:19Z</time>
      </trkpt>
      <trkpt lat="43.56592" lon="3.81225">
        <ele>47.7</ele>
        <time>2021-01-09T14:00:20Z</time>
      </trkpt>
      <trkpt lat="43.56594" lon="3.81223">
        <ele>47</ele>
        <time>2021-01-09T14:00:21Z</time>
      </trkpt>
      <trkpt lat="43.56596" lon="3.8122">
        <ele>48.2</ele>
        <time>2021-01-09T14:00:22Z</time>
      </trkpt>
      <trkpt lat="43.56597" lon="3.81217">
        <ele>48.2</ele>
        <time>2021-01-09T14:00:23Z</time>
      </trkpt>
      <trkpt lat="43.56598" lon="3.81215">
        <ele>48.2</ele>
        <time>2021-01-09T14:00:24Z</time>
      </trkpt>
      <trkpt lat="43.56599" lon="3.81212">
        <ele>48.2</ele>
        <time>2021-01-09T14:00:25Z</time>
      </trkpt>
      <trkpt lat="43.56601" lon="3.81208">
        <ele>48.3</ele>
        <time>2021-01-09T14:00:26Z</time>
      </trkpt>
      <trkpt lat="43.56602" lon="3.81204">
        <ele>48.3</ele>
        <time>2021-01-09T14:00:27Z</time>
      </trkpt>
      <trkpt lat="43.56603" lon="3.812">
        <ele>48.2</ele>
        <time>2021-01-09T14:00:28Z</time>
      </trkpt>
      <trkpt lat="43.56604" lon="3.81196">
        <ele>48.1</ele>
        <time>2021-01-09T14:00:29Z</time>
      </trkpt>
      <trkpt lat="43.56605" lon="3.81192">
        <ele>48</ele>
        <time>2021-01-09T14:00:30Z</time>
      </trkpt>
      <trkpt lat="43.56607" lon="3.81188">
        <ele>48</ele>
        <time>2021-01-09T14:00:31Z</time>
      </trkpt>
      <trkpt lat="43.56609" lon="3.81184">
        <ele>48.3</ele>
        <time>2021-01-09T14:00:32Z</time>
      </trkpt>
      <trkpt lat="43.56611" lon="3.8118">
        <ele>48.5</ele>
        <time>2021-01-09T14:00:33Z</time>
      </trkpt>
      <trkpt lat="43.56613" lon="3.81175">
        <ele>48.3</ele>
        <time>2021-01-09T14:00:34Z</time>
      </trkpt>
      <trkpt lat="43.56615" lon="3.81171">
        <ele>48.2</ele>
        <time>2021-01-09T14:00:35Z</time>
      </trkpt>
      <trkpt lat="43.56618" lon="3.81167">
        <ele>48</ele>
        <time>2021-01-09T14:00:36Z</time>
      </trkpt>
      <trkpt lat="43.56621" lon="3.81163">
        <ele>47.7</ele>
        <time>2021-01-09T14:00:37Z</time>
      </trkpt>
      <trkpt lat="43.56623" lon="3.81159">
        <ele>47.4</ele>
        <time>2021-01-09T14:00:38Z</time>
      </trkpt>
      <trkpt lat="43.56626" lon="3.81154">
        <ele>47.1</ele>
        <time>2021-01-09T14:00:39Z</time>
      </trkpt>
      <trkpt lat="43.56629" lon="3.8115">
        <ele>46.8</ele>
        <time>2021-01-09T14:00:40Z</time>
      </trkpt>
      <trkpt lat="43.56632" lon="3.81145">
        <ele>48</ele>
        <time>2021-01-09T14:00:41Z</time>
      </trkpt>
      <trkpt lat="43.56635" lon="3.8114">
        <ele>46.1</ele>
        <time>2021-01-09T14:00:42Z</time>
      </trkpt>
      <trkpt lat="43.56638" lon="3.81135">
        <ele>45.7</ele>
        <time>2021-01-09T14:00:43Z</time>
      </trkpt>
      <trkpt lat="43.56641" lon="3.81129">
        <ele>45.3</ele>
        <time>2021-01-09T14:00:44Z</time>
      </trkpt>
      <trkpt lat="43.56645" lon="3.81124">
        <ele>45</ele>
        <time>2021-01-09T14:00:45Z</time>
      </trkpt>
      <trkpt lat="43.56649" lon="3.81119">
        <ele>44.8</ele>
        <time>2021-01-09T14:00:46Z</time>
      </trkpt>
      <trkpt lat="43.56653" lon="3.81114">
        <ele>44.7</ele>
        <time>2021-01-09T14:00:47Z</time>
      </trkpt>
      <trkpt lat="43.56657" lon="3.81109">
        <ele>44.1</ele>
        <time>2021-01-09T14:00:48Z</time>
      </trkpt>
      <trkpt lat="43.56661" lon="3.81104">
        <ele>42.9</ele>
        <time>2021-01-09T14:00:49Z</time>
      </trkpt>
      <trkpt lat="43.56665" lon="3.811">
        <ele>42.1</ele>
        <time>2021-01-09T14:00:50Z</time>
      </trkpt>
      <trkpt lat="43.56669" lon="3.81096">
        <ele>47</ele>
        <time>2021-01-09T14:00:51Z</time>
      </trkpt>
      <trkpt lat="43.56672" lon="3.81094">
        <ele>40.9</ele>
        <time>2021-01-09T14:00:52Z</time>
      </trkpt>
      <trkpt lat="43.56675" lon="3.81094">
        <ele>41</ele>
        <time>2021-01-09T14:00:53Z</time>
      </trkpt>
      <trkpt lat="43.56678" lon="3.81096">
        <ele>41.5</ele>
        <time>2021-01-09T14:00:54Z</time>
      </trkpt>
      <trkpt lat="43.56682" lon="3.81099">
        <ele>42</ele>
        <time>2021-01-09T14:00:55Z</time>
      </trkpt>
      <trkpt lat="43.56686" lon="3.81102">
        <ele>42.5</ele>
        <time>2021-01-09T14:00:56Z</time>
      </trkpt>
      <trkpt lat="43.5669" lon="3.81104">
        <ele>42.6</ele>
        <time>2021-01-09T14:00:57Z</time>
      </trkpt>
      <trkpt lat="43.56695" lon="3.81107">
        <ele>42.7</ele>
        <time>2021-01-09T14:00:58Z</time>
      </trkpt>
      <trkpt lat="43.56699" lon="3.81109">
        <ele>42.8</ele>
        <time>2021-01-09T14:00:59Z</time>
      </trkpt>
      <trkpt lat="43.56703" lon="3.81111">
        <ele>43</ele>
        <time>2021-01-09T14:01:00Z</time>
      </trkpt>
      <trkpt lat="43.56707" lon="3.81114">
        <ele>46</ele>
        <time>2021-01-09T14:01:01Z</time>
      </trkpt>
      <trkpt lat="43.5671" lon="3.81118">
        <ele>43.5</ele>
        <time>2021-01-09T14:01:02Z</time>
      </trkpt>
      <trkpt lat="43.56714" lon="3.81119">
        <ele>43.6</ele>
        <time>2021-01-09T14:01:03Z</time>
      </trkpt>
      <trkpt lat="43.56718" lon="3.81121">
        <ele>43.7</ele>
        <time>2021-01-09T14:01:04Z</time>
      </trkpt>
      <trkpt lat="43.56721" lon="3.81123">
        <ele>43.9</ele>
        <time>2021-01-09T14:01:05Z</time>
      </trkpt>
      <trkpt lat="43.56724" lon="3.81125">
        <ele>44</ele>
        <time>2021-01-09T14:01:06Z</time>
      </trkpt>
      <trkpt lat="43.56728" lon="3.81126">
        <ele>44</ele>
        <time>2021-01-09T14:01:07Z</time>
      </trkpt>
      <trkpt lat="43.56731" lon="3.81127">
        <ele>44</ele>
        <time>2021-01-09T14:01:08Z</time>
      </trkpt>
      <trkpt lat="43.56734" lon="3.81128">
        <ele>44</ele>
        <time>2021-01-09T14:01:09Z</time>
      </trkpt>
      <trkpt lat="43.56737" lon="3.81132">
        <ele>44.1</ele>
        <time>2021-01-09T14:01:10Z</time>
      </trkpt>
      <trkpt lat="43.56739" lon="3.81135">
        <ele>46</ele>
        <time>2021-01-09T14:01:11Z</time>
      </trkpt>
      <trkpt lat="43.56741" lon="3.81138">
        <ele>44.3</ele>
        <time>2021-01-09T14:01:12Z</time>
      </trkpt>
      <trkpt lat="43.56744" lon="3.81141">
        <ele>44.2</ele>
        <time>2021-01-09T14:01:13Z</time>
      </trkpt>
      <trkpt lat="43.56746" lon="3.81143">
        <ele>44.1</ele>
        <time>2021-01-09T14:01:14Z</time>
      </trkpt>
      <trkpt lat="43.56749" lon="3.81146">
        <ele>44</ele>
        <time>2021-01-09T14:01:15Z</time>
      </trkpt>
      <trkpt lat="43.56751" lon="3.81148">
        <ele>43.9</ele>
        <time>2021-01-09T14:01:16Z</time>
      </trkpt>
      <trkpt lat="43.56753" lon="3.8115">
        <ele>43.8</ele>
        <time>2021-01-09T14:01:17Z</time>
      </trkpt>
      <trkpt lat="43.56756" lon="3.81152">
        <ele>43.6</ele>
        <time>2021-01-09T14:01:18Z</time>
      </trkpt>
      <trkpt lat="43.56758" lon="3.81153">
        <ele>43.4</ele>
        <time>2021-01-09T14:01:19Z</time>
      </trkpt>
      <trkpt lat="43.56761" lon="3.81156">
        <ele>43.2</ele>
        <time>2021-01-09T14:01:20Z</time>
      </trkpt>
      <trkpt lat="43.56763" lon="3.81159">
        <ele>46</ele>
        <time>2021-01-09T14:01:21Z</time>
      </trkpt>
      <trkpt lat="43.56767" lon="3.81164">
        <ele>42.8</ele>
        <time>2021-01-09T14:01:22Z</time>
      </trkpt>
      <trkpt lat="43.5677" lon="3.81166">
        <ele>42.6</ele>
        <time>2021-01-09T14:01:23Z</time>
      </trkpt>
      <trkpt lat="43.56773" lon="3.8117">
        <ele>42.2</ele>
        <time>2021-01-09T14:01:24Z</time>
      </trkpt>
      <trkpt lat="43.56777" lon="3.81173">
        <ele>41.8</ele>
        <time>2021-01-09T14:01:25Z</time>
      </trkpt>
      <trkpt lat="43.56781" lon="3.81175">
        <ele>41.4</ele>
        <time>2021-01-09T14:01:26Z</time>
      </trkpt>
      <trkpt lat="43.56785" lon="3.81178">
        <ele>40.8</ele>
        <time>2021-01-09T14:01:28Z</time>
      </trkpt>
      <trkpt lat="43.56789" lon="3.81181">
        <ele>40.3</ele>
        <time>2021-01-09T14:01:29Z</time>
      </trkpt>
      <trkpt lat="43.56793" lon="3.81185">
        <ele>39.7</ele>
        <time>2021-01-09T14:01:30Z</time>
      </trkpt>
      <trkpt lat="43.56797" lon="3.8119">
        <ele>44</ele>
        <time>2021-01-09T14:01:31Z</time>
      </trkpt>
      <trkpt lat="43.568" lon="3.81195">
        <ele>38.6</ele>
        <time>2021-01-09T14:01:32Z</time>
      </trkpt>
      <trkpt lat="43.56803" lon="3.81201">
        <ele>37.8</ele>
        <time>2021-01-09T14:01:33Z</time>
      </trkpt>
      <trkpt lat="43.56807" lon="3.81205">
        <ele>37.1</ele>
        <time>2021-01-09T14:01:34Z</time>
      </trkpt>
      <trkpt lat="43.56812" lon="3.81209">
        <ele>36.1</ele>
        <time>2021-01-09T14:01:35Z</time>
      </trkpt>
      <trkpt lat="43.56817" lon="3.81213">
        <ele>35.3</ele>
        <time>2021-01-09T14:01:36Z</time>
      </trkpt>
      <trkpt lat="43.56822" lon="3.81218">
        <ele>34.4</ele>
        <time>2021-01-09T14:01:37Z</time>
      </trkpt>
      <trkpt lat="43.56826" lon="3.81223">
        <ele>33.8</ele>
        <time>2021-01-09T14:01:38Z</time>
      </trkpt>
      <trkpt lat="43.56831" lon="3.81228">
        <ele>33</ele>
        <time>2021-01-09T14:01:39Z</time>
      </trkpt>
      <trkpt lat="43.56836" lon="3.81232">
        <ele>32.2</ele>
        <time>2021-01-09T14:01:40Z</time>
      </trkpt>
      <trkpt lat="43.56841" lon="3.81234">
        <ele>38</ele>
        <time>2021-01-09T14:01:41Z</time>
      </trkpt>
      <trkpt lat="43.56846" lon="3.81235">
        <ele>30.6</ele>
        <time>2021-01-09T14:01:42Z</time>
      </trkpt>
      <trkpt lat="43.56852" lon="3.81234">
        <ele>29.7</ele>
        <time>2021-01-09T14:01:43Z</time>
      </trkpt>
      <trkpt lat="43.56858" lon="3.81235">
        <ele>28.8</ele>
        <time>2021-01-09T14:01:44Z</time>
      </trkpt>
      <trkpt lat="43.56864" lon="3.81238">
        <ele>28.8</ele>
        <time>2021-01-09T14:01:45Z</time>
      </trkpt>
      <trkpt lat="43.5687" lon="3.81243">
        <ele>29.6</ele>
        <time>2021-01-09T14:01:46Z</time>
      </trkpt>
      <trkpt lat="43.56875" lon="3.81247">
        <ele>30.5</ele>
        <time>2021-01-09T14:01:47Z</time>
      </trkpt>
      <trkpt lat="43.56879" lon="3.8125">
        <ele>31.3</ele>
        <time>2021-01-09T14:01:48Z</time>
      </trkpt>
      <trkpt lat="43.56882" lon="3.81251">
        <ele>31.5</ele>
        <time>2021-01-09T14:01:49Z</time>
      </trkpt>
      <trkpt lat="43.56885" lon="3.81251">
        <ele>31.7</ele>
        <time>2021-01-09T14:01:50Z</time>
      </trkpt>
      <trkpt lat="43.56889" lon="3.8125">
        <ele>34</ele>
        <time>2021-01-09T14:01:51Z</time>
      </trkpt>
      <trkpt lat="43.56892" lon="3.81249">
        <ele>32.1</ele>
        <time>2021-01-09T14:01:52Z</time>
      </trkpt>
      <trkpt lat="43.56895" lon="3.81247">
        <ele>32.1</ele>
        <time>2021-01-09T14:01:53Z</time>
      </trkpt>
      <trkpt lat="43.56898" lon="3.81245">
        <ele>32.1</ele>
        <time>2021-01-09T14:01:54Z</time>
      </trkpt>
      <trkpt lat="43.56902" lon="3.81243">
        <ele>32.3</ele>
        <time>2021-01-09T14:01:55Z</time>
      </trkpt>
      <trkpt lat="43.56905" lon="3.81241">
        <ele>32.4</ele>
        <time>2021-01-09T14:01:56Z</time>
      </trkpt>
      <trkpt lat="43.56909" lon="3.8124">
        <ele>32.8</ele>
        <time>2021-01-09T14:01:57Z</time>
      </trkpt>
      <trkpt lat="43.56912" lon="3.81239">
        <ele>33.1</ele>
        <time>2021-01-09T14:01:58Z</time>
      </trkpt>
      <trkpt lat="43.56915" lon="3.81238">
        <ele>33.4</ele>
        <time>2021-01-09T14:01:59Z</time>
      </trkpt>
      <trkpt lat="43.56918" lon="3.81237">
        <ele>33.6</ele>
        <time>2021-01-09T14:02:00Z</time>
      </trkpt>
      <trkpt lat="43.56922" lon="3.81235">
        <ele>35</ele>
        <time>2021-01-09T14:02:01Z</time>
      </trkpt>
      <trkpt lat="43.56925" lon="3.81233">
        <ele>33.2</ele>
        <time>2021-01-09T14:02:02Z</time>
      </trkpt>
      <trkpt lat="43.56929" lon="3.81232">
        <ele>33.1</ele>
        <time>2021-01-09T14:02:03Z</time>
      </trkpt>
      <trkpt lat="43.56934" lon="3.81232">
        <ele>33.1</ele>
        <time>2021-01-09T14:02:04Z</time>
      </trkpt>
      <trkpt lat="43.56937" lon="3.81232">
        <ele>33.1</ele>
        <time>2021-01-09T14:02:05Z</time>
      </trkpt>
      <trkpt lat="43.56941" lon="3.81233">
        <ele>33.2</ele>
        <time>2021-01-09T14:02:06Z</time>
      </trkpt>
      <trkpt lat="43.56944" lon="3.81233">
        <ele>33.2</ele>
        <time>2021-01-09T14:02:07Z</time>
      </trkpt>
      <trkpt lat="43.56948" lon="3.81233">
        <ele>32.7</ele>
        <time>2021-01-09T14:02:08Z</time>
      </trkpt>
      <trkpt lat="43.56951" lon="3.81234">
        <ele>32.5</ele>
        <time>2021-01-09T14:02:09Z</time>
      </trkpt>
      <trkpt lat="43.56955" lon="3.81236">
        <ele>32.2</ele>
        <time>2021-01-09T14:02:10Z</time>
      </trkpt>
      <trkpt lat="43.56959" lon="3.81239">
        <ele>34</ele>
        <time>2021-01-09T14:02:11Z</time>
      </trkpt>
      <trkpt lat="43.56962" lon="3.81241">
        <ele>31.7</ele>
        <time>2021-01-09T14:02:12Z</time>
      </trkpt>
      <trkpt lat="43.56964" lon="3.81244">
        <ele>31.7</ele>
        <time>2021-01-09T14:02:14Z</time>
      </trkpt>
      <trkpt lat="43.56966" lon="3.81246">
        <ele>31.6</ele>
        <time>2021-01-09T14:02:15Z</time>
      </trkpt>
      <trkpt lat="43.56968" lon="3.81247">
        <ele>31.4</ele>
        <time>2021-01-09T14:02:16Z</time>
      </trkpt>
      <trkpt lat="43.56969" lon="3.81249">
        <ele>31.4</ele>
        <time>2021-01-09T14:02:17Z</time>
      </trkpt>
      <trkpt lat="43.56971" lon="3.81251">
        <ele>31.2</ele>
        <time>2021-01-09T14:02:18Z</time>
      </trkpt>
      <trkpt lat="43.56973" lon="3.81254">
        <ele>31</ele>
        <time>2021-01-09T14:02:19Z</time>
      </trkpt>
      <trkpt lat="43.56976" lon="3.81256">
        <ele>30.5</ele>
        <time>2021-01-09T14:02:20Z</time>
      </trkpt>
      <trkpt lat="43.56982" lon="3.81263">
        <ele>33</ele>
        <time>2021-01-09T14:02:21Z</time>
      </trkpt>
      <trkpt lat="43.56989" lon="3.81269">
        <ele>28.7</ele>
        <time>2021-01-09T14:02:23Z</time>
      </trkpt>
      <trkpt lat="43.56993" lon="3.81272">
        <ele>28.1</ele>
        <time>2021-01-09T14:02:25Z</time>
      </trkpt>
      <trkpt lat="43.56997" lon="3.81274">
        <ele>27.4</ele>
        <time>2021-01-09T14:02:26Z</time>
      </trkpt>
      <trkpt lat="43.57001" lon="3.81277">
        <ele>26.8</ele>
        <time>2021-01-09T14:02:27Z</time>
      </trkpt>
      <trkpt lat="43.57006" lon="3.8128">
        <ele>25.8</ele>
        <time>2021-01-09T14:02:28Z</time>
      </trkpt>
      <trkpt lat="43.5701" lon="3.81283">
        <ele>25</ele>
        <time>2021-01-09T14:02:29Z</time>
      </trkpt>
      <trkpt lat="43.57013" lon="3.81286">
        <ele>24.5</ele>
        <time>2021-01-09T14:02:30Z</time>
      </trkpt>
      <trkpt lat="43.57016" lon="3.81289">
        <ele>30</ele>
        <time>2021-01-09T14:02:31Z</time>
      </trkpt>
      <trkpt lat="43.5702" lon="3.81291">
        <ele>23.5</ele>
        <time>2021-01-09T14:02:32Z</time>
      </trkpt>
      <trkpt lat="43.57023" lon="3.81293">
        <ele>23.1</ele>
        <time>2021-01-09T14:02:33Z</time>
      </trkpt>
      <trkpt lat="43.57026" lon="3.81294">
        <ele>22.8</ele>
        <time>2021-01-09T14:02:34Z</time>
      </trkpt>
      <trkpt lat="43.5703" lon="3.81296">
        <ele>22.5</ele>
        <time>2021-01-09T14:02:35Z</time>
      </trkpt>
      <trkpt lat="43.57033" lon="3.81298">
        <ele>22.5</ele>
        <time>2021-01-09T14:02:36Z</time>
      </trkpt>
      <trkpt lat="43.57037" lon="3.81299">
        <ele>22.4</ele>
        <time>2021-01-09T14:02:37Z</time>
      </trkpt>
      <trkpt lat="43.57041" lon="3.81303">
        <ele>22.4</ele>
        <time>2021-01-09T14:02:38Z</time>
      </trkpt>
      <trkpt lat="43.57045" lon="3.81308">
        <ele>22.2</ele>
        <time>2021-01-09T14:02:39Z</time>
      </trkpt>
      <trkpt lat="43.57049" lon="3.81314">
        <ele>21.5</ele>
        <time>2021-01-09T14:02:40Z</time>
      </trkpt>
      <trkpt lat="43.57052" lon="3.81321">
        <ele>28</ele>
        <time>2021-01-09T14:02:41Z</time>
      </trkpt>
      <trkpt lat="43.57056" lon="3.81328">
        <ele>19.6</ele>
        <time>2021-01-09T14:02:42Z</time>
      </trkpt>
      <trkpt lat="43.57059" lon="3.81335">
        <ele>19</ele>
        <time>2021-01-09T14:02:43Z</time>
      </trkpt>
      <trkpt lat="43.57062" lon="3.8134">
        <ele>19.2</ele>
        <time>2021-01-09T14:02:44Z</time>
      </trkpt>
      <trkpt lat="43.57064" lon="3.81344">
        <ele>19.5</ele>
        <time>2021-01-09T14:02:45Z</time>
      </trkpt>
      <trkpt lat="43.57066" lon="3.81346">
        <ele>19.7</ele>
        <time>2021-01-09T14:02:46Z</time>
      </trkpt>
      <trkpt lat="43.57069" lon="3.81347">
        <ele>20</ele>
        <time>2021-01-09T14:02:47Z</time>
      </trkpt>
      <trkpt lat="43.57072" lon="3.81346">
        <ele>20.1</ele>
        <time>2021-01-09T14:02:48Z</time>
      </trkpt>
      <trkpt lat="43.57075" lon="3.81343">
        <ele>20</ele>
        <time>2021-01-09T14:02:49Z</time>
      </trkpt>
      <trkpt lat="43.57079" lon="3.8134">
        <ele>19.8</ele>
        <time>2021-01-09T14:02:50Z</time>
      </trkpt>
      <trkpt lat="43.57082" lon="3.81335">
        <ele>26</ele>
        <time>2021-01-09T14:02:51Z</time>
      </trkpt>
      <trkpt lat="43.57085" lon="3.81329">
        <ele>18.9</ele>
        <time>2021-01-09T14:02:52Z</time>
      </trkpt>
      <trkpt lat="43.57087" lon="3.81323">
        <ele>18.8</ele>
        <time>2021-01-09T14:02:53Z</time>
      </trkpt>
      <trkpt lat="43.57089" lon="3.81317">
        <ele>18.7</ele>
        <time>2021-01-09T14:02:54Z</time>
      </trkpt>
      <trkpt lat="43.5709" lon="3.81311">
        <ele>18.6</ele>
        <time>2021-01-09T14:02:55Z</time>
      </trkpt>
      <trkpt lat="43.57091" lon="3.81306">
        <ele>18.6</ele>
        <time>2021-01-09T14:02:56Z</time>
      </trkpt>
      <trkpt lat="43.57092" lon="3.81301">
        <ele>18.5</ele>
        <time>2021-01-09T14:02:57Z</time>
      </trkpt>
      <trkpt lat="43.57093" lon="3.81296">
        <ele>18.3</ele>
        <time>2021-01-09T14:02:58Z</time>
      </trkpt>
      <trkpt lat="43.57094" lon="3.81291">
        <ele>18.2</ele>
        <time>2021-01-09T14:02:59Z</time>
      </trkpt>
      <trkpt lat="43.57095" lon="3.81285">
        <ele>17.9</ele>
        <time>2021-01-09T14:03:00Z</time>
      </trkpt>
      <trkpt lat="43.57097" lon="3.8128">
        <ele>24</ele>
        <time>2021-01-09T14:03:01Z</time>
      </trkpt>
      <trkpt lat="43.57098" lon="3.81275">
        <ele>17.6</ele>
        <time>2021-01-09T14:03:02Z</time>
      </trkpt>
      <trkpt lat="43.571" lon="3.8127">
        <ele>17.7</ele>
        <time>2021-01-09T14:03:03Z</time>
      </trkpt>
      <trkpt lat="43.57102" lon="3.81268">
        <ele>17.7</ele>
        <time>2021-01-09T14:03:04Z</time>
      </trkpt>
      <trkpt lat="43.57106" lon="3.81268">
        <ele>17.5</ele>
        <time>2021-01-09T14:03:05Z</time>
      </trkpt>
      <trkpt lat="43.5711" lon="3.81267">
        <ele>17.4</ele>
        <time>2021-01-09T14:03:06Z</time>
      </trkpt>
      <trkpt lat="43.57113" lon="3.81265">
        <ele>17.4</ele>
        <time>2021-01-09T14:03:07Z</time>
      </trkpt>
      <trkpt lat="43.57116" lon="3.81263">
        <ele>17.3</ele>
        <time>2021-01-09T14:03:08Z</time>
      </trkpt>
      <trkpt lat="43.57118" lon="3.81261">
        <ele>17.2</ele>
        <time>2021-01-09T14:03:09Z</time>
      </trkpt>
      <trkpt lat="43.57121" lon="3.8126">
        <ele>17.1</ele>
        <time>2021-01-09T14:03:10Z</time>
      </trkpt>
      <trkpt lat="43.57124" lon="3.81259">
        <ele>25</ele>
        <time>2021-01-09T14:03:11Z</time>
      </trkpt>
      <trkpt lat="43.57126" lon="3.81256">
        <ele>16.8</ele>
        <time>2021-01-09T14:03:12Z</time>
      </trkpt>
      <trkpt lat="43.57127" lon="3.81252">
        <ele>16.8</ele>
        <time>2021-01-09T14:03:13Z</time>
      </trkpt>
      <trkpt lat="43.57128" lon="3.81249">
        <ele>16.8</ele>
        <time>2021-01-09T14:03:14Z</time>
      </trkpt>
      <trkpt lat="43.57128" lon="3.81245">
        <ele>17</ele>
        <time>2021-01-09T14:03:16Z</time>
      </trkpt>
      <trkpt lat="43.57128" lon="3.81242">
        <ele>17.1</ele>
        <time>2021-01-09T14:03:18Z</time>
      </trkpt>
      <trkpt lat="43.57129" lon="3.81239">
        <ele>17.1</ele>
        <time>2021-01-09T14:03:19Z</time>
      </trkpt>
      <trkpt lat="43.5713" lon="3.81237">
        <ele>17.1</ele>
        <time>2021-01-09T14:03:20Z</time>
      </trkpt>
      <trkpt lat="43.57132" lon="3.81234">
        <ele>24</ele>
        <time>2021-01-09T14:03:21Z</time>
      </trkpt>
      <trkpt lat="43.57134" lon="3.81231">
        <ele>17</ele>
        <time>2021-01-09T14:03:22Z</time>
      </trkpt>
      <trkpt lat="43.57135" lon="3.81229">
        <ele>17</ele>
        <time>2021-01-09T14:03:23Z</time>
      </trkpt>
      <trkpt lat="43.57136" lon="3.81226">
        <ele>17.1</ele>
        <time>2021-01-09T14:03:24Z</time>
      </trkpt>
      <trkpt lat="43.57138" lon="3.81224">
        <ele>17</ele>
        <time>2021-01-09T14:03:25Z</time>
      </trkpt>
      <trkpt lat="43.57141" lon="3.81221">
        <ele>16.9</ele>
        <time>2021-01-09T14:03:26Z</time>
      </trkpt>
      <trkpt lat="43.57145" lon="3.81219">
        <ele>16.7</ele>
        <time>2021-01-09T14:03:27Z</time>
      </trkpt>
      <trkpt lat="43.57148" lon="3.81216">
        <ele>16.5</ele>
        <time>2021-01-09T14:03:28Z</time>
      </trkpt>
      <trkpt lat="43.57152" lon="3.81214">
        <ele>16.4</ele>
        <time>2021-01-09T14:03:29Z</time>
      </trkpt>
      <trkpt lat="43.57155" lon="3.81211">
        <ele>16.3</ele>
        <time>2021-01-09T14:03:30Z</time>
      </trkpt>
      <trkpt lat="43.57159" lon="3.81208">
        <ele>24</ele>
        <time>2021-01-09T14:03:31Z</time>
      </trkpt>
      <trkpt lat="43.57162" lon="3.81206">
        <ele>16.1</ele>
        <time>2021-01-09T14:03:32Z</time>
      </trkpt>
      <trkpt lat="43.57165" lon="3.81203">
        <ele>16</ele>
        <time>2021-01-09T14:03:33Z</time>
      </trkpt>
      <trkpt lat="43.57168" lon="3.812">
        <ele>16</ele>
        <time>2021-01-09T14:03:34Z</time>
      </trkpt>
      <trkpt lat="43.57171" lon="3.81198">
        <ele>16.1</ele>
        <time>2021-01-09T14:03:35Z</time>
      </trkpt>
      <trkpt lat="43.57175" lon="3.81195">
        <ele>16.3</ele>
        <time>2021-01-09T14:03:36Z</time>
      </trkpt>
      <trkpt lat="43.57179" lon="3.81193">
        <ele>16.4</ele>
        <time>2021-01-09T14:03:37Z</time>
      </trkpt>
      <trkpt lat="43.57182" lon="3.81191">
        <ele>16.5</ele>
        <time>2021-01-09T14:03:38Z</time>
      </trkpt>
      <trkpt lat="43.57186" lon="3.81188">
        <ele>16.5</ele>
        <time>2021-01-09T14:03:39Z</time>
      </trkpt>
      <trkpt lat="43.5719" lon="3.81185">
        <ele>16.6</ele>
        <time>2021-01-09T14:03:40Z</time>
      </trkpt>
      <trkpt lat="43.57194" lon="3.81182">
        <ele>24</ele>
        <time>2021-01-09T14:03:41Z</time>
      </trkpt>
      <trkpt lat="43.57198" lon="3.81179">
        <ele>16.4</ele>
        <time>2021-01-09T14:03:42Z</time>
      </trkpt>
      <trkpt lat="43.57202" lon="3.81176">
        <ele>16.2</ele>
        <time>2021-01-09T14:03:43Z</time>
      </trkpt>
      <trkpt lat="43.57205" lon="3.81173">
        <ele>16.1</ele>
        <time>2021-01-09T14:03:44Z</time>
      </trkpt>
      <trkpt lat="43.57209" lon="3.81171">
        <ele>16.1</ele>
        <time>2021-01-09T14:03:45Z</time>
      </trkpt>
      <trkpt lat="43.57213" lon="3.81168">
        <ele>16</ele>
        <time>2021-01-09T14:03:46Z</time>
      </trkpt>
      <trkpt lat="43.57217" lon="3.81166">
        <ele>16</ele>
        <time>2021-01-09T14:03:47Z</time>
      </trkpt>
      <trkpt lat="43.57221" lon="3.81163">
        <ele>16</ele>
        <time>2021-01-09T14:03:48Z</time>
      </trkpt>
      <trkpt lat="43.57225" lon="3.8116">
        <ele>16.1</ele>
        <time>2021-01-09T14:03:49Z</time>
      </trkpt>
      <trkpt lat="43.5723" lon="3.81157">
        <ele>16.2</ele>
        <time>2021-01-09T14:03:50Z</time>
      </trkpt>
      <trkpt lat="43.57234" lon="3.81155">
        <ele>24</ele>
        <time>2021-01-09T14:03:51Z</time>
      </trkpt>
      <trkpt lat="43.57238" lon="3.81152">
        <ele>16.3</ele>
        <time>2021-01-09T14:03:52Z</time>
      </trkpt>
      <trkpt lat="43.57242" lon="3.8115">
        <ele>16.3</ele>
        <time>2021-01-09T14:03:53Z</time>
      </trkpt>
      <trkpt lat="43.57247" lon="3.81147">
        <ele>16.3</ele>
        <time>2021-01-09T14:03:54Z</time>
      </trkpt>
      <trkpt lat="43.57251" lon="3.81145">
        <ele>16.2</ele>
        <time>2021-01-09T14:03:55Z</time>
      </trkpt>
      <trkpt lat="43.57255" lon="3.81143">
        <ele>16.1</ele>
        <time>2021-01-09T14:03:56Z</time>
      </trkpt>
      <trkpt lat="43.57259" lon="3.81141">
        <ele>16.1</ele>
        <time>2021-01-09T14:03:57Z</time>
      </trkpt>
      <trkpt lat="43.57263" lon="3.81139">
        <ele>16</ele>
        <time>2021-01-09T14:03:58Z</time>
      </trkpt>
      <trkpt lat="43.57267" lon="3.81136">
        <ele>16</ele>
        <time>2021-01-09T14:03:59Z</time>
      </trkpt>
      <trkpt lat="43.57271" lon="3.81132">
        <ele>16</ele>
        <time>2021-01-09T14:04:00Z</time>
      </trkpt>
      <trkpt lat="43.57275" lon="3.81128">
        <ele>24</ele>
        <time>2021-01-09T14:04:01Z</time>
      </trkpt>
      <trkpt lat="43.57279" lon="3.81124">
        <ele>16</ele>
        <time>2021-01-09T14:04:02Z</time>
      </trkpt>
      <trkpt lat="43.57283" lon="3.81121">
        <ele>16</ele>
        <time>2021-01-09T14:04:03Z</time>
      </trkpt>
      <trkpt lat="43.57285" lon="3.81117">
        <ele>16</ele>
        <time>2021-01-09T14:04:04Z</time>
      </trkpt>
      <trkpt lat="43.57289" lon="3.81113">
        <ele>16</ele>
        <time>2021-01-09T14:04:05Z</time>
      </trkpt>
      <trkpt lat="43.57294" lon="3.81111">
        <ele>16</ele>
        <time>2021-01-09T14:04:06Z</time>
      </trkpt>
      <trkpt lat="43.57298" lon="3.8111">
        <ele>16</ele>
        <time>2021-01-09T14:04:07Z</time>
      </trkpt>
      <trkpt lat="43.57301" lon="3.81111">
        <ele>16</ele>
        <time>2021-01-09T14:04:08Z</time>
      </trkpt>
      <trkpt lat="43.57303" lon="3.81112">
        <ele>16</ele>
        <time>2021-01-09T14:04:09Z</time>
      </trkpt>
      <trkpt lat="43.57305" lon="3.81113">
        <ele>16</ele>
        <time>2021-01-09T14:04:10Z</time>
      </trkpt>
      <trkpt lat="43.57308" lon="3.81111">
        <ele>16</ele>
        <time>2021-01-09T14:04:12Z</time>
      </trkpt>
      <trkpt lat="43.57309" lon="3.8111">
        <ele>16</ele>
        <time>2021-01-09T14:04:13Z</time>
      </trkpt>
      <trkpt lat="43.57312" lon="3.81111">
        <ele>16</ele>
        <time>2021-01-09T14:04:14Z</time>
      </trkpt>
      <trkpt lat="43.57314" lon="3.81113">
        <ele>16</ele>
        <time>2021-01-09T14:04:15Z</time>
      </trkpt>
      <trkpt lat="43.57316" lon="3.81116">
        <ele>16</ele>
        <time>2021-01-09T14:04:16Z</time>
      </trkpt>
      <trkpt lat="43.57318" lon="3.8112">
        <ele>16</ele>
        <time>2021-01-09T14:04:17Z</time>
      </trkpt>
      <trkpt lat="43.57321" lon="3.81124">
        <ele>16</ele>
        <time>2021-01-09T14:04:18Z</time>
      </trkpt>
      <trkpt lat="43.57324" lon="3.81127">
        <ele>16</ele>
        <time>2021-01-09T14:04:19Z</time>
      </trkpt>
      <trkpt lat="43.57328" lon="3.8113">
        <ele>16</ele>
        <time>2021-01-09T14:04:20Z</time>
      </trkpt>
      <trkpt lat="43.57332" lon="3.81135">
        <ele>24</ele>
        <time>2021-01-09T14:04:21Z</time>
      </trkpt>
      <trkpt lat="43.57336" lon="3.81138">
        <ele>16</ele>
        <time>2021-01-09T14:04:22Z</time>
      </trkpt>
      <trkpt lat="43.57341" lon="3.81142">
        <ele>16</ele>
        <time>2021-01-09T14:04:23Z</time>
      </trkpt>
      <trkpt lat="43.57344" lon="3.81147">
        <ele>16.1</ele>
        <time>2021-01-09T14:04:24Z</time>
      </trkpt>
      <trkpt lat="43.57347" lon="3.81152">
        <ele>16.2</ele>
        <time>2021-01-09T14:04:25Z</time>
      </trkpt>
      <trkpt lat="43.5735" lon="3.81157">
        <ele>16.4</ele>
        <time>2021-01-09T14:04:26Z</time>
      </trkpt>
      <trkpt lat="43.57354" lon="3.8116">
        <ele>16.6</ele>
        <time>2021-01-09T14:04:27Z</time>
      </trkpt>
      <trkpt lat="43.57359" lon="3.81162">
        <ele>16.8</ele>
        <time>2021-01-09T14:04:28Z</time>
      </trkpt>
      <trkpt lat="43.57364" lon="3.81163">
        <ele>16.8</ele>
        <time>2021-01-09T14:04:29Z</time>
      </trkpt>
      <trkpt lat="43.57369" lon="3.81165">
        <ele>16.7</ele>
        <time>2021-01-09T14:04:30Z</time>
      </trkpt>
      <trkpt lat="43.57374" lon="3.81168">
        <ele>24</ele>
        <time>2021-01-09T14:04:31Z</time>
      </trkpt>
      <trkpt lat="43.57378" lon="3.81169">
        <ele>16.4</ele>
        <time>2021-01-09T14:04:32Z</time>
      </trkpt>
      <trkpt lat="43.57383" lon="3.8117">
        <ele>16.3</ele>
        <time>2021-01-09T14:04:33Z</time>
      </trkpt>
      <trkpt lat="43.57388" lon="3.81172">
        <ele>16.2</ele>
        <time>2021-01-09T14:04:34Z</time>
      </trkpt>
      <trkpt lat="43.57392" lon="3.81177">
        <ele>16.4</ele>
        <time>2021-01-09T14:04:35Z</time>
      </trkpt>
      <trkpt lat="43.57395" lon="3.81182">
        <ele>16.7</ele>
        <time>2021-01-09T14:04:36Z</time>
      </trkpt>
      <trkpt lat="43.57396" lon="3.81189">
        <ele>16.9</ele>
        <time>2021-01-09T14:04:37Z</time>
      </trkpt>
      <trkpt lat="43.57397" lon="3.81193">
        <ele>17</ele>
        <time>2021-01-09T14:04:38Z</time>
      </trkpt>
      <trkpt lat="43.57399" lon="3.81197">
        <ele>17</ele>
        <time>2021-01-09T14:04:39Z</time>
      </trkpt>
      <trkpt lat="43.57402" lon="3.812">
        <ele>17</ele>
        <time>2021-01-09T14:04:40Z</time>
      </trkpt>
      <trkpt lat="43.57404" lon="3.81204">
        <ele>24</ele>
        <time>2021-01-09T14:04:41Z</time>
      </trkpt>
      <trkpt lat="43.57405" lon="3.81208">
        <ele>17</ele>
        <time>2021-01-09T14:04:42Z</time>
      </trkpt>
      <trkpt lat="43.57406" lon="3.81213">
        <ele>17</ele>
        <time>2021-01-09T14:04:43Z</time>
      </trkpt>
      <trkpt lat="43.57405" lon="3.81217">
        <ele>17</ele>
        <time>2021-01-09T14:04:44Z</time>
      </trkpt>
      <trkpt lat="43.57403" lon="3.8122">
        <ele>17</ele>
        <time>2021-01-09T14:04:45Z</time>
      </trkpt>
      <trkpt lat="43.57399" lon="3.81222">
        <ele>17</ele>
        <time>2021-01-09T14:04:46Z</time>
      </trkpt>
      <trkpt lat="43.57396" lon="3.81224">
        <ele>17</ele>
        <time>2021-01-09T14:04:47Z</time>
      </trkpt>
      <trkpt lat="43.57394" lon="3.81228">
        <ele>17</ele>
        <time>2021-01-09T14:04:48Z</time>
      </trkpt>
      <trkpt lat="43.57392" lon="3.81232">
        <ele>17</ele>
        <time>2021-01-09T14:04:49Z</time>
      </trkpt>
      <trkpt lat="43.57391" lon="3.81238">
        <ele>17</ele>
        <time>2021-01-09T14:04:50Z</time>
      </trkpt>
      <trkpt lat="43.57391" lon="3.81243">
        <ele>23</ele>
        <time>2021-01-09T14:04:51Z</time>
      </trkpt>
      <trkpt lat="43.57391" lon="3.81248">
        <ele>17</ele>
        <time>2021-01-09T14:04:52Z</time>
      </trkpt>
      <trkpt lat="43.57391" lon="3.81253">
        <ele>17</ele>
        <time>2021-01-09T14:04:53Z</time>
      </trkpt>
      <trkpt lat="43.57392" lon="3.81259">
        <ele>17</ele>
        <time>2021-01-09T14:04:54Z</time>
      </trkpt>
      <trkpt lat="43.57393" lon="3.81263">
        <ele>17</ele>
        <time>2021-01-09T14:04:55Z</time>
      </trkpt>
      <trkpt lat="43.57395" lon="3.81267">
        <ele>17</ele>
        <time>2021-01-09T14:04:56Z</time>
      </trkpt>
      <trkpt lat="43.57398" lon="3.81271">
        <ele>17</ele>
        <time>2021-01-09T14:04:57Z</time>
      </trkpt>
      <trkpt lat="43.57402" lon="3.81273">
        <ele>17</ele>
        <time>2021-01-09T14:04:58Z</time>
      </trkpt>
      <trkpt lat="43.57406" lon="3.81274">
        <ele>17</ele>
        <time>2021-01-09T14:04:59Z</time>
      </trkpt>
      <trkpt lat="43.57409" lon="3.81275">
        <ele>17</ele>
        <time>2021-01-09T14:05:00Z</time>
      </trkpt>
      <trkpt lat="43.57413" lon="3.81276">
        <ele>23</ele>
        <time>2021-01-09T14:05:01Z</time>
      </trkpt>
      <trkpt lat="43.57417" lon="3.81277">
        <ele>17</ele>
        <time>2021-01-09T14:05:02Z</time>
      </trkpt>
      <trkpt lat="43.57421" lon="3.81278">
        <ele>17</ele>
        <time>2021-01-09T14:05:03Z</time>
      </trkpt>
      <trkpt lat="43.57424" lon="3.8128">
        <ele>17</ele>
        <time>2021-01-09T14:05:04Z</time>
      </trkpt>
      <trkpt lat="43.57428" lon="3.81282">
        <ele>17</ele>
        <time>2021-01-09T14:05:05Z</time>
      </trkpt>
      <trkpt lat="43.57432" lon="3.81285">
        <ele>17</ele>
        <time>2021-01-09T14:05:06Z</time>
      </trkpt>
      <trkpt lat="43.57435" lon="3.81288">
        <ele>17</ele>
        <time>2021-01-09T14:05:07Z</time>
      </trkpt>
      <trkpt lat="43.57439" lon="3.8129">
        <ele>17</ele>
        <time>2021-01-09T14:05:08Z</time>
      </trkpt>
      <trkpt lat="43.57443" lon="3.81293">
        <ele>17</ele>
        <time>2021-01-09T14:05:09Z</time>
      </trkpt>
      <trkpt lat="43.57446" lon="3.81296">
        <ele>17</ele>
        <time>2021-01-09T14:05:10Z</time>
      </trkpt>
      <trkpt lat="43.57449" lon="3.81299">
        <ele>22</ele>
        <time>2021-01-09T14:05:11Z</time>
      </trkpt>
      <trkpt lat="43.57453" lon="3.81301">
        <ele>17</ele>
        <time>2021-01-09T14:05:12Z</time>
      </trkpt>
      <trkpt lat="43.57456" lon="3.81303">
        <ele>17</ele>
        <time>2021-01-09T14:05:13Z</time>
      </trkpt>
      <trkpt lat="43.5746" lon="3.81305">
        <ele>17</ele>
        <time>2021-01-09T14:05:14Z</time>
      </trkpt>
      <trkpt lat="43.57463" lon="3.81307">
        <ele>17</ele>
        <time>2021-01-09T14:05:15Z</time>
      </trkpt>
      <trkpt lat="43.57467" lon="3.81309">
        <ele>17</ele>
        <time>2021-01-09T14:05:16Z</time>
      </trkpt>
      <trkpt lat="43.57469" lon="3.81312">
        <ele>17</ele>
        <time>2021-01-09T14:05:17Z</time>
      </trkpt>
      <trkpt lat="43.57469" lon="3.81316">
        <ele>17</ele>
        <time>2021-01-09T14:05:18Z</time>
      </trkpt>
      <trkpt lat="43.57468" lon="3.8132">
        <ele>17</ele>
        <time>2021-01-09T14:05:19Z</time>
      </trkpt>
      <trkpt lat="43.57466" lon="3.81323">
        <ele>17</ele>
        <time>2021-01-09T14:05:20Z</time>
      </trkpt>
      <trkpt lat="43.57464" lon="3.81327">
        <ele>22</ele>
        <time>2021-01-09T14:05:21Z</time>
      </trkpt>
      <trkpt lat="43.57463" lon="3.8133">
        <ele>17</ele>
        <time>2021-01-09T14:05:22Z</time>
      </trkpt>
      <trkpt lat="43.57461" lon="3.81332">
        <ele>17</ele>
        <time>2021-01-09T14:05:23Z</time>
      </trkpt>
      <trkpt lat="43.5746" lon="3.81335">
        <ele>17</ele>
        <time>2021-01-09T14:05:25Z</time>
      </trkpt>
      <trkpt lat="43.57457" lon="3.81336">
        <ele>17</ele>
        <time>2021-01-09T14:05:28Z</time>
      </trkpt>
      <trkpt lat="43.57456" lon="3.81338">
        <ele>17</ele>
        <time>2021-01-09T14:05:30Z</time>
      </trkpt>
      <trkpt lat="43.57456" lon="3.81341">
        <ele>17</ele>
        <time>2021-01-09T14:05:35Z</time>
      </trkpt>
      <trkpt lat="43.57457" lon="3.81344">
        <ele>17</ele>
        <time>2021-01-09T14:05:38Z</time>
      </trkpt>
      <trkpt lat="43.57459" lon="3.81348">
        <ele>17</ele>
        <time>2021-01-09T14:05:40Z</time>
      </trkpt>
      <trkpt lat="43.5746" lon="3.81352">
        <ele>17</ele>
        <time>2021-01-09T14:05:42Z</time>
      </trkpt>
      <trkpt lat="43.57462" lon="3.81355">
        <ele>17</ele>
        <time>2021-01-09T14:05:44Z</time>
      </trkpt>
      <trkpt lat="43.57455" lon="3.81343">
        <ele>27</ele>
        <time>2021-01-09T14:06:11Z</time>
      </trkpt>
      <trkpt lat="43.57454" lon="3.81339">
        <ele>17</ele>
        <time>2021-01-09T14:06:13Z</time>
      </trkpt>
      <trkpt lat="43.57456" lon="3.81336">
        <ele>17</ele>
        <time>2021-01-09T14:06:15Z</time>
      </trkpt>
      <trkpt lat="43.57458" lon="3.81334">
        <ele>17</ele>
        <time>2021-01-09T14:06:16Z</time>
      </trkpt>
      <trkpt lat="43.57459" lon="3.81331">
        <ele>17</ele>
        <time>2021-01-09T14:06:17Z</time>
      </trkpt>
      <trkpt lat="43.57461" lon="3.81327">
        <ele>17</ele>
        <time>2021-01-09T14:06:18Z</time>
      </trkpt>
      <trkpt lat="43.57463" lon="3.81323">
        <ele>17</ele>
        <time>2021-01-09T14:06:19Z</time>
      </trkpt>
      <trkpt lat="43.57465" lon="3.81319">
        <ele>17</ele>
        <time>2021-01-09T14:06:20Z</time>
      </trkpt>
      <trkpt lat="43.57467" lon="3.81315">
        <ele>27</ele>
        <time>2021-01-09T14:06:21Z</time>
      </trkpt>
      <trkpt lat="43.5747" lon="3.81312">
        <ele>17</ele>
        <time>2021-01-09T14:06:22Z</time>
      </trkpt>
      <trkpt lat="43.57473" lon="3.81311">
        <ele>17</ele>
        <time>2021-01-09T14:06:23Z</time>
      </trkpt>
      <trkpt lat="43.57477" lon="3.8131">
        <ele>17</ele>
        <time>2021-01-09T14:06:24Z</time>
      </trkpt>
      <trkpt lat="43.5748" lon="3.81308">
        <ele>17</ele>
        <time>2021-01-09T14:06:25Z</time>
      </trkpt>
      <trkpt lat="43.57483" lon="3.81305">
        <ele>17</ele>
        <time>2021-01-09T14:06:26Z</time>
      </trkpt>
      <trkpt lat="43.57486" lon="3.81301">
        <ele>17</ele>
        <time>2021-01-09T14:06:27Z</time>
      </trkpt>
      <trkpt lat="43.57489" lon="3.81298">
        <ele>17</ele>
        <time>2021-01-09T14:06:28Z</time>
      </trkpt>
      <trkpt lat="43.57491" lon="3.81297">
        <ele>17</ele>
        <time>2021-01-09T14:06:29Z</time>
      </trkpt>
      <trkpt lat="43.57494" lon="3.81297">
        <ele>17</ele>
        <time>2021-01-09T14:06:30Z</time>
      </trkpt>
      <trkpt lat="43.57497" lon="3.81299">
        <ele>26</ele>
        <time>2021-01-09T14:06:31Z</time>
      </trkpt>
      <trkpt lat="43.575" lon="3.81302">
        <ele>17</ele>
        <time>2021-01-09T14:06:32Z</time>
      </trkpt>
      <trkpt lat="43.57503" lon="3.81306">
        <ele>17</ele>
        <time>2021-01-09T14:06:33Z</time>
      </trkpt>
      <trkpt lat="43.57506" lon="3.8131">
        <ele>17</ele>
        <time>2021-01-09T14:06:34Z</time>
      </trkpt>
      <trkpt lat="43.57509" lon="3.81314">
        <ele>17.1</ele>
        <time>2021-01-09T14:06:35Z</time>
      </trkpt>
      <trkpt lat="43.57511" lon="3.81318">
        <ele>17.2</ele>
        <time>2021-01-09T14:06:36Z</time>
      </trkpt>
      <trkpt lat="43.57516" lon="3.81327">
        <ele>17.4</ele>
        <time>2021-01-09T14:06:37Z</time>
      </trkpt>
      <trkpt lat="43.57518" lon="3.81331">
        <ele>17.6</ele>
        <time>2021-01-09T14:06:38Z</time>
      </trkpt>
      <trkpt lat="43.57521" lon="3.81336">
        <ele>17.7</ele>
        <time>2021-01-09T14:06:39Z</time>
      </trkpt>
      <trkpt lat="43.57523" lon="3.8134">
        <ele>24</ele>
        <time>2021-01-09T14:06:41Z</time>
      </trkpt>
      <trkpt lat="43.57526" lon="3.81343">
        <ele>17.6</ele>
        <time>2021-01-09T14:06:42Z</time>
      </trkpt>
      <trkpt lat="43.57529" lon="3.81346">
        <ele>17.6</ele>
        <time>2021-01-09T14:06:43Z</time>
      </trkpt>
      <trkpt lat="43.57532" lon="3.81349">
        <ele>17.5</ele>
        <time>2021-01-09T14:06:44Z</time>
      </trkpt>
      <trkpt lat="43.57535" lon="3.81353">
        <ele>17.5</ele>
        <time>2021-01-09T14:06:45Z</time>
      </trkpt>
      <trkpt lat="43.57538" lon="3.81356">
        <ele>17.5</ele>
        <time>2021-01-09T14:06:46Z</time>
      </trkpt>
      <trkpt lat="43.57539" lon="3.81358">
        <ele>17.5</ele>
        <time>2021-01-09T14:06:47Z</time>
      </trkpt>
      <trkpt lat="43.57539" lon="3.81357">
        <ele>23</ele>
        <time>2021-01-09T14:06:54Z</time>
      </trkpt>
      <trkpt lat="43.57542" lon="3.81363">
        <ele>22</ele>
        <time>2021-01-09T14:07:05Z</time>
      </trkpt>
      <trkpt lat="43.57543" lon="3.81366">
        <ele>17.5</ele>
        <time>2021-01-09T14:07:06Z</time>
      </trkpt>
      <trkpt lat="43.57544" lon="3.8137">
        <ele>17.5</ele>
        <time>2021-01-09T14:07:07Z</time>
      </trkpt>
      <trkpt lat="43.57545" lon="3.81374">
        <ele>17.5</ele>
        <time>2021-01-09T14:07:08Z</time>
      </trkpt>
      <trkpt lat="43.57546" lon="3.81378">
        <ele>17.5</ele>
        <time>2021-01-09T14:07:09Z</time>
      </trkpt>
      <trkpt lat="43.57547" lon="3.81382">
        <ele>17.4</ele>
        <time>2021-01-09T14:07:10Z</time>
      </trkpt>
      <trkpt lat="43.57549" lon="3.81386">
        <ele>17.3</ele>
        <time>2021-01-09T14:07:11Z</time>
      </trkpt>
      <trkpt lat="43.57551" lon="3.8139">
        <ele>17.2</ele>
        <time>2021-01-09T14:07:12Z</time>
      </trkpt>
      <trkpt lat="43.57553" lon="3.81394">
        <ele>17.1</ele>
        <time>2021-01-09T14:07:13Z</time>
      </trkpt>
      <trkpt lat="43.57555" lon="3.81398">
        <ele>17</ele>
        <time>2021-01-09T14:07:14Z</time>
      </trkpt>
      <trkpt lat="43.57556" lon="3.81402">
        <ele>22</ele>
        <time>2021-01-09T14:07:15Z</time>
      </trkpt>
      <trkpt lat="43.57556" lon="3.81405">
        <ele>17</ele>
        <time>2021-01-09T14:07:16Z</time>
      </trkpt>
      <trkpt lat="43.57555" lon="3.8141">
        <ele>17</ele>
        <time>2021-01-09T14:07:17Z</time>
      </trkpt>
      <trkpt lat="43.57554" lon="3.81414">
        <ele>17</ele>
        <time>2021-01-09T14:07:18Z</time>
      </trkpt>
      <trkpt lat="43.57553" lon="3.81419">
        <ele>17.1</ele>
        <time>2021-01-09T14:07:19Z</time>
      </trkpt>
      <trkpt lat="43.57552" lon="3.81425">
        <ele>17.3</ele>
        <time>2021-01-09T14:07:20Z</time>
      </trkpt>
      <trkpt lat="43.5755" lon="3.81431">
        <ele>17.5</ele>
        <time>2021-01-09T14:07:21Z</time>
      </trkpt>
      <trkpt lat="43.57549" lon="3.81437">
        <ele>17.7</ele>
        <time>2021-01-09T14:07:22Z</time>
      </trkpt>
      <trkpt lat="43.57547" lon="3.81442">
        <ele>17.9</ele>
        <time>2021-01-09T14:07:23Z</time>
      </trkpt>
      <trkpt lat="43.57546" lon="3.81447">
        <ele>18</ele>
        <time>2021-01-09T14:07:24Z</time>
      </trkpt>
      <trkpt lat="43.57545" lon="3.81451">
        <ele>22</ele>
        <time>2021-01-09T14:07:25Z</time>
      </trkpt>
      <trkpt lat="43.57547" lon="3.81457">
        <ele>18</ele>
        <time>2021-01-09T14:07:26Z</time>
      </trkpt>
      <trkpt lat="43.57548" lon="3.81458">
        <ele>18</ele>
        <time>2021-01-09T14:07:27Z</time>
      </trkpt>
      <trkpt lat="43.5755" lon="3.81459">
        <ele>18</ele>
        <time>2021-01-09T14:07:28Z</time>
      </trkpt>
      <trkpt lat="43.57553" lon="3.8146">
        <ele>18</ele>
        <time>2021-01-09T14:07:29Z</time>
      </trkpt>
      <trkpt lat="43.57556" lon="3.81462">
        <ele>18</ele>
        <time>2021-01-09T14:07:30Z</time>
      </trkpt>
      <trkpt lat="43.57559" lon="3.81463">
        <ele>18</ele>
        <time>2021-01-09T14:07:31Z</time>
      </trkpt>
      <trkpt lat="43.57563" lon="3.81464">
        <ele>18</ele>
        <time>2021-01-09T14:07:32Z</time>
      </trkpt>
      <trkpt lat="43.57566" lon="3.81466">
        <ele>18</ele>
        <time>2021-01-09T14:07:33Z</time>
      </trkpt>
      <trkpt lat="43.5757" lon="3.81468">
        <ele>22</ele>
        <time>2021-01-09T14:07:35Z</time>
      </trkpt>
      <trkpt lat="43.57573" lon="3.8147">
        <ele>18</ele>
        <time>2021-01-09T14:07:36Z</time>
      </trkpt>
      <trkpt lat="43.57576" lon="3.81472">
        <ele>18</ele>
        <time>2021-01-09T14:07:37Z</time>
      </trkpt>
      <trkpt lat="43.5758" lon="3.81474">
        <ele>18</ele>
        <time>2021-01-09T14:07:38Z</time>
      </trkpt>
      <trkpt lat="43.57584" lon="3.81474">
        <ele>18</ele>
        <time>2021-01-09T14:07:39Z</time>
      </trkpt>
      <trkpt lat="43.57586" lon="3.81474">
        <ele>18</ele>
        <time>2021-01-09T14:07:40Z</time>
      </trkpt>
      <trkpt lat="43.57589" lon="3.81475">
        <ele>18</ele>
        <time>2021-01-09T14:07:41Z</time>
      </trkpt>
      <trkpt lat="43.57592" lon="3.81475">
        <ele>18</ele>
        <time>2021-01-09T14:07:42Z</time>
      </trkpt>
      <trkpt lat="43.57595" lon="3.81478">
        <ele>18.1</ele>
        <time>2021-01-09T14:07:43Z</time>
      </trkpt>
      <trkpt lat="43.57598" lon="3.81481">
        <ele>18.2</ele>
        <time>2021-01-09T14:07:44Z</time>
      </trkpt>
      <trkpt lat="43.57601" lon="3.81484">
        <ele>25</ele>
        <time>2021-01-09T14:07:45Z</time>
      </trkpt>
      <trkpt lat="43.57603" lon="3.81487">
        <ele>18.4</ele>
        <time>2021-01-09T14:07:46Z</time>
      </trkpt>
      <trkpt lat="43.57605" lon="3.81489">
        <ele>18.5</ele>
        <time>2021-01-09T14:07:47Z</time>
      </trkpt>
      <trkpt lat="43.57606" lon="3.81491">
        <ele>18.6</ele>
        <time>2021-01-09T14:07:48Z</time>
      </trkpt>
      <trkpt lat="43.57607" lon="3.81495">
        <ele>18.7</ele>
        <time>2021-01-09T14:07:49Z</time>
      </trkpt>
      <trkpt lat="43.57608" lon="3.81501">
        <ele>18.9</ele>
        <time>2021-01-09T14:07:50Z</time>
      </trkpt>
      <trkpt lat="43.5761" lon="3.81507">
        <ele>18.7</ele>
        <time>2021-01-09T14:07:51Z</time>
      </trkpt>
      <trkpt lat="43.57613" lon="3.81513">
        <ele>18.5</ele>
        <time>2021-01-09T14:07:52Z</time>
      </trkpt>
      <trkpt lat="43.57616" lon="3.81517">
        <ele>18.4</ele>
        <time>2021-01-09T14:07:53Z</time>
      </trkpt>
      <trkpt lat="43.57619" lon="3.81519">
        <ele>18.4</ele>
        <time>2021-01-09T14:07:54Z</time>
      </trkpt>
      <trkpt lat="43.57622" lon="3.81522">
        <ele>25</ele>
        <time>2021-01-09T14:07:55Z</time>
      </trkpt>
      <trkpt lat="43.57624" lon="3.81523">
        <ele>18.5</ele>
        <time>2021-01-09T14:07:56Z</time>
      </trkpt>
      <trkpt lat="43.57627" lon="3.81525">
        <ele>18.6</ele>
        <time>2021-01-09T14:07:57Z</time>
      </trkpt>
      <trkpt lat="43.57629" lon="3.81526">
        <ele>18.6</ele>
        <time>2021-01-09T14:07:58Z</time>
      </trkpt>
      <trkpt lat="43.57631" lon="3.81527">
        <ele>18.7</ele>
        <time>2021-01-09T14:07:59Z</time>
      </trkpt>
      <trkpt lat="43.57633" lon="3.81527">
        <ele>18.8</ele>
        <time>2021-01-09T14:08:00Z</time>
      </trkpt>
      <trkpt lat="43.57635" lon="3.81528">
        <ele>18.9</ele>
        <time>2021-01-09T14:08:01Z</time>
      </trkpt>
      <trkpt lat="43.57638" lon="3.81529">
        <ele>19</ele>
        <time>2021-01-09T14:08:02Z</time>
      </trkpt>
      <trkpt lat="43.57641" lon="3.81531">
        <ele>19</ele>
        <time>2021-01-09T14:08:03Z</time>
      </trkpt>
      <trkpt lat="43.57642" lon="3.81533">
        <ele>19</ele>
        <time>2021-01-09T14:08:04Z</time>
      </trkpt>
      <trkpt lat="43.57646" lon="3.81532">
        <ele>19</ele>
        <time>2021-01-09T14:08:06Z</time>
      </trkpt>
      <trkpt lat="43.57648" lon="3.81531">
        <ele>19</ele>
        <time>2021-01-09T14:08:07Z</time>
      </trkpt>
      <trkpt lat="43.57652" lon="3.81531">
        <ele>18.9</ele>
        <time>2021-01-09T14:08:08Z</time>
      </trkpt>
      <trkpt lat="43.57655" lon="3.81532">
        <ele>18.9</ele>
        <time>2021-01-09T14:08:09Z</time>
      </trkpt>
      <trkpt lat="43.57659" lon="3.81533">
        <ele>18.9</ele>
        <time>2021-01-09T14:08:10Z</time>
      </trkpt>
      <trkpt lat="43.57662" lon="3.81533">
        <ele>18.8</ele>
        <time>2021-01-09T14:08:11Z</time>
      </trkpt>
      <trkpt lat="43.57666" lon="3.81533">
        <ele>18.8</ele>
        <time>2021-01-09T14:08:12Z</time>
      </trkpt>
      <trkpt lat="43.57669" lon="3.81531">
        <ele>18.8</ele>
        <time>2021-01-09T14:08:13Z</time>
      </trkpt>
      <trkpt lat="43.57672" lon="3.81529">
        <ele>18.8</ele>
        <time>2021-01-09T14:08:14Z</time>
      </trkpt>
      <trkpt lat="43.57675" lon="3.81526">
        <ele>23</ele>
        <time>2021-01-09T14:08:15Z</time>
      </trkpt>
      <trkpt lat="43.57679" lon="3.81524">
        <ele>18.5</ele>
        <time>2021-01-09T14:08:16Z</time>
      </trkpt>
      <trkpt lat="43.57682" lon="3.81522">
        <ele>18.5</ele>
        <time>2021-01-09T14:08:17Z</time>
      </trkpt>
      <trkpt lat="43.57686" lon="3.8152">
        <ele>18.4</ele>
        <time>2021-01-09T14:08:18Z</time>
      </trkpt>
      <trkpt lat="43.57689" lon="3.81518">
        <ele>18.4</ele>
        <time>2021-01-09T14:08:19Z</time>
      </trkpt>
      <trkpt lat="43.57693" lon="3.81516">
        <ele>18.4</ele>
        <time>2021-01-09T14:08:20Z</time>
      </trkpt>
      <trkpt lat="43.57697" lon="3.81514">
        <ele>18.5</ele>
        <time>2021-01-09T14:08:21Z</time>
      </trkpt>
      <trkpt lat="43.577" lon="3.81511">
        <ele>18.6</ele>
        <time>2021-01-09T14:08:22Z</time>
      </trkpt>
      <trkpt lat="43.57703" lon="3.81509">
        <ele>18.7</ele>
        <time>2021-01-09T14:08:23Z</time>
      </trkpt>
      <trkpt lat="43.57707" lon="3.81507">
        <ele>18.7</ele>
        <time>2021-01-09T14:08:24Z</time>
      </trkpt>
      <trkpt lat="43.5771" lon="3.81504">
        <ele>23</ele>
        <time>2021-01-09T14:08:25Z</time>
      </trkpt>
      <trkpt lat="43.57714" lon="3.81501">
        <ele>19</ele>
        <time>2021-01-09T14:08:26Z</time>
      </trkpt>
      <trkpt lat="43.57717" lon="3.81497">
        <ele>18.9</ele>
        <time>2021-01-09T14:08:27Z</time>
      </trkpt>
      <trkpt lat="43.57721" lon="3.81494">
        <ele>18.8</ele>
        <time>2021-01-09T14:08:28Z</time>
      </trkpt>
      <trkpt lat="43.57725" lon="3.81492">
        <ele>18.7</ele>
        <time>2021-01-09T14:08:29Z</time>
      </trkpt>
      <trkpt lat="43.57729" lon="3.81489">
        <ele>18.7</ele>
        <time>2021-01-09T14:08:30Z</time>
      </trkpt>
      <trkpt lat="43.57732" lon="3.81485">
        <ele>18.7</ele>
        <time>2021-01-09T14:08:31Z</time>
      </trkpt>
      <trkpt lat="43.57736" lon="3.81482">
        <ele>18.7</ele>
        <time>2021-01-09T14:08:32Z</time>
      </trkpt>
      <trkpt lat="43.57739" lon="3.81479">
        <ele>18.7</ele>
        <time>2021-01-09T14:08:33Z</time>
      </trkpt>
      <trkpt lat="43.57743" lon="3.81476">
        <ele>18.8</ele>
        <time>2021-01-09T14:08:34Z</time>
      </trkpt>
      <trkpt lat="43.57747" lon="3.81474">
        <ele>22</ele>
        <time>2021-01-09T14:08:35Z</time>
      </trkpt>
      <trkpt lat="43.57751" lon="3.81473">
        <ele>19</ele>
        <time>2021-01-09T14:08:36Z</time>
      </trkpt>
      <trkpt lat="43.57755" lon="3.81473">
        <ele>19</ele>
        <time>2021-01-09T14:08:37Z</time>
      </trkpt>
      <trkpt lat="43.5776" lon="3.81472">
        <ele>19</ele>
        <time>2021-01-09T14:08:38Z</time>
      </trkpt>
      <trkpt lat="43.57764" lon="3.8147">
        <ele>18.9</ele>
        <time>2021-01-09T14:08:39Z</time>
      </trkpt>
      <trkpt lat="43.57769" lon="3.81468">
        <ele>18.8</ele>
        <time>2021-01-09T14:08:40Z</time>
      </trkpt>
      <trkpt lat="43.57774" lon="3.81467">
        <ele>18.8</ele>
        <time>2021-01-09T14:08:41Z</time>
      </trkpt>
      <trkpt lat="43.57779" lon="3.81466">
        <ele>18.8</ele>
        <time>2021-01-09T14:08:42Z</time>
      </trkpt>
      <trkpt lat="43.57784" lon="3.81465">
        <ele>18.8</ele>
        <time>2021-01-09T14:08:43Z</time>
      </trkpt>
      <trkpt lat="43.57788" lon="3.81464">
        <ele>18.8</ele>
        <time>2021-01-09T14:08:44Z</time>
      </trkpt>
      <trkpt lat="43.57793" lon="3.81463">
        <ele>21</ele>
        <time>2021-01-09T14:08:45Z</time>
      </trkpt>
      <trkpt lat="43.57798" lon="3.81463">
        <ele>18.9</ele>
        <time>2021-01-09T14:08:46Z</time>
      </trkpt>
      <trkpt lat="43.57803" lon="3.81462">
        <ele>19</ele>
        <time>2021-01-09T14:08:47Z</time>
      </trkpt>
      <trkpt lat="43.57807" lon="3.81461">
        <ele>19</ele>
        <time>2021-01-09T14:08:48Z</time>
      </trkpt>
      <trkpt lat="43.57812" lon="3.8146">
        <ele>19</ele>
        <time>2021-01-09T14:08:49Z</time>
      </trkpt>
      <trkpt lat="43.57817" lon="3.81459">
        <ele>19</ele>
        <time>2021-01-09T14:08:50Z</time>
      </trkpt>
      <trkpt lat="43.57821" lon="3.81458">
        <ele>19</ele>
        <time>2021-01-09T14:08:51Z</time>
      </trkpt>
      <trkpt lat="43.57826" lon="3.81457">
        <ele>19</ele>
        <time>2021-01-09T14:08:52Z</time>
      </trkpt>
      <trkpt lat="43.57831" lon="3.81455">
        <ele>19</ele>
        <time>2021-01-09T14:08:53Z</time>
      </trkpt>
      <trkpt lat="43.57835" lon="3.81454">
        <ele>19</ele>
        <time>2021-01-09T14:08:54Z</time>
      </trkpt>
      <trkpt lat="43.5784" lon="3.81452">
        <ele>22</ele>
        <time>2021-01-09T14:08:55Z</time>
      </trkpt>
      <trkpt lat="43.57845" lon="3.81451">
        <ele>19</ele>
        <time>2021-01-09T14:08:56Z</time>
      </trkpt>
      <trkpt lat="43.57849" lon="3.81449">
        <ele>19</ele>
        <time>2021-01-09T14:08:57Z</time>
      </trkpt>
      <trkpt lat="43.57854" lon="3.81447">
        <ele>19</ele>
        <time>2021-01-09T14:08:58Z</time>
      </trkpt>
      <trkpt lat="43.57859" lon="3.81446">
        <ele>19</ele>
        <time>2021-01-09T14:08:59Z</time>
      </trkpt>
      <trkpt lat="43.57864" lon="3.81444">
        <ele>19</ele>
        <time>2021-01-09T14:09:00Z</time>
      </trkpt>
      <trkpt lat="43.57868" lon="3.81443">
        <ele>19</ele>
        <time>2021-01-09T14:09:01Z</time>
      </trkpt>
      <trkpt lat="43.57873" lon="3.81442">
        <ele>19</ele>
        <time>2021-01-09T14:09:02Z</time>
      </trkpt>
      <trkpt lat="43.57878" lon="3.8144">
        <ele>19</ele>
        <time>2021-01-09T14:09:03Z</time>
      </trkpt>
      <trkpt lat="43.57883" lon="3.81439">
        <ele>19</ele>
        <time>2021-01-09T14:09:04Z</time>
      </trkpt>
      <trkpt lat="43.57888" lon="3.81438">
        <ele>22</ele>
        <time>2021-01-09T14:09:05Z</time>
      </trkpt>
      <trkpt lat="43.57893" lon="3.81438">
        <ele>19.1</ele>
        <time>2021-01-09T14:09:06Z</time>
      </trkpt>
      <trkpt lat="43.57898" lon="3.81438">
        <ele>19.3</ele>
        <time>2021-01-09T14:09:07Z</time>
      </trkpt>
      <trkpt lat="43.57903" lon="3.81438">
        <ele>19.4</ele>
        <time>2021-01-09T14:09:08Z</time>
      </trkpt>
      <trkpt lat="43.57909" lon="3.81438">
        <ele>19.6</ele>
        <time>2021-01-09T14:09:09Z</time>
      </trkpt>
      <trkpt lat="43.57914" lon="3.81439">
        <ele>19.7</ele>
        <time>2021-01-09T14:09:10Z</time>
      </trkpt>
      <trkpt lat="43.57919" lon="3.81439">
        <ele>19.8</ele>
        <time>2021-01-09T14:09:11Z</time>
      </trkpt>
      <trkpt lat="43.57925" lon="3.81439">
        <ele>19.8</ele>
        <time>2021-01-09T14:09:12Z</time>
      </trkpt>
      <trkpt lat="43.5793" lon="3.81439">
        <ele>19.8</ele>
        <time>2021-01-09T14:09:13Z</time>
      </trkpt>
      <trkpt lat="43.57935" lon="3.81439">
        <ele>19.8</ele>
        <time>2021-01-09T14:09:14Z</time>
      </trkpt>
      <trkpt lat="43.57941" lon="3.8144">
        <ele>22</ele>
        <time>2021-01-09T14:09:15Z</time>
      </trkpt>
      <trkpt lat="43.57946" lon="3.8144">
        <ele>19.8</ele>
        <time>2021-01-09T14:09:16Z</time>
      </trkpt>
      <trkpt lat="43.57951" lon="3.81441">
        <ele>19.9</ele>
        <time>2021-01-09T14:09:17Z</time>
      </trkpt>
      <trkpt lat="43.57956" lon="3.81442">
        <ele>19.9</ele>
        <time>2021-01-09T14:09:18Z</time>
      </trkpt>
      <trkpt lat="43.57961" lon="3.81443">
        <ele>19.9</ele>
        <time>2021-01-09T14:09:19Z</time>
      </trkpt>
      <trkpt lat="43.57966" lon="3.81444">
        <ele>20</ele>
        <time>2021-01-09T14:09:20Z</time>
      </trkpt>
      <trkpt lat="43.5797" lon="3.81445">
        <ele>20</ele>
        <time>2021-01-09T14:09:21Z</time>
      </trkpt>
      <trkpt lat="43.57975" lon="3.81446">
        <ele>20</ele>
        <time>2021-01-09T14:09:22Z</time>
      </trkpt>
      <trkpt lat="43.57979" lon="3.81447">
        <ele>20</ele>
        <time>2021-01-09T14:09:23Z</time>
      </trkpt>
      <trkpt lat="43.57983" lon="3.81449">
        <ele>20</ele>
        <time>2021-01-09T14:09:24Z</time>
      </trkpt>
      <trkpt lat="43.57987" lon="3.81451">
        <ele>23</ele>
        <time>2021-01-09T14:09:25Z</time>
      </trkpt>
      <trkpt lat="43.57991" lon="3.81453">
        <ele>20</ele>
        <time>2021-01-09T14:09:26Z</time>
      </trkpt>
      <trkpt lat="43.57994" lon="3.81455">
        <ele>20</ele>
        <time>2021-01-09T14:09:27Z</time>
      </trkpt>
      <trkpt lat="43.57998" lon="3.81457">
        <ele>20</ele>
        <time>2021-01-09T14:09:28Z</time>
      </trkpt>
      <trkpt lat="43.58001" lon="3.8146">
        <ele>20</ele>
        <time>2021-01-09T14:09:29Z</time>
      </trkpt>
      <trkpt lat="43.58004" lon="3.81463">
        <ele>20</ele>
        <time>2021-01-09T14:09:30Z</time>
      </trkpt>
      <trkpt lat="43.58007" lon="3.81467">
        <ele>20</ele>
        <time>2021-01-09T14:09:31Z</time>
      </trkpt>
      <trkpt lat="43.58011" lon="3.8147">
        <ele>20</ele>
        <time>2021-01-09T14:09:32Z</time>
      </trkpt>
      <trkpt lat="43.58014" lon="3.81474">
        <ele>20</ele>
        <time>2021-01-09T14:09:33Z</time>
      </trkpt>
      <trkpt lat="43.58017" lon="3.81476">
        <ele>20</ele>
        <time>2021-01-09T14:09:34Z</time>
      </trkpt>
      <trkpt lat="43.5802" lon="3.81479">
        <ele>24</ele>
        <time>2021-01-09T14:09:35Z</time>
      </trkpt>
      <trkpt lat="43.58024" lon="3.8148">
        <ele>20</ele>
        <time>2021-01-09T14:09:36Z</time>
      </trkpt>
      <trkpt lat="43.58029" lon="3.81482">
        <ele>20</ele>
        <time>2021-01-09T14:09:37Z</time>
      </trkpt>
      <trkpt lat="43.58037" lon="3.81485">
        <ele>20</ele>
        <time>2021-01-09T14:09:38Z</time>
      </trkpt>
      <trkpt lat="43.58042" lon="3.81486">
        <ele>20</ele>
        <time>2021-01-09T14:09:40Z</time>
      </trkpt>
      <trkpt lat="43.58046" lon="3.81489">
        <ele>20</ele>
        <time>2021-01-09T14:09:41Z</time>
      </trkpt>
      <trkpt lat="43.58051" lon="3.81492">
        <ele>20</ele>
        <time>2021-01-09T14:09:42Z</time>
      </trkpt>
      <trkpt lat="43.58059" lon="3.81497">
        <ele>20</ele>
        <time>2021-01-09T14:09:43Z</time>
      </trkpt>
      <trkpt lat="43.58063" lon="3.81499">
        <ele>23</ele>
        <time>2021-01-09T14:09:45Z</time>
      </trkpt>
      <trkpt lat="43.58067" lon="3.81502">
        <ele>20</ele>
        <time>2021-01-09T14:09:46Z</time>
      </trkpt>
      <trkpt lat="43.58072" lon="3.81505">
        <ele>20.1</ele>
        <time>2021-01-09T14:09:47Z</time>
      </trkpt>
      <trkpt lat="43.58076" lon="3.81507">
        <ele>20.2</ele>
        <time>2021-01-09T14:09:48Z</time>
      </trkpt>
      <trkpt lat="43.5808" lon="3.8151">
        <ele>20.3</ele>
        <time>2021-01-09T14:09:49Z</time>
      </trkpt>
      <trkpt lat="43.58084" lon="3.81511">
        <ele>20.4</ele>
        <time>2021-01-09T14:09:50Z</time>
      </trkpt>
      <trkpt lat="43.58088" lon="3.81513">
        <ele>20.4</ele>
        <time>2021-01-09T14:09:51Z</time>
      </trkpt>
      <trkpt lat="43.58093" lon="3.81514">
        <ele>20.3</ele>
        <time>2021-01-09T14:09:52Z</time>
      </trkpt>
      <trkpt lat="43.58097" lon="3.81515">
        <ele>20.3</ele>
        <time>2021-01-09T14:09:53Z</time>
      </trkpt>
      <trkpt lat="43.58102" lon="3.81516">
        <ele>20.2</ele>
        <time>2021-01-09T14:09:54Z</time>
      </trkpt>
      <trkpt lat="43.58107" lon="3.81518">
        <ele>24</ele>
        <time>2021-01-09T14:09:55Z</time>
      </trkpt>
      <trkpt lat="43.58111" lon="3.8152">
        <ele>20</ele>
        <time>2021-01-09T14:09:56Z</time>
      </trkpt>
      <trkpt lat="43.58116" lon="3.81521">
        <ele>20.1</ele>
        <time>2021-01-09T14:09:57Z</time>
      </trkpt>
      <trkpt lat="43.5812" lon="3.81521">
        <ele>20.2</ele>
        <time>2021-01-09T14:09:58Z</time>
      </trkpt>
      <trkpt lat="43.58125" lon="3.81519">
        <ele>20.3</ele>
        <time>2021-01-09T14:09:59Z</time>
      </trkpt>
      <trkpt lat="43.58129" lon="3.81516">
        <ele>20.4</ele>
        <time>2021-01-09T14:10:00Z</time>
      </trkpt>
      <trkpt lat="43.58133" lon="3.81513">
        <ele>20.4</ele>
        <time>2021-01-09T14:10:01Z</time>
      </trkpt>
      <trkpt lat="43.58136" lon="3.8151">
        <ele>20.3</ele>
        <time>2021-01-09T14:10:02Z</time>
      </trkpt>
      <trkpt lat="43.5814" lon="3.81505">
        <ele>20.2</ele>
        <time>2021-01-09T14:10:03Z</time>
      </trkpt>
      <trkpt lat="43.58142" lon="3.815">
        <ele>20</ele>
        <time>2021-01-09T14:10:04Z</time>
      </trkpt>
      <trkpt lat="43.58145" lon="3.81495">
        <ele>24</ele>
        <time>2021-01-09T14:10:05Z</time>
      </trkpt>
      <trkpt lat="43.58147" lon="3.8149">
        <ele>20</ele>
        <time>2021-01-09T14:10:06Z</time>
      </trkpt>
      <trkpt lat="43.58149" lon="3.81485">
        <ele>20</ele>
        <time>2021-01-09T14:10:07Z</time>
      </trkpt>
      <trkpt lat="43.58151" lon="3.8148">
        <ele>20</ele>
        <time>2021-01-09T14:10:08Z</time>
      </trkpt>
      <trkpt lat="43.58153" lon="3.81477">
        <ele>20</ele>
        <time>2021-01-09T14:10:09Z</time>
      </trkpt>
      <trkpt lat="43.58155" lon="3.81473">
        <ele>20</ele>
        <time>2021-01-09T14:10:10Z</time>
      </trkpt>
      <trkpt lat="43.58156" lon="3.8147">
        <ele>20</ele>
        <time>2021-01-09T14:10:11Z</time>
      </trkpt>
      <trkpt lat="43.58157" lon="3.81468">
        <ele>20</ele>
        <time>2021-01-09T14:10:12Z</time>
      </trkpt>
      <trkpt lat="43.58155" lon="3.81466">
        <ele>20</ele>
        <time>2021-01-09T14:10:14Z</time>
      </trkpt>
      <trkpt lat="43.58153" lon="3.81467">
        <ele>24</ele>
        <time>2021-01-09T14:10:15Z</time>
      </trkpt>
      <trkpt lat="43.58152" lon="3.8147">
        <ele>20</ele>
        <time>2021-01-09T14:10:16Z</time>
      </trkpt>
      <trkpt lat="43.58151" lon="3.81474">
        <ele>20</ele>
        <time>2021-01-09T14:10:17Z</time>
      </trkpt>
      <trkpt lat="43.58149" lon="3.81478">
        <ele>20</ele>
        <time>2021-01-09T14:10:18Z</time>
      </trkpt>
      <trkpt lat="43.58146" lon="3.81483">
        <ele>20</ele>
        <time>2021-01-09T14:10:19Z</time>
      </trkpt>
      <trkpt lat="43.58144" lon="3.81488">
        <ele>20</ele>
        <time>2021-01-09T14:10:20Z</time>
      </trkpt>
      <trkpt lat="43.58141" lon="3.81494">
        <ele>20</ele>
        <time>2021-01-09T14:10:21Z</time>
      </trkpt>
      <trkpt lat="43.58139" lon="3.81499">
        <ele>20</ele>
        <time>2021-01-09T14:10:22Z</time>
      </trkpt>
      <trkpt lat="43.58139" lon="3.81505">
        <ele>20.2</ele>
        <time>2021-01-09T14:10:23Z</time>
      </trkpt>
      <trkpt lat="43.5814" lon="3.81511">
        <ele>20.4</ele>
        <time>2021-01-09T14:10:24Z</time>
      </trkpt>
      <trkpt lat="43.58142" lon="3.81517">
        <ele>24</ele>
        <time>2021-01-09T14:10:25Z</time>
      </trkpt>
      <trkpt lat="43.58145" lon="3.81522">
        <ele>20.6</ele>
        <time>2021-01-09T14:10:26Z</time>
      </trkpt>
      <trkpt lat="43.58148" lon="3.81528">
        <ele>20.7</ele>
        <time>2021-01-09T14:10:27Z</time>
      </trkpt>
      <trkpt lat="43.58151" lon="3.81532">
        <ele>20.6</ele>
        <time>2021-01-09T14:10:28Z</time>
      </trkpt>
      <trkpt lat="43.58154" lon="3.81536">
        <ele>20.5</ele>
        <time>2021-01-09T14:10:29Z</time>
      </trkpt>
      <trkpt lat="43.58157" lon="3.81538">
        <ele>20.3</ele>
        <time>2021-01-09T14:10:30Z</time>
      </trkpt>
      <trkpt lat="43.58161" lon="3.81541">
        <ele>20.2</ele>
        <time>2021-01-09T14:10:31Z</time>
      </trkpt>
      <trkpt lat="43.58165" lon="3.81543">
        <ele>20.1</ele>
        <time>2021-01-09T14:10:32Z</time>
      </trkpt>
      <trkpt lat="43.58169" lon="3.81545">
        <ele>20</ele>
        <time>2021-01-09T14:10:33Z</time>
      </trkpt>
      <trkpt lat="43.58172" lon="3.81547">
        <ele>20</ele>
        <time>2021-01-09T14:10:34Z</time>
      </trkpt>
      <trkpt lat="43.58176" lon="3.81548">
        <ele>24</ele>
        <time>2021-01-09T14:10:35Z</time>
      </trkpt>
      <trkpt lat="43.5818" lon="3.81549">
        <ele>20</ele>
        <time>2021-01-09T14:10:36Z</time>
      </trkpt>
      <trkpt lat="43.58188" lon="3.81551">
        <ele>20</ele>
        <time>2021-01-09T14:10:37Z</time>
      </trkpt>
      <trkpt lat="43.58192" lon="3.81551">
        <ele>20</ele>
        <time>2021-01-09T14:10:38Z</time>
      </trkpt>
      <trkpt lat="43.58197" lon="3.81552">
        <ele>20.1</ele>
        <time>2021-01-09T14:10:39Z</time>
      </trkpt>
      <trkpt lat="43.58201" lon="3.81552">
        <ele>20.2</ele>
        <time>2021-01-09T14:10:40Z</time>
      </trkpt>
      <trkpt lat="43.58205" lon="3.81553">
        <ele>20.3</ele>
        <time>2021-01-09T14:10:41Z</time>
      </trkpt>
      <trkpt lat="43.58209" lon="3.81554">
        <ele>20.5</ele>
        <time>2021-01-09T14:10:42Z</time>
      </trkpt>
      <trkpt lat="43.58213" lon="3.81555">
        <ele>20.7</ele>
        <time>2021-01-09T14:10:43Z</time>
      </trkpt>
      <trkpt lat="43.58216" lon="3.81557">
        <ele>25</ele>
        <time>2021-01-09T14:10:45Z</time>
      </trkpt>
      <trkpt lat="43.5822" lon="3.81559">
        <ele>20.8</ele>
        <time>2021-01-09T14:10:46Z</time>
      </trkpt>
      <trkpt lat="43.58223" lon="3.81561">
        <ele>20.8</ele>
        <time>2021-01-09T14:10:47Z</time>
      </trkpt>
      <trkpt lat="43.58226" lon="3.81563">
        <ele>20.7</ele>
        <time>2021-01-09T14:10:48Z</time>
      </trkpt>
      <trkpt lat="43.5823" lon="3.81565">
        <ele>20.7</ele>
        <time>2021-01-09T14:10:49Z</time>
      </trkpt>
      <trkpt lat="43.58233" lon="3.81566">
        <ele>20.6</ele>
        <time>2021-01-09T14:10:50Z</time>
      </trkpt>
      <trkpt lat="43.58236" lon="3.81568">
        <ele>20.6</ele>
        <time>2021-01-09T14:10:51Z</time>
      </trkpt>
      <trkpt lat="43.5824" lon="3.81569">
        <ele>20.5</ele>
        <time>2021-01-09T14:10:52Z</time>
      </trkpt>
      <trkpt lat="43.58244" lon="3.8157">
        <ele>20.5</ele>
        <time>2021-01-09T14:10:53Z</time>
      </trkpt>
      <trkpt lat="43.58247" lon="3.81571">
        <ele>20.4</ele>
        <time>2021-01-09T14:10:54Z</time>
      </trkpt>
      <trkpt lat="43.58251" lon="3.81572">
        <ele>26</ele>
        <time>2021-01-09T14:10:55Z</time>
      </trkpt>
      <trkpt lat="43.58255" lon="3.81573">
        <ele>20.4</ele>
        <time>2021-01-09T14:10:56Z</time>
      </trkpt>
      <trkpt lat="43.58258" lon="3.81575">
        <ele>20.4</ele>
        <time>2021-01-09T14:10:57Z</time>
      </trkpt>
      <trkpt lat="43.58262" lon="3.81577">
        <ele>20.5</ele>
        <time>2021-01-09T14:10:58Z</time>
      </trkpt>
      <trkpt lat="43.58266" lon="3.8158">
        <ele>20.6</ele>
        <time>2021-01-09T14:10:59Z</time>
      </trkpt>
      <trkpt lat="43.58269" lon="3.81582">
        <ele>20.7</ele>
        <time>2021-01-09T14:11:00Z</time>
      </trkpt>
      <trkpt lat="43.58273" lon="3.81584">
        <ele>20.8</ele>
        <time>2021-01-09T14:11:01Z</time>
      </trkpt>
      <trkpt lat="43.58276" lon="3.81587">
        <ele>20.9</ele>
        <time>2021-01-09T14:11:02Z</time>
      </trkpt>
      <trkpt lat="43.58279" lon="3.81591">
        <ele>21</ele>
        <time>2021-01-09T14:11:03Z</time>
      </trkpt>
      <trkpt lat="43.58282" lon="3.81594">
        <ele>21</ele>
        <time>2021-01-09T14:11:04Z</time>
      </trkpt>
      <trkpt lat="43.58285" lon="3.81598">
        <ele>27</ele>
        <time>2021-01-09T14:11:05Z</time>
      </trkpt>
      <trkpt lat="43.58288" lon="3.81601">
        <ele>21</ele>
        <time>2021-01-09T14:11:06Z</time>
      </trkpt>
      <trkpt lat="43.58291" lon="3.81604">
        <ele>21</ele>
        <time>2021-01-09T14:11:07Z</time>
      </trkpt>
      <trkpt lat="43.58295" lon="3.81607">
        <ele>21</ele>
        <time>2021-01-09T14:11:08Z</time>
      </trkpt>
      <trkpt lat="43.58298" lon="3.81609">
        <ele>21</ele>
        <time>2021-01-09T14:11:09Z</time>
      </trkpt>
      <trkpt lat="43.58301" lon="3.81612">
        <ele>21</ele>
        <time>2021-01-09T14:11:10Z</time>
      </trkpt>
      <trkpt lat="43.58305" lon="3.81613">
        <ele>21</ele>
        <time>2021-01-09T14:11:11Z</time>
      </trkpt>
      <trkpt lat="43.58308" lon="3.81614">
        <ele>21</ele>
        <time>2021-01-09T14:11:12Z</time>
      </trkpt>
      <trkpt lat="43.58312" lon="3.81614">
        <ele>21</ele>
        <time>2021-01-09T14:11:13Z</time>
      </trkpt>
      <trkpt lat="43.58315" lon="3.81615">
        <ele>21</ele>
        <time>2021-01-09T14:11:14Z</time>
      </trkpt>
      <trkpt lat="43.58319" lon="3.81615">
        <ele>28</ele>
        <time>2021-01-09T14:11:15Z</time>
      </trkpt>
      <trkpt lat="43.58323" lon="3.81615">
        <ele>21.1</ele>
        <time>2021-01-09T14:11:16Z</time>
      </trkpt>
      <trkpt lat="43.58327" lon="3.81615">
        <ele>21.1</ele>
        <time>2021-01-09T14:11:17Z</time>
      </trkpt>
      <trkpt lat="43.5833" lon="3.81614">
        <ele>21.1</ele>
        <time>2021-01-09T14:11:18Z</time>
      </trkpt>
      <trkpt lat="43.58334" lon="3.81612">
        <ele>21</ele>
        <time>2021-01-09T14:11:19Z</time>
      </trkpt>
      <trkpt lat="43.58338" lon="3.81611">
        <ele>21</ele>
        <time>2021-01-09T14:11:20Z</time>
      </trkpt>
      <trkpt lat="43.58342" lon="3.81608">
        <ele>21</ele>
        <time>2021-01-09T14:11:21Z</time>
      </trkpt>
      <trkpt lat="43.58346" lon="3.81607">
        <ele>21</ele>
        <time>2021-01-09T14:11:22Z</time>
      </trkpt>
      <trkpt lat="43.58349" lon="3.81605">
        <ele>21</ele>
        <time>2021-01-09T14:11:23Z</time>
      </trkpt>
      <trkpt lat="43.58353" lon="3.81603">
        <ele>21</ele>
        <time>2021-01-09T14:11:24Z</time>
      </trkpt>
      <trkpt lat="43.58356" lon="3.816">
        <ele>28</ele>
        <time>2021-01-09T14:11:25Z</time>
      </trkpt>
      <trkpt lat="43.5836" lon="3.81598">
        <ele>21</ele>
        <time>2021-01-09T14:11:26Z</time>
      </trkpt>
      <trkpt lat="43.58363" lon="3.81595">
        <ele>21</ele>
        <time>2021-01-09T14:11:27Z</time>
      </trkpt>
      <trkpt lat="43.58366" lon="3.81593">
        <ele>21</ele>
        <time>2021-01-09T14:11:28Z</time>
      </trkpt>
      <trkpt lat="43.58369" lon="3.8159">
        <ele>21</ele>
        <time>2021-01-09T14:11:29Z</time>
      </trkpt>
      <trkpt lat="43.58371" lon="3.81586">
        <ele>21</ele>
        <time>2021-01-09T14:11:30Z</time>
      </trkpt>
      <trkpt lat="43.58374" lon="3.81581">
        <ele>21</ele>
        <time>2021-01-09T14:11:31Z</time>
      </trkpt>
      <trkpt lat="43.58377" lon="3.81576">
        <ele>21</ele>
        <time>2021-01-09T14:11:32Z</time>
      </trkpt>
      <trkpt lat="43.58381" lon="3.81573">
        <ele>21</ele>
        <time>2021-01-09T14:11:33Z</time>
      </trkpt>
      <trkpt lat="43.58384" lon="3.81571">
        <ele>21</ele>
        <time>2021-01-09T14:11:34Z</time>
      </trkpt>
      <trkpt lat="43.58388" lon="3.81571">
        <ele>30</ele>
        <time>2021-01-09T14:11:35Z</time>
      </trkpt>
      <trkpt lat="43.58392" lon="3.81571">
        <ele>21</ele>
        <time>2021-01-09T14:11:36Z</time>
      </trkpt>
      <trkpt lat="43.58397" lon="3.81571">
        <ele>21</ele>
        <time>2021-01-09T14:11:37Z</time>
      </trkpt>
      <trkpt lat="43.584" lon="3.81569">
        <ele>21</ele>
        <time>2021-01-09T14:11:38Z</time>
      </trkpt>
      <trkpt lat="43.58404" lon="3.81564">
        <ele>21</ele>
        <time>2021-01-09T14:11:39Z</time>
      </trkpt>
      <trkpt lat="43.58406" lon="3.81561">
        <ele>21</ele>
        <time>2021-01-09T14:11:40Z</time>
      </trkpt>
      <trkpt lat="43.58409" lon="3.81557">
        <ele>21</ele>
        <time>2021-01-09T14:11:41Z</time>
      </trkpt>
      <trkpt lat="43.58411" lon="3.81553">
        <ele>21</ele>
        <time>2021-01-09T14:11:42Z</time>
      </trkpt>
      <trkpt lat="43.58413" lon="3.81547">
        <ele>21</ele>
        <time>2021-01-09T14:11:43Z</time>
      </trkpt>
      <trkpt lat="43.58414" lon="3.81542">
        <ele>21</ele>
        <time>2021-01-09T14:11:44Z</time>
      </trkpt>
      <trkpt lat="43.58416" lon="3.81536">
        <ele>30</ele>
        <time>2021-01-09T14:11:45Z</time>
      </trkpt>
      <trkpt lat="43.58417" lon="3.81531">
        <ele>21</ele>
        <time>2021-01-09T14:11:46Z</time>
      </trkpt>
      <trkpt lat="43.58419" lon="3.81526">
        <ele>21</ele>
        <time>2021-01-09T14:11:47Z</time>
      </trkpt>
      <trkpt lat="43.58421" lon="3.81521">
        <ele>21</ele>
        <time>2021-01-09T14:11:48Z</time>
      </trkpt>
      <trkpt lat="43.58424" lon="3.81516">
        <ele>21</ele>
        <time>2021-01-09T14:11:49Z</time>
      </trkpt>
      <trkpt lat="43.58425" lon="3.81511">
        <ele>21</ele>
        <time>2021-01-09T14:11:50Z</time>
      </trkpt>
      <trkpt lat="43.58426" lon="3.81506">
        <ele>21</ele>
        <time>2021-01-09T14:11:51Z</time>
      </trkpt>
      <trkpt lat="43.58428" lon="3.81503">
        <ele>21</ele>
        <time>2021-01-09T14:11:52Z</time>
      </trkpt>
      <trkpt lat="43.58429" lon="3.815">
        <ele>21</ele>
        <time>2021-01-09T14:11:53Z</time>
      </trkpt>
      <trkpt lat="43.58429" lon="3.81496">
        <ele>21</ele>
        <time>2021-01-09T14:11:54Z</time>
      </trkpt>
      <trkpt lat="43.5843" lon="3.81492">
        <ele>30</ele>
        <time>2021-01-09T14:11:55Z</time>
      </trkpt>
      <trkpt lat="43.58431" lon="3.81488">
        <ele>21</ele>
        <time>2021-01-09T14:11:56Z</time>
      </trkpt>
      <trkpt lat="43.58431" lon="3.81484">
        <ele>21</ele>
        <time>2021-01-09T14:11:57Z</time>
      </trkpt>
      <trkpt lat="43.58432" lon="3.81481">
        <ele>21</ele>
        <time>2021-01-09T14:11:58Z</time>
      </trkpt>
      <trkpt lat="43.58432" lon="3.81478">
        <ele>21</ele>
        <time>2021-01-09T14:11:59Z</time>
      </trkpt>
      <trkpt lat="43.58433" lon="3.81475">
        <ele>21</ele>
        <time>2021-01-09T14:12:00Z</time>
      </trkpt>
      <trkpt lat="43.58433" lon="3.81472">
        <ele>21</ele>
        <time>2021-01-09T14:12:01Z</time>
      </trkpt>
      <trkpt lat="43.58433" lon="3.81468">
        <ele>21</ele>
        <time>2021-01-09T14:12:03Z</time>
      </trkpt>
      <trkpt lat="43.58435" lon="3.81465">
        <ele>29</ele>
        <time>2021-01-09T14:12:05Z</time>
      </trkpt>
      <trkpt lat="43.58437" lon="3.81468">
        <ele>21</ele>
        <time>2021-01-09T14:12:07Z</time>
      </trkpt>
      <trkpt lat="43.58439" lon="3.8147">
        <ele>21</ele>
        <time>2021-01-09T14:12:08Z</time>
      </trkpt>
      <trkpt lat="43.58441" lon="3.81471">
        <ele>21</ele>
        <time>2021-01-09T14:12:09Z</time>
      </trkpt>
      <trkpt lat="43.58443" lon="3.81473">
        <ele>21</ele>
        <time>2021-01-09T14:12:10Z</time>
      </trkpt>
      <trkpt lat="43.58445" lon="3.81474">
        <ele>21</ele>
        <time>2021-01-09T14:12:11Z</time>
      </trkpt>
      <trkpt lat="43.58448" lon="3.81476">
        <ele>21</ele>
        <time>2021-01-09T14:12:12Z</time>
      </trkpt>
      <trkpt lat="43.58452" lon="3.81479">
        <ele>21</ele>
        <time>2021-01-09T14:12:13Z</time>
      </trkpt>
      <trkpt lat="43.58455" lon="3.8148">
        <ele>21</ele>
        <time>2021-01-09T14:12:14Z</time>
      </trkpt>
      <trkpt lat="43.58459" lon="3.81482">
        <ele>29</ele>
        <time>2021-01-09T14:12:15Z</time>
      </trkpt>
      <trkpt lat="43.58463" lon="3.81483">
        <ele>21</ele>
        <time>2021-01-09T14:12:16Z</time>
      </trkpt>
      <trkpt lat="43.58466" lon="3.81484">
        <ele>21</ele>
        <time>2021-01-09T14:12:17Z</time>
      </trkpt>
      <trkpt lat="43.5847" lon="3.81485">
        <ele>21</ele>
        <time>2021-01-09T14:12:18Z</time>
      </trkpt>
      <trkpt lat="43.58474" lon="3.81486">
        <ele>21</ele>
        <time>2021-01-09T14:12:19Z</time>
      </trkpt>
      <trkpt lat="43.58477" lon="3.81486">
        <ele>21</ele>
        <time>2021-01-09T14:12:20Z</time>
      </trkpt>
      <trkpt lat="43.58481" lon="3.81486">
        <ele>21</ele>
        <time>2021-01-09T14:12:21Z</time>
      </trkpt>
      <trkpt lat="43.58485" lon="3.81486">
        <ele>21</ele>
        <time>2021-01-09T14:12:22Z</time>
      </trkpt>
      <trkpt lat="43.58489" lon="3.81486">
        <ele>21</ele>
        <time>2021-01-09T14:12:23Z</time>
      </trkpt>
      <trkpt lat="43.58493" lon="3.81487">
        <ele>21</ele>
        <time>2021-01-09T14:12:24Z</time>
      </trkpt>
      <trkpt lat="43.58497" lon="3.81487">
        <ele>30</ele>
        <time>2021-01-09T14:12:25Z</time>
      </trkpt>
      <trkpt lat="43.585" lon="3.81488">
        <ele>21</ele>
        <time>2021-01-09T14:12:26Z</time>
      </trkpt>
      <trkpt lat="43.58504" lon="3.81488">
        <ele>21</ele>
        <time>2021-01-09T14:12:27Z</time>
      </trkpt>
      <trkpt lat="43.58507" lon="3.81488">
        <ele>21</ele>
        <time>2021-01-09T14:12:28Z</time>
      </trkpt>
      <trkpt lat="43.58511" lon="3.81488">
        <ele>21</ele>
        <time>2021-01-09T14:12:29Z</time>
      </trkpt>
      <trkpt lat="43.58514" lon="3.81487">
        <ele>21</ele>
        <time>2021-01-09T14:12:30Z</time>
      </trkpt>
      <trkpt lat="43.58518" lon="3.81486">
        <ele>21</ele>
        <time>2021-01-09T14:12:31Z</time>
      </trkpt>
      <trkpt lat="43.5852" lon="3.81485">
        <ele>21</ele>
        <time>2021-01-09T14:12:32Z</time>
      </trkpt>
      <trkpt lat="43.58523" lon="3.81482">
        <ele>21</ele>
        <time>2021-01-09T14:12:33Z</time>
      </trkpt>
      <trkpt lat="43.58526" lon="3.8148">
        <ele>21</ele>
        <time>2021-01-09T14:12:34Z</time>
      </trkpt>
      <trkpt lat="43.58528" lon="3.81479">
        <ele>30</ele>
        <time>2021-01-09T14:12:35Z</time>
      </trkpt>
      <trkpt lat="43.58532" lon="3.81479">
        <ele>21.2</ele>
        <time>2021-01-09T14:12:36Z</time>
      </trkpt>
      <trkpt lat="43.58534" lon="3.8148">
        <ele>21.2</ele>
        <time>2021-01-09T14:12:37Z</time>
      </trkpt>
      <trkpt lat="43.58537" lon="3.81483">
        <ele>21.3</ele>
        <time>2021-01-09T14:12:38Z</time>
      </trkpt>
      <trkpt lat="43.58539" lon="3.81485">
        <ele>21.4</ele>
        <time>2021-01-09T14:12:39Z</time>
      </trkpt>
      <trkpt lat="43.58541" lon="3.81486">
        <ele>21.5</ele>
        <time>2021-01-09T14:12:40Z</time>
      </trkpt>
      <trkpt lat="43.58543" lon="3.81487">
        <ele>21.5</ele>
        <time>2021-01-09T14:12:41Z</time>
      </trkpt>
      <trkpt lat="43.58546" lon="3.81487">
        <ele>21.7</ele>
        <time>2021-01-09T14:12:42Z</time>
      </trkpt>
      <trkpt lat="43.58549" lon="3.81487">
        <ele>21.8</ele>
        <time>2021-01-09T14:12:43Z</time>
      </trkpt>
      <trkpt lat="43.58552" lon="3.81486">
        <ele>21.9</ele>
        <time>2021-01-09T14:12:44Z</time>
      </trkpt>
      <trkpt lat="43.58554" lon="3.81485">
        <ele>30</ele>
        <time>2021-01-09T14:12:45Z</time>
      </trkpt>
      <trkpt lat="43.58558" lon="3.81484">
        <ele>21.9</ele>
        <time>2021-01-09T14:12:46Z</time>
      </trkpt>
      <trkpt lat="43.58561" lon="3.81483">
        <ele>21.8</ele>
        <time>2021-01-09T14:12:47Z</time>
      </trkpt>
      <trkpt lat="43.58564" lon="3.81483">
        <ele>21.7</ele>
        <time>2021-01-09T14:12:48Z</time>
      </trkpt>
      <trkpt lat="43.58567" lon="3.81481">
        <ele>21.6</ele>
        <time>2021-01-09T14:12:49Z</time>
      </trkpt>
      <trkpt lat="43.5857" lon="3.81479">
        <ele>21.5</ele>
        <time>2021-01-09T14:12:50Z</time>
      </trkpt>
      <trkpt lat="43.58572" lon="3.81476">
        <ele>21.4</ele>
        <time>2021-01-09T14:12:51Z</time>
      </trkpt>
      <trkpt lat="43.58574" lon="3.81474">
        <ele>21.3</ele>
        <time>2021-01-09T14:12:52Z</time>
      </trkpt>
      <trkpt lat="43.58576" lon="3.81471">
        <ele>21.3</ele>
        <time>2021-01-09T14:12:53Z</time>
      </trkpt>
      <trkpt lat="43.58579" lon="3.81469">
        <ele>21.1</ele>
        <time>2021-01-09T14:12:54Z</time>
      </trkpt>
      <trkpt lat="43.58581" lon="3.81466">
        <ele>29</ele>
        <time>2021-01-09T14:12:55Z</time>
      </trkpt>
      <trkpt lat="43.58583" lon="3.81463">
        <ele>21</ele>
        <time>2021-01-09T14:12:56Z</time>
      </trkpt>
      <trkpt lat="43.58584" lon="3.8146">
        <ele>21</ele>
        <time>2021-01-09T14:12:57Z</time>
      </trkpt>
      <trkpt lat="43.58585" lon="3.81457">
        <ele>21</ele>
        <time>2021-01-09T14:12:58Z</time>
      </trkpt>
      <trkpt lat="43.58585" lon="3.81454">
        <ele>21</ele>
        <time>2021-01-09T14:12:59Z</time>
      </trkpt>
      <trkpt lat="43.58585" lon="3.81451">
        <ele>21</ele>
        <time>2021-01-09T14:13:00Z</time>
      </trkpt>
      <trkpt lat="43.58586" lon="3.81447">
        <ele>21</ele>
        <time>2021-01-09T14:13:01Z</time>
      </trkpt>
      <trkpt lat="43.58588" lon="3.81443">
        <ele>21</ele>
        <time>2021-01-09T14:13:02Z</time>
      </trkpt>
      <trkpt lat="43.58589" lon="3.81439">
        <ele>21</ele>
        <time>2021-01-09T14:13:03Z</time>
      </trkpt>
      <trkpt lat="43.58589" lon="3.81434">
        <ele>21</ele>
        <time>2021-01-09T14:13:04Z</time>
      </trkpt>
      <trkpt lat="43.58588" lon="3.8143">
        <ele>29</ele>
        <time>2021-01-09T14:13:05Z</time>
      </trkpt>
      <trkpt lat="43.58587" lon="3.81426">
        <ele>21</ele>
        <time>2021-01-09T14:13:06Z</time>
      </trkpt>
      <trkpt lat="43.58587" lon="3.81423">
        <ele>21</ele>
        <time>2021-01-09T14:13:07Z</time>
      </trkpt>
      <trkpt lat="43.58587" lon="3.81419">
        <ele>21</ele>
        <time>2021-01-09T14:13:08Z</time>
      </trkpt>
      <trkpt lat="43.58587" lon="3.81416">
        <ele>21</ele>
        <time>2021-01-09T14:13:09Z</time>
      </trkpt>
      <trkpt lat="43.58588" lon="3.81412">
        <ele>21</ele>
        <time>2021-01-09T14:13:10Z</time>
      </trkpt>
      <trkpt lat="43.58589" lon="3.81408">
        <ele>21</ele>
        <time>2021-01-09T14:13:11Z</time>
      </trkpt>
      <trkpt lat="43.5859" lon="3.81404">
        <ele>21</ele>
        <time>2021-01-09T14:13:12Z</time>
      </trkpt>
      <trkpt lat="43.58592" lon="3.814">
        <ele>21</ele>
        <time>2021-01-09T14:13:13Z</time>
      </trkpt>
      <trkpt lat="43.58593" lon="3.81396">
        <ele>21</ele>
        <time>2021-01-09T14:13:14Z</time>
      </trkpt>
      <trkpt lat="43.58595" lon="3.81391">
        <ele>30</ele>
        <time>2021-01-09T14:13:15Z</time>
      </trkpt>
      <trkpt lat="43.58595" lon="3.81387">
        <ele>21</ele>
        <time>2021-01-09T14:13:16Z</time>
      </trkpt>
      <trkpt lat="43.58596" lon="3.81384">
        <ele>21</ele>
        <time>2021-01-09T14:13:17Z</time>
      </trkpt>
      <trkpt lat="43.58597" lon="3.81381">
        <ele>21</ele>
        <time>2021-01-09T14:13:18Z</time>
      </trkpt>
      <trkpt lat="43.58598" lon="3.81378">
        <ele>21</ele>
        <time>2021-01-09T14:13:19Z</time>
      </trkpt>
      <trkpt lat="43.58599" lon="3.81375">
        <ele>21</ele>
        <time>2021-01-09T14:13:20Z</time>
      </trkpt>
      <trkpt lat="43.58599" lon="3.81371">
        <ele>21</ele>
        <time>2021-01-09T14:13:21Z</time>
      </trkpt>
      <trkpt lat="43.586" lon="3.81367">
        <ele>21</ele>
        <time>2021-01-09T14:13:22Z</time>
      </trkpt>
      <trkpt lat="43.58601" lon="3.81363">
        <ele>21</ele>
        <time>2021-01-09T14:13:23Z</time>
      </trkpt>
      <trkpt lat="43.58603" lon="3.81359">
        <ele>21</ele>
        <time>2021-01-09T14:13:24Z</time>
      </trkpt>
      <trkpt lat="43.58604" lon="3.81354">
        <ele>30</ele>
        <time>2021-01-09T14:13:25Z</time>
      </trkpt>
      <trkpt lat="43.58604" lon="3.81349">
        <ele>21</ele>
        <time>2021-01-09T14:13:26Z</time>
      </trkpt>
      <trkpt lat="43.58605" lon="3.81346">
        <ele>21</ele>
        <time>2021-01-09T14:13:27Z</time>
      </trkpt>
      <trkpt lat="43.58606" lon="3.81342">
        <ele>21</ele>
        <time>2021-01-09T14:13:28Z</time>
      </trkpt>
      <trkpt lat="43.58607" lon="3.81339">
        <ele>21</ele>
        <time>2021-01-09T14:13:29Z</time>
      </trkpt>
      <trkpt lat="43.58608" lon="3.81336">
        <ele>21</ele>
        <time>2021-01-09T14:13:30Z</time>
      </trkpt>
      <trkpt lat="43.58609" lon="3.81332">
        <ele>21</ele>
        <time>2021-01-09T14:13:31Z</time>
      </trkpt>
      <trkpt lat="43.5861" lon="3.81327">
        <ele>21</ele>
        <time>2021-01-09T14:13:32Z</time>
      </trkpt>
      <trkpt lat="43.58611" lon="3.81322">
        <ele>21</ele>
        <time>2021-01-09T14:13:33Z</time>
      </trkpt>
      <trkpt lat="43.58612" lon="3.81317">
        <ele>21</ele>
        <time>2021-01-09T14:13:34Z</time>
      </trkpt>
      <trkpt lat="43.58613" lon="3.81312">
        <ele>30</ele>
        <time>2021-01-09T14:13:35Z</time>
      </trkpt>
      <trkpt lat="43.58614" lon="3.81308">
        <ele>21.1</ele>
        <time>2021-01-09T14:13:36Z</time>
      </trkpt>
      <trkpt lat="43.58615" lon="3.81303">
        <ele>21.2</ele>
        <time>2021-01-09T14:13:37Z</time>
      </trkpt>
      <trkpt lat="43.58616" lon="3.81299">
        <ele>21.4</ele>
        <time>2021-01-09T14:13:38Z</time>
      </trkpt>
      <trkpt lat="43.58616" lon="3.81295">
        <ele>21.5</ele>
        <time>2021-01-09T14:13:39Z</time>
      </trkpt>
      <trkpt lat="43.58616" lon="3.81291">
        <ele>21.6</ele>
        <time>2021-01-09T14:13:40Z</time>
      </trkpt>
      <trkpt lat="43.58616" lon="3.81287">
        <ele>21.7</ele>
        <time>2021-01-09T14:13:41Z</time>
      </trkpt>
      <trkpt lat="43.58616" lon="3.81284">
        <ele>21.8</ele>
        <time>2021-01-09T14:13:42Z</time>
      </trkpt>
      <trkpt lat="43.58615" lon="3.81281">
        <ele>21.9</ele>
        <time>2021-01-09T14:13:43Z</time>
      </trkpt>
      <trkpt lat="43.58615" lon="3.81278">
        <ele>22</ele>
        <time>2021-01-09T14:13:44Z</time>
      </trkpt>
      <trkpt lat="43.58618" lon="3.81276">
        <ele>22.1</ele>
        <time>2021-01-09T14:13:46Z</time>
      </trkpt>
      <trkpt lat="43.5862" lon="3.81276">
        <ele>22.1</ele>
        <time>2021-01-09T14:13:47Z</time>
      </trkpt>
      <trkpt lat="43.58624" lon="3.81276">
        <ele>22.1</ele>
        <time>2021-01-09T14:13:48Z</time>
      </trkpt>
      <trkpt lat="43.58628" lon="3.81277">
        <ele>22</ele>
        <time>2021-01-09T14:13:49Z</time>
      </trkpt>
      <trkpt lat="43.58631" lon="3.81279">
        <ele>22</ele>
        <time>2021-01-09T14:13:50Z</time>
      </trkpt>
      <trkpt lat="43.58634" lon="3.81282">
        <ele>22</ele>
        <time>2021-01-09T14:13:51Z</time>
      </trkpt>
      <trkpt lat="43.58637" lon="3.81285">
        <ele>22</ele>
        <time>2021-01-09T14:13:52Z</time>
      </trkpt>
      <trkpt lat="43.5864" lon="3.81288">
        <ele>22.1</ele>
        <time>2021-01-09T14:13:53Z</time>
      </trkpt>
      <trkpt lat="43.58643" lon="3.81291">
        <ele>22.2</ele>
        <time>2021-01-09T14:13:54Z</time>
      </trkpt>
      <trkpt lat="43.58645" lon="3.81293">
        <ele>27</ele>
        <time>2021-01-09T14:13:55Z</time>
      </trkpt>
      <trkpt lat="43.58648" lon="3.81296">
        <ele>22.5</ele>
        <time>2021-01-09T14:13:56Z</time>
      </trkpt>
      <trkpt lat="43.5865" lon="3.81298">
        <ele>22.7</ele>
        <time>2021-01-09T14:13:57Z</time>
      </trkpt>
      <trkpt lat="43.58653" lon="3.813">
        <ele>22.9</ele>
        <time>2021-01-09T14:13:58Z</time>
      </trkpt>
      <trkpt lat="43.58655" lon="3.81302">
        <ele>23.1</ele>
        <time>2021-01-09T14:13:59Z</time>
      </trkpt>
      <trkpt lat="43.58658" lon="3.81304">
        <ele>23.3</ele>
        <time>2021-01-09T14:14:00Z</time>
      </trkpt>
      <trkpt lat="43.5866" lon="3.81305">
        <ele>23.5</ele>
        <time>2021-01-09T14:14:01Z</time>
      </trkpt>
      <trkpt lat="43.58663" lon="3.81306">
        <ele>23.7</ele>
        <time>2021-01-09T14:14:02Z</time>
      </trkpt>
      <trkpt lat="43.58665" lon="3.81307">
        <ele>23.8</ele>
        <time>2021-01-09T14:14:03Z</time>
      </trkpt>
      <trkpt lat="43.58668" lon="3.81307">
        <ele>23.9</ele>
        <time>2021-01-09T14:14:04Z</time>
      </trkpt>
      <trkpt lat="43.5867" lon="3.81305">
        <ele>26</ele>
        <time>2021-01-09T14:14:05Z</time>
      </trkpt>
      <trkpt lat="43.58672" lon="3.81303">
        <ele>23.9</ele>
        <time>2021-01-09T14:14:06Z</time>
      </trkpt>
      <trkpt lat="43.58674" lon="3.813">
        <ele>23.9</ele>
        <time>2021-01-09T14:14:07Z</time>
      </trkpt>
      <trkpt lat="43.58675" lon="3.81296">
        <ele>23.8</ele>
        <time>2021-01-09T14:14:08Z</time>
      </trkpt>
      <trkpt lat="43.58677" lon="3.81292">
        <ele>23.7</ele>
        <time>2021-01-09T14:14:09Z</time>
      </trkpt>
      <trkpt lat="43.58678" lon="3.81287">
        <ele>23.6</ele>
        <time>2021-01-09T14:14:10Z</time>
      </trkpt>
      <trkpt lat="43.58679" lon="3.81283">
        <ele>23.5</ele>
        <time>2021-01-09T14:14:11Z</time>
      </trkpt>
      <trkpt lat="43.58681" lon="3.81278">
        <ele>23.5</ele>
        <time>2021-01-09T14:14:12Z</time>
      </trkpt>
      <trkpt lat="43.58682" lon="3.81274">
        <ele>23.6</ele>
        <time>2021-01-09T14:14:13Z</time>
      </trkpt>
      <trkpt lat="43.58683" lon="3.8127">
        <ele>23.7</ele>
        <time>2021-01-09T14:14:14Z</time>
      </trkpt>
      <trkpt lat="43.58684" lon="3.81266">
        <ele>26</ele>
        <time>2021-01-09T14:14:15Z</time>
      </trkpt>
      <trkpt lat="43.58685" lon="3.81262">
        <ele>23.9</ele>
        <time>2021-01-09T14:14:16Z</time>
      </trkpt>
      <trkpt lat="43.58687" lon="3.81258">
        <ele>23.9</ele>
        <time>2021-01-09T14:14:17Z</time>
      </trkpt>
      <trkpt lat="43.58688" lon="3.81254">
        <ele>24</ele>
        <time>2021-01-09T14:14:18Z</time>
      </trkpt>
      <trkpt lat="43.58689" lon="3.8125">
        <ele>24</ele>
        <time>2021-01-09T14:14:19Z</time>
      </trkpt>
      <trkpt lat="43.58691" lon="3.81246">
        <ele>24</ele>
        <time>2021-01-09T14:14:20Z</time>
      </trkpt>
      <trkpt lat="43.58692" lon="3.81242">
        <ele>24</ele>
        <time>2021-01-09T14:14:21Z</time>
      </trkpt>
      <trkpt lat="43.58693" lon="3.81238">
        <ele>24</ele>
        <time>2021-01-09T14:14:22Z</time>
      </trkpt>
      <trkpt lat="43.58695" lon="3.81234">
        <ele>24</ele>
        <time>2021-01-09T14:14:23Z</time>
      </trkpt>
      <trkpt lat="43.58696" lon="3.8123">
        <ele>24</ele>
        <time>2021-01-09T14:14:24Z</time>
      </trkpt>
      <trkpt lat="43.58698" lon="3.81226">
        <ele>26</ele>
        <time>2021-01-09T14:14:25Z</time>
      </trkpt>
      <trkpt lat="43.58699" lon="3.81222">
        <ele>24.2</ele>
        <time>2021-01-09T14:14:26Z</time>
      </trkpt>
      <trkpt lat="43.58701" lon="3.81218">
        <ele>24.4</ele>
        <time>2021-01-09T14:14:27Z</time>
      </trkpt>
      <trkpt lat="43.58702" lon="3.81214">
        <ele>24.5</ele>
        <time>2021-01-09T14:14:28Z</time>
      </trkpt>
      <trkpt lat="43.58704" lon="3.8121">
        <ele>24.6</ele>
        <time>2021-01-09T14:14:29Z</time>
      </trkpt>
      <trkpt lat="43.58705" lon="3.81206">
        <ele>24.7</ele>
        <time>2021-01-09T14:14:30Z</time>
      </trkpt>
      <trkpt lat="43.58707" lon="3.81202">
        <ele>24.9</ele>
        <time>2021-01-09T14:14:31Z</time>
      </trkpt>
      <trkpt lat="43.58708" lon="3.81197">
        <ele>25</ele>
        <time>2021-01-09T14:14:32Z</time>
      </trkpt>
      <trkpt lat="43.5871" lon="3.81193">
        <ele>25</ele>
        <time>2021-01-09T14:14:33Z</time>
      </trkpt>
      <trkpt lat="43.58711" lon="3.81189">
        <ele>25</ele>
        <time>2021-01-09T14:14:34Z</time>
      </trkpt>
      <trkpt lat="43.58713" lon="3.81184">
        <ele>27</ele>
        <time>2021-01-09T14:14:35Z</time>
      </trkpt>
      <trkpt lat="43.58715" lon="3.8118">
        <ele>25</ele>
        <time>2021-01-09T14:14:36Z</time>
      </trkpt>
      <trkpt lat="43.58716" lon="3.81176">
        <ele>25</ele>
        <time>2021-01-09T14:14:37Z</time>
      </trkpt>
      <trkpt lat="43.58718" lon="3.81171">
        <ele>25</ele>
        <time>2021-01-09T14:14:38Z</time>
      </trkpt>
      <trkpt lat="43.58719" lon="3.81167">
        <ele>25</ele>
        <time>2021-01-09T14:14:39Z</time>
      </trkpt>
      <trkpt lat="43.58721" lon="3.81162">
        <ele>25.2</ele>
        <time>2021-01-09T14:14:40Z</time>
      </trkpt>
      <trkpt lat="43.58722" lon="3.81158">
        <ele>25.3</ele>
        <time>2021-01-09T14:14:41Z</time>
      </trkpt>
      <trkpt lat="43.58724" lon="3.81154">
        <ele>25.5</ele>
        <time>2021-01-09T14:14:42Z</time>
      </trkpt>
      <trkpt lat="43.58726" lon="3.81149">
        <ele>25.6</ele>
        <time>2021-01-09T14:14:43Z</time>
      </trkpt>
      <trkpt lat="43.58727" lon="3.81145">
        <ele>25.8</ele>
        <time>2021-01-09T14:14:44Z</time>
      </trkpt>
      <trkpt lat="43.58729" lon="3.81141">
        <ele>27</ele>
        <time>2021-01-09T14:14:45Z</time>
      </trkpt>
      <trkpt lat="43.58731" lon="3.81137">
        <ele>26</ele>
        <time>2021-01-09T14:14:46Z</time>
      </trkpt>
      <trkpt lat="43.58732" lon="3.81132">
        <ele>26</ele>
        <time>2021-01-09T14:14:47Z</time>
      </trkpt>
      <trkpt lat="43.58734" lon="3.81128">
        <ele>26</ele>
        <time>2021-01-09T14:14:48Z</time>
      </trkpt>
      <trkpt lat="43.58736" lon="3.81125">
        <ele>26</ele>
        <time>2021-01-09T14:14:49Z</time>
      </trkpt>
      <trkpt lat="43.58738" lon="3.81121">
        <ele>26</ele>
        <time>2021-01-09T14:14:50Z</time>
      </trkpt>
      <trkpt lat="43.58741" lon="3.81118">
        <ele>26</ele>
        <time>2021-01-09T14:14:51Z</time>
      </trkpt>
      <trkpt lat="43.58744" lon="3.81116">
        <ele>26</ele>
        <time>2021-01-09T14:14:52Z</time>
      </trkpt>
      <trkpt lat="43.58748" lon="3.81115">
        <ele>26</ele>
        <time>2021-01-09T14:14:53Z</time>
      </trkpt>
      <trkpt lat="43.58751" lon="3.81115">
        <ele>26</ele>
        <time>2021-01-09T14:14:54Z</time>
      </trkpt>
      <trkpt lat="43.58755" lon="3.81117">
        <ele>28</ele>
        <time>2021-01-09T14:14:55Z</time>
      </trkpt>
      <trkpt lat="43.58758" lon="3.8112">
        <ele>26.2</ele>
        <time>2021-01-09T14:14:56Z</time>
      </trkpt>
      <trkpt lat="43.58761" lon="3.81122">
        <ele>26.2</ele>
        <time>2021-01-09T14:14:57Z</time>
      </trkpt>
      <trkpt lat="43.58764" lon="3.81124">
        <ele>26.3</ele>
        <time>2021-01-09T14:14:58Z</time>
      </trkpt>
      <trkpt lat="43.58768" lon="3.81125">
        <ele>26.3</ele>
        <time>2021-01-09T14:14:59Z</time>
      </trkpt>
      <trkpt lat="43.5877" lon="3.81125">
        <ele>26.4</ele>
        <time>2021-01-09T14:15:00Z</time>
      </trkpt>
      <trkpt lat="43.58773" lon="3.81125">
        <ele>26.4</ele>
        <time>2021-01-09T14:15:01Z</time>
      </trkpt>
      <trkpt lat="43.58776" lon="3.81127">
        <ele>26.4</ele>
        <time>2021-01-09T14:15:02Z</time>
      </trkpt>
      <trkpt lat="43.58778" lon="3.81131">
        <ele>26.3</ele>
        <time>2021-01-09T14:15:03Z</time>
      </trkpt>
      <trkpt lat="43.58781" lon="3.81134">
        <ele>26.2</ele>
        <time>2021-01-09T14:15:04Z</time>
      </trkpt>
      <trkpt lat="43.58783" lon="3.81138">
        <ele>28</ele>
        <time>2021-01-09T14:15:05Z</time>
      </trkpt>
      <trkpt lat="43.58787" lon="3.81141">
        <ele>26</ele>
        <time>2021-01-09T14:15:06Z</time>
      </trkpt>
      <trkpt lat="43.5879" lon="3.81145">
        <ele>26</ele>
        <time>2021-01-09T14:15:07Z</time>
      </trkpt>
      <trkpt lat="43.58793" lon="3.81149">
        <ele>26</ele>
        <time>2021-01-09T14:15:08Z</time>
      </trkpt>
      <trkpt lat="43.58795" lon="3.81153">
        <ele>26</ele>
        <time>2021-01-09T14:15:09Z</time>
      </trkpt>
      <trkpt lat="43.58798" lon="3.81157">
        <ele>26</ele>
        <time>2021-01-09T14:15:10Z</time>
      </trkpt>
      <trkpt lat="43.58801" lon="3.81161">
        <ele>26</ele>
        <time>2021-01-09T14:15:11Z</time>
      </trkpt>
      <trkpt lat="43.58804" lon="3.81165">
        <ele>26</ele>
        <time>2021-01-09T14:15:12Z</time>
      </trkpt>
      <trkpt lat="43.58807" lon="3.81169">
        <ele>26</ele>
        <time>2021-01-09T14:15:13Z</time>
      </trkpt>
      <trkpt lat="43.58809" lon="3.81173">
        <ele>26</ele>
        <time>2021-01-09T14:15:14Z</time>
      </trkpt>
      <trkpt lat="43.58812" lon="3.81177">
        <ele>28</ele>
        <time>2021-01-09T14:15:15Z</time>
      </trkpt>
      <trkpt lat="43.58815" lon="3.81181">
        <ele>26</ele>
        <time>2021-01-09T14:15:16Z</time>
      </trkpt>
      <trkpt lat="43.58817" lon="3.81185">
        <ele>26</ele>
        <time>2021-01-09T14:15:17Z</time>
      </trkpt>
      <trkpt lat="43.5882" lon="3.81189">
        <ele>26</ele>
        <time>2021-01-09T14:15:18Z</time>
      </trkpt>
      <trkpt lat="43.58823" lon="3.81193">
        <ele>26</ele>
        <time>2021-01-09T14:15:19Z</time>
      </trkpt>
      <trkpt lat="43.58825" lon="3.81196">
        <ele>25.9</ele>
        <time>2021-01-09T14:15:20Z</time>
      </trkpt>
      <trkpt lat="43.58828" lon="3.812">
        <ele>25.8</ele>
        <time>2021-01-09T14:15:21Z</time>
      </trkpt>
      <trkpt lat="43.58831" lon="3.81204">
        <ele>25.7</ele>
        <time>2021-01-09T14:15:22Z</time>
      </trkpt>
      <trkpt lat="43.58833" lon="3.81208">
        <ele>25.5</ele>
        <time>2021-01-09T14:15:23Z</time>
      </trkpt>
      <trkpt lat="43.58836" lon="3.81212">
        <ele>25.4</ele>
        <time>2021-01-09T14:15:24Z</time>
      </trkpt>
      <trkpt lat="43.58839" lon="3.81216">
        <ele>29</ele>
        <time>2021-01-09T14:15:25Z</time>
      </trkpt>
      <trkpt lat="43.58842" lon="3.8122">
        <ele>25.4</ele>
        <time>2021-01-09T14:15:26Z</time>
      </trkpt>
      <trkpt lat="43.58845" lon="3.81223">
        <ele>25.4</ele>
        <time>2021-01-09T14:15:27Z</time>
      </trkpt>
      <trkpt lat="43.58847" lon="3.81227">
        <ele>25.5</ele>
        <time>2021-01-09T14:15:28Z</time>
      </trkpt>
      <trkpt lat="43.5885" lon="3.81231">
        <ele>25.6</ele>
        <time>2021-01-09T14:15:29Z</time>
      </trkpt>
      <trkpt lat="43.58853" lon="3.81235">
        <ele>25.7</ele>
        <time>2021-01-09T14:15:30Z</time>
      </trkpt>
      <trkpt lat="43.58856" lon="3.81239">
        <ele>25.8</ele>
        <time>2021-01-09T14:15:31Z</time>
      </trkpt>
      <trkpt lat="43.58858" lon="3.81243">
        <ele>25.9</ele>
        <time>2021-01-09T14:15:32Z</time>
      </trkpt>
      <trkpt lat="43.58861" lon="3.81247">
        <ele>26</ele>
        <time>2021-01-09T14:15:33Z</time>
      </trkpt>
      <trkpt lat="43.58864" lon="3.81251">
        <ele>26</ele>
        <time>2021-01-09T14:15:34Z</time>
      </trkpt>
      <trkpt lat="43.58867" lon="3.81254">
        <ele>29</ele>
        <time>2021-01-09T14:15:35Z</time>
      </trkpt>
      <trkpt lat="43.58869" lon="3.81258">
        <ele>25.7</ele>
        <time>2021-01-09T14:15:36Z</time>
      </trkpt>
      <trkpt lat="43.58872" lon="3.81262">
        <ele>25.6</ele>
        <time>2021-01-09T14:15:37Z</time>
      </trkpt>
      <trkpt lat="43.58875" lon="3.81266">
        <ele>25.4</ele>
        <time>2021-01-09T14:15:38Z</time>
      </trkpt>
      <trkpt lat="43.58878" lon="3.8127">
        <ele>25.3</ele>
        <time>2021-01-09T14:15:39Z</time>
      </trkpt>
      <trkpt lat="43.58881" lon="3.81274">
        <ele>25.1</ele>
        <time>2021-01-09T14:15:40Z</time>
      </trkpt>
      <trkpt lat="43.58884" lon="3.81278">
        <ele>25</ele>
        <time>2021-01-09T14:15:41Z</time>
      </trkpt>
      <trkpt lat="43.58887" lon="3.81282">
        <ele>24.9</ele>
        <time>2021-01-09T14:15:42Z</time>
      </trkpt>
      <trkpt lat="43.5889" lon="3.81286">
        <ele>24.7</ele>
        <time>2021-01-09T14:15:43Z</time>
      </trkpt>
      <trkpt lat="43.58893" lon="3.8129">
        <ele>24.6</ele>
        <time>2021-01-09T14:15:44Z</time>
      </trkpt>
      <trkpt lat="43.58897" lon="3.81294">
        <ele>29</ele>
        <time>2021-01-09T14:15:45Z</time>
      </trkpt>
      <trkpt lat="43.589" lon="3.81299">
        <ele>24.5</ele>
        <time>2021-01-09T14:15:46Z</time>
      </trkpt>
      <trkpt lat="43.58903" lon="3.81303">
        <ele>24.6</ele>
        <time>2021-01-09T14:15:47Z</time>
      </trkpt>
      <trkpt lat="43.58906" lon="3.81308">
        <ele>24.6</ele>
        <time>2021-01-09T14:15:48Z</time>
      </trkpt>
      <trkpt lat="43.58909" lon="3.81312">
        <ele>24.6</ele>
        <time>2021-01-09T14:15:49Z</time>
      </trkpt>
      <trkpt lat="43.58913" lon="3.81317">
        <ele>24.5</ele>
        <time>2021-01-09T14:15:50Z</time>
      </trkpt>
      <trkpt lat="43.58916" lon="3.81321">
        <ele>24.4</ele>
        <time>2021-01-09T14:15:51Z</time>
      </trkpt>
      <trkpt lat="43.58919" lon="3.81325">
        <ele>24.4</ele>
        <time>2021-01-09T14:15:52Z</time>
      </trkpt>
      <trkpt lat="43.58923" lon="3.8133">
        <ele>24.3</ele>
        <time>2021-01-09T14:15:53Z</time>
      </trkpt>
      <trkpt lat="43.58926" lon="3.81335">
        <ele>24.3</ele>
        <time>2021-01-09T14:15:54Z</time>
      </trkpt>
      <trkpt lat="43.58929" lon="3.8134">
        <ele>29</ele>
        <time>2021-01-09T14:15:55Z</time>
      </trkpt>
      <trkpt lat="43.58933" lon="3.81345">
        <ele>24.3</ele>
        <time>2021-01-09T14:15:56Z</time>
      </trkpt>
      <trkpt lat="43.58936" lon="3.8135">
        <ele>24.3</ele>
        <time>2021-01-09T14:15:57Z</time>
      </trkpt>
      <trkpt lat="43.5894" lon="3.81355">
        <ele>24.2</ele>
        <time>2021-01-09T14:15:58Z</time>
      </trkpt>
      <trkpt lat="43.58943" lon="3.8136">
        <ele>24</ele>
        <time>2021-01-09T14:15:59Z</time>
      </trkpt>
      <trkpt lat="43.58947" lon="3.81364">
        <ele>24</ele>
        <time>2021-01-09T14:16:00Z</time>
      </trkpt>
      <trkpt lat="43.5895" lon="3.81369">
        <ele>24</ele>
        <time>2021-01-09T14:16:01Z</time>
      </trkpt>
      <trkpt lat="43.58954" lon="3.81374">
        <ele>24</ele>
        <time>2021-01-09T14:16:02Z</time>
      </trkpt>
      <trkpt lat="43.58957" lon="3.81379">
        <ele>24</ele>
        <time>2021-01-09T14:16:03Z</time>
      </trkpt>
      <trkpt lat="43.5896" lon="3.81384">
        <ele>24</ele>
        <time>2021-01-09T14:16:04Z</time>
      </trkpt>
      <trkpt lat="43.58964" lon="3.81388">
        <ele>28</ele>
        <time>2021-01-09T14:16:05Z</time>
      </trkpt>
      <trkpt lat="43.58967" lon="3.81393">
        <ele>23.9</ele>
        <time>2021-01-09T14:16:06Z</time>
      </trkpt>
      <trkpt lat="43.5897" lon="3.81397">
        <ele>23.7</ele>
        <time>2021-01-09T14:16:07Z</time>
      </trkpt>
      <trkpt lat="43.58974" lon="3.81401">
        <ele>23.6</ele>
        <time>2021-01-09T14:16:08Z</time>
      </trkpt>
      <trkpt lat="43.58977" lon="3.81406">
        <ele>23.5</ele>
        <time>2021-01-09T14:16:09Z</time>
      </trkpt>
      <trkpt lat="43.5898" lon="3.81411">
        <ele>23.4</ele>
        <time>2021-01-09T14:16:10Z</time>
      </trkpt>
      <trkpt lat="43.58983" lon="3.81415">
        <ele>23.4</ele>
        <time>2021-01-09T14:16:11Z</time>
      </trkpt>
      <trkpt lat="43.58987" lon="3.8142">
        <ele>23.5</ele>
        <time>2021-01-09T14:16:12Z</time>
      </trkpt>
      <trkpt lat="43.5899" lon="3.81424">
        <ele>23.5</ele>
        <time>2021-01-09T14:16:13Z</time>
      </trkpt>
      <trkpt lat="43.58993" lon="3.81429">
        <ele>23.4</ele>
        <time>2021-01-09T14:16:14Z</time>
      </trkpt>
      <trkpt lat="43.58997" lon="3.81433">
        <ele>28</ele>
        <time>2021-01-09T14:16:15Z</time>
      </trkpt>
      <trkpt lat="43.59001" lon="3.81438">
        <ele>23.2</ele>
        <time>2021-01-09T14:16:16Z</time>
      </trkpt>
      <trkpt lat="43.59004" lon="3.81442">
        <ele>23.1</ele>
        <time>2021-01-09T14:16:17Z</time>
      </trkpt>
      <trkpt lat="43.59007" lon="3.81446">
        <ele>23</ele>
        <time>2021-01-09T14:16:18Z</time>
      </trkpt>
      <trkpt lat="43.5901" lon="3.8145">
        <ele>23</ele>
        <time>2021-01-09T14:16:19Z</time>
      </trkpt>
      <trkpt lat="43.59012" lon="3.81454">
        <ele>23</ele>
        <time>2021-01-09T14:16:20Z</time>
      </trkpt>
      <trkpt lat="43.59015" lon="3.81458">
        <ele>23</ele>
        <time>2021-01-09T14:16:21Z</time>
      </trkpt>
      <trkpt lat="43.59018" lon="3.81463">
        <ele>23</ele>
        <time>2021-01-09T14:16:22Z</time>
      </trkpt>
      <trkpt lat="43.59021" lon="3.81467">
        <ele>23</ele>
        <time>2021-01-09T14:16:23Z</time>
      </trkpt>
      <trkpt lat="43.59024" lon="3.81471">
        <ele>23</ele>
        <time>2021-01-09T14:16:24Z</time>
      </trkpt>
      <trkpt lat="43.59026" lon="3.81475">
        <ele>28</ele>
        <time>2021-01-09T14:16:25Z</time>
      </trkpt>
      <trkpt lat="43.59029" lon="3.81479">
        <ele>23</ele>
        <time>2021-01-09T14:16:26Z</time>
      </trkpt>
      <trkpt lat="43.59032" lon="3.81483">
        <ele>23</ele>
        <time>2021-01-09T14:16:27Z</time>
      </trkpt>
      <trkpt lat="43.59035" lon="3.81487">
        <ele>23</ele>
        <time>2021-01-09T14:16:28Z</time>
      </trkpt>
      <trkpt lat="43.59038" lon="3.81492">
        <ele>23</ele>
        <time>2021-01-09T14:16:29Z</time>
      </trkpt>
      <trkpt lat="43.59041" lon="3.81496">
        <ele>23</ele>
        <time>2021-01-09T14:16:30Z</time>
      </trkpt>
      <trkpt lat="43.59044" lon="3.815">
        <ele>23</ele>
        <time>2021-01-09T14:16:31Z</time>
      </trkpt>
      <trkpt lat="43.59047" lon="3.81505">
        <ele>22.9</ele>
        <time>2021-01-09T14:16:32Z</time>
      </trkpt>
      <trkpt lat="43.5905" lon="3.81509">
        <ele>22.9</ele>
        <time>2021-01-09T14:16:33Z</time>
      </trkpt>
      <trkpt lat="43.59054" lon="3.81513">
        <ele>23</ele>
        <time>2021-01-09T14:16:34Z</time>
      </trkpt>
      <trkpt lat="43.59057" lon="3.81517">
        <ele>28</ele>
        <time>2021-01-09T14:16:35Z</time>
      </trkpt>
      <trkpt lat="43.5906" lon="3.81522">
        <ele>23.2</ele>
        <time>2021-01-09T14:16:36Z</time>
      </trkpt>
      <trkpt lat="43.59063" lon="3.81526">
        <ele>23.3</ele>
        <time>2021-01-09T14:16:37Z</time>
      </trkpt>
      <trkpt lat="43.59066" lon="3.8153">
        <ele>23.3</ele>
        <time>2021-01-09T14:16:38Z</time>
      </trkpt>
      <trkpt lat="43.59069" lon="3.81534">
        <ele>23.4</ele>
        <time>2021-01-09T14:16:39Z</time>
      </trkpt>
      <trkpt lat="43.59072" lon="3.81538">
        <ele>23.4</ele>
        <time>2021-01-09T14:16:40Z</time>
      </trkpt>
      <trkpt lat="43.59075" lon="3.81542">
        <ele>23.3</ele>
        <time>2021-01-09T14:16:41Z</time>
      </trkpt>
      <trkpt lat="43.59078" lon="3.81546">
        <ele>23.3</ele>
        <time>2021-01-09T14:16:42Z</time>
      </trkpt>
      <trkpt lat="43.59081" lon="3.8155">
        <ele>23.2</ele>
        <time>2021-01-09T14:16:43Z</time>
      </trkpt>
      <trkpt lat="43.59084" lon="3.81554">
        <ele>23.1</ele>
        <time>2021-01-09T14:16:44Z</time>
      </trkpt>
      <trkpt lat="43.59086" lon="3.81558">
        <ele>28</ele>
        <time>2021-01-09T14:16:45Z</time>
      </trkpt>
      <trkpt lat="43.59089" lon="3.81562">
        <ele>23.2</ele>
        <time>2021-01-09T14:16:46Z</time>
      </trkpt>
      <trkpt lat="43.59092" lon="3.81566">
        <ele>23.3</ele>
        <time>2021-01-09T14:16:47Z</time>
      </trkpt>
      <trkpt lat="43.59095" lon="3.81571">
        <ele>23.4</ele>
        <time>2021-01-09T14:16:48Z</time>
      </trkpt>
      <trkpt lat="43.59098" lon="3.81575">
        <ele>23.5</ele>
        <time>2021-01-09T14:16:49Z</time>
      </trkpt>
      <trkpt lat="43.59101" lon="3.81579">
        <ele>23.6</ele>
        <time>2021-01-09T14:16:50Z</time>
      </trkpt>
      <trkpt lat="43.59104" lon="3.81584">
        <ele>23.7</ele>
        <time>2021-01-09T14:16:51Z</time>
      </trkpt>
      <trkpt lat="43.59107" lon="3.81588">
        <ele>23.7</ele>
        <time>2021-01-09T14:16:52Z</time>
      </trkpt>
      <trkpt lat="43.59109" lon="3.81592">
        <ele>23.6</ele>
        <time>2021-01-09T14:16:53Z</time>
      </trkpt>
      <trkpt lat="43.59112" lon="3.81596">
        <ele>23.6</ele>
        <time>2021-01-09T14:16:54Z</time>
      </trkpt>
      <trkpt lat="43.59115" lon="3.816">
        <ele>29</ele>
        <time>2021-01-09T14:16:55Z</time>
      </trkpt>
      <trkpt lat="43.59118" lon="3.81603">
        <ele>23.5</ele>
        <time>2021-01-09T14:16:56Z</time>
      </trkpt>
      <trkpt lat="43.59121" lon="3.81605">
        <ele>23.5</ele>
        <time>2021-01-09T14:16:57Z</time>
      </trkpt>
      <trkpt lat="43.59125" lon="3.81606">
        <ele>23.5</ele>
        <time>2021-01-09T14:16:58Z</time>
      </trkpt>
      <trkpt lat="43.59128" lon="3.81607">
        <ele>23.4</ele>
        <time>2021-01-09T14:16:59Z</time>
      </trkpt>
      <trkpt lat="43.59132" lon="3.81607">
        <ele>23.5</ele>
        <time>2021-01-09T14:17:00Z</time>
      </trkpt>
      <trkpt lat="43.59136" lon="3.81608">
        <ele>23.4</ele>
        <time>2021-01-09T14:17:01Z</time>
      </trkpt>
      <trkpt lat="43.5914" lon="3.81609">
        <ele>23.3</ele>
        <time>2021-01-09T14:17:02Z</time>
      </trkpt>
      <trkpt lat="43.59143" lon="3.8161">
        <ele>23</ele>
        <time>2021-01-09T14:17:03Z</time>
      </trkpt>
      <trkpt lat="43.59146" lon="3.8161">
        <ele>22.9</ele>
        <time>2021-01-09T14:17:04Z</time>
      </trkpt>
      <trkpt lat="43.59151" lon="3.81611">
        <ele>30</ele>
        <time>2021-01-09T14:17:05Z</time>
      </trkpt>
      <trkpt lat="43.59162" lon="3.81609">
        <ele>22.3</ele>
        <time>2021-01-09T14:17:07Z</time>
      </trkpt>
      <trkpt lat="43.59171" lon="3.81598">
        <ele>22.9</ele>
        <time>2021-01-09T14:17:09Z</time>
      </trkpt>
      <trkpt lat="43.59177" lon="3.81591">
        <ele>23.4</ele>
        <time>2021-01-09T14:17:11Z</time>
      </trkpt>
      <trkpt lat="43.59179" lon="3.81587">
        <ele>23.7</ele>
        <time>2021-01-09T14:17:12Z</time>
      </trkpt>
      <trkpt lat="43.59179" lon="3.81583">
        <ele>24</ele>
        <time>2021-01-09T14:17:14Z</time>
      </trkpt>
      <trkpt lat="43.59179" lon="3.81578">
        <ele>29</ele>
        <time>2021-01-09T14:17:15Z</time>
      </trkpt>
      <trkpt lat="43.59177" lon="3.81572">
        <ele>23.8</ele>
        <time>2021-01-09T14:17:16Z</time>
      </trkpt>
      <trkpt lat="43.59175" lon="3.81566">
        <ele>23.8</ele>
        <time>2021-01-09T14:17:17Z</time>
      </trkpt>
      <trkpt lat="43.59174" lon="3.8156">
        <ele>23.8</ele>
        <time>2021-01-09T14:17:18Z</time>
      </trkpt>
      <trkpt lat="43.59172" lon="3.81554">
        <ele>23.8</ele>
        <time>2021-01-09T14:17:19Z</time>
      </trkpt>
      <trkpt lat="43.5917" lon="3.81548">
        <ele>23.9</ele>
        <time>2021-01-09T14:17:20Z</time>
      </trkpt>
      <trkpt lat="43.59168" lon="3.81542">
        <ele>24</ele>
        <time>2021-01-09T14:17:21Z</time>
      </trkpt>
      <trkpt lat="43.59166" lon="3.81536">
        <ele>24.1</ele>
        <time>2021-01-09T14:17:22Z</time>
      </trkpt>
      <trkpt lat="43.59164" lon="3.81531">
        <ele>24.2</ele>
        <time>2021-01-09T14:17:23Z</time>
      </trkpt>
      <trkpt lat="43.59163" lon="3.81525">
        <ele>24.3</ele>
        <time>2021-01-09T14:17:24Z</time>
      </trkpt>
      <trkpt lat="43.59161" lon="3.8152">
        <ele>29</ele>
        <time>2021-01-09T14:17:25Z</time>
      </trkpt>
      <trkpt lat="43.59159" lon="3.81515">
        <ele>24.4</ele>
        <time>2021-01-09T14:17:26Z</time>
      </trkpt>
      <trkpt lat="43.59158" lon="3.81509">
        <ele>24.4</ele>
        <time>2021-01-09T14:17:27Z</time>
      </trkpt>
      <trkpt lat="43.59159" lon="3.81503">
        <ele>24.3</ele>
        <time>2021-01-09T14:17:28Z</time>
      </trkpt>
      <trkpt lat="43.59161" lon="3.81498">
        <ele>24.2</ele>
        <time>2021-01-09T14:17:29Z</time>
      </trkpt>
      <trkpt lat="43.59163" lon="3.81492">
        <ele>24.1</ele>
        <time>2021-01-09T14:17:30Z</time>
      </trkpt>
      <trkpt lat="43.59165" lon="3.81486">
        <ele>24.1</ele>
        <time>2021-01-09T14:17:31Z</time>
      </trkpt>
      <trkpt lat="43.59168" lon="3.81481">
        <ele>24</ele>
        <time>2021-01-09T14:17:32Z</time>
      </trkpt>
      <trkpt lat="43.59171" lon="3.81476">
        <ele>24</ele>
        <time>2021-01-09T14:17:33Z</time>
      </trkpt>
      <trkpt lat="43.59174" lon="3.81471">
        <ele>24</ele>
        <time>2021-01-09T14:17:34Z</time>
      </trkpt>
      <trkpt lat="43.59176" lon="3.81466">
        <ele>29</ele>
        <time>2021-01-09T14:17:35Z</time>
      </trkpt>
      <trkpt lat="43.59179" lon="3.81462">
        <ele>24</ele>
        <time>2021-01-09T14:17:36Z</time>
      </trkpt>
      <trkpt lat="43.59182" lon="3.81457">
        <ele>24</ele>
        <time>2021-01-09T14:17:37Z</time>
      </trkpt>
      <trkpt lat="43.59185" lon="3.81452">
        <ele>24</ele>
        <time>2021-01-09T14:17:38Z</time>
      </trkpt>
      <trkpt lat="43.59188" lon="3.81448">
        <ele>24</ele>
        <time>2021-01-09T14:17:39Z</time>
      </trkpt>
      <trkpt lat="43.59191" lon="3.81443">
        <ele>24.1</ele>
        <time>2021-01-09T14:17:40Z</time>
      </trkpt>
      <trkpt lat="43.59193" lon="3.81438">
        <ele>24.2</ele>
        <time>2021-01-09T14:17:41Z</time>
      </trkpt>
      <trkpt lat="43.59196" lon="3.81433">
        <ele>24.4</ele>
        <time>2021-01-09T14:17:42Z</time>
      </trkpt>
      <trkpt lat="43.59199" lon="3.81428">
        <ele>24.6</ele>
        <time>2021-01-09T14:17:43Z</time>
      </trkpt>
      <trkpt lat="43.59202" lon="3.81423">
        <ele>24.8</ele>
        <time>2021-01-09T14:17:44Z</time>
      </trkpt>
      <trkpt lat="43.59204" lon="3.81419">
        <ele>29</ele>
        <time>2021-01-09T14:17:45Z</time>
      </trkpt>
      <trkpt lat="43.59207" lon="3.81414">
        <ele>25</ele>
        <time>2021-01-09T14:17:46Z</time>
      </trkpt>
      <trkpt lat="43.5921" lon="3.81409">
        <ele>25.2</ele>
        <time>2021-01-09T14:17:47Z</time>
      </trkpt>
      <trkpt lat="43.59212" lon="3.81405">
        <ele>25.3</ele>
        <time>2021-01-09T14:17:48Z</time>
      </trkpt>
      <trkpt lat="43.59215" lon="3.814">
        <ele>25.4</ele>
        <time>2021-01-09T14:17:49Z</time>
      </trkpt>
      <trkpt lat="43.59218" lon="3.81396">
        <ele>25.6</ele>
        <time>2021-01-09T14:17:50Z</time>
      </trkpt>
      <trkpt lat="43.5922" lon="3.81391">
        <ele>25.9</ele>
        <time>2021-01-09T14:17:51Z</time>
      </trkpt>
      <trkpt lat="43.59223" lon="3.81387">
        <ele>26</ele>
        <time>2021-01-09T14:17:52Z</time>
      </trkpt>
      <trkpt lat="43.59226" lon="3.81383">
        <ele>26</ele>
        <time>2021-01-09T14:17:53Z</time>
      </trkpt>
      <trkpt lat="43.59228" lon="3.81378">
        <ele>26</ele>
        <time>2021-01-09T14:17:54Z</time>
      </trkpt>
      <trkpt lat="43.59231" lon="3.81374">
        <ele>29</ele>
        <time>2021-01-09T14:17:55Z</time>
      </trkpt>
      <trkpt lat="43.59234" lon="3.81369">
        <ele>26</ele>
        <time>2021-01-09T14:17:56Z</time>
      </trkpt>
      <trkpt lat="43.59236" lon="3.81365">
        <ele>26</ele>
        <time>2021-01-09T14:17:57Z</time>
      </trkpt>
      <trkpt lat="43.59239" lon="3.8136">
        <ele>26</ele>
        <time>2021-01-09T14:17:58Z</time>
      </trkpt>
      <trkpt lat="43.59242" lon="3.81355">
        <ele>26.2</ele>
        <time>2021-01-09T14:17:59Z</time>
      </trkpt>
      <trkpt lat="43.59244" lon="3.81351">
        <ele>26.3</ele>
        <time>2021-01-09T14:18:00Z</time>
      </trkpt>
      <trkpt lat="43.59247" lon="3.81347">
        <ele>26.5</ele>
        <time>2021-01-09T14:18:01Z</time>
      </trkpt>
      <trkpt lat="43.59249" lon="3.81342">
        <ele>26.7</ele>
        <time>2021-01-09T14:18:02Z</time>
      </trkpt>
      <trkpt lat="43.59252" lon="3.81338">
        <ele>26.8</ele>
        <time>2021-01-09T14:18:03Z</time>
      </trkpt>
      <trkpt lat="43.59254" lon="3.81334">
        <ele>27</ele>
        <time>2021-01-09T14:18:04Z</time>
      </trkpt>
      <trkpt lat="43.59256" lon="3.8133">
        <ele>30</ele>
        <time>2021-01-09T14:18:05Z</time>
      </trkpt>
      <trkpt lat="43.59259" lon="3.81326">
        <ele>27.1</ele>
        <time>2021-01-09T14:18:06Z</time>
      </trkpt>
      <trkpt lat="43.59261" lon="3.81322">
        <ele>27.2</ele>
        <time>2021-01-09T14:18:07Z</time>
      </trkpt>
      <trkpt lat="43.59264" lon="3.81318">
        <ele>27.3</ele>
        <time>2021-01-09T14:18:08Z</time>
      </trkpt>
      <trkpt lat="43.59266" lon="3.81315">
        <ele>27.4</ele>
        <time>2021-01-09T14:18:09Z</time>
      </trkpt>
      <trkpt lat="43.59268" lon="3.81314">
        <ele>27.5</ele>
        <time>2021-01-09T14:18:10Z</time>
      </trkpt>
      <trkpt lat="43.59271" lon="3.81313">
        <ele>27.6</ele>
        <time>2021-01-09T14:18:11Z</time>
      </trkpt>
      <trkpt lat="43.59274" lon="3.81313">
        <ele>27.6</ele>
        <time>2021-01-09T14:18:12Z</time>
      </trkpt>
      <trkpt lat="43.59278" lon="3.81314">
        <ele>27.7</ele>
        <time>2021-01-09T14:18:13Z</time>
      </trkpt>
      <trkpt lat="43.59282" lon="3.81315">
        <ele>27.7</ele>
        <time>2021-01-09T14:18:14Z</time>
      </trkpt>
      <trkpt lat="43.5929" lon="3.81317">
        <ele>31</ele>
        <time>2021-01-09T14:18:15Z</time>
      </trkpt>
      <trkpt lat="43.59294" lon="3.81318">
        <ele>27.6</ele>
        <time>2021-01-09T14:18:16Z</time>
      </trkpt>
      <trkpt lat="43.59298" lon="3.8132">
        <ele>27.5</ele>
        <time>2021-01-09T14:18:17Z</time>
      </trkpt>
      <trkpt lat="43.59302" lon="3.81322">
        <ele>27.4</ele>
        <time>2021-01-09T14:18:19Z</time>
      </trkpt>
      <trkpt lat="43.59306" lon="3.81324">
        <ele>27.3</ele>
        <time>2021-01-09T14:18:20Z</time>
      </trkpt>
      <trkpt lat="43.5931" lon="3.81326">
        <ele>27.4</ele>
        <time>2021-01-09T14:18:21Z</time>
      </trkpt>
      <trkpt lat="43.59314" lon="3.81328">
        <ele>27.4</ele>
        <time>2021-01-09T14:18:22Z</time>
      </trkpt>
      <trkpt lat="43.59318" lon="3.8133">
        <ele>27.5</ele>
        <time>2021-01-09T14:18:23Z</time>
      </trkpt>
      <trkpt lat="43.59322" lon="3.81332">
        <ele>27.6</ele>
        <time>2021-01-09T14:18:24Z</time>
      </trkpt>
      <trkpt lat="43.59326" lon="3.81334">
        <ele>31</ele>
        <time>2021-01-09T14:18:25Z</time>
      </trkpt>
      <trkpt lat="43.5933" lon="3.81336">
        <ele>27.8</ele>
        <time>2021-01-09T14:18:26Z</time>
      </trkpt>
      <trkpt lat="43.59334" lon="3.81338">
        <ele>27.8</ele>
        <time>2021-01-09T14:18:27Z</time>
      </trkpt>
      <trkpt lat="43.59338" lon="3.81341">
        <ele>27.7</ele>
        <time>2021-01-09T14:18:28Z</time>
      </trkpt>
      <trkpt lat="43.59342" lon="3.81343">
        <ele>27.7</ele>
        <time>2021-01-09T14:18:29Z</time>
      </trkpt>
      <trkpt lat="43.59346" lon="3.81345">
        <ele>27.6</ele>
        <time>2021-01-09T14:18:30Z</time>
      </trkpt>
      <trkpt lat="43.5935" lon="3.81347">
        <ele>27.5</ele>
        <time>2021-01-09T14:18:31Z</time>
      </trkpt>
      <trkpt lat="43.59354" lon="3.8135">
        <ele>27.4</ele>
        <time>2021-01-09T14:18:32Z</time>
      </trkpt>
      <trkpt lat="43.59359" lon="3.81352">
        <ele>27.3</ele>
        <time>2021-01-09T14:18:33Z</time>
      </trkpt>
      <trkpt lat="43.59363" lon="3.81354">
        <ele>27.3</ele>
        <time>2021-01-09T14:18:34Z</time>
      </trkpt>
      <trkpt lat="43.59367" lon="3.81356">
        <ele>31</ele>
        <time>2021-01-09T14:18:35Z</time>
      </trkpt>
      <trkpt lat="43.59371" lon="3.81358">
        <ele>27.4</ele>
        <time>2021-01-09T14:18:36Z</time>
      </trkpt>
      <trkpt lat="43.59375" lon="3.8136">
        <ele>27.5</ele>
        <time>2021-01-09T14:18:37Z</time>
      </trkpt>
      <trkpt lat="43.59379" lon="3.81362">
        <ele>27.6</ele>
        <time>2021-01-09T14:18:38Z</time>
      </trkpt>
      <trkpt lat="43.59383" lon="3.81364">
        <ele>27.7</ele>
        <time>2021-01-09T14:18:39Z</time>
      </trkpt>
      <trkpt lat="43.59387" lon="3.81366">
        <ele>27.8</ele>
        <time>2021-01-09T14:18:40Z</time>
      </trkpt>
      <trkpt lat="43.59391" lon="3.81369">
        <ele>27.8</ele>
        <time>2021-01-09T14:18:41Z</time>
      </trkpt>
      <trkpt lat="43.59396" lon="3.81371">
        <ele>27.9</ele>
        <time>2021-01-09T14:18:42Z</time>
      </trkpt>
      <trkpt lat="43.594" lon="3.81372">
        <ele>28</ele>
        <time>2021-01-09T14:18:43Z</time>
      </trkpt>
      <trkpt lat="43.59404" lon="3.81374">
        <ele>28.1</ele>
        <time>2021-01-09T14:18:44Z</time>
      </trkpt>
      <trkpt lat="43.59409" lon="3.81377">
        <ele>31</ele>
        <time>2021-01-09T14:18:45Z</time>
      </trkpt>
      <trkpt lat="43.59413" lon="3.81379">
        <ele>28.2</ele>
        <time>2021-01-09T14:18:46Z</time>
      </trkpt>
      <trkpt lat="43.59417" lon="3.81381">
        <ele>28.3</ele>
        <time>2021-01-09T14:18:47Z</time>
      </trkpt>
      <trkpt lat="43.59422" lon="3.81383">
        <ele>28.4</ele>
        <time>2021-01-09T14:18:48Z</time>
      </trkpt>
      <trkpt lat="43.59426" lon="3.81385">
        <ele>28.4</ele>
        <time>2021-01-09T14:18:49Z</time>
      </trkpt>
      <trkpt lat="43.5943" lon="3.81387">
        <ele>28.5</ele>
        <time>2021-01-09T14:18:50Z</time>
      </trkpt>
      <trkpt lat="43.59434" lon="3.81389">
        <ele>28.6</ele>
        <time>2021-01-09T14:18:51Z</time>
      </trkpt>
      <trkpt lat="43.59439" lon="3.81391">
        <ele>28.7</ele>
        <time>2021-01-09T14:18:52Z</time>
      </trkpt>
      <trkpt lat="43.59443" lon="3.81393">
        <ele>28.8</ele>
        <time>2021-01-09T14:18:53Z</time>
      </trkpt>
      <trkpt lat="43.59447" lon="3.81395">
        <ele>28.8</ele>
        <time>2021-01-09T14:18:54Z</time>
      </trkpt>
      <trkpt lat="43.59452" lon="3.81397">
        <ele>31</ele>
        <time>2021-01-09T14:18:55Z</time>
      </trkpt>
      <trkpt lat="43.59456" lon="3.81399">
        <ele>28.6</ele>
        <time>2021-01-09T14:18:56Z</time>
      </trkpt>
      <trkpt lat="43.59461" lon="3.814">
        <ele>28.6</ele>
        <time>2021-01-09T14:18:57Z</time>
      </trkpt>
      <trkpt lat="43.59465" lon="3.81401">
        <ele>28.6</ele>
        <time>2021-01-09T14:18:58Z</time>
      </trkpt>
      <trkpt lat="43.5947" lon="3.81402">
        <ele>28.5</ele>
        <time>2021-01-09T14:18:59Z</time>
      </trkpt>
      <trkpt lat="43.59474" lon="3.81403">
        <ele>28.5</ele>
        <time>2021-01-09T14:19:00Z</time>
      </trkpt>
      <trkpt lat="43.59479" lon="3.81403">
        <ele>28.6</ele>
        <time>2021-01-09T14:19:01Z</time>
      </trkpt>
      <trkpt lat="43.59483" lon="3.81404">
        <ele>28.7</ele>
        <time>2021-01-09T14:19:02Z</time>
      </trkpt>
      <trkpt lat="43.59488" lon="3.81404">
        <ele>28.8</ele>
        <time>2021-01-09T14:19:03Z</time>
      </trkpt>
      <trkpt lat="43.59492" lon="3.81405">
        <ele>28.8</ele>
        <time>2021-01-09T14:19:04Z</time>
      </trkpt>
      <trkpt lat="43.59497" lon="3.81405">
        <ele>31</ele>
        <time>2021-01-09T14:19:05Z</time>
      </trkpt>
      <trkpt lat="43.59502" lon="3.81406">
        <ele>29</ele>
        <time>2021-01-09T14:19:06Z</time>
      </trkpt>
      <trkpt lat="43.59506" lon="3.81406">
        <ele>29.1</ele>
        <time>2021-01-09T14:19:07Z</time>
      </trkpt>
      <trkpt lat="43.59511" lon="3.81407">
        <ele>29.1</ele>
        <time>2021-01-09T14:19:08Z</time>
      </trkpt>
      <trkpt lat="43.59515" lon="3.81407">
        <ele>29.2</ele>
        <time>2021-01-09T14:19:09Z</time>
      </trkpt>
      <trkpt lat="43.5952" lon="3.81408">
        <ele>29.2</ele>
        <time>2021-01-09T14:19:10Z</time>
      </trkpt>
      <trkpt lat="43.59524" lon="3.81408">
        <ele>29.3</ele>
        <time>2021-01-09T14:19:11Z</time>
      </trkpt>
      <trkpt lat="43.59529" lon="3.81409">
        <ele>29.3</ele>
        <time>2021-01-09T14:19:12Z</time>
      </trkpt>
      <trkpt lat="43.59533" lon="3.81409">
        <ele>29.3</ele>
        <time>2021-01-09T14:19:13Z</time>
      </trkpt>
      <trkpt lat="43.59538" lon="3.81409">
        <ele>29.3</ele>
        <time>2021-01-09T14:19:14Z</time>
      </trkpt>
      <trkpt lat="43.59543" lon="3.8141">
        <ele>31</ele>
        <time>2021-01-09T14:19:15Z</time>
      </trkpt>
      <trkpt lat="43.59547" lon="3.8141">
        <ele>29.2</ele>
        <time>2021-01-09T14:19:16Z</time>
      </trkpt>
      <trkpt lat="43.59552" lon="3.81411">
        <ele>29.2</ele>
        <time>2021-01-09T14:19:17Z</time>
      </trkpt>
      <trkpt lat="43.59556" lon="3.81411">
        <ele>29.2</ele>
        <time>2021-01-09T14:19:18Z</time>
      </trkpt>
      <trkpt lat="43.59561" lon="3.81412">
        <ele>29.2</ele>
        <time>2021-01-09T14:19:19Z</time>
      </trkpt>
      <trkpt lat="43.59565" lon="3.81412">
        <ele>29.2</ele>
        <time>2021-01-09T14:19:20Z</time>
      </trkpt>
      <trkpt lat="43.5957" lon="3.81413">
        <ele>29.1</ele>
        <time>2021-01-09T14:19:21Z</time>
      </trkpt>
      <trkpt lat="43.59574" lon="3.81413">
        <ele>29.1</ele>
        <time>2021-01-09T14:19:22Z</time>
      </trkpt>
      <trkpt lat="43.59578" lon="3.81414">
        <ele>29.1</ele>
        <time>2021-01-09T14:19:23Z</time>
      </trkpt>
      <trkpt lat="43.59583" lon="3.81414">
        <ele>29.1</ele>
        <time>2021-01-09T14:19:24Z</time>
      </trkpt>
      <trkpt lat="43.59587" lon="3.81415">
        <ele>31</ele>
        <time>2021-01-09T14:19:25Z</time>
      </trkpt>
      <trkpt lat="43.59592" lon="3.81415">
        <ele>29.4</ele>
        <time>2021-01-09T14:19:26Z</time>
      </trkpt>
      <trkpt lat="43.59596" lon="3.81415">
        <ele>29.5</ele>
        <time>2021-01-09T14:19:27Z</time>
      </trkpt>
      <trkpt lat="43.596" lon="3.81415">
        <ele>29.7</ele>
        <time>2021-01-09T14:19:28Z</time>
      </trkpt>
      <trkpt lat="43.59605" lon="3.81416">
        <ele>29.8</ele>
        <time>2021-01-09T14:19:29Z</time>
      </trkpt>
      <trkpt lat="43.59609" lon="3.81416">
        <ele>29.9</ele>
        <time>2021-01-09T14:19:30Z</time>
      </trkpt>
      <trkpt lat="43.59614" lon="3.81417">
        <ele>30.2</ele>
        <time>2021-01-09T14:19:31Z</time>
      </trkpt>
      <trkpt lat="43.59618" lon="3.81417">
        <ele>30.5</ele>
        <time>2021-01-09T14:19:32Z</time>
      </trkpt>
      <trkpt lat="43.59622" lon="3.81418">
        <ele>30.7</ele>
        <time>2021-01-09T14:19:33Z</time>
      </trkpt>
      <trkpt lat="43.59626" lon="3.81419">
        <ele>31</ele>
        <time>2021-01-09T14:19:34Z</time>
      </trkpt>
      <trkpt lat="43.5963" lon="3.81419">
        <ele>32</ele>
        <time>2021-01-09T14:19:35Z</time>
      </trkpt>
      <trkpt lat="43.59635" lon="3.81419">
        <ele>31.6</ele>
        <time>2021-01-09T14:19:36Z</time>
      </trkpt>
      <trkpt lat="43.59639" lon="3.8142">
        <ele>31.9</ele>
        <time>2021-01-09T14:19:37Z</time>
      </trkpt>
      <trkpt lat="43.59643" lon="3.8142">
        <ele>32</ele>
        <time>2021-01-09T14:19:38Z</time>
      </trkpt>
      <trkpt lat="43.59646" lon="3.81421">
        <ele>32.1</ele>
        <time>2021-01-09T14:19:39Z</time>
      </trkpt>
      <trkpt lat="43.59649" lon="3.81422">
        <ele>32.1</ele>
        <time>2021-01-09T14:19:40Z</time>
      </trkpt>
      <trkpt lat="43.59652" lon="3.81423">
        <ele>32.1</ele>
        <time>2021-01-09T14:19:41Z</time>
      </trkpt>
      <trkpt lat="43.59655" lon="3.81424">
        <ele>32.2</ele>
        <time>2021-01-09T14:19:42Z</time>
      </trkpt>
      <trkpt lat="43.59658" lon="3.81425">
        <ele>32.2</ele>
        <time>2021-01-09T14:19:43Z</time>
      </trkpt>
      <trkpt lat="43.59662" lon="3.81427">
        <ele>32.2</ele>
        <time>2021-01-09T14:19:44Z</time>
      </trkpt>
      <trkpt lat="43.59666" lon="3.81428">
        <ele>33</ele>
        <time>2021-01-09T14:19:45Z</time>
      </trkpt>
      <trkpt lat="43.5967" lon="3.8143">
        <ele>32.2</ele>
        <time>2021-01-09T14:19:46Z</time>
      </trkpt>
      <trkpt lat="43.59673" lon="3.81431">
        <ele>32.2</ele>
        <time>2021-01-09T14:19:47Z</time>
      </trkpt>
      <trkpt lat="43.59676" lon="3.81432">
        <ele>32.3</ele>
        <time>2021-01-09T14:19:48Z</time>
      </trkpt>
      <trkpt lat="43.59679" lon="3.81432">
        <ele>32.4</ele>
        <time>2021-01-09T14:19:49Z</time>
      </trkpt>
      <trkpt lat="43.59682" lon="3.81431">
        <ele>32.5</ele>
        <time>2021-01-09T14:19:50Z</time>
      </trkpt>
      <trkpt lat="43.59684" lon="3.81429">
        <ele>32.7</ele>
        <time>2021-01-09T14:19:51Z</time>
      </trkpt>
      <trkpt lat="43.59687" lon="3.81427">
        <ele>32.8</ele>
        <time>2021-01-09T14:19:52Z</time>
      </trkpt>
      <trkpt lat="43.59688" lon="3.81424">
        <ele>32.9</ele>
        <time>2021-01-09T14:19:53Z</time>
      </trkpt>
      <trkpt lat="43.59689" lon="3.81421">
        <ele>32.9</ele>
        <time>2021-01-09T14:19:54Z</time>
      </trkpt>
      <trkpt lat="43.59691" lon="3.81419">
        <ele>34</ele>
        <time>2021-01-09T14:19:55Z</time>
      </trkpt>
      <trkpt lat="43.59692" lon="3.81416">
        <ele>33</ele>
        <time>2021-01-09T14:19:56Z</time>
      </trkpt>
      <trkpt lat="43.59693" lon="3.81414">
        <ele>33.2</ele>
        <time>2021-01-09T14:19:57Z</time>
      </trkpt>
      <trkpt lat="43.59694" lon="3.81411">
        <ele>33.4</ele>
        <time>2021-01-09T14:19:58Z</time>
      </trkpt>
      <trkpt lat="43.59695" lon="3.81408">
        <ele>33.7</ele>
        <time>2021-01-09T14:19:59Z</time>
      </trkpt>
      <trkpt lat="43.59696" lon="3.81405">
        <ele>33.9</ele>
        <time>2021-01-09T14:20:00Z</time>
      </trkpt>
      <trkpt lat="43.59697" lon="3.81402">
        <ele>34.2</ele>
        <time>2021-01-09T14:20:01Z</time>
      </trkpt>
      <trkpt lat="43.59699" lon="3.81399">
        <ele>34.5</ele>
        <time>2021-01-09T14:20:02Z</time>
      </trkpt>
      <trkpt lat="43.597" lon="3.81396">
        <ele>34.7</ele>
        <time>2021-01-09T14:20:03Z</time>
      </trkpt>
      <trkpt lat="43.59701" lon="3.81394">
        <ele>34.9</ele>
        <time>2021-01-09T14:20:04Z</time>
      </trkpt>
      <trkpt lat="43.59703" lon="3.81391">
        <ele>36</ele>
        <time>2021-01-09T14:20:05Z</time>
      </trkpt>
      <trkpt lat="43.59704" lon="3.81389">
        <ele>35.3</ele>
        <time>2021-01-09T14:20:06Z</time>
      </trkpt>
      <trkpt lat="43.59705" lon="3.81386">
        <ele>35.5</ele>
        <time>2021-01-09T14:20:07Z</time>
      </trkpt>
      <trkpt lat="43.59706" lon="3.81383">
        <ele>35.6</ele>
        <time>2021-01-09T14:20:08Z</time>
      </trkpt>
      <trkpt lat="43.59708" lon="3.8138">
        <ele>35.8</ele>
        <time>2021-01-09T14:20:09Z</time>
      </trkpt>
      <trkpt lat="43.59709" lon="3.81377">
        <ele>36</ele>
        <time>2021-01-09T14:20:10Z</time>
      </trkpt>
      <trkpt lat="43.5971" lon="3.81374">
        <ele>36.1</ele>
        <time>2021-01-09T14:20:11Z</time>
      </trkpt>
      <trkpt lat="43.59711" lon="3.81371">
        <ele>36.2</ele>
        <time>2021-01-09T14:20:12Z</time>
      </trkpt>
      <trkpt lat="43.59713" lon="3.81368">
        <ele>36.4</ele>
        <time>2021-01-09T14:20:13Z</time>
      </trkpt>
      <trkpt lat="43.59714" lon="3.81365">
        <ele>36.6</ele>
        <time>2021-01-09T14:20:14Z</time>
      </trkpt>
      <trkpt lat="43.59716" lon="3.81362">
        <ele>38</ele>
        <time>2021-01-09T14:20:15Z</time>
      </trkpt>
      <trkpt lat="43.59717" lon="3.81359">
        <ele>36.9</ele>
        <time>2021-01-09T14:20:16Z</time>
      </trkpt>
      <trkpt lat="43.59719" lon="3.81356">
        <ele>37.1</ele>
        <time>2021-01-09T14:20:17Z</time>
      </trkpt>
      <trkpt lat="43.5972" lon="3.81353">
        <ele>37.2</ele>
        <time>2021-01-09T14:20:18Z</time>
      </trkpt>
      <trkpt lat="43.59722" lon="3.8135">
        <ele>37.4</ele>
        <time>2021-01-09T14:20:19Z</time>
      </trkpt>
      <trkpt lat="43.59724" lon="3.81347">
        <ele>37.5</ele>
        <time>2021-01-09T14:20:20Z</time>
      </trkpt>
      <trkpt lat="43.59726" lon="3.81344">
        <ele>37.7</ele>
        <time>2021-01-09T14:20:21Z</time>
      </trkpt>
      <trkpt lat="43.59728" lon="3.81341">
        <ele>37.8</ele>
        <time>2021-01-09T14:20:22Z</time>
      </trkpt>
      <trkpt lat="43.59729" lon="3.81338">
        <ele>37.9</ele>
        <time>2021-01-09T14:20:23Z</time>
      </trkpt>
      <trkpt lat="43.59731" lon="3.81335">
        <ele>38</ele>
        <time>2021-01-09T14:20:24Z</time>
      </trkpt>
      <trkpt lat="43.59733" lon="3.81332">
        <ele>39</ele>
        <time>2021-01-09T14:20:25Z</time>
      </trkpt>
      <trkpt lat="43.59735" lon="3.81329">
        <ele>38.1</ele>
        <time>2021-01-09T14:20:26Z</time>
      </trkpt>
      <trkpt lat="43.59736" lon="3.81326">
        <ele>38.1</ele>
        <time>2021-01-09T14:20:27Z</time>
      </trkpt>
      <trkpt lat="43.59738" lon="3.81322">
        <ele>38.2</ele>
        <time>2021-01-09T14:20:28Z</time>
      </trkpt>
      <trkpt lat="43.5974" lon="3.81319">
        <ele>38.3</ele>
        <time>2021-01-09T14:20:29Z</time>
      </trkpt>
      <trkpt lat="43.59742" lon="3.81316">
        <ele>38.4</ele>
        <time>2021-01-09T14:20:30Z</time>
      </trkpt>
      <trkpt lat="43.59743" lon="3.81313">
        <ele>38.5</ele>
        <time>2021-01-09T14:20:31Z</time>
      </trkpt>
      <trkpt lat="43.59745" lon="3.81309">
        <ele>38.7</ele>
        <time>2021-01-09T14:20:32Z</time>
      </trkpt>
      <trkpt lat="43.59746" lon="3.81306">
        <ele>38.8</ele>
        <time>2021-01-09T14:20:33Z</time>
      </trkpt>
      <trkpt lat="43.59748" lon="3.81302">
        <ele>38.9</ele>
        <time>2021-01-09T14:20:34Z</time>
      </trkpt>
      <trkpt lat="43.5975" lon="3.81299">
        <ele>40</ele>
        <time>2021-01-09T14:20:35Z</time>
      </trkpt>
      <trkpt lat="43.59752" lon="3.81296">
        <ele>39</ele>
        <time>2021-01-09T14:20:36Z</time>
      </trkpt>
      <trkpt lat="43.59753" lon="3.81292">
        <ele>39.1</ele>
        <time>2021-01-09T14:20:37Z</time>
      </trkpt>
      <trkpt lat="43.59755" lon="3.81289">
        <ele>39.1</ele>
        <time>2021-01-09T14:20:38Z</time>
      </trkpt>
      <trkpt lat="43.59757" lon="3.81285">
        <ele>39.2</ele>
        <time>2021-01-09T14:20:39Z</time>
      </trkpt>
      <trkpt lat="43.59758" lon="3.81282">
        <ele>39.2</ele>
        <time>2021-01-09T14:20:40Z</time>
      </trkpt>
      <trkpt lat="43.5976" lon="3.81278">
        <ele>39.4</ele>
        <time>2021-01-09T14:20:41Z</time>
      </trkpt>
      <trkpt lat="43.59762" lon="3.81275">
        <ele>39.5</ele>
        <time>2021-01-09T14:20:42Z</time>
      </trkpt>
      <trkpt lat="43.59764" lon="3.81272">
        <ele>39.7</ele>
        <time>2021-01-09T14:20:43Z</time>
      </trkpt>
      <trkpt lat="43.59766" lon="3.81268">
        <ele>39.9</ele>
        <time>2021-01-09T14:20:44Z</time>
      </trkpt>
      <trkpt lat="43.59767" lon="3.81265">
        <ele>41</ele>
        <time>2021-01-09T14:20:45Z</time>
      </trkpt>
      <trkpt lat="43.59769" lon="3.81261">
        <ele>40.1</ele>
        <time>2021-01-09T14:20:46Z</time>
      </trkpt>
      <trkpt lat="43.59771" lon="3.81258">
        <ele>40.1</ele>
        <time>2021-01-09T14:20:47Z</time>
      </trkpt>
      <trkpt lat="43.59773" lon="3.81254">
        <ele>40.1</ele>
        <time>2021-01-09T14:20:48Z</time>
      </trkpt>
      <trkpt lat="43.59775" lon="3.81251">
        <ele>40.1</ele>
        <time>2021-01-09T14:20:49Z</time>
      </trkpt>
      <trkpt lat="43.59776" lon="3.81247">
        <ele>40.3</ele>
        <time>2021-01-09T14:20:50Z</time>
      </trkpt>
      <trkpt lat="43.59778" lon="3.81243">
        <ele>40.5</ele>
        <time>2021-01-09T14:20:51Z</time>
      </trkpt>
      <trkpt lat="43.5978" lon="3.81239">
        <ele>40.8</ele>
        <time>2021-01-09T14:20:52Z</time>
      </trkpt>
      <trkpt lat="43.59782" lon="3.81236">
        <ele>41</ele>
        <time>2021-01-09T14:20:53Z</time>
      </trkpt>
      <trkpt lat="43.59784" lon="3.81232">
        <ele>41.2</ele>
        <time>2021-01-09T14:20:54Z</time>
      </trkpt>
      <trkpt lat="43.59786" lon="3.81229">
        <ele>42</ele>
        <time>2021-01-09T14:20:55Z</time>
      </trkpt>
      <trkpt lat="43.59788" lon="3.81226">
        <ele>41.5</ele>
        <time>2021-01-09T14:20:56Z</time>
      </trkpt>
      <trkpt lat="43.5979" lon="3.81223">
        <ele>41.5</ele>
        <time>2021-01-09T14:20:57Z</time>
      </trkpt>
      <trkpt lat="43.59792" lon="3.81219">
        <ele>41.7</ele>
        <time>2021-01-09T14:20:58Z</time>
      </trkpt>
      <trkpt lat="43.59794" lon="3.81216">
        <ele>41.9</ele>
        <time>2021-01-09T14:20:59Z</time>
      </trkpt>
      <trkpt lat="43.59796" lon="3.81213">
        <ele>42</ele>
        <time>2021-01-09T14:21:00Z</time>
      </trkpt>
      <trkpt lat="43.59798" lon="3.8121">
        <ele>42.2</ele>
        <time>2021-01-09T14:21:01Z</time>
      </trkpt>
      <trkpt lat="43.59801" lon="3.81208">
        <ele>42.2</ele>
        <time>2021-01-09T14:21:02Z</time>
      </trkpt>
      <trkpt lat="43.59803" lon="3.81204">
        <ele>42.4</ele>
        <time>2021-01-09T14:21:03Z</time>
      </trkpt>
      <trkpt lat="43.59805" lon="3.81201">
        <ele>42.5</ele>
        <time>2021-01-09T14:21:04Z</time>
      </trkpt>
      <trkpt lat="43.59806" lon="3.81197">
        <ele>43</ele>
        <time>2021-01-09T14:21:05Z</time>
      </trkpt>
      <trkpt lat="43.59808" lon="3.81194">
        <ele>43</ele>
        <time>2021-01-09T14:21:06Z</time>
      </trkpt>
      <trkpt lat="43.5981" lon="3.8119">
        <ele>43.3</ele>
        <time>2021-01-09T14:21:07Z</time>
      </trkpt>
      <trkpt lat="43.59811" lon="3.81187">
        <ele>43.5</ele>
        <time>2021-01-09T14:21:08Z</time>
      </trkpt>
      <trkpt lat="43.59812" lon="3.81183">
        <ele>43.7</ele>
        <time>2021-01-09T14:21:09Z</time>
      </trkpt>
      <trkpt lat="43.59812" lon="3.81179">
        <ele>44</ele>
        <time>2021-01-09T14:21:10Z</time>
      </trkpt>
      <trkpt lat="43.59813" lon="3.81176">
        <ele>44.2</ele>
        <time>2021-01-09T14:21:11Z</time>
      </trkpt>
      <trkpt lat="43.59813" lon="3.81173">
        <ele>44.3</ele>
        <time>2021-01-09T14:21:12Z</time>
      </trkpt>
      <trkpt lat="43.59814" lon="3.81169">
        <ele>44.6</ele>
        <time>2021-01-09T14:21:13Z</time>
      </trkpt>
      <trkpt lat="43.59815" lon="3.81165">
        <ele>44.7</ele>
        <time>2021-01-09T14:21:14Z</time>
      </trkpt>
      <trkpt lat="43.59817" lon="3.81162">
        <ele>45</ele>
        <time>2021-01-09T14:21:15Z</time>
      </trkpt>
      <trkpt lat="43.59818" lon="3.81158">
        <ele>44.7</ele>
        <time>2021-01-09T14:21:16Z</time>
      </trkpt>
      <trkpt lat="43.5982" lon="3.81155">
        <ele>44.7</ele>
        <time>2021-01-09T14:21:17Z</time>
      </trkpt>
      <trkpt lat="43.59821" lon="3.81151">
        <ele>44.7</ele>
        <time>2021-01-09T14:21:18Z</time>
      </trkpt>
      <trkpt lat="43.59823" lon="3.81148">
        <ele>44.6</ele>
        <time>2021-01-09T14:21:19Z</time>
      </trkpt>
      <trkpt lat="43.59824" lon="3.81145">
        <ele>44.6</ele>
        <time>2021-01-09T14:21:20Z</time>
      </trkpt>
      <trkpt lat="43.59826" lon="3.81142">
        <ele>44.5</ele>
        <time>2021-01-09T14:21:21Z</time>
      </trkpt>
      <trkpt lat="43.59828" lon="3.8114">
        <ele>44.4</ele>
        <time>2021-01-09T14:21:22Z</time>
      </trkpt>
      <trkpt lat="43.59831" lon="3.81138">
        <ele>44.1</ele>
        <time>2021-01-09T14:21:23Z</time>
      </trkpt>
      <trkpt lat="43.59834" lon="3.81139">
        <ele>44</ele>
        <time>2021-01-09T14:21:24Z</time>
      </trkpt>
      <trkpt lat="43.59837" lon="3.81142">
        <ele>45</ele>
        <time>2021-01-09T14:21:25Z</time>
      </trkpt>
      <trkpt lat="43.59839" lon="3.81146">
        <ele>43.6</ele>
        <time>2021-01-09T14:21:26Z</time>
      </trkpt>
      <trkpt lat="43.59842" lon="3.8115">
        <ele>43.4</ele>
        <time>2021-01-09T14:21:27Z</time>
      </trkpt>
      <trkpt lat="43.59844" lon="3.81154">
        <ele>43.2</ele>
        <time>2021-01-09T14:21:28Z</time>
      </trkpt>
      <trkpt lat="43.59846" lon="3.81158">
        <ele>43.1</ele>
        <time>2021-01-09T14:21:29Z</time>
      </trkpt>
      <trkpt lat="43.59849" lon="3.81163">
        <ele>42.9</ele>
        <time>2021-01-09T14:21:30Z</time>
      </trkpt>
      <trkpt lat="43.59851" lon="3.81167">
        <ele>42.7</ele>
        <time>2021-01-09T14:21:31Z</time>
      </trkpt>
      <trkpt lat="43.59854" lon="3.81171">
        <ele>42.5</ele>
        <time>2021-01-09T14:21:32Z</time>
      </trkpt>
      <trkpt lat="43.59856" lon="3.81175">
        <ele>42.3</ele>
        <time>2021-01-09T14:21:33Z</time>
      </trkpt>
      <trkpt lat="43.59859" lon="3.81179">
        <ele>42.1</ele>
        <time>2021-01-09T14:21:34Z</time>
      </trkpt>
      <trkpt lat="43.59862" lon="3.81183">
        <ele>44</ele>
        <time>2021-01-09T14:21:35Z</time>
      </trkpt>
      <trkpt lat="43.59865" lon="3.81187">
        <ele>41.8</ele>
        <time>2021-01-09T14:21:36Z</time>
      </trkpt>
      <trkpt lat="43.59868" lon="3.81191">
        <ele>41.5</ele>
        <time>2021-01-09T14:21:37Z</time>
      </trkpt>
      <trkpt lat="43.59871" lon="3.81194">
        <ele>41.3</ele>
        <time>2021-01-09T14:21:38Z</time>
      </trkpt>
      <trkpt lat="43.59874" lon="3.81198">
        <ele>40.9</ele>
        <time>2021-01-09T14:21:39Z</time>
      </trkpt>
      <trkpt lat="43.59878" lon="3.81201">
        <ele>40.5</ele>
        <time>2021-01-09T14:21:40Z</time>
      </trkpt>
      <trkpt lat="43.59881" lon="3.81204">
        <ele>40.2</ele>
        <time>2021-01-09T14:21:41Z</time>
      </trkpt>
      <trkpt lat="43.59885" lon="3.81208">
        <ele>39.8</ele>
        <time>2021-01-09T14:21:42Z</time>
      </trkpt>
      <trkpt lat="43.59889" lon="3.81211">
        <ele>39.4</ele>
        <time>2021-01-09T14:21:43Z</time>
      </trkpt>
      <trkpt lat="43.59893" lon="3.81215">
        <ele>39.1</ele>
        <time>2021-01-09T14:21:44Z</time>
      </trkpt>
      <trkpt lat="43.59896" lon="3.81218">
        <ele>42</ele>
        <time>2021-01-09T14:21:45Z</time>
      </trkpt>
      <trkpt lat="43.599" lon="3.81221">
        <ele>38.6</ele>
        <time>2021-01-09T14:21:46Z</time>
      </trkpt>
      <trkpt lat="43.59904" lon="3.81225">
        <ele>38.5</ele>
        <time>2021-01-09T14:21:47Z</time>
      </trkpt>
      <trkpt lat="43.59908" lon="3.81228">
        <ele>38.3</ele>
        <time>2021-01-09T14:21:48Z</time>
      </trkpt>
      <trkpt lat="43.59912" lon="3.81232">
        <ele>38.2</ele>
        <time>2021-01-09T14:21:49Z</time>
      </trkpt>
      <trkpt lat="43.59916" lon="3.81235">
        <ele>38</ele>
        <time>2021-01-09T14:21:50Z</time>
      </trkpt>
      <trkpt lat="43.59921" lon="3.81238">
        <ele>37.5</ele>
        <time>2021-01-09T14:21:51Z</time>
      </trkpt>
      <trkpt lat="43.59925" lon="3.81241">
        <ele>37.1</ele>
        <time>2021-01-09T14:21:52Z</time>
      </trkpt>
      <trkpt lat="43.59929" lon="3.81244">
        <ele>36.7</ele>
        <time>2021-01-09T14:21:53Z</time>
      </trkpt>
      <trkpt lat="43.59934" lon="3.81248">
        <ele>36.1</ele>
        <time>2021-01-09T14:21:54Z</time>
      </trkpt>
      <trkpt lat="43.59939" lon="3.81251">
        <ele>40</ele>
        <time>2021-01-09T14:21:55Z</time>
      </trkpt>
      <trkpt lat="43.59944" lon="3.81255">
        <ele>35.2</ele>
        <time>2021-01-09T14:21:56Z</time>
      </trkpt>
      <trkpt lat="43.59949" lon="3.81259">
        <ele>34.9</ele>
        <time>2021-01-09T14:21:57Z</time>
      </trkpt>
      <trkpt lat="43.59954" lon="3.81264">
        <ele>34.6</ele>
        <time>2021-01-09T14:21:58Z</time>
      </trkpt>
      <trkpt lat="43.59959" lon="3.81269">
        <ele>34.3</ele>
        <time>2021-01-09T14:21:59Z</time>
      </trkpt>
      <trkpt lat="43.59964" lon="3.81274">
        <ele>33.8</ele>
        <time>2021-01-09T14:22:00Z</time>
      </trkpt>
      <trkpt lat="43.59968" lon="3.81279">
        <ele>33.4</ele>
        <time>2021-01-09T14:22:01Z</time>
      </trkpt>
      <trkpt lat="43.59973" lon="3.81285">
        <ele>33</ele>
        <time>2021-01-09T14:22:02Z</time>
      </trkpt>
      <trkpt lat="43.59977" lon="3.8129">
        <ele>32.8</ele>
        <time>2021-01-09T14:22:03Z</time>
      </trkpt>
      <trkpt lat="43.59981" lon="3.81296">
        <ele>32.5</ele>
        <time>2021-01-09T14:22:04Z</time>
      </trkpt>
      <trkpt lat="43.59989" lon="3.81306">
        <ele>38</ele>
        <time>2021-01-09T14:22:05Z</time>
      </trkpt>
      <trkpt lat="43.59993" lon="3.81312">
        <ele>31.4</ele>
        <time>2021-01-09T14:22:06Z</time>
      </trkpt>
      <trkpt lat="43.59997" lon="3.81317">
        <ele>31.2</ele>
        <time>2021-01-09T14:22:08Z</time>
      </trkpt>
      <trkpt lat="43.60004" lon="3.81328">
        <ele>30.9</ele>
        <time>2021-01-09T14:22:09Z</time>
      </trkpt>
      <trkpt lat="43.60008" lon="3.81333">
        <ele>30.7</ele>
        <time>2021-01-09T14:22:10Z</time>
      </trkpt>
      <trkpt lat="43.60011" lon="3.81336">
        <ele>30.5</ele>
        <time>2021-01-09T14:22:11Z</time>
      </trkpt>
      <trkpt lat="43.60015" lon="3.8134">
        <ele>30.2</ele>
        <time>2021-01-09T14:22:12Z</time>
      </trkpt>
      <trkpt lat="43.60017" lon="3.81344">
        <ele>30.1</ele>
        <time>2021-01-09T14:22:14Z</time>
      </trkpt>
      <trkpt lat="43.60019" lon="3.81349">
        <ele>35</ele>
        <time>2021-01-09T14:22:15Z</time>
      </trkpt>
      <trkpt lat="43.60022" lon="3.81354">
        <ele>29.9</ele>
        <time>2021-01-09T14:22:16Z</time>
      </trkpt>
      <trkpt lat="43.60024" lon="3.81358">
        <ele>29.9</ele>
        <time>2021-01-09T14:22:17Z</time>
      </trkpt>
      <trkpt lat="43.60027" lon="3.81363">
        <ele>29.9</ele>
        <time>2021-01-09T14:22:18Z</time>
      </trkpt>
      <trkpt lat="43.60029" lon="3.81366">
        <ele>29.8</ele>
        <time>2021-01-09T14:22:19Z</time>
      </trkpt>
      <trkpt lat="43.60032" lon="3.81369">
        <ele>29.8</ele>
        <time>2021-01-09T14:22:20Z</time>
      </trkpt>
      <trkpt lat="43.60034" lon="3.81372">
        <ele>29.7</ele>
        <time>2021-01-09T14:22:21Z</time>
      </trkpt>
      <trkpt lat="43.60036" lon="3.81374">
        <ele>29.7</ele>
        <time>2021-01-09T14:22:22Z</time>
      </trkpt>
      <trkpt lat="43.60038" lon="3.81376">
        <ele>29.7</ele>
        <time>2021-01-09T14:22:23Z</time>
      </trkpt>
      <trkpt lat="43.60038" lon="3.8138">
        <ele>29.6</ele>
        <time>2021-01-09T14:22:24Z</time>
      </trkpt>
      <trkpt lat="43.60038" lon="3.81384">
        <ele>34</ele>
        <time>2021-01-09T14:22:25Z</time>
      </trkpt>
      <trkpt lat="43.60038" lon="3.81388">
        <ele>29.4</ele>
        <time>2021-01-09T14:22:26Z</time>
      </trkpt>
      <trkpt lat="43.60037" lon="3.81394">
        <ele>29.3</ele>
        <time>2021-01-09T14:22:27Z</time>
      </trkpt>
      <trkpt lat="43.60035" lon="3.814">
        <ele>29.3</ele>
        <time>2021-01-09T14:22:28Z</time>
      </trkpt>
      <trkpt lat="43.60034" lon="3.81407">
        <ele>29.2</ele>
        <time>2021-01-09T14:22:29Z</time>
      </trkpt>
      <trkpt lat="43.60032" lon="3.81413">
        <ele>29.2</ele>
        <time>2021-01-09T14:22:30Z</time>
      </trkpt>
      <trkpt lat="43.6003" lon="3.8142">
        <ele>29.1</ele>
        <time>2021-01-09T14:22:31Z</time>
      </trkpt>
      <trkpt lat="43.60028" lon="3.81426">
        <ele>29</ele>
        <time>2021-01-09T14:22:32Z</time>
      </trkpt>
      <trkpt lat="43.60026" lon="3.81433">
        <ele>29</ele>
        <time>2021-01-09T14:22:33Z</time>
      </trkpt>
      <trkpt lat="43.60024" lon="3.81439">
        <ele>29</ele>
        <time>2021-01-09T14:22:34Z</time>
      </trkpt>
      <trkpt lat="43.60022" lon="3.81445">
        <ele>33</ele>
        <time>2021-01-09T14:22:35Z</time>
      </trkpt>
      <trkpt lat="43.6002" lon="3.81451">
        <ele>29</ele>
        <time>2021-01-09T14:22:36Z</time>
      </trkpt>
      <trkpt lat="43.60018" lon="3.81457">
        <ele>29</ele>
        <time>2021-01-09T14:22:37Z</time>
      </trkpt>
      <trkpt lat="43.60016" lon="3.81463">
        <ele>29</ele>
        <time>2021-01-09T14:22:38Z</time>
      </trkpt>
      <trkpt lat="43.60014" lon="3.81468">
        <ele>29</ele>
        <time>2021-01-09T14:22:39Z</time>
      </trkpt>
      <trkpt lat="43.60012" lon="3.81474">
        <ele>29</ele>
        <time>2021-01-09T14:22:40Z</time>
      </trkpt>
      <trkpt lat="43.6001" lon="3.8148">
        <ele>28.9</ele>
        <time>2021-01-09T14:22:41Z</time>
      </trkpt>
      <trkpt lat="43.60009" lon="3.81485">
        <ele>28.9</ele>
        <time>2021-01-09T14:22:42Z</time>
      </trkpt>
      <trkpt lat="43.60008" lon="3.81489">
        <ele>28.8</ele>
        <time>2021-01-09T14:22:43Z</time>
      </trkpt>
      <trkpt lat="43.6001" lon="3.81493">
        <ele>28.7</ele>
        <time>2021-01-09T14:22:44Z</time>
      </trkpt>
      <trkpt lat="43.60012" lon="3.81496">
        <ele>32</ele>
        <time>2021-01-09T14:22:45Z</time>
      </trkpt>
      <trkpt lat="43.60016" lon="3.81499">
        <ele>28.4</ele>
        <time>2021-01-09T14:22:46Z</time>
      </trkpt>
      <trkpt lat="43.6002" lon="3.81502">
        <ele>28.3</ele>
        <time>2021-01-09T14:22:47Z</time>
      </trkpt>
      <trkpt lat="43.60024" lon="3.81503">
        <ele>28.1</ele>
        <time>2021-01-09T14:22:48Z</time>
      </trkpt>
      <trkpt lat="43.60028" lon="3.81504">
        <ele>28</ele>
        <time>2021-01-09T14:22:49Z</time>
      </trkpt>
      <trkpt lat="43.60033" lon="3.81504">
        <ele>28.2</ele>
        <time>2021-01-09T14:22:50Z</time>
      </trkpt>
      <trkpt lat="43.60038" lon="3.81503">
        <ele>28.3</ele>
        <time>2021-01-09T14:22:51Z</time>
      </trkpt>
      <trkpt lat="43.60042" lon="3.81502">
        <ele>28.5</ele>
        <time>2021-01-09T14:22:52Z</time>
      </trkpt>
      <trkpt lat="43.60047" lon="3.81502">
        <ele>28.6</ele>
        <time>2021-01-09T14:22:53Z</time>
      </trkpt>
      <trkpt lat="43.60052" lon="3.81501">
        <ele>28.8</ele>
        <time>2021-01-09T14:22:54Z</time>
      </trkpt>
      <trkpt lat="43.60057" lon="3.815">
        <ele>31</ele>
        <time>2021-01-09T14:22:55Z</time>
      </trkpt>
      <trkpt lat="43.60062" lon="3.81499">
        <ele>29</ele>
        <time>2021-01-09T14:22:56Z</time>
      </trkpt>
      <trkpt lat="43.60066" lon="3.81499">
        <ele>29</ele>
        <time>2021-01-09T14:22:57Z</time>
      </trkpt>
      <trkpt lat="43.60071" lon="3.81498">
        <ele>29</ele>
        <time>2021-01-09T14:22:58Z</time>
      </trkpt>
      <trkpt lat="43.60076" lon="3.81498">
        <ele>29</ele>
        <time>2021-01-09T14:22:59Z</time>
      </trkpt>
      <trkpt lat="43.6008" lon="3.81498">
        <ele>29</ele>
        <time>2021-01-09T14:23:00Z</time>
      </trkpt>
      <trkpt lat="43.60085" lon="3.81498">
        <ele>29.1</ele>
        <time>2021-01-09T14:23:01Z</time>
      </trkpt>
      <trkpt lat="43.6009" lon="3.81499">
        <ele>29.2</ele>
        <time>2021-01-09T14:23:02Z</time>
      </trkpt>
      <trkpt lat="43.60094" lon="3.81499">
        <ele>29.4</ele>
        <time>2021-01-09T14:23:03Z</time>
      </trkpt>
      <trkpt lat="43.60099" lon="3.81499">
        <ele>29.6</ele>
        <time>2021-01-09T14:23:04Z</time>
      </trkpt>
      <trkpt lat="43.60103" lon="3.815">
        <ele>31</ele>
        <time>2021-01-09T14:23:05Z</time>
      </trkpt>
      <trkpt lat="43.60108" lon="3.81501">
        <ele>29.8</ele>
        <time>2021-01-09T14:23:06Z</time>
      </trkpt>
      <trkpt lat="43.60112" lon="3.81501">
        <ele>29.9</ele>
        <time>2021-01-09T14:23:07Z</time>
      </trkpt>
      <trkpt lat="43.60116" lon="3.81502">
        <ele>29.9</ele>
        <time>2021-01-09T14:23:08Z</time>
      </trkpt>
      <trkpt lat="43.60121" lon="3.81503">
        <ele>29.8</ele>
        <time>2021-01-09T14:23:09Z</time>
      </trkpt>
      <trkpt lat="43.60125" lon="3.81503">
        <ele>29.8</ele>
        <time>2021-01-09T14:23:10Z</time>
      </trkpt>
      <trkpt lat="43.6013" lon="3.81504">
        <ele>29.7</ele>
        <time>2021-01-09T14:23:11Z</time>
      </trkpt>
      <trkpt lat="43.60134" lon="3.81504">
        <ele>29.7</ele>
        <time>2021-01-09T14:23:12Z</time>
      </trkpt>
      <trkpt lat="43.60138" lon="3.81504">
        <ele>29.7</ele>
        <time>2021-01-09T14:23:13Z</time>
      </trkpt>
      <trkpt lat="43.60142" lon="3.81503">
        <ele>29.8</ele>
        <time>2021-01-09T14:23:14Z</time>
      </trkpt>
      <trkpt lat="43.60151" lon="3.81502">
        <ele>31</ele>
        <time>2021-01-09T14:23:15Z</time>
      </trkpt>
      <trkpt lat="43.60155" lon="3.81501">
        <ele>29.9</ele>
        <time>2021-01-09T14:23:17Z</time>
      </trkpt>
      <trkpt lat="43.60159" lon="3.81501">
        <ele>29.9</ele>
        <time>2021-01-09T14:23:18Z</time>
      </trkpt>
      <trkpt lat="43.60163" lon="3.815">
        <ele>30</ele>
        <time>2021-01-09T14:23:19Z</time>
      </trkpt>
      <trkpt lat="43.60167" lon="3.81499">
        <ele>30</ele>
        <time>2021-01-09T14:23:20Z</time>
      </trkpt>
      <trkpt lat="43.60172" lon="3.81499">
        <ele>30</ele>
        <time>2021-01-09T14:23:21Z</time>
      </trkpt>
      <trkpt lat="43.60176" lon="3.81498">
        <ele>30.1</ele>
        <time>2021-01-09T14:23:22Z</time>
      </trkpt>
      <trkpt lat="43.6018" lon="3.81497">
        <ele>30.1</ele>
        <time>2021-01-09T14:23:23Z</time>
      </trkpt>
      <trkpt lat="43.60184" lon="3.81497">
        <ele>30.1</ele>
        <time>2021-01-09T14:23:24Z</time>
      </trkpt>
      <trkpt lat="43.60189" lon="3.81496">
        <ele>31</ele>
        <time>2021-01-09T14:23:25Z</time>
      </trkpt>
      <trkpt lat="43.60193" lon="3.81495">
        <ele>30.2</ele>
        <time>2021-01-09T14:23:26Z</time>
      </trkpt>
      <trkpt lat="43.60197" lon="3.81493">
        <ele>30.3</ele>
        <time>2021-01-09T14:23:27Z</time>
      </trkpt>
      <trkpt lat="43.602" lon="3.81492">
        <ele>30.3</ele>
        <time>2021-01-09T14:23:28Z</time>
      </trkpt>
      <trkpt lat="43.60204" lon="3.81489">
        <ele>30.4</ele>
        <time>2021-01-09T14:23:29Z</time>
      </trkpt>
      <trkpt lat="43.60206" lon="3.81486">
        <ele>30.5</ele>
        <time>2021-01-09T14:23:30Z</time>
      </trkpt>
      <trkpt lat="43.6021" lon="3.81483">
        <ele>30.6</ele>
        <time>2021-01-09T14:23:31Z</time>
      </trkpt>
      <trkpt lat="43.60214" lon="3.81482">
        <ele>30.6</ele>
        <time>2021-01-09T14:23:32Z</time>
      </trkpt>
      <trkpt lat="43.60218" lon="3.81482">
        <ele>30.6</ele>
        <time>2021-01-09T14:23:33Z</time>
      </trkpt>
      <trkpt lat="43.60222" lon="3.81483">
        <ele>30.6</ele>
        <time>2021-01-09T14:23:34Z</time>
      </trkpt>
      <trkpt lat="43.60226" lon="3.81484">
        <ele>32</ele>
        <time>2021-01-09T14:23:35Z</time>
      </trkpt>
      <trkpt lat="43.60229" lon="3.81485">
        <ele>30.7</ele>
        <time>2021-01-09T14:23:36Z</time>
      </trkpt>
      <trkpt lat="43.60233" lon="3.81487">
        <ele>30.7</ele>
        <time>2021-01-09T14:23:37Z</time>
      </trkpt>
      <trkpt lat="43.60237" lon="3.81489">
        <ele>30.7</ele>
        <time>2021-01-09T14:23:38Z</time>
      </trkpt>
      <trkpt lat="43.6024" lon="3.81491">
        <ele>30.8</ele>
        <time>2021-01-09T14:23:39Z</time>
      </trkpt>
      <trkpt lat="43.60244" lon="3.81493">
        <ele>30.8</ele>
        <time>2021-01-09T14:23:40Z</time>
      </trkpt>
      <trkpt lat="43.60248" lon="3.81495">
        <ele>30.9</ele>
        <time>2021-01-09T14:23:41Z</time>
      </trkpt>
      <trkpt lat="43.60251" lon="3.81497">
        <ele>31</ele>
        <time>2021-01-09T14:23:42Z</time>
      </trkpt>
      <trkpt lat="43.60255" lon="3.81499">
        <ele>31</ele>
        <time>2021-01-09T14:23:43Z</time>
      </trkpt>
      <trkpt lat="43.60258" lon="3.81502">
        <ele>30.8</ele>
        <time>2021-01-09T14:23:44Z</time>
      </trkpt>
      <trkpt lat="43.60262" lon="3.81504">
        <ele>32</ele>
        <time>2021-01-09T14:23:45Z</time>
      </trkpt>
      <trkpt lat="43.60265" lon="3.81507">
        <ele>30.4</ele>
        <time>2021-01-09T14:23:46Z</time>
      </trkpt>
      <trkpt lat="43.60269" lon="3.81509">
        <ele>30.2</ele>
        <time>2021-01-09T14:23:47Z</time>
      </trkpt>
      <trkpt lat="43.60273" lon="3.81511">
        <ele>30.1</ele>
        <time>2021-01-09T14:23:48Z</time>
      </trkpt>
      <trkpt lat="43.60276" lon="3.81512">
        <ele>30.1</ele>
        <time>2021-01-09T14:23:49Z</time>
      </trkpt>
      <trkpt lat="43.6028" lon="3.81514">
        <ele>30</ele>
        <time>2021-01-09T14:23:50Z</time>
      </trkpt>
      <trkpt lat="43.60284" lon="3.81516">
        <ele>29.8</ele>
        <time>2021-01-09T14:23:51Z</time>
      </trkpt>
      <trkpt lat="43.60288" lon="3.81518">
        <ele>29.6</ele>
        <time>2021-01-09T14:23:52Z</time>
      </trkpt>
      <trkpt lat="43.60291" lon="3.8152">
        <ele>29.4</ele>
        <time>2021-01-09T14:23:53Z</time>
      </trkpt>
      <trkpt lat="43.60294" lon="3.81522">
        <ele>29.3</ele>
        <time>2021-01-09T14:23:54Z</time>
      </trkpt>
      <trkpt lat="43.60295" lon="3.81526">
        <ele>31</ele>
        <time>2021-01-09T14:23:55Z</time>
      </trkpt>
      <trkpt lat="43.60295" lon="3.81529">
        <ele>29</ele>
        <time>2021-01-09T14:23:56Z</time>
      </trkpt>
      <trkpt lat="43.60292" lon="3.81532">
        <ele>28.8</ele>
        <time>2021-01-09T14:23:57Z</time>
      </trkpt>
      <trkpt lat="43.60288" lon="3.81535">
        <ele>28.7</ele>
        <time>2021-01-09T14:23:58Z</time>
      </trkpt>
      <trkpt lat="43.60284" lon="3.81537">
        <ele>28.7</ele>
        <time>2021-01-09T14:23:59Z</time>
      </trkpt>
      <trkpt lat="43.6028" lon="3.81541">
        <ele>28.5</ele>
        <time>2021-01-09T14:24:00Z</time>
      </trkpt>
      <trkpt lat="43.60277" lon="3.81545">
        <ele>28.4</ele>
        <time>2021-01-09T14:24:01Z</time>
      </trkpt>
      <trkpt lat="43.60275" lon="3.81551">
        <ele>28.1</ele>
        <time>2021-01-09T14:24:02Z</time>
      </trkpt>
      <trkpt lat="43.60273" lon="3.81557">
        <ele>27.8</ele>
        <time>2021-01-09T14:24:03Z</time>
      </trkpt>
      <trkpt lat="43.60272" lon="3.81562">
        <ele>27.8</ele>
        <time>2021-01-09T14:24:04Z</time>
      </trkpt>
      <trkpt lat="43.60271" lon="3.81568">
        <ele>31</ele>
        <time>2021-01-09T14:24:05Z</time>
      </trkpt>
      <trkpt lat="43.6027" lon="3.81574">
        <ele>27.9</ele>
        <time>2021-01-09T14:24:06Z</time>
      </trkpt>
      <trkpt lat="43.60269" lon="3.81579">
        <ele>28</ele>
        <time>2021-01-09T14:24:07Z</time>
      </trkpt>
      <trkpt lat="43.60267" lon="3.81585">
        <ele>28</ele>
        <time>2021-01-09T14:24:08Z</time>
      </trkpt>
      <trkpt lat="43.60266" lon="3.8159">
        <ele>28</ele>
        <time>2021-01-09T14:24:09Z</time>
      </trkpt>
      <trkpt lat="43.60266" lon="3.81596">
        <ele>28</ele>
        <time>2021-01-09T14:24:10Z</time>
      </trkpt>
      <trkpt lat="43.60265" lon="3.81601">
        <ele>28</ele>
        <time>2021-01-09T14:24:11Z</time>
      </trkpt>
      <trkpt lat="43.60264" lon="3.81606">
        <ele>28</ele>
        <time>2021-01-09T14:24:12Z</time>
      </trkpt>
      <trkpt lat="43.60265" lon="3.8161">
        <ele>28</ele>
        <time>2021-01-09T14:24:13Z</time>
      </trkpt>
      <trkpt lat="43.60267" lon="3.81613">
        <ele>27.8</ele>
        <time>2021-01-09T14:24:14Z</time>
      </trkpt>
      <trkpt lat="43.60269" lon="3.81617">
        <ele>31</ele>
        <time>2021-01-09T14:24:15Z</time>
      </trkpt>
      <trkpt lat="43.60272" lon="3.81619">
        <ele>27.1</ele>
        <time>2021-01-09T14:24:16Z</time>
      </trkpt>
      <trkpt lat="43.60275" lon="3.81622">
        <ele>26.8</ele>
        <time>2021-01-09T14:24:17Z</time>
      </trkpt>
      <trkpt lat="43.60279" lon="3.81623">
        <ele>26.8</ele>
        <time>2021-01-09T14:24:18Z</time>
      </trkpt>
      <trkpt lat="43.60283" lon="3.81625">
        <ele>26.8</ele>
        <time>2021-01-09T14:24:19Z</time>
      </trkpt>
      <trkpt lat="43.60287" lon="3.81626">
        <ele>26.9</ele>
        <time>2021-01-09T14:24:20Z</time>
      </trkpt>
      <trkpt lat="43.6029" lon="3.81627">
        <ele>27</ele>
        <time>2021-01-09T14:24:21Z</time>
      </trkpt>
      <trkpt lat="43.60294" lon="3.81629">
        <ele>27.2</ele>
        <time>2021-01-09T14:24:22Z</time>
      </trkpt>
      <trkpt lat="43.60297" lon="3.81631">
        <ele>27.3</ele>
        <time>2021-01-09T14:24:23Z</time>
      </trkpt>
      <trkpt lat="43.603" lon="3.81632">
        <ele>27.5</ele>
        <time>2021-01-09T14:24:24Z</time>
      </trkpt>
      <trkpt lat="43.60304" lon="3.81635">
        <ele>32</ele>
        <time>2021-01-09T14:24:25Z</time>
      </trkpt>
      <trkpt lat="43.60307" lon="3.81637">
        <ele>28</ele>
        <time>2021-01-09T14:24:26Z</time>
      </trkpt>
      <trkpt lat="43.6031" lon="3.81641">
        <ele>27.8</ele>
        <time>2021-01-09T14:24:27Z</time>
      </trkpt>
      <trkpt lat="43.60312" lon="3.81644">
        <ele>27.6</ele>
        <time>2021-01-09T14:24:28Z</time>
      </trkpt>
      <trkpt lat="43.60315" lon="3.81648">
        <ele>27.4</ele>
        <time>2021-01-09T14:24:29Z</time>
      </trkpt>
      <trkpt lat="43.60317" lon="3.81652">
        <ele>27.2</ele>
        <time>2021-01-09T14:24:30Z</time>
      </trkpt>
      <trkpt lat="43.6032" lon="3.81655">
        <ele>27.2</ele>
        <time>2021-01-09T14:24:31Z</time>
      </trkpt>
      <trkpt lat="43.60324" lon="3.81659">
        <ele>27.3</ele>
        <time>2021-01-09T14:24:32Z</time>
      </trkpt>
      <trkpt lat="43.60327" lon="3.81661">
        <ele>27.5</ele>
        <time>2021-01-09T14:24:33Z</time>
      </trkpt>
      <trkpt lat="43.60331" lon="3.81662">
        <ele>27.8</ele>
        <time>2021-01-09T14:24:34Z</time>
      </trkpt>
      <trkpt lat="43.60334" lon="3.81664">
        <ele>32</ele>
        <time>2021-01-09T14:24:35Z</time>
      </trkpt>
      <trkpt lat="43.60337" lon="3.81665">
        <ele>28</ele>
        <time>2021-01-09T14:24:36Z</time>
      </trkpt>
      <trkpt lat="43.6034" lon="3.81664">
        <ele>28</ele>
        <time>2021-01-09T14:24:37Z</time>
      </trkpt>
      <trkpt lat="43.60343" lon="3.81662">
        <ele>28</ele>
        <time>2021-01-09T14:24:38Z</time>
      </trkpt>
      <trkpt lat="43.60345" lon="3.81659">
        <ele>28</ele>
        <time>2021-01-09T14:24:39Z</time>
      </trkpt>
      <trkpt lat="43.60348" lon="3.81656">
        <ele>28</ele>
        <time>2021-01-09T14:24:40Z</time>
      </trkpt>
      <trkpt lat="43.60351" lon="3.81654">
        <ele>28</ele>
        <time>2021-01-09T14:24:41Z</time>
      </trkpt>
      <trkpt lat="43.60355" lon="3.81654">
        <ele>28</ele>
        <time>2021-01-09T14:24:42Z</time>
      </trkpt>
      <trkpt lat="43.60358" lon="3.81655">
        <ele>28</ele>
        <time>2021-01-09T14:24:43Z</time>
      </trkpt>
      <trkpt lat="43.60362" lon="3.81657">
        <ele>28</ele>
        <time>2021-01-09T14:24:44Z</time>
      </trkpt>
      <trkpt lat="43.60365" lon="3.8166">
        <ele>32</ele>
        <time>2021-01-09T14:24:45Z</time>
      </trkpt>
      <trkpt lat="43.60368" lon="3.81663">
        <ele>28</ele>
        <time>2021-01-09T14:24:46Z</time>
      </trkpt>
      <trkpt lat="43.6037" lon="3.81667">
        <ele>28</ele>
        <time>2021-01-09T14:24:47Z</time>
      </trkpt>
      <trkpt lat="43.60373" lon="3.81671">
        <ele>28</ele>
        <time>2021-01-09T14:24:48Z</time>
      </trkpt>
      <trkpt lat="43.60376" lon="3.81675">
        <ele>28</ele>
        <time>2021-01-09T14:24:49Z</time>
      </trkpt>
      <trkpt lat="43.60379" lon="3.81678">
        <ele>28</ele>
        <time>2021-01-09T14:24:50Z</time>
      </trkpt>
      <trkpt lat="43.60382" lon="3.81682">
        <ele>28</ele>
        <time>2021-01-09T14:24:51Z</time>
      </trkpt>
      <trkpt lat="43.60384" lon="3.81685">
        <ele>28</ele>
        <time>2021-01-09T14:24:52Z</time>
      </trkpt>
      <trkpt lat="43.60387" lon="3.81687">
        <ele>28</ele>
        <time>2021-01-09T14:24:53Z</time>
      </trkpt>
      <trkpt lat="43.6039" lon="3.81687">
        <ele>28</ele>
        <time>2021-01-09T14:24:54Z</time>
      </trkpt>
      <trkpt lat="43.60392" lon="3.81686">
        <ele>32</ele>
        <time>2021-01-09T14:24:55Z</time>
      </trkpt>
      <trkpt lat="43.60395" lon="3.81683">
        <ele>28</ele>
        <time>2021-01-09T14:24:56Z</time>
      </trkpt>
      <trkpt lat="43.60397" lon="3.81679">
        <ele>28</ele>
        <time>2021-01-09T14:24:57Z</time>
      </trkpt>
      <trkpt lat="43.604" lon="3.81676">
        <ele>28</ele>
        <time>2021-01-09T14:24:58Z</time>
      </trkpt>
      <trkpt lat="43.60403" lon="3.81672">
        <ele>28</ele>
        <time>2021-01-09T14:24:59Z</time>
      </trkpt>
      <trkpt lat="43.60406" lon="3.81668">
        <ele>28</ele>
        <time>2021-01-09T14:25:00Z</time>
      </trkpt>
      <trkpt lat="43.60408" lon="3.81665">
        <ele>28</ele>
        <time>2021-01-09T14:25:01Z</time>
      </trkpt>
      <trkpt lat="43.6041" lon="3.81661">
        <ele>28</ele>
        <time>2021-01-09T14:25:02Z</time>
      </trkpt>
      <trkpt lat="43.60413" lon="3.81657">
        <ele>28</ele>
        <time>2021-01-09T14:25:03Z</time>
      </trkpt>
      <trkpt lat="43.60415" lon="3.81654">
        <ele>28</ele>
        <time>2021-01-09T14:25:04Z</time>
      </trkpt>
      <trkpt lat="43.60417" lon="3.8165">
        <ele>31</ele>
        <time>2021-01-09T14:25:05Z</time>
      </trkpt>
      <trkpt lat="43.60419" lon="3.81647">
        <ele>28.1</ele>
        <time>2021-01-09T14:25:06Z</time>
      </trkpt>
      <trkpt lat="43.60422" lon="3.81644">
        <ele>28.2</ele>
        <time>2021-01-09T14:25:07Z</time>
      </trkpt>
      <trkpt lat="43.60424" lon="3.81641">
        <ele>28.3</ele>
        <time>2021-01-09T14:25:08Z</time>
      </trkpt>
      <trkpt lat="43.60426" lon="3.81638">
        <ele>28.3</ele>
        <time>2021-01-09T14:25:09Z</time>
      </trkpt>
      <trkpt lat="43.60427" lon="3.81636">
        <ele>28.4</ele>
        <time>2021-01-09T14:25:11Z</time>
      </trkpt>
      <trkpt lat="43.60432" lon="3.81618">
        <ele>32</ele>
        <time>2021-01-09T14:25:32Z</time>
      </trkpt>
      <trkpt lat="43.60433" lon="3.81614">
        <ele>28.6</ele>
        <time>2021-01-09T14:25:33Z</time>
      </trkpt>
      <trkpt lat="43.60435" lon="3.8161">
        <ele>28.7</ele>
        <time>2021-01-09T14:25:34Z</time>
      </trkpt>
      <trkpt lat="43.60436" lon="3.81605">
        <ele>28.9</ele>
        <time>2021-01-09T14:25:35Z</time>
      </trkpt>
      <trkpt lat="43.60438" lon="3.81601">
        <ele>29.1</ele>
        <time>2021-01-09T14:25:36Z</time>
      </trkpt>
      <trkpt lat="43.60439" lon="3.81597">
        <ele>29.3</ele>
        <time>2021-01-09T14:25:37Z</time>
      </trkpt>
      <trkpt lat="43.60441" lon="3.81593">
        <ele>29.5</ele>
        <time>2021-01-09T14:25:38Z</time>
      </trkpt>
      <trkpt lat="43.60442" lon="3.81589">
        <ele>29.7</ele>
        <time>2021-01-09T14:25:39Z</time>
      </trkpt>
      <trkpt lat="43.60444" lon="3.81585">
        <ele>29.9</ele>
        <time>2021-01-09T14:25:40Z</time>
      </trkpt>
      <trkpt lat="43.60445" lon="3.81582">
        <ele>30</ele>
        <time>2021-01-09T14:25:41Z</time>
      </trkpt>
      <trkpt lat="43.60447" lon="3.81578">
        <ele>33</ele>
        <time>2021-01-09T14:25:42Z</time>
      </trkpt>
      <trkpt lat="43.60448" lon="3.81574">
        <ele>30.2</ele>
        <time>2021-01-09T14:25:43Z</time>
      </trkpt>
      <trkpt lat="43.6045" lon="3.81569">
        <ele>30.3</ele>
        <time>2021-01-09T14:25:44Z</time>
      </trkpt>
      <trkpt lat="43.60451" lon="3.81565">
        <ele>30.4</ele>
        <time>2021-01-09T14:25:45Z</time>
      </trkpt>
      <trkpt lat="43.60453" lon="3.81561">
        <ele>30.6</ele>
        <time>2021-01-09T14:25:46Z</time>
      </trkpt>
      <trkpt lat="43.60455" lon="3.81557">
        <ele>30.7</ele>
        <time>2021-01-09T14:25:47Z</time>
      </trkpt>
      <trkpt lat="43.60457" lon="3.81553">
        <ele>30.9</ele>
        <time>2021-01-09T14:25:48Z</time>
      </trkpt>
      <trkpt lat="43.60459" lon="3.81548">
        <ele>31</ele>
        <time>2021-01-09T14:25:49Z</time>
      </trkpt>
      <trkpt lat="43.60461" lon="3.81544">
        <ele>31.2</ele>
        <time>2021-01-09T14:25:50Z</time>
      </trkpt>
      <trkpt lat="43.60463" lon="3.81541">
        <ele>31.3</ele>
        <time>2021-01-09T14:25:51Z</time>
      </trkpt>
      <trkpt lat="43.60465" lon="3.81537">
        <ele>34</ele>
        <time>2021-01-09T14:25:52Z</time>
      </trkpt>
      <trkpt lat="43.60468" lon="3.81533">
        <ele>31.7</ele>
        <time>2021-01-09T14:25:53Z</time>
      </trkpt>
      <trkpt lat="43.60473" lon="3.81527">
        <ele>32</ele>
        <time>2021-01-09T14:25:54Z</time>
      </trkpt>
      <trkpt lat="43.60475" lon="3.81524">
        <ele>31.9</ele>
        <time>2021-01-09T14:25:55Z</time>
      </trkpt>
      <trkpt lat="43.60478" lon="3.8152">
        <ele>31.8</ele>
        <time>2021-01-09T14:25:57Z</time>
      </trkpt>
      <trkpt lat="43.6048" lon="3.81517">
        <ele>31.8</ele>
        <time>2021-01-09T14:25:58Z</time>
      </trkpt>
      <trkpt lat="43.60482" lon="3.81514">
        <ele>31.9</ele>
        <time>2021-01-09T14:25:59Z</time>
      </trkpt>
      <trkpt lat="43.60486" lon="3.81508">
        <ele>32</ele>
        <time>2021-01-09T14:26:00Z</time>
      </trkpt>
      <trkpt lat="43.60488" lon="3.81505">
        <ele>35</ele>
        <time>2021-01-09T14:26:02Z</time>
      </trkpt>
      <trkpt lat="43.6049" lon="3.81502">
        <ele>32.3</ele>
        <time>2021-01-09T14:26:03Z</time>
      </trkpt>
      <trkpt lat="43.60492" lon="3.81499">
        <ele>32.4</ele>
        <time>2021-01-09T14:26:04Z</time>
      </trkpt>
      <trkpt lat="43.60494" lon="3.81497">
        <ele>32.6</ele>
        <time>2021-01-09T14:26:05Z</time>
      </trkpt>
      <trkpt lat="43.60496" lon="3.81494">
        <ele>32.9</ele>
        <time>2021-01-09T14:26:06Z</time>
      </trkpt>
      <trkpt lat="43.60498" lon="3.81492">
        <ele>33.1</ele>
        <time>2021-01-09T14:26:07Z</time>
      </trkpt>
      <trkpt lat="43.60499" lon="3.8149">
        <ele>33.3</ele>
        <time>2021-01-09T14:26:08Z</time>
      </trkpt>
      <trkpt lat="43.60501" lon="3.81488">
        <ele>33.4</ele>
        <time>2021-01-09T14:26:09Z</time>
      </trkpt>
      <trkpt lat="43.60502" lon="3.81486">
        <ele>33.5</ele>
        <time>2021-01-09T14:26:10Z</time>
      </trkpt>
      <trkpt lat="43.60504" lon="3.81482">
        <ele>36</ele>
        <time>2021-01-09T14:26:12Z</time>
      </trkpt>
      <trkpt lat="43.60505" lon="3.81479">
        <ele>33.6</ele>
        <time>2021-01-09T14:26:14Z</time>
      </trkpt>
      <trkpt lat="43.60505" lon="3.81476">
        <ele>33.7</ele>
        <time>2021-01-09T14:26:16Z</time>
      </trkpt>
      <trkpt lat="43.60504" lon="3.81473">
        <ele>33.8</ele>
        <time>2021-01-09T14:26:17Z</time>
      </trkpt>
      <trkpt lat="43.60502" lon="3.81469">
        <ele>33.7</ele>
        <time>2021-01-09T14:26:18Z</time>
      </trkpt>
      <trkpt lat="43.60501" lon="3.81466">
        <ele>33.5</ele>
        <time>2021-01-09T14:26:19Z</time>
      </trkpt>
      <trkpt lat="43.60499" lon="3.81462">
        <ele>33.1</ele>
        <time>2021-01-09T14:26:20Z</time>
      </trkpt>
      <trkpt lat="43.60497" lon="3.81458">
        <ele>32.7</ele>
        <time>2021-01-09T14:26:21Z</time>
      </trkpt>
      <trkpt lat="43.60495" lon="3.81454">
        <ele>36</ele>
        <time>2021-01-09T14:26:22Z</time>
      </trkpt>
      <trkpt lat="43.60492" lon="3.8145">
        <ele>31.7</ele>
        <time>2021-01-09T14:26:23Z</time>
      </trkpt>
      <trkpt lat="43.6049" lon="3.81446">
        <ele>31.4</ele>
        <time>2021-01-09T14:26:24Z</time>
      </trkpt>
      <trkpt lat="43.60487" lon="3.81442">
        <ele>31.1</ele>
        <time>2021-01-09T14:26:25Z</time>
      </trkpt>
      <trkpt lat="43.60485" lon="3.81438">
        <ele>31.2</ele>
        <time>2021-01-09T14:26:26Z</time>
      </trkpt>
      <trkpt lat="43.60483" lon="3.81434">
        <ele>31.3</ele>
        <time>2021-01-09T14:26:27Z</time>
      </trkpt>
      <trkpt lat="43.6048" lon="3.8143">
        <ele>31.5</ele>
        <time>2021-01-09T14:26:28Z</time>
      </trkpt>
      <trkpt lat="43.60478" lon="3.81426">
        <ele>31.9</ele>
        <time>2021-01-09T14:26:29Z</time>
      </trkpt>
      <trkpt lat="43.60473" lon="3.81418">
        <ele>32.8</ele>
        <time>2021-01-09T14:26:31Z</time>
      </trkpt>
      <trkpt lat="43.60471" lon="3.81414">
        <ele>37</ele>
        <time>2021-01-09T14:26:32Z</time>
      </trkpt>
      <trkpt lat="43.60469" lon="3.8141">
        <ele>32.4</ele>
        <time>2021-01-09T14:26:33Z</time>
      </trkpt>
      <trkpt lat="43.60466" lon="3.81406">
        <ele>32</ele>
        <time>2021-01-09T14:26:34Z</time>
      </trkpt>
      <trkpt lat="43.60464" lon="3.81402">
        <ele>31.7</ele>
        <time>2021-01-09T14:26:35Z</time>
      </trkpt>
      <trkpt lat="43.60462" lon="3.81398">
        <ele>31.5</ele>
        <time>2021-01-09T14:26:36Z</time>
      </trkpt>
      <trkpt lat="43.6046" lon="3.81393">
        <ele>31.2</ele>
        <time>2021-01-09T14:26:37Z</time>
      </trkpt>
      <trkpt lat="43.60458" lon="3.81389">
        <ele>31</ele>
        <time>2021-01-09T14:26:38Z</time>
      </trkpt>
      <trkpt lat="43.60456" lon="3.81385">
        <ele>31</ele>
        <time>2021-01-09T14:26:39Z</time>
      </trkpt>
      <trkpt lat="43.60454" lon="3.81381">
        <ele>31.2</ele>
        <time>2021-01-09T14:26:40Z</time>
      </trkpt>
      <trkpt lat="43.60452" lon="3.81377">
        <ele>31.6</ele>
        <time>2021-01-09T14:26:41Z</time>
      </trkpt>
      <trkpt lat="43.6045" lon="3.81373">
        <ele>38</ele>
        <time>2021-01-09T14:26:42Z</time>
      </trkpt>
      <trkpt lat="43.60448" lon="3.81369">
        <ele>32.6</ele>
        <time>2021-01-09T14:26:43Z</time>
      </trkpt>
      <trkpt lat="43.60444" lon="3.8136">
        <ele>34</ele>
        <time>2021-01-09T14:26:44Z</time>
      </trkpt>
      <trkpt lat="43.60442" lon="3.81356">
        <ele>33.9</ele>
        <time>2021-01-09T14:26:45Z</time>
      </trkpt>
      <trkpt lat="43.6044" lon="3.81352">
        <ele>33.9</ele>
        <time>2021-01-09T14:26:46Z</time>
      </trkpt>
      <trkpt lat="43.60438" lon="3.81348">
        <ele>33.9</ele>
        <time>2021-01-09T14:26:47Z</time>
      </trkpt>
      <trkpt lat="43.60435" lon="3.81344">
        <ele>33.9</ele>
        <time>2021-01-09T14:26:49Z</time>
      </trkpt>
      <trkpt lat="43.60433" lon="3.8134">
        <ele>33.9</ele>
        <time>2021-01-09T14:26:50Z</time>
      </trkpt>
      <trkpt lat="43.60431" lon="3.81336">
        <ele>34</ele>
        <time>2021-01-09T14:26:51Z</time>
      </trkpt>
      <trkpt lat="43.60429" lon="3.81332">
        <ele>39</ele>
        <time>2021-01-09T14:26:52Z</time>
      </trkpt>
      <trkpt lat="43.60426" lon="3.81328">
        <ele>34.1</ele>
        <time>2021-01-09T14:26:53Z</time>
      </trkpt>
      <trkpt lat="43.60424" lon="3.81324">
        <ele>34.2</ele>
        <time>2021-01-09T14:26:54Z</time>
      </trkpt>
      <trkpt lat="43.60423" lon="3.8132">
        <ele>34.4</ele>
        <time>2021-01-09T14:26:55Z</time>
      </trkpt>
      <trkpt lat="43.60421" lon="3.81317">
        <ele>34.5</ele>
        <time>2021-01-09T14:26:56Z</time>
      </trkpt>
      <trkpt lat="43.6042" lon="3.81313">
        <ele>34.6</ele>
        <time>2021-01-09T14:26:57Z</time>
      </trkpt>
      <trkpt lat="43.60418" lon="3.8131">
        <ele>34.8</ele>
        <time>2021-01-09T14:26:58Z</time>
      </trkpt>
      <trkpt lat="43.60416" lon="3.81306">
        <ele>35</ele>
        <time>2021-01-09T14:26:59Z</time>
      </trkpt>
      <trkpt lat="43.60414" lon="3.81301">
        <ele>35</ele>
        <time>2021-01-09T14:27:00Z</time>
      </trkpt>
      <trkpt lat="43.60413" lon="3.81297">
        <ele>35</ele>
        <time>2021-01-09T14:27:01Z</time>
      </trkpt>
      <trkpt lat="43.60411" lon="3.81292">
        <ele>39</ele>
        <time>2021-01-09T14:27:02Z</time>
      </trkpt>
      <trkpt lat="43.60408" lon="3.81289">
        <ele>35</ele>
        <time>2021-01-09T14:27:03Z</time>
      </trkpt>
      <trkpt lat="43.60405" lon="3.81285">
        <ele>35</ele>
        <time>2021-01-09T14:27:04Z</time>
      </trkpt>
      <trkpt lat="43.60403" lon="3.81282">
        <ele>35</ele>
        <time>2021-01-09T14:27:05Z</time>
      </trkpt>
      <trkpt lat="43.604" lon="3.81279">
        <ele>35</ele>
        <time>2021-01-09T14:27:06Z</time>
      </trkpt>
      <trkpt lat="43.60397" lon="3.81277">
        <ele>35</ele>
        <time>2021-01-09T14:27:07Z</time>
      </trkpt>
      <trkpt lat="43.60394" lon="3.81275">
        <ele>35.1</ele>
        <time>2021-01-09T14:27:08Z</time>
      </trkpt>
      <trkpt lat="43.60391" lon="3.81273">
        <ele>35.2</ele>
        <time>2021-01-09T14:27:09Z</time>
      </trkpt>
      <trkpt lat="43.60389" lon="3.81271">
        <ele>35.2</ele>
        <time>2021-01-09T14:27:10Z</time>
      </trkpt>
      <trkpt lat="43.60389" lon="3.81268">
        <ele>35.4</ele>
        <time>2021-01-09T14:27:11Z</time>
      </trkpt>
      <trkpt lat="43.60391" lon="3.81268">
        <ele>35.4</ele>
        <time>2021-01-09T14:27:13Z</time>
      </trkpt>
      <trkpt lat="43.60393" lon="3.8127">
        <ele>35.3</ele>
        <time>2021-01-09T14:27:14Z</time>
      </trkpt>
      <trkpt lat="43.60394" lon="3.81273">
        <ele>35.2</ele>
        <time>2021-01-09T14:27:15Z</time>
      </trkpt>
      <trkpt lat="43.60396" lon="3.81275">
        <ele>35.1</ele>
        <time>2021-01-09T14:27:16Z</time>
      </trkpt>
      <trkpt lat="43.60399" lon="3.81276">
        <ele>35.1</ele>
        <time>2021-01-09T14:27:17Z</time>
      </trkpt>
      <trkpt lat="43.60402" lon="3.81275">
        <ele>35.1</ele>
        <time>2021-01-09T14:27:18Z</time>
      </trkpt>
      <trkpt lat="43.60405" lon="3.81273">
        <ele>35.2</ele>
        <time>2021-01-09T14:27:19Z</time>
      </trkpt>
      <trkpt lat="43.60407" lon="3.8127">
        <ele>35.3</ele>
        <time>2021-01-09T14:27:20Z</time>
      </trkpt>
      <trkpt lat="43.60409" lon="3.81266">
        <ele>35.4</ele>
        <time>2021-01-09T14:27:21Z</time>
      </trkpt>
      <trkpt lat="43.60411" lon="3.81262">
        <ele>39</ele>
        <time>2021-01-09T14:27:22Z</time>
      </trkpt>
      <trkpt lat="43.60413" lon="3.81259">
        <ele>35.7</ele>
        <time>2021-01-09T14:27:23Z</time>
      </trkpt>
      <trkpt lat="43.60416" lon="3.81256">
        <ele>35.8</ele>
        <time>2021-01-09T14:27:24Z</time>
      </trkpt>
      <trkpt lat="43.60419" lon="3.81253">
        <ele>35.8</ele>
        <time>2021-01-09T14:27:25Z</time>
      </trkpt>
      <trkpt lat="43.60422" lon="3.81251">
        <ele>35.8</ele>
        <time>2021-01-09T14:27:26Z</time>
      </trkpt>
      <trkpt lat="43.60425" lon="3.81248">
        <ele>35.7</ele>
        <time>2021-01-09T14:27:27Z</time>
      </trkpt>
      <trkpt lat="43.60428" lon="3.81245">
        <ele>35.7</ele>
        <time>2021-01-09T14:27:28Z</time>
      </trkpt>
      <trkpt lat="43.60431" lon="3.81241">
        <ele>35.7</ele>
        <time>2021-01-09T14:27:29Z</time>
      </trkpt>
      <trkpt lat="43.60433" lon="3.81237">
        <ele>35.7</ele>
        <time>2021-01-09T14:27:30Z</time>
      </trkpt>
      <trkpt lat="43.60436" lon="3.81233">
        <ele>35.7</ele>
        <time>2021-01-09T14:27:31Z</time>
      </trkpt>
      <trkpt lat="43.60438" lon="3.81229">
        <ele>38</ele>
        <time>2021-01-09T14:27:32Z</time>
      </trkpt>
      <trkpt lat="43.6044" lon="3.81226">
        <ele>35.9</ele>
        <time>2021-01-09T14:27:33Z</time>
      </trkpt>
      <trkpt lat="43.60442" lon="3.81221">
        <ele>36</ele>
        <time>2021-01-09T14:27:34Z</time>
      </trkpt>
      <trkpt lat="43.60445" lon="3.81218">
        <ele>36.2</ele>
        <time>2021-01-09T14:27:35Z</time>
      </trkpt>
      <trkpt lat="43.60447" lon="3.81213">
        <ele>36.3</ele>
        <time>2021-01-09T14:27:36Z</time>
      </trkpt>
      <trkpt lat="43.60449" lon="3.81209">
        <ele>36.5</ele>
        <time>2021-01-09T14:27:37Z</time>
      </trkpt>
      <trkpt lat="43.60451" lon="3.81205">
        <ele>36.6</ele>
        <time>2021-01-09T14:27:38Z</time>
      </trkpt>
      <trkpt lat="43.60454" lon="3.81202">
        <ele>36.7</ele>
        <time>2021-01-09T14:27:39Z</time>
      </trkpt>
      <trkpt lat="43.60456" lon="3.81198">
        <ele>36.9</ele>
        <time>2021-01-09T14:27:40Z</time>
      </trkpt>
      <trkpt lat="43.60458" lon="3.81194">
        <ele>37</ele>
        <time>2021-01-09T14:27:41Z</time>
      </trkpt>
      <trkpt lat="43.60461" lon="3.8119">
        <ele>39</ele>
        <time>2021-01-09T14:27:42Z</time>
      </trkpt>
      <trkpt lat="43.60463" lon="3.81187">
        <ele>37.2</ele>
        <time>2021-01-09T14:27:43Z</time>
      </trkpt>
      <trkpt lat="43.60466" lon="3.81183">
        <ele>37.3</ele>
        <time>2021-01-09T14:27:44Z</time>
      </trkpt>
      <trkpt lat="43.60468" lon="3.81179">
        <ele>37.5</ele>
        <time>2021-01-09T14:27:45Z</time>
      </trkpt>
      <trkpt lat="43.6047" lon="3.81175">
        <ele>37.6</ele>
        <time>2021-01-09T14:27:46Z</time>
      </trkpt>
      <trkpt lat="43.60472" lon="3.81172">
        <ele>37.8</ele>
        <time>2021-01-09T14:27:47Z</time>
      </trkpt>
      <trkpt lat="43.60474" lon="3.81168">
        <ele>38</ele>
        <time>2021-01-09T14:27:48Z</time>
      </trkpt>
      <trkpt lat="43.60477" lon="3.81165">
        <ele>38</ele>
        <time>2021-01-09T14:27:49Z</time>
      </trkpt>
      <trkpt lat="43.60479" lon="3.81161">
        <ele>38.2</ele>
        <time>2021-01-09T14:27:50Z</time>
      </trkpt>
      <trkpt lat="43.60481" lon="3.81158">
        <ele>38.2</ele>
        <time>2021-01-09T14:27:51Z</time>
      </trkpt>
      <trkpt lat="43.60483" lon="3.81154">
        <ele>39</ele>
        <time>2021-01-09T14:27:52Z</time>
      </trkpt>
      <trkpt lat="43.60485" lon="3.81151">
        <ele>38.3</ele>
        <time>2021-01-09T14:27:53Z</time>
      </trkpt>
      <trkpt lat="43.60486" lon="3.81147">
        <ele>38.4</ele>
        <time>2021-01-09T14:27:54Z</time>
      </trkpt>
      <trkpt lat="43.60488" lon="3.81144">
        <ele>38.4</ele>
        <time>2021-01-09T14:27:55Z</time>
      </trkpt>
      <trkpt lat="43.6049" lon="3.81141">
        <ele>38.3</ele>
        <time>2021-01-09T14:27:56Z</time>
      </trkpt>
      <trkpt lat="43.60492" lon="3.81138">
        <ele>38.4</ele>
        <time>2021-01-09T14:27:57Z</time>
      </trkpt>
      <trkpt lat="43.60493" lon="3.81136">
        <ele>38.5</ele>
        <time>2021-01-09T14:27:58Z</time>
      </trkpt>
      <trkpt lat="43.60496" lon="3.81134">
        <ele>38.6</ele>
        <time>2021-01-09T14:28:00Z</time>
      </trkpt>
      <trkpt lat="43.60499" lon="3.81135">
        <ele>40</ele>
        <time>2021-01-09T14:28:14Z</time>
      </trkpt>
      <trkpt lat="43.60498" lon="3.81136">
        <ele>38.4</ele>
        <time>2021-01-09T14:28:15Z</time>
      </trkpt>
      <trkpt lat="43.60496" lon="3.81135">
        <ele>38.5</ele>
        <time>2021-01-09T14:28:17Z</time>
      </trkpt>
      <trkpt lat="43.60495" lon="3.8113">
        <ele>39</ele>
        <time>2021-01-09T14:28:19Z</time>
      </trkpt>
      <trkpt lat="43.60495" lon="3.81127">
        <ele>39.2</ele>
        <time>2021-01-09T14:28:20Z</time>
      </trkpt>
      <trkpt lat="43.60494" lon="3.81124">
        <ele>39.5</ele>
        <time>2021-01-09T14:28:21Z</time>
      </trkpt>
      <trkpt lat="43.60492" lon="3.81121">
        <ele>39.7</ele>
        <time>2021-01-09T14:28:22Z</time>
      </trkpt>
      <trkpt lat="43.6049" lon="3.81118">
        <ele>39.8</ele>
        <time>2021-01-09T14:28:23Z</time>
      </trkpt>
      <trkpt lat="43.60488" lon="3.81116">
        <ele>40</ele>
        <time>2021-01-09T14:28:24Z</time>
      </trkpt>
      <trkpt lat="43.60485" lon="3.81113">
        <ele>39.8</ele>
        <time>2021-01-09T14:28:25Z</time>
      </trkpt>
      <trkpt lat="43.60483" lon="3.8111">
        <ele>39.9</ele>
        <time>2021-01-09T14:28:26Z</time>
      </trkpt>
      <trkpt lat="43.60481" lon="3.81108">
        <ele>39.9</ele>
        <time>2021-01-09T14:28:27Z</time>
      </trkpt>
      <trkpt lat="43.60478" lon="3.81105">
        <ele>40</ele>
        <time>2021-01-09T14:28:28Z</time>
      </trkpt>
      <trkpt lat="43.60476" lon="3.81103">
        <ele>40.1</ele>
        <time>2021-01-09T14:28:29Z</time>
      </trkpt>
      <trkpt lat="43.60473" lon="3.811">
        <ele>40.2</ele>
        <time>2021-01-09T14:28:30Z</time>
      </trkpt>
      <trkpt lat="43.60471" lon="3.81097">
        <ele>40.5</ele>
        <time>2021-01-09T14:28:31Z</time>
      </trkpt>
      <trkpt lat="43.60469" lon="3.81094">
        <ele>40.7</ele>
        <time>2021-01-09T14:28:32Z</time>
      </trkpt>
      <trkpt lat="43.60467" lon="3.81091">
        <ele>40.9</ele>
        <time>2021-01-09T14:28:33Z</time>
      </trkpt>
      <trkpt lat="43.60462" lon="3.81085">
        <ele>41</ele>
        <time>2021-01-09T14:28:34Z</time>
      </trkpt>
      <trkpt lat="43.60461" lon="3.81081">
        <ele>41.3</ele>
        <time>2021-01-09T14:28:35Z</time>
      </trkpt>
      <trkpt lat="43.60459" lon="3.81073">
        <ele>41.6</ele>
        <time>2021-01-09T14:28:37Z</time>
      </trkpt>
      <trkpt lat="43.60459" lon="3.81064">
        <ele>42.1</ele>
        <time>2021-01-09T14:28:39Z</time>
      </trkpt>
      <trkpt lat="43.6046" lon="3.8106">
        <ele>42.3</ele>
        <time>2021-01-09T14:28:40Z</time>
      </trkpt>
      <trkpt lat="43.60461" lon="3.81057">
        <ele>42.5</ele>
        <time>2021-01-09T14:28:41Z</time>
      </trkpt>
      <trkpt lat="43.60462" lon="3.81053">
        <ele>42.7</ele>
        <time>2021-01-09T14:28:42Z</time>
      </trkpt>
      <trkpt lat="43.60463" lon="3.8105">
        <ele>43</ele>
        <time>2021-01-09T14:28:44Z</time>
      </trkpt>
      <trkpt lat="43.60465" lon="3.81047">
        <ele>43</ele>
        <time>2021-01-09T14:28:45Z</time>
      </trkpt>
      <trkpt lat="43.60466" lon="3.81044">
        <ele>43.1</ele>
        <time>2021-01-09T14:28:46Z</time>
      </trkpt>
      <trkpt lat="43.60467" lon="3.81041">
        <ele>43.2</ele>
        <time>2021-01-09T14:28:47Z</time>
      </trkpt>
      <trkpt lat="43.60468" lon="3.81038">
        <ele>43.4</ele>
        <time>2021-01-09T14:28:48Z</time>
      </trkpt>
      <trkpt lat="43.60468" lon="3.81035">
        <ele>43.5</ele>
        <time>2021-01-09T14:28:49Z</time>
      </trkpt>
      <trkpt lat="43.60469" lon="3.81032">
        <ele>43.6</ele>
        <time>2021-01-09T14:28:50Z</time>
      </trkpt>
      <trkpt lat="43.6047" lon="3.8103">
        <ele>43.8</ele>
        <time>2021-01-09T14:28:51Z</time>
      </trkpt>
      <trkpt lat="43.60471" lon="3.81028">
        <ele>43.9</ele>
        <time>2021-01-09T14:28:52Z</time>
      </trkpt>
      <trkpt lat="43.60474" lon="3.81028">
        <ele>44.1</ele>
        <time>2021-01-09T14:28:53Z</time>
      </trkpt>
      <trkpt lat="43.60476" lon="3.81029">
        <ele>44</ele>
        <time>2021-01-09T14:28:54Z</time>
      </trkpt>
      <trkpt lat="43.60478" lon="3.81032">
        <ele>44.2</ele>
        <time>2021-01-09T14:28:55Z</time>
      </trkpt>
      <trkpt lat="43.6048" lon="3.81035">
        <ele>44.2</ele>
        <time>2021-01-09T14:28:56Z</time>
      </trkpt>
      <trkpt lat="43.60482" lon="3.81038">
        <ele>44.1</ele>
        <time>2021-01-09T14:28:57Z</time>
      </trkpt>
      <trkpt lat="43.60484" lon="3.81041">
        <ele>44</ele>
        <time>2021-01-09T14:28:58Z</time>
      </trkpt>
      <trkpt lat="43.60486" lon="3.81045">
        <ele>43.8</ele>
        <time>2021-01-09T14:28:59Z</time>
      </trkpt>
      <trkpt lat="43.60488" lon="3.81048">
        <ele>43.6</ele>
        <time>2021-01-09T14:29:00Z</time>
      </trkpt>
      <trkpt lat="43.60491" lon="3.81051">
        <ele>43.4</ele>
        <time>2021-01-09T14:29:01Z</time>
      </trkpt>
      <trkpt lat="43.60493" lon="3.81055">
        <ele>43</ele>
        <time>2021-01-09T14:29:02Z</time>
      </trkpt>
      <trkpt lat="43.60496" lon="3.81058">
        <ele>42.9</ele>
        <time>2021-01-09T14:29:03Z</time>
      </trkpt>
      <trkpt lat="43.60498" lon="3.81062">
        <ele>44</ele>
        <time>2021-01-09T14:29:04Z</time>
      </trkpt>
      <trkpt lat="43.605" lon="3.81066">
        <ele>42.6</ele>
        <time>2021-01-09T14:29:05Z</time>
      </trkpt>
      <trkpt lat="43.60503" lon="3.8107">
        <ele>42.6</ele>
        <time>2021-01-09T14:29:06Z</time>
      </trkpt>
      <trkpt lat="43.60505" lon="3.81074">
        <ele>42.5</ele>
        <time>2021-01-09T14:29:07Z</time>
      </trkpt>
      <trkpt lat="43.60508" lon="3.81078">
        <ele>42.4</ele>
        <time>2021-01-09T14:29:08Z</time>
      </trkpt>
      <trkpt lat="43.6051" lon="3.81082">
        <ele>42.1</ele>
        <time>2021-01-09T14:29:09Z</time>
      </trkpt>
      <trkpt lat="43.60513" lon="3.81085">
        <ele>42</ele>
        <time>2021-01-09T14:29:10Z</time>
      </trkpt>
      <trkpt lat="43.60516" lon="3.81089">
        <ele>41.9</ele>
        <time>2021-01-09T14:29:11Z</time>
      </trkpt>
      <trkpt lat="43.60518" lon="3.81093">
        <ele>41.9</ele>
        <time>2021-01-09T14:29:12Z</time>
      </trkpt>
      <trkpt lat="43.60521" lon="3.81097">
        <ele>41.9</ele>
        <time>2021-01-09T14:29:13Z</time>
      </trkpt>
      <trkpt lat="43.60524" lon="3.81101">
        <ele>45</ele>
        <time>2021-01-09T14:29:14Z</time>
      </trkpt>
      <trkpt lat="43.60526" lon="3.81104">
        <ele>42</ele>
        <time>2021-01-09T14:29:15Z</time>
      </trkpt>
      <trkpt lat="43.60529" lon="3.81108">
        <ele>41.9</ele>
        <time>2021-01-09T14:29:16Z</time>
      </trkpt>
      <trkpt lat="43.60531" lon="3.81112">
        <ele>41.7</ele>
        <time>2021-01-09T14:29:17Z</time>
      </trkpt>
      <trkpt lat="43.60534" lon="3.81115">
        <ele>41.2</ele>
        <time>2021-01-09T14:29:18Z</time>
      </trkpt>
      <trkpt lat="43.60537" lon="3.81119">
        <ele>40.8</ele>
        <time>2021-01-09T14:29:19Z</time>
      </trkpt>
      <trkpt lat="43.6054" lon="3.81123">
        <ele>40.5</ele>
        <time>2021-01-09T14:29:20Z</time>
      </trkpt>
      <trkpt lat="43.60543" lon="3.81126">
        <ele>40.5</ele>
        <time>2021-01-09T14:29:21Z</time>
      </trkpt>
      <trkpt lat="43.60546" lon="3.81129">
        <ele>40.6</ele>
        <time>2021-01-09T14:29:22Z</time>
      </trkpt>
      <trkpt lat="43.60549" lon="3.81133">
        <ele>40.9</ele>
        <time>2021-01-09T14:29:23Z</time>
      </trkpt>
      <trkpt lat="43.60551" lon="3.81136">
        <ele>45</ele>
        <time>2021-01-09T14:29:24Z</time>
      </trkpt>
      <trkpt lat="43.60555" lon="3.81139">
        <ele>41.9</ele>
        <time>2021-01-09T14:29:25Z</time>
      </trkpt>
      <trkpt lat="43.60558" lon="3.81142">
        <ele>40.9</ele>
        <time>2021-01-09T14:29:26Z</time>
      </trkpt>
      <trkpt lat="43.6056" lon="3.81145">
        <ele>39.9</ele>
        <time>2021-01-09T14:29:27Z</time>
      </trkpt>
      <trkpt lat="43.60564" lon="3.81148">
        <ele>38.6</ele>
        <time>2021-01-09T14:29:28Z</time>
      </trkpt>
      <trkpt lat="43.60567" lon="3.81151">
        <ele>37.7</ele>
        <time>2021-01-09T14:29:29Z</time>
      </trkpt>
      <trkpt lat="43.60571" lon="3.81154">
        <ele>36.6</ele>
        <time>2021-01-09T14:29:30Z</time>
      </trkpt>
      <trkpt lat="43.60575" lon="3.81157">
        <ele>35.7</ele>
        <time>2021-01-09T14:29:31Z</time>
      </trkpt>
      <trkpt lat="43.60579" lon="3.8116">
        <ele>34.9</ele>
        <time>2021-01-09T14:29:32Z</time>
      </trkpt>
      <trkpt lat="43.60583" lon="3.81163">
        <ele>34.2</ele>
        <time>2021-01-09T14:29:33Z</time>
      </trkpt>
      <trkpt lat="43.60591" lon="3.81169">
        <ele>44</ele>
        <time>2021-01-09T14:29:34Z</time>
      </trkpt>
      <trkpt lat="43.60596" lon="3.81172">
        <ele>35.5</ele>
        <time>2021-01-09T14:29:35Z</time>
      </trkpt>
      <trkpt lat="43.60601" lon="3.81175">
        <ele>36.1</ele>
        <time>2021-01-09T14:29:36Z</time>
      </trkpt>
      <trkpt lat="43.60605" lon="3.81177">
        <ele>36.5</ele>
        <time>2021-01-09T14:29:37Z</time>
      </trkpt>
      <trkpt lat="43.6061" lon="3.81179">
        <ele>37</ele>
        <time>2021-01-09T14:29:39Z</time>
      </trkpt>
      <trkpt lat="43.60614" lon="3.81181">
        <ele>36.8</ele>
        <time>2021-01-09T14:29:40Z</time>
      </trkpt>
      <trkpt lat="43.60619" lon="3.81183">
        <ele>36.6</ele>
        <time>2021-01-09T14:29:41Z</time>
      </trkpt>
      <trkpt lat="43.60629" lon="3.81186">
        <ele>36.5</ele>
        <time>2021-01-09T14:29:42Z</time>
      </trkpt>
      <trkpt lat="43.60634" lon="3.81188">
        <ele>43</ele>
        <time>2021-01-09T14:29:44Z</time>
      </trkpt>
      <trkpt lat="43.6064" lon="3.8119">
        <ele>37.1</ele>
        <time>2021-01-09T14:29:45Z</time>
      </trkpt>
      <trkpt lat="43.60645" lon="3.81192">
        <ele>37.2</ele>
        <time>2021-01-09T14:29:46Z</time>
      </trkpt>
      <trkpt lat="43.60651" lon="3.81194">
        <ele>37.1</ele>
        <time>2021-01-09T14:29:47Z</time>
      </trkpt>
      <trkpt lat="43.60657" lon="3.81195">
        <ele>36.7</ele>
        <time>2021-01-09T14:29:48Z</time>
      </trkpt>
      <trkpt lat="43.60663" lon="3.81197">
        <ele>36.2</ele>
        <time>2021-01-09T14:29:49Z</time>
      </trkpt>
      <trkpt lat="43.6067" lon="3.81198">
        <ele>36</ele>
        <time>2021-01-09T14:29:50Z</time>
      </trkpt>
      <trkpt lat="43.60676" lon="3.812">
        <ele>36</ele>
        <time>2021-01-09T14:29:51Z</time>
      </trkpt>
      <trkpt lat="43.60682" lon="3.81201">
        <ele>36</ele>
        <time>2021-01-09T14:29:52Z</time>
      </trkpt>
      <trkpt lat="43.60689" lon="3.81203">
        <ele>36</ele>
        <time>2021-01-09T14:29:53Z</time>
      </trkpt>
      <trkpt lat="43.60695" lon="3.81204">
        <ele>42</ele>
        <time>2021-01-09T14:29:54Z</time>
      </trkpt>
      <trkpt lat="43.607" lon="3.81206">
        <ele>36.2</ele>
        <time>2021-01-09T14:29:55Z</time>
      </trkpt>
      <trkpt lat="43.60706" lon="3.81207">
        <ele>36.4</ele>
        <time>2021-01-09T14:29:56Z</time>
      </trkpt>
      <trkpt lat="43.60711" lon="3.81209">
        <ele>36.6</ele>
        <time>2021-01-09T14:29:57Z</time>
      </trkpt>
      <trkpt lat="43.60717" lon="3.8121">
        <ele>36.8</ele>
        <time>2021-01-09T14:29:58Z</time>
      </trkpt>
      <trkpt lat="43.60722" lon="3.81212">
        <ele>37</ele>
        <time>2021-01-09T14:29:59Z</time>
      </trkpt>
      <trkpt lat="43.60726" lon="3.81214">
        <ele>37.1</ele>
        <time>2021-01-09T14:30:00Z</time>
      </trkpt>
      <trkpt lat="43.60731" lon="3.81217">
        <ele>37.3</ele>
        <time>2021-01-09T14:30:01Z</time>
      </trkpt>
      <trkpt lat="43.60735" lon="3.81221">
        <ele>37.5</ele>
        <time>2021-01-09T14:30:02Z</time>
      </trkpt>
      <trkpt lat="43.60739" lon="3.81224">
        <ele>37.6</ele>
        <time>2021-01-09T14:30:03Z</time>
      </trkpt>
      <trkpt lat="43.60742" lon="3.81227">
        <ele>41</ele>
        <time>2021-01-09T14:30:04Z</time>
      </trkpt>
      <trkpt lat="43.60746" lon="3.81231">
        <ele>37.9</ele>
        <time>2021-01-09T14:30:05Z</time>
      </trkpt>
      <trkpt lat="43.60749" lon="3.81236">
        <ele>38</ele>
        <time>2021-01-09T14:30:06Z</time>
      </trkpt>
      <trkpt lat="43.60752" lon="3.81241">
        <ele>38</ele>
        <time>2021-01-09T14:30:07Z</time>
      </trkpt>
      <trkpt lat="43.60754" lon="3.81246">
        <ele>38</ele>
        <time>2021-01-09T14:30:08Z</time>
      </trkpt>
      <trkpt lat="43.60757" lon="3.8125">
        <ele>38</ele>
        <time>2021-01-09T14:30:09Z</time>
      </trkpt>
      <trkpt lat="43.60761" lon="3.81254">
        <ele>37.9</ele>
        <time>2021-01-09T14:30:10Z</time>
      </trkpt>
      <trkpt lat="43.60764" lon="3.81259">
        <ele>37.8</ele>
        <time>2021-01-09T14:30:11Z</time>
      </trkpt>
      <trkpt lat="43.60767" lon="3.81263">
        <ele>37.7</ele>
        <time>2021-01-09T14:30:12Z</time>
      </trkpt>
      <trkpt lat="43.6077" lon="3.81268">
        <ele>37.5</ele>
        <time>2021-01-09T14:30:13Z</time>
      </trkpt>
      <trkpt lat="43.60773" lon="3.81273">
        <ele>41</ele>
        <time>2021-01-09T14:30:14Z</time>
      </trkpt>
      <trkpt lat="43.60776" lon="3.81277">
        <ele>37.1</ele>
        <time>2021-01-09T14:30:15Z</time>
      </trkpt>
      <trkpt lat="43.6078" lon="3.81282">
        <ele>37.1</ele>
        <time>2021-01-09T14:30:16Z</time>
      </trkpt>
      <trkpt lat="43.60782" lon="3.81285">
        <ele>37.1</ele>
        <time>2021-01-09T14:30:17Z</time>
      </trkpt>
      <trkpt lat="43.60784" lon="3.81289">
        <ele>37.1</ele>
        <time>2021-01-09T14:30:18Z</time>
      </trkpt>
      <trkpt lat="43.60786" lon="3.81293">
        <ele>37.1</ele>
        <time>2021-01-09T14:30:19Z</time>
      </trkpt>
      <trkpt lat="43.60788" lon="3.81297">
        <ele>37.1</ele>
        <time>2021-01-09T14:30:20Z</time>
      </trkpt>
      <trkpt lat="43.60791" lon="3.81301">
        <ele>37.1</ele>
        <time>2021-01-09T14:30:21Z</time>
      </trkpt>
      <trkpt lat="43.60794" lon="3.81305">
        <ele>37</ele>
        <time>2021-01-09T14:30:22Z</time>
      </trkpt>
      <trkpt lat="43.60797" lon="3.8131">
        <ele>37</ele>
        <time>2021-01-09T14:30:23Z</time>
      </trkpt>
      <trkpt lat="43.608" lon="3.81314">
        <ele>40</ele>
        <time>2021-01-09T14:30:24Z</time>
      </trkpt>
      <trkpt lat="43.60802" lon="3.81319">
        <ele>37</ele>
        <time>2021-01-09T14:30:25Z</time>
      </trkpt>
      <trkpt lat="43.60805" lon="3.81325">
        <ele>37</ele>
        <time>2021-01-09T14:30:26Z</time>
      </trkpt>
      <trkpt lat="43.60808" lon="3.8133">
        <ele>37</ele>
        <time>2021-01-09T14:30:27Z</time>
      </trkpt>
      <trkpt lat="43.60811" lon="3.81335">
        <ele>36.9</ele>
        <time>2021-01-09T14:30:28Z</time>
      </trkpt>
      <trkpt lat="43.60814" lon="3.8134">
        <ele>36.8</ele>
        <time>2021-01-09T14:30:29Z</time>
      </trkpt>
      <trkpt lat="43.60816" lon="3.81345">
        <ele>36.6</ele>
        <time>2021-01-09T14:30:30Z</time>
      </trkpt>
      <trkpt lat="43.60818" lon="3.81351">
        <ele>36.4</ele>
        <time>2021-01-09T14:30:31Z</time>
      </trkpt>
      <trkpt lat="43.60821" lon="3.81356">
        <ele>36.2</ele>
        <time>2021-01-09T14:30:32Z</time>
      </trkpt>
      <trkpt lat="43.60824" lon="3.81361">
        <ele>36</ele>
        <time>2021-01-09T14:30:33Z</time>
      </trkpt>
      <trkpt lat="43.60826" lon="3.81366">
        <ele>40</ele>
        <time>2021-01-09T14:30:34Z</time>
      </trkpt>
      <trkpt lat="43.60829" lon="3.81371">
        <ele>36</ele>
        <time>2021-01-09T14:30:35Z</time>
      </trkpt>
      <trkpt lat="43.60832" lon="3.81375">
        <ele>36</ele>
        <time>2021-01-09T14:30:36Z</time>
      </trkpt>
      <trkpt lat="43.60835" lon="3.8138">
        <ele>36</ele>
        <time>2021-01-09T14:30:37Z</time>
      </trkpt>
      <trkpt lat="43.60839" lon="3.81385">
        <ele>36</ele>
        <time>2021-01-09T14:30:38Z</time>
      </trkpt>
      <trkpt lat="43.60842" lon="3.8139">
        <ele>36</ele>
        <time>2021-01-09T14:30:39Z</time>
      </trkpt>
      <trkpt lat="43.60845" lon="3.81396">
        <ele>35.9</ele>
        <time>2021-01-09T14:30:40Z</time>
      </trkpt>
      <trkpt lat="43.60848" lon="3.81402">
        <ele>35.8</ele>
        <time>2021-01-09T14:30:41Z</time>
      </trkpt>
      <trkpt lat="43.60851" lon="3.81407">
        <ele>35.6</ele>
        <time>2021-01-09T14:30:42Z</time>
      </trkpt>
      <trkpt lat="43.60854" lon="3.81413">
        <ele>35.4</ele>
        <time>2021-01-09T14:30:43Z</time>
      </trkpt>
      <trkpt lat="43.60858" lon="3.81419">
        <ele>39</ele>
        <time>2021-01-09T14:30:44Z</time>
      </trkpt>
      <trkpt lat="43.60861" lon="3.81425">
        <ele>35</ele>
        <time>2021-01-09T14:30:45Z</time>
      </trkpt>
      <trkpt lat="43.60864" lon="3.81431">
        <ele>35.1</ele>
        <time>2021-01-09T14:30:46Z</time>
      </trkpt>
      <trkpt lat="43.60868" lon="3.81436">
        <ele>35.2</ele>
        <time>2021-01-09T14:30:47Z</time>
      </trkpt>
      <trkpt lat="43.60872" lon="3.81442">
        <ele>35.4</ele>
        <time>2021-01-09T14:30:48Z</time>
      </trkpt>
      <trkpt lat="43.60875" lon="3.81447">
        <ele>35.5</ele>
        <time>2021-01-09T14:30:49Z</time>
      </trkpt>
      <trkpt lat="43.60879" lon="3.81453">
        <ele>35.4</ele>
        <time>2021-01-09T14:30:50Z</time>
      </trkpt>
      <trkpt lat="43.60882" lon="3.81458">
        <ele>35.4</ele>
        <time>2021-01-09T14:30:51Z</time>
      </trkpt>
      <trkpt lat="43.60885" lon="3.81463">
        <ele>35.3</ele>
        <time>2021-01-09T14:30:52Z</time>
      </trkpt>
      <trkpt lat="43.60888" lon="3.81469">
        <ele>35.1</ele>
        <time>2021-01-09T14:30:53Z</time>
      </trkpt>
      <trkpt lat="43.6089" lon="3.81475">
        <ele>39</ele>
        <time>2021-01-09T14:30:54Z</time>
      </trkpt>
      <trkpt lat="43.60893" lon="3.8148">
        <ele>35.1</ele>
        <time>2021-01-09T14:30:55Z</time>
      </trkpt>
      <trkpt lat="43.60896" lon="3.81485">
        <ele>35.1</ele>
        <time>2021-01-09T14:30:56Z</time>
      </trkpt>
      <trkpt lat="43.60899" lon="3.81491">
        <ele>35.1</ele>
        <time>2021-01-09T14:30:57Z</time>
      </trkpt>
      <trkpt lat="43.60902" lon="3.81496">
        <ele>35.1</ele>
        <time>2021-01-09T14:30:58Z</time>
      </trkpt>
      <trkpt lat="43.60905" lon="3.81501">
        <ele>35</ele>
        <time>2021-01-09T14:30:59Z</time>
      </trkpt>
      <trkpt lat="43.60908" lon="3.81505">
        <ele>35</ele>
        <time>2021-01-09T14:31:00Z</time>
      </trkpt>
      <trkpt lat="43.6091" lon="3.81511">
        <ele>35</ele>
        <time>2021-01-09T14:31:01Z</time>
      </trkpt>
      <trkpt lat="43.60911" lon="3.81516">
        <ele>35</ele>
        <time>2021-01-09T14:31:02Z</time>
      </trkpt>
      <trkpt lat="43.60912" lon="3.81521">
        <ele>35</ele>
        <time>2021-01-09T14:31:03Z</time>
      </trkpt>
      <trkpt lat="43.60915" lon="3.81526">
        <ele>38</ele>
        <time>2021-01-09T14:31:04Z</time>
      </trkpt>
      <trkpt lat="43.60918" lon="3.81531">
        <ele>35</ele>
        <time>2021-01-09T14:31:05Z</time>
      </trkpt>
      <trkpt lat="43.6092" lon="3.81536">
        <ele>35</ele>
        <time>2021-01-09T14:31:06Z</time>
      </trkpt>
      <trkpt lat="43.60923" lon="3.81541">
        <ele>35</ele>
        <time>2021-01-09T14:31:07Z</time>
      </trkpt>
      <trkpt lat="43.60926" lon="3.81546">
        <ele>35</ele>
        <time>2021-01-09T14:31:08Z</time>
      </trkpt>
      <trkpt lat="43.60929" lon="3.81551">
        <ele>35</ele>
        <time>2021-01-09T14:31:09Z</time>
      </trkpt>
      <trkpt lat="43.60932" lon="3.81556">
        <ele>35</ele>
        <time>2021-01-09T14:31:10Z</time>
      </trkpt>
      <trkpt lat="43.60934" lon="3.81561">
        <ele>35</ele>
        <time>2021-01-09T14:31:11Z</time>
      </trkpt>
      <trkpt lat="43.60937" lon="3.81566">
        <ele>35</ele>
        <time>2021-01-09T14:31:12Z</time>
      </trkpt>
      <trkpt lat="43.6094" lon="3.8157">
        <ele>35</ele>
        <time>2021-01-09T14:31:13Z</time>
      </trkpt>
      <trkpt lat="43.60942" lon="3.81575">
        <ele>38</ele>
        <time>2021-01-09T14:31:14Z</time>
      </trkpt>
      <trkpt lat="43.60944" lon="3.81579">
        <ele>35</ele>
        <time>2021-01-09T14:31:15Z</time>
      </trkpt>
      <trkpt lat="43.60947" lon="3.81583">
        <ele>35</ele>
        <time>2021-01-09T14:31:16Z</time>
      </trkpt>
      <trkpt lat="43.6095" lon="3.81585">
        <ele>34.9</ele>
        <time>2021-01-09T14:31:17Z</time>
      </trkpt>
      <trkpt lat="43.60954" lon="3.81584">
        <ele>35</ele>
        <time>2021-01-09T14:31:18Z</time>
      </trkpt>
      <trkpt lat="43.60958" lon="3.81582">
        <ele>35</ele>
        <time>2021-01-09T14:31:19Z</time>
      </trkpt>
      <trkpt lat="43.60962" lon="3.81581">
        <ele>35</ele>
        <time>2021-01-09T14:31:20Z</time>
      </trkpt>
      <trkpt lat="43.60967" lon="3.8158">
        <ele>35</ele>
        <time>2021-01-09T14:31:21Z</time>
      </trkpt>
      <trkpt lat="43.60972" lon="3.8158">
        <ele>35</ele>
        <time>2021-01-09T14:31:22Z</time>
      </trkpt>
      <trkpt lat="43.60977" lon="3.8158">
        <ele>34.8</ele>
        <time>2021-01-09T14:31:23Z</time>
      </trkpt>
      <trkpt lat="43.60982" lon="3.81579">
        <ele>38</ele>
        <time>2021-01-09T14:31:24Z</time>
      </trkpt>
      <trkpt lat="43.60986" lon="3.81577">
        <ele>34.6</ele>
        <time>2021-01-09T14:31:25Z</time>
      </trkpt>
      <trkpt lat="43.60991" lon="3.81574">
        <ele>34.6</ele>
        <time>2021-01-09T14:31:26Z</time>
      </trkpt>
      <trkpt lat="43.60995" lon="3.81571">
        <ele>34.5</ele>
        <time>2021-01-09T14:31:27Z</time>
      </trkpt>
      <trkpt lat="43.60999" lon="3.81567">
        <ele>34.6</ele>
        <time>2021-01-09T14:31:28Z</time>
      </trkpt>
      <trkpt lat="43.61004" lon="3.81563">
        <ele>34.7</ele>
        <time>2021-01-09T14:31:29Z</time>
      </trkpt>
      <trkpt lat="43.61008" lon="3.81559">
        <ele>34.9</ele>
        <time>2021-01-09T14:31:30Z</time>
      </trkpt>
      <trkpt lat="43.61012" lon="3.81556">
        <ele>35</ele>
        <time>2021-01-09T14:31:31Z</time>
      </trkpt>
      <trkpt lat="43.61016" lon="3.81553">
        <ele>35</ele>
        <time>2021-01-09T14:31:32Z</time>
      </trkpt>
      <trkpt lat="43.61021" lon="3.8155">
        <ele>35</ele>
        <time>2021-01-09T14:31:33Z</time>
      </trkpt>
      <trkpt lat="43.61025" lon="3.81547">
        <ele>38</ele>
        <time>2021-01-09T14:31:34Z</time>
      </trkpt>
      <trkpt lat="43.61029" lon="3.81544">
        <ele>35</ele>
        <time>2021-01-09T14:31:35Z</time>
      </trkpt>
      <trkpt lat="43.61034" lon="3.81541">
        <ele>35</ele>
        <time>2021-01-09T14:31:36Z</time>
      </trkpt>
      <trkpt lat="43.61038" lon="3.81539">
        <ele>35</ele>
        <time>2021-01-09T14:31:37Z</time>
      </trkpt>
      <trkpt lat="43.61043" lon="3.81536">
        <ele>35</ele>
        <time>2021-01-09T14:31:38Z</time>
      </trkpt>
      <trkpt lat="43.61047" lon="3.81534">
        <ele>35</ele>
        <time>2021-01-09T14:31:39Z</time>
      </trkpt>
      <trkpt lat="43.61051" lon="3.81531">
        <ele>35</ele>
        <time>2021-01-09T14:31:40Z</time>
      </trkpt>
      <trkpt lat="43.61055" lon="3.81528">
        <ele>35</ele>
        <time>2021-01-09T14:31:41Z</time>
      </trkpt>
      <trkpt lat="43.61059" lon="3.81526">
        <ele>35.1</ele>
        <time>2021-01-09T14:31:42Z</time>
      </trkpt>
      <trkpt lat="43.61063" lon="3.81523">
        <ele>35.1</ele>
        <time>2021-01-09T14:31:43Z</time>
      </trkpt>
      <trkpt lat="43.61071" lon="3.81518">
        <ele>37</ele>
        <time>2021-01-09T14:31:44Z</time>
      </trkpt>
      <trkpt lat="43.61079" lon="3.81513">
        <ele>35.1</ele>
        <time>2021-01-09T14:31:46Z</time>
      </trkpt>
      <trkpt lat="43.61083" lon="3.81511">
        <ele>35</ele>
        <time>2021-01-09T14:31:47Z</time>
      </trkpt>
      <trkpt lat="43.61087" lon="3.81509">
        <ele>35.1</ele>
        <time>2021-01-09T14:31:49Z</time>
      </trkpt>
      <trkpt lat="43.61091" lon="3.81506">
        <ele>35.3</ele>
        <time>2021-01-09T14:31:50Z</time>
      </trkpt>
      <trkpt lat="43.61094" lon="3.81504">
        <ele>35.4</ele>
        <time>2021-01-09T14:31:51Z</time>
      </trkpt>
      <trkpt lat="43.61098" lon="3.81502">
        <ele>35.5</ele>
        <time>2021-01-09T14:31:52Z</time>
      </trkpt>
      <trkpt lat="43.61102" lon="3.81499">
        <ele>35.7</ele>
        <time>2021-01-09T14:31:53Z</time>
      </trkpt>
      <trkpt lat="43.61106" lon="3.81497">
        <ele>38</ele>
        <time>2021-01-09T14:31:54Z</time>
      </trkpt>
      <trkpt lat="43.6111" lon="3.81494">
        <ele>36.2</ele>
        <time>2021-01-09T14:31:55Z</time>
      </trkpt>
      <trkpt lat="43.61114" lon="3.81492">
        <ele>36.3</ele>
        <time>2021-01-09T14:31:56Z</time>
      </trkpt>
      <trkpt lat="43.61117" lon="3.81489">
        <ele>36.3</ele>
        <time>2021-01-09T14:31:57Z</time>
      </trkpt>
      <trkpt lat="43.61121" lon="3.81487">
        <ele>36.3</ele>
        <time>2021-01-09T14:31:58Z</time>
      </trkpt>
      <trkpt lat="43.61125" lon="3.81484">
        <ele>36.3</ele>
        <time>2021-01-09T14:31:59Z</time>
      </trkpt>
      <trkpt lat="43.61129" lon="3.81482">
        <ele>36.2</ele>
        <time>2021-01-09T14:32:00Z</time>
      </trkpt>
      <trkpt lat="43.61133" lon="3.8148">
        <ele>36.2</ele>
        <time>2021-01-09T14:32:01Z</time>
      </trkpt>
      <trkpt lat="43.61136" lon="3.81477">
        <ele>36.1</ele>
        <time>2021-01-09T14:32:02Z</time>
      </trkpt>
      <trkpt lat="43.6114" lon="3.81475">
        <ele>36</ele>
        <time>2021-01-09T14:32:03Z</time>
      </trkpt>
      <trkpt lat="43.61144" lon="3.81473">
        <ele>37</ele>
        <time>2021-01-09T14:32:04Z</time>
      </trkpt>
      <trkpt lat="43.61147" lon="3.8147">
        <ele>36</ele>
        <time>2021-01-09T14:32:05Z</time>
      </trkpt>
      <trkpt lat="43.61151" lon="3.81468">
        <ele>36.1</ele>
        <time>2021-01-09T14:32:06Z</time>
      </trkpt>
      <trkpt lat="43.61155" lon="3.81465">
        <ele>36.2</ele>
        <time>2021-01-09T14:32:07Z</time>
      </trkpt>
      <trkpt lat="43.61159" lon="3.81463">
        <ele>36.2</ele>
        <time>2021-01-09T14:32:08Z</time>
      </trkpt>
      <trkpt lat="43.61163" lon="3.8146">
        <ele>36.4</ele>
        <time>2021-01-09T14:32:09Z</time>
      </trkpt>
      <trkpt lat="43.61167" lon="3.81458">
        <ele>36.5</ele>
        <time>2021-01-09T14:32:10Z</time>
      </trkpt>
      <trkpt lat="43.61171" lon="3.81457">
        <ele>36.7</ele>
        <time>2021-01-09T14:32:11Z</time>
      </trkpt>
      <trkpt lat="43.61175" lon="3.81457">
        <ele>36.8</ele>
        <time>2021-01-09T14:32:12Z</time>
      </trkpt>
      <trkpt lat="43.61179" lon="3.81458">
        <ele>37</ele>
        <time>2021-01-09T14:32:13Z</time>
      </trkpt>
      <trkpt lat="43.61184" lon="3.81459">
        <ele>38</ele>
        <time>2021-01-09T14:32:14Z</time>
      </trkpt>
      <trkpt lat="43.61188" lon="3.8146">
        <ele>37.2</ele>
        <time>2021-01-09T14:32:15Z</time>
      </trkpt>
      <trkpt lat="43.61192" lon="3.81461">
        <ele>37.3</ele>
        <time>2021-01-09T14:32:16Z</time>
      </trkpt>
      <trkpt lat="43.61196" lon="3.81462">
        <ele>37.3</ele>
        <time>2021-01-09T14:32:17Z</time>
      </trkpt>
      <trkpt lat="43.61199" lon="3.81463">
        <ele>37.3</ele>
        <time>2021-01-09T14:32:18Z</time>
      </trkpt>
      <trkpt lat="43.61203" lon="3.81464">
        <ele>37.2</ele>
        <time>2021-01-09T14:32:19Z</time>
      </trkpt>
      <trkpt lat="43.61206" lon="3.81467">
        <ele>37.1</ele>
        <time>2021-01-09T14:32:20Z</time>
      </trkpt>
      <trkpt lat="43.61209" lon="3.81469">
        <ele>37.1</ele>
        <time>2021-01-09T14:32:21Z</time>
      </trkpt>
      <trkpt lat="43.61213" lon="3.81472">
        <ele>37</ele>
        <time>2021-01-09T14:32:22Z</time>
      </trkpt>
      <trkpt lat="43.61217" lon="3.81474">
        <ele>37</ele>
        <time>2021-01-09T14:32:23Z</time>
      </trkpt>
      <trkpt lat="43.61221" lon="3.81476">
        <ele>38</ele>
        <time>2021-01-09T14:32:24Z</time>
      </trkpt>
      <trkpt lat="43.61224" lon="3.8148">
        <ele>37</ele>
        <time>2021-01-09T14:32:25Z</time>
      </trkpt>
      <trkpt lat="43.61227" lon="3.81483">
        <ele>37</ele>
        <time>2021-01-09T14:32:26Z</time>
      </trkpt>
      <trkpt lat="43.61231" lon="3.81487">
        <ele>37</ele>
        <time>2021-01-09T14:32:27Z</time>
      </trkpt>
      <trkpt lat="43.61234" lon="3.81491">
        <ele>37</ele>
        <time>2021-01-09T14:32:28Z</time>
      </trkpt>
      <trkpt lat="43.61237" lon="3.81495">
        <ele>37</ele>
        <time>2021-01-09T14:32:29Z</time>
      </trkpt>
      <trkpt lat="43.6124" lon="3.81499">
        <ele>37</ele>
        <time>2021-01-09T14:32:30Z</time>
      </trkpt>
      <trkpt lat="43.61243" lon="3.81502">
        <ele>37</ele>
        <time>2021-01-09T14:32:31Z</time>
      </trkpt>
      <trkpt lat="43.61246" lon="3.81506">
        <ele>37</ele>
        <time>2021-01-09T14:32:32Z</time>
      </trkpt>
      <trkpt lat="43.6125" lon="3.8151">
        <ele>37</ele>
        <time>2021-01-09T14:32:33Z</time>
      </trkpt>
      <trkpt lat="43.61253" lon="3.81514">
        <ele>39</ele>
        <time>2021-01-09T14:32:34Z</time>
      </trkpt>
      <trkpt lat="43.61256" lon="3.81518">
        <ele>37.1</ele>
        <time>2021-01-09T14:32:35Z</time>
      </trkpt>
      <trkpt lat="43.6126" lon="3.81522">
        <ele>37.1</ele>
        <time>2021-01-09T14:32:36Z</time>
      </trkpt>
      <trkpt lat="43.61263" lon="3.81526">
        <ele>37</ele>
        <time>2021-01-09T14:32:37Z</time>
      </trkpt>
      <trkpt lat="43.61266" lon="3.81529">
        <ele>37</ele>
        <time>2021-01-09T14:32:38Z</time>
      </trkpt>
      <trkpt lat="43.6127" lon="3.81533">
        <ele>36.9</ele>
        <time>2021-01-09T14:32:39Z</time>
      </trkpt>
      <trkpt lat="43.61273" lon="3.81537">
        <ele>36.9</ele>
        <time>2021-01-09T14:32:40Z</time>
      </trkpt>
      <trkpt lat="43.61276" lon="3.81541">
        <ele>37</ele>
        <time>2021-01-09T14:32:41Z</time>
      </trkpt>
      <trkpt lat="43.61279" lon="3.81545">
        <ele>37</ele>
        <time>2021-01-09T14:32:42Z</time>
      </trkpt>
      <trkpt lat="43.61282" lon="3.8155">
        <ele>37</ele>
        <time>2021-01-09T14:32:43Z</time>
      </trkpt>
      <trkpt lat="43.61285" lon="3.81554">
        <ele>39</ele>
        <time>2021-01-09T14:32:44Z</time>
      </trkpt>
      <trkpt lat="43.61288" lon="3.81558">
        <ele>36.9</ele>
        <time>2021-01-09T14:32:45Z</time>
      </trkpt>
      <trkpt lat="43.61291" lon="3.81562">
        <ele>36.9</ele>
        <time>2021-01-09T14:32:46Z</time>
      </trkpt>
      <trkpt lat="43.61294" lon="3.81566">
        <ele>36.8</ele>
        <time>2021-01-09T14:32:47Z</time>
      </trkpt>
      <trkpt lat="43.61297" lon="3.81571">
        <ele>36.8</ele>
        <time>2021-01-09T14:32:48Z</time>
      </trkpt>
      <trkpt lat="43.613" lon="3.81575">
        <ele>36.9</ele>
        <time>2021-01-09T14:32:49Z</time>
      </trkpt>
      <trkpt lat="43.61302" lon="3.81579">
        <ele>36.9</ele>
        <time>2021-01-09T14:32:50Z</time>
      </trkpt>
      <trkpt lat="43.61305" lon="3.81584">
        <ele>37</ele>
        <time>2021-01-09T14:32:51Z</time>
      </trkpt>
      <trkpt lat="43.61307" lon="3.81589">
        <ele>37</ele>
        <time>2021-01-09T14:32:52Z</time>
      </trkpt>
      <trkpt lat="43.6131" lon="3.81593">
        <ele>37</ele>
        <time>2021-01-09T14:32:53Z</time>
      </trkpt>
      <trkpt lat="43.61313" lon="3.81598">
        <ele>40</ele>
        <time>2021-01-09T14:32:54Z</time>
      </trkpt>
      <trkpt lat="43.61316" lon="3.81602">
        <ele>37</ele>
        <time>2021-01-09T14:32:55Z</time>
      </trkpt>
      <trkpt lat="43.61319" lon="3.81606">
        <ele>37</ele>
        <time>2021-01-09T14:32:56Z</time>
      </trkpt>
      <trkpt lat="43.61323" lon="3.81609">
        <ele>37</ele>
        <time>2021-01-09T14:32:57Z</time>
      </trkpt>
      <trkpt lat="43.61327" lon="3.81611">
        <ele>37</ele>
        <time>2021-01-09T14:32:58Z</time>
      </trkpt>
      <trkpt lat="43.61331" lon="3.81613">
        <ele>37</ele>
        <time>2021-01-09T14:32:59Z</time>
      </trkpt>
      <trkpt lat="43.61335" lon="3.81614">
        <ele>37</ele>
        <time>2021-01-09T14:33:00Z</time>
      </trkpt>
      <trkpt lat="43.6134" lon="3.81614">
        <ele>37</ele>
        <time>2021-01-09T14:33:01Z</time>
      </trkpt>
      <trkpt lat="43.61343" lon="3.81614">
        <ele>37</ele>
        <time>2021-01-09T14:33:02Z</time>
      </trkpt>
      <trkpt lat="43.61348" lon="3.81612">
        <ele>37</ele>
        <time>2021-01-09T14:33:03Z</time>
      </trkpt>
      <trkpt lat="43.61352" lon="3.81609">
        <ele>39</ele>
        <time>2021-01-09T14:33:04Z</time>
      </trkpt>
      <trkpt lat="43.61355" lon="3.81607">
        <ele>37</ele>
        <time>2021-01-09T14:33:05Z</time>
      </trkpt>
      <trkpt lat="43.61359" lon="3.81603">
        <ele>37</ele>
        <time>2021-01-09T14:33:06Z</time>
      </trkpt>
      <trkpt lat="43.61363" lon="3.816">
        <ele>37</ele>
        <time>2021-01-09T14:33:07Z</time>
      </trkpt>
      <trkpt lat="43.61367" lon="3.81597">
        <ele>36.9</ele>
        <time>2021-01-09T14:33:08Z</time>
      </trkpt>
      <trkpt lat="43.6137" lon="3.81594">
        <ele>36.9</ele>
        <time>2021-01-09T14:33:09Z</time>
      </trkpt>
      <trkpt lat="43.61374" lon="3.81591">
        <ele>36.9</ele>
        <time>2021-01-09T14:33:10Z</time>
      </trkpt>
      <trkpt lat="43.61378" lon="3.81588">
        <ele>36.9</ele>
        <time>2021-01-09T14:33:11Z</time>
      </trkpt>
      <trkpt lat="43.61382" lon="3.81586">
        <ele>36.9</ele>
        <time>2021-01-09T14:33:12Z</time>
      </trkpt>
      <trkpt lat="43.61386" lon="3.81583">
        <ele>37</ele>
        <time>2021-01-09T14:33:13Z</time>
      </trkpt>
      <trkpt lat="43.6139" lon="3.81581">
        <ele>40</ele>
        <time>2021-01-09T14:33:14Z</time>
      </trkpt>
      <trkpt lat="43.61394" lon="3.81579">
        <ele>37</ele>
        <time>2021-01-09T14:33:15Z</time>
      </trkpt>
      <trkpt lat="43.61398" lon="3.81578">
        <ele>36.9</ele>
        <time>2021-01-09T14:33:16Z</time>
      </trkpt>
      <trkpt lat="43.61402" lon="3.81577">
        <ele>36.9</ele>
        <time>2021-01-09T14:33:17Z</time>
      </trkpt>
      <trkpt lat="43.61406" lon="3.81575">
        <ele>36.9</ele>
        <time>2021-01-09T14:33:18Z</time>
      </trkpt>
      <trkpt lat="43.6141" lon="3.81572">
        <ele>37</ele>
        <time>2021-01-09T14:33:19Z</time>
      </trkpt>
      <trkpt lat="43.61415" lon="3.8157">
        <ele>37</ele>
        <time>2021-01-09T14:33:20Z</time>
      </trkpt>
      <trkpt lat="43.61419" lon="3.81568">
        <ele>37.1</ele>
        <time>2021-01-09T14:33:21Z</time>
      </trkpt>
      <trkpt lat="43.61423" lon="3.81566">
        <ele>37.2</ele>
        <time>2021-01-09T14:33:22Z</time>
      </trkpt>
      <trkpt lat="43.61427" lon="3.81564">
        <ele>37.4</ele>
        <time>2021-01-09T14:33:23Z</time>
      </trkpt>
      <trkpt lat="43.61431" lon="3.81562">
        <ele>40</ele>
        <time>2021-01-09T14:33:24Z</time>
      </trkpt>
      <trkpt lat="43.61435" lon="3.8156">
        <ele>37.7</ele>
        <time>2021-01-09T14:33:25Z</time>
      </trkpt>
      <trkpt lat="43.61439" lon="3.81558">
        <ele>37.8</ele>
        <time>2021-01-09T14:33:26Z</time>
      </trkpt>
      <trkpt lat="43.61442" lon="3.81556">
        <ele>38</ele>
        <time>2021-01-09T14:33:27Z</time>
      </trkpt>
      <trkpt lat="43.61446" lon="3.81554">
        <ele>38.1</ele>
        <time>2021-01-09T14:33:28Z</time>
      </trkpt>
      <trkpt lat="43.6145" lon="3.81553">
        <ele>38.1</ele>
        <time>2021-01-09T14:33:29Z</time>
      </trkpt>
      <trkpt lat="43.61453" lon="3.81552">
        <ele>38.1</ele>
        <time>2021-01-09T14:33:30Z</time>
      </trkpt>
      <trkpt lat="43.61456" lon="3.8155">
        <ele>38.2</ele>
        <time>2021-01-09T14:33:31Z</time>
      </trkpt>
      <trkpt lat="43.61458" lon="3.81548">
        <ele>38.3</ele>
        <time>2021-01-09T14:33:32Z</time>
      </trkpt>
      <trkpt lat="43.61462" lon="3.81548">
        <ele>38.3</ele>
        <time>2021-01-09T14:33:33Z</time>
      </trkpt>
      <trkpt lat="43.61465" lon="3.81549">
        <ele>41</ele>
        <time>2021-01-09T14:33:34Z</time>
      </trkpt>
      <trkpt lat="43.61468" lon="3.81551">
        <ele>38.2</ele>
        <time>2021-01-09T14:33:35Z</time>
      </trkpt>
      <trkpt lat="43.61471" lon="3.81555">
        <ele>38</ele>
        <time>2021-01-09T14:33:36Z</time>
      </trkpt>
      <trkpt lat="43.61473" lon="3.81561">
        <ele>38</ele>
        <time>2021-01-09T14:33:37Z</time>
      </trkpt>
      <trkpt lat="43.61475" lon="3.81567">
        <ele>38.1</ele>
        <time>2021-01-09T14:33:38Z</time>
      </trkpt>
      <trkpt lat="43.61476" lon="3.81574">
        <ele>38.1</ele>
        <time>2021-01-09T14:33:39Z</time>
      </trkpt>
      <trkpt lat="43.61478" lon="3.8158">
        <ele>38</ele>
        <time>2021-01-09T14:33:40Z</time>
      </trkpt>
      <trkpt lat="43.61479" lon="3.81586">
        <ele>37.9</ele>
        <time>2021-01-09T14:33:41Z</time>
      </trkpt>
      <trkpt lat="43.61481" lon="3.81592">
        <ele>37.6</ele>
        <time>2021-01-09T14:33:42Z</time>
      </trkpt>
      <trkpt lat="43.61482" lon="3.81598">
        <ele>37.3</ele>
        <time>2021-01-09T14:33:43Z</time>
      </trkpt>
      <trkpt lat="43.61484" lon="3.81604">
        <ele>40</ele>
        <time>2021-01-09T14:33:44Z</time>
      </trkpt>
      <trkpt lat="43.61485" lon="3.8161">
        <ele>37</ele>
        <time>2021-01-09T14:33:45Z</time>
      </trkpt>
      <trkpt lat="43.61487" lon="3.81615">
        <ele>36.9</ele>
        <time>2021-01-09T14:33:46Z</time>
      </trkpt>
      <trkpt lat="43.61488" lon="3.81621">
        <ele>36.8</ele>
        <time>2021-01-09T14:33:47Z</time>
      </trkpt>
      <trkpt lat="43.61489" lon="3.81627">
        <ele>36.8</ele>
        <time>2021-01-09T14:33:48Z</time>
      </trkpt>
      <trkpt lat="43.61491" lon="3.81633">
        <ele>36.8</ele>
        <time>2021-01-09T14:33:49Z</time>
      </trkpt>
      <trkpt lat="43.61492" lon="3.81637">
        <ele>36.9</ele>
        <time>2021-01-09T14:33:50Z</time>
      </trkpt>
      <trkpt lat="43.61494" lon="3.81641">
        <ele>37.1</ele>
        <time>2021-01-09T14:33:51Z</time>
      </trkpt>
      <trkpt lat="43.61496" lon="3.81646">
        <ele>37.4</ele>
        <time>2021-01-09T14:33:52Z</time>
      </trkpt>
      <trkpt lat="43.61497" lon="3.8165">
        <ele>37.5</ele>
        <time>2021-01-09T14:33:53Z</time>
      </trkpt>
      <trkpt lat="43.61499" lon="3.81654">
        <ele>41</ele>
        <time>2021-01-09T14:33:54Z</time>
      </trkpt>
      <trkpt lat="43.615" lon="3.81659">
        <ele>38</ele>
        <time>2021-01-09T14:33:55Z</time>
      </trkpt>
      <trkpt lat="43.61501" lon="3.81664">
        <ele>37.9</ele>
        <time>2021-01-09T14:33:56Z</time>
      </trkpt>
      <trkpt lat="43.61502" lon="3.81668">
        <ele>37.5</ele>
        <time>2021-01-09T14:33:57Z</time>
      </trkpt>
      <trkpt lat="43.61503" lon="3.81672">
        <ele>36.7</ele>
        <time>2021-01-09T14:33:58Z</time>
      </trkpt>
      <trkpt lat="43.61505" lon="3.81676">
        <ele>35.8</ele>
        <time>2021-01-09T14:33:59Z</time>
      </trkpt>
      <trkpt lat="43.61506" lon="3.81678">
        <ele>35.4</ele>
        <time>2021-01-09T14:34:00Z</time>
      </trkpt>
      <trkpt lat="43.61507" lon="3.81682">
        <ele>34.8</ele>
        <time>2021-01-09T14:34:02Z</time>
      </trkpt>
      <trkpt lat="43.61508" lon="3.81685">
        <ele>41</ele>
        <time>2021-01-09T14:34:04Z</time>
      </trkpt>
      <trkpt lat="43.61509" lon="3.81688">
        <ele>33.9</ele>
        <time>2021-01-09T14:34:06Z</time>
      </trkpt>
      <trkpt lat="43.61509" lon="3.81691">
        <ele>33.5</ele>
        <time>2021-01-09T14:34:07Z</time>
      </trkpt>
      <trkpt lat="43.6151" lon="3.81694">
        <ele>33.1</ele>
        <time>2021-01-09T14:34:08Z</time>
      </trkpt>
      <trkpt lat="43.61511" lon="3.81697">
        <ele>32.9</ele>
        <time>2021-01-09T14:34:09Z</time>
      </trkpt>
      <trkpt lat="43.61512" lon="3.81701">
        <ele>32.6</ele>
        <time>2021-01-09T14:34:10Z</time>
      </trkpt>
      <trkpt lat="43.61513" lon="3.81705">
        <ele>32.4</ele>
        <time>2021-01-09T14:34:11Z</time>
      </trkpt>
      <trkpt lat="43.61514" lon="3.81709">
        <ele>32.2</ele>
        <time>2021-01-09T14:34:12Z</time>
      </trkpt>
      <trkpt lat="43.61515" lon="3.81713">
        <ele>32</ele>
        <time>2021-01-09T14:34:13Z</time>
      </trkpt>
      <trkpt lat="43.61516" lon="3.81717">
        <ele>42</ele>
        <time>2021-01-09T14:34:14Z</time>
      </trkpt>
      <trkpt lat="43.61517" lon="3.81722">
        <ele>31.6</ele>
        <time>2021-01-09T14:34:15Z</time>
      </trkpt>
      <trkpt lat="43.61518" lon="3.81726">
        <ele>32.2</ele>
        <time>2021-01-09T14:34:16Z</time>
      </trkpt>
      <trkpt lat="43.61519" lon="3.8173">
        <ele>32.9</ele>
        <time>2021-01-09T14:34:17Z</time>
      </trkpt>
      <trkpt lat="43.6152" lon="3.81735">
        <ele>33.8</ele>
        <time>2021-01-09T14:34:18Z</time>
      </trkpt>
      <trkpt lat="43.61522" lon="3.8174">
        <ele>35</ele>
        <time>2021-01-09T14:34:19Z</time>
      </trkpt>
      <trkpt lat="43.61523" lon="3.81744">
        <ele>35.9</ele>
        <time>2021-01-09T14:34:20Z</time>
      </trkpt>
      <trkpt lat="43.61524" lon="3.81749">
        <ele>37</ele>
        <time>2021-01-09T14:34:21Z</time>
      </trkpt>
      <trkpt lat="43.61525" lon="3.81754">
        <ele>37.4</ele>
        <time>2021-01-09T14:34:22Z</time>
      </trkpt>
      <trkpt lat="43.61527" lon="3.81759">
        <ele>37.9</ele>
        <time>2021-01-09T14:34:23Z</time>
      </trkpt>
      <trkpt lat="43.61528" lon="3.81764">
        <ele>41</ele>
        <time>2021-01-09T14:34:24Z</time>
      </trkpt>
      <trkpt lat="43.61529" lon="3.81769">
        <ele>37.9</ele>
        <time>2021-01-09T14:34:25Z</time>
      </trkpt>
      <trkpt lat="43.6153" lon="3.81774">
        <ele>37.7</ele>
        <time>2021-01-09T14:34:26Z</time>
      </trkpt>
      <trkpt lat="43.61531" lon="3.8178">
        <ele>37.6</ele>
        <time>2021-01-09T14:34:27Z</time>
      </trkpt>
      <trkpt lat="43.61533" lon="3.81785">
        <ele>37.3</ele>
        <time>2021-01-09T14:34:28Z</time>
      </trkpt>
      <trkpt lat="43.61535" lon="3.81791">
        <ele>37.1</ele>
        <time>2021-01-09T14:34:29Z</time>
      </trkpt>
      <trkpt lat="43.61536" lon="3.81797">
        <ele>37</ele>
        <time>2021-01-09T14:34:30Z</time>
      </trkpt>
      <trkpt lat="43.61538" lon="3.81804">
        <ele>37</ele>
        <time>2021-01-09T14:34:31Z</time>
      </trkpt>
      <trkpt lat="43.6154" lon="3.8181">
        <ele>36.9</ele>
        <time>2021-01-09T14:34:32Z</time>
      </trkpt>
      <trkpt lat="43.61542" lon="3.81816">
        <ele>36.8</ele>
        <time>2021-01-09T14:34:33Z</time>
      </trkpt>
      <trkpt lat="43.61543" lon="3.81822">
        <ele>41</ele>
        <time>2021-01-09T14:34:34Z</time>
      </trkpt>
      <trkpt lat="43.61545" lon="3.81828">
        <ele>36.9</ele>
        <time>2021-01-09T14:34:35Z</time>
      </trkpt>
      <trkpt lat="43.61547" lon="3.81834">
        <ele>37.1</ele>
        <time>2021-01-09T14:34:36Z</time>
      </trkpt>
      <trkpt lat="43.61549" lon="3.8184">
        <ele>37.1</ele>
        <time>2021-01-09T14:34:37Z</time>
      </trkpt>
      <trkpt lat="43.6155" lon="3.81846">
        <ele>36.9</ele>
        <time>2021-01-09T14:34:38Z</time>
      </trkpt>
      <trkpt lat="43.61551" lon="3.81852">
        <ele>36.8</ele>
        <time>2021-01-09T14:34:39Z</time>
      </trkpt>
      <trkpt lat="43.61553" lon="3.81858">
        <ele>36.8</ele>
        <time>2021-01-09T14:34:40Z</time>
      </trkpt>
      <trkpt lat="43.61553" lon="3.81865">
        <ele>36.9</ele>
        <time>2021-01-09T14:34:41Z</time>
      </trkpt>
      <trkpt lat="43.61553" lon="3.81872">
        <ele>37.1</ele>
        <time>2021-01-09T14:34:42Z</time>
      </trkpt>
      <trkpt lat="43.61552" lon="3.81879">
        <ele>37.2</ele>
        <time>2021-01-09T14:34:43Z</time>
      </trkpt>
      <trkpt lat="43.61551" lon="3.81885">
        <ele>40</ele>
        <time>2021-01-09T14:34:44Z</time>
      </trkpt>
      <trkpt lat="43.61551" lon="3.81891">
        <ele>37.4</ele>
        <time>2021-01-09T14:34:45Z</time>
      </trkpt>
      <trkpt lat="43.61551" lon="3.81897">
        <ele>37.4</ele>
        <time>2021-01-09T14:34:46Z</time>
      </trkpt>
      <trkpt lat="43.61551" lon="3.81903">
        <ele>37.4</ele>
        <time>2021-01-09T14:34:47Z</time>
      </trkpt>
      <trkpt lat="43.6155" lon="3.81908">
        <ele>37.3</ele>
        <time>2021-01-09T14:34:48Z</time>
      </trkpt>
      <trkpt lat="43.61549" lon="3.81914">
        <ele>37.3</ele>
        <time>2021-01-09T14:34:49Z</time>
      </trkpt>
      <trkpt lat="43.61548" lon="3.8192">
        <ele>37.2</ele>
        <time>2021-01-09T14:34:50Z</time>
      </trkpt>
      <trkpt lat="43.61548" lon="3.81925">
        <ele>37.2</ele>
        <time>2021-01-09T14:34:51Z</time>
      </trkpt>
      <trkpt lat="43.61547" lon="3.81931">
        <ele>37.1</ele>
        <time>2021-01-09T14:34:52Z</time>
      </trkpt>
      <trkpt lat="43.61546" lon="3.81937">
        <ele>37</ele>
        <time>2021-01-09T14:34:53Z</time>
      </trkpt>
      <trkpt lat="43.61544" lon="3.81948">
        <ele>40</ele>
        <time>2021-01-09T14:34:54Z</time>
      </trkpt>
      <trkpt lat="43.61542" lon="3.81953">
        <ele>37</ele>
        <time>2021-01-09T14:34:56Z</time>
      </trkpt>
      <trkpt lat="43.61541" lon="3.81959">
        <ele>37.2</ele>
        <time>2021-01-09T14:34:57Z</time>
      </trkpt>
      <trkpt lat="43.61539" lon="3.81964">
        <ele>37.3</ele>
        <time>2021-01-09T14:34:58Z</time>
      </trkpt>
      <trkpt lat="43.61538" lon="3.81969">
        <ele>37.5</ele>
        <time>2021-01-09T14:34:59Z</time>
      </trkpt>
      <trkpt lat="43.61536" lon="3.81974">
        <ele>37.7</ele>
        <time>2021-01-09T14:35:00Z</time>
      </trkpt>
      <trkpt lat="43.61535" lon="3.8198">
        <ele>37.9</ele>
        <time>2021-01-09T14:35:01Z</time>
      </trkpt>
      <trkpt lat="43.61534" lon="3.81986">
        <ele>38.2</ele>
        <time>2021-01-09T14:35:02Z</time>
      </trkpt>
      <trkpt lat="43.61533" lon="3.81992">
        <ele>38.5</ele>
        <time>2021-01-09T14:35:03Z</time>
      </trkpt>
      <trkpt lat="43.61532" lon="3.81997">
        <ele>41</ele>
        <time>2021-01-09T14:35:04Z</time>
      </trkpt>
      <trkpt lat="43.61531" lon="3.82003">
        <ele>39.1</ele>
        <time>2021-01-09T14:35:05Z</time>
      </trkpt>
      <trkpt lat="43.6153" lon="3.82009">
        <ele>39.3</ele>
        <time>2021-01-09T14:35:06Z</time>
      </trkpt>
      <trkpt lat="43.61529" lon="3.82015">
        <ele>39.5</ele>
        <time>2021-01-09T14:35:07Z</time>
      </trkpt>
      <trkpt lat="43.61529" lon="3.8202">
        <ele>39.7</ele>
        <time>2021-01-09T14:35:08Z</time>
      </trkpt>
      <trkpt lat="43.6153" lon="3.82026">
        <ele>39.9</ele>
        <time>2021-01-09T14:35:09Z</time>
      </trkpt>
      <trkpt lat="43.6153" lon="3.82032">
        <ele>40.2</ele>
        <time>2021-01-09T14:35:10Z</time>
      </trkpt>
      <trkpt lat="43.61531" lon="3.82037">
        <ele>40.4</ele>
        <time>2021-01-09T14:35:11Z</time>
      </trkpt>
      <trkpt lat="43.61531" lon="3.82043">
        <ele>40.6</ele>
        <time>2021-01-09T14:35:12Z</time>
      </trkpt>
      <trkpt lat="43.61531" lon="3.82048">
        <ele>40.8</ele>
        <time>2021-01-09T14:35:13Z</time>
      </trkpt>
      <trkpt lat="43.61531" lon="3.82054">
        <ele>43</ele>
        <time>2021-01-09T14:35:14Z</time>
      </trkpt>
      <trkpt lat="43.6153" lon="3.8206">
        <ele>41.3</ele>
        <time>2021-01-09T14:35:15Z</time>
      </trkpt>
      <trkpt lat="43.6153" lon="3.82066">
        <ele>41.5</ele>
        <time>2021-01-09T14:35:16Z</time>
      </trkpt>
      <trkpt lat="43.6153" lon="3.82071">
        <ele>41.7</ele>
        <time>2021-01-09T14:35:17Z</time>
      </trkpt>
      <trkpt lat="43.61529" lon="3.82077">
        <ele>41.9</ele>
        <time>2021-01-09T14:35:18Z</time>
      </trkpt>
      <trkpt lat="43.61528" lon="3.82082">
        <ele>42</ele>
        <time>2021-01-09T14:35:19Z</time>
      </trkpt>
      <trkpt lat="43.61527" lon="3.82087">
        <ele>42.1</ele>
        <time>2021-01-09T14:35:20Z</time>
      </trkpt>
      <trkpt lat="43.61526" lon="3.82092">
        <ele>42.3</ele>
        <time>2021-01-09T14:35:21Z</time>
      </trkpt>
      <trkpt lat="43.61526" lon="3.82096">
        <ele>42.3</ele>
        <time>2021-01-09T14:35:22Z</time>
      </trkpt>
      <trkpt lat="43.61526" lon="3.82101">
        <ele>42.3</ele>
        <time>2021-01-09T14:35:23Z</time>
      </trkpt>
      <trkpt lat="43.61525" lon="3.82105">
        <ele>43</ele>
        <time>2021-01-09T14:35:24Z</time>
      </trkpt>
      <trkpt lat="43.61524" lon="3.8211">
        <ele>42.8</ele>
        <time>2021-01-09T14:35:25Z</time>
      </trkpt>
      <trkpt lat="43.61524" lon="3.82113">
        <ele>42.8</ele>
        <time>2021-01-09T14:35:26Z</time>
      </trkpt>
      <trkpt lat="43.61523" lon="3.82117">
        <ele>42.9</ele>
        <time>2021-01-09T14:35:27Z</time>
      </trkpt>
      <trkpt lat="43.61523" lon="3.82121">
        <ele>42.8</ele>
        <time>2021-01-09T14:35:28Z</time>
      </trkpt>
      <trkpt lat="43.61523" lon="3.82126">
        <ele>42.8</ele>
        <time>2021-01-09T14:35:29Z</time>
      </trkpt>
      <trkpt lat="43.61523" lon="3.82131">
        <ele>42.7</ele>
        <time>2021-01-09T14:35:30Z</time>
      </trkpt>
      <trkpt lat="43.61522" lon="3.82137">
        <ele>42.7</ele>
        <time>2021-01-09T14:35:31Z</time>
      </trkpt>
      <trkpt lat="43.61521" lon="3.82142">
        <ele>42.8</ele>
        <time>2021-01-09T14:35:32Z</time>
      </trkpt>
      <trkpt lat="43.6152" lon="3.82147">
        <ele>42.9</ele>
        <time>2021-01-09T14:35:33Z</time>
      </trkpt>
      <trkpt lat="43.61519" lon="3.82152">
        <ele>43</ele>
        <time>2021-01-09T14:35:34Z</time>
      </trkpt>
      <trkpt lat="43.61518" lon="3.82157">
        <ele>43</ele>
        <time>2021-01-09T14:35:35Z</time>
      </trkpt>
      <trkpt lat="43.61517" lon="3.82162">
        <ele>43</ele>
        <time>2021-01-09T14:35:36Z</time>
      </trkpt>
      <trkpt lat="43.61517" lon="3.82167">
        <ele>43</ele>
        <time>2021-01-09T14:35:37Z</time>
      </trkpt>
      <trkpt lat="43.61516" lon="3.82172">
        <ele>43.2</ele>
        <time>2021-01-09T14:35:38Z</time>
      </trkpt>
      <trkpt lat="43.61516" lon="3.82176">
        <ele>43.3</ele>
        <time>2021-01-09T14:35:39Z</time>
      </trkpt>
      <trkpt lat="43.61516" lon="3.82181">
        <ele>43.5</ele>
        <time>2021-01-09T14:35:40Z</time>
      </trkpt>
      <trkpt lat="43.61516" lon="3.82185">
        <ele>43.7</ele>
        <time>2021-01-09T14:35:41Z</time>
      </trkpt>
      <trkpt lat="43.61515" lon="3.82189">
        <ele>43.8</ele>
        <time>2021-01-09T14:35:42Z</time>
      </trkpt>
      <trkpt lat="43.61515" lon="3.82193">
        <ele>43.9</ele>
        <time>2021-01-09T14:35:43Z</time>
      </trkpt>
      <trkpt lat="43.61514" lon="3.82197">
        <ele>45</ele>
        <time>2021-01-09T14:35:44Z</time>
      </trkpt>
      <trkpt lat="43.61514" lon="3.822">
        <ele>44.1</ele>
        <time>2021-01-09T14:35:45Z</time>
      </trkpt>
      <trkpt lat="43.61512" lon="3.82203">
        <ele>44.1</ele>
        <time>2021-01-09T14:35:46Z</time>
      </trkpt>
      <trkpt lat="43.6151" lon="3.82206">
        <ele>44.1</ele>
        <time>2021-01-09T14:35:47Z</time>
      </trkpt>
      <trkpt lat="43.61508" lon="3.82208">
        <ele>44.1</ele>
        <time>2021-01-09T14:35:48Z</time>
      </trkpt>
      <trkpt lat="43.61505" lon="3.8221">
        <ele>44.1</ele>
        <time>2021-01-09T14:35:49Z</time>
      </trkpt>
      <trkpt lat="43.61502" lon="3.82211">
        <ele>44</ele>
        <time>2021-01-09T14:35:50Z</time>
      </trkpt>
      <trkpt lat="43.61498" lon="3.8221">
        <ele>44</ele>
        <time>2021-01-09T14:35:51Z</time>
      </trkpt>
      <trkpt lat="43.61494" lon="3.8221">
        <ele>43.9</ele>
        <time>2021-01-09T14:35:52Z</time>
      </trkpt>
      <trkpt lat="43.61491" lon="3.8221">
        <ele>43.9</ele>
        <time>2021-01-09T14:35:53Z</time>
      </trkpt>
      <trkpt lat="43.61487" lon="3.82209">
        <ele>45</ele>
        <time>2021-01-09T14:35:54Z</time>
      </trkpt>
      <trkpt lat="43.61483" lon="3.82209">
        <ele>43.7</ele>
        <time>2021-01-09T14:35:55Z</time>
      </trkpt>
      <trkpt lat="43.61479" lon="3.8221">
        <ele>43.7</ele>
        <time>2021-01-09T14:35:56Z</time>
      </trkpt>
      <trkpt lat="43.61474" lon="3.8221">
        <ele>43.6</ele>
        <time>2021-01-09T14:35:57Z</time>
      </trkpt>
      <trkpt lat="43.6147" lon="3.82212">
        <ele>43.6</ele>
        <time>2021-01-09T14:35:58Z</time>
      </trkpt>
      <trkpt lat="43.61466" lon="3.82213">
        <ele>43.5</ele>
        <time>2021-01-09T14:35:59Z</time>
      </trkpt>
      <trkpt lat="43.61461" lon="3.82215">
        <ele>43.4</ele>
        <time>2021-01-09T14:36:00Z</time>
      </trkpt>
      <trkpt lat="43.61457" lon="3.82217">
        <ele>43.4</ele>
        <time>2021-01-09T14:36:01Z</time>
      </trkpt>
      <trkpt lat="43.61452" lon="3.82218">
        <ele>43.2</ele>
        <time>2021-01-09T14:36:02Z</time>
      </trkpt>
      <trkpt lat="43.61448" lon="3.8222">
        <ele>43.1</ele>
        <time>2021-01-09T14:36:03Z</time>
      </trkpt>
      <trkpt lat="43.61444" lon="3.82223">
        <ele>45</ele>
        <time>2021-01-09T14:36:04Z</time>
      </trkpt>
      <trkpt lat="43.6144" lon="3.82225">
        <ele>43.2</ele>
        <time>2021-01-09T14:36:05Z</time>
      </trkpt>
      <trkpt lat="43.61437" lon="3.82227">
        <ele>43.3</ele>
        <time>2021-01-09T14:36:06Z</time>
      </trkpt>
      <trkpt lat="43.61434" lon="3.82228">
        <ele>43.4</ele>
        <time>2021-01-09T14:36:07Z</time>
      </trkpt>
      <trkpt lat="43.61431" lon="3.82229">
        <ele>43.5</ele>
        <time>2021-01-09T14:36:08Z</time>
      </trkpt>
      <trkpt lat="43.61429" lon="3.82231">
        <ele>43.6</ele>
        <time>2021-01-09T14:36:09Z</time>
      </trkpt>
      <trkpt lat="43.61427" lon="3.82232">
        <ele>43.7</ele>
        <time>2021-01-09T14:36:10Z</time>
      </trkpt>
      <trkpt lat="43.61424" lon="3.82234">
        <ele>43.8</ele>
        <time>2021-01-09T14:36:11Z</time>
      </trkpt>
      <trkpt lat="43.61422" lon="3.82236">
        <ele>44</ele>
        <time>2021-01-09T14:36:12Z</time>
      </trkpt>
      <trkpt lat="43.61419" lon="3.82238">
        <ele>44.1</ele>
        <time>2021-01-09T14:36:13Z</time>
      </trkpt>
      <trkpt lat="43.61417" lon="3.8224">
        <ele>46</ele>
        <time>2021-01-09T14:36:14Z</time>
      </trkpt>
      <trkpt lat="43.61414" lon="3.82242">
        <ele>44.4</ele>
        <time>2021-01-09T14:36:15Z</time>
      </trkpt>
      <trkpt lat="43.61411" lon="3.82244">
        <ele>44.6</ele>
        <time>2021-01-09T14:36:16Z</time>
      </trkpt>
      <trkpt lat="43.61408" lon="3.82247">
        <ele>44.8</ele>
        <time>2021-01-09T14:36:17Z</time>
      </trkpt>
      <trkpt lat="43.61405" lon="3.82249">
        <ele>44.9</ele>
        <time>2021-01-09T14:36:18Z</time>
      </trkpt>
      <trkpt lat="43.61403" lon="3.82251">
        <ele>45.1</ele>
        <time>2021-01-09T14:36:19Z</time>
      </trkpt>
      <trkpt lat="43.614" lon="3.82253">
        <ele>45.2</ele>
        <time>2021-01-09T14:36:20Z</time>
      </trkpt>
      <trkpt lat="43.61398" lon="3.82255">
        <ele>45.3</ele>
        <time>2021-01-09T14:36:21Z</time>
      </trkpt>
      <trkpt lat="43.61396" lon="3.82258">
        <ele>45.5</ele>
        <time>2021-01-09T14:36:22Z</time>
      </trkpt>
      <trkpt lat="43.61394" lon="3.8226">
        <ele>45.7</ele>
        <time>2021-01-09T14:36:23Z</time>
      </trkpt>
      <trkpt lat="43.61392" lon="3.82262">
        <ele>48</ele>
        <time>2021-01-09T14:36:24Z</time>
      </trkpt>
      <trkpt lat="43.6139" lon="3.82265">
        <ele>46.1</ele>
        <time>2021-01-09T14:36:25Z</time>
      </trkpt>
      <trkpt lat="43.61389" lon="3.82267">
        <ele>46.2</ele>
        <time>2021-01-09T14:36:26Z</time>
      </trkpt>
      <trkpt lat="43.61387" lon="3.8227">
        <ele>46.5</ele>
        <time>2021-01-09T14:36:27Z</time>
      </trkpt>
      <trkpt lat="43.61386" lon="3.82272">
        <ele>46.7</ele>
        <time>2021-01-09T14:36:28Z</time>
      </trkpt>
      <trkpt lat="43.61385" lon="3.82275">
        <ele>47</ele>
        <time>2021-01-09T14:36:29Z</time>
      </trkpt>
      <trkpt lat="43.61384" lon="3.82277">
        <ele>47.3</ele>
        <time>2021-01-09T14:36:30Z</time>
      </trkpt>
      <trkpt lat="43.61383" lon="3.82279">
        <ele>47.5</ele>
        <time>2021-01-09T14:36:31Z</time>
      </trkpt>
      <trkpt lat="43.61381" lon="3.82283">
        <ele>47.9</ele>
        <time>2021-01-09T14:36:33Z</time>
      </trkpt>
      <trkpt lat="43.61379" lon="3.82286">
        <ele>48.2</ele>
        <time>2021-01-09T14:36:35Z</time>
      </trkpt>
      <trkpt lat="43.61377" lon="3.8229">
        <ele>48.7</ele>
        <time>2021-01-09T14:36:37Z</time>
      </trkpt>
      <trkpt lat="43.61375" lon="3.82292">
        <ele>49</ele>
        <time>2021-01-09T14:36:38Z</time>
      </trkpt>
      <trkpt lat="43.61374" lon="3.82294">
        <ele>49.3</ele>
        <time>2021-01-09T14:36:39Z</time>
      </trkpt>
      <trkpt lat="43.61373" lon="3.82297">
        <ele>49.6</ele>
        <time>2021-01-09T14:36:40Z</time>
      </trkpt>
      <trkpt lat="43.61373" lon="3.82299">
        <ele>49.8</ele>
        <time>2021-01-09T14:36:41Z</time>
      </trkpt>
      <trkpt lat="43.61373" lon="3.82302">
        <ele>50</ele>
        <time>2021-01-09T14:36:42Z</time>
      </trkpt>
      <trkpt lat="43.61372" lon="3.82306">
        <ele>50.4</ele>
        <time>2021-01-09T14:36:43Z</time>
      </trkpt>
      <trkpt lat="43.61372" lon="3.82309">
        <ele>52</ele>
        <time>2021-01-09T14:36:44Z</time>
      </trkpt>
      <trkpt lat="43.61371" lon="3.82312">
        <ele>50.8</ele>
        <time>2021-01-09T14:36:45Z</time>
      </trkpt>
      <trkpt lat="43.61371" lon="3.82315">
        <ele>50.9</ele>
        <time>2021-01-09T14:36:46Z</time>
      </trkpt>
      <trkpt lat="43.61371" lon="3.82319">
        <ele>51.1</ele>
        <time>2021-01-09T14:36:47Z</time>
      </trkpt>
      <trkpt lat="43.61371" lon="3.82322">
        <ele>51.2</ele>
        <time>2021-01-09T14:36:48Z</time>
      </trkpt>
      <trkpt lat="43.61371" lon="3.82325">
        <ele>51.3</ele>
        <time>2021-01-09T14:36:49Z</time>
      </trkpt>
      <trkpt lat="43.61372" lon="3.82328">
        <ele>51.2</ele>
        <time>2021-01-09T14:36:50Z</time>
      </trkpt>
      <trkpt lat="43.61372" lon="3.82332">
        <ele>51.4</ele>
        <time>2021-01-09T14:36:51Z</time>
      </trkpt>
      <trkpt lat="43.61373" lon="3.82335">
        <ele>51.2</ele>
        <time>2021-01-09T14:36:52Z</time>
      </trkpt>
      <trkpt lat="43.61374" lon="3.82338">
        <ele>51</ele>
        <time>2021-01-09T14:36:53Z</time>
      </trkpt>
      <trkpt lat="43.61376" lon="3.82341">
        <ele>54</ele>
        <time>2021-01-09T14:36:54Z</time>
      </trkpt>
      <trkpt lat="43.61377" lon="3.82345">
        <ele>50.4</ele>
        <time>2021-01-09T14:36:55Z</time>
      </trkpt>
      <trkpt lat="43.61376" lon="3.82348">
        <ele>50.4</ele>
        <time>2021-01-09T14:36:56Z</time>
      </trkpt>
      <trkpt lat="43.61374" lon="3.8235">
        <ele>50.5</ele>
        <time>2021-01-09T14:36:57Z</time>
      </trkpt>
      <trkpt lat="43.61371" lon="3.82349">
        <ele>50.8</ele>
        <time>2021-01-09T14:36:58Z</time>
      </trkpt>
      <trkpt lat="43.61368" lon="3.82348">
        <ele>51.2</ele>
        <time>2021-01-09T14:36:59Z</time>
      </trkpt>
      <trkpt lat="43.61365" lon="3.82347">
        <ele>51.6</ele>
        <time>2021-01-09T14:37:00Z</time>
      </trkpt>
      <trkpt lat="43.61364" lon="3.82346">
        <ele>51.8</ele>
        <time>2021-01-09T14:37:01Z</time>
      </trkpt>
      <trkpt lat="43.61361" lon="3.82345">
        <ele>52.2</ele>
        <time>2021-01-09T14:37:03Z</time>
      </trkpt>
      <trkpt lat="43.61359" lon="3.82344">
        <ele>52.3</ele>
        <time>2021-01-09T14:37:05Z</time>
      </trkpt>
      <trkpt lat="43.61356" lon="3.82343">
        <ele>52.6</ele>
        <time>2021-01-09T14:37:07Z</time>
      </trkpt>
      <trkpt lat="43.61352" lon="3.82342">
        <ele>52.8</ele>
        <time>2021-01-09T14:37:09Z</time>
      </trkpt>
      <trkpt lat="43.61349" lon="3.82341">
        <ele>53</ele>
        <time>2021-01-09T14:37:11Z</time>
      </trkpt>
      <trkpt lat="43.61348" lon="3.8234">
        <ele>53.1</ele>
        <time>2021-01-09T14:37:12Z</time>
      </trkpt>
      <trkpt lat="43.61346" lon="3.82339">
        <ele>53.2</ele>
        <time>2021-01-09T14:37:13Z</time>
      </trkpt>
      <trkpt lat="43.61344" lon="3.82338">
        <ele>56</ele>
        <time>2021-01-09T14:37:14Z</time>
      </trkpt>
      <trkpt lat="43.61342" lon="3.82336">
        <ele>53.6</ele>
        <time>2021-01-09T14:37:15Z</time>
      </trkpt>
      <trkpt lat="43.6134" lon="3.82335">
        <ele>53.7</ele>
        <time>2021-01-09T14:37:16Z</time>
      </trkpt>
      <trkpt lat="43.61337" lon="3.82335">
        <ele>53.8</ele>
        <time>2021-01-09T14:37:18Z</time>
      </trkpt>
      <trkpt lat="43.61335" lon="3.82337">
        <ele>53.8</ele>
        <time>2021-01-09T14:37:19Z</time>
      </trkpt>
      <trkpt lat="43.61334" lon="3.82339">
        <ele>53.8</ele>
        <time>2021-01-09T14:37:20Z</time>
      </trkpt>
      <trkpt lat="43.61334" lon="3.82343">
        <ele>53.6</ele>
        <time>2021-01-09T14:37:22Z</time>
      </trkpt>
      <trkpt lat="43.61334" lon="3.82347">
        <ele>56</ele>
        <time>2021-01-09T14:37:24Z</time>
      </trkpt>
      <trkpt lat="43.61333" lon="3.8235">
        <ele>53.4</ele>
        <time>2021-01-09T14:37:25Z</time>
      </trkpt>
      <trkpt lat="43.61331" lon="3.82352">
        <ele>53.1</ele>
        <time>2021-01-09T14:37:26Z</time>
      </trkpt>
      <trkpt lat="43.61325" lon="3.82353">
        <ele>57</ele>
        <time>2021-01-09T14:40:06Z</time>
      </trkpt>
      <trkpt lat="43.61324" lon="3.82354">
        <ele>56</ele>
        <time>2021-01-09T14:40:13Z</time>
      </trkpt>
      <trkpt lat="43.61316" lon="3.82357">
        <ele>54</ele>
        <time>2021-01-09T14:44:38Z</time>
      </trkpt>
      <trkpt lat="43.61314" lon="3.8236">
        <ele>51.6</ele>
        <time>2021-01-09T14:44:39Z</time>
      </trkpt>
      <trkpt lat="43.61312" lon="3.82362">
        <ele>51.4</ele>
        <time>2021-01-09T14:44:40Z</time>
      </trkpt>
      <trkpt lat="43.61309" lon="3.82364">
        <ele>51</ele>
        <time>2021-01-09T14:44:42Z</time>
      </trkpt>
      <trkpt lat="43.61309" lon="3.82366">
        <ele>50.9</ele>
        <time>2021-01-09T14:44:43Z</time>
      </trkpt>
      <trkpt lat="43.61309" lon="3.82369">
        <ele>50.6</ele>
        <time>2021-01-09T14:44:44Z</time>
      </trkpt>
      <trkpt lat="43.6131" lon="3.82372">
        <ele>50.5</ele>
        <time>2021-01-09T14:44:45Z</time>
      </trkpt>
      <trkpt lat="43.6131" lon="3.82375">
        <ele>50.2</ele>
        <time>2021-01-09T14:44:46Z</time>
      </trkpt>
      <trkpt lat="43.61311" lon="3.82379">
        <ele>50</ele>
        <time>2021-01-09T14:44:47Z</time>
      </trkpt>
      <trkpt lat="43.61311" lon="3.82383">
        <ele>54</ele>
        <time>2021-01-09T14:44:48Z</time>
      </trkpt>
      <trkpt lat="43.61312" lon="3.82387">
        <ele>49.4</ele>
        <time>2021-01-09T14:44:49Z</time>
      </trkpt>
      <trkpt lat="43.61313" lon="3.82391">
        <ele>49.3</ele>
        <time>2021-01-09T14:44:50Z</time>
      </trkpt>
      <trkpt lat="43.61313" lon="3.82396">
        <ele>49.3</ele>
        <time>2021-01-09T14:44:51Z</time>
      </trkpt>
      <trkpt lat="43.61313" lon="3.82401">
        <ele>49.4</ele>
        <time>2021-01-09T14:44:52Z</time>
      </trkpt>
      <trkpt lat="43.61313" lon="3.82406">
        <ele>49.4</ele>
        <time>2021-01-09T14:44:53Z</time>
      </trkpt>
      <trkpt lat="43.61313" lon="3.82411">
        <ele>49.5</ele>
        <time>2021-01-09T14:44:54Z</time>
      </trkpt>
      <trkpt lat="43.61313" lon="3.82415">
        <ele>49.5</ele>
        <time>2021-01-09T14:44:55Z</time>
      </trkpt>
      <trkpt lat="43.61313" lon="3.8242">
        <ele>49.7</ele>
        <time>2021-01-09T14:44:56Z</time>
      </trkpt>
      <trkpt lat="43.61312" lon="3.82425">
        <ele>49.9</ele>
        <time>2021-01-09T14:44:57Z</time>
      </trkpt>
      <trkpt lat="43.6131" lon="3.82438">
        <ele>50.5</ele>
        <time>2021-01-09T14:44:59Z</time>
      </trkpt>
      <trkpt lat="43.61309" lon="3.82443">
        <ele>50.8</ele>
        <time>2021-01-09T14:45:00Z</time>
      </trkpt>
      <trkpt lat="43.61309" lon="3.82449">
        <ele>50.9</ele>
        <time>2021-01-09T14:45:01Z</time>
      </trkpt>
      <trkpt lat="43.61308" lon="3.82454">
        <ele>50.9</ele>
        <time>2021-01-09T14:45:02Z</time>
      </trkpt>
      <trkpt lat="43.61307" lon="3.82459">
        <ele>50.9</ele>
        <time>2021-01-09T14:45:03Z</time>
      </trkpt>
      <trkpt lat="43.61305" lon="3.82463">
        <ele>50.9</ele>
        <time>2021-01-09T14:45:04Z</time>
      </trkpt>
      <trkpt lat="43.61303" lon="3.82466">
        <ele>50.5</ele>
        <time>2021-01-09T14:45:05Z</time>
      </trkpt>
      <trkpt lat="43.61299" lon="3.82478">
        <ele>54</ele>
        <time>2021-01-09T14:45:08Z</time>
      </trkpt>
      <trkpt lat="43.61291" lon="3.82489">
        <ele>50.3</ele>
        <time>2021-01-09T14:45:10Z</time>
      </trkpt>
      <trkpt lat="43.61286" lon="3.82495">
        <ele>50.9</ele>
        <time>2021-01-09T14:45:12Z</time>
      </trkpt>
      <trkpt lat="43.61283" lon="3.82498">
        <ele>51.5</ele>
        <time>2021-01-09T14:45:13Z</time>
      </trkpt>
      <trkpt lat="43.61281" lon="3.82501">
        <ele>51.9</ele>
        <time>2021-01-09T14:45:14Z</time>
      </trkpt>
      <trkpt lat="43.61279" lon="3.82503">
        <ele>52.1</ele>
        <time>2021-01-09T14:45:15Z</time>
      </trkpt>
      <trkpt lat="43.61272" lon="3.82509">
        <ele>56</ele>
        <time>2021-01-09T14:45:18Z</time>
      </trkpt>
      <trkpt lat="43.61262" lon="3.82514">
        <ele>51.7</ele>
        <time>2021-01-09T14:45:19Z</time>
      </trkpt>
      <trkpt lat="43.61256" lon="3.82517">
        <ele>51.7</ele>
        <time>2021-01-09T14:45:21Z</time>
      </trkpt>
      <trkpt lat="43.61248" lon="3.82521">
        <ele>52</ele>
        <time>2021-01-09T14:45:22Z</time>
      </trkpt>
      <trkpt lat="43.61244" lon="3.82524">
        <ele>52.5</ele>
        <time>2021-01-09T14:45:23Z</time>
      </trkpt>
      <trkpt lat="43.61238" lon="3.82528">
        <ele>53</ele>
        <time>2021-01-09T14:45:24Z</time>
      </trkpt>
      <trkpt lat="43.61229" lon="3.82534">
        <ele>53.6</ele>
        <time>2021-01-09T14:45:25Z</time>
      </trkpt>
      <trkpt lat="43.61225" lon="3.82537">
        <ele>54</ele>
        <time>2021-01-09T14:45:26Z</time>
      </trkpt>
      <trkpt lat="43.61221" lon="3.8254">
        <ele>56</ele>
        <time>2021-01-09T14:45:28Z</time>
      </trkpt>
      <trkpt lat="43.61217" lon="3.82542">
        <ele>54.1</ele>
        <time>2021-01-09T14:45:29Z</time>
      </trkpt>
      <trkpt lat="43.61214" lon="3.82545">
        <ele>54.1</ele>
        <time>2021-01-09T14:45:30Z</time>
      </trkpt>
      <trkpt lat="43.6121" lon="3.82548">
        <ele>54</ele>
        <time>2021-01-09T14:45:31Z</time>
      </trkpt>
      <trkpt lat="43.61207" lon="3.82552">
        <ele>54</ele>
        <time>2021-01-09T14:45:32Z</time>
      </trkpt>
      <trkpt lat="43.61203" lon="3.82557">
        <ele>54</ele>
        <time>2021-01-09T14:45:33Z</time>
      </trkpt>
      <trkpt lat="43.612" lon="3.82563">
        <ele>53.8</ele>
        <time>2021-01-09T14:45:34Z</time>
      </trkpt>
      <trkpt lat="43.61198" lon="3.82569">
        <ele>53.8</ele>
        <time>2021-01-09T14:45:35Z</time>
      </trkpt>
      <trkpt lat="43.61197" lon="3.82576">
        <ele>53.9</ele>
        <time>2021-01-09T14:45:36Z</time>
      </trkpt>
      <trkpt lat="43.61196" lon="3.82583">
        <ele>54.1</ele>
        <time>2021-01-09T14:45:37Z</time>
      </trkpt>
      <trkpt lat="43.61195" lon="3.8259">
        <ele>57</ele>
        <time>2021-01-09T14:45:38Z</time>
      </trkpt>
      <trkpt lat="43.61194" lon="3.82597">
        <ele>54.5</ele>
        <time>2021-01-09T14:45:39Z</time>
      </trkpt>
      <trkpt lat="43.61193" lon="3.82604">
        <ele>54.7</ele>
        <time>2021-01-09T14:45:40Z</time>
      </trkpt>
      <trkpt lat="43.61192" lon="3.82611">
        <ele>54.9</ele>
        <time>2021-01-09T14:45:41Z</time>
      </trkpt>
      <trkpt lat="43.61191" lon="3.82618">
        <ele>54.9</ele>
        <time>2021-01-09T14:45:42Z</time>
      </trkpt>
      <trkpt lat="43.6119" lon="3.82624">
        <ele>54.8</ele>
        <time>2021-01-09T14:45:43Z</time>
      </trkpt>
      <trkpt lat="43.6119" lon="3.8263">
        <ele>54.8</ele>
        <time>2021-01-09T14:45:44Z</time>
      </trkpt>
      <trkpt lat="43.61189" lon="3.82637">
        <ele>54.8</ele>
        <time>2021-01-09T14:45:45Z</time>
      </trkpt>
      <trkpt lat="43.61188" lon="3.82643">
        <ele>54.8</ele>
        <time>2021-01-09T14:45:46Z</time>
      </trkpt>
      <trkpt lat="43.61187" lon="3.8265">
        <ele>54.7</ele>
        <time>2021-01-09T14:45:47Z</time>
      </trkpt>
      <trkpt lat="43.61186" lon="3.82657">
        <ele>58</ele>
        <time>2021-01-09T14:45:48Z</time>
      </trkpt>
      <trkpt lat="43.61184" lon="3.82663">
        <ele>54.6</ele>
        <time>2021-01-09T14:45:49Z</time>
      </trkpt>
      <trkpt lat="43.61183" lon="3.8267">
        <ele>54.6</ele>
        <time>2021-01-09T14:45:50Z</time>
      </trkpt>
      <trkpt lat="43.61182" lon="3.82677">
        <ele>54.7</ele>
        <time>2021-01-09T14:45:51Z</time>
      </trkpt>
      <trkpt lat="43.61181" lon="3.82684">
        <ele>54.8</ele>
        <time>2021-01-09T14:45:52Z</time>
      </trkpt>
      <trkpt lat="43.6118" lon="3.8269">
        <ele>54.9</ele>
        <time>2021-01-09T14:45:53Z</time>
      </trkpt>
      <trkpt lat="43.61179" lon="3.82697">
        <ele>55</ele>
        <time>2021-01-09T14:45:54Z</time>
      </trkpt>
      <trkpt lat="43.61178" lon="3.82704">
        <ele>54.9</ele>
        <time>2021-01-09T14:45:55Z</time>
      </trkpt>
      <trkpt lat="43.61176" lon="3.82711">
        <ele>54.8</ele>
        <time>2021-01-09T14:45:56Z</time>
      </trkpt>
      <trkpt lat="43.61175" lon="3.82718">
        <ele>54.7</ele>
        <time>2021-01-09T14:45:57Z</time>
      </trkpt>
      <trkpt lat="43.61174" lon="3.82724">
        <ele>59</ele>
        <time>2021-01-09T14:45:58Z</time>
      </trkpt>
      <trkpt lat="43.61173" lon="3.82731">
        <ele>55.1</ele>
        <time>2021-01-09T14:45:59Z</time>
      </trkpt>
      <trkpt lat="43.61171" lon="3.82738">
        <ele>55.4</ele>
        <time>2021-01-09T14:46:00Z</time>
      </trkpt>
      <trkpt lat="43.6117" lon="3.82745">
        <ele>55.7</ele>
        <time>2021-01-09T14:46:01Z</time>
      </trkpt>
      <trkpt lat="43.61169" lon="3.82752">
        <ele>55.9</ele>
        <time>2021-01-09T14:46:02Z</time>
      </trkpt>
      <trkpt lat="43.61168" lon="3.82759">
        <ele>55.6</ele>
        <time>2021-01-09T14:46:03Z</time>
      </trkpt>
      <trkpt lat="43.61168" lon="3.82766">
        <ele>55.4</ele>
        <time>2021-01-09T14:46:04Z</time>
      </trkpt>
      <trkpt lat="43.61167" lon="3.82773">
        <ele>55.2</ele>
        <time>2021-01-09T14:46:05Z</time>
      </trkpt>
      <trkpt lat="43.61165" lon="3.8278">
        <ele>55.2</ele>
        <time>2021-01-09T14:46:06Z</time>
      </trkpt>
      <trkpt lat="43.61164" lon="3.82787">
        <ele>55.5</ele>
        <time>2021-01-09T14:46:07Z</time>
      </trkpt>
      <trkpt lat="43.61163" lon="3.82794">
        <ele>58</ele>
        <time>2021-01-09T14:46:08Z</time>
      </trkpt>
      <trkpt lat="43.61162" lon="3.82801">
        <ele>56</ele>
        <time>2021-01-09T14:46:09Z</time>
      </trkpt>
      <trkpt lat="43.61161" lon="3.82809">
        <ele>56.2</ele>
        <time>2021-01-09T14:46:10Z</time>
      </trkpt>
      <trkpt lat="43.61161" lon="3.82816">
        <ele>56.2</ele>
        <time>2021-01-09T14:46:11Z</time>
      </trkpt>
      <trkpt lat="43.61162" lon="3.82823">
        <ele>56.2</ele>
        <time>2021-01-09T14:46:12Z</time>
      </trkpt>
      <trkpt lat="43.61163" lon="3.8283">
        <ele>56.1</ele>
        <time>2021-01-09T14:46:13Z</time>
      </trkpt>
      <trkpt lat="43.61165" lon="3.82836">
        <ele>56.2</ele>
        <time>2021-01-09T14:46:14Z</time>
      </trkpt>
      <trkpt lat="43.61167" lon="3.82843">
        <ele>56.3</ele>
        <time>2021-01-09T14:46:15Z</time>
      </trkpt>
      <trkpt lat="43.61169" lon="3.8285">
        <ele>56.5</ele>
        <time>2021-01-09T14:46:16Z</time>
      </trkpt>
      <trkpt lat="43.61171" lon="3.82856">
        <ele>56.7</ele>
        <time>2021-01-09T14:46:17Z</time>
      </trkpt>
      <trkpt lat="43.61172" lon="3.82863">
        <ele>59</ele>
        <time>2021-01-09T14:46:18Z</time>
      </trkpt>
      <trkpt lat="43.61175" lon="3.82869">
        <ele>56.7</ele>
        <time>2021-01-09T14:46:19Z</time>
      </trkpt>
      <trkpt lat="43.61177" lon="3.82875">
        <ele>56.6</ele>
        <time>2021-01-09T14:46:20Z</time>
      </trkpt>
      <trkpt lat="43.61179" lon="3.82882">
        <ele>56.6</ele>
        <time>2021-01-09T14:46:21Z</time>
      </trkpt>
      <trkpt lat="43.6118" lon="3.82889">
        <ele>56.5</ele>
        <time>2021-01-09T14:46:22Z</time>
      </trkpt>
      <trkpt lat="43.61181" lon="3.82896">
        <ele>56.6</ele>
        <time>2021-01-09T14:46:23Z</time>
      </trkpt>
      <trkpt lat="43.61182" lon="3.82903">
        <ele>56.7</ele>
        <time>2021-01-09T14:46:24Z</time>
      </trkpt>
      <trkpt lat="43.61183" lon="3.82911">
        <ele>56.9</ele>
        <time>2021-01-09T14:46:25Z</time>
      </trkpt>
      <trkpt lat="43.61185" lon="3.82918">
        <ele>57</ele>
        <time>2021-01-09T14:46:26Z</time>
      </trkpt>
      <trkpt lat="43.61186" lon="3.82926">
        <ele>57</ele>
        <time>2021-01-09T14:46:27Z</time>
      </trkpt>
      <trkpt lat="43.61187" lon="3.82933">
        <ele>59</ele>
        <time>2021-01-09T14:46:28Z</time>
      </trkpt>
      <trkpt lat="43.61188" lon="3.82941">
        <ele>57</ele>
        <time>2021-01-09T14:46:29Z</time>
      </trkpt>
      <trkpt lat="43.61189" lon="3.82948">
        <ele>57</ele>
        <time>2021-01-09T14:46:30Z</time>
      </trkpt>
      <trkpt lat="43.61189" lon="3.82956">
        <ele>57</ele>
        <time>2021-01-09T14:46:31Z</time>
      </trkpt>
      <trkpt lat="43.61189" lon="3.82964">
        <ele>57</ele>
        <time>2021-01-09T14:46:32Z</time>
      </trkpt>
      <trkpt lat="43.61189" lon="3.82972">
        <ele>57</ele>
        <time>2021-01-09T14:46:33Z</time>
      </trkpt>
      <trkpt lat="43.61188" lon="3.82979">
        <ele>57.1</ele>
        <time>2021-01-09T14:46:34Z</time>
      </trkpt>
      <trkpt lat="43.61187" lon="3.82986">
        <ele>57.1</ele>
        <time>2021-01-09T14:46:35Z</time>
      </trkpt>
      <trkpt lat="43.61184" lon="3.82992">
        <ele>57.3</ele>
        <time>2021-01-09T14:46:36Z</time>
      </trkpt>
      <trkpt lat="43.61181" lon="3.82999">
        <ele>57.5</ele>
        <time>2021-01-09T14:46:37Z</time>
      </trkpt>
      <trkpt lat="43.61178" lon="3.83005">
        <ele>59</ele>
        <time>2021-01-09T14:46:38Z</time>
      </trkpt>
      <trkpt lat="43.61174" lon="3.83011">
        <ele>57.5</ele>
        <time>2021-01-09T14:46:39Z</time>
      </trkpt>
      <trkpt lat="43.61171" lon="3.83017">
        <ele>57.4</ele>
        <time>2021-01-09T14:46:40Z</time>
      </trkpt>
      <trkpt lat="43.61168" lon="3.83023">
        <ele>57.2</ele>
        <time>2021-01-09T14:46:41Z</time>
      </trkpt>
      <trkpt lat="43.61166" lon="3.83029">
        <ele>57.1</ele>
        <time>2021-01-09T14:46:42Z</time>
      </trkpt>
      <trkpt lat="43.61164" lon="3.83036">
        <ele>57.5</ele>
        <time>2021-01-09T14:46:43Z</time>
      </trkpt>
      <trkpt lat="43.61162" lon="3.83042">
        <ele>57.8</ele>
        <time>2021-01-09T14:46:44Z</time>
      </trkpt>
      <trkpt lat="43.61161" lon="3.83049">
        <ele>58</ele>
        <time>2021-01-09T14:46:45Z</time>
      </trkpt>
      <trkpt lat="43.6116" lon="3.83055">
        <ele>58.2</ele>
        <time>2021-01-09T14:46:46Z</time>
      </trkpt>
      <trkpt lat="43.61159" lon="3.83061">
        <ele>58.4</ele>
        <time>2021-01-09T14:46:47Z</time>
      </trkpt>
      <trkpt lat="43.61158" lon="3.83067">
        <ele>61</ele>
        <time>2021-01-09T14:46:48Z</time>
      </trkpt>
      <trkpt lat="43.61156" lon="3.83073">
        <ele>58.8</ele>
        <time>2021-01-09T14:46:49Z</time>
      </trkpt>
      <trkpt lat="43.61155" lon="3.83079">
        <ele>58.9</ele>
        <time>2021-01-09T14:46:50Z</time>
      </trkpt>
      <trkpt lat="43.61153" lon="3.83085">
        <ele>59</ele>
        <time>2021-01-09T14:46:51Z</time>
      </trkpt>
      <trkpt lat="43.6115" lon="3.83092">
        <ele>59</ele>
        <time>2021-01-09T14:46:52Z</time>
      </trkpt>
      <trkpt lat="43.61148" lon="3.83098">
        <ele>59</ele>
        <time>2021-01-09T14:46:53Z</time>
      </trkpt>
      <trkpt lat="43.61147" lon="3.83105">
        <ele>59</ele>
        <time>2021-01-09T14:46:54Z</time>
      </trkpt>
      <trkpt lat="43.61145" lon="3.83112">
        <ele>59</ele>
        <time>2021-01-09T14:46:55Z</time>
      </trkpt>
      <trkpt lat="43.61144" lon="3.83119">
        <ele>59.1</ele>
        <time>2021-01-09T14:46:56Z</time>
      </trkpt>
      <trkpt lat="43.61142" lon="3.83126">
        <ele>59.1</ele>
        <time>2021-01-09T14:46:57Z</time>
      </trkpt>
      <trkpt lat="43.61141" lon="3.83132">
        <ele>64</ele>
        <time>2021-01-09T14:46:58Z</time>
      </trkpt>
      <trkpt lat="43.6114" lon="3.83139">
        <ele>59</ele>
        <time>2021-01-09T14:46:59Z</time>
      </trkpt>
      <trkpt lat="43.61139" lon="3.83146">
        <ele>59</ele>
        <time>2021-01-09T14:47:00Z</time>
      </trkpt>
      <trkpt lat="43.61138" lon="3.83153">
        <ele>59</ele>
        <time>2021-01-09T14:47:01Z</time>
      </trkpt>
      <trkpt lat="43.61136" lon="3.83159">
        <ele>59.2</ele>
        <time>2021-01-09T14:47:02Z</time>
      </trkpt>
      <trkpt lat="43.61135" lon="3.83166">
        <ele>59.3</ele>
        <time>2021-01-09T14:47:03Z</time>
      </trkpt>
      <trkpt lat="43.61133" lon="3.83172">
        <ele>59.7</ele>
        <time>2021-01-09T14:47:04Z</time>
      </trkpt>
      <trkpt lat="43.61132" lon="3.83178">
        <ele>60</ele>
        <time>2021-01-09T14:47:05Z</time>
      </trkpt>
      <trkpt lat="43.6113" lon="3.83184">
        <ele>60.3</ele>
        <time>2021-01-09T14:47:06Z</time>
      </trkpt>
      <trkpt lat="43.61128" lon="3.83191">
        <ele>60.5</ele>
        <time>2021-01-09T14:47:07Z</time>
      </trkpt>
      <trkpt lat="43.61126" lon="3.83197">
        <ele>66</ele>
        <time>2021-01-09T14:47:08Z</time>
      </trkpt>
      <trkpt lat="43.61125" lon="3.83203">
        <ele>60.5</ele>
        <time>2021-01-09T14:47:09Z</time>
      </trkpt>
      <trkpt lat="43.61124" lon="3.83209">
        <ele>60.5</ele>
        <time>2021-01-09T14:47:10Z</time>
      </trkpt>
      <trkpt lat="43.61123" lon="3.83215">
        <ele>60.4</ele>
        <time>2021-01-09T14:47:11Z</time>
      </trkpt>
      <trkpt lat="43.61121" lon="3.83221">
        <ele>60.4</ele>
        <time>2021-01-09T14:47:12Z</time>
      </trkpt>
      <trkpt lat="43.6112" lon="3.83227">
        <ele>60.5</ele>
        <time>2021-01-09T14:47:13Z</time>
      </trkpt>
      <trkpt lat="43.61118" lon="3.83233">
        <ele>60.6</ele>
        <time>2021-01-09T14:47:14Z</time>
      </trkpt>
      <trkpt lat="43.61116" lon="3.83239">
        <ele>60.8</ele>
        <time>2021-01-09T14:47:15Z</time>
      </trkpt>
      <trkpt lat="43.61115" lon="3.83246">
        <ele>61</ele>
        <time>2021-01-09T14:47:16Z</time>
      </trkpt>
      <trkpt lat="43.61113" lon="3.83252">
        <ele>61.1</ele>
        <time>2021-01-09T14:47:17Z</time>
      </trkpt>
      <trkpt lat="43.61111" lon="3.83258">
        <ele>68</ele>
        <time>2021-01-09T14:47:18Z</time>
      </trkpt>
      <trkpt lat="43.61109" lon="3.83264">
        <ele>60.9</ele>
        <time>2021-01-09T14:47:19Z</time>
      </trkpt>
      <trkpt lat="43.61107" lon="3.83271">
        <ele>60.9</ele>
        <time>2021-01-09T14:47:20Z</time>
      </trkpt>
      <trkpt lat="43.61106" lon="3.83277">
        <ele>60.8</ele>
        <time>2021-01-09T14:47:21Z</time>
      </trkpt>
      <trkpt lat="43.61104" lon="3.83284">
        <ele>61.1</ele>
        <time>2021-01-09T14:47:22Z</time>
      </trkpt>
      <trkpt lat="43.61102" lon="3.83291">
        <ele>61.5</ele>
        <time>2021-01-09T14:47:23Z</time>
      </trkpt>
      <trkpt lat="43.611" lon="3.83297">
        <ele>61.7</ele>
        <time>2021-01-09T14:47:24Z</time>
      </trkpt>
      <trkpt lat="43.61098" lon="3.83304">
        <ele>62</ele>
        <time>2021-01-09T14:47:25Z</time>
      </trkpt>
      <trkpt lat="43.61096" lon="3.8331">
        <ele>61.8</ele>
        <time>2021-01-09T14:47:26Z</time>
      </trkpt>
      <trkpt lat="43.61095" lon="3.83316">
        <ele>61.7</ele>
        <time>2021-01-09T14:47:27Z</time>
      </trkpt>
      <trkpt lat="43.61093" lon="3.83323">
        <ele>70</ele>
        <time>2021-01-09T14:47:28Z</time>
      </trkpt>
      <trkpt lat="43.61092" lon="3.83329">
        <ele>61.4</ele>
        <time>2021-01-09T14:47:29Z</time>
      </trkpt>
      <trkpt lat="43.6109" lon="3.83336">
        <ele>61.2</ele>
        <time>2021-01-09T14:47:30Z</time>
      </trkpt>
      <trkpt lat="43.61089" lon="3.83342">
        <ele>61.2</ele>
        <time>2021-01-09T14:47:31Z</time>
      </trkpt>
      <trkpt lat="43.61087" lon="3.83349">
        <ele>61.1</ele>
        <time>2021-01-09T14:47:32Z</time>
      </trkpt>
      <trkpt lat="43.61084" lon="3.83355">
        <ele>61</ele>
        <time>2021-01-09T14:47:33Z</time>
      </trkpt>
      <trkpt lat="43.6108" lon="3.8336">
        <ele>60.9</ele>
        <time>2021-01-09T14:47:34Z</time>
      </trkpt>
      <trkpt lat="43.61077" lon="3.83365">
        <ele>60.8</ele>
        <time>2021-01-09T14:47:35Z</time>
      </trkpt>
      <trkpt lat="43.61074" lon="3.83372">
        <ele>60.7</ele>
        <time>2021-01-09T14:47:36Z</time>
      </trkpt>
      <trkpt lat="43.61072" lon="3.83379">
        <ele>60.6</ele>
        <time>2021-01-09T14:47:37Z</time>
      </trkpt>
      <trkpt lat="43.61071" lon="3.83386">
        <ele>68</ele>
        <time>2021-01-09T14:47:38Z</time>
      </trkpt>
      <trkpt lat="43.6107" lon="3.83394">
        <ele>60.5</ele>
        <time>2021-01-09T14:47:39Z</time>
      </trkpt>
      <trkpt lat="43.61068" lon="3.83401">
        <ele>60.4</ele>
        <time>2021-01-09T14:47:40Z</time>
      </trkpt>
      <trkpt lat="43.61066" lon="3.83408">
        <ele>60.4</ele>
        <time>2021-01-09T14:47:41Z</time>
      </trkpt>
      <trkpt lat="43.61064" lon="3.83415">
        <ele>60.3</ele>
        <time>2021-01-09T14:47:42Z</time>
      </trkpt>
      <trkpt lat="43.61062" lon="3.83422">
        <ele>60.2</ele>
        <time>2021-01-09T14:47:43Z</time>
      </trkpt>
      <trkpt lat="43.6106" lon="3.83429">
        <ele>60.2</ele>
        <time>2021-01-09T14:47:44Z</time>
      </trkpt>
      <trkpt lat="43.61058" lon="3.83436">
        <ele>60.1</ele>
        <time>2021-01-09T14:47:45Z</time>
      </trkpt>
      <trkpt lat="43.61056" lon="3.83443">
        <ele>60</ele>
        <time>2021-01-09T14:47:46Z</time>
      </trkpt>
      <trkpt lat="43.61053" lon="3.83449">
        <ele>60</ele>
        <time>2021-01-09T14:47:47Z</time>
      </trkpt>
      <trkpt lat="43.61048" lon="3.83453">
        <ele>68</ele>
        <time>2021-01-09T14:47:48Z</time>
      </trkpt>
      <trkpt lat="43.61043" lon="3.83455">
        <ele>60</ele>
        <time>2021-01-09T14:47:49Z</time>
      </trkpt>
      <trkpt lat="43.61039" lon="3.83457">
        <ele>60</ele>
        <time>2021-01-09T14:47:50Z</time>
      </trkpt>
      <trkpt lat="43.61037" lon="3.83461">
        <ele>60</ele>
        <time>2021-01-09T14:47:51Z</time>
      </trkpt>
      <trkpt lat="43.61036" lon="3.83467">
        <ele>60</ele>
        <time>2021-01-09T14:47:52Z</time>
      </trkpt>
      <trkpt lat="43.61035" lon="3.83473">
        <ele>60</ele>
        <time>2021-01-09T14:47:53Z</time>
      </trkpt>
      <trkpt lat="43.61034" lon="3.8348">
        <ele>60</ele>
        <time>2021-01-09T14:47:54Z</time>
      </trkpt>
      <trkpt lat="43.61032" lon="3.83487">
        <ele>60</ele>
        <time>2021-01-09T14:47:55Z</time>
      </trkpt>
      <trkpt lat="43.61031" lon="3.83494">
        <ele>60</ele>
        <time>2021-01-09T14:47:56Z</time>
      </trkpt>
      <trkpt lat="43.6103" lon="3.835">
        <ele>60</ele>
        <time>2021-01-09T14:47:57Z</time>
      </trkpt>
      <trkpt lat="43.61029" lon="3.83507">
        <ele>68</ele>
        <time>2021-01-09T14:47:58Z</time>
      </trkpt>
      <trkpt lat="43.61027" lon="3.83514">
        <ele>60</ele>
        <time>2021-01-09T14:47:59Z</time>
      </trkpt>
      <trkpt lat="43.61025" lon="3.83527">
        <ele>60.1</ele>
        <time>2021-01-09T14:48:01Z</time>
      </trkpt>
      <trkpt lat="43.61024" lon="3.83534">
        <ele>60.1</ele>
        <time>2021-01-09T14:48:02Z</time>
      </trkpt>
      <trkpt lat="43.61023" lon="3.83541">
        <ele>60.1</ele>
        <time>2021-01-09T14:48:03Z</time>
      </trkpt>
      <trkpt lat="43.61022" lon="3.83548">
        <ele>60.1</ele>
        <time>2021-01-09T14:48:04Z</time>
      </trkpt>
      <trkpt lat="43.6102" lon="3.83554">
        <ele>60</ele>
        <time>2021-01-09T14:48:05Z</time>
      </trkpt>
      <trkpt lat="43.61018" lon="3.8356">
        <ele>60</ele>
        <time>2021-01-09T14:48:06Z</time>
      </trkpt>
      <trkpt lat="43.61017" lon="3.83567">
        <ele>60</ele>
        <time>2021-01-09T14:48:07Z</time>
      </trkpt>
      <trkpt lat="43.61014" lon="3.83581">
        <ele>66</ele>
        <time>2021-01-09T14:48:09Z</time>
      </trkpt>
      <trkpt lat="43.61013" lon="3.83588">
        <ele>60</ele>
        <time>2021-01-09T14:48:10Z</time>
      </trkpt>
      <trkpt lat="43.61012" lon="3.83595">
        <ele>60</ele>
        <time>2021-01-09T14:48:11Z</time>
      </trkpt>
      <trkpt lat="43.6101" lon="3.83603">
        <ele>60</ele>
        <time>2021-01-09T14:48:12Z</time>
      </trkpt>
      <trkpt lat="43.61009" lon="3.8361">
        <ele>60</ele>
        <time>2021-01-09T14:48:13Z</time>
      </trkpt>
      <trkpt lat="43.61008" lon="3.83618">
        <ele>60</ele>
        <time>2021-01-09T14:48:14Z</time>
      </trkpt>
      <trkpt lat="43.61006" lon="3.83625">
        <ele>60</ele>
        <time>2021-01-09T14:48:15Z</time>
      </trkpt>
      <trkpt lat="43.61005" lon="3.83632">
        <ele>60</ele>
        <time>2021-01-09T14:48:16Z</time>
      </trkpt>
      <trkpt lat="43.61003" lon="3.83639">
        <ele>60</ele>
        <time>2021-01-09T14:48:17Z</time>
      </trkpt>
      <trkpt lat="43.61002" lon="3.83646">
        <ele>65</ele>
        <time>2021-01-09T14:48:18Z</time>
      </trkpt>
      <trkpt lat="43.61" lon="3.83653">
        <ele>60</ele>
        <time>2021-01-09T14:48:19Z</time>
      </trkpt>
      <trkpt lat="43.60999" lon="3.83661">
        <ele>60</ele>
        <time>2021-01-09T14:48:20Z</time>
      </trkpt>
      <trkpt lat="43.60997" lon="3.83668">
        <ele>60</ele>
        <time>2021-01-09T14:48:21Z</time>
      </trkpt>
      <trkpt lat="43.60996" lon="3.83675">
        <ele>60</ele>
        <time>2021-01-09T14:48:22Z</time>
      </trkpt>
      <trkpt lat="43.60995" lon="3.83683">
        <ele>60</ele>
        <time>2021-01-09T14:48:23Z</time>
      </trkpt>
      <trkpt lat="43.60993" lon="3.8369">
        <ele>60</ele>
        <time>2021-01-09T14:48:24Z</time>
      </trkpt>
      <trkpt lat="43.60991" lon="3.83698">
        <ele>60</ele>
        <time>2021-01-09T14:48:25Z</time>
      </trkpt>
      <trkpt lat="43.60989" lon="3.83705">
        <ele>60</ele>
        <time>2021-01-09T14:48:26Z</time>
      </trkpt>
      <trkpt lat="43.60988" lon="3.83712">
        <ele>60</ele>
        <time>2021-01-09T14:48:27Z</time>
      </trkpt>
      <trkpt lat="43.60986" lon="3.83719">
        <ele>64</ele>
        <time>2021-01-09T14:48:28Z</time>
      </trkpt>
      <trkpt lat="43.60984" lon="3.83726">
        <ele>60</ele>
        <time>2021-01-09T14:48:29Z</time>
      </trkpt>
      <trkpt lat="43.60983" lon="3.83732">
        <ele>60</ele>
        <time>2021-01-09T14:48:30Z</time>
      </trkpt>
      <trkpt lat="43.60981" lon="3.83739">
        <ele>60</ele>
        <time>2021-01-09T14:48:31Z</time>
      </trkpt>
      <trkpt lat="43.60979" lon="3.83747">
        <ele>60</ele>
        <time>2021-01-09T14:48:32Z</time>
      </trkpt>
      <trkpt lat="43.60978" lon="3.83753">
        <ele>59.9</ele>
        <time>2021-01-09T14:48:33Z</time>
      </trkpt>
      <trkpt lat="43.60976" lon="3.8376">
        <ele>59.7</ele>
        <time>2021-01-09T14:48:34Z</time>
      </trkpt>
      <trkpt lat="43.60976" lon="3.83766">
        <ele>59.5</ele>
        <time>2021-01-09T14:48:35Z</time>
      </trkpt>
      <trkpt lat="43.60976" lon="3.83773">
        <ele>59.3</ele>
        <time>2021-01-09T14:48:36Z</time>
      </trkpt>
      <trkpt lat="43.60975" lon="3.8378">
        <ele>59.2</ele>
        <time>2021-01-09T14:48:37Z</time>
      </trkpt>
      <trkpt lat="43.60973" lon="3.83786">
        <ele>63</ele>
        <time>2021-01-09T14:48:38Z</time>
      </trkpt>
      <trkpt lat="43.60972" lon="3.83793">
        <ele>59.6</ele>
        <time>2021-01-09T14:48:39Z</time>
      </trkpt>
      <trkpt lat="43.60971" lon="3.838">
        <ele>59.8</ele>
        <time>2021-01-09T14:48:40Z</time>
      </trkpt>
      <trkpt lat="43.6097" lon="3.83806">
        <ele>60</ele>
        <time>2021-01-09T14:48:41Z</time>
      </trkpt>
      <trkpt lat="43.60968" lon="3.83813">
        <ele>60</ele>
        <time>2021-01-09T14:48:42Z</time>
      </trkpt>
      <trkpt lat="43.60967" lon="3.8382">
        <ele>60</ele>
        <time>2021-01-09T14:48:43Z</time>
      </trkpt>
      <trkpt lat="43.60966" lon="3.83827">
        <ele>60</ele>
        <time>2021-01-09T14:48:44Z</time>
      </trkpt>
      <trkpt lat="43.60965" lon="3.83834">
        <ele>60.1</ele>
        <time>2021-01-09T14:48:45Z</time>
      </trkpt>
      <trkpt lat="43.60964" lon="3.83841">
        <ele>61</ele>
        <time>2021-01-09T14:48:46Z</time>
      </trkpt>
      <trkpt lat="43.60963" lon="3.83848">
        <ele>61.8</ele>
        <time>2021-01-09T14:48:47Z</time>
      </trkpt>
      <trkpt lat="43.60962" lon="3.83855">
        <ele>62</ele>
        <time>2021-01-09T14:48:48Z</time>
      </trkpt>
      <trkpt lat="43.6096" lon="3.83862">
        <ele>62.8</ele>
        <time>2021-01-09T14:48:49Z</time>
      </trkpt>
      <trkpt lat="43.60958" lon="3.83869">
        <ele>62.3</ele>
        <time>2021-01-09T14:48:50Z</time>
      </trkpt>
      <trkpt lat="43.60957" lon="3.83876">
        <ele>62</ele>
        <time>2021-01-09T14:48:51Z</time>
      </trkpt>
      <trkpt lat="43.60955" lon="3.83883">
        <ele>61.6</ele>
        <time>2021-01-09T14:48:52Z</time>
      </trkpt>
      <trkpt lat="43.60953" lon="3.8389">
        <ele>61.2</ele>
        <time>2021-01-09T14:48:53Z</time>
      </trkpt>
      <trkpt lat="43.60952" lon="3.83897">
        <ele>60.7</ele>
        <time>2021-01-09T14:48:54Z</time>
      </trkpt>
      <trkpt lat="43.6095" lon="3.83904">
        <ele>60.1</ele>
        <time>2021-01-09T14:48:55Z</time>
      </trkpt>
      <trkpt lat="43.6095" lon="3.83909">
        <ele>59.9</ele>
        <time>2021-01-09T14:48:56Z</time>
      </trkpt>
      <trkpt lat="43.6095" lon="3.83914">
        <ele>59.7</ele>
        <time>2021-01-09T14:48:57Z</time>
      </trkpt>
      <trkpt lat="43.6095" lon="3.83919">
        <ele>62</ele>
        <time>2021-01-09T14:48:58Z</time>
      </trkpt>
      <trkpt lat="43.60949" lon="3.83925">
        <ele>59.3</ele>
        <time>2021-01-09T14:48:59Z</time>
      </trkpt>
      <trkpt lat="43.60947" lon="3.8393">
        <ele>59.1</ele>
        <time>2021-01-09T14:49:00Z</time>
      </trkpt>
      <trkpt lat="43.60946" lon="3.83936">
        <ele>59.1</ele>
        <time>2021-01-09T14:49:01Z</time>
      </trkpt>
      <trkpt lat="43.60944" lon="3.83942">
        <ele>59</ele>
        <time>2021-01-09T14:49:02Z</time>
      </trkpt>
      <trkpt lat="43.60943" lon="3.83948">
        <ele>59.1</ele>
        <time>2021-01-09T14:49:03Z</time>
      </trkpt>
      <trkpt lat="43.60942" lon="3.83955">
        <ele>59.1</ele>
        <time>2021-01-09T14:49:04Z</time>
      </trkpt>
      <trkpt lat="43.60941" lon="3.83962">
        <ele>59.1</ele>
        <time>2021-01-09T14:49:05Z</time>
      </trkpt>
      <trkpt lat="43.6094" lon="3.83969">
        <ele>59.2</ele>
        <time>2021-01-09T14:49:06Z</time>
      </trkpt>
      <trkpt lat="43.60939" lon="3.83976">
        <ele>59.2</ele>
        <time>2021-01-09T14:49:07Z</time>
      </trkpt>
      <trkpt lat="43.60938" lon="3.83983">
        <ele>62</ele>
        <time>2021-01-09T14:49:08Z</time>
      </trkpt>
      <trkpt lat="43.60937" lon="3.8399">
        <ele>59.3</ele>
        <time>2021-01-09T14:49:09Z</time>
      </trkpt>
      <trkpt lat="43.60936" lon="3.83997">
        <ele>59.3</ele>
        <time>2021-01-09T14:49:10Z</time>
      </trkpt>
      <trkpt lat="43.60936" lon="3.84004">
        <ele>59.3</ele>
        <time>2021-01-09T14:49:11Z</time>
      </trkpt>
      <trkpt lat="43.60936" lon="3.84012">
        <ele>59.2</ele>
        <time>2021-01-09T14:49:12Z</time>
      </trkpt>
      <trkpt lat="43.60936" lon="3.84019">
        <ele>59.1</ele>
        <time>2021-01-09T14:49:13Z</time>
      </trkpt>
      <trkpt lat="43.60936" lon="3.84026">
        <ele>59</ele>
        <time>2021-01-09T14:49:14Z</time>
      </trkpt>
      <trkpt lat="43.60934" lon="3.84033">
        <ele>58.9</ele>
        <time>2021-01-09T14:49:15Z</time>
      </trkpt>
      <trkpt lat="43.60932" lon="3.8404">
        <ele>58.8</ele>
        <time>2021-01-09T14:49:16Z</time>
      </trkpt>
      <trkpt lat="43.6093" lon="3.84046">
        <ele>58.7</ele>
        <time>2021-01-09T14:49:17Z</time>
      </trkpt>
      <trkpt lat="43.60927" lon="3.84053">
        <ele>61</ele>
        <time>2021-01-09T14:49:18Z</time>
      </trkpt>
      <trkpt lat="43.60925" lon="3.8406">
        <ele>58.7</ele>
        <time>2021-01-09T14:49:19Z</time>
      </trkpt>
      <trkpt lat="43.60924" lon="3.84066">
        <ele>58.8</ele>
        <time>2021-01-09T14:49:20Z</time>
      </trkpt>
      <trkpt lat="43.60922" lon="3.84073">
        <ele>58.9</ele>
        <time>2021-01-09T14:49:21Z</time>
      </trkpt>
      <trkpt lat="43.6092" lon="3.8408">
        <ele>59</ele>
        <time>2021-01-09T14:49:22Z</time>
      </trkpt>
      <trkpt lat="43.60919" lon="3.84087">
        <ele>59</ele>
        <time>2021-01-09T14:49:23Z</time>
      </trkpt>
      <trkpt lat="43.60917" lon="3.84094">
        <ele>59</ele>
        <time>2021-01-09T14:49:24Z</time>
      </trkpt>
      <trkpt lat="43.60915" lon="3.84101">
        <ele>59</ele>
        <time>2021-01-09T14:49:25Z</time>
      </trkpt>
      <trkpt lat="43.60913" lon="3.84108">
        <ele>59</ele>
        <time>2021-01-09T14:49:26Z</time>
      </trkpt>
      <trkpt lat="43.60912" lon="3.84115">
        <ele>59</ele>
        <time>2021-01-09T14:49:27Z</time>
      </trkpt>
      <trkpt lat="43.6091" lon="3.84122">
        <ele>61</ele>
        <time>2021-01-09T14:49:28Z</time>
      </trkpt>
      <trkpt lat="43.60908" lon="3.84129">
        <ele>59</ele>
        <time>2021-01-09T14:49:29Z</time>
      </trkpt>
      <trkpt lat="43.60907" lon="3.84137">
        <ele>59</ele>
        <time>2021-01-09T14:49:30Z</time>
      </trkpt>
      <trkpt lat="43.60905" lon="3.84144">
        <ele>59.2</ele>
        <time>2021-01-09T14:49:31Z</time>
      </trkpt>
      <trkpt lat="43.60903" lon="3.84152">
        <ele>59.5</ele>
        <time>2021-01-09T14:49:32Z</time>
      </trkpt>
      <trkpt lat="43.60902" lon="3.84159">
        <ele>59.7</ele>
        <time>2021-01-09T14:49:33Z</time>
      </trkpt>
      <trkpt lat="43.60901" lon="3.84167">
        <ele>60</ele>
        <time>2021-01-09T14:49:34Z</time>
      </trkpt>
      <trkpt lat="43.609" lon="3.84174">
        <ele>60</ele>
        <time>2021-01-09T14:49:35Z</time>
      </trkpt>
      <trkpt lat="43.609" lon="3.84181">
        <ele>60</ele>
        <time>2021-01-09T14:49:36Z</time>
      </trkpt>
      <trkpt lat="43.609" lon="3.84189">
        <ele>60</ele>
        <time>2021-01-09T14:49:37Z</time>
      </trkpt>
      <trkpt lat="43.609" lon="3.84197">
        <ele>63</ele>
        <time>2021-01-09T14:49:38Z</time>
      </trkpt>
      <trkpt lat="43.609" lon="3.84204">
        <ele>59.9</ele>
        <time>2021-01-09T14:49:39Z</time>
      </trkpt>
      <trkpt lat="43.609" lon="3.84212">
        <ele>59.7</ele>
        <time>2021-01-09T14:49:40Z</time>
      </trkpt>
      <trkpt lat="43.60901" lon="3.8422">
        <ele>59.6</ele>
        <time>2021-01-09T14:49:41Z</time>
      </trkpt>
      <trkpt lat="43.60901" lon="3.84228">
        <ele>59.7</ele>
        <time>2021-01-09T14:49:42Z</time>
      </trkpt>
      <trkpt lat="43.60901" lon="3.84236">
        <ele>59.8</ele>
        <time>2021-01-09T14:49:43Z</time>
      </trkpt>
      <trkpt lat="43.60902" lon="3.84243">
        <ele>59.9</ele>
        <time>2021-01-09T14:49:44Z</time>
      </trkpt>
      <trkpt lat="43.60903" lon="3.84251">
        <ele>60</ele>
        <time>2021-01-09T14:49:45Z</time>
      </trkpt>
      <trkpt lat="43.60904" lon="3.84258">
        <ele>60.2</ele>
        <time>2021-01-09T14:49:46Z</time>
      </trkpt>
      <trkpt lat="43.60904" lon="3.84266">
        <ele>60.3</ele>
        <time>2021-01-09T14:49:47Z</time>
      </trkpt>
      <trkpt lat="43.60904" lon="3.84273">
        <ele>63</ele>
        <time>2021-01-09T14:49:48Z</time>
      </trkpt>
      <trkpt lat="43.60904" lon="3.84281">
        <ele>60.6</ele>
        <time>2021-01-09T14:49:49Z</time>
      </trkpt>
      <trkpt lat="43.60904" lon="3.84288">
        <ele>60.7</ele>
        <time>2021-01-09T14:49:50Z</time>
      </trkpt>
      <trkpt lat="43.60903" lon="3.84295">
        <ele>60.8</ele>
        <time>2021-01-09T14:49:51Z</time>
      </trkpt>
      <trkpt lat="43.60903" lon="3.84302">
        <ele>60.9</ele>
        <time>2021-01-09T14:49:52Z</time>
      </trkpt>
      <trkpt lat="43.60902" lon="3.84308">
        <ele>61</ele>
        <time>2021-01-09T14:49:53Z</time>
      </trkpt>
      <trkpt lat="43.60901" lon="3.84315">
        <ele>61</ele>
        <time>2021-01-09T14:49:54Z</time>
      </trkpt>
      <trkpt lat="43.60901" lon="3.84322">
        <ele>61</ele>
        <time>2021-01-09T14:49:55Z</time>
      </trkpt>
      <trkpt lat="43.609" lon="3.84329">
        <ele>61</ele>
        <time>2021-01-09T14:49:56Z</time>
      </trkpt>
      <trkpt lat="43.60899" lon="3.84336">
        <ele>61</ele>
        <time>2021-01-09T14:49:57Z</time>
      </trkpt>
      <trkpt lat="43.60899" lon="3.84343">
        <ele>63</ele>
        <time>2021-01-09T14:49:58Z</time>
      </trkpt>
      <trkpt lat="43.60899" lon="3.8435">
        <ele>61</ele>
        <time>2021-01-09T14:49:59Z</time>
      </trkpt>
      <trkpt lat="43.60898" lon="3.84357">
        <ele>61</ele>
        <time>2021-01-09T14:50:00Z</time>
      </trkpt>
      <trkpt lat="43.60898" lon="3.84364">
        <ele>61.1</ele>
        <time>2021-01-09T14:50:01Z</time>
      </trkpt>
      <trkpt lat="43.60898" lon="3.84371">
        <ele>61.4</ele>
        <time>2021-01-09T14:50:02Z</time>
      </trkpt>
      <trkpt lat="43.60898" lon="3.84378">
        <ele>61.6</ele>
        <time>2021-01-09T14:50:03Z</time>
      </trkpt>
      <trkpt lat="43.60899" lon="3.84384">
        <ele>61.8</ele>
        <time>2021-01-09T14:50:04Z</time>
      </trkpt>
      <trkpt lat="43.60899" lon="3.8439">
        <ele>62</ele>
        <time>2021-01-09T14:50:05Z</time>
      </trkpt>
      <trkpt lat="43.60899" lon="3.84396">
        <ele>62</ele>
        <time>2021-01-09T14:50:06Z</time>
      </trkpt>
      <trkpt lat="43.609" lon="3.84403">
        <ele>62</ele>
        <time>2021-01-09T14:50:07Z</time>
      </trkpt>
      <trkpt lat="43.609" lon="3.84409">
        <ele>64</ele>
        <time>2021-01-09T14:50:08Z</time>
      </trkpt>
      <trkpt lat="43.609" lon="3.84415">
        <ele>62</ele>
        <time>2021-01-09T14:50:09Z</time>
      </trkpt>
      <trkpt lat="43.60899" lon="3.84422">
        <ele>62.1</ele>
        <time>2021-01-09T14:50:10Z</time>
      </trkpt>
      <trkpt lat="43.60899" lon="3.84428">
        <ele>62.1</ele>
        <time>2021-01-09T14:50:11Z</time>
      </trkpt>
      <trkpt lat="43.60898" lon="3.84434">
        <ele>62.2</ele>
        <time>2021-01-09T14:50:12Z</time>
      </trkpt>
      <trkpt lat="43.60897" lon="3.8444">
        <ele>62.2</ele>
        <time>2021-01-09T14:50:13Z</time>
      </trkpt>
      <trkpt lat="43.60897" lon="3.84446">
        <ele>62.3</ele>
        <time>2021-01-09T14:50:14Z</time>
      </trkpt>
      <trkpt lat="43.60896" lon="3.84452">
        <ele>62.5</ele>
        <time>2021-01-09T14:50:15Z</time>
      </trkpt>
      <trkpt lat="43.60895" lon="3.84458">
        <ele>62.6</ele>
        <time>2021-01-09T14:50:16Z</time>
      </trkpt>
      <trkpt lat="43.60895" lon="3.84464">
        <ele>62.8</ele>
        <time>2021-01-09T14:50:17Z</time>
      </trkpt>
      <trkpt lat="43.60894" lon="3.8447">
        <ele>65</ele>
        <time>2021-01-09T14:50:18Z</time>
      </trkpt>
      <trkpt lat="43.60894" lon="3.84476">
        <ele>63</ele>
        <time>2021-01-09T14:50:19Z</time>
      </trkpt>
      <trkpt lat="43.60894" lon="3.84482">
        <ele>63.1</ele>
        <time>2021-01-09T14:50:20Z</time>
      </trkpt>
      <trkpt lat="43.60894" lon="3.84487">
        <ele>63.1</ele>
        <time>2021-01-09T14:50:21Z</time>
      </trkpt>
      <trkpt lat="43.60894" lon="3.84493">
        <ele>63.1</ele>
        <time>2021-01-09T14:50:22Z</time>
      </trkpt>
      <trkpt lat="43.60895" lon="3.84499">
        <ele>63.2</ele>
        <time>2021-01-09T14:50:23Z</time>
      </trkpt>
      <trkpt lat="43.60895" lon="3.84505">
        <ele>63.3</ele>
        <time>2021-01-09T14:50:24Z</time>
      </trkpt>
      <trkpt lat="43.60895" lon="3.84511">
        <ele>63.3</ele>
        <time>2021-01-09T14:50:25Z</time>
      </trkpt>
      <trkpt lat="43.60896" lon="3.84517">
        <ele>63.4</ele>
        <time>2021-01-09T14:50:26Z</time>
      </trkpt>
      <trkpt lat="43.60896" lon="3.84522">
        <ele>63.5</ele>
        <time>2021-01-09T14:50:27Z</time>
      </trkpt>
      <trkpt lat="43.60897" lon="3.84528">
        <ele>66</ele>
        <time>2021-01-09T14:50:28Z</time>
      </trkpt>
      <trkpt lat="43.60897" lon="3.84534">
        <ele>63.7</ele>
        <time>2021-01-09T14:50:29Z</time>
      </trkpt>
      <trkpt lat="43.60898" lon="3.8454">
        <ele>64</ele>
        <time>2021-01-09T14:50:30Z</time>
      </trkpt>
      <trkpt lat="43.60898" lon="3.84546">
        <ele>64.1</ele>
        <time>2021-01-09T14:50:31Z</time>
      </trkpt>
      <trkpt lat="43.60898" lon="3.84552">
        <ele>64.2</ele>
        <time>2021-01-09T14:50:32Z</time>
      </trkpt>
      <trkpt lat="43.60898" lon="3.84558">
        <ele>64.3</ele>
        <time>2021-01-09T14:50:33Z</time>
      </trkpt>
      <trkpt lat="43.60898" lon="3.84564">
        <ele>64.3</ele>
        <time>2021-01-09T14:50:34Z</time>
      </trkpt>
      <trkpt lat="43.60898" lon="3.8457">
        <ele>64.3</ele>
        <time>2021-01-09T14:50:35Z</time>
      </trkpt>
      <trkpt lat="43.60898" lon="3.84575">
        <ele>64.3</ele>
        <time>2021-01-09T14:50:36Z</time>
      </trkpt>
      <trkpt lat="43.60898" lon="3.84581">
        <ele>64.3</ele>
        <time>2021-01-09T14:50:37Z</time>
      </trkpt>
      <trkpt lat="43.60899" lon="3.84586">
        <ele>67</ele>
        <time>2021-01-09T14:50:38Z</time>
      </trkpt>
      <trkpt lat="43.60899" lon="3.84592">
        <ele>64.7</ele>
        <time>2021-01-09T14:50:39Z</time>
      </trkpt>
      <trkpt lat="43.60898" lon="3.84598">
        <ele>64.9</ele>
        <time>2021-01-09T14:50:40Z</time>
      </trkpt>
      <trkpt lat="43.60898" lon="3.84604">
        <ele>65.1</ele>
        <time>2021-01-09T14:50:41Z</time>
      </trkpt>
      <trkpt lat="43.60897" lon="3.8461">
        <ele>65.3</ele>
        <time>2021-01-09T14:50:42Z</time>
      </trkpt>
      <trkpt lat="43.60895" lon="3.84616">
        <ele>65.4</ele>
        <time>2021-01-09T14:50:43Z</time>
      </trkpt>
      <trkpt lat="43.60894" lon="3.84621">
        <ele>65.5</ele>
        <time>2021-01-09T14:50:44Z</time>
      </trkpt>
      <trkpt lat="43.60893" lon="3.84627">
        <ele>65.6</ele>
        <time>2021-01-09T14:50:45Z</time>
      </trkpt>
      <trkpt lat="43.60892" lon="3.84633">
        <ele>65.8</ele>
        <time>2021-01-09T14:50:46Z</time>
      </trkpt>
      <trkpt lat="43.60892" lon="3.84639">
        <ele>66</ele>
        <time>2021-01-09T14:50:47Z</time>
      </trkpt>
      <trkpt lat="43.60891" lon="3.84651">
        <ele>68</ele>
        <time>2021-01-09T14:50:48Z</time>
      </trkpt>
      <trkpt lat="43.60891" lon="3.84657">
        <ele>66</ele>
        <time>2021-01-09T14:50:49Z</time>
      </trkpt>
      <trkpt lat="43.6089" lon="3.84663">
        <ele>66</ele>
        <time>2021-01-09T14:50:51Z</time>
      </trkpt>
      <trkpt lat="43.6089" lon="3.84675">
        <ele>66.1</ele>
        <time>2021-01-09T14:50:52Z</time>
      </trkpt>
      <trkpt lat="43.60891" lon="3.84681">
        <ele>66.1</ele>
        <time>2021-01-09T14:50:53Z</time>
      </trkpt>
      <trkpt lat="43.6089" lon="3.84687">
        <ele>66.1</ele>
        <time>2021-01-09T14:50:54Z</time>
      </trkpt>
      <trkpt lat="43.6089" lon="3.84693">
        <ele>66.1</ele>
        <time>2021-01-09T14:50:55Z</time>
      </trkpt>
      <trkpt lat="43.6089" lon="3.84699">
        <ele>66.2</ele>
        <time>2021-01-09T14:50:57Z</time>
      </trkpt>
      <trkpt lat="43.6089" lon="3.84705">
        <ele>69</ele>
        <time>2021-01-09T14:50:58Z</time>
      </trkpt>
      <trkpt lat="43.60889" lon="3.84712">
        <ele>66.6</ele>
        <time>2021-01-09T14:50:59Z</time>
      </trkpt>
      <trkpt lat="43.60889" lon="3.84718">
        <ele>66.9</ele>
        <time>2021-01-09T14:51:00Z</time>
      </trkpt>
      <trkpt lat="43.60889" lon="3.84724">
        <ele>67</ele>
        <time>2021-01-09T14:51:01Z</time>
      </trkpt>
      <trkpt lat="43.60889" lon="3.8473">
        <ele>67</ele>
        <time>2021-01-09T14:51:02Z</time>
      </trkpt>
      <trkpt lat="43.60889" lon="3.84735">
        <ele>67</ele>
        <time>2021-01-09T14:51:03Z</time>
      </trkpt>
      <trkpt lat="43.60889" lon="3.84741">
        <ele>67</ele>
        <time>2021-01-09T14:51:04Z</time>
      </trkpt>
      <trkpt lat="43.60889" lon="3.84746">
        <ele>67</ele>
        <time>2021-01-09T14:51:05Z</time>
      </trkpt>
      <trkpt lat="43.60889" lon="3.8475">
        <ele>67</ele>
        <time>2021-01-09T14:51:06Z</time>
      </trkpt>
      <trkpt lat="43.60889" lon="3.84754">
        <ele>67</ele>
        <time>2021-01-09T14:51:07Z</time>
      </trkpt>
      <trkpt lat="43.60889" lon="3.84757">
        <ele>70</ele>
        <time>2021-01-09T14:51:08Z</time>
      </trkpt>
      <trkpt lat="43.60892" lon="3.8476">
        <ele>67.1</ele>
        <time>2021-01-09T14:51:10Z</time>
      </trkpt>
      <trkpt lat="43.60893" lon="3.84762">
        <ele>67.1</ele>
        <time>2021-01-09T14:51:11Z</time>
      </trkpt>
      <trkpt lat="43.60893" lon="3.84765">
        <ele>67.1</ele>
        <time>2021-01-09T14:51:12Z</time>
      </trkpt>
      <trkpt lat="43.60892" lon="3.84769">
        <ele>67.1</ele>
        <time>2021-01-09T14:51:13Z</time>
      </trkpt>
      <trkpt lat="43.6089" lon="3.84772">
        <ele>67</ele>
        <time>2021-01-09T14:51:14Z</time>
      </trkpt>
      <trkpt lat="43.60888" lon="3.84776">
        <ele>67</ele>
        <time>2021-01-09T14:51:15Z</time>
      </trkpt>
      <trkpt lat="43.60886" lon="3.84781">
        <ele>67</ele>
        <time>2021-01-09T14:51:16Z</time>
      </trkpt>
      <trkpt lat="43.60887" lon="3.84785">
        <ele>67.2</ele>
        <time>2021-01-09T14:51:17Z</time>
      </trkpt>
      <trkpt lat="43.6089" lon="3.84789">
        <ele>70</ele>
        <time>2021-01-09T14:51:18Z</time>
      </trkpt>
      <trkpt lat="43.60894" lon="3.84793">
        <ele>67.5</ele>
        <time>2021-01-09T14:51:19Z</time>
      </trkpt>
      <trkpt lat="43.60897" lon="3.84797">
        <ele>67.6</ele>
        <time>2021-01-09T14:51:20Z</time>
      </trkpt>
      <trkpt lat="43.60901" lon="3.84802">
        <ele>67.5</ele>
        <time>2021-01-09T14:51:21Z</time>
      </trkpt>
      <trkpt lat="43.60904" lon="3.84806">
        <ele>67.5</ele>
        <time>2021-01-09T14:51:22Z</time>
      </trkpt>
      <trkpt lat="43.60907" lon="3.8481">
        <ele>67.5</ele>
        <time>2021-01-09T14:51:23Z</time>
      </trkpt>
      <trkpt lat="43.6091" lon="3.84814">
        <ele>67.5</ele>
        <time>2021-01-09T14:51:24Z</time>
      </trkpt>
      <trkpt lat="43.60913" lon="3.84818">
        <ele>67.5</ele>
        <time>2021-01-09T14:51:25Z</time>
      </trkpt>
      <trkpt lat="43.60915" lon="3.84821">
        <ele>67.6</ele>
        <time>2021-01-09T14:51:26Z</time>
      </trkpt>
      <trkpt lat="43.60918" lon="3.84825">
        <ele>67.7</ele>
        <time>2021-01-09T14:51:27Z</time>
      </trkpt>
      <trkpt lat="43.6092" lon="3.84829">
        <ele>69</ele>
        <time>2021-01-09T14:51:28Z</time>
      </trkpt>
      <trkpt lat="43.60923" lon="3.84833">
        <ele>67.8</ele>
        <time>2021-01-09T14:51:29Z</time>
      </trkpt>
      <trkpt lat="43.60926" lon="3.84838">
        <ele>67.6</ele>
        <time>2021-01-09T14:51:30Z</time>
      </trkpt>
      <trkpt lat="43.60929" lon="3.84843">
        <ele>67.4</ele>
        <time>2021-01-09T14:51:31Z</time>
      </trkpt>
      <trkpt lat="43.60932" lon="3.84848">
        <ele>67.2</ele>
        <time>2021-01-09T14:51:32Z</time>
      </trkpt>
      <trkpt lat="43.60934" lon="3.84853">
        <ele>67.1</ele>
        <time>2021-01-09T14:51:33Z</time>
      </trkpt>
      <trkpt lat="43.60937" lon="3.84858">
        <ele>67</ele>
        <time>2021-01-09T14:51:34Z</time>
      </trkpt>
      <trkpt lat="43.60939" lon="3.84863">
        <ele>67.1</ele>
        <time>2021-01-09T14:51:35Z</time>
      </trkpt>
      <trkpt lat="43.60942" lon="3.84868">
        <ele>67.2</ele>
        <time>2021-01-09T14:51:36Z</time>
      </trkpt>
      <trkpt lat="43.60945" lon="3.84873">
        <ele>67.4</ele>
        <time>2021-01-09T14:51:37Z</time>
      </trkpt>
      <trkpt lat="43.60947" lon="3.84879">
        <ele>69</ele>
        <time>2021-01-09T14:51:38Z</time>
      </trkpt>
      <trkpt lat="43.6095" lon="3.84884">
        <ele>67.9</ele>
        <time>2021-01-09T14:51:39Z</time>
      </trkpt>
      <trkpt lat="43.60953" lon="3.84889">
        <ele>68</ele>
        <time>2021-01-09T14:51:40Z</time>
      </trkpt>
      <trkpt lat="43.60955" lon="3.84895">
        <ele>67.9</ele>
        <time>2021-01-09T14:51:41Z</time>
      </trkpt>
      <trkpt lat="43.60958" lon="3.849">
        <ele>67.8</ele>
        <time>2021-01-09T14:51:42Z</time>
      </trkpt>
      <trkpt lat="43.6096" lon="3.84906">
        <ele>67.7</ele>
        <time>2021-01-09T14:51:43Z</time>
      </trkpt>
      <trkpt lat="43.60963" lon="3.84911">
        <ele>67.5</ele>
        <time>2021-01-09T14:51:44Z</time>
      </trkpt>
      <trkpt lat="43.60966" lon="3.84916">
        <ele>67.2</ele>
        <time>2021-01-09T14:51:45Z</time>
      </trkpt>
      <trkpt lat="43.6097" lon="3.84921">
        <ele>67.2</ele>
        <time>2021-01-09T14:51:46Z</time>
      </trkpt>
      <trkpt lat="43.60973" lon="3.84925">
        <ele>67.3</ele>
        <time>2021-01-09T14:51:47Z</time>
      </trkpt>
      <trkpt lat="43.60976" lon="3.84929">
        <ele>69</ele>
        <time>2021-01-09T14:51:48Z</time>
      </trkpt>
      <trkpt lat="43.60979" lon="3.84933">
        <ele>67.3</ele>
        <time>2021-01-09T14:51:49Z</time>
      </trkpt>
      <trkpt lat="43.60982" lon="3.84937">
        <ele>67.2</ele>
        <time>2021-01-09T14:51:50Z</time>
      </trkpt>
      <trkpt lat="43.60985" lon="3.84938">
        <ele>67.1</ele>
        <time>2021-01-09T14:51:51Z</time>
      </trkpt>
      <trkpt lat="43.60989" lon="3.84941">
        <ele>66.8</ele>
        <time>2021-01-09T14:51:52Z</time>
      </trkpt>
      <trkpt lat="43.60994" lon="3.84944">
        <ele>66.4</ele>
        <time>2021-01-09T14:51:53Z</time>
      </trkpt>
      <trkpt lat="43.60998" lon="3.84947">
        <ele>66.2</ele>
        <time>2021-01-09T14:51:54Z</time>
      </trkpt>
      <trkpt lat="43.61002" lon="3.84951">
        <ele>66.2</ele>
        <time>2021-01-09T14:51:55Z</time>
      </trkpt>
      <trkpt lat="43.61007" lon="3.84953">
        <ele>66.2</ele>
        <time>2021-01-09T14:51:56Z</time>
      </trkpt>
      <trkpt lat="43.61012" lon="3.84956">
        <ele>66.2</ele>
        <time>2021-01-09T14:51:57Z</time>
      </trkpt>
      <trkpt lat="43.61016" lon="3.8496">
        <ele>71</ele>
        <time>2021-01-09T14:51:58Z</time>
      </trkpt>
      <trkpt lat="43.6102" lon="3.84963">
        <ele>66.2</ele>
        <time>2021-01-09T14:51:59Z</time>
      </trkpt>
      <trkpt lat="43.61025" lon="3.84966">
        <ele>66.1</ele>
        <time>2021-01-09T14:52:00Z</time>
      </trkpt>
      <trkpt lat="43.6103" lon="3.84969">
        <ele>66</ele>
        <time>2021-01-09T14:52:01Z</time>
      </trkpt>
      <trkpt lat="43.61035" lon="3.84971">
        <ele>66</ele>
        <time>2021-01-09T14:52:02Z</time>
      </trkpt>
      <trkpt lat="43.61038" lon="3.84975">
        <ele>66</ele>
        <time>2021-01-09T14:52:03Z</time>
      </trkpt>
      <trkpt lat="43.61041" lon="3.84979">
        <ele>66</ele>
        <time>2021-01-09T14:52:04Z</time>
      </trkpt>
      <trkpt lat="43.61043" lon="3.84985">
        <ele>66</ele>
        <time>2021-01-09T14:52:05Z</time>
      </trkpt>
      <trkpt lat="43.61042" lon="3.8499">
        <ele>66</ele>
        <time>2021-01-09T14:52:06Z</time>
      </trkpt>
      <trkpt lat="43.61041" lon="3.84997">
        <ele>66</ele>
        <time>2021-01-09T14:52:07Z</time>
      </trkpt>
      <trkpt lat="43.6104" lon="3.85003">
        <ele>71</ele>
        <time>2021-01-09T14:52:08Z</time>
      </trkpt>
      <trkpt lat="43.61038" lon="3.85011">
        <ele>66</ele>
        <time>2021-01-09T14:52:09Z</time>
      </trkpt>
      <trkpt lat="43.61037" lon="3.85018">
        <ele>65.9</ele>
        <time>2021-01-09T14:52:10Z</time>
      </trkpt>
      <trkpt lat="43.61036" lon="3.85026">
        <ele>65.7</ele>
        <time>2021-01-09T14:52:11Z</time>
      </trkpt>
      <trkpt lat="43.61036" lon="3.85033">
        <ele>65.7</ele>
        <time>2021-01-09T14:52:12Z</time>
      </trkpt>
      <trkpt lat="43.61035" lon="3.85041">
        <ele>65.7</ele>
        <time>2021-01-09T14:52:13Z</time>
      </trkpt>
      <trkpt lat="43.61034" lon="3.85049">
        <ele>65.8</ele>
        <time>2021-01-09T14:52:14Z</time>
      </trkpt>
      <trkpt lat="43.61033" lon="3.85057">
        <ele>65.8</ele>
        <time>2021-01-09T14:52:15Z</time>
      </trkpt>
      <trkpt lat="43.61033" lon="3.85064">
        <ele>65.6</ele>
        <time>2021-01-09T14:52:16Z</time>
      </trkpt>
      <trkpt lat="43.61032" lon="3.85072">
        <ele>65.4</ele>
        <time>2021-01-09T14:52:17Z</time>
      </trkpt>
      <trkpt lat="43.61029" lon="3.85086">
        <ele>70</ele>
        <time>2021-01-09T14:52:18Z</time>
      </trkpt>
      <trkpt lat="43.61028" lon="3.85092">
        <ele>64.7</ele>
        <time>2021-01-09T14:52:19Z</time>
      </trkpt>
      <trkpt lat="43.61027" lon="3.85097">
        <ele>64.5</ele>
        <time>2021-01-09T14:52:20Z</time>
      </trkpt>
      <trkpt lat="43.61027" lon="3.851">
        <ele>64.4</ele>
        <time>2021-01-09T14:52:22Z</time>
      </trkpt>
      <trkpt lat="43.61027" lon="3.85103">
        <ele>64.3</ele>
        <time>2021-01-09T14:52:23Z</time>
      </trkpt>
      <trkpt lat="43.61027" lon="3.85107">
        <ele>64.2</ele>
        <time>2021-01-09T14:52:24Z</time>
      </trkpt>
      <trkpt lat="43.61025" lon="3.85111">
        <ele>64.1</ele>
        <time>2021-01-09T14:52:25Z</time>
      </trkpt>
      <trkpt lat="43.61024" lon="3.8512">
        <ele>64.1</ele>
        <time>2021-01-09T14:52:26Z</time>
      </trkpt>
      <trkpt lat="43.61024" lon="3.85125">
        <ele>70</ele>
        <time>2021-01-09T14:52:28Z</time>
      </trkpt>
      <trkpt lat="43.61023" lon="3.8513">
        <ele>64.2</ele>
        <time>2021-01-09T14:52:29Z</time>
      </trkpt>
      <trkpt lat="43.61023" lon="3.85136">
        <ele>64.2</ele>
        <time>2021-01-09T14:52:30Z</time>
      </trkpt>
      <trkpt lat="43.61023" lon="3.85142">
        <ele>64.2</ele>
        <time>2021-01-09T14:52:31Z</time>
      </trkpt>
      <trkpt lat="43.61023" lon="3.85149">
        <ele>64.2</ele>
        <time>2021-01-09T14:52:32Z</time>
      </trkpt>
      <trkpt lat="43.61022" lon="3.85155">
        <ele>64.3</ele>
        <time>2021-01-09T14:52:33Z</time>
      </trkpt>
      <trkpt lat="43.61022" lon="3.85162">
        <ele>64.4</ele>
        <time>2021-01-09T14:52:34Z</time>
      </trkpt>
      <trkpt lat="43.61021" lon="3.85168">
        <ele>64.5</ele>
        <time>2021-01-09T14:52:35Z</time>
      </trkpt>
      <trkpt lat="43.61021" lon="3.85175">
        <ele>64.5</ele>
        <time>2021-01-09T14:52:36Z</time>
      </trkpt>
      <trkpt lat="43.6102" lon="3.85182">
        <ele>64.6</ele>
        <time>2021-01-09T14:52:37Z</time>
      </trkpt>
      <trkpt lat="43.6102" lon="3.85189">
        <ele>71</ele>
        <time>2021-01-09T14:52:38Z</time>
      </trkpt>
      <trkpt lat="43.6102" lon="3.85196">
        <ele>64.5</ele>
        <time>2021-01-09T14:52:39Z</time>
      </trkpt>
      <trkpt lat="43.6102" lon="3.85203">
        <ele>64.4</ele>
        <time>2021-01-09T14:52:40Z</time>
      </trkpt>
      <trkpt lat="43.6102" lon="3.8521">
        <ele>64.2</ele>
        <time>2021-01-09T14:52:41Z</time>
      </trkpt>
      <trkpt lat="43.6102" lon="3.85217">
        <ele>64.1</ele>
        <time>2021-01-09T14:52:42Z</time>
      </trkpt>
      <trkpt lat="43.6102" lon="3.85224">
        <ele>64</ele>
        <time>2021-01-09T14:52:43Z</time>
      </trkpt>
      <trkpt lat="43.61019" lon="3.85231">
        <ele>63.9</ele>
        <time>2021-01-09T14:52:44Z</time>
      </trkpt>
      <trkpt lat="43.61019" lon="3.85238">
        <ele>63.8</ele>
        <time>2021-01-09T14:52:45Z</time>
      </trkpt>
      <trkpt lat="43.61018" lon="3.85246">
        <ele>63.7</ele>
        <time>2021-01-09T14:52:46Z</time>
      </trkpt>
      <trkpt lat="43.61018" lon="3.85253">
        <ele>63.6</ele>
        <time>2021-01-09T14:52:47Z</time>
      </trkpt>
      <trkpt lat="43.61018" lon="3.85261">
        <ele>71</ele>
        <time>2021-01-09T14:52:48Z</time>
      </trkpt>
      <trkpt lat="43.61017" lon="3.85268">
        <ele>63.4</ele>
        <time>2021-01-09T14:52:49Z</time>
      </trkpt>
      <trkpt lat="43.61017" lon="3.85276">
        <ele>63.2</ele>
        <time>2021-01-09T14:52:50Z</time>
      </trkpt>
      <trkpt lat="43.61017" lon="3.85283">
        <ele>63.2</ele>
        <time>2021-01-09T14:52:51Z</time>
      </trkpt>
      <trkpt lat="43.61017" lon="3.8529">
        <ele>63.2</ele>
        <time>2021-01-09T14:52:52Z</time>
      </trkpt>
      <trkpt lat="43.61017" lon="3.85297">
        <ele>63.2</ele>
        <time>2021-01-09T14:52:53Z</time>
      </trkpt>
      <trkpt lat="43.61017" lon="3.85304">
        <ele>63.2</ele>
        <time>2021-01-09T14:52:54Z</time>
      </trkpt>
      <trkpt lat="43.61017" lon="3.8531">
        <ele>63.1</ele>
        <time>2021-01-09T14:52:55Z</time>
      </trkpt>
      <trkpt lat="43.61016" lon="3.85315">
        <ele>63.1</ele>
        <time>2021-01-09T14:52:56Z</time>
      </trkpt>
      <trkpt lat="43.61016" lon="3.85318">
        <ele>63.1</ele>
        <time>2021-01-09T14:52:57Z</time>
      </trkpt>
      <trkpt lat="43.61015" lon="3.85322">
        <ele>63.1</ele>
        <time>2021-01-09T14:52:59Z</time>
      </trkpt>
      <trkpt lat="43.61014" lon="3.85324">
        <ele>63.2</ele>
        <time>2021-01-09T14:53:01Z</time>
      </trkpt>
      <trkpt lat="43.61013" lon="3.85329">
        <ele>63.1</ele>
        <time>2021-01-09T14:53:03Z</time>
      </trkpt>
      <trkpt lat="43.61012" lon="3.85333">
        <ele>63.1</ele>
        <time>2021-01-09T14:53:04Z</time>
      </trkpt>
      <trkpt lat="43.61012" lon="3.85338">
        <ele>63</ele>
        <time>2021-01-09T14:53:05Z</time>
      </trkpt>
      <trkpt lat="43.61012" lon="3.85343">
        <ele>62.9</ele>
        <time>2021-01-09T14:53:06Z</time>
      </trkpt>
      <trkpt lat="43.61013" lon="3.85349">
        <ele>62.8</ele>
        <time>2021-01-09T14:53:07Z</time>
      </trkpt>
      <trkpt lat="43.61013" lon="3.85355">
        <ele>69</ele>
        <time>2021-01-09T14:53:08Z</time>
      </trkpt>
      <trkpt lat="43.61013" lon="3.85361">
        <ele>62.5</ele>
        <time>2021-01-09T14:53:09Z</time>
      </trkpt>
      <trkpt lat="43.61013" lon="3.85367">
        <ele>62.6</ele>
        <time>2021-01-09T14:53:10Z</time>
      </trkpt>
      <trkpt lat="43.61013" lon="3.85374">
        <ele>62.8</ele>
        <time>2021-01-09T14:53:11Z</time>
      </trkpt>
      <trkpt lat="43.61013" lon="3.8538">
        <ele>62.9</ele>
        <time>2021-01-09T14:53:12Z</time>
      </trkpt>
      <trkpt lat="43.61013" lon="3.85386">
        <ele>63</ele>
        <time>2021-01-09T14:53:13Z</time>
      </trkpt>
      <trkpt lat="43.61013" lon="3.85393">
        <ele>63</ele>
        <time>2021-01-09T14:53:14Z</time>
      </trkpt>
      <trkpt lat="43.61013" lon="3.854">
        <ele>62.9</ele>
        <time>2021-01-09T14:53:15Z</time>
      </trkpt>
      <trkpt lat="43.61014" lon="3.85406">
        <ele>62.7</ele>
        <time>2021-01-09T14:53:16Z</time>
      </trkpt>
      <trkpt lat="43.61014" lon="3.85413">
        <ele>62.6</ele>
        <time>2021-01-09T14:53:17Z</time>
      </trkpt>
      <trkpt lat="43.61015" lon="3.8542">
        <ele>69</ele>
        <time>2021-01-09T14:53:18Z</time>
      </trkpt>
      <trkpt lat="43.61016" lon="3.85427">
        <ele>62.3</ele>
        <time>2021-01-09T14:53:19Z</time>
      </trkpt>
      <trkpt lat="43.61017" lon="3.85435">
        <ele>62.2</ele>
        <time>2021-01-09T14:53:20Z</time>
      </trkpt>
      <trkpt lat="43.61017" lon="3.85442">
        <ele>62.2</ele>
        <time>2021-01-09T14:53:21Z</time>
      </trkpt>
      <trkpt lat="43.61018" lon="3.85449">
        <ele>62.1</ele>
        <time>2021-01-09T14:53:22Z</time>
      </trkpt>
      <trkpt lat="43.61019" lon="3.85457">
        <ele>61.9</ele>
        <time>2021-01-09T14:53:23Z</time>
      </trkpt>
      <trkpt lat="43.6102" lon="3.85464">
        <ele>61.8</ele>
        <time>2021-01-09T14:53:24Z</time>
      </trkpt>
      <trkpt lat="43.61021" lon="3.85471">
        <ele>61.7</ele>
        <time>2021-01-09T14:53:25Z</time>
      </trkpt>
      <trkpt lat="43.61022" lon="3.85479">
        <ele>61.4</ele>
        <time>2021-01-09T14:53:26Z</time>
      </trkpt>
      <trkpt lat="43.61023" lon="3.85486">
        <ele>61.1</ele>
        <time>2021-01-09T14:53:27Z</time>
      </trkpt>
      <trkpt lat="43.61024" lon="3.85493">
        <ele>68</ele>
        <time>2021-01-09T14:53:28Z</time>
      </trkpt>
      <trkpt lat="43.61024" lon="3.855">
        <ele>60.5</ele>
        <time>2021-01-09T14:53:29Z</time>
      </trkpt>
      <trkpt lat="43.61025" lon="3.85507">
        <ele>60.4</ele>
        <time>2021-01-09T14:53:30Z</time>
      </trkpt>
      <trkpt lat="43.61026" lon="3.85514">
        <ele>60.2</ele>
        <time>2021-01-09T14:53:31Z</time>
      </trkpt>
      <trkpt lat="43.61027" lon="3.85521">
        <ele>60.1</ele>
        <time>2021-01-09T14:53:32Z</time>
      </trkpt>
      <trkpt lat="43.61028" lon="3.85528">
        <ele>60</ele>
        <time>2021-01-09T14:53:33Z</time>
      </trkpt>
      <trkpt lat="43.6103" lon="3.85536">
        <ele>59.6</ele>
        <time>2021-01-09T14:53:34Z</time>
      </trkpt>
      <trkpt lat="43.61031" lon="3.85543">
        <ele>59.4</ele>
        <time>2021-01-09T14:53:35Z</time>
      </trkpt>
      <trkpt lat="43.61032" lon="3.85551">
        <ele>59.3</ele>
        <time>2021-01-09T14:53:36Z</time>
      </trkpt>
      <trkpt lat="43.61033" lon="3.85558">
        <ele>59.3</ele>
        <time>2021-01-09T14:53:37Z</time>
      </trkpt>
      <trkpt lat="43.61033" lon="3.85566">
        <ele>67</ele>
        <time>2021-01-09T14:53:38Z</time>
      </trkpt>
      <trkpt lat="43.61033" lon="3.85573">
        <ele>59.5</ele>
        <time>2021-01-09T14:53:39Z</time>
      </trkpt>
      <trkpt lat="43.61034" lon="3.8558">
        <ele>59.5</ele>
        <time>2021-01-09T14:53:40Z</time>
      </trkpt>
      <trkpt lat="43.61035" lon="3.85587">
        <ele>59.5</ele>
        <time>2021-01-09T14:53:41Z</time>
      </trkpt>
      <trkpt lat="43.61036" lon="3.85595">
        <ele>59.4</ele>
        <time>2021-01-09T14:53:42Z</time>
      </trkpt>
      <trkpt lat="43.61038" lon="3.85602">
        <ele>59.3</ele>
        <time>2021-01-09T14:53:43Z</time>
      </trkpt>
      <trkpt lat="43.61039" lon="3.8561">
        <ele>59.2</ele>
        <time>2021-01-09T14:53:44Z</time>
      </trkpt>
      <trkpt lat="43.61041" lon="3.85617">
        <ele>59.3</ele>
        <time>2021-01-09T14:53:45Z</time>
      </trkpt>
      <trkpt lat="43.61043" lon="3.85625">
        <ele>59.4</ele>
        <time>2021-01-09T14:53:46Z</time>
      </trkpt>
      <trkpt lat="43.61046" lon="3.85631">
        <ele>59.2</ele>
        <time>2021-01-09T14:53:47Z</time>
      </trkpt>
      <trkpt lat="43.61049" lon="3.85638">
        <ele>66</ele>
        <time>2021-01-09T14:53:48Z</time>
      </trkpt>
      <trkpt lat="43.61053" lon="3.85644">
        <ele>58.5</ele>
        <time>2021-01-09T14:53:49Z</time>
      </trkpt>
      <trkpt lat="43.61056" lon="3.8565">
        <ele>58.3</ele>
        <time>2021-01-09T14:53:50Z</time>
      </trkpt>
      <trkpt lat="43.6106" lon="3.85656">
        <ele>57.8</ele>
        <time>2021-01-09T14:53:51Z</time>
      </trkpt>
      <trkpt lat="43.61064" lon="3.85663">
        <ele>57.1</ele>
        <time>2021-01-09T14:53:52Z</time>
      </trkpt>
      <trkpt lat="43.61068" lon="3.8567">
        <ele>56.7</ele>
        <time>2021-01-09T14:53:53Z</time>
      </trkpt>
      <trkpt lat="43.61073" lon="3.85677">
        <ele>56.3</ele>
        <time>2021-01-09T14:53:54Z</time>
      </trkpt>
      <trkpt lat="43.61077" lon="3.85684">
        <ele>56.2</ele>
        <time>2021-01-09T14:53:55Z</time>
      </trkpt>
      <trkpt lat="43.61082" lon="3.85691">
        <ele>55.9</ele>
        <time>2021-01-09T14:53:56Z</time>
      </trkpt>
      <trkpt lat="43.61087" lon="3.85698">
        <ele>56.1</ele>
        <time>2021-01-09T14:53:57Z</time>
      </trkpt>
      <trkpt lat="43.61092" lon="3.85705">
        <ele>62</ele>
        <time>2021-01-09T14:53:58Z</time>
      </trkpt>
      <trkpt lat="43.61098" lon="3.85712">
        <ele>55.5</ele>
        <time>2021-01-09T14:53:59Z</time>
      </trkpt>
      <trkpt lat="43.61104" lon="3.85719">
        <ele>54.5</ele>
        <time>2021-01-09T14:54:00Z</time>
      </trkpt>
      <trkpt lat="43.61109" lon="3.85727">
        <ele>53.8</ele>
        <time>2021-01-09T14:54:01Z</time>
      </trkpt>
      <trkpt lat="43.61113" lon="3.85736">
        <ele>53.7</ele>
        <time>2021-01-09T14:54:02Z</time>
      </trkpt>
      <trkpt lat="43.61117" lon="3.85745">
        <ele>53.8</ele>
        <time>2021-01-09T14:54:03Z</time>
      </trkpt>
      <trkpt lat="43.61121" lon="3.85754">
        <ele>53.7</ele>
        <time>2021-01-09T14:54:04Z</time>
      </trkpt>
      <trkpt lat="43.61124" lon="3.85764">
        <ele>53.6</ele>
        <time>2021-01-09T14:54:05Z</time>
      </trkpt>
      <trkpt lat="43.61126" lon="3.85775">
        <ele>53.8</ele>
        <time>2021-01-09T14:54:06Z</time>
      </trkpt>
      <trkpt lat="43.61128" lon="3.85785">
        <ele>53.4</ele>
        <time>2021-01-09T14:54:07Z</time>
      </trkpt>
      <trkpt lat="43.61129" lon="3.85795">
        <ele>59</ele>
        <time>2021-01-09T14:54:08Z</time>
      </trkpt>
      <trkpt lat="43.61131" lon="3.85806">
        <ele>52.4</ele>
        <time>2021-01-09T14:54:09Z</time>
      </trkpt>
      <trkpt lat="43.61133" lon="3.85816">
        <ele>51.8</ele>
        <time>2021-01-09T14:54:10Z</time>
      </trkpt>
      <trkpt lat="43.61134" lon="3.85826">
        <ele>51.3</ele>
        <time>2021-01-09T14:54:11Z</time>
      </trkpt>
      <trkpt lat="43.61136" lon="3.85837">
        <ele>50.5</ele>
        <time>2021-01-09T14:54:12Z</time>
      </trkpt>
      <trkpt lat="43.61138" lon="3.85847">
        <ele>49.7</ele>
        <time>2021-01-09T14:54:13Z</time>
      </trkpt>
      <trkpt lat="43.61139" lon="3.85858">
        <ele>49.1</ele>
        <time>2021-01-09T14:54:14Z</time>
      </trkpt>
      <trkpt lat="43.61141" lon="3.85868">
        <ele>48.7</ele>
        <time>2021-01-09T14:54:15Z</time>
      </trkpt>
      <trkpt lat="43.61143" lon="3.85878">
        <ele>48.3</ele>
        <time>2021-01-09T14:54:16Z</time>
      </trkpt>
      <trkpt lat="43.61145" lon="3.85888">
        <ele>47.8</ele>
        <time>2021-01-09T14:54:17Z</time>
      </trkpt>
      <trkpt lat="43.61146" lon="3.85898">
        <ele>57</ele>
        <time>2021-01-09T14:54:18Z</time>
      </trkpt>
      <trkpt lat="43.61148" lon="3.85908">
        <ele>47.7</ele>
        <time>2021-01-09T14:54:19Z</time>
      </trkpt>
      <trkpt lat="43.6115" lon="3.85918">
        <ele>47.6</ele>
        <time>2021-01-09T14:54:20Z</time>
      </trkpt>
      <trkpt lat="43.61151" lon="3.85928">
        <ele>47.2</ele>
        <time>2021-01-09T14:54:21Z</time>
      </trkpt>
      <trkpt lat="43.61153" lon="3.85938">
        <ele>46.7</ele>
        <time>2021-01-09T14:54:22Z</time>
      </trkpt>
      <trkpt lat="43.61155" lon="3.85948">
        <ele>46.2</ele>
        <time>2021-01-09T14:54:23Z</time>
      </trkpt>
      <trkpt lat="43.61157" lon="3.85957">
        <ele>45.9</ele>
        <time>2021-01-09T14:54:24Z</time>
      </trkpt>
      <trkpt lat="43.61159" lon="3.85967">
        <ele>45.6</ele>
        <time>2021-01-09T14:54:25Z</time>
      </trkpt>
      <trkpt lat="43.61161" lon="3.85976">
        <ele>45.3</ele>
        <time>2021-01-09T14:54:26Z</time>
      </trkpt>
      <trkpt lat="43.61162" lon="3.85986">
        <ele>44.9</ele>
        <time>2021-01-09T14:54:27Z</time>
      </trkpt>
      <trkpt lat="43.61163" lon="3.85995">
        <ele>55</ele>
        <time>2021-01-09T14:54:28Z</time>
      </trkpt>
      <trkpt lat="43.61164" lon="3.86005">
        <ele>44.3</ele>
        <time>2021-01-09T14:54:29Z</time>
      </trkpt>
      <trkpt lat="43.61165" lon="3.86014">
        <ele>44.2</ele>
        <time>2021-01-09T14:54:30Z</time>
      </trkpt>
      <trkpt lat="43.61166" lon="3.86023">
        <ele>44.1</ele>
        <time>2021-01-09T14:54:31Z</time>
      </trkpt>
      <trkpt lat="43.61167" lon="3.86032">
        <ele>43.8</ele>
        <time>2021-01-09T14:54:32Z</time>
      </trkpt>
      <trkpt lat="43.61168" lon="3.86041">
        <ele>43.5</ele>
        <time>2021-01-09T14:54:33Z</time>
      </trkpt>
      <trkpt lat="43.61168" lon="3.86051">
        <ele>43.2</ele>
        <time>2021-01-09T14:54:34Z</time>
      </trkpt>
      <trkpt lat="43.6117" lon="3.86061">
        <ele>42.8</ele>
        <time>2021-01-09T14:54:35Z</time>
      </trkpt>
      <trkpt lat="43.61171" lon="3.86071">
        <ele>42.4</ele>
        <time>2021-01-09T14:54:36Z</time>
      </trkpt>
      <trkpt lat="43.61173" lon="3.86081">
        <ele>42.1</ele>
        <time>2021-01-09T14:54:37Z</time>
      </trkpt>
      <trkpt lat="43.61174" lon="3.86092">
        <ele>52</ele>
        <time>2021-01-09T14:54:38Z</time>
      </trkpt>
      <trkpt lat="43.61176" lon="3.86102">
        <ele>41.8</ele>
        <time>2021-01-09T14:54:39Z</time>
      </trkpt>
      <trkpt lat="43.61178" lon="3.86112">
        <ele>41.6</ele>
        <time>2021-01-09T14:54:40Z</time>
      </trkpt>
      <trkpt lat="43.6118" lon="3.86122">
        <ele>41.3</ele>
        <time>2021-01-09T14:54:41Z</time>
      </trkpt>
      <trkpt lat="43.61183" lon="3.86132">
        <ele>41.1</ele>
        <time>2021-01-09T14:54:42Z</time>
      </trkpt>
      <trkpt lat="43.61186" lon="3.86141">
        <ele>40.9</ele>
        <time>2021-01-09T14:54:43Z</time>
      </trkpt>
      <trkpt lat="43.61189" lon="3.86151">
        <ele>40.6</ele>
        <time>2021-01-09T14:54:44Z</time>
      </trkpt>
      <trkpt lat="43.61192" lon="3.8616">
        <ele>40.2</ele>
        <time>2021-01-09T14:54:45Z</time>
      </trkpt>
      <trkpt lat="43.61195" lon="3.8617">
        <ele>40</ele>
        <time>2021-01-09T14:54:46Z</time>
      </trkpt>
      <trkpt lat="43.61197" lon="3.8618">
        <ele>40</ele>
        <time>2021-01-09T14:54:47Z</time>
      </trkpt>
      <trkpt lat="43.612" lon="3.86189">
        <ele>48</ele>
        <time>2021-01-09T14:54:48Z</time>
      </trkpt>
      <trkpt lat="43.61202" lon="3.86199">
        <ele>39.6</ele>
        <time>2021-01-09T14:54:49Z</time>
      </trkpt>
      <trkpt lat="43.61205" lon="3.86208">
        <ele>39.3</ele>
        <time>2021-01-09T14:54:50Z</time>
      </trkpt>
      <trkpt lat="43.61206" lon="3.86218">
        <ele>39.1</ele>
        <time>2021-01-09T14:54:51Z</time>
      </trkpt>
      <trkpt lat="43.61206" lon="3.86229">
        <ele>38.8</ele>
        <time>2021-01-09T14:54:52Z</time>
      </trkpt>
      <trkpt lat="43.61205" lon="3.8624">
        <ele>38.5</ele>
        <time>2021-01-09T14:54:53Z</time>
      </trkpt>
      <trkpt lat="43.61204" lon="3.86251">
        <ele>38.3</ele>
        <time>2021-01-09T14:54:54Z</time>
      </trkpt>
      <trkpt lat="43.61203" lon="3.86261">
        <ele>38.5</ele>
        <time>2021-01-09T14:54:55Z</time>
      </trkpt>
      <trkpt lat="43.61203" lon="3.86272">
        <ele>38.6</ele>
        <time>2021-01-09T14:54:56Z</time>
      </trkpt>
      <trkpt lat="43.61202" lon="3.86281">
        <ele>38.6</ele>
        <time>2021-01-09T14:54:57Z</time>
      </trkpt>
      <trkpt lat="43.61201" lon="3.86291">
        <ele>48</ele>
        <time>2021-01-09T14:54:58Z</time>
      </trkpt>
      <trkpt lat="43.61201" lon="3.86301">
        <ele>38.1</ele>
        <time>2021-01-09T14:54:59Z</time>
      </trkpt>
      <trkpt lat="43.612" lon="3.86311">
        <ele>38</ele>
        <time>2021-01-09T14:55:00Z</time>
      </trkpt>
      <trkpt lat="43.612" lon="3.86322">
        <ele>37.9</ele>
        <time>2021-01-09T14:55:01Z</time>
      </trkpt>
      <trkpt lat="43.61199" lon="3.86332">
        <ele>37.8</ele>
        <time>2021-01-09T14:55:02Z</time>
      </trkpt>
      <trkpt lat="43.61198" lon="3.86342">
        <ele>37.9</ele>
        <time>2021-01-09T14:55:03Z</time>
      </trkpt>
      <trkpt lat="43.61197" lon="3.86352">
        <ele>37.9</ele>
        <time>2021-01-09T14:55:04Z</time>
      </trkpt>
      <trkpt lat="43.61196" lon="3.86362">
        <ele>37.9</ele>
        <time>2021-01-09T14:55:05Z</time>
      </trkpt>
      <trkpt lat="43.61196" lon="3.86372">
        <ele>37.9</ele>
        <time>2021-01-09T14:55:06Z</time>
      </trkpt>
      <trkpt lat="43.61195" lon="3.86382">
        <ele>38</ele>
        <time>2021-01-09T14:55:07Z</time>
      </trkpt>
      <trkpt lat="43.61195" lon="3.86392">
        <ele>47</ele>
        <time>2021-01-09T14:55:08Z</time>
      </trkpt>
      <trkpt lat="43.61194" lon="3.86402">
        <ele>37.5</ele>
        <time>2021-01-09T14:55:09Z</time>
      </trkpt>
      <trkpt lat="43.61193" lon="3.86411">
        <ele>37.2</ele>
        <time>2021-01-09T14:55:10Z</time>
      </trkpt>
      <trkpt lat="43.61192" lon="3.86421">
        <ele>37</ele>
        <time>2021-01-09T14:55:11Z</time>
      </trkpt>
      <trkpt lat="43.61192" lon="3.8643">
        <ele>37</ele>
        <time>2021-01-09T14:55:12Z</time>
      </trkpt>
      <trkpt lat="43.6119" lon="3.8644">
        <ele>37</ele>
        <time>2021-01-09T14:55:13Z</time>
      </trkpt>
      <trkpt lat="43.61189" lon="3.8645">
        <ele>37</ele>
        <time>2021-01-09T14:55:14Z</time>
      </trkpt>
      <trkpt lat="43.61188" lon="3.86459">
        <ele>37</ele>
        <time>2021-01-09T14:55:15Z</time>
      </trkpt>
      <trkpt lat="43.61188" lon="3.86469">
        <ele>37</ele>
        <time>2021-01-09T14:55:16Z</time>
      </trkpt>
      <trkpt lat="43.61187" lon="3.86479">
        <ele>36.8</ele>
        <time>2021-01-09T14:55:17Z</time>
      </trkpt>
      <trkpt lat="43.61186" lon="3.86489">
        <ele>45</ele>
        <time>2021-01-09T14:55:18Z</time>
      </trkpt>
      <trkpt lat="43.61186" lon="3.86499">
        <ele>36.3</ele>
        <time>2021-01-09T14:55:19Z</time>
      </trkpt>
      <trkpt lat="43.61186" lon="3.86508">
        <ele>36.2</ele>
        <time>2021-01-09T14:55:20Z</time>
      </trkpt>
      <trkpt lat="43.61186" lon="3.86518">
        <ele>36.1</ele>
        <time>2021-01-09T14:55:21Z</time>
      </trkpt>
      <trkpt lat="43.61185" lon="3.86528">
        <ele>36</ele>
        <time>2021-01-09T14:55:22Z</time>
      </trkpt>
      <trkpt lat="43.61184" lon="3.86537">
        <ele>36</ele>
        <time>2021-01-09T14:55:23Z</time>
      </trkpt>
      <trkpt lat="43.61184" lon="3.86547">
        <ele>36</ele>
        <time>2021-01-09T14:55:24Z</time>
      </trkpt>
      <trkpt lat="43.61185" lon="3.86556">
        <ele>36</ele>
        <time>2021-01-09T14:55:25Z</time>
      </trkpt>
      <trkpt lat="43.61185" lon="3.86566">
        <ele>35.6</ele>
        <time>2021-01-09T14:55:26Z</time>
      </trkpt>
      <trkpt lat="43.61186" lon="3.86576">
        <ele>35.3</ele>
        <time>2021-01-09T14:55:27Z</time>
      </trkpt>
      <trkpt lat="43.61185" lon="3.86585">
        <ele>45</ele>
        <time>2021-01-09T14:55:28Z</time>
      </trkpt>
      <trkpt lat="43.61184" lon="3.86595">
        <ele>35</ele>
        <time>2021-01-09T14:55:29Z</time>
      </trkpt>
      <trkpt lat="43.61182" lon="3.86605">
        <ele>35</ele>
        <time>2021-01-09T14:55:30Z</time>
      </trkpt>
      <trkpt lat="43.6118" lon="3.86614">
        <ele>35</ele>
        <time>2021-01-09T14:55:31Z</time>
      </trkpt>
      <trkpt lat="43.61178" lon="3.86623">
        <ele>34.8</ele>
        <time>2021-01-09T14:55:32Z</time>
      </trkpt>
      <trkpt lat="43.61177" lon="3.86631">
        <ele>34.7</ele>
        <time>2021-01-09T14:55:33Z</time>
      </trkpt>
      <trkpt lat="43.61176" lon="3.86637">
        <ele>34.7</ele>
        <time>2021-01-09T14:55:34Z</time>
      </trkpt>
      <trkpt lat="43.61176" lon="3.86639">
        <ele>34.7</ele>
        <time>2021-01-09T14:55:35Z</time>
      </trkpt>
      <trkpt lat="43.61177" lon="3.86642">
        <ele>34.7</ele>
        <time>2021-01-09T14:55:37Z</time>
      </trkpt>
      <trkpt lat="43.61177" lon="3.86644">
        <ele>34.7</ele>
        <time>2021-01-09T14:55:40Z</time>
      </trkpt>
      <trkpt lat="43.61176" lon="3.86647">
        <ele>34.8</ele>
        <time>2021-01-09T14:55:43Z</time>
      </trkpt>
      <trkpt lat="43.61174" lon="3.86648">
        <ele>34.8</ele>
        <time>2021-01-09T14:55:45Z</time>
      </trkpt>
      <trkpt lat="43.61173" lon="3.86651">
        <ele>46</ele>
        <time>2021-01-09T14:55:48Z</time>
      </trkpt>
      <trkpt lat="43.61174" lon="3.86656">
        <ele>34.9</ele>
        <time>2021-01-09T14:55:49Z</time>
      </trkpt>
      <trkpt lat="43.61175" lon="3.8666">
        <ele>34.9</ele>
        <time>2021-01-09T14:55:50Z</time>
      </trkpt>
      <trkpt lat="43.61181" lon="3.86668">
        <ele>35</ele>
        <time>2021-01-09T14:55:52Z</time>
      </trkpt>
      <trkpt lat="43.61186" lon="3.8667">
        <ele>35</ele>
        <time>2021-01-09T14:55:53Z</time>
      </trkpt>
      <trkpt lat="43.61195" lon="3.86672">
        <ele>35</ele>
        <time>2021-01-09T14:55:55Z</time>
      </trkpt>
      <trkpt lat="43.612" lon="3.86673">
        <ele>34.8</ele>
        <time>2021-01-09T14:55:57Z</time>
      </trkpt>
      <trkpt lat="43.61205" lon="3.86675">
        <ele>45</ele>
        <time>2021-01-09T14:55:58Z</time>
      </trkpt>
      <trkpt lat="43.61208" lon="3.86679">
        <ele>34.5</ele>
        <time>2021-01-09T14:55:59Z</time>
      </trkpt>
      <trkpt lat="43.6121" lon="3.86685">
        <ele>34.4</ele>
        <time>2021-01-09T14:56:00Z</time>
      </trkpt>
      <trkpt lat="43.6121" lon="3.86691">
        <ele>34.4</ele>
        <time>2021-01-09T14:56:01Z</time>
      </trkpt>
      <trkpt lat="43.6121" lon="3.86697">
        <ele>34.6</ele>
        <time>2021-01-09T14:56:02Z</time>
      </trkpt>
      <trkpt lat="43.61209" lon="3.86703">
        <ele>34.9</ele>
        <time>2021-01-09T14:56:03Z</time>
      </trkpt>
      <trkpt lat="43.61209" lon="3.86709">
        <ele>35.3</ele>
        <time>2021-01-09T14:56:04Z</time>
      </trkpt>
      <trkpt lat="43.61208" lon="3.86715">
        <ele>35.6</ele>
        <time>2021-01-09T14:56:05Z</time>
      </trkpt>
      <trkpt lat="43.61208" lon="3.86721">
        <ele>35.9</ele>
        <time>2021-01-09T14:56:06Z</time>
      </trkpt>
      <trkpt lat="43.61207" lon="3.86727">
        <ele>36.1</ele>
        <time>2021-01-09T14:56:07Z</time>
      </trkpt>
      <trkpt lat="43.61207" lon="3.86733">
        <ele>44</ele>
        <time>2021-01-09T14:56:08Z</time>
      </trkpt>
      <trkpt lat="43.61207" lon="3.86739">
        <ele>36.3</ele>
        <time>2021-01-09T14:56:09Z</time>
      </trkpt>
      <trkpt lat="43.61206" lon="3.86745">
        <ele>36.3</ele>
        <time>2021-01-09T14:56:10Z</time>
      </trkpt>
      <trkpt lat="43.61206" lon="3.8675">
        <ele>36.4</ele>
        <time>2021-01-09T14:56:11Z</time>
      </trkpt>
      <trkpt lat="43.61205" lon="3.86755">
        <ele>36.5</ele>
        <time>2021-01-09T14:56:12Z</time>
      </trkpt>
      <trkpt lat="43.61205" lon="3.86761">
        <ele>36.6</ele>
        <time>2021-01-09T14:56:13Z</time>
      </trkpt>
      <trkpt lat="43.61205" lon="3.86766">
        <ele>36.7</ele>
        <time>2021-01-09T14:56:14Z</time>
      </trkpt>
      <trkpt lat="43.61206" lon="3.86771">
        <ele>36.9</ele>
        <time>2021-01-09T14:56:15Z</time>
      </trkpt>
      <trkpt lat="43.61205" lon="3.86776">
        <ele>37</ele>
        <time>2021-01-09T14:56:16Z</time>
      </trkpt>
      <trkpt lat="43.61205" lon="3.86781">
        <ele>37.1</ele>
        <time>2021-01-09T14:56:17Z</time>
      </trkpt>
      <trkpt lat="43.61205" lon="3.86786">
        <ele>44</ele>
        <time>2021-01-09T14:56:18Z</time>
      </trkpt>
      <trkpt lat="43.61206" lon="3.8679">
        <ele>37.4</ele>
        <time>2021-01-09T14:56:19Z</time>
      </trkpt>
      <trkpt lat="43.61206" lon="3.86795">
        <ele>37.6</ele>
        <time>2021-01-09T14:56:20Z</time>
      </trkpt>
      <trkpt lat="43.61208" lon="3.868">
        <ele>37.8</ele>
        <time>2021-01-09T14:56:21Z</time>
      </trkpt>
      <trkpt lat="43.61209" lon="3.86804">
        <ele>37.9</ele>
        <time>2021-01-09T14:56:22Z</time>
      </trkpt>
      <trkpt lat="43.61212" lon="3.86808">
        <ele>38.3</ele>
        <time>2021-01-09T14:56:23Z</time>
      </trkpt>
      <trkpt lat="43.61214" lon="3.86811">
        <ele>38.7</ele>
        <time>2021-01-09T14:56:24Z</time>
      </trkpt>
      <trkpt lat="43.61216" lon="3.86816">
        <ele>39.2</ele>
        <time>2021-01-09T14:56:25Z</time>
      </trkpt>
      <trkpt lat="43.61217" lon="3.8682">
        <ele>39.5</ele>
        <time>2021-01-09T14:56:26Z</time>
      </trkpt>
      <trkpt lat="43.61218" lon="3.86822">
        <ele>45</ele>
        <time>2021-01-09T14:56:28Z</time>
      </trkpt>
      <trkpt lat="43.61218" lon="3.86823">
        <ele>45</ele>
        <time>2021-01-09T14:56:34Z</time>
      </trkpt>
      <trkpt lat="43.6122" lon="3.86837">
        <ele>46</ele>
        <time>2021-01-09T14:56:39Z</time>
      </trkpt>
      <trkpt lat="43.6122" lon="3.8684">
        <ele>40.7</ele>
        <time>2021-01-09T14:56:40Z</time>
      </trkpt>
      <trkpt lat="43.61219" lon="3.86844">
        <ele>41.1</ele>
        <time>2021-01-09T14:56:41Z</time>
      </trkpt>
      <trkpt lat="43.61219" lon="3.86848">
        <ele>41.3</ele>
        <time>2021-01-09T14:56:42Z</time>
      </trkpt>
      <trkpt lat="43.61219" lon="3.86852">
        <ele>41.5</ele>
        <time>2021-01-09T14:56:43Z</time>
      </trkpt>
      <trkpt lat="43.61219" lon="3.86856">
        <ele>41.7</ele>
        <time>2021-01-09T14:56:44Z</time>
      </trkpt>
      <trkpt lat="43.6122" lon="3.86861">
        <ele>41.6</ele>
        <time>2021-01-09T14:56:45Z</time>
      </trkpt>
      <trkpt lat="43.6122" lon="3.86865">
        <ele>41.6</ele>
        <time>2021-01-09T14:56:46Z</time>
      </trkpt>
      <trkpt lat="43.6122" lon="3.86869">
        <ele>41.6</ele>
        <time>2021-01-09T14:56:47Z</time>
      </trkpt>
      <trkpt lat="43.6122" lon="3.86873">
        <ele>41.6</ele>
        <time>2021-01-09T14:56:48Z</time>
      </trkpt>
      <trkpt lat="43.61221" lon="3.86877">
        <ele>47</ele>
        <time>2021-01-09T14:56:49Z</time>
      </trkpt>
      <trkpt lat="43.61221" lon="3.86881">
        <ele>41.3</ele>
        <time>2021-01-09T14:56:50Z</time>
      </trkpt>
      <trkpt lat="43.61221" lon="3.86886">
        <ele>41.3</ele>
        <time>2021-01-09T14:56:51Z</time>
      </trkpt>
      <trkpt lat="43.61222" lon="3.8689">
        <ele>41.1</ele>
        <time>2021-01-09T14:56:52Z</time>
      </trkpt>
      <trkpt lat="43.61222" lon="3.86894">
        <ele>41.1</ele>
        <time>2021-01-09T14:56:53Z</time>
      </trkpt>
      <trkpt lat="43.61221" lon="3.86898">
        <ele>41.3</ele>
        <time>2021-01-09T14:56:54Z</time>
      </trkpt>
      <trkpt lat="43.61221" lon="3.86902">
        <ele>41.3</ele>
        <time>2021-01-09T14:56:55Z</time>
      </trkpt>
      <trkpt lat="43.61221" lon="3.86907">
        <ele>41.3</ele>
        <time>2021-01-09T14:56:56Z</time>
      </trkpt>
      <trkpt lat="43.61221" lon="3.86911">
        <ele>41.3</ele>
        <time>2021-01-09T14:56:57Z</time>
      </trkpt>
      <trkpt lat="43.6122" lon="3.86915">
        <ele>41.6</ele>
        <time>2021-01-09T14:56:58Z</time>
      </trkpt>
      <trkpt lat="43.61219" lon="3.86924">
        <ele>49</ele>
        <time>2021-01-09T14:56:59Z</time>
      </trkpt>
      <trkpt lat="43.61218" lon="3.86928">
        <ele>42.2</ele>
        <time>2021-01-09T14:57:00Z</time>
      </trkpt>
      <trkpt lat="43.61218" lon="3.86933">
        <ele>42.2</ele>
        <time>2021-01-09T14:57:01Z</time>
      </trkpt>
      <trkpt lat="43.61217" lon="3.86938">
        <ele>42.5</ele>
        <time>2021-01-09T14:57:03Z</time>
      </trkpt>
      <trkpt lat="43.61217" lon="3.86942">
        <ele>42.5</ele>
        <time>2021-01-09T14:57:04Z</time>
      </trkpt>
      <trkpt lat="43.61217" lon="3.86947">
        <ele>42.5</ele>
        <time>2021-01-09T14:57:05Z</time>
      </trkpt>
      <trkpt lat="43.61216" lon="3.86952">
        <ele>42.8</ele>
        <time>2021-01-09T14:57:06Z</time>
      </trkpt>
      <trkpt lat="43.61216" lon="3.86961">
        <ele>42.8</ele>
        <time>2021-01-09T14:57:07Z</time>
      </trkpt>
      <trkpt lat="43.61216" lon="3.86966">
        <ele>50</ele>
        <time>2021-01-09T14:57:09Z</time>
      </trkpt>
      <trkpt lat="43.61216" lon="3.86971">
        <ele>42.8</ele>
        <time>2021-01-09T14:57:10Z</time>
      </trkpt>
      <trkpt lat="43.61215" lon="3.86976">
        <ele>43.1</ele>
        <time>2021-01-09T14:57:11Z</time>
      </trkpt>
      <trkpt lat="43.61215" lon="3.86981">
        <ele>43.1</ele>
        <time>2021-01-09T14:57:12Z</time>
      </trkpt>
      <trkpt lat="43.61215" lon="3.86986">
        <ele>43.1</ele>
        <time>2021-01-09T14:57:13Z</time>
      </trkpt>
      <trkpt lat="43.61215" lon="3.86991">
        <ele>43.1</ele>
        <time>2021-01-09T14:57:14Z</time>
      </trkpt>
      <trkpt lat="43.61215" lon="3.86995">
        <ele>43.1</ele>
        <time>2021-01-09T14:57:15Z</time>
      </trkpt>
      <trkpt lat="43.61215" lon="3.87">
        <ele>43.1</ele>
        <time>2021-01-09T14:57:16Z</time>
      </trkpt>
      <trkpt lat="43.61215" lon="3.87005">
        <ele>42.9</ele>
        <time>2021-01-09T14:57:17Z</time>
      </trkpt>
      <trkpt lat="43.61214" lon="3.8701">
        <ele>43.1</ele>
        <time>2021-01-09T14:57:18Z</time>
      </trkpt>
      <trkpt lat="43.61214" lon="3.87015">
        <ele>52</ele>
        <time>2021-01-09T14:57:19Z</time>
      </trkpt>
      <trkpt lat="43.61214" lon="3.87019">
        <ele>42.9</ele>
        <time>2021-01-09T14:57:20Z</time>
      </trkpt>
      <trkpt lat="43.61213" lon="3.87024">
        <ele>43.1</ele>
        <time>2021-01-09T14:57:21Z</time>
      </trkpt>
      <trkpt lat="43.61213" lon="3.87029">
        <ele>43</ele>
        <time>2021-01-09T14:57:22Z</time>
      </trkpt>
      <trkpt lat="43.61212" lon="3.87034">
        <ele>43.3</ele>
        <time>2021-01-09T14:57:23Z</time>
      </trkpt>
      <trkpt lat="43.61212" lon="3.87039">
        <ele>43.3</ele>
        <time>2021-01-09T14:57:24Z</time>
      </trkpt>
      <trkpt lat="43.61211" lon="3.87044">
        <ele>43.6</ele>
        <time>2021-01-09T14:57:25Z</time>
      </trkpt>
      <trkpt lat="43.61211" lon="3.87049">
        <ele>43.6</ele>
        <time>2021-01-09T14:57:26Z</time>
      </trkpt>
      <trkpt lat="43.61211" lon="3.87054">
        <ele>43.6</ele>
        <time>2021-01-09T14:57:27Z</time>
      </trkpt>
      <trkpt lat="43.6121" lon="3.87059">
        <ele>43.8</ele>
        <time>2021-01-09T14:57:28Z</time>
      </trkpt>
      <trkpt lat="43.6121" lon="3.87064">
        <ele>52</ele>
        <time>2021-01-09T14:57:29Z</time>
      </trkpt>
      <trkpt lat="43.61209" lon="3.87069">
        <ele>43.8</ele>
        <time>2021-01-09T14:57:30Z</time>
      </trkpt>
      <trkpt lat="43.61209" lon="3.87074">
        <ele>43.6</ele>
        <time>2021-01-09T14:57:31Z</time>
      </trkpt>
      <trkpt lat="43.61209" lon="3.87078">
        <ele>43.5</ele>
        <time>2021-01-09T14:57:32Z</time>
      </trkpt>
      <trkpt lat="43.61209" lon="3.87083">
        <ele>43.3</ele>
        <time>2021-01-09T14:57:33Z</time>
      </trkpt>
      <trkpt lat="43.61209" lon="3.87088">
        <ele>43.3</ele>
        <time>2021-01-09T14:57:34Z</time>
      </trkpt>
      <trkpt lat="43.61208" lon="3.87093">
        <ele>43.6</ele>
        <time>2021-01-09T14:57:35Z</time>
      </trkpt>
      <trkpt lat="43.61208" lon="3.87098">
        <ele>43.6</ele>
        <time>2021-01-09T14:57:36Z</time>
      </trkpt>
      <trkpt lat="43.61207" lon="3.87103">
        <ele>43.7</ele>
        <time>2021-01-09T14:57:37Z</time>
      </trkpt>
      <trkpt lat="43.61207" lon="3.87108">
        <ele>43.7</ele>
        <time>2021-01-09T14:57:38Z</time>
      </trkpt>
      <trkpt lat="43.61207" lon="3.87113">
        <ele>54</ele>
        <time>2021-01-09T14:57:39Z</time>
      </trkpt>
      <trkpt lat="43.61206" lon="3.87118">
        <ele>43.6</ele>
        <time>2021-01-09T14:57:40Z</time>
      </trkpt>
      <trkpt lat="43.61206" lon="3.87123">
        <ele>43.6</ele>
        <time>2021-01-09T14:57:41Z</time>
      </trkpt>
      <trkpt lat="43.61205" lon="3.87128">
        <ele>43.6</ele>
        <time>2021-01-09T14:57:42Z</time>
      </trkpt>
      <trkpt lat="43.61205" lon="3.87133">
        <ele>43.6</ele>
        <time>2021-01-09T14:57:43Z</time>
      </trkpt>
      <trkpt lat="43.61205" lon="3.87138">
        <ele>43.5</ele>
        <time>2021-01-09T14:57:44Z</time>
      </trkpt>
      <trkpt lat="43.61204" lon="3.87143">
        <ele>43.6</ele>
        <time>2021-01-09T14:57:45Z</time>
      </trkpt>
      <trkpt lat="43.61204" lon="3.87148">
        <ele>43.6</ele>
        <time>2021-01-09T14:57:46Z</time>
      </trkpt>
      <trkpt lat="43.61204" lon="3.87153">
        <ele>43.6</ele>
        <time>2021-01-09T14:57:47Z</time>
      </trkpt>
      <trkpt lat="43.61203" lon="3.87157">
        <ele>43.8</ele>
        <time>2021-01-09T14:57:48Z</time>
      </trkpt>
      <trkpt lat="43.61203" lon="3.87161">
        <ele>55</ele>
        <time>2021-01-09T14:57:49Z</time>
      </trkpt>
      <trkpt lat="43.61203" lon="3.87165">
        <ele>43.8</ele>
        <time>2021-01-09T14:57:50Z</time>
      </trkpt>
      <trkpt lat="43.61203" lon="3.87168">
        <ele>43.8</ele>
        <time>2021-01-09T14:57:51Z</time>
      </trkpt>
      <trkpt lat="43.61203" lon="3.87171">
        <ele>44</ele>
        <time>2021-01-09T14:57:52Z</time>
      </trkpt>
      <trkpt lat="43.61203" lon="3.87174">
        <ele>44.1</ele>
        <time>2021-01-09T14:57:53Z</time>
      </trkpt>
      <trkpt lat="43.61204" lon="3.87178">
        <ele>44.2</ele>
        <time>2021-01-09T14:57:54Z</time>
      </trkpt>
      <trkpt lat="43.61204" lon="3.87183">
        <ele>44.4</ele>
        <time>2021-01-09T14:57:55Z</time>
      </trkpt>
      <trkpt lat="43.61204" lon="3.87186">
        <ele>44.6</ele>
        <time>2021-01-09T14:57:56Z</time>
      </trkpt>
      <trkpt lat="43.61204" lon="3.87189">
        <ele>44.7</ele>
        <time>2021-01-09T14:57:57Z</time>
      </trkpt>
      <trkpt lat="43.61205" lon="3.87192">
        <ele>44.7</ele>
        <time>2021-01-09T14:57:58Z</time>
      </trkpt>
      <trkpt lat="43.61205" lon="3.87195">
        <ele>54</ele>
        <time>2021-01-09T14:57:59Z</time>
      </trkpt>
      <trkpt lat="43.61206" lon="3.87199">
        <ele>44.7</ele>
        <time>2021-01-09T14:58:00Z</time>
      </trkpt>
      <trkpt lat="43.61205" lon="3.87202">
        <ele>44.8</ele>
        <time>2021-01-09T14:58:01Z</time>
      </trkpt>
      <trkpt lat="43.61204" lon="3.87205">
        <ele>44.8</ele>
        <time>2021-01-09T14:58:02Z</time>
      </trkpt>
      <trkpt lat="43.61204" lon="3.87209">
        <ele>44.8</ele>
        <time>2021-01-09T14:58:03Z</time>
      </trkpt>
      <trkpt lat="43.61206" lon="3.87212">
        <ele>44.6</ele>
        <time>2021-01-09T14:58:04Z</time>
      </trkpt>
      <trkpt lat="43.61208" lon="3.87216">
        <ele>44.5</ele>
        <time>2021-01-09T14:58:05Z</time>
      </trkpt>
      <trkpt lat="43.6121" lon="3.87219">
        <ele>44.4</ele>
        <time>2021-01-09T14:58:06Z</time>
      </trkpt>
      <trkpt lat="43.61214" lon="3.87223">
        <ele>44.4</ele>
        <time>2021-01-09T14:58:07Z</time>
      </trkpt>
      <trkpt lat="43.61217" lon="3.87227">
        <ele>44.6</ele>
        <time>2021-01-09T14:58:08Z</time>
      </trkpt>
      <trkpt lat="43.61219" lon="3.87234">
        <ele>52</ele>
        <time>2021-01-09T14:58:09Z</time>
      </trkpt>
      <trkpt lat="43.61222" lon="3.87239">
        <ele>45.2</ele>
        <time>2021-01-09T14:58:10Z</time>
      </trkpt>
      <trkpt lat="43.61224" lon="3.87243">
        <ele>45.3</ele>
        <time>2021-01-09T14:58:11Z</time>
      </trkpt>
      <trkpt lat="43.61228" lon="3.87246">
        <ele>44.9</ele>
        <time>2021-01-09T14:58:12Z</time>
      </trkpt>
      <trkpt lat="43.61233" lon="3.87248">
        <ele>44.3</ele>
        <time>2021-01-09T14:58:13Z</time>
      </trkpt>
      <trkpt lat="43.61238" lon="3.87249">
        <ele>43.7</ele>
        <time>2021-01-09T14:58:14Z</time>
      </trkpt>
      <trkpt lat="43.61243" lon="3.87251">
        <ele>43.1</ele>
        <time>2021-01-09T14:58:15Z</time>
      </trkpt>
      <trkpt lat="43.61246" lon="3.87251">
        <ele>42.6</ele>
        <time>2021-01-09T14:58:16Z</time>
      </trkpt>
      <trkpt lat="43.61249" lon="3.87252">
        <ele>42.2</ele>
        <time>2021-01-09T14:58:17Z</time>
      </trkpt>
      <trkpt lat="43.61252" lon="3.87255">
        <ele>42</ele>
        <time>2021-01-09T14:58:18Z</time>
      </trkpt>
      <trkpt lat="43.61255" lon="3.87257">
        <ele>54</ele>
        <time>2021-01-09T14:58:19Z</time>
      </trkpt>
      <trkpt lat="43.61257" lon="3.8726">
        <ele>41.6</ele>
        <time>2021-01-09T14:58:20Z</time>
      </trkpt>
      <trkpt lat="43.61257" lon="3.87263">
        <ele>41.7</ele>
        <time>2021-01-09T14:58:21Z</time>
      </trkpt>
      <trkpt lat="43.61255" lon="3.87268">
        <ele>42.1</ele>
        <time>2021-01-09T14:58:23Z</time>
      </trkpt>
      <trkpt lat="43.61254" lon="3.87271">
        <ele>42.3</ele>
        <time>2021-01-09T14:58:24Z</time>
      </trkpt>
      <trkpt lat="43.61253" lon="3.87274">
        <ele>42.5</ele>
        <time>2021-01-09T14:58:25Z</time>
      </trkpt>
      <trkpt lat="43.61252" lon="3.87276">
        <ele>42.7</ele>
        <time>2021-01-09T14:58:26Z</time>
      </trkpt>
      <trkpt lat="43.6125" lon="3.87279">
        <ele>43</ele>
        <time>2021-01-09T14:58:27Z</time>
      </trkpt>
      <trkpt lat="43.61248" lon="3.87282">
        <ele>43.4</ele>
        <time>2021-01-09T14:58:28Z</time>
      </trkpt>
      <trkpt lat="43.61246" lon="3.87284">
        <ele>56</ele>
        <time>2021-01-09T14:58:29Z</time>
      </trkpt>
      <trkpt lat="43.61244" lon="3.87288">
        <ele>44.1</ele>
        <time>2021-01-09T14:58:31Z</time>
      </trkpt>
      <trkpt lat="43.61243" lon="3.87289">
        <ele>44.3</ele>
        <time>2021-01-09T14:58:32Z</time>
      </trkpt>
      <trkpt lat="43.61241" lon="3.87291">
        <ele>44.6</ele>
        <time>2021-01-09T14:58:33Z</time>
      </trkpt>
      <trkpt lat="43.6124" lon="3.87292">
        <ele>44.8</ele>
        <time>2021-01-09T14:58:34Z</time>
      </trkpt>
      <trkpt lat="43.61238" lon="3.87294">
        <ele>45.1</ele>
        <time>2021-01-09T14:58:35Z</time>
      </trkpt>
      <trkpt lat="43.61237" lon="3.87297">
        <ele>45.2</ele>
        <time>2021-01-09T14:58:36Z</time>
      </trkpt>
      <trkpt lat="43.61233" lon="3.87308">
        <ele>45.4</ele>
        <time>2021-01-09T14:58:42Z</time>
      </trkpt>
      <trkpt lat="43.61227" lon="3.87319">
        <ele>46.1</ele>
        <time>2021-01-09T14:58:47Z</time>
      </trkpt>
      <trkpt lat="43.61216" lon="3.87324">
        <ele>48</ele>
        <time>2021-01-09T14:58:52Z</time>
      </trkpt>
      <trkpt lat="43.61208" lon="3.87334">
        <ele>49</ele>
        <time>2021-01-09T14:58:58Z</time>
      </trkpt>
      <trkpt lat="43.61201" lon="3.87343">
        <ele>49.4</ele>
        <time>2021-01-09T14:59:01Z</time>
      </trkpt>
      <trkpt lat="43.61193" lon="3.87353">
        <ele>49.6</ele>
        <time>2021-01-09T14:59:06Z</time>
      </trkpt>
      <trkpt lat="43.61188" lon="3.87355">
        <ele>49.6</ele>
        <time>2021-01-09T14:59:08Z</time>
      </trkpt>
      <trkpt lat="43.61185" lon="3.8736">
        <ele>49.4</ele>
        <time>2021-01-09T14:59:10Z</time>
      </trkpt>
      <trkpt lat="43.61184" lon="3.87364">
        <ele>49.4</ele>
        <time>2021-01-09T14:59:11Z</time>
      </trkpt>
      <trkpt lat="43.61183" lon="3.87368">
        <ele>49.4</ele>
        <time>2021-01-09T14:59:12Z</time>
      </trkpt>
      <trkpt lat="43.61182" lon="3.87373">
        <ele>49.4</ele>
        <time>2021-01-09T14:59:13Z</time>
      </trkpt>
      <trkpt lat="43.61181" lon="3.87376">
        <ele>49.5</ele>
        <time>2021-01-09T14:59:14Z</time>
      </trkpt>
      <trkpt lat="43.61177" lon="3.87389">
        <ele>49.6</ele>
        <time>2021-01-09T14:59:18Z</time>
      </trkpt>
      <trkpt lat="43.61176" lon="3.87394">
        <ele>56</ele>
        <time>2021-01-09T14:59:19Z</time>
      </trkpt>
      <trkpt lat="43.61176" lon="3.87402">
        <ele>49.7</ele>
        <time>2021-01-09T14:59:20Z</time>
      </trkpt>
      <trkpt lat="43.61177" lon="3.87407">
        <ele>49.6</ele>
        <time>2021-01-09T14:59:21Z</time>
      </trkpt>
      <trkpt lat="43.61177" lon="3.8741">
        <ele>49.6</ele>
        <time>2021-01-09T14:59:22Z</time>
      </trkpt>
      <trkpt lat="43.61179" lon="3.87412">
        <ele>49.6</ele>
        <time>2021-01-09T14:59:23Z</time>
      </trkpt>
      <trkpt lat="43.61181" lon="3.87415">
        <ele>49.5</ele>
        <time>2021-01-09T14:59:24Z</time>
      </trkpt>
      <trkpt lat="43.61183" lon="3.87418">
        <ele>49.4</ele>
        <time>2021-01-09T14:59:25Z</time>
      </trkpt>
      <trkpt lat="43.61185" lon="3.8742">
        <ele>49.3</ele>
        <time>2021-01-09T14:59:26Z</time>
      </trkpt>
      <trkpt lat="43.61187" lon="3.87422">
        <ele>49.1</ele>
        <time>2021-01-09T14:59:27Z</time>
      </trkpt>
      <trkpt lat="43.6119" lon="3.87424">
        <ele>48.9</ele>
        <time>2021-01-09T14:59:28Z</time>
      </trkpt>
      <trkpt lat="43.61192" lon="3.87428">
        <ele>52</ele>
        <time>2021-01-09T14:59:29Z</time>
      </trkpt>
      <trkpt lat="43.61195" lon="3.87432">
        <ele>48.4</ele>
        <time>2021-01-09T14:59:30Z</time>
      </trkpt>
      <trkpt lat="43.61196" lon="3.87436">
        <ele>48</ele>
        <time>2021-01-09T14:59:31Z</time>
      </trkpt>
      <trkpt lat="43.61194" lon="3.87441">
        <ele>48.2</ele>
        <time>2021-01-09T14:59:32Z</time>
      </trkpt>
      <trkpt lat="43.61191" lon="3.87446">
        <ele>48.3</ele>
        <time>2021-01-09T14:59:33Z</time>
      </trkpt>
      <trkpt lat="43.61189" lon="3.8745">
        <ele>48.5</ele>
        <time>2021-01-09T14:59:34Z</time>
      </trkpt>
      <trkpt lat="43.61187" lon="3.87455">
        <ele>48.7</ele>
        <time>2021-01-09T14:59:35Z</time>
      </trkpt>
      <trkpt lat="43.61185" lon="3.8746">
        <ele>48.9</ele>
        <time>2021-01-09T14:59:36Z</time>
      </trkpt>
      <trkpt lat="43.61185" lon="3.87464">
        <ele>48.9</ele>
        <time>2021-01-09T14:59:37Z</time>
      </trkpt>
      <trkpt lat="43.61187" lon="3.87467">
        <ele>48.9</ele>
        <time>2021-01-09T14:59:38Z</time>
      </trkpt>
      <trkpt lat="43.61188" lon="3.8747">
        <ele>51</ele>
        <time>2021-01-09T14:59:39Z</time>
      </trkpt>
      <trkpt lat="43.6119" lon="3.87473">
        <ele>49</ele>
        <time>2021-01-09T14:59:40Z</time>
      </trkpt>
      <trkpt lat="43.61192" lon="3.87477">
        <ele>48.8</ele>
        <time>2021-01-09T14:59:41Z</time>
      </trkpt>
      <trkpt lat="43.61194" lon="3.8748">
        <ele>48.7</ele>
        <time>2021-01-09T14:59:42Z</time>
      </trkpt>
      <trkpt lat="43.61196" lon="3.87484">
        <ele>48.2</ele>
        <time>2021-01-09T14:59:43Z</time>
      </trkpt>
      <trkpt lat="43.61198" lon="3.87487">
        <ele>47.6</ele>
        <time>2021-01-09T14:59:44Z</time>
      </trkpt>
      <trkpt lat="43.61201" lon="3.87491">
        <ele>46.7</ele>
        <time>2021-01-09T14:59:45Z</time>
      </trkpt>
      <trkpt lat="43.61203" lon="3.87495">
        <ele>46</ele>
        <time>2021-01-09T14:59:46Z</time>
      </trkpt>
      <trkpt lat="43.61203" lon="3.875">
        <ele>45.8</ele>
        <time>2021-01-09T14:59:47Z</time>
      </trkpt>
      <trkpt lat="43.61203" lon="3.87504">
        <ele>45.9</ele>
        <time>2021-01-09T14:59:48Z</time>
      </trkpt>
      <trkpt lat="43.61202" lon="3.87507">
        <ele>54</ele>
        <time>2021-01-09T14:59:49Z</time>
      </trkpt>
      <trkpt lat="43.61201" lon="3.8751">
        <ele>46.3</ele>
        <time>2021-01-09T14:59:50Z</time>
      </trkpt>
      <trkpt lat="43.612" lon="3.87514">
        <ele>46.5</ele>
        <time>2021-01-09T14:59:51Z</time>
      </trkpt>
      <trkpt lat="43.61198" lon="3.87519">
        <ele>46.8</ele>
        <time>2021-01-09T14:59:52Z</time>
      </trkpt>
      <trkpt lat="43.61198" lon="3.87524">
        <ele>46.7</ele>
        <time>2021-01-09T14:59:53Z</time>
      </trkpt>
      <trkpt lat="43.61197" lon="3.87529">
        <ele>46.7</ele>
        <time>2021-01-09T14:59:54Z</time>
      </trkpt>
      <trkpt lat="43.61196" lon="3.87535">
        <ele>46.8</ele>
        <time>2021-01-09T14:59:55Z</time>
      </trkpt>
      <trkpt lat="43.61195" lon="3.87541">
        <ele>46.9</ele>
        <time>2021-01-09T14:59:56Z</time>
      </trkpt>
      <trkpt lat="43.61194" lon="3.87546">
        <ele>47</ele>
        <time>2021-01-09T14:59:57Z</time>
      </trkpt>
      <trkpt lat="43.61194" lon="3.87551">
        <ele>47</ele>
        <time>2021-01-09T14:59:58Z</time>
      </trkpt>
      <trkpt lat="43.61194" lon="3.87556">
        <ele>56</ele>
        <time>2021-01-09T14:59:59Z</time>
      </trkpt>
      <trkpt lat="43.61193" lon="3.87562">
        <ele>47.1</ele>
        <time>2021-01-09T15:00:00Z</time>
      </trkpt>
      <trkpt lat="43.61193" lon="3.87567">
        <ele>47.1</ele>
        <time>2021-01-09T15:00:01Z</time>
      </trkpt>
      <trkpt lat="43.61192" lon="3.87573">
        <ele>47.1</ele>
        <time>2021-01-09T15:00:02Z</time>
      </trkpt>
      <trkpt lat="43.61192" lon="3.87578">
        <ele>47.1</ele>
        <time>2021-01-09T15:00:03Z</time>
      </trkpt>
      <trkpt lat="43.6119" lon="3.87591">
        <ele>46.7</ele>
        <time>2021-01-09T15:00:06Z</time>
      </trkpt>
      <trkpt lat="43.61189" lon="3.87605">
        <ele>56</ele>
        <time>2021-01-09T15:00:09Z</time>
      </trkpt>
      <trkpt lat="43.61185" lon="3.87617">
        <ele>45.3</ele>
        <time>2021-01-09T15:00:10Z</time>
      </trkpt>
      <trkpt lat="43.61185" lon="3.87632">
        <ele>44.4</ele>
        <time>2021-01-09T15:00:15Z</time>
      </trkpt>
      <trkpt lat="43.61195" lon="3.87636">
        <ele>43.1</ele>
        <time>2021-01-09T15:00:17Z</time>
      </trkpt>
      <trkpt lat="43.61201" lon="3.87648">
        <ele>42.5</ele>
        <time>2021-01-09T15:00:21Z</time>
      </trkpt>
      <trkpt lat="43.61203" lon="3.87661">
        <ele>42.4</ele>
        <time>2021-01-09T15:00:24Z</time>
      </trkpt>
      <trkpt lat="43.61202" lon="3.87677">
        <ele>42.9</ele>
        <time>2021-01-09T15:00:28Z</time>
      </trkpt>
      <trkpt lat="43.61201" lon="3.8769">
        <ele>43.5</ele>
        <time>2021-01-09T15:00:30Z</time>
      </trkpt>
      <trkpt lat="43.612" lon="3.87706">
        <ele>44</ele>
        <time>2021-01-09T15:00:33Z</time>
      </trkpt>
      <trkpt lat="43.61202" lon="3.87722">
        <ele>43.9</ele>
        <time>2021-01-09T15:00:36Z</time>
      </trkpt>
      <trkpt lat="43.61204" lon="3.87736">
        <ele>44</ele>
        <time>2021-01-09T15:00:38Z</time>
      </trkpt>
      <trkpt lat="43.61205" lon="3.8775">
        <ele>44.2</ele>
        <time>2021-01-09T15:00:40Z</time>
      </trkpt>
      <trkpt lat="43.61206" lon="3.87764">
        <ele>44.6</ele>
        <time>2021-01-09T15:00:43Z</time>
      </trkpt>
      <trkpt lat="43.61202" lon="3.87776">
        <ele>45</ele>
        <time>2021-01-09T15:00:47Z</time>
      </trkpt>
      <trkpt lat="43.61195" lon="3.87788">
        <ele>45.4</ele>
        <time>2021-01-09T15:00:51Z</time>
      </trkpt>
      <trkpt lat="43.61189" lon="3.87797">
        <ele>45.8</ele>
        <time>2021-01-09T15:00:54Z</time>
      </trkpt>
      <trkpt lat="43.6118" lon="3.87804">
        <ele>56</ele>
        <time>2021-01-09T15:00:59Z</time>
      </trkpt>
      <trkpt lat="43.61171" lon="3.8781">
        <ele>45.9</ele>
        <time>2021-01-09T15:01:04Z</time>
      </trkpt>
      <trkpt lat="43.61171" lon="3.87824">
        <ele>45.4</ele>
        <time>2021-01-09T15:01:11Z</time>
      </trkpt>
      <trkpt lat="43.6117" lon="3.87837">
        <ele>45</ele>
        <time>2021-01-09T15:01:14Z</time>
      </trkpt>
      <trkpt lat="43.61175" lon="3.87849">
        <ele>44.9</ele>
        <time>2021-01-09T15:01:17Z</time>
      </trkpt>
      <trkpt lat="43.61178" lon="3.87862">
        <ele>44.8</ele>
        <time>2021-01-09T15:01:22Z</time>
      </trkpt>
      <trkpt lat="43.61183" lon="3.87874">
        <ele>44.4</ele>
        <time>2021-01-09T15:01:26Z</time>
      </trkpt>
      <trkpt lat="43.6119" lon="3.87887">
        <ele>43.3</ele>
        <time>2021-01-09T15:01:30Z</time>
      </trkpt>
      <trkpt lat="43.61197" lon="3.87897">
        <ele>42.9</ele>
        <time>2021-01-09T15:01:33Z</time>
      </trkpt>
      <trkpt lat="43.61206" lon="3.87905">
        <ele>42.3</ele>
        <time>2021-01-09T15:01:36Z</time>
      </trkpt>
      <trkpt lat="43.61202" lon="3.87913">
        <ele>42.5</ele>
        <time>2021-01-09T15:01:40Z</time>
      </trkpt>
      <trkpt lat="43.61192" lon="3.87918">
        <ele>43</ele>
        <time>2021-01-09T15:01:42Z</time>
      </trkpt>
      <trkpt lat="43.61186" lon="3.8792">
        <ele>43</ele>
        <time>2021-01-09T15:01:44Z</time>
      </trkpt>
      <trkpt lat="43.61182" lon="3.87921">
        <ele>43</ele>
        <time>2021-01-09T15:01:46Z</time>
      </trkpt>
      <trkpt lat="43.61173" lon="3.87921">
        <ele>43</ele>
        <time>2021-01-09T15:01:47Z</time>
      </trkpt>
      <trkpt lat="43.61162" lon="3.8792">
        <ele>42.6</ele>
        <time>2021-01-09T15:01:50Z</time>
      </trkpt>
      <trkpt lat="43.61151" lon="3.87921">
        <ele>41.7</ele>
        <time>2021-01-09T15:01:52Z</time>
      </trkpt>
      <trkpt lat="43.61137" lon="3.87921">
        <ele>40.6</ele>
        <time>2021-01-09T15:01:54Z</time>
      </trkpt>
      <trkpt lat="43.61123" lon="3.87922">
        <ele>39.6</ele>
        <time>2021-01-09T15:01:56Z</time>
      </trkpt>
      <trkpt lat="43.61111" lon="3.87923">
        <ele>38.8</ele>
        <time>2021-01-09T15:01:58Z</time>
      </trkpt>
      <trkpt lat="43.61105" lon="3.87912">
        <ele>39.2</ele>
        <time>2021-01-09T15:02:02Z</time>
      </trkpt>
      <trkpt lat="43.61105" lon="3.87899">
        <ele>39.6</ele>
        <time>2021-01-09T15:02:10Z</time>
      </trkpt>
      <trkpt lat="43.61114" lon="3.87891">
        <ele>40.2</ele>
        <time>2021-01-09T15:02:15Z</time>
      </trkpt>
      <trkpt lat="43.61123" lon="3.87884">
        <ele>41.5</ele>
        <time>2021-01-09T15:02:26Z</time>
      </trkpt>
      <trkpt lat="43.61132" lon="3.87886">
        <ele>58</ele>
        <time>2021-01-09T15:02:29Z</time>
      </trkpt>
      <trkpt lat="43.6114" lon="3.87878">
        <ele>43</ele>
        <time>2021-01-09T15:02:32Z</time>
      </trkpt>
      <trkpt lat="43.61146" lon="3.87868">
        <ele>43.3</ele>
        <time>2021-01-09T15:02:36Z</time>
      </trkpt>
      <trkpt lat="43.61152" lon="3.87856">
        <ele>43.7</ele>
        <time>2021-01-09T15:02:41Z</time>
      </trkpt>
      <trkpt lat="43.61156" lon="3.8785">
        <ele>44</ele>
        <time>2021-01-09T15:02:43Z</time>
      </trkpt>
      <trkpt lat="43.61163" lon="3.8784">
        <ele>44.6</ele>
        <time>2021-01-09T15:02:47Z</time>
      </trkpt>
      <trkpt lat="43.6117" lon="3.87828">
        <ele>45.3</ele>
        <time>2021-01-09T15:02:51Z</time>
      </trkpt>
      <trkpt lat="43.61171" lon="3.87825">
        <ele>45.4</ele>
        <time>2021-01-09T15:02:52Z</time>
      </trkpt>
      <trkpt lat="43.61172" lon="3.87822">
        <ele>45.5</ele>
        <time>2021-01-09T15:02:53Z</time>
      </trkpt>
      <trkpt lat="43.61172" lon="3.87819">
        <ele>45.6</ele>
        <time>2021-01-09T15:02:54Z</time>
      </trkpt>
      <trkpt lat="43.61171" lon="3.87816">
        <ele>45.7</ele>
        <time>2021-01-09T15:02:55Z</time>
      </trkpt>
      <trkpt lat="43.61167" lon="3.87804">
        <ele>58</ele>
        <time>2021-01-09T15:02:59Z</time>
      </trkpt>
      <trkpt lat="43.61164" lon="3.87789">
        <ele>46.6</ele>
        <time>2021-01-09T15:03:03Z</time>
      </trkpt>
      <trkpt lat="43.61163" lon="3.87784">
        <ele>46.8</ele>
        <time>2021-01-09T15:03:04Z</time>
      </trkpt>
      <trkpt lat="43.61162" lon="3.87781">
        <ele>46.9</ele>
        <time>2021-01-09T15:03:05Z</time>
      </trkpt>
      <trkpt lat="43.61161" lon="3.87778">
        <ele>47</ele>
        <time>2021-01-09T15:03:06Z</time>
      </trkpt>
      <trkpt lat="43.6116" lon="3.87775">
        <ele>47</ele>
        <time>2021-01-09T15:03:07Z</time>
      </trkpt>
      <trkpt lat="43.61159" lon="3.8777">
        <ele>58</ele>
        <time>2021-01-09T15:03:09Z</time>
      </trkpt>
      <trkpt lat="43.61159" lon="3.87768">
        <ele>47</ele>
        <time>2021-01-09T15:03:10Z</time>
      </trkpt>
      <trkpt lat="43.61159" lon="3.87765">
        <ele>47</ele>
        <time>2021-01-09T15:03:11Z</time>
      </trkpt>
      <trkpt lat="43.61158" lon="3.87761">
        <ele>47</ele>
        <time>2021-01-09T15:03:13Z</time>
      </trkpt>
      <trkpt lat="43.6116" lon="3.87756">
        <ele>47</ele>
        <time>2021-01-09T15:03:15Z</time>
      </trkpt>
      <trkpt lat="43.61161" lon="3.87753">
        <ele>47</ele>
        <time>2021-01-09T15:03:16Z</time>
      </trkpt>
      <trkpt lat="43.61162" lon="3.8775">
        <ele>47</ele>
        <time>2021-01-09T15:03:18Z</time>
      </trkpt>
      <trkpt lat="43.61162" lon="3.87748">
        <ele>57</ele>
        <time>2021-01-09T15:03:19Z</time>
      </trkpt>
      <trkpt lat="43.61161" lon="3.87747">
        <ele>47</ele>
        <time>2021-01-09T15:03:25Z</time>
      </trkpt>
      <trkpt lat="43.61159" lon="3.87749">
        <ele>57</ele>
        <time>2021-01-09T15:03:29Z</time>
      </trkpt>
      <trkpt lat="43.61156" lon="3.87748">
        <ele>47</ele>
        <time>2021-01-09T15:03:33Z</time>
      </trkpt>
      <trkpt lat="43.61153" lon="3.87746">
        <ele>58</ele>
        <time>2021-01-09T15:03:36Z</time>
      </trkpt>
      <trkpt lat="43.61152" lon="3.87745">
        <ele>59</ele>
        <time>2021-01-09T15:03:39Z</time>
      </trkpt>
      <trkpt lat="43.6115" lon="3.8774">
        <ele>63</ele>
        <time>2021-01-09T15:04:11Z</time>
      </trkpt>
      <trkpt lat="43.61148" lon="3.8774">
        <ele>47</ele>
        <time>2021-01-09T15:04:12Z</time>
      </trkpt>
      <trkpt lat="43.61147" lon="3.87739">
        <ele>47</ele>
        <time>2021-01-09T15:04:20Z</time>
      </trkpt>
      <trkpt lat="43.61145" lon="3.87739">
        <ele>47</ele>
        <time>2021-01-09T15:04:22Z</time>
      </trkpt>
      <trkpt lat="43.61146" lon="3.87736">
        <ele>47</ele>
        <time>2021-01-09T15:04:26Z</time>
      </trkpt>
      <trkpt lat="43.61145" lon="3.87735">
        <ele>66</ele>
        <time>2021-01-09T15:04:34Z</time>
      </trkpt>
    </trkseg>
  </trk>
</gpx>